<?xml version='1.0' encoding='UTF-8'?><gpx version="1.1" creator="JPX - https://github.com/jenetics/jpx" xmlns="http://www.topografix.com/GPX/1/1"><trk><trkseg><trkpt lat="45.4858867" lon="9.2642349"><ele>115.0</ele><time>2026-03-24T08:12:43.085Z</time></trkpt><trkpt lat="45.4869722" lon="9.2645768"><ele>115.0</ele><time>2026-03-24T08:12:45.308Z</time></trkpt><trkpt lat="45.4867498" lon="9.2642407"><ele>115.0</ele><time>2026-03-24T08:12:55.231Z</time></trkpt><trkpt lat="45.4866985" lon="9.2640462"><ele>115.00000000000001</ele><time>2026-03-24T08:12:56.25Z</time></trkpt><trkpt lat="45.4866821" lon="9.2641402"><ele>115.0</ele><time>2026-03-24T08:12:59.265Z</time></trkpt><trkpt lat="45.486624" lon="9.2642176"><ele>115.0</ele><time>2026-03-24T08:13:05.292Z</time></trkpt><trkpt lat="45.486567" lon="9.2643018"><ele>115.0</ele><time>2026-03-24T08:18:21.899Z</time></trkpt><trkpt lat="45.4866363" lon="9.2642142"><ele>115.00000000000001</ele><time>2026-03-24T08:19:33.864Z</time></trkpt><trkpt lat="45.4867016" lon="9.2641209"><ele>115.0</ele><time>2026-03-24T08:19:35.883Z</time></trkpt><trkpt lat="45.4867356" lon="9.2640157"><ele>115.00000000000001</ele><time>2026-03-24T08:19:36.866Z</time></trkpt><trkpt lat="45.4868006" lon="9.2638869"><ele>115.0</ele><time>2026-03-24T08:19:38.879Z</time></trkpt><trkpt lat="45.4868751" lon="9.2638385"><ele>115.0</ele><time>2026-03-24T08:19:40.883Z</time></trkpt><trkpt lat="45.486969" lon="9.2638678"><ele>115.0</ele><time>2026-03-24T08:19:42.89Z</time></trkpt><trkpt lat="45.4870306" lon="9.2639385"><ele>115.00000000000001</ele><time>2026-03-24T08:19:43.883Z</time></trkpt><trkpt lat="45.4870849" lon="9.2640191"><ele>115.0</ele><time>2026-03-24T08:19:44.885Z</time></trkpt><trkpt lat="45.4871289" lon="9.2641334"><ele>115.4</ele><time>2026-03-24T08:19:45.865Z</time></trkpt><trkpt lat="45.4871848" lon="9.2642729"><ele>115.8</ele><time>2026-03-24T08:19:46.882Z</time></trkpt><trkpt lat="45.4872848" lon="9.2644033"><ele>116.19999999999999</ele><time>2026-03-24T08:19:47.892Z</time></trkpt><trkpt lat="45.4873515" lon="9.2645092"><ele>116.6</ele><time>2026-03-24T08:19:48.888Z</time></trkpt><trkpt lat="45.4874134" lon="9.2645987"><ele>117.0</ele><time>2026-03-24T08:19:49.881Z</time></trkpt><trkpt lat="45.487487" lon="9.2646585"><ele>117.0</ele><time>2026-03-24T08:19:50.88Z</time></trkpt><trkpt lat="45.4875811" lon="9.2646652"><ele>116.99999999999999</ele><time>2026-03-24T08:19:51.874Z</time></trkpt><trkpt lat="45.4876722" lon="9.2646436"><ele>116.99999999999999</ele><time>2026-03-24T08:19:52.875Z</time></trkpt><trkpt lat="45.4877508" lon="9.2645934"><ele>117.0</ele><time>2026-03-24T08:19:53.872Z</time></trkpt><trkpt lat="45.4878375" lon="9.2644955"><ele>117.0</ele><time>2026-03-24T08:19:54.886Z</time></trkpt><trkpt lat="45.4879168" lon="9.2643489"><ele>117.75</ele><time>2026-03-24T08:19:55.87Z</time></trkpt><trkpt lat="45.4879813" lon="9.2641725"><ele>118.5</ele><time>2026-03-24T08:19:56.875Z</time></trkpt><trkpt lat="45.4880531" lon="9.2639855"><ele>119.25</ele><time>2026-03-24T08:19:57.88Z</time></trkpt><trkpt lat="45.4881166" lon="9.2638294"><ele>120.0</ele><time>2026-03-24T08:19:58.872Z</time></trkpt><trkpt lat="45.4881626" lon="9.263689"><ele>120.0</ele><time>2026-03-24T08:19:59.871Z</time></trkpt><trkpt lat="45.4882168" lon="9.2635705"><ele>120.0</ele><time>2026-03-24T08:20:00.869Z</time></trkpt><trkpt lat="45.488266" lon="9.2634673"><ele>120.0</ele><time>2026-03-24T08:20:01.872Z</time></trkpt><trkpt lat="45.488301" lon="9.2633524"><ele>120.0</ele><time>2026-03-24T08:20:02.881Z</time></trkpt><trkpt lat="45.4883342" lon="9.2632364"><ele>120.0</ele><time>2026-03-24T08:20:03.873Z</time></trkpt><trkpt lat="45.4883685" lon="9.2631443"><ele>120.0</ele><time>2026-03-24T08:20:04.881Z</time></trkpt><trkpt lat="45.4884079" lon="9.2630327"><ele>119.71428571428572</ele><time>2026-03-24T08:20:06.898Z</time></trkpt><trkpt lat="45.4884653" lon="9.2629798"><ele>119.42857142857142</ele><time>2026-03-24T08:20:16.899Z</time></trkpt><trkpt lat="45.4885229" lon="9.2629228"><ele>119.14285714285714</ele><time>2026-03-24T08:20:19.896Z</time></trkpt><trkpt lat="45.4886004" lon="9.2628845"><ele>118.85714285714286</ele><time>2026-03-24T08:20:22.894Z</time></trkpt><trkpt lat="45.4886751" lon="9.2628682"><ele>118.57142857142858</ele><time>2026-03-24T08:20:24.898Z</time></trkpt><trkpt lat="45.4887374" lon="9.2628466"><ele>118.28571428571428</ele><time>2026-03-24T08:20:26.898Z</time></trkpt><trkpt lat="45.4888066" lon="9.2628352"><ele>118.0</ele><time>2026-03-24T08:20:29.896Z</time></trkpt><trkpt lat="45.4888754" lon="9.2628421"><ele>117.60000000000001</ele><time>2026-03-24T08:20:33.893Z</time></trkpt><trkpt lat="45.4889448" lon="9.2628513"><ele>117.20000000000002</ele><time>2026-03-24T08:20:35.888Z</time></trkpt><trkpt lat="45.4890172" lon="9.2628618"><ele>116.8</ele><time>2026-03-24T08:20:39.908Z</time></trkpt><trkpt lat="45.489144" lon="9.2628454"><ele>116.4</ele><time>2026-03-24T08:20:42.901Z</time></trkpt><trkpt lat="45.4892623" lon="9.2628269"><ele>116.0</ele><time>2026-03-24T08:20:43.904Z</time></trkpt><trkpt lat="45.4893493" lon="9.2627882"><ele>116.0</ele><time>2026-03-24T08:20:44.899Z</time></trkpt><trkpt lat="45.4894281" lon="9.2627381"><ele>116.0</ele><time>2026-03-24T08:20:45.891Z</time></trkpt><trkpt lat="45.4894954" lon="9.2626499"><ele>116.0</ele><time>2026-03-24T08:20:46.893Z</time></trkpt><trkpt lat="45.489532" lon="9.2625338"><ele>116.0</ele><time>2026-03-24T08:20:47.89Z</time></trkpt><trkpt lat="45.4895607" lon="9.2624138"><ele>116.0</ele><time>2026-03-24T08:20:48.883Z</time></trkpt><trkpt lat="45.489571" lon="9.262269"><ele>116.19999999999999</ele><time>2026-03-24T08:20:49.882Z</time></trkpt><trkpt lat="45.4895887" lon="9.2621416"><ele>116.39999999999999</ele><time>2026-03-24T08:20:50.879Z</time></trkpt><trkpt lat="45.4896273" lon="9.262005"><ele>116.6</ele><time>2026-03-24T08:20:51.881Z</time></trkpt><trkpt lat="45.489693" lon="9.2618828"><ele>116.8</ele><time>2026-03-24T08:20:52.874Z</time></trkpt><trkpt lat="45.4897805" lon="9.2618027"><ele>117.0</ele><time>2026-03-24T08:20:53.861Z</time></trkpt><trkpt lat="45.4898808" lon="9.2617456"><ele>117.0</ele><time>2026-03-24T08:20:54.891Z</time></trkpt><trkpt lat="45.4899871" lon="9.2617212"><ele>116.99999999999999</ele><time>2026-03-24T08:20:55.879Z</time></trkpt><trkpt lat="45.4900949" lon="9.2617034"><ele>116.99999999999999</ele><time>2026-03-24T08:20:56.881Z</time></trkpt><trkpt lat="45.4902094" lon="9.2616944"><ele>117.0</ele><time>2026-03-24T08:20:57.879Z</time></trkpt><trkpt lat="45.4903252" lon="9.2617092"><ele>117.0</ele><time>2026-03-24T08:20:58.878Z</time></trkpt><trkpt lat="45.4904263" lon="9.2617534"><ele>117.19999999999999</ele><time>2026-03-24T08:20:59.867Z</time></trkpt><trkpt lat="45.4905366" lon="9.2618162"><ele>117.39999999999999</ele><time>2026-03-24T08:21:00.876Z</time></trkpt><trkpt lat="45.4906414" lon="9.2618533"><ele>117.60000000000001</ele><time>2026-03-24T08:21:01.875Z</time></trkpt><trkpt lat="45.4907127" lon="9.2618671"><ele>117.80000000000001</ele><time>2026-03-24T08:21:02.873Z</time></trkpt><trkpt lat="45.4907911" lon="9.2618283"><ele>118.0</ele><time>2026-03-24T08:21:03.872Z</time></trkpt><trkpt lat="45.4909196" lon="9.2618103"><ele>118.0</ele><time>2026-03-24T08:21:04.877Z</time></trkpt><trkpt lat="45.4910459" lon="9.2617889"><ele>118.0</ele><time>2026-03-24T08:21:05.884Z</time></trkpt><trkpt lat="45.4911686" lon="9.2617829"><ele>118.0</ele><time>2026-03-24T08:21:06.886Z</time></trkpt><trkpt lat="45.4912886" lon="9.2617793"><ele>118.0</ele><time>2026-03-24T08:21:07.9Z</time></trkpt><trkpt lat="45.4914378" lon="9.2618091"><ele>118.66666666666667</ele><time>2026-03-24T08:21:08.884Z</time></trkpt><trkpt lat="45.4916037" lon="9.2618983"><ele>119.33333333333334</ele><time>2026-03-24T08:21:09.882Z</time></trkpt><trkpt lat="45.4917503" lon="9.2620083"><ele>120.0</ele><time>2026-03-24T08:21:10.891Z</time></trkpt><trkpt lat="45.4919384" lon="9.2621064"><ele>120.66666666666666</ele><time>2026-03-24T08:21:11.882Z</time></trkpt><trkpt lat="45.492108" lon="9.2621929"><ele>121.33333333333333</ele><time>2026-03-24T08:21:12.886Z</time></trkpt><trkpt lat="45.4922546" lon="9.2622785"><ele>122.0</ele><time>2026-03-24T08:21:13.877Z</time></trkpt><trkpt lat="45.4924372" lon="9.2623602"><ele>122.0</ele><time>2026-03-24T08:21:14.882Z</time></trkpt><trkpt lat="45.4926213" lon="9.2624312"><ele>122.0</ele><time>2026-03-24T08:21:15.891Z</time></trkpt><trkpt lat="45.4928097" lon="9.2625336"><ele>122.0</ele><time>2026-03-24T08:21:16.886Z</time></trkpt><trkpt lat="45.4929809" lon="9.2625972"><ele>121.0</ele><time>2026-03-24T08:21:17.884Z</time></trkpt><trkpt lat="45.4931265" lon="9.2626524"><ele>120.0</ele><time>2026-03-24T08:21:18.88Z</time></trkpt><trkpt lat="45.4933285" lon="9.2627257"><ele>119.0</ele><time>2026-03-24T08:21:19.878Z</time></trkpt><trkpt lat="45.4934723" lon="9.2628315"><ele>119.0</ele><time>2026-03-24T08:21:20.877Z</time></trkpt><trkpt lat="45.4935904" lon="9.2628981"><ele>119.0</ele><time>2026-03-24T08:21:21.878Z</time></trkpt><trkpt lat="45.4936948" lon="9.2629553"><ele>119.0</ele><time>2026-03-24T08:21:22.882Z</time></trkpt><trkpt lat="45.4937962" lon="9.2629653"><ele>119.0</ele><time>2026-03-24T08:21:23.884Z</time></trkpt><trkpt lat="45.4939587" lon="9.2630509"><ele>119.6</ele><time>2026-03-24T08:21:24.885Z</time></trkpt><trkpt lat="45.494043" lon="9.2631376"><ele>120.2</ele><time>2026-03-24T08:21:25.874Z</time></trkpt><trkpt lat="45.4941406" lon="9.2631982"><ele>120.79999999999998</ele><time>2026-03-24T08:21:26.873Z</time></trkpt><trkpt lat="45.4942077" lon="9.2633122"><ele>121.39999999999999</ele><time>2026-03-24T08:21:27.876Z</time></trkpt><trkpt lat="45.4942906" lon="9.2633679"><ele>122.0</ele><time>2026-03-24T08:21:28.88Z</time></trkpt><trkpt lat="45.4943446" lon="9.2634189"><ele>121.99999999999999</ele><time>2026-03-24T08:21:29.892Z</time></trkpt><trkpt lat="45.494406" lon="9.2634773"><ele>122.0</ele><time>2026-03-24T08:21:30.887Z</time></trkpt><trkpt lat="45.4944696" lon="9.2634854"><ele>122.0</ele><time>2026-03-24T08:21:31.877Z</time></trkpt><trkpt lat="45.4945438" lon="9.2634668"><ele>122.0</ele><time>2026-03-24T08:21:32.881Z</time></trkpt><trkpt lat="45.4946138" lon="9.2634127"><ele>121.99999999999999</ele><time>2026-03-24T08:21:33.886Z</time></trkpt><trkpt lat="45.4947054" lon="9.2633622"><ele>122.0</ele><time>2026-03-24T08:21:34.881Z</time></trkpt><trkpt lat="45.4948109" lon="9.2633176"><ele>122.0</ele><time>2026-03-24T08:21:35.88Z</time></trkpt><trkpt lat="45.4949239" lon="9.2632866"><ele>122.0</ele><time>2026-03-24T08:21:36.883Z</time></trkpt><trkpt lat="45.4950411" lon="9.2632776"><ele>122.0</ele><time>2026-03-24T08:21:37.88Z</time></trkpt><trkpt lat="45.4951595" lon="9.2632709"><ele>122.0</ele><time>2026-03-24T08:21:38.892Z</time></trkpt><trkpt lat="45.495282" lon="9.2632564"><ele>121.5</ele><time>2026-03-24T08:21:39.876Z</time></trkpt><trkpt lat="45.4954321" lon="9.2632475"><ele>121.0</ele><time>2026-03-24T08:21:40.884Z</time></trkpt><trkpt lat="45.4955652" lon="9.263244"><ele>120.5</ele><time>2026-03-24T08:21:41.879Z</time></trkpt><trkpt lat="45.4956662" lon="9.2632112"><ele>120.0</ele><time>2026-03-24T08:21:42.883Z</time></trkpt><trkpt lat="45.4958314" lon="9.2632339"><ele>120.0</ele><time>2026-03-24T08:21:43.881Z</time></trkpt><trkpt lat="45.4960364" lon="9.2632407"><ele>120.0</ele><time>2026-03-24T08:21:44.881Z</time></trkpt><trkpt lat="45.4962012" lon="9.2632184"><ele>120.0</ele><time>2026-03-24T08:21:45.884Z</time></trkpt><trkpt lat="45.4963663" lon="9.263237"><ele>120.5</ele><time>2026-03-24T08:21:46.887Z</time></trkpt><trkpt lat="45.4964974" lon="9.263265"><ele>121.0</ele><time>2026-03-24T08:21:47.883Z</time></trkpt><trkpt lat="45.4966241" lon="9.2632732"><ele>121.5</ele><time>2026-03-24T08:21:48.883Z</time></trkpt><trkpt lat="45.4967652" lon="9.2632779"><ele>122.0</ele><time>2026-03-24T08:21:49.881Z</time></trkpt><trkpt lat="45.4969175" lon="9.2632686"><ele>122.0</ele><time>2026-03-24T08:21:50.879Z</time></trkpt><trkpt lat="45.4970637" lon="9.2632697"><ele>122.0</ele><time>2026-03-24T08:21:51.877Z</time></trkpt><trkpt lat="45.4972087" lon="9.263288"><ele>122.0</ele><time>2026-03-24T08:21:52.878Z</time></trkpt><trkpt lat="45.4973914" lon="9.2632581"><ele>122.0</ele><time>2026-03-24T08:21:53.882Z</time></trkpt><trkpt lat="45.4975702" lon="9.2632332"><ele>122.0</ele><time>2026-03-24T08:21:54.886Z</time></trkpt><trkpt lat="45.4977591" lon="9.2632492"><ele>122.0</ele><time>2026-03-24T08:21:55.887Z</time></trkpt><trkpt lat="45.4978991" lon="9.2632677"><ele>122.33333333333333</ele><time>2026-03-24T08:21:56.888Z</time></trkpt><trkpt lat="45.4980214" lon="9.2632566"><ele>122.66666666666666</ele><time>2026-03-24T08:21:57.886Z</time></trkpt><trkpt lat="45.4981677" lon="9.2632154"><ele>123.0</ele><time>2026-03-24T08:21:58.884Z</time></trkpt><trkpt lat="45.4983532" lon="9.2632357"><ele>123.0</ele><time>2026-03-24T08:21:59.889Z</time></trkpt><trkpt lat="45.4985605" lon="9.2632523"><ele>123.0</ele><time>2026-03-24T08:22:00.887Z</time></trkpt><trkpt lat="45.4987331" lon="9.2632138"><ele>123.0</ele><time>2026-03-24T08:22:01.883Z</time></trkpt><trkpt lat="45.4989537" lon="9.2631949"><ele>124.0</ele><time>2026-03-24T08:22:02.885Z</time></trkpt><trkpt lat="45.4991852" lon="9.2632209"><ele>125.0</ele><time>2026-03-24T08:22:03.883Z</time></trkpt><trkpt lat="45.4994324" lon="9.2632358"><ele>125.66666666666666</ele><time>2026-03-24T08:22:04.886Z</time></trkpt><trkpt lat="45.4996365" lon="9.2632375"><ele>126.33333333333334</ele><time>2026-03-24T08:22:05.882Z</time></trkpt><trkpt lat="45.4998078" lon="9.2632414"><ele>127.0</ele><time>2026-03-24T08:22:06.88Z</time></trkpt><trkpt lat="45.4999604" lon="9.2632653"><ele>127.0</ele><time>2026-03-24T08:22:07.881Z</time></trkpt><trkpt lat="45.5001255" lon="9.2632994"><ele>127.0</ele><time>2026-03-24T08:22:08.88Z</time></trkpt><trkpt lat="45.5003145" lon="9.2632905"><ele>127.0</ele><time>2026-03-24T08:22:09.896Z</time></trkpt><trkpt lat="45.5004844" lon="9.2632899"><ele>126.66666666666667</ele><time>2026-03-24T08:22:10.878Z</time></trkpt><trkpt lat="45.5006397" lon="9.2632762"><ele>126.33333333333334</ele><time>2026-03-24T08:22:11.883Z</time></trkpt><trkpt lat="45.500818" lon="9.2632828"><ele>126.0</ele><time>2026-03-24T08:22:12.891Z</time></trkpt><trkpt lat="45.5009648" lon="9.2632953"><ele>126.0</ele><time>2026-03-24T08:22:13.882Z</time></trkpt><trkpt lat="45.5011172" lon="9.2632729"><ele>126.0</ele><time>2026-03-24T08:22:14.888Z</time></trkpt><trkpt lat="45.5013042" lon="9.2633001"><ele>126.0</ele><time>2026-03-24T08:22:15.885Z</time></trkpt><trkpt lat="45.5014384" lon="9.2632915"><ele>125.5</ele><time>2026-03-24T08:22:16.899Z</time></trkpt><trkpt lat="45.5016042" lon="9.2632941"><ele>125.0</ele><time>2026-03-24T08:22:17.887Z</time></trkpt><trkpt lat="45.5017606" lon="9.263263"><ele>124.5</ele><time>2026-03-24T08:22:18.887Z</time></trkpt><trkpt lat="45.501877" lon="9.263288"><ele>124.0</ele><time>2026-03-24T08:22:19.881Z</time></trkpt><trkpt lat="45.5019809" lon="9.2632765"><ele>124.33333333333334</ele><time>2026-03-24T08:22:20.875Z</time></trkpt><trkpt lat="45.5021222" lon="9.2632799"><ele>124.66666666666666</ele><time>2026-03-24T08:22:21.875Z</time></trkpt><trkpt lat="45.5023087" lon="9.2632916"><ele>125.0</ele><time>2026-03-24T08:22:22.878Z</time></trkpt><trkpt lat="45.502493" lon="9.2632898"><ele>125.0</ele><time>2026-03-24T08:22:23.88Z</time></trkpt><trkpt lat="45.5026707" lon="9.2633213"><ele>125.0</ele><time>2026-03-24T08:22:24.886Z</time></trkpt><trkpt lat="45.5028398" lon="9.263327"><ele>125.0</ele><time>2026-03-24T08:22:25.877Z</time></trkpt><trkpt lat="45.502989" lon="9.2633378"><ele>124.6</ele><time>2026-03-24T08:22:26.875Z</time></trkpt><trkpt lat="45.5031067" lon="9.2633233"><ele>124.2</ele><time>2026-03-24T08:22:27.878Z</time></trkpt><trkpt lat="45.5032264" lon="9.2632911"><ele>123.80000000000001</ele><time>2026-03-24T08:22:28.876Z</time></trkpt><trkpt lat="45.5032979" lon="9.2633422"><ele>123.4</ele><time>2026-03-24T08:22:29.883Z</time></trkpt><trkpt lat="45.5033741" lon="9.2634235"><ele>123.0</ele><time>2026-03-24T08:22:30.887Z</time></trkpt><trkpt lat="45.5034684" lon="9.2634631"><ele>123.0</ele><time>2026-03-24T08:22:32.888Z</time></trkpt><trkpt lat="45.5035437" lon="9.2635082"><ele>123.00000000000001</ele><time>2026-03-24T08:22:33.885Z</time></trkpt><trkpt lat="45.5036209" lon="9.2635861"><ele>123.00000000000001</ele><time>2026-03-24T08:22:34.882Z</time></trkpt><trkpt lat="45.5036648" lon="9.263703"><ele>123.0</ele><time>2026-03-24T08:22:35.876Z</time></trkpt><trkpt lat="45.5037082" lon="9.2638233"><ele>123.0</ele><time>2026-03-24T08:22:36.887Z</time></trkpt><trkpt lat="45.5037462" lon="9.2639425"><ele>123.33333333333333</ele><time>2026-03-24T08:22:37.87Z</time></trkpt><trkpt lat="45.5037652" lon="9.2640331"><ele>123.66666666666666</ele><time>2026-03-24T08:22:38.875Z</time></trkpt><trkpt lat="45.5037768" lon="9.2641751"><ele>124.0</ele><time>2026-03-24T08:22:40.879Z</time></trkpt><trkpt lat="45.5037969" lon="9.2642715"><ele>124.33333333333333</ele><time>2026-03-24T08:22:41.88Z</time></trkpt><trkpt lat="45.5038014" lon="9.2643931"><ele>124.66666666666666</ele><time>2026-03-24T08:22:42.879Z</time></trkpt><trkpt lat="45.5038145" lon="9.2645544"><ele>125.0</ele><time>2026-03-24T08:22:43.879Z</time></trkpt><trkpt lat="45.503836" lon="9.2647747"><ele>125.5</ele><time>2026-03-24T08:22:44.87Z</time></trkpt><trkpt lat="45.5038819" lon="9.2649797"><ele>126.0</ele><time>2026-03-24T08:22:45.873Z</time></trkpt><trkpt lat="45.5039343" lon="9.2651934"><ele>126.5</ele><time>2026-03-24T08:22:46.875Z</time></trkpt><trkpt lat="45.5039662" lon="9.2653666"><ele>127.0</ele><time>2026-03-24T08:22:47.871Z</time></trkpt><trkpt lat="45.5039817" lon="9.2654952"><ele>127.33333333333334</ele><time>2026-03-24T08:22:48.869Z</time></trkpt><trkpt lat="45.5039651" lon="9.2656209"><ele>127.66666666666667</ele><time>2026-03-24T08:22:49.875Z</time></trkpt><trkpt lat="45.5039199" lon="9.2657192"><ele>128.0</ele><time>2026-03-24T08:22:50.878Z</time></trkpt><trkpt lat="45.5038727" lon="9.2658054"><ele>128.33333333333334</ele><time>2026-03-24T08:22:51.873Z</time></trkpt><trkpt lat="45.5038305" lon="9.2658804"><ele>128.66666666666666</ele><time>2026-03-24T08:22:52.875Z</time></trkpt><trkpt lat="45.5037727" lon="9.2659898"><ele>129.0</ele><time>2026-03-24T08:22:54.876Z</time></trkpt><trkpt lat="45.5038381" lon="9.2662012"><ele>129.0</ele><time>2026-03-24T08:22:56.873Z</time></trkpt><trkpt lat="45.5039056" lon="9.2663592"><ele>129.0</ele><time>2026-03-24T08:22:57.875Z</time></trkpt><trkpt lat="45.503971" lon="9.2665384"><ele>129.0</ele><time>2026-03-24T08:22:58.869Z</time></trkpt><trkpt lat="45.5040229" lon="9.2666977"><ele>129.0</ele><time>2026-03-24T08:22:59.866Z</time></trkpt><trkpt lat="45.5040577" lon="9.2668278"><ele>128.5</ele><time>2026-03-24T08:23:00.873Z</time></trkpt><trkpt lat="45.504113" lon="9.2669539"><ele>128.0</ele><time>2026-03-24T08:23:01.877Z</time></trkpt><trkpt lat="45.5041945" lon="9.2670376"><ele>127.5</ele><time>2026-03-24T08:23:02.872Z</time></trkpt><trkpt lat="45.5043224" lon="9.2670837"><ele>127.0</ele><time>2026-03-24T08:23:03.875Z</time></trkpt><trkpt lat="45.5044709" lon="9.2670712"><ele>126.75</ele><time>2026-03-24T08:23:04.868Z</time></trkpt><trkpt lat="45.5046135" lon="9.2670292"><ele>126.5</ele><time>2026-03-24T08:23:05.868Z</time></trkpt><trkpt lat="45.5047676" lon="9.2669777"><ele>126.25</ele><time>2026-03-24T08:23:06.864Z</time></trkpt><trkpt lat="45.5048987" lon="9.2669917"><ele>126.0</ele><time>2026-03-24T08:23:07.872Z</time></trkpt><trkpt lat="45.5050183" lon="9.266978"><ele>126.0</ele><time>2026-03-24T08:23:08.869Z</time></trkpt><trkpt lat="45.5051113" lon="9.2669925"><ele>126.0</ele><time>2026-03-24T08:23:09.864Z</time></trkpt><trkpt lat="45.5052029" lon="9.2670281"><ele>126.0</ele><time>2026-03-24T08:23:10.874Z</time></trkpt><trkpt lat="45.5052784" lon="9.2670792"><ele>126.0</ele><time>2026-03-24T08:23:11.888Z</time></trkpt><trkpt lat="45.5053173" lon="9.2671897"><ele>126.0</ele><time>2026-03-24T08:23:12.871Z</time></trkpt><trkpt lat="45.5053588" lon="9.2673224"><ele>126.0</ele><time>2026-03-24T08:23:13.87Z</time></trkpt><trkpt lat="45.5053888" lon="9.2674861"><ele>126.0</ele><time>2026-03-24T08:23:14.864Z</time></trkpt><trkpt lat="45.5054127" lon="9.2676674"><ele>126.0</ele><time>2026-03-24T08:23:15.87Z</time></trkpt><trkpt lat="45.5054114" lon="9.2678273"><ele>126.0</ele><time>2026-03-24T08:23:16.873Z</time></trkpt><trkpt lat="45.5054363" lon="9.2679519"><ele>126.0</ele><time>2026-03-24T08:23:17.869Z</time></trkpt><trkpt lat="45.5054498" lon="9.2681071"><ele>126.0</ele><time>2026-03-24T08:23:19.877Z</time></trkpt><trkpt lat="45.5055162" lon="9.2682014"><ele>126.0</ele><time>2026-03-24T08:23:21.878Z</time></trkpt><trkpt lat="45.5056015" lon="9.2681958"><ele>126.0</ele><time>2026-03-24T08:23:23.884Z</time></trkpt><trkpt lat="45.50567" lon="9.2681079"><ele>126.0</ele><time>2026-03-24T08:23:25.882Z</time></trkpt><trkpt lat="45.5057385" lon="9.2680435"><ele>126.0</ele><time>2026-03-24T08:23:27.877Z</time></trkpt><trkpt lat="45.5058001" lon="9.2679737"><ele>126.0</ele><time>2026-03-24T08:23:29.888Z</time></trkpt><trkpt lat="45.5058761" lon="9.2679944"><ele>126.0</ele><time>2026-03-24T08:23:31.886Z</time></trkpt><trkpt lat="45.5059512" lon="9.2680051"><ele>126.0</ele><time>2026-03-24T08:23:38.905Z</time></trkpt><trkpt lat="45.5060317" lon="9.2680062"><ele>126.0</ele><time>2026-03-24T08:23:42.916Z</time></trkpt><trkpt lat="45.5061057" lon="9.268011"><ele>126.0</ele><time>2026-03-24T08:23:46.913Z</time></trkpt><trkpt lat="45.5061801" lon="9.2680097"><ele>126.0</ele><time>2026-03-24T08:23:50.907Z</time></trkpt><trkpt lat="45.5062552" lon="9.2680064"><ele>126.0</ele><time>2026-03-24T08:23:52.906Z</time></trkpt><trkpt lat="45.5063365" lon="9.2679822"><ele>126.0</ele><time>2026-03-24T08:23:54.917Z</time></trkpt><trkpt lat="45.5064345" lon="9.2679397"><ele>126.0</ele><time>2026-03-24T08:23:56.92Z</time></trkpt><trkpt lat="45.5065057" lon="9.267918"><ele>126.0</ele><time>2026-03-24T08:23:57.925Z</time></trkpt><trkpt lat="45.5065752" lon="9.2679042"><ele>126.0</ele><time>2026-03-24T08:23:58.928Z</time></trkpt><trkpt lat="45.506649" lon="9.2679066"><ele>126.0</ele><time>2026-03-24T08:23:59.916Z</time></trkpt><trkpt lat="45.5067375" lon="9.2679064"><ele>126.0</ele><time>2026-03-24T08:24:01.922Z</time></trkpt><trkpt lat="45.5068343" lon="9.2678667"><ele>126.0</ele><time>2026-03-24T08:24:03.908Z</time></trkpt><trkpt lat="45.5069214" lon="9.26784"><ele>126.0</ele><time>2026-03-24T08:24:05.902Z</time></trkpt><trkpt lat="45.5070088" lon="9.267798"><ele>126.0</ele><time>2026-03-24T08:24:07.9Z</time></trkpt><trkpt lat="45.5071222" lon="9.2677594"><ele>125.8</ele><time>2026-03-24T08:24:09.905Z</time></trkpt><trkpt lat="45.5072405" lon="9.2677083"><ele>125.6</ele><time>2026-03-24T08:24:11.914Z</time></trkpt><trkpt lat="45.5073485" lon="9.2676938"><ele>125.4</ele><time>2026-03-24T08:24:13.927Z</time></trkpt><trkpt lat="45.5074768" lon="9.2676723"><ele>125.2</ele><time>2026-03-24T08:24:15.918Z</time></trkpt><trkpt lat="45.5075629" lon="9.2676484"><ele>125.0</ele><time>2026-03-24T08:24:16.903Z</time></trkpt><trkpt lat="45.5076526" lon="9.2676292"><ele>125.0</ele><time>2026-03-24T08:24:17.906Z</time></trkpt><trkpt lat="45.5077523" lon="9.2676076"><ele>125.0</ele><time>2026-03-24T08:24:18.904Z</time></trkpt><trkpt lat="45.5078487" lon="9.2675842"><ele>125.0</ele><time>2026-03-24T08:24:19.904Z</time></trkpt><trkpt lat="45.5079468" lon="9.2675497"><ele>125.0</ele><time>2026-03-24T08:24:20.894Z</time></trkpt><trkpt lat="45.5080483" lon="9.2675005"><ele>125.0</ele><time>2026-03-24T08:24:21.878Z</time></trkpt><trkpt lat="45.5081624" lon="9.2674405"><ele>124.75</ele><time>2026-03-24T08:24:22.884Z</time></trkpt><trkpt lat="45.5082913" lon="9.2673519"><ele>124.5</ele><time>2026-03-24T08:24:23.886Z</time></trkpt><trkpt lat="45.508418" lon="9.2672462"><ele>124.25</ele><time>2026-03-24T08:24:24.895Z</time></trkpt><trkpt lat="45.5085251" lon="9.2671462"><ele>124.0</ele><time>2026-03-24T08:24:25.892Z</time></trkpt><trkpt lat="45.5086139" lon="9.2670491"><ele>124.0</ele><time>2026-03-24T08:24:26.891Z</time></trkpt><trkpt lat="45.5087008" lon="9.2669745"><ele>124.0</ele><time>2026-03-24T08:24:27.896Z</time></trkpt><trkpt lat="45.5087722" lon="9.2669305"><ele>124.0</ele><time>2026-03-24T08:24:28.891Z</time></trkpt><trkpt lat="45.5088381" lon="9.266904"><ele>124.0</ele><time>2026-03-24T08:24:29.89Z</time></trkpt><trkpt lat="45.5089572" lon="9.2669304"><ele>124.0</ele><time>2026-03-24T08:24:31.893Z</time></trkpt><trkpt lat="45.5090682" lon="9.2669431"><ele>124.2</ele><time>2026-03-24T08:24:33.891Z</time></trkpt><trkpt lat="45.5091846" lon="9.2669648"><ele>124.4</ele><time>2026-03-24T08:24:35.887Z</time></trkpt><trkpt lat="45.50925" lon="9.2669857"><ele>124.6</ele><time>2026-03-24T08:24:36.892Z</time></trkpt><trkpt lat="45.5093456" lon="9.2670122"><ele>124.8</ele><time>2026-03-24T08:24:38.907Z</time></trkpt><trkpt lat="45.5094285" lon="9.2670054"><ele>125.0</ele><time>2026-03-24T08:24:40.898Z</time></trkpt><trkpt lat="45.5095417" lon="9.2670091"><ele>125.0</ele><time>2026-03-24T08:24:42.901Z</time></trkpt><trkpt lat="45.5096436" lon="9.2669948"><ele>125.0</ele><time>2026-03-24T08:24:44.926Z</time></trkpt><trkpt lat="45.5097575" lon="9.2669643"><ele>125.0</ele><time>2026-03-24T08:24:46.908Z</time></trkpt><trkpt lat="45.509841" lon="9.2669531"><ele>125.0</ele><time>2026-03-24T08:24:47.893Z</time></trkpt><trkpt lat="45.5099777" lon="9.2669735"><ele>125.0</ele><time>2026-03-24T08:24:48.898Z</time></trkpt><trkpt lat="45.5101397" lon="9.267002"><ele>125.0</ele><time>2026-03-24T08:24:49.91Z</time></trkpt><trkpt lat="45.5102983" lon="9.2670303"><ele>125.0</ele><time>2026-03-24T08:24:50.904Z</time></trkpt><trkpt lat="45.5104739" lon="9.267082"><ele>125.0</ele><time>2026-03-24T08:24:51.909Z</time></trkpt><trkpt lat="45.5106494" lon="9.267124"><ele>125.66666666666666</ele><time>2026-03-24T08:24:52.91Z</time></trkpt><trkpt lat="45.5107878" lon="9.2671256"><ele>126.33333333333334</ele><time>2026-03-24T08:24:53.908Z</time></trkpt><trkpt lat="45.5109488" lon="9.2671274"><ele>127.0</ele><time>2026-03-24T08:24:54.914Z</time></trkpt><trkpt lat="45.5111088" lon="9.2671384"><ele>126.75</ele><time>2026-03-24T08:24:55.913Z</time></trkpt><trkpt lat="45.5112506" lon="9.2671489"><ele>126.5</ele><time>2026-03-24T08:24:56.909Z</time></trkpt><trkpt lat="45.5113912" lon="9.2671444"><ele>126.25</ele><time>2026-03-24T08:24:57.9Z</time></trkpt><trkpt lat="45.5115166" lon="9.2671445"><ele>126.0</ele><time>2026-03-24T08:24:58.906Z</time></trkpt><trkpt lat="45.5116694" lon="9.267183"><ele>126.0</ele><time>2026-03-24T08:24:59.89Z</time></trkpt><trkpt lat="45.5118025" lon="9.2671619"><ele>126.0</ele><time>2026-03-24T08:25:00.896Z</time></trkpt><trkpt lat="45.5119485" lon="9.2671704"><ele>126.0</ele><time>2026-03-24T08:25:01.884Z</time></trkpt><trkpt lat="45.5120808" lon="9.2671703"><ele>126.0</ele><time>2026-03-24T08:25:02.886Z</time></trkpt><trkpt lat="45.5121901" lon="9.267149"><ele>126.0</ele><time>2026-03-24T08:25:03.873Z</time></trkpt><trkpt lat="45.5122783" lon="9.2672117"><ele>126.0</ele><time>2026-03-24T08:25:04.876Z</time></trkpt><trkpt lat="45.5123513" lon="9.2672795"><ele>126.0</ele><time>2026-03-24T08:25:05.874Z</time></trkpt><trkpt lat="45.5124122" lon="9.2673267"><ele>126.0</ele><time>2026-03-24T08:25:06.878Z</time></trkpt><trkpt lat="45.5124812" lon="9.2673999"><ele>126.0</ele><time>2026-03-24T08:25:07.877Z</time></trkpt><trkpt lat="45.5125467" lon="9.2674877"><ele>126.0</ele><time>2026-03-24T08:25:08.873Z</time></trkpt><trkpt lat="45.5126096" lon="9.2675809"><ele>125.8</ele><time>2026-03-24T08:25:09.877Z</time></trkpt><trkpt lat="45.5126775" lon="9.267679"><ele>125.6</ele><time>2026-03-24T08:25:10.886Z</time></trkpt><trkpt lat="45.5127379" lon="9.2677473"><ele>125.4</ele><time>2026-03-24T08:25:11.881Z</time></trkpt><trkpt lat="45.5128236" lon="9.2678125"><ele>125.2</ele><time>2026-03-24T08:25:12.883Z</time></trkpt><trkpt lat="45.512913" lon="9.2678278"><ele>125.0</ele><time>2026-03-24T08:25:13.89Z</time></trkpt><trkpt lat="45.5130015" lon="9.2677855"><ele>125.0</ele><time>2026-03-24T08:25:14.877Z</time></trkpt><trkpt lat="45.5130819" lon="9.2676983"><ele>125.0</ele><time>2026-03-24T08:25:15.888Z</time></trkpt><trkpt lat="45.5131479" lon="9.2675897"><ele>125.0</ele><time>2026-03-24T08:25:16.886Z</time></trkpt><trkpt lat="45.513149" lon="9.2673924"><ele>125.0</ele><time>2026-03-24T08:25:17.876Z</time></trkpt><trkpt lat="45.5131248" lon="9.2671727"><ele>125.0</ele><time>2026-03-24T08:25:18.869Z</time></trkpt><trkpt lat="45.5130883" lon="9.2669787"><ele>125.0</ele><time>2026-03-24T08:25:19.876Z</time></trkpt><trkpt lat="45.5130423" lon="9.266801"><ele>125.0</ele><time>2026-03-24T08:25:20.876Z</time></trkpt><trkpt lat="45.5130254" lon="9.2666125"><ele>125.0</ele><time>2026-03-24T08:25:21.889Z</time></trkpt><trkpt lat="45.5130689" lon="9.266448"><ele>125.25</ele><time>2026-03-24T08:25:22.882Z</time></trkpt><trkpt lat="45.513117" lon="9.2662914"><ele>125.5</ele><time>2026-03-24T08:25:23.881Z</time></trkpt><trkpt lat="45.5131803" lon="9.2661488"><ele>125.75</ele><time>2026-03-24T08:25:24.885Z</time></trkpt><trkpt lat="45.513238" lon="9.2659978"><ele>126.0</ele><time>2026-03-24T08:25:25.864Z</time></trkpt><trkpt lat="45.5133055" lon="9.265871"><ele>126.0</ele><time>2026-03-24T08:25:26.875Z</time></trkpt><trkpt lat="45.5133536" lon="9.2657437"><ele>126.0</ele><time>2026-03-24T08:25:27.87Z</time></trkpt><trkpt lat="45.5133749" lon="9.2656151"><ele>126.0</ele><time>2026-03-24T08:25:28.88Z</time></trkpt><trkpt lat="45.5133945" lon="9.2655034"><ele>126.0</ele><time>2026-03-24T08:25:29.883Z</time></trkpt><trkpt lat="45.5134113" lon="9.2653673"><ele>126.0</ele><time>2026-03-24T08:25:30.884Z</time></trkpt><trkpt lat="45.513449" lon="9.2652467"><ele>126.33333333333333</ele><time>2026-03-24T08:25:31.866Z</time></trkpt><trkpt lat="45.5134801" lon="9.2651319"><ele>126.66666666666666</ele><time>2026-03-24T08:25:32.872Z</time></trkpt><trkpt lat="45.5135024" lon="9.2650171"><ele>127.0</ele><time>2026-03-24T08:25:33.868Z</time></trkpt><trkpt lat="45.5135333" lon="9.2649005"><ele>127.33333333333333</ele><time>2026-03-24T08:25:34.853Z</time></trkpt><trkpt lat="45.5135589" lon="9.2647914"><ele>127.66666666666666</ele><time>2026-03-24T08:25:35.841Z</time></trkpt><trkpt lat="45.5135866" lon="9.2646809"><ele>128.0</ele><time>2026-03-24T08:25:36.842Z</time></trkpt><trkpt lat="45.5135987" lon="9.2645572"><ele>127.99999999999999</ele><time>2026-03-24T08:25:37.856Z</time></trkpt><trkpt lat="45.5136184" lon="9.2644377"><ele>128.0</ele><time>2026-03-24T08:25:38.876Z</time></trkpt><trkpt lat="45.5136643" lon="9.2643473"><ele>128.0</ele><time>2026-03-24T08:25:39.871Z</time></trkpt><trkpt lat="45.5136796" lon="9.2642327"><ele>128.0</ele><time>2026-03-24T08:25:40.88Z</time></trkpt><trkpt lat="45.5137137" lon="9.2641069"><ele>127.99999999999999</ele><time>2026-03-24T08:25:41.878Z</time></trkpt><trkpt lat="45.5137747" lon="9.2639906"><ele>128.0</ele><time>2026-03-24T08:25:42.877Z</time></trkpt><trkpt lat="45.5138454" lon="9.2638991"><ele>127.66666666666666</ele><time>2026-03-24T08:25:43.883Z</time></trkpt><trkpt lat="45.5139231" lon="9.2638401"><ele>127.33333333333333</ele><time>2026-03-24T08:25:44.89Z</time></trkpt><trkpt lat="45.514008" lon="9.2638013"><ele>127.0</ele><time>2026-03-24T08:25:45.879Z</time></trkpt><trkpt lat="45.5140869" lon="9.2638136"><ele>126.66666666666666</ele><time>2026-03-24T08:25:46.901Z</time></trkpt><trkpt lat="45.514178" lon="9.2638367"><ele>126.33333333333333</ele><time>2026-03-24T08:25:47.888Z</time></trkpt><trkpt lat="45.5142562" lon="9.2638755"><ele>126.0</ele><time>2026-03-24T08:25:48.901Z</time></trkpt><trkpt lat="45.5143606" lon="9.2639228"><ele>126.0</ele><time>2026-03-24T08:25:49.902Z</time></trkpt><trkpt lat="45.5144566" lon="9.2639231"><ele>126.0</ele><time>2026-03-24T08:25:50.888Z</time></trkpt><trkpt lat="45.5145673" lon="9.2639199"><ele>126.0</ele><time>2026-03-24T08:25:51.899Z</time></trkpt><trkpt lat="45.5146757" lon="9.2638842"><ele>126.0</ele><time>2026-03-24T08:25:52.9Z</time></trkpt><trkpt lat="45.5147796" lon="9.263831"><ele>126.0</ele><time>2026-03-24T08:25:53.901Z</time></trkpt><trkpt lat="45.5148714" lon="9.2637419"><ele>126.75</ele><time>2026-03-24T08:25:54.895Z</time></trkpt><trkpt lat="45.5149561" lon="9.2636207"><ele>127.5</ele><time>2026-03-24T08:25:55.886Z</time></trkpt><trkpt lat="45.5150267" lon="9.2634762"><ele>128.25</ele><time>2026-03-24T08:25:56.884Z</time></trkpt><trkpt lat="45.5150985" lon="9.2633431"><ele>129.0</ele><time>2026-03-24T08:25:57.892Z</time></trkpt><trkpt lat="45.5151667" lon="9.2632117"><ele>129.0</ele><time>2026-03-24T08:25:58.903Z</time></trkpt><trkpt lat="45.5152243" lon="9.2630754"><ele>129.0</ele><time>2026-03-24T08:25:59.895Z</time></trkpt><trkpt lat="45.5152675" lon="9.2629608"><ele>129.0</ele><time>2026-03-24T08:26:00.892Z</time></trkpt><trkpt lat="45.5153183" lon="9.2628422"><ele>129.0</ele><time>2026-03-24T08:26:01.897Z</time></trkpt><trkpt lat="45.5153775" lon="9.2627444"><ele>129.0</ele><time>2026-03-24T08:26:02.887Z</time></trkpt><trkpt lat="45.5154434" lon="9.2626436"><ele>129.0</ele><time>2026-03-24T08:26:03.88Z</time></trkpt><trkpt lat="45.5155055" lon="9.2625437"><ele>129.0</ele><time>2026-03-24T08:26:04.886Z</time></trkpt><trkpt lat="45.5155642" lon="9.262452"><ele>129.0</ele><time>2026-03-24T08:26:05.876Z</time></trkpt><trkpt lat="45.5156253" lon="9.2623602"><ele>129.0</ele><time>2026-03-24T08:26:06.878Z</time></trkpt><trkpt lat="45.5156882" lon="9.262283"><ele>129.0</ele><time>2026-03-24T08:26:07.877Z</time></trkpt><trkpt lat="45.515765" lon="9.2622071"><ele>129.0</ele><time>2026-03-24T08:26:08.882Z</time></trkpt><trkpt lat="45.5158458" lon="9.2621468"><ele>128.83333333333334</ele><time>2026-03-24T08:26:09.883Z</time></trkpt><trkpt lat="45.515925" lon="9.2621004"><ele>128.66666666666666</ele><time>2026-03-24T08:26:10.882Z</time></trkpt><trkpt lat="45.5159978" lon="9.2620558"><ele>128.5</ele><time>2026-03-24T08:26:11.877Z</time></trkpt><trkpt lat="45.5160812" lon="9.2620176"><ele>128.33333333333331</ele><time>2026-03-24T08:26:12.871Z</time></trkpt><trkpt lat="45.5161695" lon="9.261986"><ele>128.16666666666666</ele><time>2026-03-24T08:26:13.888Z</time></trkpt><trkpt lat="45.5162612" lon="9.2619754"><ele>128.0</ele><time>2026-03-24T08:26:14.897Z</time></trkpt><trkpt lat="45.5163618" lon="9.2619708"><ele>127.25</ele><time>2026-03-24T08:26:15.894Z</time></trkpt><trkpt lat="45.5164773" lon="9.2619576"><ele>126.5</ele><time>2026-03-24T08:26:16.889Z</time></trkpt><trkpt lat="45.5165986" lon="9.2619516"><ele>125.75</ele><time>2026-03-24T08:26:17.908Z</time></trkpt><trkpt lat="45.5167261" lon="9.2619416"><ele>125.0</ele><time>2026-03-24T08:26:18.883Z</time></trkpt><trkpt lat="45.5168677" lon="9.2619494"><ele>125.0</ele><time>2026-03-24T08:26:19.883Z</time></trkpt><trkpt lat="45.5170348" lon="9.2619424"><ele>125.0</ele><time>2026-03-24T08:26:20.883Z</time></trkpt><trkpt lat="45.5172362" lon="9.2619062"><ele>125.0</ele><time>2026-03-24T08:26:21.891Z</time></trkpt><trkpt lat="45.5174219" lon="9.261892"><ele>125.0</ele><time>2026-03-24T08:26:22.889Z</time></trkpt><trkpt lat="45.5175727" lon="9.2619009"><ele>125.0</ele><time>2026-03-24T08:26:23.882Z</time></trkpt><trkpt lat="45.517679" lon="9.2619224"><ele>125.0</ele><time>2026-03-24T08:26:24.891Z</time></trkpt><trkpt lat="45.5177551" lon="9.2619231"><ele>125.0</ele><time>2026-03-24T08:26:25.885Z</time></trkpt><trkpt lat="45.51785" lon="9.261888"><ele>125.0</ele><time>2026-03-24T08:26:27.892Z</time></trkpt><trkpt lat="45.5179502" lon="9.2618291"><ele>125.0</ele><time>2026-03-24T08:26:29.89Z</time></trkpt><trkpt lat="45.5180381" lon="9.2618248"><ele>125.0</ele><time>2026-03-24T08:26:30.892Z</time></trkpt><trkpt lat="45.5181089" lon="9.2618116"><ele>125.0</ele><time>2026-03-24T08:26:31.89Z</time></trkpt><trkpt lat="45.5182163" lon="9.2617745"><ele>125.0</ele><time>2026-03-24T08:26:33.892Z</time></trkpt><trkpt lat="45.5182931" lon="9.2617404"><ele>125.0</ele><time>2026-03-24T08:26:35.899Z</time></trkpt><trkpt lat="45.5184078" lon="9.2617359"><ele>125.0</ele><time>2026-03-24T08:26:37.898Z</time></trkpt><trkpt lat="45.5185089" lon="9.2617325"><ele>125.0</ele><time>2026-03-24T08:26:39.904Z</time></trkpt><trkpt lat="45.51859" lon="9.2617163"><ele>125.0</ele><time>2026-03-24T08:26:41.906Z</time></trkpt><trkpt lat="45.5186857" lon="9.2617164"><ele>125.0</ele><time>2026-03-24T08:26:43.905Z</time></trkpt><trkpt lat="45.5188032" lon="9.2617049"><ele>125.0</ele><time>2026-03-24T08:26:45.92Z</time></trkpt><trkpt lat="45.5189085" lon="9.2616756"><ele>125.8</ele><time>2026-03-24T08:26:47.919Z</time></trkpt><trkpt lat="45.5189728" lon="9.261657"><ele>126.6</ele><time>2026-03-24T08:26:48.93Z</time></trkpt><trkpt lat="45.5190523" lon="9.2616391"><ele>127.4</ele><time>2026-03-24T08:26:49.897Z</time></trkpt><trkpt lat="45.5191455" lon="9.2616225"><ele>128.2</ele><time>2026-03-24T08:26:50.901Z</time></trkpt><trkpt lat="45.5192593" lon="9.2616059"><ele>129.0</ele><time>2026-03-24T08:26:51.907Z</time></trkpt><trkpt lat="45.5193639" lon="9.2615871"><ele>129.0</ele><time>2026-03-24T08:26:52.899Z</time></trkpt><trkpt lat="45.5194626" lon="9.2615749"><ele>129.0</ele><time>2026-03-24T08:26:53.902Z</time></trkpt><trkpt lat="45.5195676" lon="9.2615612"><ele>129.0</ele><time>2026-03-24T08:26:54.918Z</time></trkpt><trkpt lat="45.5196488" lon="9.2615523"><ele>129.0</ele><time>2026-03-24T08:26:55.903Z</time></trkpt><trkpt lat="45.5197323" lon="9.2615307"><ele>129.0</ele><time>2026-03-24T08:26:56.905Z</time></trkpt><trkpt lat="45.5198097" lon="9.2615152"><ele>129.0</ele><time>2026-03-24T08:26:57.9Z</time></trkpt><trkpt lat="45.5198798" lon="9.2615069"><ele>129.16666666666666</ele><time>2026-03-24T08:26:58.904Z</time></trkpt><trkpt lat="45.5199523" lon="9.2614947"><ele>129.33333333333334</ele><time>2026-03-24T08:26:59.906Z</time></trkpt><trkpt lat="45.520025" lon="9.2614796"><ele>129.5</ele><time>2026-03-24T08:27:00.9Z</time></trkpt><trkpt lat="45.520125" lon="9.2614276"><ele>129.66666666666669</ele><time>2026-03-24T08:27:02.913Z</time></trkpt><trkpt lat="45.5202176" lon="9.2614026"><ele>129.83333333333334</ele><time>2026-03-24T08:27:09.898Z</time></trkpt><trkpt lat="45.5203101" lon="9.2613931"><ele>130.0</ele><time>2026-03-24T08:27:11.896Z</time></trkpt><trkpt lat="45.5203982" lon="9.2613742"><ele>129.8</ele><time>2026-03-24T08:27:12.901Z</time></trkpt><trkpt lat="45.5204917" lon="9.2613555"><ele>129.6</ele><time>2026-03-24T08:27:13.904Z</time></trkpt><trkpt lat="45.5205907" lon="9.2613385"><ele>129.4</ele><time>2026-03-24T08:27:14.918Z</time></trkpt><trkpt lat="45.5206911" lon="9.2613034"><ele>129.2</ele><time>2026-03-24T08:27:15.916Z</time></trkpt><trkpt lat="45.5207829" lon="9.2612741"><ele>129.0</ele><time>2026-03-24T08:27:16.918Z</time></trkpt><trkpt lat="45.5208538" lon="9.2612411"><ele>129.0</ele><time>2026-03-24T08:27:17.911Z</time></trkpt><trkpt lat="45.5209357" lon="9.2612062"><ele>129.0</ele><time>2026-03-24T08:27:18.918Z</time></trkpt><trkpt lat="45.5210231" lon="9.2611799"><ele>129.0</ele><time>2026-03-24T08:27:19.934Z</time></trkpt><trkpt lat="45.5211208" lon="9.2611567"><ele>129.0</ele><time>2026-03-24T08:27:20.903Z</time></trkpt><trkpt lat="45.5212306" lon="9.2611288"><ele>129.0</ele><time>2026-03-24T08:27:21.916Z</time></trkpt><trkpt lat="45.5213445" lon="9.2611109"><ele>129.5</ele><time>2026-03-24T08:27:22.908Z</time></trkpt><trkpt lat="45.5214685" lon="9.2610786"><ele>130.0</ele><time>2026-03-24T08:27:23.898Z</time></trkpt><trkpt lat="45.5215949" lon="9.2610563"><ele>130.5</ele><time>2026-03-24T08:27:24.907Z</time></trkpt><trkpt lat="45.5217131" lon="9.2610334"><ele>131.0</ele><time>2026-03-24T08:27:25.912Z</time></trkpt><trkpt lat="45.5217994" lon="9.2610156"><ele>131.0</ele><time>2026-03-24T08:27:26.913Z</time></trkpt><trkpt lat="45.5218842" lon="9.2610075"><ele>131.0</ele><time>2026-03-24T08:27:27.919Z</time></trkpt><trkpt lat="45.5219738" lon="9.2610065"><ele>131.0</ele><time>2026-03-24T08:27:28.915Z</time></trkpt><trkpt lat="45.5220878" lon="9.261018"><ele>131.0</ele><time>2026-03-24T08:27:29.913Z</time></trkpt><trkpt lat="45.5222072" lon="9.2610346"><ele>131.0</ele><time>2026-03-24T08:27:30.905Z</time></trkpt><trkpt lat="45.5223198" lon="9.2610739"><ele>130.25</ele><time>2026-03-24T08:27:31.897Z</time></trkpt><trkpt lat="45.5224241" lon="9.261104"><ele>129.5</ele><time>2026-03-24T08:27:32.893Z</time></trkpt><trkpt lat="45.5226294" lon="9.2611545"><ele>128.75</ele><time>2026-03-24T08:27:34.881Z</time></trkpt><trkpt lat="45.522722" lon="9.2611736"><ele>128.0</ele><time>2026-03-24T08:27:35.881Z</time></trkpt><trkpt lat="45.5228438" lon="9.2611993"><ele>128.5</ele><time>2026-03-24T08:27:37.895Z</time></trkpt><trkpt lat="45.5229102" lon="9.2612134"><ele>129.0</ele><time>2026-03-24T08:27:38.885Z</time></trkpt><trkpt lat="45.5230065" lon="9.2612274"><ele>129.5</ele><time>2026-03-24T08:27:39.882Z</time></trkpt><trkpt lat="45.523232" lon="9.261261"><ele>130.0</ele><time>2026-03-24T08:27:41.893Z</time></trkpt><trkpt lat="45.5233451" lon="9.261277"><ele>130.0</ele><time>2026-03-24T08:27:42.893Z</time></trkpt><trkpt lat="45.5234605" lon="9.261287"><ele>130.0</ele><time>2026-03-24T08:27:43.895Z</time></trkpt><trkpt lat="45.5235909" lon="9.2612695"><ele>130.0</ele><time>2026-03-24T08:27:44.899Z</time></trkpt><trkpt lat="45.52373" lon="9.261248"><ele>130.0</ele><time>2026-03-24T08:27:45.905Z</time></trkpt><trkpt lat="45.5238543" lon="9.2612083"><ele>130.5</ele><time>2026-03-24T08:27:46.898Z</time></trkpt><trkpt lat="45.5239967" lon="9.2611617"><ele>131.0</ele><time>2026-03-24T08:27:47.895Z</time></trkpt><trkpt lat="45.5241261" lon="9.2610875"><ele>131.5</ele><time>2026-03-24T08:27:48.892Z</time></trkpt><trkpt lat="45.524247" lon="9.2609976"><ele>132.0</ele><time>2026-03-24T08:27:49.882Z</time></trkpt><trkpt lat="45.5243523" lon="9.2608914"><ele>132.0</ele><time>2026-03-24T08:27:50.91Z</time></trkpt><trkpt lat="45.524456" lon="9.2607998"><ele>132.0</ele><time>2026-03-24T08:27:51.898Z</time></trkpt><trkpt lat="45.5245462" lon="9.2607388"><ele>132.0</ele><time>2026-03-24T08:27:52.897Z</time></trkpt><trkpt lat="45.5246822" lon="9.2606708"><ele>132.0</ele><time>2026-03-24T08:27:53.898Z</time></trkpt><trkpt lat="45.5247895" lon="9.2605884"><ele>131.6</ele><time>2026-03-24T08:27:54.902Z</time></trkpt><trkpt lat="45.5248828" lon="9.2605042"><ele>131.2</ele><time>2026-03-24T08:27:55.894Z</time></trkpt><trkpt lat="45.5249544" lon="9.2604278"><ele>130.8</ele><time>2026-03-24T08:27:56.896Z</time></trkpt><trkpt lat="45.5250154" lon="9.2603607"><ele>130.4</ele><time>2026-03-24T08:27:57.895Z</time></trkpt><trkpt lat="45.5251127" lon="9.2602884"><ele>130.0</ele><time>2026-03-24T08:27:59.89Z</time></trkpt><trkpt lat="45.5252102" lon="9.2601977"><ele>130.0</ele><time>2026-03-24T08:28:01.892Z</time></trkpt><trkpt lat="45.5252674" lon="9.260158"><ele>130.0</ele><time>2026-03-24T08:28:02.895Z</time></trkpt><trkpt lat="45.5253305" lon="9.2601131"><ele>130.0</ele><time>2026-03-24T08:28:04.902Z</time></trkpt><trkpt lat="45.5254066" lon="9.260039"><ele>130.0</ele><time>2026-03-24T08:28:06.888Z</time></trkpt><trkpt lat="45.5254783" lon="9.2599766"><ele>130.0</ele><time>2026-03-24T08:28:07.894Z</time></trkpt><trkpt lat="45.5255496" lon="9.2599307"><ele>130.0</ele><time>2026-03-24T08:28:08.889Z</time></trkpt><trkpt lat="45.5256185" lon="9.2598861"><ele>130.0</ele><time>2026-03-24T08:28:09.894Z</time></trkpt><trkpt lat="45.5256802" lon="9.2598414"><ele>130.0</ele><time>2026-03-24T08:28:10.891Z</time></trkpt><trkpt lat="45.5257545" lon="9.2597925"><ele>130.0</ele><time>2026-03-24T08:28:11.889Z</time></trkpt><trkpt lat="45.5258392" lon="9.2597246"><ele>130.0</ele><time>2026-03-24T08:28:12.894Z</time></trkpt><trkpt lat="45.5259272" lon="9.2596502"><ele>130.0</ele><time>2026-03-24T08:28:13.896Z</time></trkpt><trkpt lat="45.5260181" lon="9.2595743"><ele>130.16666666666669</ele><time>2026-03-24T08:28:14.891Z</time></trkpt><trkpt lat="45.5260902" lon="9.2595268"><ele>130.33333333333334</ele><time>2026-03-24T08:28:15.888Z</time></trkpt><trkpt lat="45.5261579" lon="9.259478"><ele>130.5</ele><time>2026-03-24T08:28:16.899Z</time></trkpt><trkpt lat="45.5262339" lon="9.2594612"><ele>130.66666666666666</ele><time>2026-03-24T08:28:17.899Z</time></trkpt><trkpt lat="45.526326" lon="9.2594489"><ele>130.83333333333331</ele><time>2026-03-24T08:28:18.898Z</time></trkpt><trkpt lat="45.5264255" lon="9.2594298"><ele>131.0</ele><time>2026-03-24T08:28:19.9Z</time></trkpt><trkpt lat="45.5265437" lon="9.2594017"><ele>131.66666666666666</ele><time>2026-03-24T08:28:20.906Z</time></trkpt><trkpt lat="45.5266801" lon="9.2593613"><ele>132.33333333333334</ele><time>2026-03-24T08:28:21.912Z</time></trkpt><trkpt lat="45.5268446" lon="9.2593266"><ele>133.0</ele><time>2026-03-24T08:28:22.894Z</time></trkpt><trkpt lat="45.5270564" lon="9.2592947"><ele>134.0</ele><time>2026-03-24T08:28:23.909Z</time></trkpt><trkpt lat="45.5272216" lon="9.2592529"><ele>135.0</ele><time>2026-03-24T08:28:24.91Z</time></trkpt><trkpt lat="45.527387" lon="9.2591907"><ele>136.0</ele><time>2026-03-24T08:28:25.91Z</time></trkpt><trkpt lat="45.5275688" lon="9.2591505"><ele>136.0</ele><time>2026-03-24T08:28:26.918Z</time></trkpt><trkpt lat="45.5277521" lon="9.2591212"><ele>136.0</ele><time>2026-03-24T08:28:27.915Z</time></trkpt><trkpt lat="45.5279148" lon="9.2591096"><ele>136.0</ele><time>2026-03-24T08:28:28.916Z</time></trkpt><trkpt lat="45.5280772" lon="9.2591093"><ele>135.75</ele><time>2026-03-24T08:28:29.906Z</time></trkpt><trkpt lat="45.5282216" lon="9.2591188"><ele>135.5</ele><time>2026-03-24T08:28:30.912Z</time></trkpt><trkpt lat="45.5283545" lon="9.2591421"><ele>135.25</ele><time>2026-03-24T08:28:31.904Z</time></trkpt><trkpt lat="45.5284657" lon="9.2591548"><ele>135.0</ele><time>2026-03-24T08:28:32.904Z</time></trkpt><trkpt lat="45.5285837" lon="9.2591729"><ele>134.66666666666666</ele><time>2026-03-24T08:28:33.893Z</time></trkpt><trkpt lat="45.5288524" lon="9.2592473"><ele>134.33333333333331</ele><time>2026-03-24T08:28:35.884Z</time></trkpt><trkpt lat="45.5289688" lon="9.2592907"><ele>134.0</ele><time>2026-03-24T08:28:36.892Z</time></trkpt><trkpt lat="45.5290685" lon="9.2593728"><ele>134.0</ele><time>2026-03-24T08:28:37.901Z</time></trkpt><trkpt lat="45.5291755" lon="9.2594332"><ele>134.0</ele><time>2026-03-24T08:28:38.907Z</time></trkpt><trkpt lat="45.5292838" lon="9.2594865"><ele>134.0</ele><time>2026-03-24T08:28:39.903Z</time></trkpt><trkpt lat="45.5293942" lon="9.2595511"><ele>134.0</ele><time>2026-03-24T08:28:40.908Z</time></trkpt><trkpt lat="45.5294972" lon="9.2596406"><ele>133.25</ele><time>2026-03-24T08:28:41.9Z</time></trkpt><trkpt lat="45.5296026" lon="9.2597413"><ele>132.5</ele><time>2026-03-24T08:28:42.904Z</time></trkpt><trkpt lat="45.5296986" lon="9.2598481"><ele>131.75</ele><time>2026-03-24T08:28:43.898Z</time></trkpt><trkpt lat="45.5297822" lon="9.2599558"><ele>131.0</ele><time>2026-03-24T08:28:44.897Z</time></trkpt><trkpt lat="45.5298644" lon="9.2600638"><ele>131.0</ele><time>2026-03-24T08:28:45.897Z</time></trkpt><trkpt lat="45.5299509" lon="9.2601906"><ele>131.0</ele><time>2026-03-24T08:28:46.893Z</time></trkpt><trkpt lat="45.5300408" lon="9.2603231"><ele>131.0</ele><time>2026-03-24T08:28:47.896Z</time></trkpt><trkpt lat="45.5301433" lon="9.2604798"><ele>131.0</ele><time>2026-03-24T08:28:48.897Z</time></trkpt><trkpt lat="45.5302568" lon="9.2607024"><ele>131.66666666666666</ele><time>2026-03-24T08:28:49.895Z</time></trkpt><trkpt lat="45.5303446" lon="9.2608791"><ele>132.33333333333334</ele><time>2026-03-24T08:28:50.905Z</time></trkpt><trkpt lat="45.5304496" lon="9.2610572"><ele>133.0</ele><time>2026-03-24T08:28:51.909Z</time></trkpt><trkpt lat="45.5305771" lon="9.261284"><ele>133.0</ele><time>2026-03-24T08:28:52.91Z</time></trkpt><trkpt lat="45.5306747" lon="9.2615149"><ele>133.0</ele><time>2026-03-24T08:28:53.898Z</time></trkpt><trkpt lat="45.5307962" lon="9.2617277"><ele>133.0</ele><time>2026-03-24T08:28:54.911Z</time></trkpt><trkpt lat="45.5309261" lon="9.2619133"><ele>133.0</ele><time>2026-03-24T08:28:55.903Z</time></trkpt><trkpt lat="45.5310565" lon="9.2621496"><ele>133.0</ele><time>2026-03-24T08:28:56.892Z</time></trkpt><trkpt lat="45.5311916" lon="9.2623029"><ele>133.0</ele><time>2026-03-24T08:28:57.886Z</time></trkpt><trkpt lat="45.5313098" lon="9.2624157"><ele>133.66666666666669</ele><time>2026-03-24T08:28:58.884Z</time></trkpt><trkpt lat="45.5314335" lon="9.2625408"><ele>134.33333333333334</ele><time>2026-03-24T08:28:59.886Z</time></trkpt><trkpt lat="45.5315828" lon="9.2626527"><ele>135.0</ele><time>2026-03-24T08:29:00.902Z</time></trkpt><trkpt lat="45.5317221" lon="9.2627384"><ele>135.0</ele><time>2026-03-24T08:29:01.895Z</time></trkpt><trkpt lat="45.5318703" lon="9.2628257"><ele>135.0</ele><time>2026-03-24T08:29:02.899Z</time></trkpt><trkpt lat="45.5320148" lon="9.2628966"><ele>135.0</ele><time>2026-03-24T08:29:03.905Z</time></trkpt><trkpt lat="45.5321809" lon="9.2629701"><ele>134.75</ele><time>2026-03-24T08:29:04.905Z</time></trkpt><trkpt lat="45.5323224" lon="9.263037"><ele>134.5</ele><time>2026-03-24T08:29:05.91Z</time></trkpt><trkpt lat="45.5324388" lon="9.2630902"><ele>134.25</ele><time>2026-03-24T08:29:06.909Z</time></trkpt><trkpt lat="45.5326162" lon="9.2630953"><ele>134.0</ele><time>2026-03-24T08:29:07.908Z</time></trkpt><trkpt lat="45.5327247" lon="9.2630994"><ele>134.25</ele><time>2026-03-24T08:29:08.909Z</time></trkpt><trkpt lat="45.5328487" lon="9.2631576"><ele>134.5</ele><time>2026-03-24T08:29:09.906Z</time></trkpt><trkpt lat="45.5329712" lon="9.263159"><ele>134.75</ele><time>2026-03-24T08:29:10.895Z</time></trkpt><trkpt lat="45.5331084" lon="9.2631575"><ele>135.0</ele><time>2026-03-24T08:29:11.888Z</time></trkpt><trkpt lat="45.5332164" lon="9.2631389"><ele>135.33333333333334</ele><time>2026-03-24T08:29:12.899Z</time></trkpt><trkpt lat="45.5333644" lon="9.2631301"><ele>135.66666666666669</ele><time>2026-03-24T08:29:13.89Z</time></trkpt><trkpt lat="45.5335128" lon="9.2630998"><ele>136.0</ele><time>2026-03-24T08:29:14.896Z</time></trkpt><trkpt lat="45.5336827" lon="9.2630596"><ele>136.33333333333334</ele><time>2026-03-24T08:29:15.894Z</time></trkpt><trkpt lat="45.5338349" lon="9.2629568"><ele>136.66666666666666</ele><time>2026-03-24T08:29:16.895Z</time></trkpt><trkpt lat="45.5339782" lon="9.2628866"><ele>137.0</ele><time>2026-03-24T08:29:17.896Z</time></trkpt><trkpt lat="45.5341394" lon="9.2628455"><ele>137.0</ele><time>2026-03-24T08:29:18.901Z</time></trkpt><trkpt lat="45.5342895" lon="9.2627936"><ele>137.0</ele><time>2026-03-24T08:29:19.897Z</time></trkpt><trkpt lat="45.5344461" lon="9.2626852"><ele>137.0</ele><time>2026-03-24T08:29:20.892Z</time></trkpt><trkpt lat="45.5346281" lon="9.2625989"><ele>136.66666666666666</ele><time>2026-03-24T08:29:21.896Z</time></trkpt><trkpt lat="45.5348212" lon="9.2625231"><ele>136.33333333333334</ele><time>2026-03-24T08:29:22.894Z</time></trkpt><trkpt lat="45.5349863" lon="9.2624493"><ele>136.0</ele><time>2026-03-24T08:29:23.904Z</time></trkpt><trkpt lat="45.5351562" lon="9.262364"><ele>136.0</ele><time>2026-03-24T08:29:24.891Z</time></trkpt><trkpt lat="45.5353033" lon="9.2622951"><ele>136.0</ele><time>2026-03-24T08:29:25.891Z</time></trkpt><trkpt lat="45.535458" lon="9.2622233"><ele>136.0</ele><time>2026-03-24T08:29:26.891Z</time></trkpt><trkpt lat="45.5356112" lon="9.262155"><ele>137.66666666666669</ele><time>2026-03-24T08:29:27.891Z</time></trkpt><trkpt lat="45.5357651" lon="9.2620908"><ele>139.33333333333334</ele><time>2026-03-24T08:29:28.893Z</time></trkpt><trkpt lat="45.535933" lon="9.2620164"><ele>141.0</ele><time>2026-03-24T08:29:29.895Z</time></trkpt><trkpt lat="45.5361042" lon="9.2619509"><ele>139.0</ele><time>2026-03-24T08:29:30.9Z</time></trkpt><trkpt lat="45.5362808" lon="9.2618787"><ele>137.0</ele><time>2026-03-24T08:29:31.9Z</time></trkpt><trkpt lat="45.5364533" lon="9.2618006"><ele>135.0</ele><time>2026-03-24T08:29:32.9Z</time></trkpt><trkpt lat="45.5366313" lon="9.2617193"><ele>135.0</ele><time>2026-03-24T08:29:33.9Z</time></trkpt><trkpt lat="45.5367855" lon="9.2616708"><ele>135.0</ele><time>2026-03-24T08:29:34.902Z</time></trkpt><trkpt lat="45.5369482" lon="9.2615699"><ele>135.0</ele><time>2026-03-24T08:29:35.897Z</time></trkpt><trkpt lat="45.5371053" lon="9.26145"><ele>134.66666666666666</ele><time>2026-03-24T08:29:36.898Z</time></trkpt><trkpt lat="45.537285" lon="9.2613528"><ele>134.33333333333331</ele><time>2026-03-24T08:29:37.898Z</time></trkpt><trkpt lat="45.5374745" lon="9.2612427"><ele>134.0</ele><time>2026-03-24T08:29:38.895Z</time></trkpt><trkpt lat="45.5376485" lon="9.2611037"><ele>134.0</ele><time>2026-03-24T08:29:39.894Z</time></trkpt><trkpt lat="45.5377971" lon="9.2609407"><ele>134.0</ele><time>2026-03-24T08:29:40.898Z</time></trkpt><trkpt lat="45.5379553" lon="9.2607943"><ele>134.0</ele><time>2026-03-24T08:29:41.901Z</time></trkpt><trkpt lat="45.5381062" lon="9.2606461"><ele>135.0</ele><time>2026-03-24T08:29:42.9Z</time></trkpt><trkpt lat="45.5382612" lon="9.2604881"><ele>136.0</ele><time>2026-03-24T08:29:43.904Z</time></trkpt><trkpt lat="45.5384112" lon="9.2603503"><ele>137.0</ele><time>2026-03-24T08:29:44.904Z</time></trkpt><trkpt lat="45.5385793" lon="9.2602105"><ele>137.66666666666666</ele><time>2026-03-24T08:29:45.903Z</time></trkpt><trkpt lat="45.5387432" lon="9.2600615"><ele>138.33333333333334</ele><time>2026-03-24T08:29:46.903Z</time></trkpt><trkpt lat="45.5388836" lon="9.2599225"><ele>139.0</ele><time>2026-03-24T08:29:47.899Z</time></trkpt><trkpt lat="45.5390509" lon="9.2598088"><ele>139.66666666666669</ele><time>2026-03-24T08:29:48.886Z</time></trkpt><trkpt lat="45.5392218" lon="9.2597054"><ele>140.33333333333334</ele><time>2026-03-24T08:29:49.888Z</time></trkpt><trkpt lat="45.5393939" lon="9.2595743"><ele>141.0</ele><time>2026-03-24T08:29:50.89Z</time></trkpt><trkpt lat="45.539595" lon="9.2595359"><ele>141.0</ele><time>2026-03-24T08:29:51.9Z</time></trkpt><trkpt lat="45.539795" lon="9.2595355"><ele>141.0</ele><time>2026-03-24T08:29:52.903Z</time></trkpt><trkpt lat="45.5399521" lon="9.259484"><ele>141.0</ele><time>2026-03-24T08:29:53.9Z</time></trkpt><trkpt lat="45.5400988" lon="9.2594872"><ele>141.0</ele><time>2026-03-24T08:29:54.941Z</time></trkpt><trkpt lat="45.5402307" lon="9.2594163"><ele>141.0</ele><time>2026-03-24T08:29:55.892Z</time></trkpt><trkpt lat="45.5403756" lon="9.2593928"><ele>141.0</ele><time>2026-03-24T08:29:56.905Z</time></trkpt><trkpt lat="45.540538" lon="9.2593596"><ele>140.0</ele><time>2026-03-24T08:29:57.899Z</time></trkpt><trkpt lat="45.5406994" lon="9.2593229"><ele>139.0</ele><time>2026-03-24T08:29:58.907Z</time></trkpt><trkpt lat="45.5408542" lon="9.2593148"><ele>138.0</ele><time>2026-03-24T08:29:59.914Z</time></trkpt><trkpt lat="45.5410244" lon="9.2592998"><ele>138.0</ele><time>2026-03-24T08:30:00.907Z</time></trkpt><trkpt lat="45.5411595" lon="9.2592525"><ele>138.0</ele><time>2026-03-24T08:30:01.911Z</time></trkpt><trkpt lat="45.5413258" lon="9.2592123"><ele>138.0</ele><time>2026-03-24T08:30:02.915Z</time></trkpt><trkpt lat="45.5414809" lon="9.2591886"><ele>138.25</ele><time>2026-03-24T08:30:03.911Z</time></trkpt><trkpt lat="45.5416263" lon="9.2591603"><ele>138.5</ele><time>2026-03-24T08:30:04.909Z</time></trkpt><trkpt lat="45.5417604" lon="9.2591271"><ele>138.75</ele><time>2026-03-24T08:30:05.911Z</time></trkpt><trkpt lat="45.5419179" lon="9.2591166"><ele>139.0</ele><time>2026-03-24T08:30:06.911Z</time></trkpt><trkpt lat="45.5420729" lon="9.2590897"><ele>140.0</ele><time>2026-03-24T08:30:07.904Z</time></trkpt><trkpt lat="45.5422516" lon="9.2590394"><ele>141.0</ele><time>2026-03-24T08:30:08.908Z</time></trkpt><trkpt lat="45.5424138" lon="9.2590144"><ele>142.0</ele><time>2026-03-24T08:30:09.9Z</time></trkpt><trkpt lat="45.5425688" lon="9.2589861"><ele>142.0</ele><time>2026-03-24T08:30:10.9Z</time></trkpt><trkpt lat="45.5427502" lon="9.2589849"><ele>142.0</ele><time>2026-03-24T08:30:11.905Z</time></trkpt><trkpt lat="45.5429196" lon="9.2589449"><ele>142.0</ele><time>2026-03-24T08:30:12.901Z</time></trkpt><trkpt lat="45.5430817" lon="9.2589112"><ele>142.33333333333334</ele><time>2026-03-24T08:30:13.906Z</time></trkpt><trkpt lat="45.5432498" lon="9.2588881"><ele>142.66666666666666</ele><time>2026-03-24T08:30:14.9Z</time></trkpt><trkpt lat="45.5433812" lon="9.2588544"><ele>143.0</ele><time>2026-03-24T08:30:15.897Z</time></trkpt><trkpt lat="45.5435356" lon="9.2588269"><ele>143.0</ele><time>2026-03-24T08:30:16.899Z</time></trkpt><trkpt lat="45.5436976" lon="9.2588139"><ele>143.0</ele><time>2026-03-24T08:30:17.901Z</time></trkpt><trkpt lat="45.5438788" lon="9.2587941"><ele>143.0</ele><time>2026-03-24T08:30:18.907Z</time></trkpt><trkpt lat="45.5440062" lon="9.2587744"><ele>143.33333333333331</ele><time>2026-03-24T08:30:19.906Z</time></trkpt><trkpt lat="45.544146" lon="9.2588089"><ele>143.66666666666666</ele><time>2026-03-24T08:30:20.908Z</time></trkpt><trkpt lat="45.5443158" lon="9.2588539"><ele>144.0</ele><time>2026-03-24T08:30:21.905Z</time></trkpt><trkpt lat="45.5444574" lon="9.2588966"><ele>143.75</ele><time>2026-03-24T08:30:22.899Z</time></trkpt><trkpt lat="45.5445734" lon="9.2589396"><ele>143.5</ele><time>2026-03-24T08:30:23.902Z</time></trkpt><trkpt lat="45.5446862" lon="9.258978"><ele>143.25</ele><time>2026-03-24T08:30:24.919Z</time></trkpt><trkpt lat="45.5447934" lon="9.2590275"><ele>143.0</ele><time>2026-03-24T08:30:25.895Z</time></trkpt><trkpt lat="45.54496" lon="9.2590654"><ele>142.75</ele><time>2026-03-24T08:30:26.902Z</time></trkpt><trkpt lat="45.545094" lon="9.2591344"><ele>142.5</ele><time>2026-03-24T08:30:27.898Z</time></trkpt><trkpt lat="45.5452251" lon="9.2591988"><ele>142.25</ele><time>2026-03-24T08:30:28.895Z</time></trkpt><trkpt lat="45.54536" lon="9.259304"><ele>142.0</ele><time>2026-03-24T08:30:29.893Z</time></trkpt><trkpt lat="45.5455178" lon="9.2593779"><ele>141.75</ele><time>2026-03-24T08:30:30.899Z</time></trkpt><trkpt lat="45.5456725" lon="9.2594653"><ele>141.5</ele><time>2026-03-24T08:30:31.905Z</time></trkpt><trkpt lat="45.5458109" lon="9.2595535"><ele>141.25</ele><time>2026-03-24T08:30:32.903Z</time></trkpt><trkpt lat="45.5459292" lon="9.2596334"><ele>141.0</ele><time>2026-03-24T08:30:33.907Z</time></trkpt><trkpt lat="45.5460609" lon="9.2597025"><ele>141.0</ele><time>2026-03-24T08:30:34.901Z</time></trkpt><trkpt lat="45.5461529" lon="9.2597567"><ele>141.0</ele><time>2026-03-24T08:30:35.893Z</time></trkpt><trkpt lat="45.5462347" lon="9.2598135"><ele>141.0</ele><time>2026-03-24T08:30:36.899Z</time></trkpt><trkpt lat="45.5463406" lon="9.2598613"><ele>141.0</ele><time>2026-03-24T08:30:37.899Z</time></trkpt><trkpt lat="45.5464533" lon="9.2599102"><ele>141.0</ele><time>2026-03-24T08:30:38.9Z</time></trkpt><trkpt lat="45.5465474" lon="9.2599459"><ele>141.4</ele><time>2026-03-24T08:30:39.893Z</time></trkpt><trkpt lat="45.546653" lon="9.260003"><ele>141.8</ele><time>2026-03-24T08:30:40.897Z</time></trkpt><trkpt lat="45.5467488" lon="9.2600486"><ele>142.20000000000002</ele><time>2026-03-24T08:30:41.906Z</time></trkpt><trkpt lat="45.5468301" lon="9.260098"><ele>142.6</ele><time>2026-03-24T08:30:42.91Z</time></trkpt><trkpt lat="45.5469149" lon="9.2601475"><ele>143.0</ele><time>2026-03-24T08:30:43.905Z</time></trkpt><trkpt lat="45.546994" lon="9.2601995"><ele>143.4</ele><time>2026-03-24T08:30:44.897Z</time></trkpt><trkpt lat="45.5470908" lon="9.2602407"><ele>143.8</ele><time>2026-03-24T08:30:45.884Z</time></trkpt><trkpt lat="45.5472022" lon="9.2602892"><ele>144.2</ele><time>2026-03-24T08:30:46.885Z</time></trkpt><trkpt lat="45.5473068" lon="9.2603469"><ele>144.6</ele><time>2026-03-24T08:30:47.886Z</time></trkpt><trkpt lat="45.5473959" lon="9.2604158"><ele>145.0</ele><time>2026-03-24T08:30:48.893Z</time></trkpt><trkpt lat="45.5474787" lon="9.260488"><ele>145.0</ele><time>2026-03-24T08:30:49.892Z</time></trkpt><trkpt lat="45.5475561" lon="9.2605711"><ele>145.0</ele><time>2026-03-24T08:30:50.898Z</time></trkpt><trkpt lat="45.5476239" lon="9.2606733"><ele>145.0</ele><time>2026-03-24T08:30:51.906Z</time></trkpt><trkpt lat="45.5476722" lon="9.2608179"><ele>145.0</ele><time>2026-03-24T08:30:52.907Z</time></trkpt><trkpt lat="45.547702" lon="9.2609691"><ele>145.0</ele><time>2026-03-24T08:30:53.901Z</time></trkpt><trkpt lat="45.5476928" lon="9.2611216"><ele>145.6</ele><time>2026-03-24T08:30:54.896Z</time></trkpt><trkpt lat="45.5476912" lon="9.2612721"><ele>146.2</ele><time>2026-03-24T08:30:55.909Z</time></trkpt><trkpt lat="45.5476453" lon="9.2613918"><ele>146.8</ele><time>2026-03-24T08:30:56.891Z</time></trkpt><trkpt lat="45.5475955" lon="9.2614974"><ele>147.4</ele><time>2026-03-24T08:30:57.894Z</time></trkpt><trkpt lat="45.5475097" lon="9.2615879"><ele>148.0</ele><time>2026-03-24T08:30:58.898Z</time></trkpt><trkpt lat="45.5474128" lon="9.2616469"><ele>148.0</ele><time>2026-03-24T08:30:59.898Z</time></trkpt><trkpt lat="45.5473182" lon="9.2616963"><ele>148.0</ele><time>2026-03-24T08:31:00.895Z</time></trkpt><trkpt lat="45.5472178" lon="9.2617266"><ele>148.0</ele><time>2026-03-24T08:31:01.89Z</time></trkpt><trkpt lat="45.5471126" lon="9.2617452"><ele>148.0</ele><time>2026-03-24T08:31:02.888Z</time></trkpt><trkpt lat="45.5470261" lon="9.2617377"><ele>148.0</ele><time>2026-03-24T08:31:03.88Z</time></trkpt><trkpt lat="45.5469379" lon="9.2617153"><ele>148.20000000000002</ele><time>2026-03-24T08:31:04.884Z</time></trkpt><trkpt lat="45.5468431" lon="9.26167"><ele>148.4</ele><time>2026-03-24T08:31:05.876Z</time></trkpt><trkpt lat="45.5467775" lon="9.2615828"><ele>148.60000000000002</ele><time>2026-03-24T08:31:06.873Z</time></trkpt><trkpt lat="45.5467105" lon="9.2614877"><ele>148.8</ele><time>2026-03-24T08:31:07.879Z</time></trkpt><trkpt lat="45.5466718" lon="9.2613576"><ele>149.0</ele><time>2026-03-24T08:31:08.862Z</time></trkpt><trkpt lat="45.5466447" lon="9.2612207"><ele>148.4</ele><time>2026-03-24T08:31:09.875Z</time></trkpt><trkpt lat="45.5466369" lon="9.2610802"><ele>147.8</ele><time>2026-03-24T08:31:10.875Z</time></trkpt><trkpt lat="45.5466589" lon="9.2609434"><ele>147.2</ele><time>2026-03-24T08:31:11.88Z</time></trkpt><trkpt lat="45.5466978" lon="9.2608086"><ele>146.6</ele><time>2026-03-24T08:31:12.877Z</time></trkpt><trkpt lat="45.546745" lon="9.2606848"><ele>146.0</ele><time>2026-03-24T08:31:13.88Z</time></trkpt><trkpt lat="45.546786" lon="9.2605777"><ele>145.5</ele><time>2026-03-24T08:31:14.881Z</time></trkpt><trkpt lat="45.546829" lon="9.2604785"><ele>145.0</ele><time>2026-03-24T08:31:15.894Z</time></trkpt><trkpt lat="45.5468596" lon="9.2603707"><ele>144.5</ele><time>2026-03-24T08:31:16.9Z</time></trkpt><trkpt lat="45.5468971" lon="9.2602706"><ele>144.0</ele><time>2026-03-24T08:31:17.89Z</time></trkpt><trkpt lat="45.5469306" lon="9.2601796"><ele>143.5</ele><time>2026-03-24T08:31:18.887Z</time></trkpt><trkpt lat="45.5469535" lon="9.2600886"><ele>143.0</ele><time>2026-03-24T08:31:19.887Z</time></trkpt><trkpt lat="45.5470042" lon="9.2599321"><ele>143.0</ele><time>2026-03-24T08:31:21.883Z</time></trkpt><trkpt lat="45.5470385" lon="9.259778"><ele>143.0</ele><time>2026-03-24T08:31:23.879Z</time></trkpt><trkpt lat="45.5470781" lon="9.259641"><ele>143.0</ele><time>2026-03-24T08:31:25.882Z</time></trkpt><trkpt lat="45.5471095" lon="9.259505"><ele>143.0</ele><time>2026-03-24T08:31:27.888Z</time></trkpt><trkpt lat="45.5471173" lon="9.25939"><ele>143.0</ele><time>2026-03-24T08:31:29.893Z</time></trkpt><trkpt lat="45.5471151" lon="9.25929"><ele>142.8</ele><time>2026-03-24T08:31:31.898Z</time></trkpt><trkpt lat="45.5471118" lon="9.2591712"><ele>142.60000000000002</ele><time>2026-03-24T08:31:33.891Z</time></trkpt><trkpt lat="45.5470728" lon="9.2589844"><ele>142.39999999999998</ele><time>2026-03-24T08:31:35.9Z</time></trkpt><trkpt lat="45.5470396" lon="9.2588724"><ele>142.2</ele><time>2026-03-24T08:31:36.901Z</time></trkpt><trkpt lat="45.5469996" lon="9.2587517"><ele>142.0</ele><time>2026-03-24T08:31:37.902Z</time></trkpt><trkpt lat="45.5469549" lon="9.2586295"><ele>142.0</ele><time>2026-03-24T08:31:38.909Z</time></trkpt><trkpt lat="45.5468998" lon="9.2585066"><ele>142.0</ele><time>2026-03-24T08:31:39.909Z</time></trkpt><trkpt lat="45.5468585" lon="9.2583975"><ele>142.0</ele><time>2026-03-24T08:31:40.914Z</time></trkpt><trkpt lat="45.5468253" lon="9.2582877"><ele>142.0</ele><time>2026-03-24T08:31:41.908Z</time></trkpt><trkpt lat="45.5468195" lon="9.2581767"><ele>142.0</ele><time>2026-03-24T08:31:42.9Z</time></trkpt><trkpt lat="45.5468085" lon="9.2580768"><ele>142.0</ele><time>2026-03-24T08:31:43.898Z</time></trkpt><trkpt lat="45.5468255" lon="9.2579793"><ele>142.33333333333334</ele><time>2026-03-24T08:31:44.901Z</time></trkpt><trkpt lat="45.5469057" lon="9.2578627"><ele>142.66666666666669</ele><time>2026-03-24T08:31:46.901Z</time></trkpt><trkpt lat="45.5469707" lon="9.2578045"><ele>143.0</ele><time>2026-03-24T08:31:47.897Z</time></trkpt><trkpt lat="45.5470364" lon="9.2577474"><ele>143.33333333333334</ele><time>2026-03-24T08:31:48.896Z</time></trkpt><trkpt lat="45.5471103" lon="9.2577146"><ele>143.66666666666666</ele><time>2026-03-24T08:31:49.895Z</time></trkpt><trkpt lat="45.5471874" lon="9.2576974"><ele>144.0</ele><time>2026-03-24T08:31:50.903Z</time></trkpt><trkpt lat="45.5472719" lon="9.2576897"><ele>144.0</ele><time>2026-03-24T08:31:51.906Z</time></trkpt><trkpt lat="45.5473644" lon="9.2576791"><ele>144.0</ele><time>2026-03-24T08:31:52.91Z</time></trkpt><trkpt lat="45.5474344" lon="9.2576762"><ele>144.0</ele><time>2026-03-24T08:31:53.903Z</time></trkpt><trkpt lat="45.5475372" lon="9.2576877"><ele>144.0</ele><time>2026-03-24T08:31:55.901Z</time></trkpt><trkpt lat="45.5476122" lon="9.2577215"><ele>144.0</ele><time>2026-03-24T08:31:58.911Z</time></trkpt><trkpt lat="45.5476748" lon="9.2576639"><ele>144.0</ele><time>2026-03-24T08:32:01.907Z</time></trkpt><trkpt lat="45.5477155" lon="9.2575609"><ele>144.0</ele><time>2026-03-24T08:32:03.9Z</time></trkpt><trkpt lat="45.5477572" lon="9.2574266"><ele>144.0</ele><time>2026-03-24T08:32:05.902Z</time></trkpt><trkpt lat="45.5477565" lon="9.2573131"><ele>144.0</ele><time>2026-03-24T08:32:07.906Z</time></trkpt><trkpt lat="45.5477584" lon="9.2571979"><ele>144.0</ele><time>2026-03-24T08:32:09.906Z</time></trkpt><trkpt lat="45.5477635" lon="9.2570979"><ele>144.0</ele><time>2026-03-24T08:32:13.898Z</time></trkpt><trkpt lat="45.5477914" lon="9.2570046"><ele>144.0</ele><time>2026-03-24T08:32:16.902Z</time></trkpt><trkpt lat="45.5478276" lon="9.2568908"><ele>143.8</ele><time>2026-03-24T08:32:18.914Z</time></trkpt><trkpt lat="45.5479007" lon="9.2567603"><ele>143.60000000000002</ele><time>2026-03-24T08:32:20.902Z</time></trkpt><trkpt lat="45.547957" lon="9.2566886"><ele>143.4</ele><time>2026-03-24T08:32:21.91Z</time></trkpt><trkpt lat="45.5480234" lon="9.2566107"><ele>143.20000000000002</ele><time>2026-03-24T08:32:22.907Z</time></trkpt><trkpt lat="45.5480852" lon="9.2565045"><ele>143.0</ele><time>2026-03-24T08:32:23.896Z</time></trkpt><trkpt lat="45.5481365" lon="9.2563744"><ele>143.5</ele><time>2026-03-24T08:32:24.9Z</time></trkpt><trkpt lat="45.5481816" lon="9.2562373"><ele>144.0</ele><time>2026-03-24T08:32:25.89Z</time></trkpt><trkpt lat="45.5482386" lon="9.2560806"><ele>144.5</ele><time>2026-03-24T08:32:26.897Z</time></trkpt><trkpt lat="45.5483129" lon="9.2559231"><ele>145.0</ele><time>2026-03-24T08:32:27.887Z</time></trkpt><trkpt lat="45.5484245" lon="9.2557492"><ele>145.0</ele><time>2026-03-24T08:32:28.895Z</time></trkpt><trkpt lat="45.5485787" lon="9.2555223"><ele>145.0</ele><time>2026-03-24T08:32:29.87Z</time></trkpt><trkpt lat="45.5486881" lon="9.2553908"><ele>145.0</ele><time>2026-03-24T08:32:30.878Z</time></trkpt><trkpt lat="45.5488417" lon="9.25524"><ele>145.0</ele><time>2026-03-24T08:32:31.872Z</time></trkpt><trkpt lat="45.5490054" lon="9.255104"><ele>145.0</ele><time>2026-03-24T08:32:32.872Z</time></trkpt><trkpt lat="45.5492013" lon="9.2549885"><ele>145.0</ele><time>2026-03-24T08:32:33.866Z</time></trkpt><trkpt lat="45.5493788" lon="9.2548461"><ele>144.66666666666669</ele><time>2026-03-24T08:32:34.879Z</time></trkpt><trkpt lat="45.5495527" lon="9.2546848"><ele>144.33333333333334</ele><time>2026-03-24T08:32:35.871Z</time></trkpt><trkpt lat="45.5497351" lon="9.2545547"><ele>144.0</ele><time>2026-03-24T08:32:36.865Z</time></trkpt><trkpt lat="45.5498794" lon="9.2544165"><ele>144.0</ele><time>2026-03-24T08:32:37.866Z</time></trkpt><trkpt lat="45.5499355" lon="9.2541808"><ele>144.0</ele><time>2026-03-24T08:32:38.874Z</time></trkpt><trkpt lat="45.5500161" lon="9.2539688"><ele>144.0</ele><time>2026-03-24T08:32:39.877Z</time></trkpt><trkpt lat="45.550091" lon="9.2537424"><ele>144.66666666666666</ele><time>2026-03-24T08:32:40.876Z</time></trkpt><trkpt lat="45.5501673" lon="9.2535339"><ele>145.33333333333331</ele><time>2026-03-24T08:32:41.885Z</time></trkpt><trkpt lat="45.5502543" lon="9.2533342"><ele>146.0</ele><time>2026-03-24T08:32:42.887Z</time></trkpt><trkpt lat="45.5503219" lon="9.2531903"><ele>146.2</ele><time>2026-03-24T08:32:43.874Z</time></trkpt><trkpt lat="45.5504044" lon="9.2530685"><ele>146.39999999999998</ele><time>2026-03-24T08:32:44.878Z</time></trkpt><trkpt lat="45.5504613" lon="9.2529634"><ele>146.6</ele><time>2026-03-24T08:32:45.866Z</time></trkpt><trkpt lat="45.55055" lon="9.2528404"><ele>146.79999999999998</ele><time>2026-03-24T08:32:46.881Z</time></trkpt><trkpt lat="45.550616" lon="9.2527197"><ele>147.0</ele><time>2026-03-24T08:32:47.872Z</time></trkpt><trkpt lat="45.5506612" lon="9.2525948"><ele>147.0</ele><time>2026-03-24T08:32:48.866Z</time></trkpt><trkpt lat="45.5507249" lon="9.2524691"><ele>147.0</ele><time>2026-03-24T08:32:49.862Z</time></trkpt><trkpt lat="45.5507923" lon="9.2522828"><ele>147.0</ele><time>2026-03-24T08:32:50.864Z</time></trkpt><trkpt lat="45.5508598" lon="9.2520746"><ele>147.0</ele><time>2026-03-24T08:32:51.848Z</time></trkpt><trkpt lat="45.5509818" lon="9.2517625"><ele>147.0</ele><time>2026-03-24T08:32:52.857Z</time></trkpt><trkpt lat="45.5510987" lon="9.2515198"><ele>147.0</ele><time>2026-03-24T08:32:53.862Z</time></trkpt><trkpt lat="45.5512318" lon="9.2513202"><ele>147.0</ele><time>2026-03-24T08:32:54.871Z</time></trkpt><trkpt lat="45.551329" lon="9.2511421"><ele>147.0</ele><time>2026-03-24T08:32:55.872Z</time></trkpt><trkpt lat="45.5514057" lon="9.2509561"><ele>147.0</ele><time>2026-03-24T08:32:56.874Z</time></trkpt><trkpt lat="45.5515226" lon="9.2507834"><ele>147.0</ele><time>2026-03-24T08:32:57.877Z</time></trkpt><trkpt lat="45.5515828" lon="9.2506375"><ele>147.0</ele><time>2026-03-24T08:32:58.87Z</time></trkpt><trkpt lat="45.5516384" lon="9.2505232"><ele>146.75</ele><time>2026-03-24T08:32:59.892Z</time></trkpt><trkpt lat="45.5516836" lon="9.2503523"><ele>146.5</ele><time>2026-03-24T08:33:00.883Z</time></trkpt><trkpt lat="45.5517114" lon="9.250182"><ele>146.25</ele><time>2026-03-24T08:33:01.892Z</time></trkpt><trkpt lat="45.5517627" lon="9.2500153"><ele>146.0</ele><time>2026-03-24T08:33:02.884Z</time></trkpt><trkpt lat="45.5518138" lon="9.2498389"><ele>147.0</ele><time>2026-03-24T08:33:03.884Z</time></trkpt><trkpt lat="45.551865" lon="9.2496568"><ele>148.0</ele><time>2026-03-24T08:33:04.9Z</time></trkpt><trkpt lat="45.5518973" lon="9.2494676"><ele>149.0</ele><time>2026-03-24T08:33:05.909Z</time></trkpt><trkpt lat="45.5519248" lon="9.2492909"><ele>150.0</ele><time>2026-03-24T08:33:06.902Z</time></trkpt><trkpt lat="45.5519323" lon="9.2491303"><ele>150.0</ele><time>2026-03-24T08:33:07.899Z</time></trkpt><trkpt lat="45.5519454" lon="9.2489738"><ele>150.0</ele><time>2026-03-24T08:33:08.897Z</time></trkpt><trkpt lat="45.5519353" lon="9.2488559"><ele>150.0</ele><time>2026-03-24T08:33:09.904Z</time></trkpt><trkpt lat="45.5519265" lon="9.2487394"><ele>150.0</ele><time>2026-03-24T08:33:10.901Z</time></trkpt><trkpt lat="45.5519123" lon="9.2486344"><ele>150.0</ele><time>2026-03-24T08:33:11.907Z</time></trkpt><trkpt lat="45.5519014" lon="9.2485458"><ele>150.0</ele><time>2026-03-24T08:33:12.908Z</time></trkpt><trkpt lat="45.5519046" lon="9.2484287"><ele>150.16666666666666</ele><time>2026-03-24T08:33:14.894Z</time></trkpt><trkpt lat="45.5519534" lon="9.2483309"><ele>150.33333333333334</ele><time>2026-03-24T08:33:16.898Z</time></trkpt><trkpt lat="45.5520767" lon="9.2482593"><ele>150.5</ele><time>2026-03-24T08:33:18.891Z</time></trkpt><trkpt lat="45.5521411" lon="9.2482705"><ele>150.66666666666669</ele><time>2026-03-24T08:33:19.896Z</time></trkpt><trkpt lat="45.5522022" lon="9.2483096"><ele>150.83333333333334</ele><time>2026-03-24T08:33:20.897Z</time></trkpt><trkpt lat="45.5522775" lon="9.2483548"><ele>151.0</ele><time>2026-03-24T08:33:21.904Z</time></trkpt><trkpt lat="45.5523521" lon="9.248416"><ele>150.6</ele><time>2026-03-24T08:33:22.891Z</time></trkpt><trkpt lat="45.5524384" lon="9.2484895"><ele>150.2</ele><time>2026-03-24T08:33:23.882Z</time></trkpt><trkpt lat="45.5525199" lon="9.2485698"><ele>149.8</ele><time>2026-03-24T08:33:24.902Z</time></trkpt><trkpt lat="45.5526006" lon="9.2486545"><ele>149.4</ele><time>2026-03-24T08:33:25.891Z</time></trkpt><trkpt lat="45.5526678" lon="9.2487199"><ele>149.0</ele><time>2026-03-24T08:33:26.892Z</time></trkpt><trkpt lat="45.5527463" lon="9.2487872"><ele>149.0</ele><time>2026-03-24T08:33:27.892Z</time></trkpt><trkpt lat="45.5528241" lon="9.2488506"><ele>149.0</ele><time>2026-03-24T08:33:28.892Z</time></trkpt><trkpt lat="45.5528794" lon="9.2489093"><ele>149.0</ele><time>2026-03-24T08:33:29.887Z</time></trkpt><trkpt lat="45.5529397" lon="9.2489687"><ele>149.0</ele><time>2026-03-24T08:33:30.901Z</time></trkpt><trkpt lat="45.552994" lon="9.249025"><ele>149.0</ele><time>2026-03-24T08:33:31.893Z</time></trkpt><trkpt lat="45.5530512" lon="9.2490729"><ele>149.0</ele><time>2026-03-24T08:33:32.886Z</time></trkpt><trkpt lat="45.5531084" lon="9.2491253"><ele>149.0</ele><time>2026-03-24T08:33:33.872Z</time></trkpt><trkpt lat="45.5531643" lon="9.2491792"><ele>149.75</ele><time>2026-03-24T08:33:34.852Z</time></trkpt><trkpt lat="45.5532206" lon="9.2492332"><ele>150.5</ele><time>2026-03-24T08:33:35.836Z</time></trkpt><trkpt lat="45.5532756" lon="9.2492894"><ele>151.25</ele><time>2026-03-24T08:33:36.83Z</time></trkpt><trkpt lat="45.5534421" lon="9.2494952"><ele>152.0</ele><time>2026-03-24T08:33:38.874Z</time></trkpt><trkpt lat="45.5535594" lon="9.24957"><ele>152.0</ele><time>2026-03-24T08:33:39.888Z</time></trkpt><trkpt lat="45.5536477" lon="9.249646"><ele>152.0</ele><time>2026-03-24T08:33:40.906Z</time></trkpt><trkpt lat="45.5537243" lon="9.2497277"><ele>152.0</ele><time>2026-03-24T08:33:41.894Z</time></trkpt><trkpt lat="45.5538147" lon="9.2498087"><ele>152.0</ele><time>2026-03-24T08:33:42.896Z</time></trkpt><trkpt lat="45.5539" lon="9.2498908"><ele>152.0</ele><time>2026-03-24T08:33:43.896Z</time></trkpt><trkpt lat="45.5539998" lon="9.2499843"><ele>151.6</ele><time>2026-03-24T08:33:44.901Z</time></trkpt><trkpt lat="45.5540977" lon="9.2500529"><ele>151.2</ele><time>2026-03-24T08:33:45.9Z</time></trkpt><trkpt lat="45.5541872" lon="9.2501268"><ele>150.8</ele><time>2026-03-24T08:33:46.902Z</time></trkpt><trkpt lat="45.5542542" lon="9.2501976"><ele>150.4</ele><time>2026-03-24T08:33:47.896Z</time></trkpt><trkpt lat="45.5543316" lon="9.2502608"><ele>150.0</ele><time>2026-03-24T08:33:48.894Z</time></trkpt><trkpt lat="45.5543915" lon="9.2503248"><ele>150.0</ele><time>2026-03-24T08:33:49.893Z</time></trkpt><trkpt lat="45.5544667" lon="9.2503873"><ele>150.0</ele><time>2026-03-24T08:33:50.894Z</time></trkpt><trkpt lat="45.5545233" lon="9.2504411"><ele>150.0</ele><time>2026-03-24T08:33:51.889Z</time></trkpt><trkpt lat="45.5545771" lon="9.2504989"><ele>150.0</ele><time>2026-03-24T08:33:52.899Z</time></trkpt><trkpt lat="45.5546359" lon="9.2505481"><ele>150.0</ele><time>2026-03-24T08:33:53.885Z</time></trkpt><trkpt lat="45.5547374" lon="9.250617"><ele>150.0</ele><time>2026-03-24T08:33:55.902Z</time></trkpt><trkpt lat="45.5547941" lon="9.2506731"><ele>150.33333333333334</ele><time>2026-03-24T08:33:56.905Z</time></trkpt><trkpt lat="45.5548532" lon="9.2507549"><ele>150.66666666666666</ele><time>2026-03-24T08:33:57.908Z</time></trkpt><trkpt lat="45.5549103" lon="9.2508317"><ele>151.0</ele><time>2026-03-24T08:33:58.907Z</time></trkpt><trkpt lat="45.554975" lon="9.2509051"><ele>151.33333333333331</ele><time>2026-03-24T08:33:59.899Z</time></trkpt><trkpt lat="45.5550429" lon="9.2509545"><ele>151.66666666666666</ele><time>2026-03-24T08:34:00.892Z</time></trkpt><trkpt lat="45.5551134" lon="9.2509821"><ele>152.0</ele><time>2026-03-24T08:34:01.903Z</time></trkpt><trkpt lat="45.5551784" lon="9.2509752"><ele>152.0</ele><time>2026-03-24T08:34:02.882Z</time></trkpt><trkpt lat="45.5552535" lon="9.2509414"><ele>152.0</ele><time>2026-03-24T08:34:03.878Z</time></trkpt><trkpt lat="45.5553084" lon="9.2507802"><ele>152.0</ele><time>2026-03-24T08:34:05.89Z</time></trkpt><trkpt lat="45.5553111" lon="9.2506383"><ele>152.0</ele><time>2026-03-24T08:34:06.882Z</time></trkpt><trkpt lat="45.5552967" lon="9.2504578"><ele>152.0</ele><time>2026-03-24T08:34:07.88Z</time></trkpt><trkpt lat="45.5552606" lon="9.2502568"><ele>152.0</ele><time>2026-03-24T08:34:08.886Z</time></trkpt><trkpt lat="45.555242" lon="9.2500597"><ele>152.0</ele><time>2026-03-24T08:34:09.885Z</time></trkpt><trkpt lat="45.555216" lon="9.249877"><ele>152.0</ele><time>2026-03-24T08:34:10.879Z</time></trkpt><trkpt lat="45.5552061" lon="9.2497109"><ele>152.0</ele><time>2026-03-24T08:34:11.892Z</time></trkpt><trkpt lat="45.5551962" lon="9.249568"><ele>152.33333333333331</ele><time>2026-03-24T08:34:12.895Z</time></trkpt><trkpt lat="45.5551909" lon="9.249439"><ele>152.66666666666666</ele><time>2026-03-24T08:34:13.897Z</time></trkpt><trkpt lat="45.5552143" lon="9.2493291"><ele>153.0</ele><time>2026-03-24T08:34:14.89Z</time></trkpt><trkpt lat="45.5552537" lon="9.2492434"><ele>153.33333333333334</ele><time>2026-03-24T08:34:15.883Z</time></trkpt><trkpt lat="45.555309" lon="9.2491687"><ele>153.66666666666669</ele><time>2026-03-24T08:34:16.896Z</time></trkpt><trkpt lat="45.5553843" lon="9.2491218"><ele>154.0</ele><time>2026-03-24T08:34:17.902Z</time></trkpt><trkpt lat="45.5554536" lon="9.2490558"><ele>154.0</ele><time>2026-03-24T08:34:18.909Z</time></trkpt><trkpt lat="45.5555308" lon="9.2489742"><ele>154.0</ele><time>2026-03-24T08:34:19.905Z</time></trkpt><trkpt lat="45.5555978" lon="9.2488716"><ele>154.0</ele><time>2026-03-24T08:34:20.908Z</time></trkpt><trkpt lat="45.5556278" lon="9.248744"><ele>154.0</ele><time>2026-03-24T08:34:21.89Z</time></trkpt><trkpt lat="45.5556322" lon="9.2486073"><ele>154.0</ele><time>2026-03-24T08:34:22.886Z</time></trkpt><trkpt lat="45.5555968" lon="9.2484983"><ele>153.5</ele><time>2026-03-24T08:34:23.883Z</time></trkpt><trkpt lat="45.5555144" lon="9.2483974"><ele>153.0</ele><time>2026-03-24T08:34:24.887Z</time></trkpt><trkpt lat="45.5554024" lon="9.2482869"><ele>152.5</ele><time>2026-03-24T08:34:25.882Z</time></trkpt><trkpt lat="45.5553048" lon="9.2481692"><ele>152.0</ele><time>2026-03-24T08:34:26.892Z</time></trkpt><trkpt lat="45.5552107" lon="9.2480711"><ele>152.0</ele><time>2026-03-24T08:34:27.887Z</time></trkpt><trkpt lat="45.55514" lon="9.2479565"><ele>152.0</ele><time>2026-03-24T08:34:28.881Z</time></trkpt><trkpt lat="45.5550864" lon="9.2477893"><ele>152.0</ele><time>2026-03-24T08:34:29.881Z</time></trkpt><trkpt lat="45.5550052" lon="9.247572"><ele>152.0</ele><time>2026-03-24T08:34:30.887Z</time></trkpt><trkpt lat="45.5549584" lon="9.2472782"><ele>152.33333333333331</ele><time>2026-03-24T08:34:31.883Z</time></trkpt><trkpt lat="45.5549549" lon="9.2470073"><ele>152.66666666666666</ele><time>2026-03-24T08:34:32.918Z</time></trkpt><trkpt lat="45.5549372" lon="9.2467811"><ele>153.0</ele><time>2026-03-24T08:34:33.892Z</time></trkpt><trkpt lat="45.5549482" lon="9.2465716"><ele>152.8</ele><time>2026-03-24T08:34:34.9Z</time></trkpt><trkpt lat="45.5549321" lon="9.2464408"><ele>152.60000000000002</ele><time>2026-03-24T08:34:35.893Z</time></trkpt><trkpt lat="45.5549508" lon="9.2462904"><ele>152.39999999999998</ele><time>2026-03-24T08:34:36.898Z</time></trkpt><trkpt lat="45.5549457" lon="9.2461471"><ele>152.2</ele><time>2026-03-24T08:34:37.9Z</time></trkpt><trkpt lat="45.5549634" lon="9.2459625"><ele>152.0</ele><time>2026-03-24T08:34:38.899Z</time></trkpt><trkpt lat="45.5549256" lon="9.2458084"><ele>152.0</ele><time>2026-03-24T08:34:39.898Z</time></trkpt><trkpt lat="45.5548813" lon="9.2456381"><ele>152.0</ele><time>2026-03-24T08:34:40.891Z</time></trkpt><trkpt lat="45.5548118" lon="9.2454781"><ele>152.0</ele><time>2026-03-24T08:34:41.886Z</time></trkpt><trkpt lat="45.5547593" lon="9.2453427"><ele>152.0</ele><time>2026-03-24T08:34:42.893Z</time></trkpt><trkpt lat="45.5547092" lon="9.2452129"><ele>152.0</ele><time>2026-03-24T08:34:43.901Z</time></trkpt><trkpt lat="45.5546625" lon="9.2450849"><ele>152.0</ele><time>2026-03-24T08:34:44.888Z</time></trkpt><trkpt lat="45.5546214" lon="9.244951"><ele>152.0</ele><time>2026-03-24T08:34:45.888Z</time></trkpt><trkpt lat="45.5545703" lon="9.2448341"><ele>152.0</ele><time>2026-03-24T08:34:46.894Z</time></trkpt><trkpt lat="45.5545498" lon="9.2446983"><ele>152.0</ele><time>2026-03-24T08:34:47.882Z</time></trkpt><trkpt lat="45.5545479" lon="9.2445494"><ele>152.0</ele><time>2026-03-24T08:34:48.885Z</time></trkpt><trkpt lat="45.5545904" lon="9.2444248"><ele>152.0</ele><time>2026-03-24T08:34:49.895Z</time></trkpt><trkpt lat="45.5546475" lon="9.244292"><ele>152.0</ele><time>2026-03-24T08:34:50.889Z</time></trkpt><trkpt lat="45.554707" lon="9.2441621"><ele>152.0</ele><time>2026-03-24T08:34:51.884Z</time></trkpt><trkpt lat="45.5547593" lon="9.2440226"><ele>152.0</ele><time>2026-03-24T08:34:52.884Z</time></trkpt><trkpt lat="45.5548003" lon="9.2438842"><ele>152.16666666666666</ele><time>2026-03-24T08:34:53.868Z</time></trkpt><trkpt lat="45.5548434" lon="9.2437608"><ele>152.33333333333331</ele><time>2026-03-24T08:34:54.876Z</time></trkpt><trkpt lat="45.5548801" lon="9.2436274"><ele>152.5</ele><time>2026-03-24T08:34:55.875Z</time></trkpt><trkpt lat="45.5548694" lon="9.243527"><ele>152.66666666666666</ele><time>2026-03-24T08:34:56.882Z</time></trkpt><trkpt lat="45.554872" lon="9.2434365"><ele>152.83333333333334</ele><time>2026-03-24T08:34:57.892Z</time></trkpt><trkpt lat="45.5548921" lon="9.2433385"><ele>153.0</ele><time>2026-03-24T08:34:58.887Z</time></trkpt><trkpt lat="45.5549586" lon="9.2431695"><ele>152.4</ele><time>2026-03-24T08:35:00.89Z</time></trkpt><trkpt lat="45.5549998" lon="9.2430128"><ele>151.8</ele><time>2026-03-24T08:35:02.906Z</time></trkpt><trkpt lat="45.5550164" lon="9.2429046"><ele>151.2</ele><time>2026-03-24T08:35:03.879Z</time></trkpt><trkpt lat="45.5550284" lon="9.2427766"><ele>150.6</ele><time>2026-03-24T08:35:04.886Z</time></trkpt><trkpt lat="45.5550493" lon="9.242625"><ele>150.0</ele><time>2026-03-24T08:35:05.881Z</time></trkpt><trkpt lat="45.5551078" lon="9.242473"><ele>150.0</ele><time>2026-03-24T08:35:06.876Z</time></trkpt><trkpt lat="45.5551822" lon="9.2423184"><ele>150.0</ele><time>2026-03-24T08:35:07.864Z</time></trkpt><trkpt lat="45.555277" lon="9.2421551"><ele>150.0</ele><time>2026-03-24T08:35:08.861Z</time></trkpt><trkpt lat="45.5554162" lon="9.2419726"><ele>150.33333333333334</ele><time>2026-03-24T08:35:09.865Z</time></trkpt><trkpt lat="45.555545" lon="9.2417823"><ele>150.66666666666669</ele><time>2026-03-24T08:35:10.868Z</time></trkpt><trkpt lat="45.5556637" lon="9.2415832"><ele>151.0</ele><time>2026-03-24T08:35:11.869Z</time></trkpt><trkpt lat="45.5557637" lon="9.2413935"><ele>151.0</ele><time>2026-03-24T08:35:12.863Z</time></trkpt><trkpt lat="45.5558579" lon="9.2412253"><ele>151.0</ele><time>2026-03-24T08:35:13.865Z</time></trkpt><trkpt lat="45.5559214" lon="9.2410944"><ele>151.0</ele><time>2026-03-24T08:35:14.87Z</time></trkpt><trkpt lat="45.5559983" lon="9.2409793"><ele>151.0</ele><time>2026-03-24T08:35:15.874Z</time></trkpt><trkpt lat="45.5560317" lon="9.240867"><ele>151.0</ele><time>2026-03-24T08:35:16.876Z</time></trkpt><trkpt lat="45.5560644" lon="9.2406912"><ele>151.0</ele><time>2026-03-24T08:35:17.873Z</time></trkpt><trkpt lat="45.5561073" lon="9.2406196"><ele>151.0</ele><time>2026-03-24T08:35:18.89Z</time></trkpt><trkpt lat="45.5561826" lon="9.2404686"><ele>151.0</ele><time>2026-03-24T08:35:20.87Z</time></trkpt><trkpt lat="45.5562754" lon="9.2403613"><ele>151.0</ele><time>2026-03-24T08:35:22.88Z</time></trkpt><trkpt lat="45.5563758" lon="9.2403274"><ele>151.6</ele><time>2026-03-24T08:35:24.88Z</time></trkpt><trkpt lat="45.5564518" lon="9.2403309"><ele>152.2</ele><time>2026-03-24T08:35:25.876Z</time></trkpt><trkpt lat="45.5565473" lon="9.2403426"><ele>152.8</ele><time>2026-03-24T08:35:26.874Z</time></trkpt><trkpt lat="45.5566581" lon="9.2403831"><ele>153.4</ele><time>2026-03-24T08:35:27.878Z</time></trkpt><trkpt lat="45.556782" lon="9.2404419"><ele>154.0</ele><time>2026-03-24T08:35:28.891Z</time></trkpt><trkpt lat="45.556917" lon="9.2404911"><ele>153.66666666666669</ele><time>2026-03-24T08:35:29.886Z</time></trkpt><trkpt lat="45.5570635" lon="9.2405453"><ele>153.33333333333334</ele><time>2026-03-24T08:35:30.886Z</time></trkpt><trkpt lat="45.5572243" lon="9.2405923"><ele>153.0</ele><time>2026-03-24T08:35:31.891Z</time></trkpt><trkpt lat="45.5574136" lon="9.240657"><ele>153.0</ele><time>2026-03-24T08:35:32.882Z</time></trkpt><trkpt lat="45.5575987" lon="9.2407036"><ele>153.0</ele><time>2026-03-24T08:35:33.897Z</time></trkpt><trkpt lat="45.5577746" lon="9.2407632"><ele>153.0</ele><time>2026-03-24T08:35:34.88Z</time></trkpt><trkpt lat="45.5579221" lon="9.2408283"><ele>153.0</ele><time>2026-03-24T08:35:35.887Z</time></trkpt><trkpt lat="45.5581038" lon="9.2409075"><ele>153.0</ele><time>2026-03-24T08:35:36.889Z</time></trkpt><trkpt lat="45.5583319" lon="9.2409694"><ele>153.0</ele><time>2026-03-24T08:35:37.886Z</time></trkpt><trkpt lat="45.5585489" lon="9.2410648"><ele>153.0</ele><time>2026-03-24T08:35:38.892Z</time></trkpt><trkpt lat="45.5587577" lon="9.241159"><ele>153.0</ele><time>2026-03-24T08:35:39.894Z</time></trkpt><trkpt lat="45.5589716" lon="9.2412287"><ele>153.0</ele><time>2026-03-24T08:35:40.896Z</time></trkpt><trkpt lat="45.5592132" lon="9.2413019"><ele>153.0</ele><time>2026-03-24T08:35:41.899Z</time></trkpt><trkpt lat="45.5594401" lon="9.2413811"><ele>153.0</ele><time>2026-03-24T08:35:42.896Z</time></trkpt><trkpt lat="45.559644" lon="9.2414662"><ele>153.0</ele><time>2026-03-24T08:35:43.896Z</time></trkpt><trkpt lat="45.5598882" lon="9.241562"><ele>153.0</ele><time>2026-03-24T08:35:44.895Z</time></trkpt><trkpt lat="45.5601106" lon="9.2416646"><ele>153.0</ele><time>2026-03-24T08:35:45.906Z</time></trkpt><trkpt lat="45.5603343" lon="9.2417644"><ele>152.0</ele><time>2026-03-24T08:35:46.909Z</time></trkpt><trkpt lat="45.5605702" lon="9.2418505"><ele>151.0</ele><time>2026-03-24T08:35:47.908Z</time></trkpt><trkpt lat="45.5608192" lon="9.2419405"><ele>151.0</ele><time>2026-03-24T08:35:48.905Z</time></trkpt><trkpt lat="45.5610485" lon="9.2420381"><ele>151.0</ele><time>2026-03-24T08:35:49.907Z</time></trkpt><trkpt lat="45.5612629" lon="9.2421237"><ele>153.5</ele><time>2026-03-24T08:35:50.909Z</time></trkpt><trkpt lat="45.5614715" lon="9.2422237"><ele>156.0</ele><time>2026-03-24T08:35:51.904Z</time></trkpt><trkpt lat="45.5616922" lon="9.2423239"><ele>156.5</ele><time>2026-03-24T08:35:52.898Z</time></trkpt><trkpt lat="45.5619258" lon="9.2424071"><ele>157.0</ele><time>2026-03-24T08:35:53.903Z</time></trkpt><trkpt lat="45.5621754" lon="9.242499"><ele>157.5</ele><time>2026-03-24T08:35:54.91Z</time></trkpt><trkpt lat="45.5624113" lon="9.242563"><ele>158.0</ele><time>2026-03-24T08:35:55.898Z</time></trkpt><trkpt lat="45.5626591" lon="9.2426301"><ele>158.0</ele><time>2026-03-24T08:35:56.899Z</time></trkpt><trkpt lat="45.5629192" lon="9.2427239"><ele>158.0</ele><time>2026-03-24T08:35:57.896Z</time></trkpt><trkpt lat="45.5631879" lon="9.2428397"><ele>158.0</ele><time>2026-03-24T08:35:58.894Z</time></trkpt><trkpt lat="45.5634611" lon="9.2429775"><ele>158.0</ele><time>2026-03-24T08:35:59.892Z</time></trkpt><trkpt lat="45.5637331" lon="9.2430874"><ele>158.0</ele><time>2026-03-24T08:36:00.895Z</time></trkpt><trkpt lat="45.5640196" lon="9.2432179"><ele>158.0</ele><time>2026-03-24T08:36:01.897Z</time></trkpt><trkpt lat="45.5643156" lon="9.2433466"><ele>158.5</ele><time>2026-03-24T08:36:02.899Z</time></trkpt><trkpt lat="45.5646379" lon="9.2434741"><ele>159.0</ele><time>2026-03-24T08:36:03.889Z</time></trkpt><trkpt lat="45.5649596" lon="9.2436425"><ele>159.0</ele><time>2026-03-24T08:36:04.911Z</time></trkpt><trkpt lat="45.5652451" lon="9.2437849"><ele>159.0</ele><time>2026-03-24T08:36:05.896Z</time></trkpt><trkpt lat="45.5655162" lon="9.2438797"><ele>159.0</ele><time>2026-03-24T08:36:06.901Z</time></trkpt><trkpt lat="45.5657904" lon="9.2439902"><ele>159.0</ele><time>2026-03-24T08:36:07.895Z</time></trkpt><trkpt lat="45.5660589" lon="9.2440996"><ele>159.0</ele><time>2026-03-24T08:36:08.899Z</time></trkpt><trkpt lat="45.5662911" lon="9.2442038"><ele>159.0</ele><time>2026-03-24T08:36:09.894Z</time></trkpt><trkpt lat="45.5665135" lon="9.2442744"><ele>159.0</ele><time>2026-03-24T08:36:10.896Z</time></trkpt><trkpt lat="45.5667788" lon="9.244374"><ele>159.0</ele><time>2026-03-24T08:36:11.893Z</time></trkpt><trkpt lat="45.5670509" lon="9.2444837"><ele>158.5</ele><time>2026-03-24T08:36:12.906Z</time></trkpt><trkpt lat="45.5673163" lon="9.2445894"><ele>158.0</ele><time>2026-03-24T08:36:13.907Z</time></trkpt><trkpt lat="45.5675891" lon="9.2446833"><ele>158.0</ele><time>2026-03-24T08:36:14.905Z</time></trkpt><trkpt lat="45.567836" lon="9.2448031"><ele>158.0</ele><time>2026-03-24T08:36:15.897Z</time></trkpt><trkpt lat="45.5681186" lon="9.244919"><ele>159.5</ele><time>2026-03-24T08:36:16.898Z</time></trkpt><trkpt lat="45.568424" lon="9.2450492"><ele>161.0</ele><time>2026-03-24T08:36:17.898Z</time></trkpt><trkpt lat="45.5687388" lon="9.2451895"><ele>161.5</ele><time>2026-03-24T08:36:18.883Z</time></trkpt><trkpt lat="45.5690234" lon="9.2453197"><ele>162.0</ele><time>2026-03-24T08:36:19.881Z</time></trkpt><trkpt lat="45.5693506" lon="9.245454"><ele>162.0</ele><time>2026-03-24T08:36:20.866Z</time></trkpt><trkpt lat="45.5696732" lon="9.2456056"><ele>162.0</ele><time>2026-03-24T08:36:21.85Z</time></trkpt><trkpt lat="45.5699833" lon="9.2457528"><ele>172.0</ele><time>2026-03-24T08:36:22.832Z</time></trkpt><trkpt lat="45.5862923" lon="9.2493677"><ele>172.0</ele><time>2026-03-24T08:37:21.848Z</time></trkpt><trkpt lat="45.5865005" lon="9.2492466"><ele>172.0</ele><time>2026-03-24T08:37:22.868Z</time></trkpt><trkpt lat="45.5867145" lon="9.2490782"><ele>171.5</ele><time>2026-03-24T08:37:23.866Z</time></trkpt><trkpt lat="45.5869365" lon="9.2489523"><ele>171.0</ele><time>2026-03-24T08:37:24.874Z</time></trkpt><trkpt lat="45.5871884" lon="9.2488942"><ele>171.66666666666666</ele><time>2026-03-24T08:37:25.877Z</time></trkpt><trkpt lat="45.5873811" lon="9.2487739"><ele>172.33333333333331</ele><time>2026-03-24T08:37:26.887Z</time></trkpt><trkpt lat="45.5875738" lon="9.2486615"><ele>173.0</ele><time>2026-03-24T08:37:27.891Z</time></trkpt><trkpt lat="45.5877437" lon="9.2485194"><ele>173.0</ele><time>2026-03-24T08:37:28.898Z</time></trkpt><trkpt lat="45.5879309" lon="9.2483602"><ele>173.0</ele><time>2026-03-24T08:37:29.898Z</time></trkpt><trkpt lat="45.5881405" lon="9.2482042"><ele>172.0</ele><time>2026-03-24T08:37:30.897Z</time></trkpt><trkpt lat="45.5883432" lon="9.2480654"><ele>171.0</ele><time>2026-03-24T08:37:31.89Z</time></trkpt><trkpt lat="45.5885662" lon="9.2479196"><ele>172.5</ele><time>2026-03-24T08:37:32.898Z</time></trkpt><trkpt lat="45.588776" lon="9.2477699"><ele>174.0</ele><time>2026-03-24T08:37:33.901Z</time></trkpt><trkpt lat="45.5889885" lon="9.2476154"><ele>174.0</ele><time>2026-03-24T08:37:34.898Z</time></trkpt><trkpt lat="45.589204" lon="9.2474618"><ele>174.0</ele><time>2026-03-24T08:37:35.9Z</time></trkpt><trkpt lat="45.5893818" lon="9.2473006"><ele>174.66666666666666</ele><time>2026-03-24T08:37:36.901Z</time></trkpt><trkpt lat="45.5895493" lon="9.2471567"><ele>175.33333333333331</ele><time>2026-03-24T08:37:37.914Z</time></trkpt><trkpt lat="45.5897449" lon="9.2470104"><ele>176.0</ele><time>2026-03-24T08:37:38.906Z</time></trkpt><trkpt lat="45.5899612" lon="9.2468319"><ele>176.0</ele><time>2026-03-24T08:37:39.907Z</time></trkpt><trkpt lat="45.5901446" lon="9.2466846"><ele>176.0</ele><time>2026-03-24T08:37:40.912Z</time></trkpt><trkpt lat="45.5903391" lon="9.2465391"><ele>176.0</ele><time>2026-03-24T08:37:41.904Z</time></trkpt><trkpt lat="45.5905417" lon="9.2464062"><ele>176.0</ele><time>2026-03-24T08:37:42.908Z</time></trkpt><trkpt lat="45.5907583" lon="9.2462788"><ele>176.0</ele><time>2026-03-24T08:37:43.91Z</time></trkpt><trkpt lat="45.5909802" lon="9.2461495"><ele>176.0</ele><time>2026-03-24T08:37:44.905Z</time></trkpt><trkpt lat="45.5911722" lon="9.2460234"><ele>176.0</ele><time>2026-03-24T08:37:45.907Z</time></trkpt><trkpt lat="45.5913773" lon="9.2458908"><ele>176.0</ele><time>2026-03-24T08:37:46.908Z</time></trkpt><trkpt lat="45.5915866" lon="9.2457652"><ele>176.5</ele><time>2026-03-24T08:37:47.908Z</time></trkpt><trkpt lat="45.5918106" lon="9.2456523"><ele>177.0</ele><time>2026-03-24T08:37:48.911Z</time></trkpt><trkpt lat="45.5920371" lon="9.2455457"><ele>177.0</ele><time>2026-03-24T08:37:49.903Z</time></trkpt><trkpt lat="45.5922675" lon="9.2454421"><ele>177.0</ele><time>2026-03-24T08:37:50.896Z</time></trkpt><trkpt lat="45.5924767" lon="9.2453096"><ele>177.0</ele><time>2026-03-24T08:37:51.899Z</time></trkpt><trkpt lat="45.5926976" lon="9.245198"><ele>177.0</ele><time>2026-03-24T08:37:52.9Z</time></trkpt><trkpt lat="45.5929017" lon="9.2450733"><ele>177.0</ele><time>2026-03-24T08:37:53.896Z</time></trkpt><trkpt lat="45.5930916" lon="9.2449617"><ele>177.0</ele><time>2026-03-24T08:37:54.9Z</time></trkpt><trkpt lat="45.5933153" lon="9.2448255"><ele>177.0</ele><time>2026-03-24T08:37:55.898Z</time></trkpt><trkpt lat="45.5935295" lon="9.2447038"><ele>176.33333333333334</ele><time>2026-03-24T08:37:56.901Z</time></trkpt><trkpt lat="45.5937339" lon="9.2445782"><ele>175.66666666666669</ele><time>2026-03-24T08:37:57.898Z</time></trkpt><trkpt lat="45.5939174" lon="9.2444616"><ele>175.0</ele><time>2026-03-24T08:37:58.899Z</time></trkpt><trkpt lat="45.5941409" lon="9.2443525"><ele>175.0</ele><time>2026-03-24T08:37:59.902Z</time></trkpt><trkpt lat="45.5943581" lon="9.2442426"><ele>175.0</ele><time>2026-03-24T08:38:00.91Z</time></trkpt><trkpt lat="45.5945657" lon="9.2441198"><ele>175.66666666666669</ele><time>2026-03-24T08:38:01.91Z</time></trkpt><trkpt lat="45.5947773" lon="9.2440037"><ele>176.33333333333334</ele><time>2026-03-24T08:38:02.909Z</time></trkpt><trkpt lat="45.5949736" lon="9.2438541"><ele>177.0</ele><time>2026-03-24T08:38:03.908Z</time></trkpt><trkpt lat="45.5951715" lon="9.2437354"><ele>178.0</ele><time>2026-03-24T08:38:04.905Z</time></trkpt><trkpt lat="45.5953715" lon="9.2436432"><ele>179.0</ele><time>2026-03-24T08:38:05.903Z</time></trkpt><trkpt lat="45.5955953" lon="9.2435475"><ele>180.0</ele><time>2026-03-24T08:38:06.903Z</time></trkpt><trkpt lat="45.5958213" lon="9.2434162"><ele>180.0</ele><time>2026-03-24T08:38:07.905Z</time></trkpt><trkpt lat="45.5960405" lon="9.2433046"><ele>180.0</ele><time>2026-03-24T08:38:08.925Z</time></trkpt><trkpt lat="45.5962696" lon="9.2431887"><ele>179.0</ele><time>2026-03-24T08:38:09.899Z</time></trkpt><trkpt lat="45.5964993" lon="9.2430547"><ele>178.0</ele><time>2026-03-24T08:38:10.905Z</time></trkpt><trkpt lat="45.5966865" lon="9.2429166"><ele>178.0</ele><time>2026-03-24T08:38:11.901Z</time></trkpt><trkpt lat="45.5969026" lon="9.2427521"><ele>178.0</ele><time>2026-03-24T08:38:12.908Z</time></trkpt><trkpt lat="45.5970946" lon="9.2425542"><ele>178.66666666666669</ele><time>2026-03-24T08:38:13.896Z</time></trkpt><trkpt lat="45.5972745" lon="9.2423658"><ele>179.33333333333334</ele><time>2026-03-24T08:38:14.886Z</time></trkpt><trkpt lat="45.5974553" lon="9.2421769"><ele>180.0</ele><time>2026-03-24T08:38:15.887Z</time></trkpt><trkpt lat="45.5976386" lon="9.2419691"><ele>180.0</ele><time>2026-03-24T08:38:16.888Z</time></trkpt><trkpt lat="45.5978116" lon="9.2417276"><ele>180.0</ele><time>2026-03-24T08:38:17.885Z</time></trkpt><trkpt lat="45.5979568" lon="9.2415136"><ele>180.33333333333334</ele><time>2026-03-24T08:38:18.89Z</time></trkpt><trkpt lat="45.5980856" lon="9.2412781"><ele>180.66666666666669</ele><time>2026-03-24T08:38:19.888Z</time></trkpt><trkpt lat="45.5982044" lon="9.2410477"><ele>181.0</ele><time>2026-03-24T08:38:20.9Z</time></trkpt><trkpt lat="45.5982641" lon="9.2408045"><ele>181.66666666666669</ele><time>2026-03-24T08:38:21.906Z</time></trkpt><trkpt lat="45.5983833" lon="9.2405591"><ele>182.33333333333334</ele><time>2026-03-24T08:38:22.908Z</time></trkpt><trkpt lat="45.5984495" lon="9.240309"><ele>183.0</ele><time>2026-03-24T08:38:23.907Z</time></trkpt><trkpt lat="45.598558" lon="9.2400427"><ele>182.33333333333334</ele><time>2026-03-24T08:38:24.905Z</time></trkpt><trkpt lat="45.5986119" lon="9.2397544"><ele>181.66666666666669</ele><time>2026-03-24T08:38:25.897Z</time></trkpt><trkpt lat="45.5986689" lon="9.2394489"><ele>181.0</ele><time>2026-03-24T08:38:26.896Z</time></trkpt><trkpt lat="45.5987573" lon="9.2391516"><ele>180.5</ele><time>2026-03-24T08:38:27.89Z</time></trkpt><trkpt lat="45.5988443" lon="9.2388668"><ele>180.0</ele><time>2026-03-24T08:38:28.889Z</time></trkpt><trkpt lat="45.5989638" lon="9.2385391"><ele>180.0</ele><time>2026-03-24T08:38:29.897Z</time></trkpt><trkpt lat="45.5990378" lon="9.2382145"><ele>180.0</ele><time>2026-03-24T08:38:30.899Z</time></trkpt><trkpt lat="45.5991447" lon="9.2379053"><ele>180.0</ele><time>2026-03-24T08:38:31.9Z</time></trkpt><trkpt lat="45.5992454" lon="9.2376037"><ele>180.0</ele><time>2026-03-24T08:38:32.888Z</time></trkpt><trkpt lat="45.599316" lon="9.2372783"><ele>180.0</ele><time>2026-03-24T08:38:33.893Z</time></trkpt><trkpt lat="45.5994236" lon="9.2370009"><ele>180.0</ele><time>2026-03-24T08:38:34.902Z</time></trkpt><trkpt lat="45.5995228" lon="9.2366821"><ele>182.0</ele><time>2026-03-24T08:38:35.882Z</time></trkpt><trkpt lat="45.599608" lon="9.2363547"><ele>184.0</ele><time>2026-03-24T08:38:36.88Z</time></trkpt><trkpt lat="45.5996975" lon="9.2360434"><ele>184.0</ele><time>2026-03-24T08:38:37.883Z</time></trkpt><trkpt lat="45.5997821" lon="9.23573"><ele>184.0</ele><time>2026-03-24T08:38:38.884Z</time></trkpt><trkpt lat="45.5998461" lon="9.2354112"><ele>183.66666666666669</ele><time>2026-03-24T08:38:39.908Z</time></trkpt><trkpt lat="45.5999267" lon="9.2351064"><ele>183.33333333333334</ele><time>2026-03-24T08:38:40.893Z</time></trkpt><trkpt lat="45.6000149" lon="9.2348163"><ele>183.0</ele><time>2026-03-24T08:38:41.894Z</time></trkpt><trkpt lat="45.600061" lon="9.2345057"><ele>183.0</ele><time>2026-03-24T08:38:42.898Z</time></trkpt><trkpt lat="45.6001455" lon="9.2342009"><ele>183.0</ele><time>2026-03-24T08:38:43.892Z</time></trkpt><trkpt lat="45.6002544" lon="9.2338854"><ele>184.0</ele><time>2026-03-24T08:38:44.888Z</time></trkpt><trkpt lat="45.6003765" lon="9.2335928"><ele>185.0</ele><time>2026-03-24T08:38:45.895Z</time></trkpt><trkpt lat="45.6005347" lon="9.2333217"><ele>186.5</ele><time>2026-03-24T08:38:46.902Z</time></trkpt><trkpt lat="45.6006963" lon="9.2330396"><ele>188.0</ele><time>2026-03-24T08:38:47.896Z</time></trkpt><trkpt lat="45.6008393" lon="9.2327869"><ele>188.0</ele><time>2026-03-24T08:38:48.893Z</time></trkpt><trkpt lat="45.601038" lon="9.2324994"><ele>188.0</ele><time>2026-03-24T08:38:49.901Z</time></trkpt><trkpt lat="45.6012154" lon="9.2322268"><ele>186.0</ele><time>2026-03-24T08:38:50.891Z</time></trkpt><trkpt lat="45.6013435" lon="9.2320269"><ele>184.0</ele><time>2026-03-24T08:38:51.892Z</time></trkpt><trkpt lat="45.6015091" lon="9.2318449"><ele>182.0</ele><time>2026-03-24T08:38:52.889Z</time></trkpt><trkpt lat="45.6017395" lon="9.2316284"><ele>182.5</ele><time>2026-03-24T08:38:53.888Z</time></trkpt><trkpt lat="45.6019366" lon="9.2314337"><ele>183.0</ele><time>2026-03-24T08:38:54.9Z</time></trkpt><trkpt lat="45.6021201" lon="9.2312315"><ele>183.5</ele><time>2026-03-24T08:38:55.892Z</time></trkpt><trkpt lat="45.6023314" lon="9.2310155"><ele>184.0</ele><time>2026-03-24T08:38:56.886Z</time></trkpt><trkpt lat="45.602522" lon="9.23082"><ele>184.0</ele><time>2026-03-24T08:38:57.886Z</time></trkpt><trkpt lat="45.6026987" lon="9.2306478"><ele>184.0</ele><time>2026-03-24T08:38:58.887Z</time></trkpt><trkpt lat="45.6028693" lon="9.2304731"><ele>184.0</ele><time>2026-03-24T08:38:59.879Z</time></trkpt><trkpt lat="45.6030397" lon="9.2303064"><ele>184.0</ele><time>2026-03-24T08:39:00.889Z</time></trkpt><trkpt lat="45.6031962" lon="9.2301433"><ele>184.0</ele><time>2026-03-24T08:39:01.881Z</time></trkpt><trkpt lat="45.6033705" lon="9.2299699"><ele>184.0</ele><time>2026-03-24T08:39:02.882Z</time></trkpt><trkpt lat="45.6035394" lon="9.2297788"><ele>184.33333333333334</ele><time>2026-03-24T08:39:03.888Z</time></trkpt><trkpt lat="45.6037011" lon="9.2295692"><ele>184.66666666666666</ele><time>2026-03-24T08:39:04.891Z</time></trkpt><trkpt lat="45.6038533" lon="9.2293849"><ele>185.0</ele><time>2026-03-24T08:39:05.891Z</time></trkpt><trkpt lat="45.6040192" lon="9.2291905"><ele>185.0</ele><time>2026-03-24T08:39:06.891Z</time></trkpt><trkpt lat="45.6041902" lon="9.2290177"><ele>185.0</ele><time>2026-03-24T08:39:07.886Z</time></trkpt><trkpt lat="45.6043517" lon="9.2288171"><ele>185.0</ele><time>2026-03-24T08:39:08.889Z</time></trkpt><trkpt lat="45.604506" lon="9.2286397"><ele>185.33333333333331</ele><time>2026-03-24T08:39:09.886Z</time></trkpt><trkpt lat="45.6046763" lon="9.2284698"><ele>185.66666666666666</ele><time>2026-03-24T08:39:10.92Z</time></trkpt><trkpt lat="45.6048322" lon="9.2282803"><ele>186.0</ele><time>2026-03-24T08:39:11.896Z</time></trkpt><trkpt lat="45.6049838" lon="9.2281086"><ele>186.33333333333334</ele><time>2026-03-24T08:39:12.899Z</time></trkpt><trkpt lat="45.6051281" lon="9.2279385"><ele>186.66666666666669</ele><time>2026-03-24T08:39:13.89Z</time></trkpt><trkpt lat="45.605299" lon="9.227783"><ele>187.0</ele><time>2026-03-24T08:39:14.897Z</time></trkpt><trkpt lat="45.6054586" lon="9.2276453"><ele>187.33333333333334</ele><time>2026-03-24T08:39:15.896Z</time></trkpt><trkpt lat="45.6055804" lon="9.2275156"><ele>187.66666666666666</ele><time>2026-03-24T08:39:16.899Z</time></trkpt><trkpt lat="45.6057088" lon="9.2273688"><ele>188.0</ele><time>2026-03-24T08:39:17.903Z</time></trkpt><trkpt lat="45.6058516" lon="9.2272292"><ele>188.33333333333331</ele><time>2026-03-24T08:39:18.904Z</time></trkpt><trkpt lat="45.6059894" lon="9.2271058"><ele>188.66666666666666</ele><time>2026-03-24T08:39:19.902Z</time></trkpt><trkpt lat="45.6061118" lon="9.226986"><ele>189.0</ele><time>2026-03-24T08:39:20.905Z</time></trkpt><trkpt lat="45.6062172" lon="9.2268515"><ele>189.0</ele><time>2026-03-24T08:39:21.901Z</time></trkpt><trkpt lat="45.6063222" lon="9.2267049"><ele>189.0</ele><time>2026-03-24T08:39:22.904Z</time></trkpt><trkpt lat="45.6064219" lon="9.2265671"><ele>189.0</ele><time>2026-03-24T08:39:23.901Z</time></trkpt><trkpt lat="45.6065243" lon="9.2264741"><ele>189.0</ele><time>2026-03-24T08:39:24.91Z</time></trkpt><trkpt lat="45.6066076" lon="9.2263766"><ele>188.79999999999998</ele><time>2026-03-24T08:39:25.888Z</time></trkpt><trkpt lat="45.6066833" lon="9.2262893"><ele>188.6</ele><time>2026-03-24T08:39:26.893Z</time></trkpt><trkpt lat="45.606747" lon="9.2261972"><ele>188.4</ele><time>2026-03-24T08:39:27.895Z</time></trkpt><trkpt lat="45.606846" lon="9.2261924"><ele>188.2</ele><time>2026-03-24T08:39:28.9Z</time></trkpt><trkpt lat="45.606946" lon="9.2262213"><ele>188.0</ele><time>2026-03-24T08:39:29.904Z</time></trkpt><trkpt lat="45.6070401" lon="9.2262861"><ele>188.0</ele><time>2026-03-24T08:39:30.898Z</time></trkpt><trkpt lat="45.6071251" lon="9.2263571"><ele>188.0</ele><time>2026-03-24T08:39:31.916Z</time></trkpt><trkpt lat="45.6072082" lon="9.2264519"><ele>188.0</ele><time>2026-03-24T08:39:32.901Z</time></trkpt><trkpt lat="45.6072789" lon="9.2265707"><ele>188.0</ele><time>2026-03-24T08:39:33.899Z</time></trkpt><trkpt lat="45.6073411" lon="9.2267023"><ele>188.0</ele><time>2026-03-24T08:39:34.909Z</time></trkpt><trkpt lat="45.6073967" lon="9.2268159"><ele>188.0</ele><time>2026-03-24T08:39:35.906Z</time></trkpt><trkpt lat="45.6074378" lon="9.2268928"><ele>188.0</ele><time>2026-03-24T08:39:36.901Z</time></trkpt><trkpt lat="45.6074949" lon="9.227022"><ele>188.0</ele><time>2026-03-24T08:39:38.9Z</time></trkpt><trkpt lat="45.6075258" lon="9.2271291"><ele>188.0</ele><time>2026-03-24T08:39:40.918Z</time></trkpt><trkpt lat="45.6075707" lon="9.2272007"><ele>188.0</ele><time>2026-03-24T08:39:48.902Z</time></trkpt><trkpt lat="45.6075957" lon="9.2273144"><ele>188.0</ele><time>2026-03-24T08:39:50.914Z</time></trkpt><trkpt lat="45.6075825" lon="9.227515"><ele>187.75</ele><time>2026-03-24T08:39:52.914Z</time></trkpt><trkpt lat="45.6075239" lon="9.2276384"><ele>187.5</ele><time>2026-03-24T08:39:53.917Z</time></trkpt><trkpt lat="45.6074599" lon="9.2277725"><ele>187.25</ele><time>2026-03-24T08:39:54.918Z</time></trkpt><trkpt lat="45.6074158" lon="9.2279304"><ele>187.0</ele><time>2026-03-24T08:39:55.918Z</time></trkpt><trkpt lat="45.6073656" lon="9.2280781"><ele>187.2</ele><time>2026-03-24T08:39:56.914Z</time></trkpt><trkpt lat="45.6073085" lon="9.2282111"><ele>187.39999999999998</ele><time>2026-03-24T08:39:57.914Z</time></trkpt><trkpt lat="45.6072686" lon="9.2283292"><ele>187.60000000000002</ele><time>2026-03-24T08:39:58.908Z</time></trkpt><trkpt lat="45.6072583" lon="9.2284489"><ele>187.8</ele><time>2026-03-24T08:39:59.902Z</time></trkpt><trkpt lat="45.6072764" lon="9.228556"><ele>188.0</ele><time>2026-03-24T08:40:00.9Z</time></trkpt><trkpt lat="45.6073159" lon="9.2286749"><ele>188.0</ele><time>2026-03-24T08:40:01.9Z</time></trkpt><trkpt lat="45.6073519" lon="9.2288034"><ele>188.0</ele><time>2026-03-24T08:40:02.894Z</time></trkpt><trkpt lat="45.6074098" lon="9.2289419"><ele>188.0</ele><time>2026-03-24T08:40:03.9Z</time></trkpt><trkpt lat="45.6074943" lon="9.229093"><ele>188.0</ele><time>2026-03-24T08:40:04.899Z</time></trkpt><trkpt lat="45.6075607" lon="9.2292436"><ele>188.2</ele><time>2026-03-24T08:40:05.897Z</time></trkpt><trkpt lat="45.6076153" lon="9.2293839"><ele>188.4</ele><time>2026-03-24T08:40:06.899Z</time></trkpt><trkpt lat="45.6076756" lon="9.2295222"><ele>188.6</ele><time>2026-03-24T08:40:07.903Z</time></trkpt><trkpt lat="45.6077181" lon="9.2296537"><ele>188.79999999999998</ele><time>2026-03-24T08:40:08.898Z</time></trkpt><trkpt lat="45.6077573" lon="9.2297903"><ele>189.0</ele><time>2026-03-24T08:40:09.9Z</time></trkpt><trkpt lat="45.6078037" lon="9.2299219"><ele>188.79999999999998</ele><time>2026-03-24T08:40:10.904Z</time></trkpt><trkpt lat="45.6078369" lon="9.2300485"><ele>188.6</ele><time>2026-03-24T08:40:11.916Z</time></trkpt><trkpt lat="45.607874" lon="9.2301662"><ele>188.4</ele><time>2026-03-24T08:40:12.904Z</time></trkpt><trkpt lat="45.6079082" lon="9.2302847"><ele>188.2</ele><time>2026-03-24T08:40:13.908Z</time></trkpt><trkpt lat="45.6079521" lon="9.2304011"><ele>188.0</ele><time>2026-03-24T08:40:14.903Z</time></trkpt><trkpt lat="45.6079972" lon="9.2305334"><ele>188.0</ele><time>2026-03-24T08:40:15.901Z</time></trkpt><trkpt lat="45.6080392" lon="9.2306811"><ele>188.0</ele><time>2026-03-24T08:40:16.898Z</time></trkpt><trkpt lat="45.6080952" lon="9.2308258"><ele>188.0</ele><time>2026-03-24T08:40:17.895Z</time></trkpt><trkpt lat="45.6081485" lon="9.2309785"><ele>188.0</ele><time>2026-03-24T08:40:18.892Z</time></trkpt><trkpt lat="45.6081903" lon="9.2311312"><ele>188.0</ele><time>2026-03-24T08:40:19.894Z</time></trkpt><trkpt lat="45.6082293" lon="9.2312788"><ele>188.0</ele><time>2026-03-24T08:40:20.883Z</time></trkpt><trkpt lat="45.6082766" lon="9.2314363"><ele>188.0</ele><time>2026-03-24T08:40:21.881Z</time></trkpt><trkpt lat="45.6083266" lon="9.2316088"><ele>188.0</ele><time>2026-03-24T08:40:22.882Z</time></trkpt><trkpt lat="45.6083791" lon="9.2317792"><ele>188.0</ele><time>2026-03-24T08:40:23.875Z</time></trkpt><trkpt lat="45.6084249" lon="9.2319429"><ele>188.0</ele><time>2026-03-24T08:40:24.871Z</time></trkpt><trkpt lat="45.6084804" lon="9.2320912"><ele>188.0</ele><time>2026-03-24T08:40:25.871Z</time></trkpt><trkpt lat="45.6085207" lon="9.2322167"><ele>188.0</ele><time>2026-03-24T08:40:26.868Z</time></trkpt><trkpt lat="45.6085624" lon="9.2323204"><ele>188.0</ele><time>2026-03-24T08:40:27.865Z</time></trkpt><trkpt lat="45.6086055" lon="9.232429"><ele>188.0</ele><time>2026-03-24T08:40:28.864Z</time></trkpt><trkpt lat="45.6086294" lon="9.2325139"><ele>188.0</ele><time>2026-03-24T08:40:29.881Z</time></trkpt><trkpt lat="45.6086754" lon="9.2325806"><ele>188.0</ele><time>2026-03-24T08:40:30.874Z</time></trkpt><trkpt lat="45.6087344" lon="9.2326726"><ele>188.0</ele><time>2026-03-24T08:40:32.877Z</time></trkpt><trkpt lat="45.6087668" lon="9.2327733"><ele>188.0</ele><time>2026-03-24T08:40:34.896Z</time></trkpt><trkpt lat="45.6087798" lon="9.2329295"><ele>188.0</ele><time>2026-03-24T08:40:36.893Z</time></trkpt><trkpt lat="45.6088105" lon="9.2330242"><ele>188.4</ele><time>2026-03-24T08:40:37.896Z</time></trkpt><trkpt lat="45.6088547" lon="9.2331338"><ele>188.8</ele><time>2026-03-24T08:40:38.887Z</time></trkpt><trkpt lat="45.6089022" lon="9.2332443"><ele>189.2</ele><time>2026-03-24T08:40:39.883Z</time></trkpt><trkpt lat="45.6089559" lon="9.2333643"><ele>189.6</ele><time>2026-03-24T08:40:40.887Z</time></trkpt><trkpt lat="45.6089986" lon="9.2334809"><ele>190.0</ele><time>2026-03-24T08:40:41.878Z</time></trkpt><trkpt lat="45.6090579" lon="9.2336036"><ele>190.0</ele><time>2026-03-24T08:40:42.895Z</time></trkpt><trkpt lat="45.6091021" lon="9.2337355"><ele>190.0</ele><time>2026-03-24T08:40:43.886Z</time></trkpt><trkpt lat="45.6091385" lon="9.2338614"><ele>190.0</ele><time>2026-03-24T08:40:44.891Z</time></trkpt><trkpt lat="45.6091681" lon="9.2339868"><ele>190.0</ele><time>2026-03-24T08:40:45.883Z</time></trkpt><trkpt lat="45.6092056" lon="9.2341297"><ele>190.0</ele><time>2026-03-24T08:40:46.883Z</time></trkpt><trkpt lat="45.6092358" lon="9.234263"><ele>190.0</ele><time>2026-03-24T08:40:47.884Z</time></trkpt><trkpt lat="45.6092411" lon="9.2343976"><ele>190.0</ele><time>2026-03-24T08:40:48.882Z</time></trkpt><trkpt lat="45.6092554" lon="9.2345219"><ele>190.0</ele><time>2026-03-24T08:40:49.884Z</time></trkpt><trkpt lat="45.6092791" lon="9.2346366"><ele>190.0</ele><time>2026-03-24T08:40:50.878Z</time></trkpt><trkpt lat="45.6092971" lon="9.2347386"><ele>190.0</ele><time>2026-03-24T08:40:51.877Z</time></trkpt><trkpt lat="45.6093314" lon="9.2348382"><ele>190.0</ele><time>2026-03-24T08:40:52.888Z</time></trkpt><trkpt lat="45.6093567" lon="9.2349871"><ele>190.4</ele><time>2026-03-24T08:40:54.885Z</time></trkpt><trkpt lat="45.6093901" lon="9.2351287"><ele>190.8</ele><time>2026-03-24T08:40:56.878Z</time></trkpt><trkpt lat="45.6094186" lon="9.2352153"><ele>191.2</ele><time>2026-03-24T08:40:59.877Z</time></trkpt><trkpt lat="45.6094484" lon="9.2353328"><ele>191.6</ele><time>2026-03-24T08:41:34.875Z</time></trkpt><trkpt lat="45.6094545" lon="9.2354564"><ele>192.0</ele><time>2026-03-24T08:41:36.865Z</time></trkpt><trkpt lat="45.6094416" lon="9.2356141"><ele>192.16666666666666</ele><time>2026-03-24T08:41:38.865Z</time></trkpt><trkpt lat="45.6094297" lon="9.2357834"><ele>192.33333333333331</ele><time>2026-03-24T08:41:40.872Z</time></trkpt><trkpt lat="45.6093864" lon="9.2358544"><ele>192.5</ele><time>2026-03-24T08:41:41.867Z</time></trkpt><trkpt lat="45.6093487" lon="9.235982"><ele>192.66666666666666</ele><time>2026-03-24T08:41:43.879Z</time></trkpt><trkpt lat="45.609264" lon="9.2360116"><ele>192.83333333333331</ele><time>2026-03-24T08:41:45.877Z</time></trkpt><trkpt lat="45.6091892" lon="9.2360112"><ele>193.0</ele><time>2026-03-24T08:41:46.886Z</time></trkpt><trkpt lat="45.6091089" lon="9.2360014"><ele>193.0</ele><time>2026-03-24T08:41:47.874Z</time></trkpt><trkpt lat="45.6090168" lon="9.2359859"><ele>193.0</ele><time>2026-03-24T08:41:48.875Z</time></trkpt><trkpt lat="45.6089397" lon="9.2359888"><ele>193.0</ele><time>2026-03-24T08:41:49.861Z</time></trkpt><trkpt lat="45.6088696" lon="9.2359859"><ele>193.0</ele><time>2026-03-24T08:41:50.865Z</time></trkpt><trkpt lat="45.6087655" lon="9.2360004"><ele>193.0</ele><time>2026-03-24T08:41:51.87Z</time></trkpt><trkpt lat="45.608647" lon="9.2360314"><ele>192.5</ele><time>2026-03-24T08:41:52.864Z</time></trkpt><trkpt lat="45.6085256" lon="9.2360738"><ele>192.0</ele><time>2026-03-24T08:41:53.865Z</time></trkpt><trkpt lat="45.6084207" lon="9.2361289"><ele>191.5</ele><time>2026-03-24T08:41:54.876Z</time></trkpt><trkpt lat="45.608305" lon="9.2361588"><ele>191.0</ele><time>2026-03-24T08:41:55.886Z</time></trkpt><trkpt lat="45.6081563" lon="9.2361813"><ele>191.0</ele><time>2026-03-24T08:41:56.892Z</time></trkpt><trkpt lat="45.6080086" lon="9.236212"><ele>191.0</ele><time>2026-03-24T08:41:57.897Z</time></trkpt><trkpt lat="45.6078751" lon="9.236254"><ele>191.0</ele><time>2026-03-24T08:41:58.897Z</time></trkpt><trkpt lat="45.607734" lon="9.236279"><ele>191.0</ele><time>2026-03-24T08:41:59.899Z</time></trkpt><trkpt lat="45.6076224" lon="9.2362714"><ele>190.8</ele><time>2026-03-24T08:42:00.893Z</time></trkpt><trkpt lat="45.6075179" lon="9.2362928"><ele>190.60000000000002</ele><time>2026-03-24T08:42:01.893Z</time></trkpt><trkpt lat="45.6074322" lon="9.2362945"><ele>190.4</ele><time>2026-03-24T08:42:02.889Z</time></trkpt><trkpt lat="45.6073316" lon="9.2363229"><ele>190.2</ele><time>2026-03-24T08:42:04.889Z</time></trkpt><trkpt lat="45.6072859" lon="9.2364519"><ele>190.0</ele><time>2026-03-24T08:42:06.89Z</time></trkpt><trkpt lat="45.6073206" lon="9.2366333"><ele>190.0</ele><time>2026-03-24T08:42:08.892Z</time></trkpt><trkpt lat="45.6073662" lon="9.2367367"><ele>190.0</ele><time>2026-03-24T08:42:09.894Z</time></trkpt><trkpt lat="45.6074037" lon="9.2368436"><ele>190.0</ele><time>2026-03-24T08:42:10.891Z</time></trkpt><trkpt lat="45.6074624" lon="9.2369749"><ele>190.0</ele><time>2026-03-24T08:42:11.892Z</time></trkpt><trkpt lat="45.607502" lon="9.2371123"><ele>190.0</ele><time>2026-03-24T08:42:12.89Z</time></trkpt><trkpt lat="45.6075471" lon="9.2372589"><ele>189.8</ele><time>2026-03-24T08:42:13.895Z</time></trkpt><trkpt lat="45.6075859" lon="9.2373965"><ele>189.6</ele><time>2026-03-24T08:42:14.888Z</time></trkpt><trkpt lat="45.607625" lon="9.2375352"><ele>189.39999999999998</ele><time>2026-03-24T08:42:15.901Z</time></trkpt><trkpt lat="45.6076515" lon="9.2376613"><ele>189.2</ele><time>2026-03-24T08:42:16.893Z</time></trkpt><trkpt lat="45.6076855" lon="9.2377774"><ele>189.0</ele><time>2026-03-24T08:42:17.893Z</time></trkpt><trkpt lat="45.6077082" lon="9.2378941"><ele>189.0</ele><time>2026-03-24T08:42:18.889Z</time></trkpt><trkpt lat="45.6077287" lon="9.238"><ele>189.0</ele><time>2026-03-24T08:42:19.888Z</time></trkpt><trkpt lat="45.607759" lon="9.238096"><ele>189.0</ele><time>2026-03-24T08:42:20.898Z</time></trkpt><trkpt lat="45.6077805" lon="9.238192"><ele>189.0</ele><time>2026-03-24T08:42:21.893Z</time></trkpt><trkpt lat="45.6078145" lon="9.2383338"><ele>189.0</ele><time>2026-03-24T08:42:23.901Z</time></trkpt><trkpt lat="45.6078454" lon="9.2385152"><ele>189.16666666666666</ele><time>2026-03-24T08:42:25.891Z</time></trkpt><trkpt lat="45.6078672" lon="9.2386027"><ele>189.33333333333334</ele><time>2026-03-24T08:42:26.896Z</time></trkpt><trkpt lat="45.6078749" lon="9.2387508"><ele>189.5</ele><time>2026-03-24T08:42:28.9Z</time></trkpt><trkpt lat="45.6078581" lon="9.2388492"><ele>189.66666666666669</ele><time>2026-03-24T08:42:30.888Z</time></trkpt><trkpt lat="45.6077864" lon="9.2388661"><ele>189.83333333333334</ele><time>2026-03-24T08:42:32.883Z</time></trkpt><trkpt lat="45.6076906" lon="9.2388552"><ele>190.0</ele><time>2026-03-24T08:42:34.887Z</time></trkpt><trkpt lat="45.6076145" lon="9.2388545"><ele>190.0</ele><time>2026-03-24T08:42:35.889Z</time></trkpt><trkpt lat="45.607532" lon="9.2388638"><ele>190.0</ele><time>2026-03-24T08:42:36.88Z</time></trkpt><trkpt lat="45.6074411" lon="9.2388798"><ele>190.0</ele><time>2026-03-24T08:42:37.878Z</time></trkpt><trkpt lat="45.6073399" lon="9.2389054"><ele>190.0</ele><time>2026-03-24T08:42:38.872Z</time></trkpt><trkpt lat="45.6072315" lon="9.238932"><ele>190.0</ele><time>2026-03-24T08:42:39.874Z</time></trkpt><trkpt lat="45.6071212" lon="9.2389552"><ele>190.0</ele><time>2026-03-24T08:42:40.878Z</time></trkpt><trkpt lat="45.6070136" lon="9.2389783"><ele>190.0</ele><time>2026-03-24T08:42:41.879Z</time></trkpt><trkpt lat="45.606949" lon="9.2389896"><ele>190.0</ele><time>2026-03-24T08:42:42.881Z</time></trkpt><trkpt lat="45.606829" lon="9.2390174"><ele>190.0</ele><time>2026-03-24T08:42:44.888Z</time></trkpt><trkpt lat="45.6067252" lon="9.2390185"><ele>190.0</ele><time>2026-03-24T08:42:46.908Z</time></trkpt><trkpt lat="45.6066076" lon="9.2390538"><ele>189.6</ele><time>2026-03-24T08:42:48.879Z</time></trkpt><trkpt lat="45.6065364" lon="9.2391857"><ele>189.2</ele><time>2026-03-24T08:42:50.874Z</time></trkpt><trkpt lat="45.6065597" lon="9.2392943"><ele>188.8</ele><time>2026-03-24T08:42:51.88Z</time></trkpt><trkpt lat="45.6066059" lon="9.2394029"><ele>188.4</ele><time>2026-03-24T08:42:52.877Z</time></trkpt><trkpt lat="45.606664" lon="9.23955"><ele>188.0</ele><time>2026-03-24T08:42:53.876Z</time></trkpt><trkpt lat="45.6067352" lon="9.2397436"><ele>188.25</ele><time>2026-03-24T08:42:54.876Z</time></trkpt><trkpt lat="45.6067817" lon="9.2399256"><ele>188.5</ele><time>2026-03-24T08:42:55.873Z</time></trkpt><trkpt lat="45.6068266" lon="9.2401018"><ele>188.75</ele><time>2026-03-24T08:42:56.874Z</time></trkpt><trkpt lat="45.6068553" lon="9.2402488"><ele>189.0</ele><time>2026-03-24T08:42:57.878Z</time></trkpt><trkpt lat="45.6068985" lon="9.2403941"><ele>189.0</ele><time>2026-03-24T08:42:58.875Z</time></trkpt><trkpt lat="45.6069497" lon="9.240531"><ele>189.0</ele><time>2026-03-24T08:42:59.867Z</time></trkpt><trkpt lat="45.6070104" lon="9.2406817"><ele>189.0</ele><time>2026-03-24T08:43:00.869Z</time></trkpt><trkpt lat="45.6070533" lon="9.2408343"><ele>189.0</ele><time>2026-03-24T08:43:01.874Z</time></trkpt><trkpt lat="45.6070906" lon="9.2409713"><ele>189.0</ele><time>2026-03-24T08:43:02.867Z</time></trkpt><trkpt lat="45.6071151" lon="9.2411077"><ele>189.5</ele><time>2026-03-24T08:43:03.876Z</time></trkpt><trkpt lat="45.6071494" lon="9.2412507"><ele>190.0</ele><time>2026-03-24T08:43:04.877Z</time></trkpt><trkpt lat="45.6071875" lon="9.2414055"><ele>190.5</ele><time>2026-03-24T08:43:05.872Z</time></trkpt><trkpt lat="45.6072541" lon="9.2415696"><ele>191.0</ele><time>2026-03-24T08:43:06.867Z</time></trkpt><trkpt lat="45.607294" lon="9.241732"><ele>191.0</ele><time>2026-03-24T08:43:07.877Z</time></trkpt><trkpt lat="45.6073411" lon="9.2418831"><ele>191.0</ele><time>2026-03-24T08:43:08.869Z</time></trkpt><trkpt lat="45.6073917" lon="9.2420426"><ele>191.0</ele><time>2026-03-24T08:43:09.877Z</time></trkpt><trkpt lat="45.6074309" lon="9.2422112"><ele>191.0</ele><time>2026-03-24T08:43:10.876Z</time></trkpt><trkpt lat="45.6074857" lon="9.2423957"><ele>191.0</ele><time>2026-03-24T08:43:11.875Z</time></trkpt><trkpt lat="45.6075228" lon="9.2425726"><ele>191.0</ele><time>2026-03-24T08:43:12.873Z</time></trkpt><trkpt lat="45.6075607" lon="9.242739"><ele>191.0</ele><time>2026-03-24T08:43:13.876Z</time></trkpt><trkpt lat="45.6075791" lon="9.2428995"><ele>191.0</ele><time>2026-03-24T08:43:14.876Z</time></trkpt><trkpt lat="45.6076009" lon="9.2430477"><ele>190.75</ele><time>2026-03-24T08:43:15.873Z</time></trkpt><trkpt lat="45.6076454" lon="9.2432015"><ele>190.5</ele><time>2026-03-24T08:43:16.884Z</time></trkpt><trkpt lat="45.6076832" lon="9.2433505"><ele>190.25</ele><time>2026-03-24T08:43:17.899Z</time></trkpt><trkpt lat="45.6077394" lon="9.2434945"><ele>190.0</ele><time>2026-03-24T08:43:18.879Z</time></trkpt><trkpt lat="45.6077885" lon="9.2436447"><ele>190.0</ele><time>2026-03-24T08:43:19.878Z</time></trkpt><trkpt lat="45.6078399" lon="9.2438005"><ele>190.0</ele><time>2026-03-24T08:43:20.871Z</time></trkpt><trkpt lat="45.6078754" lon="9.243959"><ele>190.0</ele><time>2026-03-24T08:43:21.866Z</time></trkpt><trkpt lat="45.607903" lon="9.2441139"><ele>190.0</ele><time>2026-03-24T08:43:22.869Z</time></trkpt><trkpt lat="45.6079296" lon="9.2442534"><ele>190.0</ele><time>2026-03-24T08:43:23.869Z</time></trkpt><trkpt lat="45.6079445" lon="9.2443716"><ele>190.0</ele><time>2026-03-24T08:43:24.875Z</time></trkpt><trkpt lat="45.6079789" lon="9.2444681"><ele>190.0</ele><time>2026-03-24T08:43:25.883Z</time></trkpt><trkpt lat="45.6080235" lon="9.2445508"><ele>190.0</ele><time>2026-03-24T08:43:26.874Z</time></trkpt><trkpt lat="45.6080682" lon="9.2446688"><ele>190.0</ele><time>2026-03-24T08:43:28.886Z</time></trkpt><trkpt lat="45.6080882" lon="9.2447936"><ele>190.0</ele><time>2026-03-24T08:43:48.912Z</time></trkpt><trkpt lat="45.6080552" lon="9.2449002"><ele>189.6</ele><time>2026-03-24T08:43:50.892Z</time></trkpt><trkpt lat="45.6079927" lon="9.24494"><ele>189.2</ele><time>2026-03-24T08:43:51.891Z</time></trkpt><trkpt lat="45.607914" lon="9.2449549"><ele>188.8</ele><time>2026-03-24T08:43:52.901Z</time></trkpt><trkpt lat="45.6078445" lon="9.2449723"><ele>188.4</ele><time>2026-03-24T08:43:53.901Z</time></trkpt><trkpt lat="45.6077106" lon="9.2450647"><ele>188.0</ele><time>2026-03-24T08:43:55.888Z</time></trkpt><trkpt lat="45.6075982" lon="9.2451323"><ele>188.0</ele><time>2026-03-24T08:43:56.89Z</time></trkpt><trkpt lat="45.6074634" lon="9.2452107"><ele>188.0</ele><time>2026-03-24T08:43:57.875Z</time></trkpt><trkpt lat="45.6072914" lon="9.2453045"><ele>188.0</ele><time>2026-03-24T08:43:58.884Z</time></trkpt><trkpt lat="45.6071187" lon="9.2454169"><ele>187.66666666666666</ele><time>2026-03-24T08:43:59.884Z</time></trkpt><trkpt lat="45.6069273" lon="9.2455411"><ele>187.33333333333334</ele><time>2026-03-24T08:44:00.88Z</time></trkpt><trkpt lat="45.6067733" lon="9.2456544"><ele>187.0</ele><time>2026-03-24T08:44:01.875Z</time></trkpt><trkpt lat="45.6065869" lon="9.2457276"><ele>187.0</ele><time>2026-03-24T08:44:02.871Z</time></trkpt><trkpt lat="45.6063812" lon="9.2458086"><ele>187.0</ele><time>2026-03-24T08:44:03.877Z</time></trkpt><trkpt lat="45.6062713" lon="9.2459022"><ele>187.0</ele><time>2026-03-24T08:44:04.884Z</time></trkpt><trkpt lat="45.6061101" lon="9.2459789"><ele>187.5</ele><time>2026-03-24T08:44:05.899Z</time></trkpt><trkpt lat="45.6059939" lon="9.2460614"><ele>188.0</ele><time>2026-03-24T08:44:06.888Z</time></trkpt><trkpt lat="45.6058523" lon="9.2461765"><ele>188.5</ele><time>2026-03-24T08:44:07.883Z</time></trkpt><trkpt lat="45.6057283" lon="9.2462607"><ele>189.0</ele><time>2026-03-24T08:44:08.88Z</time></trkpt><trkpt lat="45.6055614" lon="9.2463588"><ele>189.0</ele><time>2026-03-24T08:44:09.873Z</time></trkpt><trkpt lat="45.6054245" lon="9.2464187"><ele>189.0</ele><time>2026-03-24T08:44:10.885Z</time></trkpt><trkpt lat="45.605325" lon="9.246499"><ele>189.0</ele><time>2026-03-24T08:44:11.884Z</time></trkpt><trkpt lat="45.6051933" lon="9.246579"><ele>189.0</ele><time>2026-03-24T08:44:12.891Z</time></trkpt><trkpt lat="45.6050636" lon="9.2466777"><ele>188.0</ele><time>2026-03-24T08:44:14.889Z</time></trkpt><trkpt lat="45.6049616" lon="9.2467272"><ele>187.0</ele><time>2026-03-24T08:44:15.895Z</time></trkpt><trkpt lat="45.6048522" lon="9.2467824"><ele>186.0</ele><time>2026-03-24T08:44:16.902Z</time></trkpt><trkpt lat="45.6047511" lon="9.2468467"><ele>185.0</ele><time>2026-03-24T08:44:17.898Z</time></trkpt><trkpt lat="45.6046394" lon="9.2469108"><ele>185.0</ele><time>2026-03-24T08:44:18.894Z</time></trkpt><trkpt lat="45.6045297" lon="9.2469762"><ele>185.0</ele><time>2026-03-24T08:44:19.918Z</time></trkpt><trkpt lat="45.6044201" lon="9.2470354"><ele>185.0</ele><time>2026-03-24T08:44:20.899Z</time></trkpt><trkpt lat="45.6043376" lon="9.2470726"><ele>185.0</ele><time>2026-03-24T08:44:21.909Z</time></trkpt><trkpt lat="45.6042521" lon="9.2471218"><ele>185.0</ele><time>2026-03-24T08:44:22.906Z</time></trkpt><trkpt lat="45.6041627" lon="9.2471743"><ele>185.0</ele><time>2026-03-24T08:44:23.905Z</time></trkpt><trkpt lat="45.6040641" lon="9.2472184"><ele>185.0</ele><time>2026-03-24T08:44:24.905Z</time></trkpt><trkpt lat="45.6039464" lon="9.2472713"><ele>185.0</ele><time>2026-03-24T08:44:25.898Z</time></trkpt><trkpt lat="45.6038192" lon="9.2473509"><ele>185.0</ele><time>2026-03-24T08:44:26.905Z</time></trkpt><trkpt lat="45.6036831" lon="9.2474351"><ele>184.66666666666666</ele><time>2026-03-24T08:44:27.895Z</time></trkpt><trkpt lat="45.6035485" lon="9.2475149"><ele>184.33333333333334</ele><time>2026-03-24T08:44:28.898Z</time></trkpt><trkpt lat="45.6033894" lon="9.247628"><ele>184.0</ele><time>2026-03-24T08:44:29.904Z</time></trkpt><trkpt lat="45.6032496" lon="9.2477114"><ele>184.0</ele><time>2026-03-24T08:44:30.902Z</time></trkpt><trkpt lat="45.6031363" lon="9.2477663"><ele>184.0</ele><time>2026-03-24T08:44:31.906Z</time></trkpt><trkpt lat="45.6029978" lon="9.2478252"><ele>184.0</ele><time>2026-03-24T08:44:32.914Z</time></trkpt><trkpt lat="45.6028794" lon="9.2478387"><ele>184.0</ele><time>2026-03-24T08:44:33.902Z</time></trkpt><trkpt lat="45.6027931" lon="9.2478676"><ele>183.75</ele><time>2026-03-24T08:44:34.906Z</time></trkpt><trkpt lat="45.6026796" lon="9.2478691"><ele>183.5</ele><time>2026-03-24T08:44:35.895Z</time></trkpt><trkpt lat="45.6025351" lon="9.2478712"><ele>183.25</ele><time>2026-03-24T08:44:36.899Z</time></trkpt><trkpt lat="45.6024531" lon="9.2479519"><ele>183.0</ele><time>2026-03-24T08:44:38.893Z</time></trkpt><trkpt lat="45.6023956" lon="9.2480608"><ele>183.0</ele><time>2026-03-24T08:44:40.882Z</time></trkpt><trkpt lat="45.6024518" lon="9.2482313"><ele>183.0</ele><time>2026-03-24T08:44:42.896Z</time></trkpt><trkpt lat="45.6024819" lon="9.2483611"><ele>183.0</ele><time>2026-03-24T08:44:43.898Z</time></trkpt><trkpt lat="45.6025144" lon="9.2485108"><ele>183.0</ele><time>2026-03-24T08:44:44.897Z</time></trkpt><trkpt lat="45.6025438" lon="9.2486646"><ele>183.0</ele><time>2026-03-24T08:44:45.891Z</time></trkpt><trkpt lat="45.6025811" lon="9.2488214"><ele>183.0</ele><time>2026-03-24T08:44:46.887Z</time></trkpt><trkpt lat="45.6026092" lon="9.2489487"><ele>183.0</ele><time>2026-03-24T08:44:47.901Z</time></trkpt><trkpt lat="45.6026212" lon="9.2490469"><ele>183.0</ele><time>2026-03-24T08:44:48.896Z</time></trkpt><trkpt lat="45.60263" lon="9.2492027"><ele>183.0</ele><time>2026-03-24T08:44:50.906Z</time></trkpt><trkpt lat="45.6026323" lon="9.2493012"><ele>183.0</ele><time>2026-03-24T08:44:53.9Z</time></trkpt><trkpt lat="45.6026426" lon="9.2494161"><ele>183.0</ele><time>2026-03-24T08:44:56.894Z</time></trkpt><trkpt lat="45.6026662" lon="9.2495341"><ele>182.8</ele><time>2026-03-24T08:44:58.89Z</time></trkpt><trkpt lat="45.6027014" lon="9.2497043"><ele>182.60000000000002</ele><time>2026-03-24T08:45:00.868Z</time></trkpt><trkpt lat="45.6026926" lon="9.2497966"><ele>182.39999999999998</ele><time>2026-03-24T08:45:01.866Z</time></trkpt><trkpt lat="45.6026823" lon="9.2498888"><ele>182.2</ele><time>2026-03-24T08:45:02.866Z</time></trkpt><trkpt lat="45.6026744" lon="9.2500357"><ele>182.0</ele><time>2026-03-24T08:45:04.864Z</time></trkpt><trkpt lat="45.6026829" lon="9.2502124"><ele>182.0</ele><time>2026-03-24T08:45:06.868Z</time></trkpt><trkpt lat="45.6026871" lon="9.2503676"><ele>182.0</ele><time>2026-03-24T08:45:08.872Z</time></trkpt><trkpt lat="45.6026898" lon="9.250546"><ele>182.0</ele><time>2026-03-24T08:45:10.87Z</time></trkpt><trkpt lat="45.6026972" lon="9.2506394"><ele>182.0</ele><time>2026-03-24T08:45:11.875Z</time></trkpt><trkpt lat="45.6027036" lon="9.2507385"><ele>182.0</ele><time>2026-03-24T08:45:12.873Z</time></trkpt><trkpt lat="45.6027025" lon="9.2508324"><ele>182.0</ele><time>2026-03-24T08:45:13.874Z</time></trkpt><trkpt lat="45.6027059" lon="9.2509513"><ele>182.0</ele><time>2026-03-24T08:45:15.862Z</time></trkpt><trkpt lat="45.6027362" lon="9.2510755"><ele>182.0</ele><time>2026-03-24T08:45:18.871Z</time></trkpt><trkpt lat="45.6027483" lon="9.2512219"><ele>182.0</ele><time>2026-03-24T08:45:20.869Z</time></trkpt><trkpt lat="45.6027515" lon="9.2513673"><ele>182.0</ele><time>2026-03-24T08:45:22.875Z</time></trkpt><trkpt lat="45.6027377" lon="9.2515357"><ele>182.0</ele><time>2026-03-24T08:45:24.87Z</time></trkpt><trkpt lat="45.6027419" lon="9.2516937"><ele>182.0</ele><time>2026-03-24T08:45:26.868Z</time></trkpt><trkpt lat="45.6027336" lon="9.2518415"><ele>182.0</ele><time>2026-03-24T08:45:28.865Z</time></trkpt><trkpt lat="45.6027429" lon="9.2519705"><ele>182.0</ele><time>2026-03-24T08:45:30.868Z</time></trkpt><trkpt lat="45.6027247" lon="9.2521109"><ele>182.0</ele><time>2026-03-24T08:45:32.867Z</time></trkpt><trkpt lat="45.6026736" lon="9.2522424"><ele>182.0</ele><time>2026-03-24T08:45:34.872Z</time></trkpt><trkpt lat="45.6026221" lon="9.2523303"><ele>181.83333333333331</ele><time>2026-03-24T08:45:36.868Z</time></trkpt><trkpt lat="45.6025433" lon="9.2524581"><ele>181.66666666666666</ele><time>2026-03-24T08:45:38.881Z</time></trkpt><trkpt lat="45.6024852" lon="9.2525271"><ele>181.5</ele><time>2026-03-24T08:45:39.883Z</time></trkpt><trkpt lat="45.602406" lon="9.2525805"><ele>181.33333333333334</ele><time>2026-03-24T08:45:40.878Z</time></trkpt><trkpt lat="45.6023427" lon="9.2526277"><ele>181.16666666666669</ele><time>2026-03-24T08:45:41.88Z</time></trkpt><trkpt lat="45.6022588" lon="9.2526849"><ele>181.0</ele><time>2026-03-24T08:45:43.873Z</time></trkpt><trkpt lat="45.6022225" lon="9.2527804"><ele>181.0</ele><time>2026-03-24T08:45:52.901Z</time></trkpt><trkpt lat="45.6022686" lon="9.252887"><ele>181.0</ele><time>2026-03-24T08:45:54.88Z</time></trkpt><trkpt lat="45.602314" lon="9.2529518"><ele>181.0</ele><time>2026-03-24T08:45:55.868Z</time></trkpt><trkpt lat="45.6023518" lon="9.2530436"><ele>181.0</ele><time>2026-03-24T08:45:56.869Z</time></trkpt><trkpt lat="45.602395" lon="9.2531594"><ele>181.0</ele><time>2026-03-24T08:45:57.871Z</time></trkpt><trkpt lat="45.6024388" lon="9.2532985"><ele>181.0</ele><time>2026-03-24T08:45:58.877Z</time></trkpt><trkpt lat="45.6024806" lon="9.2534619"><ele>181.33333333333334</ele><time>2026-03-24T08:45:59.867Z</time></trkpt><trkpt lat="45.6025248" lon="9.2536571"><ele>181.66666666666666</ele><time>2026-03-24T08:46:00.857Z</time></trkpt><trkpt lat="45.6025887" lon="9.2538698"><ele>182.0</ele><time>2026-03-24T08:46:01.871Z</time></trkpt><trkpt lat="45.602637" lon="9.2541166"><ele>182.0</ele><time>2026-03-24T08:46:02.869Z</time></trkpt><trkpt lat="45.6026806" lon="9.2543141"><ele>182.0</ele><time>2026-03-24T08:46:03.87Z</time></trkpt><trkpt lat="45.6027472" lon="9.2545339"><ele>182.0</ele><time>2026-03-24T08:46:04.871Z</time></trkpt><trkpt lat="45.6027855" lon="9.2547669"><ele>182.0</ele><time>2026-03-24T08:46:05.876Z</time></trkpt><trkpt lat="45.6028012" lon="9.2550072"><ele>182.0</ele><time>2026-03-24T08:46:06.874Z</time></trkpt><trkpt lat="45.6028261" lon="9.2551926"><ele>182.0</ele><time>2026-03-24T08:46:07.876Z</time></trkpt><trkpt lat="45.6028839" lon="9.255376"><ele>182.0</ele><time>2026-03-24T08:46:08.875Z</time></trkpt><trkpt lat="45.6029036" lon="9.2555452"><ele>181.8</ele><time>2026-03-24T08:46:09.874Z</time></trkpt><trkpt lat="45.6029295" lon="9.2557042"><ele>181.6</ele><time>2026-03-24T08:46:10.875Z</time></trkpt><trkpt lat="45.6029603" lon="9.255833"><ele>181.4</ele><time>2026-03-24T08:46:11.88Z</time></trkpt><trkpt lat="45.6029876" lon="9.2559676"><ele>181.20000000000002</ele><time>2026-03-24T08:46:12.879Z</time></trkpt><trkpt lat="45.6029982" lon="9.2560954"><ele>181.0</ele><time>2026-03-24T08:46:13.884Z</time></trkpt><trkpt lat="45.6030061" lon="9.2562234"><ele>181.0</ele><time>2026-03-24T08:46:14.874Z</time></trkpt><trkpt lat="45.6030285" lon="9.2563268"><ele>181.0</ele><time>2026-03-24T08:46:15.874Z</time></trkpt><trkpt lat="45.6030631" lon="9.256415"><ele>181.0</ele><time>2026-03-24T08:46:16.879Z</time></trkpt><trkpt lat="45.603115" lon="9.2564839"><ele>181.0</ele><time>2026-03-24T08:46:17.882Z</time></trkpt><trkpt lat="45.6031915" lon="9.2565805"><ele>181.0</ele><time>2026-03-24T08:46:19.884Z</time></trkpt><trkpt lat="45.6032182" lon="9.2567244"><ele>181.0</ele><time>2026-03-24T08:46:21.885Z</time></trkpt><trkpt lat="45.603172" lon="9.2568075"><ele>180.8</ele><time>2026-03-24T08:46:22.88Z</time></trkpt><trkpt lat="45.6031355" lon="9.2568857"><ele>180.60000000000002</ele><time>2026-03-24T08:46:23.892Z</time></trkpt><trkpt lat="45.603039" lon="9.2569296"><ele>180.4</ele><time>2026-03-24T08:46:25.88Z</time></trkpt><trkpt lat="45.602958" lon="9.2569839"><ele>180.2</ele><time>2026-03-24T08:46:34.864Z</time></trkpt><trkpt lat="45.6028317" lon="9.2570498"><ele>180.0</ele><time>2026-03-24T08:46:36.859Z</time></trkpt><trkpt lat="45.6027484" lon="9.2570938"><ele>180.0</ele><time>2026-03-24T08:46:37.87Z</time></trkpt><trkpt lat="45.6026535" lon="9.25715"><ele>180.0</ele><time>2026-03-24T08:46:38.867Z</time></trkpt><trkpt lat="45.6025733" lon="9.2572207"><ele>180.0</ele><time>2026-03-24T08:46:39.87Z</time></trkpt><trkpt lat="45.6024903" lon="9.2572819"><ele>180.0</ele><time>2026-03-24T08:46:40.87Z</time></trkpt><trkpt lat="45.6024149" lon="9.2573372"><ele>180.0</ele><time>2026-03-24T08:46:41.872Z</time></trkpt><trkpt lat="45.6023448" lon="9.2573806"><ele>180.16666666666666</ele><time>2026-03-24T08:46:42.871Z</time></trkpt><trkpt lat="45.6022684" lon="9.2574178"><ele>180.33333333333334</ele><time>2026-03-24T08:46:43.88Z</time></trkpt><trkpt lat="45.6021908" lon="9.257429"><ele>180.5</ele><time>2026-03-24T08:46:44.873Z</time></trkpt><trkpt lat="45.6020999" lon="9.2574123"><ele>180.66666666666669</ele><time>2026-03-24T08:46:45.881Z</time></trkpt><trkpt lat="45.6020103" lon="9.2573736"><ele>180.83333333333334</ele><time>2026-03-24T08:46:46.881Z</time></trkpt><trkpt lat="45.6019119" lon="9.2573264"><ele>181.0</ele><time>2026-03-24T08:46:47.874Z</time></trkpt><trkpt lat="45.6018086" lon="9.2572827"><ele>181.0</ele><time>2026-03-24T08:46:48.88Z</time></trkpt><trkpt lat="45.6016895" lon="9.2572379"><ele>181.0</ele><time>2026-03-24T08:46:49.863Z</time></trkpt><trkpt lat="45.6015757" lon="9.2572117"><ele>181.0</ele><time>2026-03-24T08:46:50.857Z</time></trkpt><trkpt lat="45.6014594" lon="9.257206"><ele>181.0</ele><time>2026-03-24T08:46:51.869Z</time></trkpt><trkpt lat="45.6013403" lon="9.2572459"><ele>181.0</ele><time>2026-03-24T08:46:52.87Z</time></trkpt><trkpt lat="45.6012141" lon="9.2572831"><ele>181.0</ele><time>2026-03-24T08:46:53.885Z</time></trkpt><trkpt lat="45.6010867" lon="9.2573504"><ele>181.0</ele><time>2026-03-24T08:46:54.892Z</time></trkpt><trkpt lat="45.6009747" lon="9.2573988"><ele>181.0</ele><time>2026-03-24T08:46:55.873Z</time></trkpt><trkpt lat="45.6008612" lon="9.2574513"><ele>180.75</ele><time>2026-03-24T08:46:56.883Z</time></trkpt><trkpt lat="45.6007347" lon="9.2574952"><ele>180.5</ele><time>2026-03-24T08:46:57.873Z</time></trkpt><trkpt lat="45.6006189" lon="9.2575315"><ele>180.25</ele><time>2026-03-24T08:46:58.879Z</time></trkpt><trkpt lat="45.600504" lon="9.2575708"><ele>180.0</ele><time>2026-03-24T08:46:59.888Z</time></trkpt><trkpt lat="45.6004076" lon="9.2576016"><ele>179.83333333333334</ele><time>2026-03-24T08:47:00.884Z</time></trkpt><trkpt lat="45.6003291" lon="9.2576392"><ele>179.66666666666666</ele><time>2026-03-24T08:47:01.882Z</time></trkpt><trkpt lat="45.6002595" lon="9.257715"><ele>179.5</ele><time>2026-03-24T08:47:02.88Z</time></trkpt><trkpt lat="45.6002145" lon="9.2578026"><ele>179.33333333333331</ele><time>2026-03-24T08:47:03.884Z</time></trkpt><trkpt lat="45.6001836" lon="9.2578943"><ele>179.16666666666666</ele><time>2026-03-24T08:47:04.883Z</time></trkpt><trkpt lat="45.600169" lon="9.2580267"><ele>179.0</ele><time>2026-03-24T08:47:06.885Z</time></trkpt><trkpt lat="45.6001549" lon="9.2581266"><ele>178.79999999999998</ele><time>2026-03-24T08:47:08.885Z</time></trkpt><trkpt lat="45.6001108" lon="9.2582605"><ele>178.6</ele><time>2026-03-24T08:47:10.888Z</time></trkpt><trkpt lat="45.6001455" lon="9.2584156"><ele>178.4</ele><time>2026-03-24T08:47:12.892Z</time></trkpt><trkpt lat="45.6001959" lon="9.2585684"><ele>178.2</ele><time>2026-03-24T08:47:14.89Z</time></trkpt><trkpt lat="45.6002207" lon="9.2586676"><ele>178.0</ele><time>2026-03-24T08:47:15.89Z</time></trkpt><trkpt lat="45.6002557" lon="9.2587798"><ele>178.0</ele><time>2026-03-24T08:47:16.897Z</time></trkpt><trkpt lat="45.6002956" lon="9.258907"><ele>178.0</ele><time>2026-03-24T08:47:17.885Z</time></trkpt><trkpt lat="45.6003261" lon="9.2590198"><ele>178.0</ele><time>2026-03-24T08:47:18.886Z</time></trkpt><trkpt lat="45.6003436" lon="9.2591136"><ele>178.0</ele><time>2026-03-24T08:47:19.88Z</time></trkpt><trkpt lat="45.6003679" lon="9.2592032"><ele>178.0</ele><time>2026-03-24T08:47:20.877Z</time></trkpt><trkpt lat="45.6003957" lon="9.2593465"><ele>178.0</ele><time>2026-03-24T08:47:22.878Z</time></trkpt><trkpt lat="45.6004121" lon="9.2594682"><ele>178.0</ele><time>2026-03-24T08:47:24.888Z</time></trkpt><trkpt lat="45.6004247" lon="9.2595775"><ele>178.0</ele><time>2026-03-24T08:47:26.885Z</time></trkpt><trkpt lat="45.6004394" lon="9.259692"><ele>178.0</ele><time>2026-03-24T08:47:39.889Z</time></trkpt><trkpt lat="45.6004404" lon="9.2597951"><ele>178.0</ele><time>2026-03-24T08:47:41.881Z</time></trkpt><trkpt lat="45.6004482" lon="9.259902"><ele>178.0</ele><time>2026-03-24T08:47:42.871Z</time></trkpt><trkpt lat="45.6004487" lon="9.2600576"><ele>178.0</ele><time>2026-03-24T08:47:43.877Z</time></trkpt><trkpt lat="45.6004173" lon="9.2602253"><ele>178.0</ele><time>2026-03-24T08:47:44.876Z</time></trkpt><trkpt lat="45.6004211" lon="9.2603753"><ele>178.0</ele><time>2026-03-24T08:47:45.879Z</time></trkpt><trkpt lat="45.600436" lon="9.2605184"><ele>178.0</ele><time>2026-03-24T08:47:46.877Z</time></trkpt><trkpt lat="45.6004559" lon="9.2606472"><ele>178.0</ele><time>2026-03-24T08:47:47.874Z</time></trkpt><trkpt lat="45.6004845" lon="9.2607507"><ele>178.0</ele><time>2026-03-24T08:47:48.877Z</time></trkpt><trkpt lat="45.6005292" lon="9.2608636"><ele>178.0</ele><time>2026-03-24T08:47:50.88Z</time></trkpt><trkpt lat="45.6005453" lon="9.2609599"><ele>178.0</ele><time>2026-03-24T08:48:21.899Z</time></trkpt><trkpt lat="45.600545" lon="9.2610749"><ele>178.0</ele><time>2026-03-24T08:48:24.899Z</time></trkpt><trkpt lat="45.6005542" lon="9.2612037"><ele>178.0</ele><time>2026-03-24T08:48:27.913Z</time></trkpt><trkpt lat="45.6005716" lon="9.2613149"><ele>178.0</ele><time>2026-03-24T08:48:28.893Z</time></trkpt><trkpt lat="45.6005833" lon="9.2614507"><ele>178.0</ele><time>2026-03-24T08:48:29.897Z</time></trkpt><trkpt lat="45.6006203" lon="9.2615928"><ele>178.5</ele><time>2026-03-24T08:48:30.897Z</time></trkpt><trkpt lat="45.6006727" lon="9.2617348"><ele>179.0</ele><time>2026-03-24T08:48:31.895Z</time></trkpt><trkpt lat="45.6007402" lon="9.2618878"><ele>179.5</ele><time>2026-03-24T08:48:32.893Z</time></trkpt><trkpt lat="45.6008188" lon="9.262047"><ele>180.0</ele><time>2026-03-24T08:48:33.897Z</time></trkpt><trkpt lat="45.6008989" lon="9.2622112"><ele>180.25</ele><time>2026-03-24T08:48:34.9Z</time></trkpt><trkpt lat="45.6009747" lon="9.2623809"><ele>180.5</ele><time>2026-03-24T08:48:35.899Z</time></trkpt><trkpt lat="45.6010587" lon="9.2625396"><ele>180.75</ele><time>2026-03-24T08:48:36.9Z</time></trkpt><trkpt lat="45.6011601" lon="9.2627142"><ele>181.0</ele><time>2026-03-24T08:48:37.891Z</time></trkpt><trkpt lat="45.6012372" lon="9.2628911"><ele>181.0</ele><time>2026-03-24T08:48:38.899Z</time></trkpt><trkpt lat="45.6013095" lon="9.2630448"><ele>181.0</ele><time>2026-03-24T08:48:39.901Z</time></trkpt><trkpt lat="45.6013466" lon="9.2632272"><ele>181.0</ele><time>2026-03-24T08:48:40.896Z</time></trkpt><trkpt lat="45.6013963" lon="9.2634168"><ele>181.0</ele><time>2026-03-24T08:48:41.899Z</time></trkpt><trkpt lat="45.6014163" lon="9.2636074"><ele>180.83333333333334</ele><time>2026-03-24T08:48:42.891Z</time></trkpt><trkpt lat="45.6014113" lon="9.2637555"><ele>180.66666666666669</ele><time>2026-03-24T08:48:43.896Z</time></trkpt><trkpt lat="45.6013913" lon="9.2638851"><ele>180.5</ele><time>2026-03-24T08:48:44.88Z</time></trkpt><trkpt lat="45.6013898" lon="9.2639923"><ele>180.33333333333334</ele><time>2026-03-24T08:48:45.868Z</time></trkpt><trkpt lat="45.6014062" lon="9.2641022"><ele>180.16666666666666</ele><time>2026-03-24T08:48:46.888Z</time></trkpt><trkpt lat="45.6014158" lon="9.2642144"><ele>180.0</ele><time>2026-03-24T08:48:47.882Z</time></trkpt><trkpt lat="45.6014259" lon="9.2643342"><ele>180.5</ele><time>2026-03-24T08:48:48.892Z</time></trkpt><trkpt lat="45.6014412" lon="9.2644485"><ele>181.0</ele><time>2026-03-24T08:48:49.89Z</time></trkpt><trkpt lat="45.601461" lon="9.2645556"><ele>181.5</ele><time>2026-03-24T08:48:50.894Z</time></trkpt><trkpt lat="45.6014751" lon="9.2646792"><ele>182.0</ele><time>2026-03-24T08:48:51.884Z</time></trkpt><trkpt lat="45.6015028" lon="9.2648045"><ele>182.5</ele><time>2026-03-24T08:48:52.885Z</time></trkpt><trkpt lat="45.6015367" lon="9.2649258"><ele>183.0</ele><time>2026-03-24T08:48:53.881Z</time></trkpt><trkpt lat="45.6015635" lon="9.2650525"><ele>183.4</ele><time>2026-03-24T08:48:54.886Z</time></trkpt><trkpt lat="45.6015953" lon="9.2651974"><ele>183.8</ele><time>2026-03-24T08:48:55.88Z</time></trkpt><trkpt lat="45.6016407" lon="9.2653529"><ele>184.2</ele><time>2026-03-24T08:48:56.888Z</time></trkpt><trkpt lat="45.6016697" lon="9.2655046"><ele>184.6</ele><time>2026-03-24T08:48:57.901Z</time></trkpt><trkpt lat="45.6017009" lon="9.2656532"><ele>185.0</ele><time>2026-03-24T08:48:58.887Z</time></trkpt><trkpt lat="45.601725" lon="9.2658139"><ele>185.0</ele><time>2026-03-24T08:48:59.89Z</time></trkpt><trkpt lat="45.6017476" lon="9.2659608"><ele>185.0</ele><time>2026-03-24T08:49:00.885Z</time></trkpt><trkpt lat="45.6017525" lon="9.266089"><ele>185.0</ele><time>2026-03-24T08:49:01.876Z</time></trkpt><trkpt lat="45.6017657" lon="9.2662007"><ele>185.0</ele><time>2026-03-24T08:49:02.879Z</time></trkpt><trkpt lat="45.601772" lon="9.2663062"><ele>185.0</ele><time>2026-03-24T08:49:03.886Z</time></trkpt><trkpt lat="45.6017946" lon="9.266398"><ele>185.0</ele><time>2026-03-24T08:49:04.881Z</time></trkpt><trkpt lat="45.6018105" lon="9.2665857"><ele>185.6</ele><time>2026-03-24T08:49:06.882Z</time></trkpt><trkpt lat="45.6018203" lon="9.2666985"><ele>186.2</ele><time>2026-03-24T08:49:07.87Z</time></trkpt><trkpt lat="45.6018517" lon="9.2668404"><ele>186.8</ele><time>2026-03-24T08:49:08.875Z</time></trkpt><trkpt lat="45.6018836" lon="9.26699"><ele>187.4</ele><time>2026-03-24T08:49:09.866Z</time></trkpt><trkpt lat="45.6019184" lon="9.2671336"><ele>188.0</ele><time>2026-03-24T08:49:10.868Z</time></trkpt><trkpt lat="45.6019532" lon="9.2672833"><ele>188.25</ele><time>2026-03-24T08:49:11.867Z</time></trkpt><trkpt lat="45.6019842" lon="9.2674368"><ele>188.5</ele><time>2026-03-24T08:49:12.879Z</time></trkpt><trkpt lat="45.6020235" lon="9.267602"><ele>188.75</ele><time>2026-03-24T08:49:13.87Z</time></trkpt><trkpt lat="45.6020701" lon="9.267766"><ele>189.0</ele><time>2026-03-24T08:49:14.875Z</time></trkpt><trkpt lat="45.6021033" lon="9.2679189"><ele>189.0</ele><time>2026-03-24T08:49:15.871Z</time></trkpt><trkpt lat="45.6021203" lon="9.2680255"><ele>189.0</ele><time>2026-03-24T08:49:16.877Z</time></trkpt><trkpt lat="45.6021483" lon="9.2681508"><ele>189.0</ele><time>2026-03-24T08:49:18.863Z</time></trkpt><trkpt lat="45.6021619" lon="9.2682495"><ele>189.0</ele><time>2026-03-24T08:49:20.867Z</time></trkpt><trkpt lat="45.6021686" lon="9.2683454"><ele>189.0</ele><time>2026-03-24T08:49:22.865Z</time></trkpt><trkpt lat="45.6021956" lon="9.2684279"><ele>189.0</ele><time>2026-03-24T08:49:24.874Z</time></trkpt><trkpt lat="45.6022085" lon="9.2685169"><ele>189.0</ele><time>2026-03-24T08:49:33.882Z</time></trkpt><trkpt lat="45.6022052" lon="9.2686659"><ele>188.39999999999998</ele><time>2026-03-24T08:49:36.878Z</time></trkpt><trkpt lat="45.6022017" lon="9.268756"><ele>187.8</ele><time>2026-03-24T08:49:37.87Z</time></trkpt><trkpt lat="45.6021867" lon="9.2688471"><ele>187.2</ele><time>2026-03-24T08:49:38.873Z</time></trkpt><trkpt lat="45.6021753" lon="9.2689369"><ele>186.60000000000002</ele><time>2026-03-24T08:49:39.868Z</time></trkpt><trkpt lat="45.6021979" lon="9.2691072"><ele>186.0</ele><time>2026-03-24T08:49:41.864Z</time></trkpt><trkpt lat="45.6023083" lon="9.2692222"><ele>186.0</ele><time>2026-03-24T08:49:43.874Z</time></trkpt><trkpt lat="45.6024289" lon="9.2691914"><ele>186.0</ele><time>2026-03-24T08:49:45.874Z</time></trkpt><trkpt lat="45.6025605" lon="9.2691418"><ele>186.0</ele><time>2026-03-24T08:49:46.878Z</time></trkpt><trkpt lat="45.6026749" lon="9.2690848"><ele>186.0</ele><time>2026-03-24T08:49:47.882Z</time></trkpt><trkpt lat="45.6028058" lon="9.2690303"><ele>185.75</ele><time>2026-03-24T08:49:48.887Z</time></trkpt><trkpt lat="45.6029475" lon="9.2689721"><ele>185.5</ele><time>2026-03-24T08:49:49.887Z</time></trkpt><trkpt lat="45.603084" lon="9.268911"><ele>185.25</ele><time>2026-03-24T08:49:50.898Z</time></trkpt><trkpt lat="45.603218" lon="9.2688531"><ele>185.0</ele><time>2026-03-24T08:49:51.89Z</time></trkpt><trkpt lat="45.60337" lon="9.268763"><ele>185.0</ele><time>2026-03-24T08:49:52.895Z</time></trkpt><trkpt lat="45.6034937" lon="9.2687116"><ele>185.0</ele><time>2026-03-24T08:49:53.898Z</time></trkpt><trkpt lat="45.6036549" lon="9.2686801"><ele>185.0</ele><time>2026-03-24T08:49:54.891Z</time></trkpt><trkpt lat="45.6038028" lon="9.268635"><ele>185.0</ele><time>2026-03-24T08:49:55.901Z</time></trkpt><trkpt lat="45.6039206" lon="9.2685765"><ele>186.0</ele><time>2026-03-24T08:49:56.892Z</time></trkpt><trkpt lat="45.604012" lon="9.2685387"><ele>187.0</ele><time>2026-03-24T08:49:57.899Z</time></trkpt><trkpt lat="45.6040945" lon="9.268496"><ele>188.0</ele><time>2026-03-24T08:49:58.889Z</time></trkpt><trkpt lat="45.6041914" lon="9.2684483"><ele>189.0</ele><time>2026-03-24T08:49:59.896Z</time></trkpt><trkpt lat="45.604299" lon="9.2684289"><ele>190.0</ele><time>2026-03-24T08:50:00.874Z</time></trkpt><trkpt lat="45.604406" lon="9.2684346"><ele>190.0</ele><time>2026-03-24T08:50:01.87Z</time></trkpt><trkpt lat="45.6044903" lon="9.2684256"><ele>190.0</ele><time>2026-03-24T08:50:02.871Z</time></trkpt><trkpt lat="45.604596" lon="9.2684021"><ele>190.0</ele><time>2026-03-24T08:50:03.874Z</time></trkpt><trkpt lat="45.6046993" lon="9.2683474"><ele>190.0</ele><time>2026-03-24T08:50:04.876Z</time></trkpt><trkpt lat="45.6047952" lon="9.2683045"><ele>190.0</ele><time>2026-03-24T08:50:05.868Z</time></trkpt><trkpt lat="45.6048986" lon="9.2682585"><ele>190.2</ele><time>2026-03-24T08:50:06.874Z</time></trkpt><trkpt lat="45.6049869" lon="9.2682195"><ele>190.4</ele><time>2026-03-24T08:50:07.872Z</time></trkpt><trkpt lat="45.6050674" lon="9.2682104"><ele>190.60000000000002</ele><time>2026-03-24T08:50:08.875Z</time></trkpt><trkpt lat="45.6051586" lon="9.2681993"><ele>190.8</ele><time>2026-03-24T08:50:10.876Z</time></trkpt><trkpt lat="45.6052638" lon="9.2681728"><ele>191.0</ele><time>2026-03-24T08:50:12.869Z</time></trkpt><trkpt lat="45.6053965" lon="9.2681167"><ele>190.4</ele><time>2026-03-24T08:50:14.874Z</time></trkpt><trkpt lat="45.6054793" lon="9.2680726"><ele>189.8</ele><time>2026-03-24T08:50:15.871Z</time></trkpt><trkpt lat="45.605554" lon="9.2680262"><ele>189.20000000000002</ele><time>2026-03-24T08:50:16.878Z</time></trkpt><trkpt lat="45.6056536" lon="9.2679912"><ele>188.60000000000002</ele><time>2026-03-24T08:50:17.883Z</time></trkpt><trkpt lat="45.6057607" lon="9.2679743"><ele>188.0</ele><time>2026-03-24T08:50:18.886Z</time></trkpt><trkpt lat="45.6058791" lon="9.2679566"><ele>188.0</ele><time>2026-03-24T08:50:19.882Z</time></trkpt><trkpt lat="45.6060053" lon="9.2679432"><ele>188.0</ele><time>2026-03-24T08:50:20.881Z</time></trkpt><trkpt lat="45.60615" lon="9.2679298"><ele>188.0</ele><time>2026-03-24T08:50:21.873Z</time></trkpt><trkpt lat="45.6063141" lon="9.2679739"><ele>188.0</ele><time>2026-03-24T08:50:22.875Z</time></trkpt><trkpt lat="45.6064938" lon="9.2680261"><ele>187.66666666666666</ele><time>2026-03-24T08:50:23.872Z</time></trkpt><trkpt lat="45.6066626" lon="9.2680962"><ele>187.33333333333334</ele><time>2026-03-24T08:50:24.861Z</time></trkpt><trkpt lat="45.6068091" lon="9.2681923"><ele>187.0</ele><time>2026-03-24T08:50:25.861Z</time></trkpt><trkpt lat="45.6069147" lon="9.2682636"><ele>186.75</ele><time>2026-03-24T08:50:26.867Z</time></trkpt><trkpt lat="45.6070074" lon="9.2683593"><ele>186.5</ele><time>2026-03-24T08:50:27.873Z</time></trkpt><trkpt lat="45.6071234" lon="9.2684487"><ele>186.25</ele><time>2026-03-24T08:50:28.88Z</time></trkpt><trkpt lat="45.6072521" lon="9.2685323"><ele>186.0</ele><time>2026-03-24T08:50:29.875Z</time></trkpt><trkpt lat="45.6073414" lon="9.2685944"><ele>186.0</ele><time>2026-03-24T08:50:30.892Z</time></trkpt><trkpt lat="45.6074472" lon="9.2686851"><ele>186.0</ele><time>2026-03-24T08:50:31.888Z</time></trkpt><trkpt lat="45.6075324" lon="9.2687619"><ele>186.0</ele><time>2026-03-24T08:50:32.88Z</time></trkpt><trkpt lat="45.6076169" lon="9.2688439"><ele>186.0</ele><time>2026-03-24T08:50:33.879Z</time></trkpt><trkpt lat="45.6076892" lon="9.2689197"><ele>186.0</ele><time>2026-03-24T08:50:34.871Z</time></trkpt><trkpt lat="45.6077457" lon="9.268975"><ele>186.33333333333334</ele><time>2026-03-24T08:50:35.867Z</time></trkpt><trkpt lat="45.6078139" lon="9.2690193"><ele>186.66666666666666</ele><time>2026-03-24T08:50:37.876Z</time></trkpt><trkpt lat="45.6079141" lon="9.2690733"><ele>187.0</ele><time>2026-03-24T08:50:41.89Z</time></trkpt><trkpt lat="45.6079736" lon="9.2691197"><ele>187.33333333333331</ele><time>2026-03-24T08:50:42.883Z</time></trkpt><trkpt lat="45.6080521" lon="9.269158"><ele>187.66666666666666</ele><time>2026-03-24T08:50:43.882Z</time></trkpt><trkpt lat="45.6081267" lon="9.2692235"><ele>188.0</ele><time>2026-03-24T08:50:44.881Z</time></trkpt><trkpt lat="45.6081739" lon="9.2693023"><ele>188.0</ele><time>2026-03-24T08:50:45.885Z</time></trkpt><trkpt lat="45.6082474" lon="9.2694024"><ele>188.0</ele><time>2026-03-24T08:50:46.892Z</time></trkpt><trkpt lat="45.6083345" lon="9.2695009"><ele>188.0</ele><time>2026-03-24T08:50:47.889Z</time></trkpt><trkpt lat="45.6084386" lon="9.2695951"><ele>188.0</ele><time>2026-03-24T08:50:48.888Z</time></trkpt><trkpt lat="45.6085355" lon="9.2696928"><ele>188.0</ele><time>2026-03-24T08:50:49.879Z</time></trkpt><trkpt lat="45.6086316" lon="9.269775"><ele>188.0</ele><time>2026-03-24T08:50:50.886Z</time></trkpt><trkpt lat="45.6087253" lon="9.2698648"><ele>188.0</ele><time>2026-03-24T08:50:51.875Z</time></trkpt><trkpt lat="45.6088172" lon="9.2699512"><ele>188.0</ele><time>2026-03-24T08:50:52.886Z</time></trkpt><trkpt lat="45.6089166" lon="9.2700262"><ele>188.0</ele><time>2026-03-24T08:50:53.887Z</time></trkpt><trkpt lat="45.6090061" lon="9.2701146"><ele>188.4</ele><time>2026-03-24T08:50:54.894Z</time></trkpt><trkpt lat="45.6090878" lon="9.2701911"><ele>188.8</ele><time>2026-03-24T08:50:55.891Z</time></trkpt><trkpt lat="45.6091877" lon="9.2702702"><ele>189.2</ele><time>2026-03-24T08:50:56.898Z</time></trkpt><trkpt lat="45.6092871" lon="9.2703541"><ele>189.6</ele><time>2026-03-24T08:50:57.892Z</time></trkpt><trkpt lat="45.6093847" lon="9.2704524"><ele>190.0</ele><time>2026-03-24T08:50:58.894Z</time></trkpt><trkpt lat="45.6094692" lon="9.2705312"><ele>189.66666666666669</ele><time>2026-03-24T08:50:59.895Z</time></trkpt><trkpt lat="45.6095426" lon="9.2706052"><ele>189.33333333333334</ele><time>2026-03-24T08:51:00.884Z</time></trkpt><trkpt lat="45.6096182" lon="9.2706704"><ele>189.0</ele><time>2026-03-24T08:51:01.904Z</time></trkpt><trkpt lat="45.6096786" lon="9.2707266"><ele>188.66666666666666</ele><time>2026-03-24T08:51:02.886Z</time></trkpt><trkpt lat="45.6097615" lon="9.2708099"><ele>188.33333333333331</ele><time>2026-03-24T08:51:04.877Z</time></trkpt><trkpt lat="45.6098207" lon="9.2708609"><ele>188.0</ele><time>2026-03-24T08:51:06.879Z</time></trkpt><trkpt lat="45.6098837" lon="9.2709256"><ele>188.0</ele><time>2026-03-24T08:52:04.875Z</time></trkpt><trkpt lat="45.6099976" lon="9.2710096"><ele>188.0</ele><time>2026-03-24T08:52:05.877Z</time></trkpt><trkpt lat="45.6101126" lon="9.2711132"><ele>188.0</ele><time>2026-03-24T08:52:06.866Z</time></trkpt><trkpt lat="45.6102534" lon="9.2712372"><ele>188.0</ele><time>2026-03-24T08:52:07.869Z</time></trkpt><trkpt lat="45.6103975" lon="9.2713602"><ele>188.33333333333331</ele><time>2026-03-24T08:52:08.87Z</time></trkpt><trkpt lat="45.6105472" lon="9.2714822"><ele>188.66666666666666</ele><time>2026-03-24T08:52:09.875Z</time></trkpt><trkpt lat="45.6106928" lon="9.2716104"><ele>189.0</ele><time>2026-03-24T08:52:10.885Z</time></trkpt><trkpt lat="45.6108058" lon="9.2717299"><ele>189.0</ele><time>2026-03-24T08:52:11.889Z</time></trkpt><trkpt lat="45.610935" lon="9.2718616"><ele>189.0</ele><time>2026-03-24T08:52:12.884Z</time></trkpt><trkpt lat="45.6110556" lon="9.2719644"><ele>189.0</ele><time>2026-03-24T08:52:13.887Z</time></trkpt><trkpt lat="45.6111501" lon="9.2720461"><ele>189.0</ele><time>2026-03-24T08:52:14.883Z</time></trkpt><trkpt lat="45.6112794" lon="9.2721391"><ele>189.2</ele><time>2026-03-24T08:52:15.892Z</time></trkpt><trkpt lat="45.6113625" lon="9.2721902"><ele>189.39999999999998</ele><time>2026-03-24T08:52:16.9Z</time></trkpt><trkpt lat="45.6114384" lon="9.2722273"><ele>189.6</ele><time>2026-03-24T08:52:17.886Z</time></trkpt><trkpt lat="45.6115348" lon="9.2722662"><ele>189.8</ele><time>2026-03-24T08:52:18.895Z</time></trkpt><trkpt lat="45.6116305" lon="9.2722957"><ele>190.0</ele><time>2026-03-24T08:52:19.884Z</time></trkpt><trkpt lat="45.611727" lon="9.2723223"><ele>190.0</ele><time>2026-03-24T08:52:20.898Z</time></trkpt><trkpt lat="45.6118276" lon="9.2723607"><ele>190.0</ele><time>2026-03-24T08:52:21.889Z</time></trkpt><trkpt lat="45.6119349" lon="9.2723751"><ele>190.0</ele><time>2026-03-24T08:52:22.888Z</time></trkpt><trkpt lat="45.6120335" lon="9.2723836"><ele>190.0</ele><time>2026-03-24T08:52:23.894Z</time></trkpt><trkpt lat="45.6121286" lon="9.2723823"><ele>190.0</ele><time>2026-03-24T08:52:24.888Z</time></trkpt><trkpt lat="45.6122272" lon="9.2723788"><ele>190.0</ele><time>2026-03-24T08:52:25.884Z</time></trkpt><trkpt lat="45.6123248" lon="9.2723704"><ele>190.0</ele><time>2026-03-24T08:52:26.887Z</time></trkpt><trkpt lat="45.6124253" lon="9.2723733"><ele>190.0</ele><time>2026-03-24T08:52:27.878Z</time></trkpt><trkpt lat="45.6125202" lon="9.2723816"><ele>190.0</ele><time>2026-03-24T08:52:28.887Z</time></trkpt><trkpt lat="45.6126232" lon="9.2724017"><ele>190.0</ele><time>2026-03-24T08:52:29.891Z</time></trkpt><trkpt lat="45.6127311" lon="9.2724183"><ele>190.5</ele><time>2026-03-24T08:52:30.884Z</time></trkpt><trkpt lat="45.6128448" lon="9.272434"><ele>191.0</ele><time>2026-03-24T08:52:31.89Z</time></trkpt><trkpt lat="45.6129673" lon="9.2724478"><ele>191.5</ele><time>2026-03-24T08:52:32.888Z</time></trkpt><trkpt lat="45.6130816" lon="9.2724689"><ele>192.0</ele><time>2026-03-24T08:52:33.888Z</time></trkpt><trkpt lat="45.6132007" lon="9.2724976"><ele>192.0</ele><time>2026-03-24T08:52:34.896Z</time></trkpt><trkpt lat="45.613317" lon="9.2725285"><ele>192.0</ele><time>2026-03-24T08:52:35.886Z</time></trkpt><trkpt lat="45.6134155" lon="9.2725435"><ele>192.0</ele><time>2026-03-24T08:52:36.873Z</time></trkpt><trkpt lat="45.6135181" lon="9.2725625"><ele>192.0</ele><time>2026-03-24T08:52:37.872Z</time></trkpt><trkpt lat="45.6136171" lon="9.272596"><ele>192.0</ele><time>2026-03-24T08:52:38.875Z</time></trkpt><trkpt lat="45.6137232" lon="9.2726365"><ele>192.2</ele><time>2026-03-24T08:52:39.881Z</time></trkpt><trkpt lat="45.6138283" lon="9.2726679"><ele>192.39999999999998</ele><time>2026-03-24T08:52:40.888Z</time></trkpt><trkpt lat="45.6139285" lon="9.2727025"><ele>192.60000000000002</ele><time>2026-03-24T08:52:41.888Z</time></trkpt><trkpt lat="45.6140297" lon="9.2727267"><ele>192.8</ele><time>2026-03-24T08:52:42.889Z</time></trkpt><trkpt lat="45.614148" lon="9.2727562"><ele>193.0</ele><time>2026-03-24T08:52:43.888Z</time></trkpt><trkpt lat="45.6142636" lon="9.2727983"><ele>193.0</ele><time>2026-03-24T08:52:44.886Z</time></trkpt><trkpt lat="45.6144057" lon="9.272834"><ele>193.0</ele><time>2026-03-24T08:52:45.886Z</time></trkpt><trkpt lat="45.6145597" lon="9.2728728"><ele>193.0</ele><time>2026-03-24T08:52:46.887Z</time></trkpt><trkpt lat="45.6147614" lon="9.272909"><ele>192.5</ele><time>2026-03-24T08:52:47.882Z</time></trkpt><trkpt lat="45.6149956" lon="9.2730143"><ele>192.0</ele><time>2026-03-24T08:52:48.882Z</time></trkpt><trkpt lat="45.6152454" lon="9.2731691"><ele>192.0</ele><time>2026-03-24T08:52:49.883Z</time></trkpt><trkpt lat="45.6155121" lon="9.2732984"><ele>192.0</ele><time>2026-03-24T08:52:50.887Z</time></trkpt><trkpt lat="45.6158166" lon="9.2734255"><ele>192.0</ele><time>2026-03-24T08:52:51.885Z</time></trkpt><trkpt lat="45.6160601" lon="9.2735397"><ele>192.0</ele><time>2026-03-24T08:52:52.886Z</time></trkpt><trkpt lat="45.6163011" lon="9.2736084"><ele>192.5</ele><time>2026-03-24T08:52:53.891Z</time></trkpt><trkpt lat="45.6165063" lon="9.2736909"><ele>193.0</ele><time>2026-03-24T08:52:54.896Z</time></trkpt><trkpt lat="45.6167415" lon="9.2737538"><ele>193.0</ele><time>2026-03-24T08:52:55.892Z</time></trkpt><trkpt lat="45.6169641" lon="9.2738281"><ele>193.0</ele><time>2026-03-24T08:52:56.894Z</time></trkpt><trkpt lat="45.6172026" lon="9.2739337"><ele>193.66666666666666</ele><time>2026-03-24T08:52:57.894Z</time></trkpt><trkpt lat="45.6174223" lon="9.2739902"><ele>194.33333333333331</ele><time>2026-03-24T08:52:58.883Z</time></trkpt><trkpt lat="45.6176282" lon="9.2740821"><ele>195.0</ele><time>2026-03-24T08:52:59.895Z</time></trkpt><trkpt lat="45.6178755" lon="9.274168"><ele>195.5</ele><time>2026-03-24T08:53:00.896Z</time></trkpt><trkpt lat="45.618115" lon="9.2742484"><ele>196.0</ele><time>2026-03-24T08:53:01.889Z</time></trkpt><trkpt lat="45.6183547" lon="9.2743171"><ele>196.0</ele><time>2026-03-24T08:53:02.892Z</time></trkpt><trkpt lat="45.6186028" lon="9.2744158"><ele>196.0</ele><time>2026-03-24T08:53:03.888Z</time></trkpt><trkpt lat="45.6188297" lon="9.2745226"><ele>196.0</ele><time>2026-03-24T08:53:04.888Z</time></trkpt><trkpt lat="45.6190472" lon="9.2746356"><ele>196.0</ele><time>2026-03-24T08:53:05.92Z</time></trkpt><trkpt lat="45.6192372" lon="9.2747151"><ele>196.0</ele><time>2026-03-24T08:53:06.893Z</time></trkpt><trkpt lat="45.6194168" lon="9.2748211"><ele>196.33333333333331</ele><time>2026-03-24T08:53:07.883Z</time></trkpt><trkpt lat="45.6195928" lon="9.2748896"><ele>196.66666666666669</ele><time>2026-03-24T08:53:08.876Z</time></trkpt><trkpt lat="45.6197593" lon="9.2749763"><ele>197.0</ele><time>2026-03-24T08:53:09.87Z</time></trkpt><trkpt lat="45.6199534" lon="9.2750362"><ele>197.0</ele><time>2026-03-24T08:53:10.865Z</time></trkpt><trkpt lat="45.6201305" lon="9.275105"><ele>197.0</ele><time>2026-03-24T08:53:11.861Z</time></trkpt><trkpt lat="45.6203347" lon="9.2752175"><ele>197.0</ele><time>2026-03-24T08:53:12.864Z</time></trkpt><trkpt lat="45.6205297" lon="9.2753046"><ele>198.0</ele><time>2026-03-24T08:53:13.865Z</time></trkpt><trkpt lat="45.6207546" lon="9.2753919"><ele>199.0</ele><time>2026-03-24T08:53:14.869Z</time></trkpt><trkpt lat="45.6209786" lon="9.2754764"><ele>199.0</ele><time>2026-03-24T08:53:15.863Z</time></trkpt><trkpt lat="45.621185" lon="9.2755387"><ele>199.0</ele><time>2026-03-24T08:53:16.874Z</time></trkpt><trkpt lat="45.6213714" lon="9.2755647"><ele>199.0</ele><time>2026-03-24T08:53:17.872Z</time></trkpt><trkpt lat="45.6215203" lon="9.2756314"><ele>199.66666666666666</ele><time>2026-03-24T08:53:18.867Z</time></trkpt><trkpt lat="45.6216948" lon="9.275702"><ele>200.33333333333331</ele><time>2026-03-24T08:53:19.866Z</time></trkpt><trkpt lat="45.6218634" lon="9.2757662"><ele>201.0</ele><time>2026-03-24T08:53:20.868Z</time></trkpt><trkpt lat="45.6219954" lon="9.2758485"><ele>199.75</ele><time>2026-03-24T08:53:21.876Z</time></trkpt><trkpt lat="45.6221419" lon="9.2759011"><ele>198.5</ele><time>2026-03-24T08:53:22.871Z</time></trkpt><trkpt lat="45.6222915" lon="9.2759268"><ele>197.25</ele><time>2026-03-24T08:53:23.883Z</time></trkpt><trkpt lat="45.6224257" lon="9.2759637"><ele>196.0</ele><time>2026-03-24T08:53:24.89Z</time></trkpt><trkpt lat="45.6225892" lon="9.2760221"><ele>196.0</ele><time>2026-03-24T08:53:25.885Z</time></trkpt><trkpt lat="45.6227154" lon="9.2760663"><ele>196.0</ele><time>2026-03-24T08:53:26.88Z</time></trkpt><trkpt lat="45.6227944" lon="9.2761084"><ele>196.0</ele><time>2026-03-24T08:53:27.895Z</time></trkpt><trkpt lat="45.6228946" lon="9.2762023"><ele>196.0</ele><time>2026-03-24T08:53:29.885Z</time></trkpt><trkpt lat="45.6229489" lon="9.2762698"><ele>196.0</ele><time>2026-03-24T08:53:30.887Z</time></trkpt><trkpt lat="45.6230023" lon="9.2763449"><ele>196.0</ele><time>2026-03-24T08:53:31.879Z</time></trkpt><trkpt lat="45.6231205" lon="9.2763747"><ele>196.0</ele><time>2026-03-24T08:53:33.888Z</time></trkpt><trkpt lat="45.623186" lon="9.2763386"><ele>196.0</ele><time>2026-03-24T08:53:34.881Z</time></trkpt><trkpt lat="45.6232788" lon="9.2763146"><ele>196.0</ele><time>2026-03-24T08:53:35.895Z</time></trkpt><trkpt lat="45.6233865" lon="9.2763231"><ele>196.0</ele><time>2026-03-24T08:53:36.871Z</time></trkpt><trkpt lat="45.6234969" lon="9.2763478"><ele>195.99999999999997</ele><time>2026-03-24T08:53:37.874Z</time></trkpt><trkpt lat="45.6235906" lon="9.2763747"><ele>196.0</ele><time>2026-03-24T08:53:38.876Z</time></trkpt><trkpt lat="45.6236619" lon="9.2764114"><ele>196.0</ele><time>2026-03-24T08:53:39.879Z</time></trkpt><trkpt lat="45.6237435" lon="9.2764322"><ele>196.0</ele><time>2026-03-24T08:53:40.878Z</time></trkpt><trkpt lat="45.6238253" lon="9.2764489"><ele>195.99999999999997</ele><time>2026-03-24T08:53:41.878Z</time></trkpt><trkpt lat="45.6239023" lon="9.2764508"><ele>196.0</ele><time>2026-03-24T08:53:42.873Z</time></trkpt><trkpt lat="45.6239828" lon="9.2764541"><ele>196.33333333333331</ele><time>2026-03-24T08:53:43.879Z</time></trkpt><trkpt lat="45.6240619" lon="9.2764566"><ele>196.66666666666666</ele><time>2026-03-24T08:53:44.875Z</time></trkpt><trkpt lat="45.6241356" lon="9.2764324"><ele>197.0</ele><time>2026-03-24T08:53:45.875Z</time></trkpt><trkpt lat="45.6242157" lon="9.2764026"><ele>197.33333333333331</ele><time>2026-03-24T08:53:46.878Z</time></trkpt><trkpt lat="45.6242822" lon="9.2763674"><ele>197.66666666666666</ele><time>2026-03-24T08:53:47.876Z</time></trkpt><trkpt lat="45.6243787" lon="9.276289"><ele>198.0</ele><time>2026-03-24T08:53:49.879Z</time></trkpt><trkpt lat="45.6244771" lon="9.276231"><ele>198.0</ele><time>2026-03-24T08:53:51.88Z</time></trkpt><trkpt lat="45.6245427" lon="9.2762102"><ele>198.0</ele><time>2026-03-24T08:53:52.874Z</time></trkpt><trkpt lat="45.6246064" lon="9.2761853"><ele>198.0</ele><time>2026-03-24T08:53:53.884Z</time></trkpt><trkpt lat="45.6246946" lon="9.2761258"><ele>198.0</ele><time>2026-03-24T08:53:55.879Z</time></trkpt><trkpt lat="45.6247913" lon="9.2760976"><ele>198.0</ele><time>2026-03-24T08:53:57.885Z</time></trkpt><trkpt lat="45.6248665" lon="9.2760696"><ele>198.0</ele><time>2026-03-24T08:53:59.881Z</time></trkpt><trkpt lat="45.6249363" lon="9.2760168"><ele>198.0</ele><time>2026-03-24T08:54:01.874Z</time></trkpt><trkpt lat="45.6250081" lon="9.2759588"><ele>198.0</ele><time>2026-03-24T08:54:03.88Z</time></trkpt><trkpt lat="45.6250974" lon="9.2759142"><ele>198.0</ele><time>2026-03-24T08:54:05.885Z</time></trkpt><trkpt lat="45.6251596" lon="9.275893"><ele>198.0</ele><time>2026-03-24T08:54:06.899Z</time></trkpt><trkpt lat="45.62529" lon="9.2758578"><ele>198.0</ele><time>2026-03-24T08:54:08.892Z</time></trkpt><trkpt lat="45.6253838" lon="9.2758162"><ele>198.16666666666666</ele><time>2026-03-24T08:54:10.887Z</time></trkpt><trkpt lat="45.6254829" lon="9.2757889"><ele>198.33333333333331</ele><time>2026-03-24T08:54:12.893Z</time></trkpt><trkpt lat="45.6255582" lon="9.2757936"><ele>198.5</ele><time>2026-03-24T08:54:14.904Z</time></trkpt><trkpt lat="45.625644" lon="9.2757758"><ele>198.66666666666666</ele><time>2026-03-24T08:54:17.893Z</time></trkpt><trkpt lat="45.6257497" lon="9.2757828"><ele>198.83333333333331</ele><time>2026-03-24T08:54:19.891Z</time></trkpt><trkpt lat="45.6258136" lon="9.2757593"><ele>199.0</ele><time>2026-03-24T08:54:20.885Z</time></trkpt><trkpt lat="45.6258749" lon="9.2757118"><ele>199.0</ele><time>2026-03-24T08:54:21.896Z</time></trkpt><trkpt lat="45.6259697" lon="9.2756034"><ele>199.0</ele><time>2026-03-24T08:54:23.886Z</time></trkpt><trkpt lat="45.6260543" lon="9.2755279"><ele>199.0</ele><time>2026-03-24T08:54:25.889Z</time></trkpt><trkpt lat="45.626116" lon="9.2755037"><ele>199.0</ele><time>2026-03-24T08:54:27.889Z</time></trkpt><trkpt lat="45.6261998" lon="9.2754385"><ele>199.0</ele><time>2026-03-24T08:54:29.879Z</time></trkpt><trkpt lat="45.6263211" lon="9.2753651"><ele>198.83333333333331</ele><time>2026-03-24T08:54:31.89Z</time></trkpt><trkpt lat="45.6263958" lon="9.2753436"><ele>198.66666666666666</ele><time>2026-03-24T08:54:32.891Z</time></trkpt><trkpt lat="45.6264779" lon="9.2753313"><ele>198.5</ele><time>2026-03-24T08:54:33.886Z</time></trkpt><trkpt lat="45.6265621" lon="9.2753162"><ele>198.33333333333331</ele><time>2026-03-24T08:54:34.882Z</time></trkpt><trkpt lat="45.6266366" lon="9.2752944"><ele>198.16666666666666</ele><time>2026-03-24T08:54:35.883Z</time></trkpt><trkpt lat="45.6267072" lon="9.2752708"><ele>198.0</ele><time>2026-03-24T08:54:36.893Z</time></trkpt><trkpt lat="45.6267975" lon="9.2752418"><ele>198.0</ele><time>2026-03-24T08:54:37.912Z</time></trkpt><trkpt lat="45.6268892" lon="9.2752026"><ele>198.0</ele><time>2026-03-24T08:54:38.893Z</time></trkpt><trkpt lat="45.6269926" lon="9.2751672"><ele>198.0</ele><time>2026-03-24T08:54:39.898Z</time></trkpt><trkpt lat="45.6270958" lon="9.2751263"><ele>198.0</ele><time>2026-03-24T08:54:40.893Z</time></trkpt><trkpt lat="45.627196" lon="9.2750919"><ele>198.0</ele><time>2026-03-24T08:54:41.904Z</time></trkpt><trkpt lat="45.627297" lon="9.2750578"><ele>198.60000000000002</ele><time>2026-03-24T08:54:42.892Z</time></trkpt><trkpt lat="45.6273887" lon="9.2750211"><ele>199.20000000000002</ele><time>2026-03-24T08:54:43.899Z</time></trkpt><trkpt lat="45.6274794" lon="9.2749822"><ele>199.8</ele><time>2026-03-24T08:54:44.894Z</time></trkpt><trkpt lat="45.6275851" lon="9.2749401"><ele>200.4</ele><time>2026-03-24T08:54:45.898Z</time></trkpt><trkpt lat="45.6276871" lon="9.2748972"><ele>201.0</ele><time>2026-03-24T08:54:46.898Z</time></trkpt><trkpt lat="45.6277828" lon="9.2748587"><ele>201.0</ele><time>2026-03-24T08:54:47.895Z</time></trkpt><trkpt lat="45.6278864" lon="9.2748265"><ele>201.0</ele><time>2026-03-24T08:54:48.899Z</time></trkpt><trkpt lat="45.6279901" lon="9.2747951"><ele>201.0</ele><time>2026-03-24T08:54:49.889Z</time></trkpt><trkpt lat="45.6280877" lon="9.2747658"><ele>201.0</ele><time>2026-03-24T08:54:50.894Z</time></trkpt><trkpt lat="45.6281875" lon="9.2747356"><ele>201.0</ele><time>2026-03-24T08:54:51.889Z</time></trkpt><trkpt lat="45.6282888" lon="9.2747017"><ele>201.4</ele><time>2026-03-24T08:54:52.894Z</time></trkpt><trkpt lat="45.6283756" lon="9.2746822"><ele>201.8</ele><time>2026-03-24T08:54:53.895Z</time></trkpt><trkpt lat="45.6284467" lon="9.274671"><ele>202.20000000000002</ele><time>2026-03-24T08:54:54.893Z</time></trkpt><trkpt lat="45.6285116" lon="9.2746579"><ele>202.60000000000002</ele><time>2026-03-24T08:54:55.89Z</time></trkpt><trkpt lat="45.6286326" lon="9.2746198"><ele>203.0</ele><time>2026-03-24T08:54:57.899Z</time></trkpt><trkpt lat="45.6287551" lon="9.2745785"><ele>203.00000000000003</ele><time>2026-03-24T08:54:59.899Z</time></trkpt><trkpt lat="45.628825" lon="9.2745757"><ele>203.0</ele><time>2026-03-24T08:55:00.893Z</time></trkpt><trkpt lat="45.6289049" lon="9.2745612"><ele>203.0</ele><time>2026-03-24T08:55:01.884Z</time></trkpt><trkpt lat="45.6289936" lon="9.2745309"><ele>203.0</ele><time>2026-03-24T08:55:02.889Z</time></trkpt><trkpt lat="45.6290654" lon="9.274511"><ele>203.00000000000003</ele><time>2026-03-24T08:55:03.877Z</time></trkpt><trkpt lat="45.6291479" lon="9.2744838"><ele>203.0</ele><time>2026-03-24T08:55:05.895Z</time></trkpt><trkpt lat="45.6292238" lon="9.2744528"><ele>203.0</ele><time>2026-03-24T08:55:07.888Z</time></trkpt><trkpt lat="45.6293507" lon="9.2744021"><ele>203.0</ele><time>2026-03-24T08:55:09.893Z</time></trkpt><trkpt lat="45.6294379" lon="9.2743648"><ele>203.0</ele><time>2026-03-24T08:55:10.883Z</time></trkpt><trkpt lat="45.6295327" lon="9.2743189"><ele>203.0</ele><time>2026-03-24T08:55:11.885Z</time></trkpt><trkpt lat="45.6296568" lon="9.2742749"><ele>203.0</ele><time>2026-03-24T08:55:12.887Z</time></trkpt><trkpt lat="45.6297741" lon="9.2742501"><ele>203.0</ele><time>2026-03-24T08:55:13.893Z</time></trkpt><trkpt lat="45.6298743" lon="9.2742429"><ele>203.0</ele><time>2026-03-24T08:55:14.889Z</time></trkpt><trkpt lat="45.6299651" lon="9.2742188"><ele>203.0</ele><time>2026-03-24T08:55:15.889Z</time></trkpt><trkpt lat="45.6300492" lon="9.2742033"><ele>203.0</ele><time>2026-03-24T08:55:16.891Z</time></trkpt><trkpt lat="45.6301293" lon="9.2741852"><ele>203.0</ele><time>2026-03-24T08:55:17.899Z</time></trkpt><trkpt lat="45.6302413" lon="9.2741639"><ele>203.0</ele><time>2026-03-24T08:55:19.887Z</time></trkpt><trkpt lat="45.6303095" lon="9.2741363"><ele>203.0</ele><time>2026-03-24T08:55:20.882Z</time></trkpt><trkpt lat="45.6303846" lon="9.2741112"><ele>203.0</ele><time>2026-03-24T08:55:21.881Z</time></trkpt><trkpt lat="45.6304692" lon="9.2740819"><ele>203.0</ele><time>2026-03-24T08:55:22.879Z</time></trkpt><trkpt lat="45.6305716" lon="9.2740345"><ele>203.5</ele><time>2026-03-24T08:55:23.877Z</time></trkpt><trkpt lat="45.6306854" lon="9.2739749"><ele>204.0</ele><time>2026-03-24T08:55:24.881Z</time></trkpt><trkpt lat="45.6308135" lon="9.2739174"><ele>204.5</ele><time>2026-03-24T08:55:25.883Z</time></trkpt><trkpt lat="45.6309241" lon="9.2738809"><ele>205.0</ele><time>2026-03-24T08:55:26.87Z</time></trkpt><trkpt lat="45.6310311" lon="9.2738459"><ele>205.0</ele><time>2026-03-24T08:55:27.873Z</time></trkpt><trkpt lat="45.6311027" lon="9.2738138"><ele>205.0</ele><time>2026-03-24T08:55:28.876Z</time></trkpt><trkpt lat="45.6311843" lon="9.2737777"><ele>205.0</ele><time>2026-03-24T08:55:29.874Z</time></trkpt><trkpt lat="45.6312868" lon="9.2736919"><ele>205.0</ele><time>2026-03-24T08:55:31.878Z</time></trkpt><trkpt lat="45.6313698" lon="9.2736509"><ele>205.0</ele><time>2026-03-24T08:55:32.876Z</time></trkpt><trkpt lat="45.6314642" lon="9.2736223"><ele>205.0</ele><time>2026-03-24T08:55:33.879Z</time></trkpt><trkpt lat="45.6315875" lon="9.2735763"><ele>205.0</ele><time>2026-03-24T08:55:34.869Z</time></trkpt><trkpt lat="45.6317152" lon="9.2735354"><ele>205.0</ele><time>2026-03-24T08:55:35.881Z</time></trkpt><trkpt lat="45.6318463" lon="9.2735125"><ele>205.0</ele><time>2026-03-24T08:55:36.881Z</time></trkpt><trkpt lat="45.6319619" lon="9.2734982"><ele>204.99999999999997</ele><time>2026-03-24T08:55:37.883Z</time></trkpt><trkpt lat="45.6320671" lon="9.2734812"><ele>205.0</ele><time>2026-03-24T08:55:38.886Z</time></trkpt><trkpt lat="45.632161" lon="9.2734622"><ele>205.0</ele><time>2026-03-24T08:55:39.896Z</time></trkpt><trkpt lat="45.6322469" lon="9.2734456"><ele>205.0</ele><time>2026-03-24T08:55:40.878Z</time></trkpt><trkpt lat="45.632327" lon="9.2734309"><ele>204.99999999999997</ele><time>2026-03-24T08:55:41.877Z</time></trkpt><trkpt lat="45.6323992" lon="9.2734202"><ele>205.0</ele><time>2026-03-24T08:55:42.882Z</time></trkpt><trkpt lat="45.6325172" lon="9.2733857"><ele>205.0</ele><time>2026-03-24T08:55:44.885Z</time></trkpt><trkpt lat="45.632624" lon="9.2733282"><ele>205.0</ele><time>2026-03-24T08:55:46.888Z</time></trkpt><trkpt lat="45.6326967" lon="9.2732519"><ele>205.0</ele><time>2026-03-24T08:55:47.881Z</time></trkpt><trkpt lat="45.6327861" lon="9.273156"><ele>205.0</ele><time>2026-03-24T08:55:48.873Z</time></trkpt><trkpt lat="45.6328854" lon="9.2730435"><ele>205.0</ele><time>2026-03-24T08:55:49.875Z</time></trkpt><trkpt lat="45.6330331" lon="9.2729476"><ele>205.33333333333331</ele><time>2026-03-24T08:55:50.872Z</time></trkpt><trkpt lat="45.633212" lon="9.2728384"><ele>205.66666666666669</ele><time>2026-03-24T08:55:51.87Z</time></trkpt><trkpt lat="45.6334137" lon="9.2727372"><ele>206.0</ele><time>2026-03-24T08:55:52.881Z</time></trkpt><trkpt lat="45.6336328" lon="9.2726588"><ele>206.0</ele><time>2026-03-24T08:55:53.876Z</time></trkpt><trkpt lat="45.6338295" lon="9.2725814"><ele>206.0</ele><time>2026-03-24T08:55:54.888Z</time></trkpt><trkpt lat="45.6340193" lon="9.2724883"><ele>206.0</ele><time>2026-03-24T08:55:55.879Z</time></trkpt><trkpt lat="45.6341478" lon="9.272395"><ele>206.0</ele><time>2026-03-24T08:55:56.881Z</time></trkpt><trkpt lat="45.6342194" lon="9.2723087"><ele>206.0</ele><time>2026-03-24T08:55:57.879Z</time></trkpt><trkpt lat="45.6342979" lon="9.2722048"><ele>206.0</ele><time>2026-03-24T08:55:58.881Z</time></trkpt><trkpt lat="45.6344072" lon="9.2721404"><ele>206.0</ele><time>2026-03-24T08:55:59.876Z</time></trkpt><trkpt lat="45.6344809" lon="9.2720905"><ele>206.0</ele><time>2026-03-24T08:56:00.874Z</time></trkpt><trkpt lat="45.6345525" lon="9.2720932"><ele>206.4</ele><time>2026-03-24T08:56:01.873Z</time></trkpt><trkpt lat="45.6346333" lon="9.2720442"><ele>206.8</ele><time>2026-03-24T08:56:04.887Z</time></trkpt><trkpt lat="45.6347635" lon="9.2720166"><ele>207.20000000000002</ele><time>2026-03-24T08:56:06.891Z</time></trkpt><trkpt lat="45.6348392" lon="9.2719606"><ele>207.60000000000002</ele><time>2026-03-24T08:56:07.883Z</time></trkpt><trkpt lat="45.6349507" lon="9.271896"><ele>208.0</ele><time>2026-03-24T08:56:08.879Z</time></trkpt><trkpt lat="45.6350623" lon="9.2718345"><ele>208.0</ele><time>2026-03-24T08:56:09.881Z</time></trkpt><trkpt lat="45.6352177" lon="9.2717765"><ele>208.0</ele><time>2026-03-24T08:56:10.891Z</time></trkpt><trkpt lat="45.6353829" lon="9.2716996"><ele>208.0</ele><time>2026-03-24T08:56:11.876Z</time></trkpt><trkpt lat="45.635571" lon="9.2716232"><ele>208.66666666666666</ele><time>2026-03-24T08:56:12.886Z</time></trkpt><trkpt lat="45.6357292" lon="9.2715597"><ele>209.33333333333331</ele><time>2026-03-24T08:56:13.888Z</time></trkpt><trkpt lat="45.635917" lon="9.2715004"><ele>210.0</ele><time>2026-03-24T08:56:14.896Z</time></trkpt><trkpt lat="45.6360768" lon="9.271418"><ele>210.33333333333331</ele><time>2026-03-24T08:56:15.893Z</time></trkpt><trkpt lat="45.6362156" lon="9.2713819"><ele>210.66666666666666</ele><time>2026-03-24T08:56:16.892Z</time></trkpt><trkpt lat="45.6363784" lon="9.2712731"><ele>211.0</ele><time>2026-03-24T08:56:17.895Z</time></trkpt><trkpt lat="45.6365167" lon="9.2712081"><ele>211.0</ele><time>2026-03-24T08:56:18.891Z</time></trkpt><trkpt lat="45.6366269" lon="9.2711633"><ele>211.0</ele><time>2026-03-24T08:56:19.888Z</time></trkpt><trkpt lat="45.6367607" lon="9.2711261"><ele>211.0</ele><time>2026-03-24T08:56:20.89Z</time></trkpt><trkpt lat="45.6369135" lon="9.2710787"><ele>211.0</ele><time>2026-03-24T08:56:21.891Z</time></trkpt><trkpt lat="45.6370479" lon="9.271037"><ele>210.75</ele><time>2026-03-24T08:56:22.888Z</time></trkpt><trkpt lat="45.6371903" lon="9.2709422"><ele>210.5</ele><time>2026-03-24T08:56:23.893Z</time></trkpt><trkpt lat="45.6373235" lon="9.2708841"><ele>210.25</ele><time>2026-03-24T08:56:24.895Z</time></trkpt><trkpt lat="45.6374393" lon="9.2707856"><ele>210.0</ele><time>2026-03-24T08:56:25.885Z</time></trkpt><trkpt lat="45.6375701" lon="9.2707132"><ele>210.0</ele><time>2026-03-24T08:56:26.885Z</time></trkpt><trkpt lat="45.6376904" lon="9.2706396"><ele>210.0</ele><time>2026-03-24T08:56:27.887Z</time></trkpt><trkpt lat="45.6377942" lon="9.2705797"><ele>210.0</ele><time>2026-03-24T08:56:28.891Z</time></trkpt><trkpt lat="45.6378881" lon="9.2705264"><ele>210.0</ele><time>2026-03-24T08:56:29.894Z</time></trkpt><trkpt lat="45.637956" lon="9.270499"><ele>210.0</ele><time>2026-03-24T08:56:30.89Z</time></trkpt><trkpt lat="45.6380131" lon="9.2704407"><ele>210.0</ele><time>2026-03-24T08:56:31.881Z</time></trkpt><trkpt lat="45.6380888" lon="9.2703994"><ele>210.0</ele><time>2026-03-24T08:56:32.882Z</time></trkpt><trkpt lat="45.6381476" lon="9.2703438"><ele>210.0</ele><time>2026-03-24T08:56:33.875Z</time></trkpt><trkpt lat="45.6382144" lon="9.2703144"><ele>210.0</ele><time>2026-03-24T08:56:34.868Z</time></trkpt><trkpt lat="45.6383154" lon="9.2702441"><ele>210.0</ele><time>2026-03-24T08:56:36.879Z</time></trkpt><trkpt lat="45.6384036" lon="9.2701857"><ele>210.0</ele><time>2026-03-24T08:56:38.885Z</time></trkpt><trkpt lat="45.6384526" lon="9.2701117"><ele>210.0</ele><time>2026-03-24T08:56:40.896Z</time></trkpt><trkpt lat="45.6385212" lon="9.2700521"><ele>210.0</ele><time>2026-03-24T08:56:42.901Z</time></trkpt><trkpt lat="45.6385963" lon="9.2700103"><ele>210.0</ele><time>2026-03-24T08:56:43.889Z</time></trkpt><trkpt lat="45.6387018" lon="9.2699676"><ele>210.0</ele><time>2026-03-24T08:56:44.887Z</time></trkpt><trkpt lat="45.6388014" lon="9.2699246"><ele>210.0</ele><time>2026-03-24T08:56:45.886Z</time></trkpt><trkpt lat="45.6388997" lon="9.2699029"><ele>211.0</ele><time>2026-03-24T08:56:46.892Z</time></trkpt><trkpt lat="45.6389838" lon="9.2698947"><ele>212.0</ele><time>2026-03-24T08:56:47.888Z</time></trkpt><trkpt lat="45.639057" lon="9.2698988"><ele>213.0</ele><time>2026-03-24T08:56:48.879Z</time></trkpt><trkpt lat="45.6391371" lon="9.2699098"><ele>214.0</ele><time>2026-03-24T08:56:50.871Z</time></trkpt><trkpt lat="45.6392433" lon="9.2699037"><ele>215.0</ele><time>2026-03-24T08:57:06.88Z</time></trkpt><trkpt lat="45.6393373" lon="9.269866"><ele>216.0</ele><time>2026-03-24T08:57:09.874Z</time></trkpt><trkpt lat="45.6394351" lon="9.2698342"><ele>215.83333333333334</ele><time>2026-03-24T08:57:11.874Z</time></trkpt><trkpt lat="45.6395542" lon="9.2698054"><ele>215.66666666666669</ele><time>2026-03-24T08:57:13.875Z</time></trkpt><trkpt lat="45.6396536" lon="9.2697791"><ele>215.5</ele><time>2026-03-24T08:57:15.873Z</time></trkpt><trkpt lat="45.6397202" lon="9.2697408"><ele>215.33333333333334</ele><time>2026-03-24T08:57:17.876Z</time></trkpt><trkpt lat="45.6397807" lon="9.2697003"><ele>215.16666666666669</ele><time>2026-03-24T08:57:19.87Z</time></trkpt><trkpt lat="45.6398306" lon="9.2696194"><ele>215.0</ele><time>2026-03-24T08:57:21.881Z</time></trkpt><trkpt lat="45.6399574" lon="9.269546"><ele>215.0</ele><time>2026-03-24T08:58:15.871Z</time></trkpt><trkpt lat="45.640091" lon="9.2694022"><ele>215.0</ele><time>2026-03-24T08:58:17.874Z</time></trkpt><trkpt lat="45.6401826" lon="9.2693164"><ele>215.0</ele><time>2026-03-24T08:58:18.859Z</time></trkpt><trkpt lat="45.6402798" lon="9.2692381"><ele>215.0</ele><time>2026-03-24T08:58:19.854Z</time></trkpt><trkpt lat="45.6403664" lon="9.2691647"><ele>215.0</ele><time>2026-03-24T08:58:20.855Z</time></trkpt><trkpt lat="45.640473" lon="9.2691101"><ele>215.0</ele><time>2026-03-24T08:58:21.853Z</time></trkpt><trkpt lat="45.6405958" lon="9.2690411"><ele>215.0</ele><time>2026-03-24T08:58:22.854Z</time></trkpt><trkpt lat="45.6407092" lon="9.2689668"><ele>215.0</ele><time>2026-03-24T08:58:23.863Z</time></trkpt><trkpt lat="45.6408383" lon="9.2688887"><ele>215.33333333333334</ele><time>2026-03-24T08:58:24.862Z</time></trkpt><trkpt lat="45.6410209" lon="9.2688023"><ele>215.66666666666669</ele><time>2026-03-24T08:58:25.868Z</time></trkpt><trkpt lat="45.6411316" lon="9.2687597"><ele>216.0</ele><time>2026-03-24T08:58:26.868Z</time></trkpt><trkpt lat="45.6412928" lon="9.2687106"><ele>216.0</ele><time>2026-03-24T08:58:27.861Z</time></trkpt><trkpt lat="45.6413699" lon="9.268639"><ele>216.0</ele><time>2026-03-24T08:58:28.871Z</time></trkpt><trkpt lat="45.6415355" lon="9.2685647"><ele>216.0</ele><time>2026-03-24T08:58:29.868Z</time></trkpt><trkpt lat="45.6416604" lon="9.268499"><ele>216.0</ele><time>2026-03-24T08:58:30.863Z</time></trkpt><trkpt lat="45.6417111" lon="9.2684357"><ele>216.0</ele><time>2026-03-24T08:58:31.871Z</time></trkpt><trkpt lat="45.6417903" lon="9.2684013"><ele>216.0</ele><time>2026-03-24T08:58:32.876Z</time></trkpt><trkpt lat="45.6419047" lon="9.2683405"><ele>216.0</ele><time>2026-03-24T08:58:34.866Z</time></trkpt><trkpt lat="45.6419839" lon="9.268293"><ele>216.0</ele><time>2026-03-24T08:59:00.882Z</time></trkpt><trkpt lat="45.6420542" lon="9.2682456"><ele>216.0</ele><time>2026-03-24T08:59:02.875Z</time></trkpt><trkpt lat="45.6421198" lon="9.2681834"><ele>216.0</ele><time>2026-03-24T08:59:04.878Z</time></trkpt><trkpt lat="45.6421748" lon="9.2680806"><ele>216.5</ele><time>2026-03-24T08:59:06.875Z</time></trkpt><trkpt lat="45.6422366" lon="9.2679946"><ele>217.0</ele><time>2026-03-24T08:59:08.888Z</time></trkpt><trkpt lat="45.6423135" lon="9.2679576"><ele>217.5</ele><time>2026-03-24T08:59:10.889Z</time></trkpt><trkpt lat="45.6424002" lon="9.2679113"><ele>218.0</ele><time>2026-03-24T08:59:12.882Z</time></trkpt><trkpt lat="45.6424725" lon="9.2678909"><ele>218.5</ele><time>2026-03-24T08:59:14.889Z</time></trkpt><trkpt lat="45.6425634" lon="9.267853"><ele>219.0</ele><time>2026-03-24T08:59:17.879Z</time></trkpt><trkpt lat="45.6426406" lon="9.2677852"><ele>219.0</ele><time>2026-03-24T08:59:19.88Z</time></trkpt><trkpt lat="45.6427553" lon="9.2677643"><ele>219.0</ele><time>2026-03-24T08:59:21.874Z</time></trkpt><trkpt lat="45.6428297" lon="9.267731"><ele>219.0</ele><time>2026-03-24T08:59:22.869Z</time></trkpt><trkpt lat="45.6428907" lon="9.2676911"><ele>219.0</ele><time>2026-03-24T08:59:23.873Z</time></trkpt><trkpt lat="45.6429579" lon="9.2676467"><ele>219.0</ele><time>2026-03-24T08:59:24.874Z</time></trkpt><trkpt lat="45.6430285" lon="9.2676088"><ele>219.0</ele><time>2026-03-24T08:59:25.874Z</time></trkpt><trkpt lat="45.6431037" lon="9.267569"><ele>219.16666666666666</ele><time>2026-03-24T08:59:26.869Z</time></trkpt><trkpt lat="45.6431897" lon="9.2675137"><ele>219.33333333333331</ele><time>2026-03-24T08:59:27.87Z</time></trkpt><trkpt lat="45.643282" lon="9.2674684"><ele>219.5</ele><time>2026-03-24T08:59:28.865Z</time></trkpt><trkpt lat="45.6433516" lon="9.2674263"><ele>219.66666666666666</ele><time>2026-03-24T08:59:29.856Z</time></trkpt><trkpt lat="45.6434136" lon="9.2673909"><ele>219.83333333333331</ele><time>2026-03-24T08:59:30.853Z</time></trkpt><trkpt lat="45.6434741" lon="9.2673431"><ele>220.0</ele><time>2026-03-24T08:59:31.863Z</time></trkpt><trkpt lat="45.6435315" lon="9.2672971"><ele>219.83333333333331</ele><time>2026-03-24T08:59:32.852Z</time></trkpt><trkpt lat="45.6436185" lon="9.267241"><ele>219.66666666666666</ele><time>2026-03-24T08:59:34.858Z</time></trkpt><trkpt lat="45.6436854" lon="9.2672393"><ele>219.5</ele><time>2026-03-24T08:59:36.857Z</time></trkpt><trkpt lat="45.6437574" lon="9.2672262"><ele>219.33333333333331</ele><time>2026-03-24T08:59:38.875Z</time></trkpt><trkpt lat="45.6438148" lon="9.2671755"><ele>219.16666666666666</ele><time>2026-03-24T08:59:41.869Z</time></trkpt><trkpt lat="45.6438782" lon="9.2671149"><ele>219.0</ele><time>2026-03-24T08:59:44.876Z</time></trkpt><trkpt lat="45.6439601" lon="9.2670297"><ele>219.33333333333334</ele><time>2026-03-24T08:59:46.891Z</time></trkpt><trkpt lat="45.6439989" lon="9.266958"><ele>219.66666666666669</ele><time>2026-03-24T08:59:47.884Z</time></trkpt><trkpt lat="45.6440622" lon="9.2668999"><ele>220.0</ele><time>2026-03-24T08:59:48.875Z</time></trkpt><trkpt lat="45.6441375" lon="9.2668593"><ele>220.33333333333334</ele><time>2026-03-24T08:59:49.872Z</time></trkpt><trkpt lat="45.6442082" lon="9.2667862"><ele>220.66666666666669</ele><time>2026-03-24T08:59:50.879Z</time></trkpt><trkpt lat="45.6442985" lon="9.2667228"><ele>221.0</ele><time>2026-03-24T08:59:51.88Z</time></trkpt><trkpt lat="45.6444127" lon="9.2666699"><ele>221.0</ele><time>2026-03-24T08:59:52.874Z</time></trkpt><trkpt lat="45.6445182" lon="9.266608"><ele>221.00000000000003</ele><time>2026-03-24T08:59:53.87Z</time></trkpt><trkpt lat="45.6446128" lon="9.2665627"><ele>221.00000000000003</ele><time>2026-03-24T08:59:54.869Z</time></trkpt><trkpt lat="45.6447082" lon="9.2665261"><ele>221.0</ele><time>2026-03-24T08:59:55.867Z</time></trkpt><trkpt lat="45.6448037" lon="9.2664714"><ele>221.0</ele><time>2026-03-24T08:59:56.873Z</time></trkpt><trkpt lat="45.6448816" lon="9.2664311"><ele>221.0</ele><time>2026-03-24T08:59:57.865Z</time></trkpt><trkpt lat="45.6449831" lon="9.2664448"><ele>221.00000000000003</ele><time>2026-03-24T08:59:59.87Z</time></trkpt><trkpt lat="45.6450411" lon="9.2665943"><ele>221.00000000000003</ele><time>2026-03-24T09:00:01.855Z</time></trkpt><trkpt lat="45.645072" lon="9.2667039"><ele>221.0</ele><time>2026-03-24T09:00:02.855Z</time></trkpt><trkpt lat="45.6451122" lon="9.2668372"><ele>221.0</ele><time>2026-03-24T09:00:03.848Z</time></trkpt><trkpt lat="45.6451382" lon="9.2669694"><ele>221.00000000000003</ele><time>2026-03-24T09:00:04.85Z</time></trkpt><trkpt lat="45.6451837" lon="9.2670735"><ele>221.0</ele><time>2026-03-24T09:00:05.859Z</time></trkpt><trkpt lat="45.6452083" lon="9.2671698"><ele>221.0</ele><time>2026-03-24T09:00:06.847Z</time></trkpt><trkpt lat="45.6452265" lon="9.2672675"><ele>221.0</ele><time>2026-03-24T09:00:07.849Z</time></trkpt><trkpt lat="45.6452774" lon="9.2673297"><ele>221.00000000000003</ele><time>2026-03-24T09:00:09.845Z</time></trkpt><trkpt lat="45.6453801" lon="9.2672711"><ele>221.0</ele><time>2026-03-24T09:00:11.86Z</time></trkpt><trkpt lat="45.6454269" lon="9.2672036"><ele>221.25</ele><time>2026-03-24T09:00:12.843Z</time></trkpt><trkpt lat="45.6455123" lon="9.2671371"><ele>221.5</ele><time>2026-03-24T09:00:13.839Z</time></trkpt><trkpt lat="45.6456368" lon="9.2670732"><ele>221.75</ele><time>2026-03-24T09:00:14.851Z</time></trkpt><trkpt lat="45.6457699" lon="9.2670063"><ele>222.0</ele><time>2026-03-24T09:00:15.853Z</time></trkpt><trkpt lat="45.6459297" lon="9.2669265"><ele>222.0</ele><time>2026-03-24T09:00:16.861Z</time></trkpt><trkpt lat="45.6460527" lon="9.2668599"><ele>222.0</ele><time>2026-03-24T09:00:17.871Z</time></trkpt><trkpt lat="45.6461832" lon="9.2668015"><ele>222.0</ele><time>2026-03-24T09:00:18.863Z</time></trkpt><trkpt lat="45.6462896" lon="9.2667581"><ele>222.0</ele><time>2026-03-24T09:00:19.856Z</time></trkpt><trkpt lat="45.6463859" lon="9.2666909"><ele>222.39999999999998</ele><time>2026-03-24T09:00:20.866Z</time></trkpt><trkpt lat="45.6464702" lon="9.2666345"><ele>222.79999999999998</ele><time>2026-03-24T09:00:21.868Z</time></trkpt><trkpt lat="45.6465632" lon="9.2665821"><ele>223.2</ele><time>2026-03-24T09:00:22.866Z</time></trkpt><trkpt lat="45.6466588" lon="9.2665055"><ele>223.6</ele><time>2026-03-24T09:00:23.867Z</time></trkpt><trkpt lat="45.6467771" lon="9.2664087"><ele>224.0</ele><time>2026-03-24T09:00:24.858Z</time></trkpt><trkpt lat="45.6468641" lon="9.2663"><ele>224.0</ele><time>2026-03-24T09:00:25.863Z</time></trkpt><trkpt lat="45.6469765" lon="9.2662172"><ele>224.0</ele><time>2026-03-24T09:00:26.851Z</time></trkpt><trkpt lat="45.6470845" lon="9.2661457"><ele>224.0</ele><time>2026-03-24T09:00:27.847Z</time></trkpt><trkpt lat="45.6471995" lon="9.2660799"><ele>224.0</ele><time>2026-03-24T09:00:28.858Z</time></trkpt><trkpt lat="45.6472944" lon="9.266029"><ele>224.0</ele><time>2026-03-24T09:00:29.855Z</time></trkpt><trkpt lat="45.6473782" lon="9.2659754"><ele>223.99999999999997</ele><time>2026-03-24T09:00:30.858Z</time></trkpt><trkpt lat="45.6474492" lon="9.2659239"><ele>223.99999999999997</ele><time>2026-03-24T09:00:31.86Z</time></trkpt><trkpt lat="45.6475292" lon="9.2658974"><ele>224.0</ele><time>2026-03-24T09:00:32.852Z</time></trkpt><trkpt lat="45.6476125" lon="9.2658109"><ele>224.0</ele><time>2026-03-24T09:00:34.849Z</time></trkpt><trkpt lat="45.6475587" lon="9.265638"><ele>223.66666666666669</ele><time>2026-03-24T09:00:36.856Z</time></trkpt><trkpt lat="45.6475243" lon="9.2655591"><ele>223.33333333333334</ele><time>2026-03-24T09:00:37.853Z</time></trkpt><trkpt lat="45.6474662" lon="9.2654783"><ele>223.0</ele><time>2026-03-24T09:00:38.858Z</time></trkpt><trkpt lat="45.647393" lon="9.2653866"><ele>222.66666666666669</ele><time>2026-03-24T09:00:39.862Z</time></trkpt><trkpt lat="45.6473288" lon="9.2652941"><ele>222.33333333333334</ele><time>2026-03-24T09:00:40.875Z</time></trkpt><trkpt lat="45.647282" lon="9.2652052"><ele>222.0</ele><time>2026-03-24T09:00:41.875Z</time></trkpt><trkpt lat="45.6472291" lon="9.2651527"><ele>222.0</ele><time>2026-03-24T09:00:42.867Z</time></trkpt><trkpt lat="45.6471599" lon="9.2650121"><ele>222.0</ele><time>2026-03-24T09:00:44.873Z</time></trkpt><trkpt lat="45.6471653" lon="9.2649097"><ele>222.0</ele><time>2026-03-24T09:00:46.867Z</time></trkpt><trkpt lat="45.6472238" lon="9.2648721"><ele>222.0</ele><time>2026-03-24T09:00:47.863Z</time></trkpt><trkpt lat="45.6472861" lon="9.2648565"><ele>222.0</ele><time>2026-03-24T09:00:48.88Z</time></trkpt><trkpt lat="45.6473558" lon="9.2648062"><ele>222.0</ele><time>2026-03-24T09:00:49.874Z</time></trkpt><trkpt lat="45.6474522" lon="9.2647389"><ele>222.2</ele><time>2026-03-24T09:00:50.863Z</time></trkpt><trkpt lat="45.6475528" lon="9.26469"><ele>222.39999999999998</ele><time>2026-03-24T09:00:51.864Z</time></trkpt><trkpt lat="45.647635" lon="9.2646621"><ele>222.60000000000002</ele><time>2026-03-24T09:00:52.862Z</time></trkpt><trkpt lat="45.6477441" lon="9.2646495"><ele>222.8</ele><time>2026-03-24T09:00:54.88Z</time></trkpt><trkpt lat="45.6478299" lon="9.26461"><ele>223.0</ele><time>2026-03-24T09:00:56.895Z</time></trkpt><trkpt lat="45.6478993" lon="9.2646219"><ele>223.0</ele><time>2026-03-24T09:00:57.882Z</time></trkpt><trkpt lat="45.6479837" lon="9.2646411"><ele>223.0</ele><time>2026-03-24T09:00:58.881Z</time></trkpt><trkpt lat="45.6480722" lon="9.2646288"><ele>223.0</ele><time>2026-03-24T09:00:59.886Z</time></trkpt><trkpt lat="45.6481658" lon="9.2646312"><ele>223.0</ele><time>2026-03-24T09:01:00.887Z</time></trkpt><trkpt lat="45.648266" lon="9.2646321"><ele>223.0</ele><time>2026-03-24T09:01:01.887Z</time></trkpt><trkpt lat="45.6483722" lon="9.2646395"><ele>223.0</ele><time>2026-03-24T09:01:02.88Z</time></trkpt><trkpt lat="45.6484755" lon="9.2646491"><ele>223.0</ele><time>2026-03-24T09:01:03.876Z</time></trkpt><trkpt lat="45.6485695" lon="9.2646737"><ele>223.0</ele><time>2026-03-24T09:01:04.879Z</time></trkpt><trkpt lat="45.6486471" lon="9.264731"><ele>223.0</ele><time>2026-03-24T09:01:05.889Z</time></trkpt><trkpt lat="45.6487544" lon="9.2647942"><ele>223.0</ele><time>2026-03-24T09:01:07.877Z</time></trkpt><trkpt lat="45.648865" lon="9.2647912"><ele>223.2</ele><time>2026-03-24T09:01:09.874Z</time></trkpt><trkpt lat="45.6489381" lon="9.2647915"><ele>223.4</ele><time>2026-03-24T09:01:10.891Z</time></trkpt><trkpt lat="45.6490374" lon="9.2647905"><ele>223.59999999999997</ele><time>2026-03-24T09:01:11.874Z</time></trkpt><trkpt lat="45.6491604" lon="9.2647459"><ele>223.79999999999998</ele><time>2026-03-24T09:01:12.879Z</time></trkpt><trkpt lat="45.6492816" lon="9.2646852"><ele>224.0</ele><time>2026-03-24T09:01:13.893Z</time></trkpt><trkpt lat="45.6493911" lon="9.2646224"><ele>224.75</ele><time>2026-03-24T09:01:14.889Z</time></trkpt><trkpt lat="45.6494855" lon="9.2645328"><ele>225.5</ele><time>2026-03-24T09:01:15.886Z</time></trkpt><trkpt lat="45.6495847" lon="9.2644286"><ele>226.25</ele><time>2026-03-24T09:01:16.89Z</time></trkpt><trkpt lat="45.6496691" lon="9.2642915"><ele>227.0</ele><time>2026-03-24T09:01:17.88Z</time></trkpt><trkpt lat="45.6497485" lon="9.2641518"><ele>227.0</ele><time>2026-03-24T09:01:18.877Z</time></trkpt><trkpt lat="45.6498458" lon="9.2640131"><ele>227.0</ele><time>2026-03-24T09:01:19.879Z</time></trkpt><trkpt lat="45.6499462" lon="9.2638331"><ele>227.0</ele><time>2026-03-24T09:01:20.873Z</time></trkpt><trkpt lat="45.6500425" lon="9.2636224"><ele>227.0</ele><time>2026-03-24T09:01:21.871Z</time></trkpt><trkpt lat="45.6501167" lon="9.2634385"><ele>227.0</ele><time>2026-03-24T09:01:22.862Z</time></trkpt><trkpt lat="45.6502038" lon="9.2633025"><ele>227.0</ele><time>2026-03-24T09:01:23.872Z</time></trkpt><trkpt lat="45.6503085" lon="9.2631875"><ele>227.0</ele><time>2026-03-24T09:01:24.878Z</time></trkpt><trkpt lat="45.6503889" lon="9.2630801"><ele>226.75</ele><time>2026-03-24T09:01:25.875Z</time></trkpt><trkpt lat="45.6504965" lon="9.2629536"><ele>226.5</ele><time>2026-03-24T09:01:26.882Z</time></trkpt><trkpt lat="45.650613" lon="9.262784"><ele>226.25</ele><time>2026-03-24T09:01:27.881Z</time></trkpt><trkpt lat="45.6507048" lon="9.2626297"><ele>226.0</ele><time>2026-03-24T09:01:28.89Z</time></trkpt><trkpt lat="45.6508079" lon="9.262482"><ele>226.0</ele><time>2026-03-24T09:01:29.886Z</time></trkpt><trkpt lat="45.6509251" lon="9.2623498"><ele>226.0</ele><time>2026-03-24T09:01:30.877Z</time></trkpt><trkpt lat="45.6510542" lon="9.2622236"><ele>226.0</ele><time>2026-03-24T09:01:31.884Z</time></trkpt><trkpt lat="45.6512175" lon="9.2621263"><ele>225.75</ele><time>2026-03-24T09:01:32.881Z</time></trkpt><trkpt lat="45.6513616" lon="9.2620215"><ele>225.5</ele><time>2026-03-24T09:01:33.883Z</time></trkpt><trkpt lat="45.651493" lon="9.2619261"><ele>225.25</ele><time>2026-03-24T09:01:34.886Z</time></trkpt><trkpt lat="45.6516155" lon="9.2618637"><ele>225.0</ele><time>2026-03-24T09:01:35.885Z</time></trkpt><trkpt lat="45.6517782" lon="9.2618053"><ele>225.0</ele><time>2026-03-24T09:01:36.878Z</time></trkpt><trkpt lat="45.6519435" lon="9.2617164"><ele>225.0</ele><time>2026-03-24T09:01:37.879Z</time></trkpt><trkpt lat="45.652111" lon="9.2616119"><ele>225.0</ele><time>2026-03-24T09:01:38.87Z</time></trkpt><trkpt lat="45.6522915" lon="9.2614999"><ele>226.0</ele><time>2026-03-24T09:01:39.875Z</time></trkpt><trkpt lat="45.6524753" lon="9.2613609"><ele>227.0</ele><time>2026-03-24T09:01:40.884Z</time></trkpt><trkpt lat="45.6526391" lon="9.261238"><ele>228.0</ele><time>2026-03-24T09:01:41.887Z</time></trkpt><trkpt lat="45.6528197" lon="9.2610934"><ele>228.33333333333331</ele><time>2026-03-24T09:01:42.89Z</time></trkpt><trkpt lat="45.6530086" lon="9.2609333"><ele>228.66666666666666</ele><time>2026-03-24T09:01:43.892Z</time></trkpt><trkpt lat="45.6531825" lon="9.2607862"><ele>229.0</ele><time>2026-03-24T09:01:44.891Z</time></trkpt><trkpt lat="45.6533807" lon="9.2606546"><ele>229.0</ele><time>2026-03-24T09:01:45.893Z</time></trkpt><trkpt lat="45.6535499" lon="9.2605379"><ele>229.0</ele><time>2026-03-24T09:01:46.889Z</time></trkpt><trkpt lat="45.653716" lon="9.2604189"><ele>229.0</ele><time>2026-03-24T09:01:47.877Z</time></trkpt><trkpt lat="45.6538448" lon="9.2602601"><ele>229.0</ele><time>2026-03-24T09:01:48.881Z</time></trkpt><trkpt lat="45.6539936" lon="9.2600755"><ele>229.0</ele><time>2026-03-24T09:01:49.874Z</time></trkpt><trkpt lat="45.654151" lon="9.2598977"><ele>229.0</ele><time>2026-03-24T09:01:50.897Z</time></trkpt><trkpt lat="45.6542998" lon="9.2597267"><ele>229.0</ele><time>2026-03-24T09:01:51.885Z</time></trkpt><trkpt lat="45.6544443" lon="9.2595362"><ele>229.0</ele><time>2026-03-24T09:01:52.885Z</time></trkpt><trkpt lat="45.6545624" lon="9.2593555"><ele>229.0</ele><time>2026-03-24T09:01:53.891Z</time></trkpt><trkpt lat="45.6547043" lon="9.2591577"><ele>229.0</ele><time>2026-03-24T09:01:54.886Z</time></trkpt><trkpt lat="45.6548492" lon="9.258954"><ele>229.0</ele><time>2026-03-24T09:01:55.887Z</time></trkpt><trkpt lat="45.6549771" lon="9.2587464"><ele>229.0</ele><time>2026-03-24T09:01:56.877Z</time></trkpt><trkpt lat="45.6551107" lon="9.258553"><ele>229.0</ele><time>2026-03-24T09:01:57.878Z</time></trkpt><trkpt lat="45.6552337" lon="9.2583978"><ele>229.0</ele><time>2026-03-24T09:01:58.887Z</time></trkpt><trkpt lat="45.6553589" lon="9.2582476"><ele>229.0</ele><time>2026-03-24T09:01:59.882Z</time></trkpt><trkpt lat="45.6554631" lon="9.258105"><ele>229.25</ele><time>2026-03-24T09:02:00.882Z</time></trkpt><trkpt lat="45.6555366" lon="9.2579669"><ele>229.5</ele><time>2026-03-24T09:02:01.88Z</time></trkpt><trkpt lat="45.6555951" lon="9.2578367"><ele>229.75</ele><time>2026-03-24T09:02:02.883Z</time></trkpt><trkpt lat="45.6556988" lon="9.2577059"><ele>230.0</ele><time>2026-03-24T09:02:03.879Z</time></trkpt><trkpt lat="45.6558022" lon="9.2575994"><ele>230.0</ele><time>2026-03-24T09:02:04.883Z</time></trkpt><trkpt lat="45.6558726" lon="9.257476"><ele>230.0</ele><time>2026-03-24T09:02:05.892Z</time></trkpt><trkpt lat="45.6559634" lon="9.2573454"><ele>230.0</ele><time>2026-03-24T09:02:06.879Z</time></trkpt><trkpt lat="45.6560481" lon="9.2572262"><ele>230.0</ele><time>2026-03-24T09:02:07.882Z</time></trkpt><trkpt lat="45.6561585" lon="9.2571075"><ele>230.5</ele><time>2026-03-24T09:02:08.885Z</time></trkpt><trkpt lat="45.6562526" lon="9.2569748"><ele>231.0</ele><time>2026-03-24T09:02:09.882Z</time></trkpt><trkpt lat="45.6563487" lon="9.2568549"><ele>231.5</ele><time>2026-03-24T09:02:10.88Z</time></trkpt><trkpt lat="45.6564461" lon="9.2567446"><ele>232.0</ele><time>2026-03-24T09:02:11.879Z</time></trkpt><trkpt lat="45.6565409" lon="9.2566326"><ele>232.0</ele><time>2026-03-24T09:02:12.874Z</time></trkpt><trkpt lat="45.6566243" lon="9.2565258"><ele>232.0</ele><time>2026-03-24T09:02:13.874Z</time></trkpt><trkpt lat="45.6566994" lon="9.2564336"><ele>232.0</ele><time>2026-03-24T09:02:14.876Z</time></trkpt><trkpt lat="45.6567489" lon="9.2563302"><ele>232.0</ele><time>2026-03-24T09:02:15.876Z</time></trkpt><trkpt lat="45.6567922" lon="9.256232"><ele>232.0</ele><time>2026-03-24T09:02:16.885Z</time></trkpt><trkpt lat="45.65684" lon="9.2561433"><ele>231.99999999999997</ele><time>2026-03-24T09:02:17.876Z</time></trkpt><trkpt lat="45.656893" lon="9.2560744"><ele>232.0</ele><time>2026-03-24T09:02:18.871Z</time></trkpt><trkpt lat="45.6569428" lon="9.2559756"><ele>232.0</ele><time>2026-03-24T09:02:20.867Z</time></trkpt><trkpt lat="45.6569947" lon="9.2559147"><ele>232.0</ele><time>2026-03-24T09:03:02.888Z</time></trkpt><trkpt lat="45.657107" lon="9.2559489"><ele>231.99999999999997</ele><time>2026-03-24T09:03:04.866Z</time></trkpt><trkpt lat="45.6571653" lon="9.256022"><ele>232.0</ele><time>2026-03-24T09:03:05.869Z</time></trkpt><trkpt lat="45.6572203" lon="9.2561004"><ele>231.99999999999997</ele><time>2026-03-24T09:03:06.869Z</time></trkpt><trkpt lat="45.6572687" lon="9.2561798"><ele>232.0</ele><time>2026-03-24T09:03:07.866Z</time></trkpt><trkpt lat="45.6573305" lon="9.2562378"><ele>232.0</ele><time>2026-03-24T09:03:08.879Z</time></trkpt><trkpt lat="45.6573965" lon="9.256311"><ele>232.0</ele><time>2026-03-24T09:03:09.874Z</time></trkpt><trkpt lat="45.6574659" lon="9.2563902"><ele>231.99999999999997</ele><time>2026-03-24T09:03:10.877Z</time></trkpt><trkpt lat="45.6575255" lon="9.2565001"><ele>232.0</ele><time>2026-03-24T09:03:11.879Z</time></trkpt><trkpt lat="45.6575915" lon="9.2566155"><ele>232.25</ele><time>2026-03-24T09:03:12.877Z</time></trkpt><trkpt lat="45.6576581" lon="9.2567422"><ele>232.5</ele><time>2026-03-24T09:03:13.87Z</time></trkpt><trkpt lat="45.65774" lon="9.2568606"><ele>232.75</ele><time>2026-03-24T09:03:14.879Z</time></trkpt><trkpt lat="45.6578117" lon="9.2569823"><ele>233.0</ele><time>2026-03-24T09:03:15.881Z</time></trkpt><trkpt lat="45.6578942" lon="9.2570999"><ele>233.00000000000003</ele><time>2026-03-24T09:03:16.881Z</time></trkpt><trkpt lat="45.6579776" lon="9.2572006"><ele>233.0</ele><time>2026-03-24T09:03:17.871Z</time></trkpt><trkpt lat="45.6580258" lon="9.2572611"><ele>233.0</ele><time>2026-03-24T09:03:18.873Z</time></trkpt><trkpt lat="45.6580776" lon="9.2573299"><ele>233.0</ele><time>2026-03-24T09:03:19.867Z</time></trkpt><trkpt lat="45.6581866" lon="9.2573677"><ele>233.00000000000003</ele><time>2026-03-24T09:03:21.87Z</time></trkpt><trkpt lat="45.6582476" lon="9.2573342"><ele>233.0</ele><time>2026-03-24T09:03:22.883Z</time></trkpt><trkpt lat="45.6582963" lon="9.2572423"><ele>233.0</ele><time>2026-03-24T09:03:23.873Z</time></trkpt><trkpt lat="45.6583564" lon="9.2571468"><ele>233.0</ele><time>2026-03-24T09:03:24.866Z</time></trkpt><trkpt lat="45.6584241" lon="9.2570103"><ele>233.0</ele><time>2026-03-24T09:03:25.859Z</time></trkpt><trkpt lat="45.6584876" lon="9.2568586"><ele>233.0</ele><time>2026-03-24T09:03:26.865Z</time></trkpt><trkpt lat="45.6585491" lon="9.2566955"><ele>233.0</ele><time>2026-03-24T09:03:27.867Z</time></trkpt><trkpt lat="45.6585856" lon="9.256541"><ele>233.0</ele><time>2026-03-24T09:03:28.87Z</time></trkpt><trkpt lat="45.6586319" lon="9.2564063"><ele>233.0</ele><time>2026-03-24T09:03:29.866Z</time></trkpt><trkpt lat="45.6587161" lon="9.2562899"><ele>233.0</ele><time>2026-03-24T09:03:30.864Z</time></trkpt><trkpt lat="45.658773" lon="9.256199"><ele>233.0</ele><time>2026-03-24T09:03:31.864Z</time></trkpt><trkpt lat="45.6588226" lon="9.256123"><ele>233.66666666666669</ele><time>2026-03-24T09:03:32.868Z</time></trkpt><trkpt lat="45.6588705" lon="9.256064"><ele>234.33333333333334</ele><time>2026-03-24T09:03:33.878Z</time></trkpt><trkpt lat="45.6589215" lon="9.256004"><ele>235.0</ele><time>2026-03-24T09:03:34.876Z</time></trkpt><trkpt lat="45.6589613" lon="9.2559313"><ele>235.66666666666669</ele><time>2026-03-24T09:03:35.88Z</time></trkpt><trkpt lat="45.6590277" lon="9.2558194"><ele>236.33333333333334</ele><time>2026-03-24T09:03:37.88Z</time></trkpt><trkpt lat="45.6591047" lon="9.2557599"><ele>237.0</ele><time>2026-03-24T09:03:39.878Z</time></trkpt><trkpt lat="45.6592384" lon="9.2558173"><ele>237.0</ele><time>2026-03-24T09:03:41.871Z</time></trkpt><trkpt lat="45.6593192" lon="9.2558659"><ele>237.0</ele><time>2026-03-24T09:03:42.87Z</time></trkpt><trkpt lat="45.6594018" lon="9.2559074"><ele>237.0</ele><time>2026-03-24T09:03:43.869Z</time></trkpt><trkpt lat="45.6594822" lon="9.2559242"><ele>237.0</ele><time>2026-03-24T09:03:44.876Z</time></trkpt><trkpt lat="45.6595552" lon="9.2559386"><ele>237.0</ele><time>2026-03-24T09:03:45.864Z</time></trkpt><trkpt lat="45.6596397" lon="9.2559398"><ele>237.0</ele><time>2026-03-24T09:03:46.852Z</time></trkpt><trkpt lat="45.6597352" lon="9.2559216"><ele>237.5</ele><time>2026-03-24T09:03:47.858Z</time></trkpt><trkpt lat="45.6598396" lon="9.2559247"><ele>238.0</ele><time>2026-03-24T09:03:48.855Z</time></trkpt><trkpt lat="45.6599746" lon="9.2558777"><ele>238.5</ele><time>2026-03-24T09:03:49.859Z</time></trkpt><trkpt lat="45.6600872" lon="9.2558428"><ele>239.0</ele><time>2026-03-24T09:03:50.865Z</time></trkpt><trkpt lat="45.6601866" lon="9.2557985"><ele>238.2</ele><time>2026-03-24T09:03:51.864Z</time></trkpt><trkpt lat="45.6602906" lon="9.2557684"><ele>237.39999999999998</ele><time>2026-03-24T09:03:52.854Z</time></trkpt><trkpt lat="45.6603943" lon="9.255768"><ele>236.6</ele><time>2026-03-24T09:03:53.876Z</time></trkpt><trkpt lat="45.6604914" lon="9.2557746"><ele>235.8</ele><time>2026-03-24T09:03:54.857Z</time></trkpt><trkpt lat="45.6605811" lon="9.2558084"><ele>235.0</ele><time>2026-03-24T09:03:55.851Z</time></trkpt><trkpt lat="45.6606641" lon="9.255828"><ele>235.0</ele><time>2026-03-24T09:03:56.846Z</time></trkpt><trkpt lat="45.660739" lon="9.2558474"><ele>235.0</ele><time>2026-03-24T09:03:57.842Z</time></trkpt><trkpt lat="45.6607998" lon="9.2558726"><ele>235.0</ele><time>2026-03-24T09:03:58.853Z</time></trkpt><trkpt lat="45.6609964" lon="9.2560194"><ele>235.0</ele><time>2026-03-24T09:04:04.873Z</time></trkpt><trkpt lat="45.6610626" lon="9.2560695"><ele>235.0</ele><time>2026-03-24T09:04:06.867Z</time></trkpt><trkpt lat="45.6611537" lon="9.2561402"><ele>233.8</ele><time>2026-03-24T09:04:08.862Z</time></trkpt><trkpt lat="45.6612284" lon="9.2561473"><ele>232.6</ele><time>2026-03-24T09:04:10.858Z</time></trkpt><trkpt lat="45.6613282" lon="9.2561684"><ele>231.39999999999998</ele><time>2026-03-24T09:04:12.86Z</time></trkpt><trkpt lat="45.6614022" lon="9.2561809"><ele>230.2</ele><time>2026-03-24T09:04:14.865Z</time></trkpt><trkpt lat="45.6615012" lon="9.256232"><ele>229.0</ele><time>2026-03-24T09:04:16.871Z</time></trkpt><trkpt lat="45.6616115" lon="9.2562835"><ele>228.99999999999997</ele><time>2026-03-24T09:04:18.872Z</time></trkpt><trkpt lat="45.6616729" lon="9.2563154"><ele>229.0</ele><time>2026-03-24T09:04:19.876Z</time></trkpt><trkpt lat="45.6617392" lon="9.2563456"><ele>229.0</ele><time>2026-03-24T09:04:20.875Z</time></trkpt><trkpt lat="45.6618111" lon="9.2563775"><ele>229.0</ele><time>2026-03-24T09:04:21.872Z</time></trkpt><trkpt lat="45.6618859" lon="9.2564206"><ele>228.99999999999997</ele><time>2026-03-24T09:04:22.883Z</time></trkpt><trkpt lat="45.6619622" lon="9.2564604"><ele>229.0</ele><time>2026-03-24T09:04:23.885Z</time></trkpt><trkpt lat="45.6620396" lon="9.2564932"><ele>228.39999999999998</ele><time>2026-03-24T09:04:24.898Z</time></trkpt><trkpt lat="45.6621293" lon="9.256522"><ele>227.79999999999998</ele><time>2026-03-24T09:04:25.884Z</time></trkpt><trkpt lat="45.6622335" lon="9.2565435"><ele>227.20000000000002</ele><time>2026-03-24T09:04:26.88Z</time></trkpt><trkpt lat="45.6623559" lon="9.2565291"><ele>226.60000000000002</ele><time>2026-03-24T09:04:27.88Z</time></trkpt><trkpt lat="45.6624741" lon="9.2564961"><ele>226.0</ele><time>2026-03-24T09:04:28.885Z</time></trkpt><trkpt lat="45.6625911" lon="9.2564465"><ele>226.0</ele><time>2026-03-24T09:04:29.882Z</time></trkpt><trkpt lat="45.6627068" lon="9.2563886"><ele>226.0</ele><time>2026-03-24T09:04:30.881Z</time></trkpt><trkpt lat="45.6628185" lon="9.2563252"><ele>226.0</ele><time>2026-03-24T09:04:31.875Z</time></trkpt><trkpt lat="45.6629215" lon="9.2562608"><ele>226.0</ele><time>2026-03-24T09:04:32.874Z</time></trkpt><trkpt lat="45.6630309" lon="9.2562012"><ele>225.4</ele><time>2026-03-24T09:04:33.872Z</time></trkpt><trkpt lat="45.663134" lon="9.2561443"><ele>224.8</ele><time>2026-03-24T09:04:34.881Z</time></trkpt><trkpt lat="45.6632359" lon="9.2560809"><ele>224.20000000000002</ele><time>2026-03-24T09:04:35.88Z</time></trkpt><trkpt lat="45.6633228" lon="9.2560045"><ele>223.60000000000002</ele><time>2026-03-24T09:04:36.887Z</time></trkpt><trkpt lat="45.6633946" lon="9.2559337"><ele>223.0</ele><time>2026-03-24T09:04:37.891Z</time></trkpt><trkpt lat="45.6634693" lon="9.2558531"><ele>223.0</ele><time>2026-03-24T09:04:38.893Z</time></trkpt><trkpt lat="45.6635488" lon="9.2557701"><ele>223.0</ele><time>2026-03-24T09:04:39.896Z</time></trkpt><trkpt lat="45.6636236" lon="9.2557005"><ele>223.0</ele><time>2026-03-24T09:04:40.897Z</time></trkpt><trkpt lat="45.6637028" lon="9.2556285"><ele>223.0</ele><time>2026-03-24T09:04:41.892Z</time></trkpt><trkpt lat="45.6637835" lon="9.255566"><ele>223.0</ele><time>2026-03-24T09:04:42.892Z</time></trkpt><trkpt lat="45.6638662" lon="9.2555007"><ele>224.0</ele><time>2026-03-24T09:04:43.893Z</time></trkpt><trkpt lat="45.6639447" lon="9.2554402"><ele>225.0</ele><time>2026-03-24T09:04:44.891Z</time></trkpt><trkpt lat="45.6640316" lon="9.2553892"><ele>226.0</ele><time>2026-03-24T09:04:45.886Z</time></trkpt><trkpt lat="45.6641185" lon="9.2553236"><ele>227.0</ele><time>2026-03-24T09:04:46.892Z</time></trkpt><trkpt lat="45.6642049" lon="9.2552573"><ele>228.0</ele><time>2026-03-24T09:04:47.888Z</time></trkpt><trkpt lat="45.6642773" lon="9.255192"><ele>228.0</ele><time>2026-03-24T09:04:48.888Z</time></trkpt><trkpt lat="45.6643448" lon="9.2551333"><ele>228.0</ele><time>2026-03-24T09:04:49.892Z</time></trkpt><trkpt lat="45.664437" lon="9.2550744"><ele>228.0</ele><time>2026-03-24T09:04:51.882Z</time></trkpt><trkpt lat="45.6644947" lon="9.2549952"><ele>228.0</ele><time>2026-03-24T09:04:53.879Z</time></trkpt><trkpt lat="45.6644627" lon="9.2548672"><ele>228.0</ele><time>2026-03-24T09:04:55.89Z</time></trkpt><trkpt lat="45.6644" lon="9.2547154"><ele>228.66666666666666</ele><time>2026-03-24T09:04:57.875Z</time></trkpt><trkpt lat="45.6643499" lon="9.2546274"><ele>229.33333333333331</ele><time>2026-03-24T09:04:58.887Z</time></trkpt><trkpt lat="45.6642946" lon="9.2545364"><ele>230.0</ele><time>2026-03-24T09:04:59.875Z</time></trkpt><trkpt lat="45.6642491" lon="9.2544469"><ele>230.66666666666666</ele><time>2026-03-24T09:05:00.877Z</time></trkpt><trkpt lat="45.6642048" lon="9.2543587"><ele>231.33333333333331</ele><time>2026-03-24T09:05:01.877Z</time></trkpt><trkpt lat="45.6641582" lon="9.2542746"><ele>232.0</ele><time>2026-03-24T09:05:02.877Z</time></trkpt><trkpt lat="45.6641153" lon="9.25419"><ele>231.99999999999997</ele><time>2026-03-24T09:05:03.88Z</time></trkpt><trkpt lat="45.664072" lon="9.2541117"><ele>232.0</ele><time>2026-03-24T09:05:04.877Z</time></trkpt><trkpt lat="45.6640051" lon="9.2539968"><ele>232.0</ele><time>2026-03-24T09:05:06.881Z</time></trkpt><trkpt lat="45.663983" lon="9.253904"><ele>232.0</ele><time>2026-03-24T09:05:08.873Z</time></trkpt><trkpt lat="45.6640606" lon="9.253823"><ele>231.99999999999997</ele><time>2026-03-24T09:05:11.882Z</time></trkpt><trkpt lat="45.6641336" lon="9.2537706"><ele>232.0</ele><time>2026-03-24T09:05:13.879Z</time></trkpt><trkpt lat="45.6642402" lon="9.2536944"><ele>231.99999999999997</ele><time>2026-03-24T09:05:15.881Z</time></trkpt><trkpt lat="45.6643112" lon="9.2536491"><ele>232.0</ele><time>2026-03-24T09:05:16.889Z</time></trkpt><trkpt lat="45.6643819" lon="9.2536187"><ele>232.0</ele><time>2026-03-24T09:05:17.888Z</time></trkpt><trkpt lat="45.664449" lon="9.2535751"><ele>232.0</ele><time>2026-03-24T09:05:18.884Z</time></trkpt><trkpt lat="45.6645204" lon="9.2535346"><ele>231.99999999999997</ele><time>2026-03-24T09:05:19.881Z</time></trkpt><trkpt lat="45.6645817" lon="9.2535027"><ele>232.0</ele><time>2026-03-24T09:05:20.884Z</time></trkpt><trkpt lat="45.6646786" lon="9.2534405"><ele>232.0</ele><time>2026-03-24T09:05:22.887Z</time></trkpt><trkpt lat="45.6647706" lon="9.2533541"><ele>232.0</ele><time>2026-03-24T09:05:24.884Z</time></trkpt><trkpt lat="45.6648528" lon="9.2532438"><ele>232.0</ele><time>2026-03-24T09:05:26.898Z</time></trkpt><trkpt lat="45.6649184" lon="9.2532133"><ele>232.0</ele><time>2026-03-24T09:05:27.886Z</time></trkpt><trkpt lat="45.6650244" lon="9.2531422"><ele>232.0</ele><time>2026-03-24T09:05:29.874Z</time></trkpt><trkpt lat="45.6650833" lon="9.2531053"><ele>231.49999999999997</ele><time>2026-03-24T09:05:30.878Z</time></trkpt><trkpt lat="45.6651458" lon="9.2530743"><ele>231.0</ele><time>2026-03-24T09:05:31.878Z</time></trkpt><trkpt lat="45.6652195" lon="9.2530335"><ele>230.5</ele><time>2026-03-24T09:05:32.888Z</time></trkpt><trkpt lat="45.6652847" lon="9.2530024"><ele>230.0</ele><time>2026-03-24T09:05:33.885Z</time></trkpt><trkpt lat="45.6653924" lon="9.2529419"><ele>229.49999999999997</ele><time>2026-03-24T09:05:35.886Z</time></trkpt><trkpt lat="45.6654968" lon="9.2528625"><ele>229.0</ele><time>2026-03-24T09:05:37.881Z</time></trkpt><trkpt lat="45.6655558" lon="9.2528249"><ele>228.83333333333331</ele><time>2026-03-24T09:05:38.876Z</time></trkpt><trkpt lat="45.6656598" lon="9.2527239"><ele>228.66666666666666</ele><time>2026-03-24T09:05:40.887Z</time></trkpt><trkpt lat="45.665711" lon="9.2526573"><ele>228.5</ele><time>2026-03-24T09:05:41.882Z</time></trkpt><trkpt lat="45.6657447" lon="9.252569"><ele>228.33333333333331</ele><time>2026-03-24T09:05:42.879Z</time></trkpt><trkpt lat="45.6657812" lon="9.2524859"><ele>228.16666666666666</ele><time>2026-03-24T09:05:43.886Z</time></trkpt><trkpt lat="45.6658186" lon="9.252398"><ele>228.0</ele><time>2026-03-24T09:05:44.884Z</time></trkpt><trkpt lat="45.6658523" lon="9.2523049"><ele>228.16666666666666</ele><time>2026-03-24T09:05:45.891Z</time></trkpt><trkpt lat="45.6658937" lon="9.2522195"><ele>228.33333333333331</ele><time>2026-03-24T09:05:46.893Z</time></trkpt><trkpt lat="45.6659321" lon="9.2521216"><ele>228.5</ele><time>2026-03-24T09:05:47.888Z</time></trkpt><trkpt lat="45.6659799" lon="9.2520309"><ele>228.66666666666666</ele><time>2026-03-24T09:05:48.883Z</time></trkpt><trkpt lat="45.6660092" lon="9.2519279"><ele>228.83333333333331</ele><time>2026-03-24T09:05:49.879Z</time></trkpt><trkpt lat="45.6660609" lon="9.2518506"><ele>229.0</ele><time>2026-03-24T09:05:50.885Z</time></trkpt><trkpt lat="45.6661083" lon="9.2517736"><ele>229.16666666666666</ele><time>2026-03-24T09:05:51.887Z</time></trkpt><trkpt lat="45.6661641" lon="9.2517193"><ele>229.33333333333331</ele><time>2026-03-24T09:05:52.886Z</time></trkpt><trkpt lat="45.6662015" lon="9.2516454"><ele>229.5</ele><time>2026-03-24T09:05:53.887Z</time></trkpt><trkpt lat="45.666229" lon="9.2514812"><ele>229.66666666666669</ele><time>2026-03-24T09:05:55.893Z</time></trkpt><trkpt lat="45.6662405" lon="9.2513884"><ele>229.83333333333334</ele><time>2026-03-24T09:05:56.892Z</time></trkpt><trkpt lat="45.6662435" lon="9.2512916"><ele>230.0</ele><time>2026-03-24T09:05:57.905Z</time></trkpt><trkpt lat="45.6662349" lon="9.2511863"><ele>230.16666666666669</ele><time>2026-03-24T09:05:58.885Z</time></trkpt><trkpt lat="45.666218" lon="9.2510818"><ele>230.33333333333334</ele><time>2026-03-24T09:05:59.89Z</time></trkpt><trkpt lat="45.6662072" lon="9.2509883"><ele>230.5</ele><time>2026-03-24T09:06:00.88Z</time></trkpt><trkpt lat="45.6661961" lon="9.2508108"><ele>230.66666666666669</ele><time>2026-03-24T09:06:02.884Z</time></trkpt><trkpt lat="45.6661897" lon="9.2507159"><ele>230.83333333333334</ele><time>2026-03-24T09:06:03.874Z</time></trkpt><trkpt lat="45.6662121" lon="9.250624"><ele>231.0</ele><time>2026-03-24T09:06:04.874Z</time></trkpt><trkpt lat="45.66623" lon="9.2505287"><ele>230.66666666666666</ele><time>2026-03-24T09:06:05.88Z</time></trkpt><trkpt lat="45.6662582" lon="9.2504297"><ele>230.33333333333331</ele><time>2026-03-24T09:06:06.874Z</time></trkpt><trkpt lat="45.6662738" lon="9.2503375"><ele>230.0</ele><time>2026-03-24T09:06:07.883Z</time></trkpt><trkpt lat="45.6663348" lon="9.2501782"><ele>229.66666666666666</ele><time>2026-03-24T09:06:09.886Z</time></trkpt><trkpt lat="45.6663773" lon="9.2500852"><ele>229.33333333333331</ele><time>2026-03-24T09:06:10.887Z</time></trkpt><trkpt lat="45.6664253" lon="9.2499968"><ele>229.0</ele><time>2026-03-24T09:06:11.89Z</time></trkpt><trkpt lat="45.6664737" lon="9.2499087"><ele>228.99999999999997</ele><time>2026-03-24T09:06:12.892Z</time></trkpt><trkpt lat="45.6665259" lon="9.2498219"><ele>229.0</ele><time>2026-03-24T09:06:13.894Z</time></trkpt><trkpt lat="45.6665582" lon="9.2497226"><ele>229.0</ele><time>2026-03-24T09:06:14.887Z</time></trkpt><trkpt lat="45.6665899" lon="9.2496442"><ele>229.0</ele><time>2026-03-24T09:06:15.894Z</time></trkpt><trkpt lat="45.6666184" lon="9.2495148"><ele>228.99999999999997</ele><time>2026-03-24T09:06:17.885Z</time></trkpt><trkpt lat="45.6666409" lon="9.2493756"><ele>229.0</ele><time>2026-03-24T09:06:19.889Z</time></trkpt><trkpt lat="45.6666278" lon="9.2492872"><ele>228.83333333333331</ele><time>2026-03-24T09:06:20.897Z</time></trkpt><trkpt lat="45.6666412" lon="9.2491929"><ele>228.66666666666666</ele><time>2026-03-24T09:06:21.893Z</time></trkpt><trkpt lat="45.6666575" lon="9.2490933"><ele>228.5</ele><time>2026-03-24T09:06:22.89Z</time></trkpt><trkpt lat="45.6666914" lon="9.2489272"><ele>228.33333333333331</ele><time>2026-03-24T09:06:24.901Z</time></trkpt><trkpt lat="45.6667206" lon="9.2488427"><ele>228.16666666666666</ele><time>2026-03-24T09:06:25.894Z</time></trkpt><trkpt lat="45.6667533" lon="9.2487577"><ele>228.0</ele><time>2026-03-24T09:06:26.888Z</time></trkpt><trkpt lat="45.6667948" lon="9.248674"><ele>228.0</ele><time>2026-03-24T09:06:27.917Z</time></trkpt><trkpt lat="45.6668397" lon="9.2485863"><ele>228.0</ele><time>2026-03-24T09:06:28.894Z</time></trkpt><trkpt lat="45.6668838" lon="9.2485015"><ele>228.0</ele><time>2026-03-24T09:06:29.895Z</time></trkpt><trkpt lat="45.6669131" lon="9.2484098"><ele>228.0</ele><time>2026-03-24T09:06:30.888Z</time></trkpt><trkpt lat="45.6669515" lon="9.2483232"><ele>228.0</ele><time>2026-03-24T09:06:31.89Z</time></trkpt><trkpt lat="45.666999" lon="9.2482424"><ele>228.0</ele><time>2026-03-24T09:06:32.891Z</time></trkpt><trkpt lat="45.6670516" lon="9.2481025"><ele>228.5</ele><time>2026-03-24T09:06:34.895Z</time></trkpt><trkpt lat="45.667097" lon="9.2479873"><ele>229.0</ele><time>2026-03-24T09:06:36.886Z</time></trkpt><trkpt lat="45.6672075" lon="9.2479207"><ele>229.5</ele><time>2026-03-24T09:06:38.895Z</time></trkpt><trkpt lat="45.6672778" lon="9.2478762"><ele>230.0</ele><time>2026-03-24T09:06:39.893Z</time></trkpt><trkpt lat="45.6673383" lon="9.2478457"><ele>230.5</ele><time>2026-03-24T09:06:40.893Z</time></trkpt><trkpt lat="45.6674063" lon="9.247789"><ele>231.0</ele><time>2026-03-24T09:06:42.894Z</time></trkpt><trkpt lat="45.6674787" lon="9.2477518"><ele>231.0</ele><time>2026-03-24T09:06:44.896Z</time></trkpt><trkpt lat="45.6675832" lon="9.2477476"><ele>231.00000000000003</ele><time>2026-03-24T09:06:46.904Z</time></trkpt><trkpt lat="45.6677085" lon="9.2477315"><ele>231.00000000000003</ele><time>2026-03-24T09:06:48.893Z</time></trkpt><trkpt lat="45.6677738" lon="9.247709"><ele>231.0</ele><time>2026-03-24T09:06:49.904Z</time></trkpt><trkpt lat="45.6678472" lon="9.2476728"><ele>231.0</ele><time>2026-03-24T09:06:50.891Z</time></trkpt><trkpt lat="45.6679269" lon="9.2476289"><ele>231.16666666666666</ele><time>2026-03-24T09:06:51.893Z</time></trkpt><trkpt lat="45.6680068" lon="9.2475844"><ele>231.33333333333331</ele><time>2026-03-24T09:06:52.894Z</time></trkpt><trkpt lat="45.6680871" lon="9.2475386"><ele>231.5</ele><time>2026-03-24T09:06:53.899Z</time></trkpt><trkpt lat="45.6681671" lon="9.2474943"><ele>231.66666666666666</ele><time>2026-03-24T09:06:54.896Z</time></trkpt><trkpt lat="45.6682463" lon="9.2474526"><ele>231.83333333333331</ele><time>2026-03-24T09:06:55.896Z</time></trkpt><trkpt lat="45.6683071" lon="9.2474174"><ele>232.0</ele><time>2026-03-24T09:06:56.888Z</time></trkpt><trkpt lat="45.6683943" lon="9.2473678"><ele>232.0</ele><time>2026-03-24T09:06:58.904Z</time></trkpt><trkpt lat="45.6684159" lon="9.2472629"><ele>232.0</ele><time>2026-03-24T09:07:00.881Z</time></trkpt><trkpt lat="45.6683756" lon="9.247083"><ele>232.0</ele><time>2026-03-24T09:07:02.886Z</time></trkpt><trkpt lat="45.6683416" lon="9.2469565"><ele>232.0</ele><time>2026-03-24T09:07:03.888Z</time></trkpt><trkpt lat="45.6683252" lon="9.2468045"><ele>232.0</ele><time>2026-03-24T09:07:04.879Z</time></trkpt><trkpt lat="45.6682905" lon="9.2466042"><ele>232.75</ele><time>2026-03-24T09:07:05.886Z</time></trkpt><trkpt lat="45.6682609" lon="9.246384"><ele>233.5</ele><time>2026-03-24T09:07:06.874Z</time></trkpt><trkpt lat="45.6682324" lon="9.2461805"><ele>234.25</ele><time>2026-03-24T09:07:07.879Z</time></trkpt><trkpt lat="45.6681983" lon="9.2460062"><ele>235.0</ele><time>2026-03-24T09:07:08.877Z</time></trkpt><trkpt lat="45.6681818" lon="9.2458185"><ele>234.99999999999997</ele><time>2026-03-24T09:07:09.871Z</time></trkpt><trkpt lat="45.6681525" lon="9.2457067"><ele>235.0</ele><time>2026-03-24T09:07:10.873Z</time></trkpt><trkpt lat="45.6680987" lon="9.2456066"><ele>235.0</ele><time>2026-03-24T09:07:11.887Z</time></trkpt><trkpt lat="45.6680784" lon="9.2455138"><ele>235.0</ele><time>2026-03-24T09:07:12.882Z</time></trkpt><trkpt lat="45.6680812" lon="9.245417"><ele>234.99999999999997</ele><time>2026-03-24T09:07:13.889Z</time></trkpt><trkpt lat="45.6680708" lon="9.2452434"><ele>235.0</ele><time>2026-03-24T09:07:15.889Z</time></trkpt><trkpt lat="45.6681457" lon="9.2451166"><ele>234.75</ele><time>2026-03-24T09:07:17.887Z</time></trkpt><trkpt lat="45.6682336" lon="9.2450905"><ele>234.5</ele><time>2026-03-24T09:07:18.885Z</time></trkpt><trkpt lat="45.6683396" lon="9.2450566"><ele>234.25</ele><time>2026-03-24T09:07:19.882Z</time></trkpt><trkpt lat="45.6684642" lon="9.2450023"><ele>234.0</ele><time>2026-03-24T09:07:20.87Z</time></trkpt><trkpt lat="45.6686269" lon="9.2449353"><ele>237.0</ele><time>2026-03-24T09:07:21.872Z</time></trkpt><trkpt lat="45.6688863" lon="9.2448283"><ele>240.0</ele><time>2026-03-24T09:07:22.87Z</time></trkpt><trkpt lat="45.6690741" lon="9.2447424"><ele>240.0</ele><time>2026-03-24T09:07:23.878Z</time></trkpt><trkpt lat="45.6692682" lon="9.2446514"><ele>240.0</ele><time>2026-03-24T09:07:24.879Z</time></trkpt><trkpt lat="45.6693879" lon="9.2445809"><ele>240.0</ele><time>2026-03-24T09:07:25.883Z</time></trkpt><trkpt lat="45.669517" lon="9.2445149"><ele>240.0</ele><time>2026-03-24T09:07:26.883Z</time></trkpt><trkpt lat="45.6696678" lon="9.2444657"><ele>240.0</ele><time>2026-03-24T09:07:27.887Z</time></trkpt><trkpt lat="45.6699003" lon="9.2444058"><ele>240.0</ele><time>2026-03-24T09:07:28.885Z</time></trkpt><trkpt lat="45.6701221" lon="9.2443353"><ele>239.66666666666669</ele><time>2026-03-24T09:07:29.901Z</time></trkpt><trkpt lat="45.6703339" lon="9.2442623"><ele>239.33333333333334</ele><time>2026-03-24T09:07:30.884Z</time></trkpt><trkpt lat="45.670496" lon="9.2442101"><ele>239.0</ele><time>2026-03-24T09:07:31.885Z</time></trkpt><trkpt lat="45.6706804" lon="9.2441471"><ele>239.0</ele><time>2026-03-24T09:07:32.881Z</time></trkpt><trkpt lat="45.6708701" lon="9.2441052"><ele>239.0</ele><time>2026-03-24T09:07:33.884Z</time></trkpt><trkpt lat="45.6710181" lon="9.244042"><ele>239.0</ele><time>2026-03-24T09:07:34.887Z</time></trkpt><trkpt lat="45.6711723" lon="9.2439822"><ele>241.25</ele><time>2026-03-24T09:07:35.884Z</time></trkpt><trkpt lat="45.6712878" lon="9.2439201"><ele>243.5</ele><time>2026-03-24T09:07:36.886Z</time></trkpt><trkpt lat="45.6714343" lon="9.2438778"><ele>245.75</ele><time>2026-03-24T09:07:37.888Z</time></trkpt><trkpt lat="45.6715611" lon="9.2438135"><ele>248.0</ele><time>2026-03-24T09:07:38.879Z</time></trkpt><trkpt lat="45.671676" lon="9.2437717"><ele>248.0</ele><time>2026-03-24T09:07:39.881Z</time></trkpt><trkpt lat="45.6718089" lon="9.2437438"><ele>248.0</ele><time>2026-03-24T09:07:40.875Z</time></trkpt><trkpt lat="45.6719399" lon="9.2437193"><ele>248.0</ele><time>2026-03-24T09:07:41.878Z</time></trkpt><trkpt lat="45.6720453" lon="9.2436881"><ele>248.0</ele><time>2026-03-24T09:07:42.878Z</time></trkpt><trkpt lat="45.6721426" lon="9.2436293"><ele>247.66666666666669</ele><time>2026-03-24T09:07:43.878Z</time></trkpt><trkpt lat="45.6722285" lon="9.2435679"><ele>247.33333333333334</ele><time>2026-03-24T09:07:44.871Z</time></trkpt><trkpt lat="45.6722999" lon="9.2435256"><ele>247.0</ele><time>2026-03-24T09:07:45.871Z</time></trkpt><trkpt lat="45.6723818" lon="9.2434909"><ele>246.66666666666669</ele><time>2026-03-24T09:07:46.875Z</time></trkpt><trkpt lat="45.6724672" lon="9.2434619"><ele>246.33333333333334</ele><time>2026-03-24T09:07:47.869Z</time></trkpt><trkpt lat="45.6725314" lon="9.243445"><ele>246.0</ele><time>2026-03-24T09:07:48.878Z</time></trkpt><trkpt lat="45.6726128" lon="9.2434189"><ele>246.0</ele><time>2026-03-24T09:07:50.873Z</time></trkpt><trkpt lat="45.6726785" lon="9.2433858"><ele>246.0</ele><time>2026-03-24T09:07:54.875Z</time></trkpt><trkpt lat="45.6727634" lon="9.2433279"><ele>246.0</ele><time>2026-03-24T09:07:56.873Z</time></trkpt><trkpt lat="45.6728327" lon="9.2432987"><ele>246.0</ele><time>2026-03-24T09:07:57.881Z</time></trkpt><trkpt lat="45.6729072" lon="9.2432757"><ele>246.0</ele><time>2026-03-24T09:07:58.883Z</time></trkpt><trkpt lat="45.6729828" lon="9.2432785"><ele>246.0</ele><time>2026-03-24T09:07:59.884Z</time></trkpt><trkpt lat="45.6730562" lon="9.2432717"><ele>245.66666666666666</ele><time>2026-03-24T09:08:00.902Z</time></trkpt><trkpt lat="45.6731356" lon="9.2432699"><ele>245.33333333333331</ele><time>2026-03-24T09:08:01.88Z</time></trkpt><trkpt lat="45.6732066" lon="9.2432529"><ele>245.0</ele><time>2026-03-24T09:08:02.877Z</time></trkpt><trkpt lat="45.6732861" lon="9.2432269"><ele>244.66666666666666</ele><time>2026-03-24T09:08:03.874Z</time></trkpt><trkpt lat="45.6733594" lon="9.2432009"><ele>244.33333333333331</ele><time>2026-03-24T09:08:04.884Z</time></trkpt><trkpt lat="45.6734443" lon="9.2431781"><ele>244.0</ele><time>2026-03-24T09:08:05.881Z</time></trkpt><trkpt lat="45.6735177" lon="9.2431542"><ele>244.0</ele><time>2026-03-24T09:08:06.887Z</time></trkpt><trkpt lat="45.6735815" lon="9.2431361"><ele>243.99999999999997</ele><time>2026-03-24T09:08:07.886Z</time></trkpt><trkpt lat="45.6736985" lon="9.2430983"><ele>243.99999999999997</ele><time>2026-03-24T09:08:09.883Z</time></trkpt><trkpt lat="45.6737994" lon="9.2430683"><ele>244.0</ele><time>2026-03-24T09:08:11.889Z</time></trkpt><trkpt lat="45.6739111" lon="9.2430135"><ele>244.0</ele><time>2026-03-24T09:08:13.884Z</time></trkpt><trkpt lat="45.6739897" lon="9.2429804"><ele>245.0</ele><time>2026-03-24T09:08:14.884Z</time></trkpt><trkpt lat="45.6740745" lon="9.2429533"><ele>245.99999999999997</ele><time>2026-03-24T09:08:15.89Z</time></trkpt><trkpt lat="45.6741709" lon="9.2429234"><ele>246.99999999999997</ele><time>2026-03-24T09:08:16.889Z</time></trkpt><trkpt lat="45.6742741" lon="9.2428905"><ele>248.0</ele><time>2026-03-24T09:08:17.883Z</time></trkpt><trkpt lat="45.6743782" lon="9.2428466"><ele>249.0</ele><time>2026-03-24T09:08:18.891Z</time></trkpt><trkpt lat="45.6744934" lon="9.2428159"><ele>249.0</ele><time>2026-03-24T09:08:19.879Z</time></trkpt><trkpt lat="45.6746177" lon="9.2427992"><ele>249.0</ele><time>2026-03-24T09:08:20.882Z</time></trkpt><trkpt lat="45.6747406" lon="9.2427785"><ele>249.0</ele><time>2026-03-24T09:08:21.879Z</time></trkpt><trkpt lat="45.6748549" lon="9.2427823"><ele>249.0</ele><time>2026-03-24T09:08:22.874Z</time></trkpt><trkpt lat="45.6749634" lon="9.2427921"><ele>249.0</ele><time>2026-03-24T09:08:23.88Z</time></trkpt><trkpt lat="45.6750705" lon="9.242808"><ele>248.99999999999997</ele><time>2026-03-24T09:08:24.874Z</time></trkpt><trkpt lat="45.6751664" lon="9.2428274"><ele>248.99999999999997</ele><time>2026-03-24T09:08:25.871Z</time></trkpt><trkpt lat="45.6752529" lon="9.2428341"><ele>249.0</ele><time>2026-03-24T09:08:26.866Z</time></trkpt><trkpt lat="45.6753347" lon="9.2428585"><ele>249.0</ele><time>2026-03-24T09:08:27.864Z</time></trkpt><trkpt lat="45.6754105" lon="9.2428599"><ele>248.66666666666666</ele><time>2026-03-24T09:08:28.863Z</time></trkpt><trkpt lat="45.6754815" lon="9.2428673"><ele>248.33333333333331</ele><time>2026-03-24T09:08:29.867Z</time></trkpt><trkpt lat="45.6755572" lon="9.2428619"><ele>248.0</ele><time>2026-03-24T09:08:30.862Z</time></trkpt><trkpt lat="45.675625" lon="9.2428645"><ele>247.66666666666666</ele><time>2026-03-24T09:08:31.879Z</time></trkpt><trkpt lat="45.6757368" lon="9.2428582"><ele>247.33333333333331</ele><time>2026-03-24T09:08:33.868Z</time></trkpt><trkpt lat="45.6758048" lon="9.2428577"><ele>247.0</ele><time>2026-03-24T09:08:35.871Z</time></trkpt><trkpt lat="45.6758929" lon="9.2428708"><ele>247.0</ele><time>2026-03-24T09:08:38.874Z</time></trkpt><trkpt lat="45.675978" lon="9.2429416"><ele>247.0</ele><time>2026-03-24T09:08:41.886Z</time></trkpt><trkpt lat="45.6760827" lon="9.2429991"><ele>247.0</ele><time>2026-03-24T09:08:43.876Z</time></trkpt><trkpt lat="45.6761734" lon="9.2429842"><ele>247.0</ele><time>2026-03-24T09:08:45.866Z</time></trkpt><trkpt lat="45.6762473" lon="9.2428135"><ele>247.0</ele><time>2026-03-24T09:08:47.867Z</time></trkpt><trkpt lat="45.6763285" lon="9.2427215"><ele>246.33333333333331</ele><time>2026-03-24T09:08:48.86Z</time></trkpt><trkpt lat="45.6764662" lon="9.2426486"><ele>245.66666666666669</ele><time>2026-03-24T09:08:49.863Z</time></trkpt><trkpt lat="45.6765944" lon="9.2425462"><ele>245.0</ele><time>2026-03-24T09:08:50.861Z</time></trkpt><trkpt lat="45.6767466" lon="9.2424304"><ele>245.33333333333334</ele><time>2026-03-24T09:08:51.864Z</time></trkpt><trkpt lat="45.6769202" lon="9.2422154"><ele>245.66666666666669</ele><time>2026-03-24T09:08:52.86Z</time></trkpt><trkpt lat="45.6770984" lon="9.2420495"><ele>246.0</ele><time>2026-03-24T09:08:53.869Z</time></trkpt><trkpt lat="45.6772586" lon="9.2418998"><ele>246.0</ele><time>2026-03-24T09:08:54.868Z</time></trkpt><trkpt lat="45.6774403" lon="9.2417415"><ele>246.0</ele><time>2026-03-24T09:08:55.87Z</time></trkpt><trkpt lat="45.6775408" lon="9.2415742"><ele>246.0</ele><time>2026-03-24T09:08:56.864Z</time></trkpt><trkpt lat="45.6775722" lon="9.2413702"><ele>247.0</ele><time>2026-03-24T09:08:57.871Z</time></trkpt><trkpt lat="45.6776443" lon="9.2411998"><ele>248.0</ele><time>2026-03-24T09:08:58.875Z</time></trkpt><trkpt lat="45.677659" lon="9.2410454"><ele>249.0</ele><time>2026-03-24T09:08:59.865Z</time></trkpt><trkpt lat="45.6776499" lon="9.2408741"><ele>250.0</ele><time>2026-03-24T09:09:00.865Z</time></trkpt><trkpt lat="45.677681" lon="9.2407371"><ele>249.75</ele><time>2026-03-24T09:09:01.87Z</time></trkpt><trkpt lat="45.6777478" lon="9.2405831"><ele>249.5</ele><time>2026-03-24T09:09:02.89Z</time></trkpt><trkpt lat="45.6778295" lon="9.2404344"><ele>249.25</ele><time>2026-03-24T09:09:03.876Z</time></trkpt><trkpt lat="45.6778954" lon="9.2402771"><ele>249.0</ele><time>2026-03-24T09:09:04.877Z</time></trkpt><trkpt lat="45.6779674" lon="9.2401329"><ele>249.0</ele><time>2026-03-24T09:09:05.878Z</time></trkpt><trkpt lat="45.6780393" lon="9.2400041"><ele>248.99999999999997</ele><time>2026-03-24T09:09:06.88Z</time></trkpt><trkpt lat="45.6781043" lon="9.2398763"><ele>248.99999999999997</ele><time>2026-03-24T09:09:07.88Z</time></trkpt><trkpt lat="45.6781594" lon="9.2397657"><ele>249.0</ele><time>2026-03-24T09:09:08.872Z</time></trkpt><trkpt lat="45.6782014" lon="9.2396623"><ele>249.0</ele><time>2026-03-24T09:09:09.877Z</time></trkpt><trkpt lat="45.6782609" lon="9.2395764"><ele>250.39999999999998</ele><time>2026-03-24T09:09:10.881Z</time></trkpt><trkpt lat="45.6783178" lon="9.2395002"><ele>251.79999999999998</ele><time>2026-03-24T09:09:11.865Z</time></trkpt><trkpt lat="45.6783832" lon="9.2394141"><ele>253.20000000000002</ele><time>2026-03-24T09:09:12.872Z</time></trkpt><trkpt lat="45.6784587" lon="9.2393274"><ele>254.60000000000002</ele><time>2026-03-24T09:09:13.866Z</time></trkpt><trkpt lat="45.6785263" lon="9.2392389"><ele>256.0</ele><time>2026-03-24T09:09:14.878Z</time></trkpt><trkpt lat="45.6785977" lon="9.2391442"><ele>256.2</ele><time>2026-03-24T09:09:15.871Z</time></trkpt><trkpt lat="45.6786855" lon="9.2390454"><ele>256.40000000000003</ele><time>2026-03-24T09:09:16.876Z</time></trkpt><trkpt lat="45.6787854" lon="9.238952"><ele>256.6</ele><time>2026-03-24T09:09:17.873Z</time></trkpt><trkpt lat="45.6788726" lon="9.2388761"><ele>256.8</ele><time>2026-03-24T09:09:18.874Z</time></trkpt><trkpt lat="45.6789434" lon="9.238828"><ele>257.0</ele><time>2026-03-24T09:09:19.872Z</time></trkpt><trkpt lat="45.6790062" lon="9.2387825"><ele>257.0</ele><time>2026-03-24T09:09:20.877Z</time></trkpt><trkpt lat="45.679066" lon="9.2387311"><ele>257.0</ele><time>2026-03-24T09:09:21.885Z</time></trkpt><trkpt lat="45.6791261" lon="9.2386663"><ele>257.0</ele><time>2026-03-24T09:09:22.878Z</time></trkpt><trkpt lat="45.6791724" lon="9.2385757"><ele>257.0</ele><time>2026-03-24T09:09:23.883Z</time></trkpt><trkpt lat="45.6792181" lon="9.2384806"><ele>257.0</ele><time>2026-03-24T09:09:24.877Z</time></trkpt><trkpt lat="45.6792608" lon="9.2383961"><ele>257.0</ele><time>2026-03-24T09:09:25.885Z</time></trkpt><trkpt lat="45.6793012" lon="9.2383135"><ele>257.0</ele><time>2026-03-24T09:09:26.874Z</time></trkpt><trkpt lat="45.6793102" lon="9.2381799"><ele>257.6</ele><time>2026-03-24T09:09:28.874Z</time></trkpt><trkpt lat="45.6793184" lon="9.2380512"><ele>258.2</ele><time>2026-03-24T09:09:31.881Z</time></trkpt><trkpt lat="45.6793119" lon="9.2379326"><ele>258.8</ele><time>2026-03-24T09:09:33.9Z</time></trkpt><trkpt lat="45.6793121" lon="9.2377894"><ele>259.4</ele><time>2026-03-24T09:09:35.883Z</time></trkpt><trkpt lat="45.6793113" lon="9.2376192"><ele>260.0</ele><time>2026-03-24T09:09:37.874Z</time></trkpt><trkpt lat="45.6793071" lon="9.2374492"><ele>260.0</ele><time>2026-03-24T09:09:39.88Z</time></trkpt><trkpt lat="45.679274" lon="9.2372852"><ele>260.0</ele><time>2026-03-24T09:09:41.878Z</time></trkpt><trkpt lat="45.6792535" lon="9.2371204"><ele>260.0</ele><time>2026-03-24T09:09:43.874Z</time></trkpt><trkpt lat="45.6792306" lon="9.2369994"><ele>260.0</ele><time>2026-03-24T09:09:45.869Z</time></trkpt><trkpt lat="45.6792128" lon="9.2369069"><ele>260.0</ele><time>2026-03-24T09:09:47.878Z</time></trkpt><trkpt lat="45.6792826" lon="9.2368104"><ele>260.0</ele><time>2026-03-24T09:09:49.866Z</time></trkpt><trkpt lat="45.6793487" lon="9.2367936"><ele>260.0</ele><time>2026-03-24T09:09:50.871Z</time></trkpt><trkpt lat="45.6794275" lon="9.2367858"><ele>260.0</ele><time>2026-03-24T09:09:51.87Z</time></trkpt><trkpt lat="45.6795183" lon="9.2367626"><ele>260.0</ele><time>2026-03-24T09:09:52.87Z</time></trkpt><trkpt lat="45.679593" lon="9.2367338"><ele>260.0</ele><time>2026-03-24T09:09:53.87Z</time></trkpt><trkpt lat="45.6796794" lon="9.236677"><ele>260.0</ele><time>2026-03-24T09:09:54.868Z</time></trkpt><trkpt lat="45.6797652" lon="9.2366093"><ele>260.1666666666667</ele><time>2026-03-24T09:09:55.867Z</time></trkpt><trkpt lat="45.679856" lon="9.2365294"><ele>260.33333333333337</ele><time>2026-03-24T09:09:56.869Z</time></trkpt><trkpt lat="45.679935" lon="9.2364593"><ele>260.5</ele><time>2026-03-24T09:09:57.86Z</time></trkpt><trkpt lat="45.680016" lon="9.2364028"><ele>260.6666666666667</ele><time>2026-03-24T09:09:58.867Z</time></trkpt><trkpt lat="45.6800895" lon="9.2363527"><ele>260.8333333333333</ele><time>2026-03-24T09:09:59.868Z</time></trkpt><trkpt lat="45.6801544" lon="9.2363068"><ele>261.0</ele><time>2026-03-24T09:10:00.852Z</time></trkpt><trkpt lat="45.6802477" lon="9.2362224"><ele>262.5</ele><time>2026-03-24T09:10:02.847Z</time></trkpt><trkpt lat="45.6803523" lon="9.2361448"><ele>264.0</ele><time>2026-03-24T09:10:04.879Z</time></trkpt><trkpt lat="45.6804539" lon="9.2360642"><ele>265.5</ele><time>2026-03-24T09:10:06.848Z</time></trkpt><trkpt lat="45.6805645" lon="9.2360048"><ele>267.0</ele><time>2026-03-24T09:10:08.851Z</time></trkpt><trkpt lat="45.6806712" lon="9.2359351"><ele>267.0</ele><time>2026-03-24T09:10:10.848Z</time></trkpt><trkpt lat="45.6807268" lon="9.2358828"><ele>267.0</ele><time>2026-03-24T09:10:11.852Z</time></trkpt><trkpt lat="45.6807913" lon="9.2358214"><ele>267.0</ele><time>2026-03-24T09:10:12.855Z</time></trkpt><trkpt lat="45.6808534" lon="9.235755"><ele>267.0</ele><time>2026-03-24T09:10:13.849Z</time></trkpt><trkpt lat="45.6809199" lon="9.2356755"><ele>267.0</ele><time>2026-03-24T09:10:14.852Z</time></trkpt><trkpt lat="45.6810082" lon="9.2355842"><ele>267.0</ele><time>2026-03-24T09:10:15.844Z</time></trkpt><trkpt lat="45.6811032" lon="9.2354861"><ele>266.75</ele><time>2026-03-24T09:10:16.849Z</time></trkpt><trkpt lat="45.6812071" lon="9.2354053"><ele>266.5</ele><time>2026-03-24T09:10:17.849Z</time></trkpt><trkpt lat="45.6813142" lon="9.2353345"><ele>266.25</ele><time>2026-03-24T09:10:18.86Z</time></trkpt><trkpt lat="45.6814104" lon="9.2352352"><ele>266.0</ele><time>2026-03-24T09:10:19.861Z</time></trkpt><trkpt lat="45.6814988" lon="9.23517"><ele>266.0</ele><time>2026-03-24T09:10:20.87Z</time></trkpt><trkpt lat="45.6815908" lon="9.2351188"><ele>266.0</ele><time>2026-03-24T09:10:21.873Z</time></trkpt><trkpt lat="45.6816838" lon="9.2350747"><ele>266.0</ele><time>2026-03-24T09:10:22.872Z</time></trkpt><trkpt lat="45.6817673" lon="9.2350141"><ele>266.0</ele><time>2026-03-24T09:10:23.875Z</time></trkpt><trkpt lat="45.6818815" lon="9.2349732"><ele>266.0</ele><time>2026-03-24T09:10:24.872Z</time></trkpt><trkpt lat="45.6819907" lon="9.2349244"><ele>265.5</ele><time>2026-03-24T09:10:25.877Z</time></trkpt><trkpt lat="45.6820901" lon="9.2348761"><ele>265.0</ele><time>2026-03-24T09:10:26.873Z</time></trkpt><trkpt lat="45.6821959" lon="9.2348294"><ele>264.5</ele><time>2026-03-24T09:10:27.872Z</time></trkpt><trkpt lat="45.6823101" lon="9.2347958"><ele>264.0</ele><time>2026-03-24T09:10:28.873Z</time></trkpt><trkpt lat="45.6824184" lon="9.234729"><ele>264.25</ele><time>2026-03-24T09:10:29.876Z</time></trkpt><trkpt lat="45.6825286" lon="9.2346791"><ele>264.5</ele><time>2026-03-24T09:10:30.879Z</time></trkpt><trkpt lat="45.6826513" lon="9.2346243"><ele>264.75</ele><time>2026-03-24T09:10:31.873Z</time></trkpt><trkpt lat="45.6827692" lon="9.2345732"><ele>265.0</ele><time>2026-03-24T09:10:32.878Z</time></trkpt><trkpt lat="45.6828796" lon="9.2345116"><ele>265.0</ele><time>2026-03-24T09:10:33.872Z</time></trkpt><trkpt lat="45.6829858" lon="9.2344495"><ele>265.0</ele><time>2026-03-24T09:10:34.874Z</time></trkpt><trkpt lat="45.6830873" lon="9.2343607"><ele>265.0</ele><time>2026-03-24T09:10:35.887Z</time></trkpt><trkpt lat="45.6831924" lon="9.2342419"><ele>265.0</ele><time>2026-03-24T09:10:36.867Z</time></trkpt><trkpt lat="45.6832816" lon="9.2341129"><ele>265.3333333333333</ele><time>2026-03-24T09:10:37.868Z</time></trkpt><trkpt lat="45.6833727" lon="9.2339645"><ele>265.6666666666667</ele><time>2026-03-24T09:10:38.86Z</time></trkpt><trkpt lat="45.6834654" lon="9.2337801"><ele>266.0</ele><time>2026-03-24T09:10:39.863Z</time></trkpt><trkpt lat="45.6835663" lon="9.2335485"><ele>266.0</ele><time>2026-03-24T09:10:40.857Z</time></trkpt><trkpt lat="45.6837068" lon="9.2333101"><ele>266.0</ele><time>2026-03-24T09:10:41.856Z</time></trkpt><trkpt lat="45.6838381" lon="9.2331215"><ele>266.0</ele><time>2026-03-24T09:10:42.87Z</time></trkpt><trkpt lat="45.683966" lon="9.232968"><ele>266.0</ele><time>2026-03-24T09:10:43.866Z</time></trkpt><trkpt lat="45.6840602" lon="9.2327775"><ele>266.0</ele><time>2026-03-24T09:10:44.864Z</time></trkpt><trkpt lat="45.6841264" lon="9.2325458"><ele>266.0</ele><time>2026-03-24T09:10:45.863Z</time></trkpt><trkpt lat="45.6842176" lon="9.2322939"><ele>266.0</ele><time>2026-03-24T09:10:46.867Z</time></trkpt><trkpt lat="45.6841954" lon="9.2320719"><ele>266.0</ele><time>2026-03-24T09:10:47.869Z</time></trkpt><trkpt lat="45.6842067" lon="9.2318658"><ele>266.0</ele><time>2026-03-24T09:10:48.873Z</time></trkpt><trkpt lat="45.6842215" lon="9.2316452"><ele>266.0</ele><time>2026-03-24T09:10:49.867Z</time></trkpt><trkpt lat="45.6842696" lon="9.2314941"><ele>266.0</ele><time>2026-03-24T09:10:50.868Z</time></trkpt><trkpt lat="45.6843285" lon="9.2313723"><ele>266.0</ele><time>2026-03-24T09:10:51.872Z</time></trkpt><trkpt lat="45.6843693" lon="9.2312589"><ele>266.0</ele><time>2026-03-24T09:10:52.869Z</time></trkpt><trkpt lat="45.6844619" lon="9.2311745"><ele>266.0</ele><time>2026-03-24T09:10:53.871Z</time></trkpt><trkpt lat="45.684509" lon="9.2310773"><ele>266.2</ele><time>2026-03-24T09:10:54.866Z</time></trkpt><trkpt lat="45.6845366" lon="9.2309213"><ele>266.40000000000003</ele><time>2026-03-24T09:10:56.868Z</time></trkpt><trkpt lat="45.6845768" lon="9.2307986"><ele>266.6</ele><time>2026-03-24T09:10:58.87Z</time></trkpt><trkpt lat="45.6846185" lon="9.2306214"><ele>266.8</ele><time>2026-03-24T09:11:00.873Z</time></trkpt><trkpt lat="45.6846236" lon="9.2304765"><ele>267.0</ele><time>2026-03-24T09:11:01.861Z</time></trkpt><trkpt lat="45.684641" lon="9.2303106"><ele>267.0</ele><time>2026-03-24T09:11:02.862Z</time></trkpt><trkpt lat="45.6846762" lon="9.2301066"><ele>267.0</ele><time>2026-03-24T09:11:03.861Z</time></trkpt><trkpt lat="45.6847276" lon="9.2298519"><ele>267.0</ele><time>2026-03-24T09:11:04.856Z</time></trkpt><trkpt lat="45.6847823" lon="9.2295672"><ele>266.0</ele><time>2026-03-24T09:11:05.872Z</time></trkpt><trkpt lat="45.6848526" lon="9.2292512"><ele>265.0</ele><time>2026-03-24T09:11:06.884Z</time></trkpt><trkpt lat="45.6849063" lon="9.2289632"><ele>264.0</ele><time>2026-03-24T09:11:07.868Z</time></trkpt><trkpt lat="45.6849952" lon="9.2287495"><ele>264.0</ele><time>2026-03-24T09:11:08.876Z</time></trkpt><trkpt lat="45.685082" lon="9.2285548"><ele>264.0</ele><time>2026-03-24T09:11:09.866Z</time></trkpt><trkpt lat="45.6851617" lon="9.228405"><ele>264.0</ele><time>2026-03-24T09:11:10.873Z</time></trkpt><trkpt lat="45.6852322" lon="9.2283"><ele>264.0</ele><time>2026-03-24T09:11:11.866Z</time></trkpt><trkpt lat="45.6853022" lon="9.2282414"><ele>264.25</ele><time>2026-03-24T09:11:12.877Z</time></trkpt><trkpt lat="45.6853999" lon="9.2281319"><ele>264.5</ele><time>2026-03-24T09:11:13.873Z</time></trkpt><trkpt lat="45.6855261" lon="9.2280351"><ele>264.75</ele><time>2026-03-24T09:11:14.865Z</time></trkpt><trkpt lat="45.6856877" lon="9.2279332"><ele>265.0</ele><time>2026-03-24T09:11:15.867Z</time></trkpt><trkpt lat="45.6859169" lon="9.2278401"><ele>265.0</ele><time>2026-03-24T09:11:16.87Z</time></trkpt><trkpt lat="45.6860762" lon="9.2277503"><ele>265.0</ele><time>2026-03-24T09:11:17.866Z</time></trkpt><trkpt lat="45.6862953" lon="9.2276616"><ele>265.0</ele><time>2026-03-24T09:11:18.868Z</time></trkpt><trkpt lat="45.6864814" lon="9.2275822"><ele>265.3333333333333</ele><time>2026-03-24T09:11:19.869Z</time></trkpt><trkpt lat="45.686631" lon="9.2274746"><ele>265.6666666666667</ele><time>2026-03-24T09:11:20.871Z</time></trkpt><trkpt lat="45.686785" lon="9.2273712"><ele>266.0</ele><time>2026-03-24T09:11:21.869Z</time></trkpt><trkpt lat="45.6869134" lon="9.2272978"><ele>266.33333333333337</ele><time>2026-03-24T09:11:22.871Z</time></trkpt><trkpt lat="45.6870638" lon="9.2272489"><ele>266.6666666666667</ele><time>2026-03-24T09:11:23.872Z</time></trkpt><trkpt lat="45.6872355" lon="9.2271967"><ele>267.0</ele><time>2026-03-24T09:11:24.875Z</time></trkpt><trkpt lat="45.6873635" lon="9.2271126"><ele>267.0</ele><time>2026-03-24T09:11:25.875Z</time></trkpt><trkpt lat="45.6874881" lon="9.2270461"><ele>267.0</ele><time>2026-03-24T09:11:26.866Z</time></trkpt><trkpt lat="45.6876122" lon="9.2269752"><ele>267.0</ele><time>2026-03-24T09:11:27.862Z</time></trkpt><trkpt lat="45.6877518" lon="9.2268912"><ele>267.0</ele><time>2026-03-24T09:11:28.865Z</time></trkpt><trkpt lat="45.6879287" lon="9.2267475"><ele>268.3333333333333</ele><time>2026-03-24T09:11:29.859Z</time></trkpt><trkpt lat="45.6880787" lon="9.2266649"><ele>269.66666666666663</ele><time>2026-03-24T09:11:30.861Z</time></trkpt><trkpt lat="45.6882476" lon="9.226605"><ele>271.0</ele><time>2026-03-24T09:11:31.856Z</time></trkpt><trkpt lat="45.6883752" lon="9.2265278"><ele>270.75</ele><time>2026-03-24T09:11:32.87Z</time></trkpt><trkpt lat="45.688519" lon="9.2264467"><ele>270.5</ele><time>2026-03-24T09:11:33.867Z</time></trkpt><trkpt lat="45.6886384" lon="9.2263503"><ele>270.25</ele><time>2026-03-24T09:11:34.874Z</time></trkpt><trkpt lat="45.6887794" lon="9.2262719"><ele>270.0</ele><time>2026-03-24T09:11:35.871Z</time></trkpt><trkpt lat="45.6888653" lon="9.2262365"><ele>270.0</ele><time>2026-03-24T09:11:36.872Z</time></trkpt><trkpt lat="45.6889186" lon="9.2261691"><ele>270.0</ele><time>2026-03-24T09:11:37.889Z</time></trkpt><trkpt lat="45.6889825" lon="9.2261027"><ele>270.0</ele><time>2026-03-24T09:11:38.875Z</time></trkpt><trkpt lat="45.6890604" lon="9.2260545"><ele>270.0</ele><time>2026-03-24T09:11:39.874Z</time></trkpt><trkpt lat="45.689105" lon="9.2259331"><ele>270.0</ele><time>2026-03-24T09:11:41.875Z</time></trkpt><trkpt lat="45.6891643" lon="9.2258889"><ele>270.0</ele><time>2026-03-24T09:11:52.877Z</time></trkpt><trkpt lat="45.6892234" lon="9.2258395"><ele>270.0</ele><time>2026-03-24T09:12:03.873Z</time></trkpt><trkpt lat="45.6893063" lon="9.2257481"><ele>270.0</ele><time>2026-03-24T09:12:05.869Z</time></trkpt><trkpt lat="45.6893817" lon="9.2256453"><ele>270.0</ele><time>2026-03-24T09:12:06.869Z</time></trkpt><trkpt lat="45.6895094" lon="9.2255351"><ele>270.0</ele><time>2026-03-24T09:12:07.863Z</time></trkpt><trkpt lat="45.6896483" lon="9.2254161"><ele>271.0</ele><time>2026-03-24T09:12:08.884Z</time></trkpt><trkpt lat="45.6898659" lon="9.2252577"><ele>272.0</ele><time>2026-03-24T09:12:09.867Z</time></trkpt><trkpt lat="45.6900817" lon="9.2251101"><ele>271.6666666666667</ele><time>2026-03-24T09:12:10.869Z</time></trkpt><trkpt lat="45.6902692" lon="9.2249724"><ele>271.3333333333333</ele><time>2026-03-24T09:12:11.879Z</time></trkpt><trkpt lat="45.6904366" lon="9.2248401"><ele>271.0</ele><time>2026-03-24T09:12:12.88Z</time></trkpt><trkpt lat="45.6906064" lon="9.2247195"><ele>271.0</ele><time>2026-03-24T09:12:13.874Z</time></trkpt><trkpt lat="45.6907302" lon="9.2245955"><ele>271.0</ele><time>2026-03-24T09:12:14.876Z</time></trkpt><trkpt lat="45.6908611" lon="9.2245265"><ele>271.0</ele><time>2026-03-24T09:12:15.87Z</time></trkpt><trkpt lat="45.6909868" lon="9.2244523"><ele>271.0</ele><time>2026-03-24T09:12:16.864Z</time></trkpt><trkpt lat="45.6911154" lon="9.2243877"><ele>271.0</ele><time>2026-03-24T09:12:17.867Z</time></trkpt><trkpt lat="45.6912252" lon="9.224336"><ele>271.0</ele><time>2026-03-24T09:12:20.871Z</time></trkpt><trkpt lat="45.6912858" lon="9.224311"><ele>271.0</ele><time>2026-03-24T09:12:21.871Z</time></trkpt><trkpt lat="45.6913326" lon="9.2242465"><ele>271.0</ele><time>2026-03-24T09:12:22.856Z</time></trkpt><trkpt lat="45.6913506" lon="9.2241062"><ele>271.0</ele><time>2026-03-24T09:12:23.861Z</time></trkpt><trkpt lat="45.6913726" lon="9.223962"><ele>271.0</ele><time>2026-03-24T09:12:24.863Z</time></trkpt><trkpt lat="45.691427" lon="9.2238232"><ele>270.66666666666663</ele><time>2026-03-24T09:12:25.873Z</time></trkpt><trkpt lat="45.6915276" lon="9.2236524"><ele>270.3333333333333</ele><time>2026-03-24T09:12:26.864Z</time></trkpt><trkpt lat="45.6916348" lon="9.2234714"><ele>270.0</ele><time>2026-03-24T09:12:27.864Z</time></trkpt><trkpt lat="45.6917899" lon="9.2232751"><ele>269.3333333333333</ele><time>2026-03-24T09:12:28.871Z</time></trkpt><trkpt lat="45.6919548" lon="9.22309"><ele>268.66666666666663</ele><time>2026-03-24T09:12:29.873Z</time></trkpt><trkpt lat="45.692069" lon="9.2229267"><ele>268.0</ele><time>2026-03-24T09:12:30.879Z</time></trkpt><trkpt lat="45.692164" lon="9.2227972"><ele>268.0</ele><time>2026-03-24T09:12:31.88Z</time></trkpt><trkpt lat="45.6922777" lon="9.2226782"><ele>268.0</ele><time>2026-03-24T09:12:32.863Z</time></trkpt><trkpt lat="45.6923668" lon="9.2225611"><ele>268.0</ele><time>2026-03-24T09:12:33.85Z</time></trkpt><trkpt lat="45.6924494" lon="9.2224369"><ele>268.0</ele><time>2026-03-24T09:12:34.855Z</time></trkpt><trkpt lat="45.6925154" lon="9.2223745"><ele>268.0</ele><time>2026-03-24T09:12:35.864Z</time></trkpt><trkpt lat="45.6925714" lon="9.2223246"><ele>268.0</ele><time>2026-03-24T09:12:36.862Z</time></trkpt><trkpt lat="45.6926607" lon="9.2222609"><ele>268.0</ele><time>2026-03-24T09:12:38.873Z</time></trkpt><trkpt lat="45.6927379" lon="9.222189"><ele>268.0</ele><time>2026-03-24T09:12:41.872Z</time></trkpt><trkpt lat="45.6927675" lon="9.222067"><ele>268.0</ele><time>2026-03-24T09:12:45.877Z</time></trkpt><trkpt lat="45.6928255" lon="9.2219704"><ele>268.0</ele><time>2026-03-24T09:12:47.885Z</time></trkpt><trkpt lat="45.6928952" lon="9.221859"><ele>267.8</ele><time>2026-03-24T09:12:49.871Z</time></trkpt><trkpt lat="45.6929981" lon="9.2217245"><ele>267.6</ele><time>2026-03-24T09:12:51.877Z</time></trkpt><trkpt lat="45.6930507" lon="9.2216474"><ele>267.4</ele><time>2026-03-24T09:12:52.873Z</time></trkpt><trkpt lat="45.6931343" lon="9.2215469"><ele>267.2</ele><time>2026-03-24T09:12:54.868Z</time></trkpt><trkpt lat="45.6932034" lon="9.2214871"><ele>267.0</ele><time>2026-03-24T09:13:07.856Z</time></trkpt><trkpt lat="45.6932602" lon="9.2214097"><ele>267.0</ele><time>2026-03-24T09:13:33.878Z</time></trkpt><trkpt lat="45.6933009" lon="9.2213211"><ele>267.0</ele><time>2026-03-24T09:13:35.88Z</time></trkpt><trkpt lat="45.6933683" lon="9.2211721"><ele>267.0</ele><time>2026-03-24T09:13:37.875Z</time></trkpt><trkpt lat="45.6934113" lon="9.2210714"><ele>267.0</ele><time>2026-03-24T09:13:38.866Z</time></trkpt><trkpt lat="45.6934689" lon="9.2209591"><ele>267.0</ele><time>2026-03-24T09:13:39.873Z</time></trkpt><trkpt lat="45.6935211" lon="9.2208313"><ele>267.0</ele><time>2026-03-24T09:13:40.874Z</time></trkpt><trkpt lat="45.6935647" lon="9.2207078"><ele>267.0</ele><time>2026-03-24T09:13:41.899Z</time></trkpt><trkpt lat="45.6936221" lon="9.2205667"><ele>267.0</ele><time>2026-03-24T09:13:42.874Z</time></trkpt><trkpt lat="45.6936778" lon="9.2204255"><ele>267.0</ele><time>2026-03-24T09:13:43.878Z</time></trkpt><trkpt lat="45.6937316" lon="9.2202897"><ele>267.0</ele><time>2026-03-24T09:13:44.882Z</time></trkpt><trkpt lat="45.6937832" lon="9.2201495"><ele>267.0</ele><time>2026-03-24T09:13:45.885Z</time></trkpt><trkpt lat="45.6938423" lon="9.2200003"><ele>267.0</ele><time>2026-03-24T09:13:46.881Z</time></trkpt><trkpt lat="45.693907" lon="9.2198295"><ele>267.0</ele><time>2026-03-24T09:13:47.886Z</time></trkpt><trkpt lat="45.6939815" lon="9.219674"><ele>267.0</ele><time>2026-03-24T09:13:48.882Z</time></trkpt><trkpt lat="45.6940545" lon="9.2195247"><ele>267.5</ele><time>2026-03-24T09:13:49.885Z</time></trkpt><trkpt lat="45.6941295" lon="9.2193792"><ele>268.0</ele><time>2026-03-24T09:13:50.886Z</time></trkpt><trkpt lat="45.6942053" lon="9.2192378"><ele>268.5</ele><time>2026-03-24T09:13:51.882Z</time></trkpt><trkpt lat="45.6942817" lon="9.2191007"><ele>269.0</ele><time>2026-03-24T09:13:52.881Z</time></trkpt><trkpt lat="45.694357" lon="9.2189625"><ele>269.5</ele><time>2026-03-24T09:13:53.876Z</time></trkpt><trkpt lat="45.6944296" lon="9.2188332"><ele>270.0</ele><time>2026-03-24T09:13:54.877Z</time></trkpt><trkpt lat="45.6945084" lon="9.2187084"><ele>270.5</ele><time>2026-03-24T09:13:55.876Z</time></trkpt><trkpt lat="45.6945814" lon="9.2185797"><ele>271.0</ele><time>2026-03-24T09:13:56.873Z</time></trkpt><trkpt lat="45.6946543" lon="9.2184505"><ele>271.0</ele><time>2026-03-24T09:13:57.874Z</time></trkpt><trkpt lat="45.6947396" lon="9.2183315"><ele>271.0</ele><time>2026-03-24T09:13:58.879Z</time></trkpt><trkpt lat="45.6948252" lon="9.2182076"><ele>271.0</ele><time>2026-03-24T09:13:59.879Z</time></trkpt><trkpt lat="45.694902" lon="9.2180769"><ele>271.0</ele><time>2026-03-24T09:14:00.871Z</time></trkpt><trkpt lat="45.6949757" lon="9.2179524"><ele>271.0</ele><time>2026-03-24T09:14:01.877Z</time></trkpt><trkpt lat="45.6950453" lon="9.2178347"><ele>271.0</ele><time>2026-03-24T09:14:02.88Z</time></trkpt><trkpt lat="45.6951105" lon="9.2177321"><ele>271.0</ele><time>2026-03-24T09:14:03.882Z</time></trkpt><trkpt lat="45.6951749" lon="9.2176125"><ele>271.0</ele><time>2026-03-24T09:14:04.881Z</time></trkpt><trkpt lat="45.6952311" lon="9.2174913"><ele>271.0</ele><time>2026-03-24T09:14:05.881Z</time></trkpt><trkpt lat="45.6952772" lon="9.2173803"><ele>270.8</ele><time>2026-03-24T09:14:06.877Z</time></trkpt><trkpt lat="45.6953279" lon="9.2172583"><ele>270.6</ele><time>2026-03-24T09:14:07.875Z</time></trkpt><trkpt lat="45.6953667" lon="9.2171266"><ele>270.4</ele><time>2026-03-24T09:14:08.873Z</time></trkpt><trkpt lat="45.6954078" lon="9.2169909"><ele>270.2</ele><time>2026-03-24T09:14:09.872Z</time></trkpt><trkpt lat="45.6954504" lon="9.2168602"><ele>270.0</ele><time>2026-03-24T09:14:10.88Z</time></trkpt><trkpt lat="45.6954888" lon="9.216727"><ele>270.0</ele><time>2026-03-24T09:14:11.878Z</time></trkpt><trkpt lat="45.6955243" lon="9.2165919"><ele>270.0</ele><time>2026-03-24T09:14:12.892Z</time></trkpt><trkpt lat="45.695563" lon="9.2164506"><ele>270.0</ele><time>2026-03-24T09:14:13.876Z</time></trkpt><trkpt lat="45.6956235" lon="9.216303"><ele>270.0</ele><time>2026-03-24T09:14:14.879Z</time></trkpt><trkpt lat="45.6956967" lon="9.216161"><ele>269.6</ele><time>2026-03-24T09:14:15.873Z</time></trkpt><trkpt lat="45.6957636" lon="9.2160392"><ele>269.2</ele><time>2026-03-24T09:14:16.872Z</time></trkpt><trkpt lat="45.69582" lon="9.2159294"><ele>268.8</ele><time>2026-03-24T09:14:17.87Z</time></trkpt><trkpt lat="45.69587" lon="9.2158486"><ele>268.4</ele><time>2026-03-24T09:14:18.869Z</time></trkpt><trkpt lat="45.6959399" lon="9.215753"><ele>268.0</ele><time>2026-03-24T09:14:19.865Z</time></trkpt><trkpt lat="45.6959971" lon="9.215659"><ele>268.0</ele><time>2026-03-24T09:14:20.865Z</time></trkpt><trkpt lat="45.6960611" lon="9.2155703"><ele>268.0</ele><time>2026-03-24T09:14:21.867Z</time></trkpt><trkpt lat="45.6961181" lon="9.2154876"><ele>268.0</ele><time>2026-03-24T09:14:22.871Z</time></trkpt><trkpt lat="45.6961711" lon="9.2153962"><ele>268.0</ele><time>2026-03-24T09:14:23.877Z</time></trkpt><trkpt lat="45.6962231" lon="9.2153078"><ele>268.0</ele><time>2026-03-24T09:14:24.857Z</time></trkpt><trkpt lat="45.6962729" lon="9.2151806"><ele>268.0</ele><time>2026-03-24T09:14:26.873Z</time></trkpt><trkpt lat="45.6963267" lon="9.2150503"><ele>268.4</ele><time>2026-03-24T09:14:28.88Z</time></trkpt><trkpt lat="45.6963831" lon="9.2149814"><ele>268.8</ele><time>2026-03-24T09:14:29.873Z</time></trkpt><trkpt lat="45.6964671" lon="9.2149303"><ele>269.2</ele><time>2026-03-24T09:14:30.876Z</time></trkpt><trkpt lat="45.6965731" lon="9.214891"><ele>269.6</ele><time>2026-03-24T09:14:31.866Z</time></trkpt><trkpt lat="45.6966769" lon="9.2148802"><ele>270.0</ele><time>2026-03-24T09:14:32.868Z</time></trkpt><trkpt lat="45.6967801" lon="9.2148879"><ele>270.0</ele><time>2026-03-24T09:14:33.87Z</time></trkpt><trkpt lat="45.6969163" lon="9.2149227"><ele>270.0</ele><time>2026-03-24T09:14:34.864Z</time></trkpt><trkpt lat="45.697064" lon="9.2149926"><ele>270.0</ele><time>2026-03-24T09:14:35.862Z</time></trkpt><trkpt lat="45.6972506" lon="9.2151006"><ele>272.0</ele><time>2026-03-24T09:14:36.87Z</time></trkpt><trkpt lat="45.6974699" lon="9.2152343"><ele>274.0</ele><time>2026-03-24T09:14:37.868Z</time></trkpt><trkpt lat="45.6976885" lon="9.215316"><ele>274.0</ele><time>2026-03-24T09:14:38.874Z</time></trkpt><trkpt lat="45.6978981" lon="9.2154238"><ele>274.0</ele><time>2026-03-24T09:14:39.872Z</time></trkpt><trkpt lat="45.698091" lon="9.2155262"><ele>274.0</ele><time>2026-03-24T09:14:40.872Z</time></trkpt><trkpt lat="45.6982187" lon="9.2155967"><ele>273.8</ele><time>2026-03-24T09:14:41.871Z</time></trkpt><trkpt lat="45.6983583" lon="9.2156658"><ele>273.59999999999997</ele><time>2026-03-24T09:14:42.865Z</time></trkpt><trkpt lat="45.6984149" lon="9.2157172"><ele>273.4</ele><time>2026-03-24T09:14:43.882Z</time></trkpt><trkpt lat="45.6984944" lon="9.2157959"><ele>273.2</ele><time>2026-03-24T09:14:44.865Z</time></trkpt><trkpt lat="45.6985461" lon="9.2159034"><ele>273.0</ele><time>2026-03-24T09:14:46.862Z</time></trkpt><trkpt lat="45.6986484" lon="9.215993"><ele>273.75</ele><time>2026-03-24T09:14:48.854Z</time></trkpt><trkpt lat="45.6987626" lon="9.2159857"><ele>274.5</ele><time>2026-03-24T09:14:49.861Z</time></trkpt><trkpt lat="45.6988669" lon="9.2159984"><ele>275.25</ele><time>2026-03-24T09:14:50.861Z</time></trkpt><trkpt lat="45.6989934" lon="9.2160387"><ele>276.0</ele><time>2026-03-24T09:14:51.853Z</time></trkpt><trkpt lat="45.6991557" lon="9.2161046"><ele>276.0</ele><time>2026-03-24T09:14:52.847Z</time></trkpt><trkpt lat="45.6993769" lon="9.216195"><ele>276.0</ele><time>2026-03-24T09:14:53.847Z</time></trkpt><trkpt lat="45.6996548" lon="9.2162843"><ele>276.3333333333333</ele><time>2026-03-24T09:14:54.858Z</time></trkpt><trkpt lat="45.6998798" lon="9.2163573"><ele>276.66666666666663</ele><time>2026-03-24T09:14:55.869Z</time></trkpt><trkpt lat="45.7000257" lon="9.2163634"><ele>277.0</ele><time>2026-03-24T09:14:56.862Z</time></trkpt><trkpt lat="45.700165" lon="9.2163317"><ele>278.0</ele><time>2026-03-24T09:14:57.87Z</time></trkpt><trkpt lat="45.7003475" lon="9.216334"><ele>279.0</ele><time>2026-03-24T09:14:58.866Z</time></trkpt><trkpt lat="45.7004802" lon="9.2163165"><ele>280.0</ele><time>2026-03-24T09:14:59.865Z</time></trkpt><trkpt lat="45.70063" lon="9.2163009"><ele>280.0</ele><time>2026-03-24T09:15:00.858Z</time></trkpt><trkpt lat="45.7007222" lon="9.2162967"><ele>280.0</ele><time>2026-03-24T09:15:01.858Z</time></trkpt><trkpt lat="45.7008339" lon="9.216256"><ele>280.0</ele><time>2026-03-24T09:15:02.86Z</time></trkpt><trkpt lat="45.7009629" lon="9.2162282"><ele>280.0</ele><time>2026-03-24T09:15:03.852Z</time></trkpt><trkpt lat="45.7011392" lon="9.216226"><ele>280.3333333333333</ele><time>2026-03-24T09:15:04.857Z</time></trkpt><trkpt lat="45.7013002" lon="9.2161931"><ele>280.6666666666667</ele><time>2026-03-24T09:15:05.851Z</time></trkpt><trkpt lat="45.7014905" lon="9.2161783"><ele>281.0</ele><time>2026-03-24T09:15:06.853Z</time></trkpt><trkpt lat="45.7016466" lon="9.2161427"><ele>281.0</ele><time>2026-03-24T09:15:07.86Z</time></trkpt><trkpt lat="45.7017659" lon="9.2161128"><ele>281.0</ele><time>2026-03-24T09:15:08.85Z</time></trkpt><trkpt lat="45.7018972" lon="9.2161197"><ele>281.0</ele><time>2026-03-24T09:15:09.857Z</time></trkpt><trkpt lat="45.70199" lon="9.2161142"><ele>281.0</ele><time>2026-03-24T09:15:10.852Z</time></trkpt><trkpt lat="45.7021091" lon="9.2161208"><ele>281.40000000000003</ele><time>2026-03-24T09:15:11.869Z</time></trkpt><trkpt lat="45.7022398" lon="9.2161304"><ele>281.8</ele><time>2026-03-24T09:15:12.865Z</time></trkpt><trkpt lat="45.7023242" lon="9.2161436"><ele>282.20000000000005</ele><time>2026-03-24T09:15:13.862Z</time></trkpt><trkpt lat="45.7024121" lon="9.2161987"><ele>282.6</ele><time>2026-03-24T09:15:14.881Z</time></trkpt><trkpt lat="45.7025141" lon="9.2162418"><ele>283.0</ele><time>2026-03-24T09:15:15.864Z</time></trkpt><trkpt lat="45.7026175" lon="9.2162973"><ele>283.0</ele><time>2026-03-24T09:15:16.858Z</time></trkpt><trkpt lat="45.7027057" lon="9.2163364"><ele>283.0</ele><time>2026-03-24T09:15:17.852Z</time></trkpt><trkpt lat="45.7027804" lon="9.2163203"><ele>283.0</ele><time>2026-03-24T09:15:18.857Z</time></trkpt><trkpt lat="45.7028496" lon="9.2161473"><ele>283.0</ele><time>2026-03-24T09:15:20.854Z</time></trkpt><trkpt lat="45.7028621" lon="9.2160334"><ele>283.0</ele><time>2026-03-24T09:15:21.862Z</time></trkpt><trkpt lat="45.7027923" lon="9.2158801"><ele>283.0</ele><time>2026-03-24T09:15:22.85Z</time></trkpt><trkpt lat="45.7026715" lon="9.2157189"><ele>283.0</ele><time>2026-03-24T09:15:23.85Z</time></trkpt><trkpt lat="45.702527" lon="9.2155943"><ele>283.0</ele><time>2026-03-24T09:15:24.852Z</time></trkpt><trkpt lat="45.7023931" lon="9.2154476"><ele>282.3333333333333</ele><time>2026-03-24T09:15:25.856Z</time></trkpt><trkpt lat="45.7022618" lon="9.2152819"><ele>281.6666666666667</ele><time>2026-03-24T09:15:26.868Z</time></trkpt><trkpt lat="45.7021489" lon="9.2151487"><ele>281.0</ele><time>2026-03-24T09:15:27.864Z</time></trkpt><trkpt lat="45.7019913" lon="9.2150244"><ele>280.33333333333337</ele><time>2026-03-24T09:15:28.863Z</time></trkpt><trkpt lat="45.7018789" lon="9.2148314"><ele>279.6666666666667</ele><time>2026-03-24T09:15:29.868Z</time></trkpt><trkpt lat="45.7017709" lon="9.2146583"><ele>279.0</ele><time>2026-03-24T09:15:30.859Z</time></trkpt><trkpt lat="45.7016195" lon="9.2144544"><ele>279.0</ele><time>2026-03-24T09:15:31.861Z</time></trkpt><trkpt lat="45.701534" lon="9.2142688"><ele>279.0</ele><time>2026-03-24T09:15:32.857Z</time></trkpt><trkpt lat="45.7014303" lon="9.2141073"><ele>279.0</ele><time>2026-03-24T09:15:33.848Z</time></trkpt><trkpt lat="45.7013334" lon="9.213928"><ele>278.3333333333333</ele><time>2026-03-24T09:15:34.852Z</time></trkpt><trkpt lat="45.7012554" lon="9.2137466"><ele>277.66666666666663</ele><time>2026-03-24T09:15:35.851Z</time></trkpt><trkpt lat="45.7011515" lon="9.2135415"><ele>277.0</ele><time>2026-03-24T09:15:36.855Z</time></trkpt><trkpt lat="45.7010454" lon="9.2133354"><ele>276.5</ele><time>2026-03-24T09:15:37.858Z</time></trkpt><trkpt lat="45.7009477" lon="9.2131638"><ele>276.0</ele><time>2026-03-24T09:15:38.851Z</time></trkpt><trkpt lat="45.7008381" lon="9.2130293"><ele>275.5</ele><time>2026-03-24T09:15:39.856Z</time></trkpt><trkpt lat="45.7007635" lon="9.212914"><ele>275.0</ele><time>2026-03-24T09:15:40.852Z</time></trkpt><trkpt lat="45.7006973" lon="9.2128499"><ele>274.8</ele><time>2026-03-24T09:15:41.862Z</time></trkpt><trkpt lat="45.7006396" lon="9.2127706"><ele>274.6</ele><time>2026-03-24T09:15:42.875Z</time></trkpt><trkpt lat="45.7005742" lon="9.2126661"><ele>274.4</ele><time>2026-03-24T09:15:44.859Z</time></trkpt><trkpt lat="45.7006391" lon="9.2125838"><ele>274.2</ele><time>2026-03-24T09:15:45.89Z</time></trkpt><trkpt lat="45.7007401" lon="9.2125017"><ele>274.0</ele><time>2026-03-24T09:15:46.874Z</time></trkpt><trkpt lat="45.7008097" lon="9.2124349"><ele>274.0</ele><time>2026-03-24T09:15:47.869Z</time></trkpt><trkpt lat="45.7008782" lon="9.2123525"><ele>274.0</ele><time>2026-03-24T09:15:48.868Z</time></trkpt><trkpt lat="45.7009505" lon="9.2122545"><ele>274.0</ele><time>2026-03-24T09:15:49.869Z</time></trkpt><trkpt lat="45.7010245" lon="9.2121473"><ele>274.0</ele><time>2026-03-24T09:15:50.866Z</time></trkpt><trkpt lat="45.7010957" lon="9.2120315"><ele>274.0</ele><time>2026-03-24T09:15:51.867Z</time></trkpt><trkpt lat="45.7011772" lon="9.2118997"><ele>274.0</ele><time>2026-03-24T09:15:52.862Z</time></trkpt><trkpt lat="45.7012758" lon="9.2117697"><ele>274.0</ele><time>2026-03-24T09:15:53.867Z</time></trkpt><trkpt lat="45.7013782" lon="9.2116505"><ele>274.0</ele><time>2026-03-24T09:15:54.873Z</time></trkpt><trkpt lat="45.7014783" lon="9.2115281"><ele>274.0</ele><time>2026-03-24T09:15:55.878Z</time></trkpt><trkpt lat="45.7015817" lon="9.2114001"><ele>274.0</ele><time>2026-03-24T09:15:56.871Z</time></trkpt><trkpt lat="45.7016887" lon="9.211279"><ele>274.0</ele><time>2026-03-24T09:15:57.872Z</time></trkpt><trkpt lat="45.7017881" lon="9.2111508"><ele>274.0</ele><time>2026-03-24T09:15:58.872Z</time></trkpt><trkpt lat="45.7018801" lon="9.2110334"><ele>274.0</ele><time>2026-03-24T09:15:59.876Z</time></trkpt><trkpt lat="45.701968" lon="9.2109198"><ele>274.2</ele><time>2026-03-24T09:16:00.866Z</time></trkpt><trkpt lat="45.702055" lon="9.2108068"><ele>274.4</ele><time>2026-03-24T09:16:01.863Z</time></trkpt><trkpt lat="45.7021367" lon="9.210703"><ele>274.6</ele><time>2026-03-24T09:16:02.861Z</time></trkpt><trkpt lat="45.7022092" lon="9.2106085"><ele>274.8</ele><time>2026-03-24T09:16:03.863Z</time></trkpt><trkpt lat="45.7022733" lon="9.2105164"><ele>275.0</ele><time>2026-03-24T09:16:04.86Z</time></trkpt><trkpt lat="45.7023289" lon="9.2104298"><ele>275.0</ele><time>2026-03-24T09:16:05.863Z</time></trkpt><trkpt lat="45.7023783" lon="9.2103611"><ele>275.0</ele><time>2026-03-24T09:16:06.852Z</time></trkpt><trkpt lat="45.7024446" lon="9.2102925"><ele>275.0</ele><time>2026-03-24T09:16:08.864Z</time></trkpt><trkpt lat="45.7025193" lon="9.210214"><ele>275.0</ele><time>2026-03-24T09:17:20.855Z</time></trkpt><trkpt lat="45.7025714" lon="9.2101371"><ele>275.0</ele><time>2026-03-24T09:17:21.853Z</time></trkpt><trkpt lat="45.7026719" lon="9.2100167"><ele>275.0</ele><time>2026-03-24T09:17:22.854Z</time></trkpt><trkpt lat="45.7027942" lon="9.2099161"><ele>275.0</ele><time>2026-03-24T09:17:23.848Z</time></trkpt><trkpt lat="45.702933" lon="9.2098266"><ele>275.0</ele><time>2026-03-24T09:17:24.844Z</time></trkpt><trkpt lat="45.7030815" lon="9.2097344"><ele>275.0</ele><time>2026-03-24T09:17:25.849Z</time></trkpt><trkpt lat="45.7032774" lon="9.2096527"><ele>275.33333333333337</ele><time>2026-03-24T09:17:26.855Z</time></trkpt><trkpt lat="45.7034373" lon="9.2095295"><ele>275.6666666666667</ele><time>2026-03-24T09:17:27.86Z</time></trkpt><trkpt lat="45.7035675" lon="9.2094087"><ele>276.0</ele><time>2026-03-24T09:17:28.855Z</time></trkpt><trkpt lat="45.7037255" lon="9.2092964"><ele>276.0</ele><time>2026-03-24T09:17:29.865Z</time></trkpt><trkpt lat="45.7039178" lon="9.2091924"><ele>276.0</ele><time>2026-03-24T09:17:30.864Z</time></trkpt><trkpt lat="45.7040523" lon="9.2091263"><ele>276.0</ele><time>2026-03-24T09:17:31.86Z</time></trkpt><trkpt lat="45.7041519" lon="9.2090662"><ele>275.75</ele><time>2026-03-24T09:17:32.85Z</time></trkpt><trkpt lat="45.7042775" lon="9.2089923"><ele>275.5</ele><time>2026-03-24T09:17:33.853Z</time></trkpt><trkpt lat="45.704375" lon="9.2089281"><ele>275.25</ele><time>2026-03-24T09:17:34.855Z</time></trkpt><trkpt lat="45.7044822" lon="9.2088672"><ele>275.0</ele><time>2026-03-24T09:17:35.855Z</time></trkpt><trkpt lat="45.7045684" lon="9.2088127"><ele>276.0</ele><time>2026-03-24T09:17:36.852Z</time></trkpt><trkpt lat="45.7046637" lon="9.2087433"><ele>277.0</ele><time>2026-03-24T09:17:37.856Z</time></trkpt><trkpt lat="45.7047829" lon="9.2086927"><ele>278.0</ele><time>2026-03-24T09:17:38.857Z</time></trkpt><trkpt lat="45.7049119" lon="9.208677"><ele>279.0</ele><time>2026-03-24T09:17:39.855Z</time></trkpt><trkpt lat="45.7050369" lon="9.2086845"><ele>279.0</ele><time>2026-03-24T09:17:40.858Z</time></trkpt><trkpt lat="45.7051814" lon="9.2086927"><ele>279.0</ele><time>2026-03-24T09:17:41.85Z</time></trkpt><trkpt lat="45.7053197" lon="9.2087017"><ele>279.0</ele><time>2026-03-24T09:17:42.848Z</time></trkpt><trkpt lat="45.705448" lon="9.2086974"><ele>279.0</ele><time>2026-03-24T09:17:43.848Z</time></trkpt><trkpt lat="45.7055828" lon="9.208704"><ele>279.0</ele><time>2026-03-24T09:17:44.856Z</time></trkpt><trkpt lat="45.7057228" lon="9.208696"><ele>279.0</ele><time>2026-03-24T09:17:45.852Z</time></trkpt><trkpt lat="45.7058659" lon="9.2087146"><ele>279.0</ele><time>2026-03-24T09:17:46.855Z</time></trkpt><trkpt lat="45.7060481" lon="9.2087239"><ele>279.6666666666667</ele><time>2026-03-24T09:17:47.853Z</time></trkpt><trkpt lat="45.7062651" lon="9.208721"><ele>280.33333333333337</ele><time>2026-03-24T09:17:48.863Z</time></trkpt><trkpt lat="45.7064298" lon="9.2087154"><ele>281.0</ele><time>2026-03-24T09:17:49.844Z</time></trkpt><trkpt lat="45.7066117" lon="9.2087228"><ele>281.0</ele><time>2026-03-24T09:17:50.841Z</time></trkpt><trkpt lat="45.70674" lon="9.208703"><ele>281.0</ele><time>2026-03-24T09:17:51.852Z</time></trkpt><trkpt lat="45.706863" lon="9.2086849"><ele>281.0</ele><time>2026-03-24T09:17:52.862Z</time></trkpt><trkpt lat="45.706985" lon="9.2086745"><ele>281.0</ele><time>2026-03-24T09:17:53.858Z</time></trkpt><trkpt lat="45.7070914" lon="9.2086567"><ele>280.75</ele><time>2026-03-24T09:17:54.854Z</time></trkpt><trkpt lat="45.707192" lon="9.2086308"><ele>280.5</ele><time>2026-03-24T09:17:55.856Z</time></trkpt><trkpt lat="45.7073314" lon="9.2086526"><ele>280.25</ele><time>2026-03-24T09:17:56.856Z</time></trkpt><trkpt lat="45.7074658" lon="9.2086217"><ele>280.0</ele><time>2026-03-24T09:17:57.862Z</time></trkpt><trkpt lat="45.7076348" lon="9.2086287"><ele>280.66666666666663</ele><time>2026-03-24T09:17:58.861Z</time></trkpt><trkpt lat="45.7077993" lon="9.2085937"><ele>281.3333333333333</ele><time>2026-03-24T09:17:59.863Z</time></trkpt><trkpt lat="45.7079512" lon="9.2085951"><ele>282.0</ele><time>2026-03-24T09:18:00.871Z</time></trkpt><trkpt lat="45.708108" lon="9.208568"><ele>282.0</ele><time>2026-03-24T09:18:01.862Z</time></trkpt><trkpt lat="45.7082579" lon="9.2085665"><ele>282.0</ele><time>2026-03-24T09:18:02.87Z</time></trkpt><trkpt lat="45.7084477" lon="9.2085531"><ele>282.0</ele><time>2026-03-24T09:18:03.862Z</time></trkpt><trkpt lat="45.7085964" lon="9.2085455"><ele>282.6666666666667</ele><time>2026-03-24T09:18:04.864Z</time></trkpt><trkpt lat="45.7087439" lon="9.2085432"><ele>283.33333333333337</ele><time>2026-03-24T09:18:05.859Z</time></trkpt><trkpt lat="45.7088936" lon="9.2085314"><ele>284.0</ele><time>2026-03-24T09:18:06.864Z</time></trkpt><trkpt lat="45.7090708" lon="9.2085303"><ele>284.0</ele><time>2026-03-24T09:18:07.861Z</time></trkpt><trkpt lat="45.7092715" lon="9.2085256"><ele>284.0</ele><time>2026-03-24T09:18:08.864Z</time></trkpt><trkpt lat="45.7094635" lon="9.2085305"><ele>284.0</ele><time>2026-03-24T09:18:09.871Z</time></trkpt><trkpt lat="45.7096324" lon="9.2085104"><ele>284.5</ele><time>2026-03-24T09:18:10.867Z</time></trkpt><trkpt lat="45.7098237" lon="9.2085239"><ele>285.0</ele><time>2026-03-24T09:18:11.868Z</time></trkpt><trkpt lat="45.7099444" lon="9.2085241"><ele>285.5</ele><time>2026-03-24T09:18:12.862Z</time></trkpt><trkpt lat="45.7100515" lon="9.2085194"><ele>286.0</ele><time>2026-03-24T09:18:13.863Z</time></trkpt><trkpt lat="45.7101838" lon="9.2084849"><ele>286.0</ele><time>2026-03-24T09:18:14.866Z</time></trkpt><trkpt lat="45.710354" lon="9.2084566"><ele>286.0</ele><time>2026-03-24T09:18:15.87Z</time></trkpt><trkpt lat="45.7104912" lon="9.2084402"><ele>286.0</ele><time>2026-03-24T09:18:16.869Z</time></trkpt><trkpt lat="45.7106221" lon="9.2084129"><ele>286.0</ele><time>2026-03-24T09:18:17.862Z</time></trkpt><trkpt lat="45.7107609" lon="9.2084289"><ele>286.0</ele><time>2026-03-24T09:18:18.867Z</time></trkpt><trkpt lat="45.7108861" lon="9.2084404"><ele>286.0</ele><time>2026-03-24T09:18:19.881Z</time></trkpt><trkpt lat="45.7110267" lon="9.2084412"><ele>286.0</ele><time>2026-03-24T09:18:20.868Z</time></trkpt><trkpt lat="45.7111747" lon="9.2084609"><ele>286.0</ele><time>2026-03-24T09:18:21.869Z</time></trkpt><trkpt lat="45.7112967" lon="9.20844"><ele>286.2</ele><time>2026-03-24T09:18:22.869Z</time></trkpt><trkpt lat="45.7113933" lon="9.2084392"><ele>286.40000000000003</ele><time>2026-03-24T09:18:23.876Z</time></trkpt><trkpt lat="45.7115083" lon="9.2084672"><ele>286.6</ele><time>2026-03-24T09:18:24.868Z</time></trkpt><trkpt lat="45.711634" lon="9.208449"><ele>286.8</ele><time>2026-03-24T09:18:25.885Z</time></trkpt><trkpt lat="45.7117087" lon="9.2084252"><ele>287.0</ele><time>2026-03-24T09:18:26.872Z</time></trkpt><trkpt lat="45.7118122" lon="9.2084067"><ele>287.0</ele><time>2026-03-24T09:18:27.876Z</time></trkpt><trkpt lat="45.711916" lon="9.2083875"><ele>287.0</ele><time>2026-03-24T09:18:28.875Z</time></trkpt><trkpt lat="45.7120138" lon="9.2083782"><ele>287.0</ele><time>2026-03-24T09:18:29.878Z</time></trkpt><trkpt lat="45.7121121" lon="9.2083765"><ele>287.0</ele><time>2026-03-24T09:18:30.871Z</time></trkpt><trkpt lat="45.7122011" lon="9.2083834"><ele>287.0</ele><time>2026-03-24T09:18:31.874Z</time></trkpt><trkpt lat="45.7122864" lon="9.2083853"><ele>287.0</ele><time>2026-03-24T09:18:32.869Z</time></trkpt><trkpt lat="45.7123623" lon="9.2083711"><ele>287.0</ele><time>2026-03-24T09:18:33.869Z</time></trkpt><trkpt lat="45.7124474" lon="9.2083493"><ele>287.0</ele><time>2026-03-24T09:18:34.87Z</time></trkpt><trkpt lat="45.7125382" lon="9.2083362"><ele>287.0</ele><time>2026-03-24T09:18:35.862Z</time></trkpt><trkpt lat="45.7126275" lon="9.2083301"><ele>287.0</ele><time>2026-03-24T09:18:36.86Z</time></trkpt><trkpt lat="45.7127367" lon="9.2083364"><ele>286.75</ele><time>2026-03-24T09:18:37.863Z</time></trkpt><trkpt lat="45.7128443" lon="9.2083275"><ele>286.5</ele><time>2026-03-24T09:18:38.86Z</time></trkpt><trkpt lat="45.7129678" lon="9.2083117"><ele>286.25</ele><time>2026-03-24T09:18:39.854Z</time></trkpt><trkpt lat="45.7131019" lon="9.2082886"><ele>286.0</ele><time>2026-03-24T09:18:40.851Z</time></trkpt><trkpt lat="45.7132454" lon="9.208285"><ele>286.0</ele><time>2026-03-24T09:18:41.861Z</time></trkpt><trkpt lat="45.7134215" lon="9.2083034"><ele>286.0</ele><time>2026-03-24T09:18:42.857Z</time></trkpt><trkpt lat="45.713545" lon="9.2083232"><ele>286.0</ele><time>2026-03-24T09:18:43.857Z</time></trkpt><trkpt lat="45.7136459" lon="9.2083291"><ele>286.0</ele><time>2026-03-24T09:18:44.854Z</time></trkpt><trkpt lat="45.7137287" lon="9.2083124"><ele>286.0</ele><time>2026-03-24T09:18:46.863Z</time></trkpt><trkpt lat="45.7138499" lon="9.2082915"><ele>286.0</ele><time>2026-03-24T09:18:48.872Z</time></trkpt><trkpt lat="45.7139245" lon="9.208295"><ele>286.0</ele><time>2026-03-24T09:19:11.846Z</time></trkpt><trkpt lat="45.7140212" lon="9.2082889"><ele>286.0</ele><time>2026-03-24T09:19:14.859Z</time></trkpt><trkpt lat="45.7141713" lon="9.2082807"><ele>286.0</ele><time>2026-03-24T09:19:16.86Z</time></trkpt><trkpt lat="45.7142539" lon="9.208277"><ele>286.0</ele><time>2026-03-24T09:19:17.86Z</time></trkpt><trkpt lat="45.7143464" lon="9.2082761"><ele>286.0</ele><time>2026-03-24T09:19:18.862Z</time></trkpt><trkpt lat="45.7144325" lon="9.2082625"><ele>286.0</ele><time>2026-03-24T09:19:19.864Z</time></trkpt><trkpt lat="45.7144975" lon="9.2082185"><ele>286.0</ele><time>2026-03-24T09:19:20.861Z</time></trkpt><trkpt lat="45.7145463" lon="9.2081325"><ele>286.0</ele><time>2026-03-24T09:19:21.873Z</time></trkpt><trkpt lat="45.7145783" lon="9.2080496"><ele>286.0</ele><time>2026-03-24T09:19:22.86Z</time></trkpt><trkpt lat="45.7146311" lon="9.2079338"><ele>286.25</ele><time>2026-03-24T09:19:23.867Z</time></trkpt><trkpt lat="45.7146589" lon="9.2078033"><ele>286.5</ele><time>2026-03-24T09:19:24.864Z</time></trkpt><trkpt lat="45.7146671" lon="9.2076417"><ele>286.75</ele><time>2026-03-24T09:19:25.868Z</time></trkpt><trkpt lat="45.7147001" lon="9.2074679"><ele>287.0</ele><time>2026-03-24T09:19:26.874Z</time></trkpt><trkpt lat="45.7147384" lon="9.2073047"><ele>287.0</ele><time>2026-03-24T09:19:27.866Z</time></trkpt><trkpt lat="45.714772" lon="9.2071363"><ele>287.0</ele><time>2026-03-24T09:19:28.864Z</time></trkpt><trkpt lat="45.7148037" lon="9.2069679"><ele>287.0</ele><time>2026-03-24T09:19:29.863Z</time></trkpt><trkpt lat="45.7148342" lon="9.2068226"><ele>287.0</ele><time>2026-03-24T09:19:30.86Z</time></trkpt><trkpt lat="45.7148389" lon="9.2066868"><ele>287.0</ele><time>2026-03-24T09:19:31.872Z</time></trkpt><trkpt lat="45.7148686" lon="9.206559"><ele>286.6666666666667</ele><time>2026-03-24T09:19:32.871Z</time></trkpt><trkpt lat="45.7148956" lon="9.2064443"><ele>286.33333333333337</ele><time>2026-03-24T09:19:33.869Z</time></trkpt><trkpt lat="45.7149249" lon="9.2063062"><ele>286.0</ele><time>2026-03-24T09:19:34.864Z</time></trkpt><trkpt lat="45.7149532" lon="9.2061882"><ele>285.6666666666667</ele><time>2026-03-24T09:19:35.87Z</time></trkpt><trkpt lat="45.7149703" lon="9.2060977"><ele>285.3333333333333</ele><time>2026-03-24T09:19:36.859Z</time></trkpt><trkpt lat="45.7150095" lon="9.2059796"><ele>285.0</ele><time>2026-03-24T09:19:38.864Z</time></trkpt><trkpt lat="45.7150187" lon="9.2058322"><ele>285.0</ele><time>2026-03-24T09:19:41.862Z</time></trkpt><trkpt lat="45.7150229" lon="9.205733"><ele>285.0</ele><time>2026-03-24T09:19:42.863Z</time></trkpt><trkpt lat="45.7150492" lon="9.2055769"><ele>285.0</ele><time>2026-03-24T09:19:43.851Z</time></trkpt><trkpt lat="45.7150618" lon="9.2053833"><ele>285.0</ele><time>2026-03-24T09:19:44.851Z</time></trkpt><trkpt lat="45.7150871" lon="9.2051857"><ele>285.0</ele><time>2026-03-24T09:19:45.849Z</time></trkpt><trkpt lat="45.7151216" lon="9.2049762"><ele>285.0</ele><time>2026-03-24T09:19:46.857Z</time></trkpt><trkpt lat="45.7151601" lon="9.2047452"><ele>285.0</ele><time>2026-03-24T09:19:47.853Z</time></trkpt><trkpt lat="45.7152041" lon="9.2044817"><ele>285.3333333333333</ele><time>2026-03-24T09:19:48.854Z</time></trkpt><trkpt lat="45.7152512" lon="9.2041821"><ele>285.66666666666663</ele><time>2026-03-24T09:19:49.851Z</time></trkpt><trkpt lat="45.7153006" lon="9.2038669"><ele>286.0</ele><time>2026-03-24T09:19:50.85Z</time></trkpt><trkpt lat="45.7153528" lon="9.2034941"><ele>285.66666666666663</ele><time>2026-03-24T09:19:51.854Z</time></trkpt><trkpt lat="45.7153754" lon="9.203144"><ele>285.3333333333333</ele><time>2026-03-24T09:19:52.87Z</time></trkpt><trkpt lat="45.7154006" lon="9.2028651"><ele>285.0</ele><time>2026-03-24T09:19:53.852Z</time></trkpt><trkpt lat="45.7154509" lon="9.2025574"><ele>285.6666666666667</ele><time>2026-03-24T09:19:54.851Z</time></trkpt><trkpt lat="45.7155057" lon="9.2022577"><ele>286.33333333333337</ele><time>2026-03-24T09:19:55.861Z</time></trkpt><trkpt lat="45.7155488" lon="9.2019427"><ele>287.0</ele><time>2026-03-24T09:19:56.857Z</time></trkpt><trkpt lat="45.7156031" lon="9.2016399"><ele>288.0</ele><time>2026-03-24T09:19:57.86Z</time></trkpt><trkpt lat="45.7156502" lon="9.2013305"><ele>289.0</ele><time>2026-03-24T09:19:58.856Z</time></trkpt><trkpt lat="45.7157157" lon="9.2010419"><ele>290.0</ele><time>2026-03-24T09:19:59.853Z</time></trkpt><trkpt lat="45.7157671" lon="9.2007821"><ele>292.0</ele><time>2026-03-24T09:20:00.858Z</time></trkpt><trkpt lat="45.7158226" lon="9.2005048"><ele>294.0</ele><time>2026-03-24T09:20:01.861Z</time></trkpt><trkpt lat="45.7158557" lon="9.2002453"><ele>296.0</ele><time>2026-03-24T09:20:02.855Z</time></trkpt><trkpt lat="45.7159046" lon="9.2000346"><ele>296.33333333333337</ele><time>2026-03-24T09:20:03.858Z</time></trkpt><trkpt lat="45.7159571" lon="9.1997908"><ele>296.6666666666667</ele><time>2026-03-24T09:20:04.854Z</time></trkpt><trkpt lat="45.7159925" lon="9.1995709"><ele>297.0</ele><time>2026-03-24T09:20:05.848Z</time></trkpt><trkpt lat="45.7160696" lon="9.1994183"><ele>297.0</ele><time>2026-03-24T09:20:06.857Z</time></trkpt><trkpt lat="45.7161077" lon="9.1992568"><ele>297.0</ele><time>2026-03-24T09:20:07.859Z</time></trkpt><trkpt lat="45.7161423" lon="9.1990936"><ele>297.0</ele><time>2026-03-24T09:20:08.853Z</time></trkpt><trkpt lat="45.7162018" lon="9.1989977"><ele>297.0</ele><time>2026-03-24T09:20:09.855Z</time></trkpt><trkpt lat="45.7162191" lon="9.1988592"><ele>297.0</ele><time>2026-03-24T09:20:10.858Z</time></trkpt><trkpt lat="45.7162409" lon="9.1987693"><ele>297.3333333333333</ele><time>2026-03-24T09:20:11.857Z</time></trkpt><trkpt lat="45.7163576" lon="9.1987102"><ele>297.6666666666667</ele><time>2026-03-24T09:20:13.854Z</time></trkpt><trkpt lat="45.7164391" lon="9.1987072"><ele>298.0</ele><time>2026-03-24T09:20:14.863Z</time></trkpt><trkpt lat="45.716513" lon="9.1987016"><ele>298.33333333333337</ele><time>2026-03-24T09:20:15.857Z</time></trkpt><trkpt lat="45.7165883" lon="9.1986718"><ele>298.6666666666667</ele><time>2026-03-24T09:20:16.86Z</time></trkpt><trkpt lat="45.7166409" lon="9.1986149"><ele>299.0</ele><time>2026-03-24T09:20:17.858Z</time></trkpt><trkpt lat="45.7166873" lon="9.1985363"><ele>299.0</ele><time>2026-03-24T09:20:18.851Z</time></trkpt><trkpt lat="45.7167244" lon="9.1984302"><ele>299.0</ele><time>2026-03-24T09:20:19.852Z</time></trkpt><trkpt lat="45.7167502" lon="9.1983077"><ele>299.0</ele><time>2026-03-24T09:20:20.85Z</time></trkpt><trkpt lat="45.7167444" lon="9.1981726"><ele>299.0</ele><time>2026-03-24T09:20:21.851Z</time></trkpt><trkpt lat="45.7167701" lon="9.1980266"><ele>299.0</ele><time>2026-03-24T09:20:22.851Z</time></trkpt><trkpt lat="45.7168187" lon="9.1978999"><ele>299.0</ele><time>2026-03-24T09:20:23.869Z</time></trkpt><trkpt lat="45.7168898" lon="9.1977681"><ele>299.0</ele><time>2026-03-24T09:20:24.845Z</time></trkpt><trkpt lat="45.7169691" lon="9.1976382"><ele>299.0</ele><time>2026-03-24T09:20:25.847Z</time></trkpt><trkpt lat="45.7170568" lon="9.1975129"><ele>299.0</ele><time>2026-03-24T09:20:26.84Z</time></trkpt><trkpt lat="45.7171642" lon="9.1973787"><ele>296.75</ele><time>2026-03-24T09:20:27.837Z</time></trkpt><trkpt lat="45.7172477" lon="9.1972229"><ele>294.5</ele><time>2026-03-24T09:20:28.838Z</time></trkpt><trkpt lat="45.7173239" lon="9.1970851"><ele>292.25</ele><time>2026-03-24T09:20:29.845Z</time></trkpt><trkpt lat="45.7174042" lon="9.197008"><ele>290.0</ele><time>2026-03-24T09:20:30.833Z</time></trkpt><trkpt lat="45.7174999" lon="9.1969901"><ele>290.0</ele><time>2026-03-24T09:20:31.831Z</time></trkpt><trkpt lat="45.7176362" lon="9.1970307"><ele>290.0</ele><time>2026-03-24T09:20:33.839Z</time></trkpt><trkpt lat="45.7177073" lon="9.1970917"><ele>290.0</ele><time>2026-03-24T09:20:34.851Z</time></trkpt><trkpt lat="45.7177995" lon="9.1971761"><ele>290.0</ele><time>2026-03-24T09:20:35.862Z</time></trkpt><trkpt lat="45.7178715" lon="9.1972875"><ele>290.0</ele><time>2026-03-24T09:20:36.864Z</time></trkpt><trkpt lat="45.7179477" lon="9.1973483"><ele>291.33333333333337</ele><time>2026-03-24T09:20:37.864Z</time></trkpt><trkpt lat="45.7180247" lon="9.1973964"><ele>292.6666666666667</ele><time>2026-03-24T09:20:38.863Z</time></trkpt><trkpt lat="45.7181025" lon="9.1974532"><ele>294.0</ele><time>2026-03-24T09:20:39.864Z</time></trkpt><trkpt lat="45.7181872" lon="9.1975228"><ele>295.3333333333333</ele><time>2026-03-24T09:20:40.859Z</time></trkpt><trkpt lat="45.7182631" lon="9.1975909"><ele>296.66666666666663</ele><time>2026-03-24T09:20:41.863Z</time></trkpt><trkpt lat="45.7183482" lon="9.1976347"><ele>298.0</ele><time>2026-03-24T09:20:42.859Z</time></trkpt><trkpt lat="45.7184454" lon="9.1976449"><ele>298.0</ele><time>2026-03-24T09:20:44.857Z</time></trkpt><trkpt lat="45.7184803" lon="9.1975609"><ele>298.0</ele><time>2026-03-24T09:20:47.86Z</time></trkpt><trkpt lat="45.7184151" lon="9.197502"><ele>298.0</ele><time>2026-03-24T09:20:49.858Z</time></trkpt><trkpt lat="45.7182942" lon="9.1975313"><ele>298.0</ele><time>2026-03-24T09:20:51.862Z</time></trkpt><trkpt lat="45.7182033" lon="9.1975603"><ele>298.0</ele><time>2026-03-24T09:20:53.86Z</time></trkpt><trkpt lat="45.7180639" lon="9.197491"><ele>298.0</ele><time>2026-03-24T09:20:55.866Z</time></trkpt><trkpt lat="45.7179754" lon="9.1974379"><ele>298.0</ele><time>2026-03-24T09:20:56.864Z</time></trkpt><trkpt lat="45.7178882" lon="9.1973695"><ele>298.0</ele><time>2026-03-24T09:20:57.861Z</time></trkpt><trkpt lat="45.7177936" lon="9.1972993"><ele>298.0</ele><time>2026-03-24T09:20:58.866Z</time></trkpt><trkpt lat="45.7176888" lon="9.1972278"><ele>298.0</ele><time>2026-03-24T09:20:59.863Z</time></trkpt><trkpt lat="45.7175498" lon="9.1971424"><ele>296.0</ele><time>2026-03-24T09:21:00.866Z</time></trkpt><trkpt lat="45.717438" lon="9.197074"><ele>294.0</ele><time>2026-03-24T09:21:01.856Z</time></trkpt><trkpt lat="45.7173348" lon="9.1970509"><ele>292.0</ele><time>2026-03-24T09:21:02.858Z</time></trkpt><trkpt lat="45.7172089" lon="9.197059"><ele>290.0</ele><time>2026-03-24T09:21:03.854Z</time></trkpt><trkpt lat="45.7171046" lon="9.1971153"><ele>290.0</ele><time>2026-03-24T09:21:04.851Z</time></trkpt><trkpt lat="45.7170036" lon="9.19721"><ele>290.0</ele><time>2026-03-24T09:21:05.849Z</time></trkpt><trkpt lat="45.7169421" lon="9.1973165"><ele>290.0</ele><time>2026-03-24T09:21:06.849Z</time></trkpt><trkpt lat="45.7168848" lon="9.1973976"><ele>290.0</ele><time>2026-03-24T09:21:07.853Z</time></trkpt><trkpt lat="45.7168356" lon="9.1974758"><ele>290.0</ele><time>2026-03-24T09:21:08.844Z</time></trkpt><trkpt lat="45.7167904" lon="9.1975498"><ele>290.0</ele><time>2026-03-24T09:21:09.834Z</time></trkpt><trkpt lat="45.7167342" lon="9.1976365"><ele>291.0</ele><time>2026-03-24T09:21:11.831Z</time></trkpt><trkpt lat="45.7166004" lon="9.1977277"><ele>292.0</ele><time>2026-03-24T09:21:41.84Z</time></trkpt><trkpt lat="45.7165351" lon="9.1978464"><ele>293.0</ele><time>2026-03-24T09:21:43.842Z</time></trkpt><trkpt lat="45.7165056" lon="9.1979424"><ele>294.0</ele><time>2026-03-24T09:21:44.839Z</time></trkpt><trkpt lat="45.7164728" lon="9.1980516"><ele>295.0</ele><time>2026-03-24T09:21:45.842Z</time></trkpt><trkpt lat="45.7164495" lon="9.1982949"><ele>295.66666666666663</ele><time>2026-03-24T09:21:47.844Z</time></trkpt><trkpt lat="45.7164456" lon="9.1983999"><ele>296.3333333333333</ele><time>2026-03-24T09:21:48.845Z</time></trkpt><trkpt lat="45.7164559" lon="9.1984924"><ele>297.0</ele><time>2026-03-24T09:21:49.842Z</time></trkpt><trkpt lat="45.7164382" lon="9.1986192"><ele>297.6666666666667</ele><time>2026-03-24T09:21:51.855Z</time></trkpt><trkpt lat="45.7163601" lon="9.1986855"><ele>298.33333333333337</ele><time>2026-03-24T09:21:53.853Z</time></trkpt><trkpt lat="45.7163378" lon="9.1987936"><ele>299.0</ele><time>2026-03-24T09:21:55.867Z</time></trkpt><trkpt lat="45.7163699" lon="9.1988738"><ele>299.0</ele><time>2026-03-24T09:21:57.848Z</time></trkpt><trkpt lat="45.716422" lon="9.1988006"><ele>299.0</ele><time>2026-03-24T09:21:58.831Z</time></trkpt><trkpt lat="45.7164713" lon="9.1986577"><ele>299.0</ele><time>2026-03-24T09:21:59.829Z</time></trkpt><trkpt lat="45.7165039" lon="9.1984446"><ele>299.0</ele><time>2026-03-24T09:22:00.832Z</time></trkpt><trkpt lat="45.71653" lon="9.1982582"><ele>298.0</ele><time>2026-03-24T09:22:01.823Z</time></trkpt><trkpt lat="45.7165281" lon="9.1980759"><ele>297.0</ele><time>2026-03-24T09:22:02.829Z</time></trkpt><trkpt lat="45.7165059" lon="9.1979241"><ele>296.0</ele><time>2026-03-24T09:22:03.823Z</time></trkpt><trkpt lat="45.7165613" lon="9.1977861"><ele>295.0</ele><time>2026-03-24T09:22:04.824Z</time></trkpt><trkpt lat="45.7166618" lon="9.1977036"><ele>295.0</ele><time>2026-03-24T09:22:05.829Z</time></trkpt><trkpt lat="45.7167374" lon="9.1976172"><ele>295.0</ele><time>2026-03-24T09:22:06.825Z</time></trkpt><trkpt lat="45.7168086" lon="9.197534"><ele>295.0</ele><time>2026-03-24T09:22:07.826Z</time></trkpt><trkpt lat="45.7168906" lon="9.1974537"><ele>295.0</ele><time>2026-03-24T09:22:08.825Z</time></trkpt><trkpt lat="45.7169718" lon="9.1974104"><ele>295.0</ele><time>2026-03-24T09:22:09.827Z</time></trkpt><trkpt lat="45.7170378" lon="9.1973509"><ele>294.16666666666663</ele><time>2026-03-24T09:22:10.833Z</time></trkpt><trkpt lat="45.7171458" lon="9.1972892"><ele>293.3333333333333</ele><time>2026-03-24T09:22:12.832Z</time></trkpt><trkpt lat="45.7171919" lon="9.1972061"><ele>292.5</ele><time>2026-03-24T09:22:13.834Z</time></trkpt><trkpt lat="45.7172446" lon="9.1971392"><ele>291.6666666666667</ele><time>2026-03-24T09:22:14.83Z</time></trkpt><trkpt lat="45.7172923" lon="9.1970688"><ele>290.83333333333337</ele><time>2026-03-24T09:22:15.827Z</time></trkpt><trkpt lat="45.7173979" lon="9.1970264"><ele>290.0</ele><time>2026-03-24T09:22:17.833Z</time></trkpt><trkpt lat="45.7174901" lon="9.1971124"><ele>290.0</ele><time>2026-03-24T09:22:19.84Z</time></trkpt><trkpt lat="45.7175581" lon="9.197151"><ele>290.0</ele><time>2026-03-24T09:22:20.845Z</time></trkpt><trkpt lat="45.7176499" lon="9.1972115"><ele>290.0</ele><time>2026-03-24T09:22:21.847Z</time></trkpt><trkpt lat="45.7177572" lon="9.197303"><ele>290.0</ele><time>2026-03-24T09:22:22.846Z</time></trkpt><trkpt lat="45.7179012" lon="9.1974002"><ele>292.0</ele><time>2026-03-24T09:22:23.854Z</time></trkpt><trkpt lat="45.7180412" lon="9.197488"><ele>294.0</ele><time>2026-03-24T09:22:24.851Z</time></trkpt><trkpt lat="45.7181694" lon="9.1975708"><ele>296.0</ele><time>2026-03-24T09:22:25.851Z</time></trkpt><trkpt lat="45.7182853" lon="9.1976345"><ele>298.0</ele><time>2026-03-24T09:22:26.866Z</time></trkpt><trkpt lat="45.718425" lon="9.1976967"><ele>298.0</ele><time>2026-03-24T09:22:27.844Z</time></trkpt><trkpt lat="45.71856" lon="9.1977236"><ele>298.0</ele><time>2026-03-24T09:22:28.846Z</time></trkpt><trkpt lat="45.718688" lon="9.1977315"><ele>298.0</ele><time>2026-03-24T09:22:29.848Z</time></trkpt><trkpt lat="45.7187954" lon="9.197719"><ele>298.0</ele><time>2026-03-24T09:22:30.85Z</time></trkpt><trkpt lat="45.7188994" lon="9.1977013"><ele>299.16666666666663</ele><time>2026-03-24T09:22:31.853Z</time></trkpt><trkpt lat="45.7189851" lon="9.1976706"><ele>300.3333333333333</ele><time>2026-03-24T09:22:32.856Z</time></trkpt><trkpt lat="45.7190817" lon="9.1976264"><ele>301.5</ele><time>2026-03-24T09:22:33.856Z</time></trkpt><trkpt lat="45.7191616" lon="9.1975795"><ele>302.6666666666667</ele><time>2026-03-24T09:22:34.855Z</time></trkpt><trkpt lat="45.7192353" lon="9.1975392"><ele>303.83333333333337</ele><time>2026-03-24T09:22:35.851Z</time></trkpt><trkpt lat="45.7193051" lon="9.1975106"><ele>305.0</ele><time>2026-03-24T09:22:36.85Z</time></trkpt><trkpt lat="45.7193679" lon="9.1974954"><ele>306.2</ele><time>2026-03-24T09:22:37.851Z</time></trkpt><trkpt lat="45.7194554" lon="9.1974777"><ele>307.4</ele><time>2026-03-24T09:22:39.853Z</time></trkpt><trkpt lat="45.7195276" lon="9.1974588"><ele>308.6</ele><time>2026-03-24T09:22:41.856Z</time></trkpt><trkpt lat="45.7196244" lon="9.1974345"><ele>309.8</ele><time>2026-03-24T09:22:43.857Z</time></trkpt><trkpt lat="45.7197209" lon="9.1974747"><ele>311.0</ele><time>2026-03-24T09:22:45.846Z</time></trkpt><trkpt lat="45.7197518" lon="9.1976091"><ele>311.0</ele><time>2026-03-24T09:22:47.843Z</time></trkpt><trkpt lat="45.7197486" lon="9.1977059"><ele>311.0</ele><time>2026-03-24T09:22:48.841Z</time></trkpt><trkpt lat="45.7197198" lon="9.1978476"><ele>311.0</ele><time>2026-03-24T09:22:49.851Z</time></trkpt><trkpt lat="45.7197182" lon="9.1979667"><ele>311.0</ele><time>2026-03-24T09:22:50.847Z</time></trkpt><trkpt lat="45.7196755" lon="9.1981209"><ele>311.0</ele><time>2026-03-24T09:22:51.851Z</time></trkpt><trkpt lat="45.7196786" lon="9.1982223"><ele>311.0</ele><time>2026-03-24T09:22:52.846Z</time></trkpt><trkpt lat="45.7196863" lon="9.1983258"><ele>311.1666666666667</ele><time>2026-03-24T09:22:53.846Z</time></trkpt><trkpt lat="45.71969" lon="9.1984474"><ele>311.33333333333337</ele><time>2026-03-24T09:22:54.853Z</time></trkpt><trkpt lat="45.7196997" lon="9.1985673"><ele>311.5</ele><time>2026-03-24T09:22:55.859Z</time></trkpt><trkpt lat="45.7197051" lon="9.1986647"><ele>311.6666666666667</ele><time>2026-03-24T09:22:56.86Z</time></trkpt><trkpt lat="45.7197132" lon="9.1988125"><ele>311.8333333333333</ele><time>2026-03-24T09:22:58.862Z</time></trkpt><trkpt lat="45.719702" lon="9.1989496"><ele>312.0</ele><time>2026-03-24T09:23:00.864Z</time></trkpt><trkpt lat="45.7197584" lon="9.1990641"><ele>312.0</ele><time>2026-03-24T09:23:02.862Z</time></trkpt><trkpt lat="45.719835" lon="9.1990903"><ele>312.0</ele><time>2026-03-24T09:23:03.858Z</time></trkpt><trkpt lat="45.719908" lon="9.1990678"><ele>312.0</ele><time>2026-03-24T09:23:04.86Z</time></trkpt><trkpt lat="45.7199891" lon="9.1990298"><ele>312.0</ele><time>2026-03-24T09:23:05.854Z</time></trkpt><trkpt lat="45.7200667" lon="9.1990033"><ele>312.0</ele><time>2026-03-24T09:23:06.855Z</time></trkpt><trkpt lat="45.7201564" lon="9.1989965"><ele>312.0</ele><time>2026-03-24T09:23:07.865Z</time></trkpt><trkpt lat="45.720264" lon="9.1990106"><ele>312.25</ele><time>2026-03-24T09:23:08.856Z</time></trkpt><trkpt lat="45.7203828" lon="9.1990397"><ele>312.5</ele><time>2026-03-24T09:23:09.865Z</time></trkpt><trkpt lat="45.7205245" lon="9.1990941"><ele>312.75</ele><time>2026-03-24T09:23:10.862Z</time></trkpt><trkpt lat="45.7206805" lon="9.1991751"><ele>313.0</ele><time>2026-03-24T09:23:11.856Z</time></trkpt><trkpt lat="45.720847" lon="9.1992555"><ele>313.0</ele><time>2026-03-24T09:23:12.855Z</time></trkpt><trkpt lat="45.7210367" lon="9.1992931"><ele>313.0</ele><time>2026-03-24T09:23:13.865Z</time></trkpt><trkpt lat="45.7212367" lon="9.1993548"><ele>313.0</ele><time>2026-03-24T09:23:14.867Z</time></trkpt><trkpt lat="45.7214415" lon="9.1993752"><ele>313.2</ele><time>2026-03-24T09:23:15.867Z</time></trkpt><trkpt lat="45.7215889" lon="9.1993748"><ele>313.4</ele><time>2026-03-24T09:23:16.86Z</time></trkpt><trkpt lat="45.7216532" lon="9.1994303"><ele>313.59999999999997</ele><time>2026-03-24T09:23:17.856Z</time></trkpt><trkpt lat="45.7217428" lon="9.1994177"><ele>313.8</ele><time>2026-03-24T09:23:18.855Z</time></trkpt><trkpt lat="45.7218224" lon="9.1994194"><ele>314.0</ele><time>2026-03-24T09:23:19.858Z</time></trkpt><trkpt lat="45.7220092" lon="9.1994532"><ele>315.0</ele><time>2026-03-24T09:23:20.854Z</time></trkpt><trkpt lat="45.7221847" lon="9.1994669"><ele>316.0</ele><time>2026-03-24T09:23:21.859Z</time></trkpt><trkpt lat="45.7223428" lon="9.1994677"><ele>317.0</ele><time>2026-03-24T09:23:22.849Z</time></trkpt><trkpt lat="45.7225039" lon="9.1994775"><ele>317.0</ele><time>2026-03-24T09:23:23.853Z</time></trkpt><trkpt lat="45.7226391" lon="9.1994708"><ele>317.0</ele><time>2026-03-24T09:23:24.85Z</time></trkpt><trkpt lat="45.7227234" lon="9.1994863"><ele>317.0</ele><time>2026-03-24T09:23:25.853Z</time></trkpt><trkpt lat="45.7228653" lon="9.1994997"><ele>317.0</ele><time>2026-03-24T09:23:26.853Z</time></trkpt><trkpt lat="45.7229798" lon="9.1995024"><ele>317.5</ele><time>2026-03-24T09:23:27.844Z</time></trkpt><trkpt lat="45.7230731" lon="9.1995253"><ele>318.0</ele><time>2026-03-24T09:23:28.862Z</time></trkpt><trkpt lat="45.7232061" lon="9.1995453"><ele>318.5</ele><time>2026-03-24T09:23:29.847Z</time></trkpt><trkpt lat="45.7233676" lon="9.1995617"><ele>319.0</ele><time>2026-03-24T09:23:30.854Z</time></trkpt><trkpt lat="45.7235295" lon="9.1995921"><ele>319.4</ele><time>2026-03-24T09:23:31.857Z</time></trkpt><trkpt lat="45.7236646" lon="9.1996344"><ele>319.79999999999995</ele><time>2026-03-24T09:23:32.851Z</time></trkpt><trkpt lat="45.7237579" lon="9.1996398"><ele>320.20000000000005</ele><time>2026-03-24T09:23:33.856Z</time></trkpt><trkpt lat="45.7238488" lon="9.1997013"><ele>320.6</ele><time>2026-03-24T09:23:35.85Z</time></trkpt><trkpt lat="45.7238554" lon="9.1998267"><ele>321.0</ele><time>2026-03-24T09:23:36.851Z</time></trkpt><trkpt lat="45.7237958" lon="9.1999293"><ele>321.4</ele><time>2026-03-24T09:23:37.846Z</time></trkpt><trkpt lat="45.7237593" lon="9.20005"><ele>321.8</ele><time>2026-03-24T09:23:38.849Z</time></trkpt><trkpt lat="45.7237351" lon="9.2001845"><ele>322.2</ele><time>2026-03-24T09:23:39.84Z</time></trkpt><trkpt lat="45.7237221" lon="9.200319"><ele>322.59999999999997</ele><time>2026-03-24T09:23:40.838Z</time></trkpt><trkpt lat="45.7236996" lon="9.2004683"><ele>323.0</ele><time>2026-03-24T09:23:41.834Z</time></trkpt><trkpt lat="45.723692" lon="9.200605"><ele>322.4</ele><time>2026-03-24T09:23:42.832Z</time></trkpt><trkpt lat="45.723675" lon="9.2007397"><ele>321.79999999999995</ele><time>2026-03-24T09:23:43.838Z</time></trkpt><trkpt lat="45.723675" lon="9.2008519"><ele>321.2</ele><time>2026-03-24T09:23:44.844Z</time></trkpt><trkpt lat="45.7236452" lon="9.2009577"><ele>320.6</ele><time>2026-03-24T09:23:45.842Z</time></trkpt><trkpt lat="45.7237018" lon="9.2010954"><ele>320.0</ele><time>2026-03-24T09:23:47.839Z</time></trkpt><trkpt lat="45.7238024" lon="9.2011467"><ele>320.0</ele><time>2026-03-24T09:23:48.841Z</time></trkpt><trkpt lat="45.7239506" lon="9.2011818"><ele>320.0</ele><time>2026-03-24T09:23:50.835Z</time></trkpt><trkpt lat="45.7240256" lon="9.2012037"><ele>320.0</ele><time>2026-03-24T09:23:51.83Z</time></trkpt><trkpt lat="45.7241175" lon="9.201199"><ele>320.0</ele><time>2026-03-24T09:23:52.834Z</time></trkpt><trkpt lat="45.724213" lon="9.2011962"><ele>320.0</ele><time>2026-03-24T09:23:53.833Z</time></trkpt><trkpt lat="45.7243063" lon="9.2011846"><ele>319.25</ele><time>2026-03-24T09:23:54.836Z</time></trkpt><trkpt lat="45.7244061" lon="9.2011976"><ele>318.5</ele><time>2026-03-24T09:23:55.834Z</time></trkpt><trkpt lat="45.7245073" lon="9.2012092"><ele>317.75</ele><time>2026-03-24T09:23:56.833Z</time></trkpt><trkpt lat="45.7246295" lon="9.2012013"><ele>317.0</ele><time>2026-03-24T09:23:57.834Z</time></trkpt><trkpt lat="45.7247622" lon="9.201165"><ele>317.0</ele><time>2026-03-24T09:23:58.837Z</time></trkpt><trkpt lat="45.7248858" lon="9.2010985"><ele>317.0</ele><time>2026-03-24T09:23:59.856Z</time></trkpt><trkpt lat="45.7249833" lon="9.2010846"><ele>317.0</ele><time>2026-03-24T09:24:00.846Z</time></trkpt><trkpt lat="45.7250812" lon="9.2011"><ele>317.0</ele><time>2026-03-24T09:24:01.848Z</time></trkpt><trkpt lat="45.7251889" lon="9.2011152"><ele>317.0</ele><time>2026-03-24T09:24:02.848Z</time></trkpt><trkpt lat="45.7252805" lon="9.2011478"><ele>316.0</ele><time>2026-03-24T09:24:03.844Z</time></trkpt><trkpt lat="45.7253932" lon="9.2011769"><ele>315.0</ele><time>2026-03-24T09:24:04.849Z</time></trkpt><trkpt lat="45.7254976" lon="9.201207"><ele>314.0</ele><time>2026-03-24T09:24:05.848Z</time></trkpt><trkpt lat="45.7255877" lon="9.2012229"><ele>313.0</ele><time>2026-03-24T09:24:06.846Z</time></trkpt><trkpt lat="45.7256646" lon="9.2012474"><ele>312.0</ele><time>2026-03-24T09:24:07.846Z</time></trkpt><trkpt lat="45.7257374" lon="9.201294"><ele>312.0</ele><time>2026-03-24T09:24:08.846Z</time></trkpt><trkpt lat="45.7257976" lon="9.2013988"><ele>312.0</ele><time>2026-03-24T09:24:09.85Z</time></trkpt><trkpt lat="45.7258426" lon="9.2015242"><ele>312.0</ele><time>2026-03-24T09:24:10.851Z</time></trkpt><trkpt lat="45.7258725" lon="9.2016397"><ele>312.0</ele><time>2026-03-24T09:24:11.852Z</time></trkpt><trkpt lat="45.7258845" lon="9.201781"><ele>312.0</ele><time>2026-03-24T09:24:12.854Z</time></trkpt><trkpt lat="45.7258863" lon="9.2019147"><ele>309.8</ele><time>2026-03-24T09:24:13.857Z</time></trkpt><trkpt lat="45.7258901" lon="9.2020474"><ele>307.6</ele><time>2026-03-24T09:24:14.854Z</time></trkpt><trkpt lat="45.7259048" lon="9.2021812"><ele>305.40000000000003</ele><time>2026-03-24T09:24:15.856Z</time></trkpt><trkpt lat="45.7259246" lon="9.202314"><ele>303.2</ele><time>2026-03-24T09:24:16.852Z</time></trkpt><trkpt lat="45.7259375" lon="9.2024542"><ele>301.0</ele><time>2026-03-24T09:24:17.854Z</time></trkpt><trkpt lat="45.7259586" lon="9.2025859"><ele>300.8333333333333</ele><time>2026-03-24T09:24:18.858Z</time></trkpt><trkpt lat="45.7259821" lon="9.2027002"><ele>300.66666666666663</ele><time>2026-03-24T09:24:19.86Z</time></trkpt><trkpt lat="45.7260089" lon="9.2028092"><ele>300.5</ele><time>2026-03-24T09:24:20.86Z</time></trkpt><trkpt lat="45.7260173" lon="9.2029246"><ele>300.3333333333333</ele><time>2026-03-24T09:24:21.856Z</time></trkpt><trkpt lat="45.7260256" lon="9.2030411"><ele>300.1666666666667</ele><time>2026-03-24T09:24:22.86Z</time></trkpt><trkpt lat="45.7260146" lon="9.2031752"><ele>300.0</ele><time>2026-03-24T09:24:24.861Z</time></trkpt><trkpt lat="45.7260048" lon="9.2032874"><ele>300.0</ele><time>2026-03-24T09:24:31.863Z</time></trkpt><trkpt lat="45.7260406" lon="9.2033644"><ele>300.0</ele><time>2026-03-24T09:24:34.861Z</time></trkpt><trkpt lat="45.726144" lon="9.2033784"><ele>300.0</ele><time>2026-03-24T09:24:36.845Z</time></trkpt><trkpt lat="45.7262304" lon="9.2033252"><ele>300.0</ele><time>2026-03-24T09:24:37.843Z</time></trkpt><trkpt lat="45.7263344" lon="9.2032844"><ele>300.0</ele><time>2026-03-24T09:24:38.851Z</time></trkpt><trkpt lat="45.7264403" lon="9.2032682"><ele>300.2</ele><time>2026-03-24T09:24:39.851Z</time></trkpt><trkpt lat="45.726534" lon="9.2032529"><ele>300.4</ele><time>2026-03-24T09:24:40.852Z</time></trkpt><trkpt lat="45.7266143" lon="9.2032455"><ele>300.6</ele><time>2026-03-24T09:24:41.849Z</time></trkpt><trkpt lat="45.7266806" lon="9.203242"><ele>300.8</ele><time>2026-03-24T09:24:42.852Z</time></trkpt><trkpt lat="45.7268095" lon="9.2032406"><ele>301.0</ele><time>2026-03-24T09:24:44.849Z</time></trkpt><trkpt lat="45.7269184" lon="9.2032681"><ele>301.0</ele><time>2026-03-24T09:24:46.858Z</time></trkpt><trkpt lat="45.7270255" lon="9.2032795"><ele>301.0</ele><time>2026-03-24T09:24:48.863Z</time></trkpt><trkpt lat="45.7271101" lon="9.2031978"><ele>301.0</ele><time>2026-03-24T09:24:50.858Z</time></trkpt><trkpt lat="45.7271508" lon="9.2031066"><ele>301.0</ele><time>2026-03-24T09:24:51.858Z</time></trkpt><trkpt lat="45.7271863" lon="9.2029906"><ele>301.0</ele><time>2026-03-24T09:24:52.846Z</time></trkpt><trkpt lat="45.7272424" lon="9.2028287"><ele>301.0</ele><time>2026-03-24T09:24:53.846Z</time></trkpt><trkpt lat="45.7273261" lon="9.2026535"><ele>301.0</ele><time>2026-03-24T09:24:54.855Z</time></trkpt><trkpt lat="45.7274413" lon="9.2024867"><ele>301.0</ele><time>2026-03-24T09:24:55.849Z</time></trkpt><trkpt lat="45.7275768" lon="9.2023442"><ele>299.0</ele><time>2026-03-24T09:24:56.849Z</time></trkpt><trkpt lat="45.7277552" lon="9.2021726"><ele>297.0</ele><time>2026-03-24T09:24:57.844Z</time></trkpt><trkpt lat="45.7279616" lon="9.2019843"><ele>297.0</ele><time>2026-03-24T09:24:58.849Z</time></trkpt><trkpt lat="45.728126" lon="9.2018366"><ele>297.0</ele><time>2026-03-24T09:24:59.855Z</time></trkpt><trkpt lat="45.7282339" lon="9.2016787"><ele>297.0</ele><time>2026-03-24T09:25:00.854Z</time></trkpt><trkpt lat="45.7283676" lon="9.2015009"><ele>297.0</ele><time>2026-03-24T09:25:01.871Z</time></trkpt><trkpt lat="45.7284899" lon="9.20129"><ele>297.0</ele><time>2026-03-24T09:25:02.847Z</time></trkpt><trkpt lat="45.7285682" lon="9.2010293"><ele>297.0</ele><time>2026-03-24T09:25:03.848Z</time></trkpt><trkpt lat="45.728653" lon="9.2007551"><ele>294.3333333333333</ele><time>2026-03-24T09:25:04.858Z</time></trkpt><trkpt lat="45.7287557" lon="9.2005115"><ele>291.66666666666663</ele><time>2026-03-24T09:25:05.855Z</time></trkpt><trkpt lat="45.7288456" lon="9.2002725"><ele>289.0</ele><time>2026-03-24T09:25:06.856Z</time></trkpt><trkpt lat="45.7289296" lon="9.2000748"><ele>289.0</ele><time>2026-03-24T09:25:07.852Z</time></trkpt><trkpt lat="45.7290225" lon="9.19988"><ele>289.0</ele><time>2026-03-24T09:25:08.85Z</time></trkpt><trkpt lat="45.7291079" lon="9.1996977"><ele>289.0</ele><time>2026-03-24T09:25:09.852Z</time></trkpt><trkpt lat="45.7292488" lon="9.1995672"><ele>288.0</ele><time>2026-03-24T09:25:10.847Z</time></trkpt><trkpt lat="45.7293968" lon="9.1994525"><ele>287.0</ele><time>2026-03-24T09:25:11.85Z</time></trkpt><trkpt lat="45.7295408" lon="9.1993964"><ele>286.0</ele><time>2026-03-24T09:25:12.852Z</time></trkpt><trkpt lat="45.7297213" lon="9.1993481"><ele>286.0</ele><time>2026-03-24T09:25:13.85Z</time></trkpt><trkpt lat="45.729912" lon="9.1993639"><ele>286.0</ele><time>2026-03-24T09:25:14.851Z</time></trkpt><trkpt lat="45.7300807" lon="9.1993945"><ele>286.0</ele><time>2026-03-24T09:25:15.854Z</time></trkpt><trkpt lat="45.7302487" lon="9.1993764"><ele>287.0</ele><time>2026-03-24T09:25:16.852Z</time></trkpt><trkpt lat="45.7304196" lon="9.1993553"><ele>288.0</ele><time>2026-03-24T09:25:17.845Z</time></trkpt><trkpt lat="45.7305881" lon="9.1993155"><ele>289.0</ele><time>2026-03-24T09:25:18.839Z</time></trkpt><trkpt lat="45.7308164" lon="9.1993392"><ele>289.0</ele><time>2026-03-24T09:25:19.842Z</time></trkpt><trkpt lat="45.7310206" lon="9.1993106"><ele>289.0</ele><time>2026-03-24T09:25:20.835Z</time></trkpt><trkpt lat="45.7311775" lon="9.1992986"><ele>289.0</ele><time>2026-03-24T09:25:21.846Z</time></trkpt><trkpt lat="45.7314244" lon="9.1992718"><ele>288.3333333333333</ele><time>2026-03-24T09:25:22.854Z</time></trkpt><trkpt lat="45.7316555" lon="9.1992706"><ele>287.6666666666667</ele><time>2026-03-24T09:25:23.853Z</time></trkpt><trkpt lat="45.7318652" lon="9.1992327"><ele>287.0</ele><time>2026-03-24T09:25:24.855Z</time></trkpt><trkpt lat="45.7320158" lon="9.1991736"><ele>289.0</ele><time>2026-03-24T09:25:25.858Z</time></trkpt><trkpt lat="45.7321974" lon="9.1991393"><ele>291.0</ele><time>2026-03-24T09:25:26.854Z</time></trkpt><trkpt lat="45.7323571" lon="9.1990925"><ele>293.0</ele><time>2026-03-24T09:25:27.855Z</time></trkpt><trkpt lat="45.7325676" lon="9.1990543"><ele>293.6666666666667</ele><time>2026-03-24T09:25:28.856Z</time></trkpt><trkpt lat="45.7327453" lon="9.1990246"><ele>294.3333333333333</ele><time>2026-03-24T09:25:29.855Z</time></trkpt><trkpt lat="45.7328845" lon="9.1989807"><ele>295.0</ele><time>2026-03-24T09:25:30.855Z</time></trkpt><trkpt lat="45.7330687" lon="9.1989947"><ele>295.25</ele><time>2026-03-24T09:25:31.853Z</time></trkpt><trkpt lat="45.7332027" lon="9.1989693"><ele>295.5</ele><time>2026-03-24T09:25:32.865Z</time></trkpt><trkpt lat="45.7333359" lon="9.1989089"><ele>295.75</ele><time>2026-03-24T09:25:33.853Z</time></trkpt><trkpt lat="45.7335036" lon="9.1988539"><ele>296.0</ele><time>2026-03-24T09:25:34.844Z</time></trkpt><trkpt lat="45.7336793" lon="9.1988134"><ele>296.33333333333337</ele><time>2026-03-24T09:25:35.85Z</time></trkpt><trkpt lat="45.733817" lon="9.1987424"><ele>296.6666666666667</ele><time>2026-03-24T09:25:36.858Z</time></trkpt><trkpt lat="45.7339723" lon="9.1987164"><ele>297.0</ele><time>2026-03-24T09:25:37.855Z</time></trkpt><trkpt lat="45.7341317" lon="9.1986831"><ele>297.0</ele><time>2026-03-24T09:25:38.861Z</time></trkpt><trkpt lat="45.7342916" lon="9.1986388"><ele>297.0</ele><time>2026-03-24T09:25:39.859Z</time></trkpt><trkpt lat="45.7344686" lon="9.1986136"><ele>297.0</ele><time>2026-03-24T09:25:40.857Z</time></trkpt><trkpt lat="45.734655" lon="9.1985872"><ele>297.0</ele><time>2026-03-24T09:25:41.852Z</time></trkpt><trkpt lat="45.7348538" lon="9.1985568"><ele>297.0</ele><time>2026-03-24T09:25:42.852Z</time></trkpt><trkpt lat="45.7350342" lon="9.1985328"><ele>297.0</ele><time>2026-03-24T09:25:43.854Z</time></trkpt><trkpt lat="45.7352549" lon="9.198507"><ele>296.75</ele><time>2026-03-24T09:25:44.855Z</time></trkpt><trkpt lat="45.7354239" lon="9.1984707"><ele>296.5</ele><time>2026-03-24T09:25:45.859Z</time></trkpt><trkpt lat="45.7355613" lon="9.1984387"><ele>296.25</ele><time>2026-03-24T09:25:46.859Z</time></trkpt><trkpt lat="45.7356973" lon="9.1984258"><ele>296.0</ele><time>2026-03-24T09:25:47.851Z</time></trkpt><trkpt lat="45.7358585" lon="9.1984345"><ele>296.0</ele><time>2026-03-24T09:25:48.848Z</time></trkpt><trkpt lat="45.7359794" lon="9.1984242"><ele>296.0</ele><time>2026-03-24T09:25:49.856Z</time></trkpt><trkpt lat="45.7361096" lon="9.1984109"><ele>296.0</ele><time>2026-03-24T09:25:50.857Z</time></trkpt><trkpt lat="45.7361953" lon="9.1983888"><ele>296.0</ele><time>2026-03-24T09:25:51.857Z</time></trkpt><trkpt lat="45.7362835" lon="9.1983776"><ele>296.0</ele><time>2026-03-24T09:25:52.856Z</time></trkpt><trkpt lat="45.7363572" lon="9.1983952"><ele>296.5</ele><time>2026-03-24T09:25:53.855Z</time></trkpt><trkpt lat="45.7364539" lon="9.198419"><ele>297.0</ele><time>2026-03-24T09:25:54.851Z</time></trkpt><trkpt lat="45.7365239" lon="9.1984354"><ele>297.5</ele><time>2026-03-24T09:25:55.853Z</time></trkpt><trkpt lat="45.7366022" lon="9.1984637"><ele>298.0</ele><time>2026-03-24T09:25:56.855Z</time></trkpt><trkpt lat="45.7366917" lon="9.198487"><ele>298.5</ele><time>2026-03-24T09:25:57.857Z</time></trkpt><trkpt lat="45.7367598" lon="9.1984221"><ele>299.0</ele><time>2026-03-24T09:25:58.853Z</time></trkpt><trkpt lat="45.736839" lon="9.1983301"><ele>298.75</ele><time>2026-03-24T09:25:59.862Z</time></trkpt><trkpt lat="45.7369205" lon="9.1982573"><ele>298.5</ele><time>2026-03-24T09:26:00.859Z</time></trkpt><trkpt lat="45.7370446" lon="9.1982025"><ele>298.25</ele><time>2026-03-24T09:26:01.855Z</time></trkpt><trkpt lat="45.7371939" lon="9.1981513"><ele>298.0</ele><time>2026-03-24T09:26:02.864Z</time></trkpt><trkpt lat="45.737357" lon="9.1981024"><ele>297.0</ele><time>2026-03-24T09:26:03.879Z</time></trkpt><trkpt lat="45.7375183" lon="9.1980599"><ele>296.0</ele><time>2026-03-24T09:26:04.864Z</time></trkpt><trkpt lat="45.7377397" lon="9.1980517"><ele>295.0</ele><time>2026-03-24T09:26:05.865Z</time></trkpt><trkpt lat="45.7379278" lon="9.1980023"><ele>295.0</ele><time>2026-03-24T09:26:06.867Z</time></trkpt><trkpt lat="45.7381126" lon="9.1979878"><ele>295.0</ele><time>2026-03-24T09:26:07.862Z</time></trkpt><trkpt lat="45.7382948" lon="9.1979617"><ele>295.0</ele><time>2026-03-24T09:26:08.859Z</time></trkpt><trkpt lat="45.7384486" lon="9.197937"><ele>295.66666666666663</ele><time>2026-03-24T09:26:09.858Z</time></trkpt><trkpt lat="45.7386194" lon="9.1979252"><ele>296.3333333333333</ele><time>2026-03-24T09:26:10.864Z</time></trkpt><trkpt lat="45.7387801" lon="9.1979317"><ele>297.0</ele><time>2026-03-24T09:26:11.862Z</time></trkpt><trkpt lat="45.7389045" lon="9.1978984"><ele>297.0</ele><time>2026-03-24T09:26:12.86Z</time></trkpt><trkpt lat="45.7390165" lon="9.1979141"><ele>297.0</ele><time>2026-03-24T09:26:13.869Z</time></trkpt><trkpt lat="45.739162" lon="9.1978783"><ele>297.0</ele><time>2026-03-24T09:26:14.874Z</time></trkpt><trkpt lat="45.7392993" lon="9.1978635"><ele>297.0</ele><time>2026-03-24T09:26:15.873Z</time></trkpt><trkpt lat="45.7394474" lon="9.197875"><ele>297.5</ele><time>2026-03-24T09:26:16.87Z</time></trkpt><trkpt lat="45.7395594" lon="9.1978655"><ele>298.0</ele><time>2026-03-24T09:26:17.873Z</time></trkpt><trkpt lat="45.7397004" lon="9.1978459"><ele>298.5</ele><time>2026-03-24T09:26:18.874Z</time></trkpt><trkpt lat="45.7398621" lon="9.1978349"><ele>299.0</ele><time>2026-03-24T09:26:19.879Z</time></trkpt><trkpt lat="45.7400168" lon="9.1978037"><ele>299.0</ele><time>2026-03-24T09:26:20.877Z</time></trkpt><trkpt lat="45.7401814" lon="9.1977291"><ele>299.0</ele><time>2026-03-24T09:26:21.88Z</time></trkpt><trkpt lat="45.7403617" lon="9.1976588"><ele>299.0</ele><time>2026-03-24T09:26:22.875Z</time></trkpt><trkpt lat="45.7405609" lon="9.1976046"><ele>300.0</ele><time>2026-03-24T09:26:23.87Z</time></trkpt><trkpt lat="45.7407563" lon="9.1975322"><ele>301.0</ele><time>2026-03-24T09:26:24.877Z</time></trkpt><trkpt lat="45.7409213" lon="9.1974319"><ele>302.0</ele><time>2026-03-24T09:26:25.869Z</time></trkpt><trkpt lat="45.7410974" lon="9.1973367"><ele>301.0</ele><time>2026-03-24T09:26:26.87Z</time></trkpt><trkpt lat="45.741268" lon="9.1972544"><ele>300.0</ele><time>2026-03-24T09:26:27.869Z</time></trkpt><trkpt lat="45.7414241" lon="9.1971363"><ele>299.0</ele><time>2026-03-24T09:26:28.869Z</time></trkpt><trkpt lat="45.7416032" lon="9.1971118"><ele>299.0</ele><time>2026-03-24T09:26:29.866Z</time></trkpt><trkpt lat="45.7417876" lon="9.1970414"><ele>299.0</ele><time>2026-03-24T09:26:30.862Z</time></trkpt><trkpt lat="45.7419677" lon="9.1970039"><ele>299.0</ele><time>2026-03-24T09:26:31.856Z</time></trkpt><trkpt lat="45.7421274" lon="9.1969837"><ele>299.75</ele><time>2026-03-24T09:26:32.853Z</time></trkpt><trkpt lat="45.7422759" lon="9.1969761"><ele>300.5</ele><time>2026-03-24T09:26:33.852Z</time></trkpt><trkpt lat="45.7424217" lon="9.1970106"><ele>301.25</ele><time>2026-03-24T09:26:34.863Z</time></trkpt><trkpt lat="45.7425699" lon="9.1970355"><ele>302.0</ele><time>2026-03-24T09:26:35.844Z</time></trkpt><trkpt lat="45.7427279" lon="9.1970375"><ele>302.6666666666667</ele><time>2026-03-24T09:26:36.85Z</time></trkpt><trkpt lat="45.7428849" lon="9.1970421"><ele>303.3333333333333</ele><time>2026-03-24T09:26:37.849Z</time></trkpt><trkpt lat="45.7430646" lon="9.1970301"><ele>304.0</ele><time>2026-03-24T09:26:38.847Z</time></trkpt><trkpt lat="45.7432417" lon="9.1970207"><ele>304.0</ele><time>2026-03-24T09:26:39.839Z</time></trkpt><trkpt lat="45.7434249" lon="9.1970029"><ele>304.0</ele><time>2026-03-24T09:26:40.84Z</time></trkpt><trkpt lat="45.7435794" lon="9.1969879"><ele>304.0</ele><time>2026-03-24T09:26:41.844Z</time></trkpt><trkpt lat="45.7437215" lon="9.1970504"><ele>304.3333333333333</ele><time>2026-03-24T09:26:42.845Z</time></trkpt><trkpt lat="45.7438666" lon="9.1970975"><ele>304.6666666666667</ele><time>2026-03-24T09:26:43.85Z</time></trkpt><trkpt lat="45.7440214" lon="9.1971528"><ele>305.0</ele><time>2026-03-24T09:26:44.854Z</time></trkpt><trkpt lat="45.744185" lon="9.1971987"><ele>305.0</ele><time>2026-03-24T09:26:45.856Z</time></trkpt><trkpt lat="45.7443439" lon="9.1972537"><ele>305.0</ele><time>2026-03-24T09:26:46.86Z</time></trkpt><trkpt lat="45.7445196" lon="9.1972714"><ele>305.0</ele><time>2026-03-24T09:26:47.858Z</time></trkpt><trkpt lat="45.7446975" lon="9.1972983"><ele>306.75</ele><time>2026-03-24T09:26:48.864Z</time></trkpt><trkpt lat="45.7448375" lon="9.1973613"><ele>308.5</ele><time>2026-03-24T09:26:49.855Z</time></trkpt><trkpt lat="45.7449661" lon="9.1974138"><ele>310.25</ele><time>2026-03-24T09:26:50.854Z</time></trkpt><trkpt lat="45.7451096" lon="9.1974656"><ele>312.0</ele><time>2026-03-24T09:26:51.854Z</time></trkpt><trkpt lat="45.7452309" lon="9.1974962"><ele>314.0</ele><time>2026-03-24T09:26:52.861Z</time></trkpt><trkpt lat="45.7453123" lon="9.1975154"><ele>316.0</ele><time>2026-03-24T09:26:53.858Z</time></trkpt><trkpt lat="45.7454491" lon="9.1974726"><ele>318.0</ele><time>2026-03-24T09:26:55.86Z</time></trkpt><trkpt lat="45.7454918" lon="9.1973981"><ele>320.0</ele><time>2026-03-24T09:26:56.85Z</time></trkpt><trkpt lat="45.7455236" lon="9.1973083"><ele>322.0</ele><time>2026-03-24T09:26:57.846Z</time></trkpt><trkpt lat="45.7455351" lon="9.1972131"><ele>324.0</ele><time>2026-03-24T09:26:58.844Z</time></trkpt><trkpt lat="45.7454949" lon="9.1971137"><ele>325.5</ele><time>2026-03-24T09:26:59.853Z</time></trkpt><trkpt lat="45.7454048" lon="9.1970002"><ele>327.0</ele><time>2026-03-24T09:27:00.844Z</time></trkpt><trkpt lat="45.7452985" lon="9.1968662"><ele>328.5</ele><time>2026-03-24T09:27:01.836Z</time></trkpt><trkpt lat="45.7451549" lon="9.1967116"><ele>330.0</ele><time>2026-03-24T09:27:02.836Z</time></trkpt><trkpt lat="45.7450031" lon="9.1965603"><ele>327.75</ele><time>2026-03-24T09:27:03.841Z</time></trkpt><trkpt lat="45.7449063" lon="9.1964468"><ele>325.5</ele><time>2026-03-24T09:27:04.849Z</time></trkpt><trkpt lat="45.7448203" lon="9.1963308"><ele>323.25</ele><time>2026-03-24T09:27:05.865Z</time></trkpt><trkpt lat="45.7447239" lon="9.1962297"><ele>321.0</ele><time>2026-03-24T09:27:06.843Z</time></trkpt><trkpt lat="45.7446612" lon="9.1961428"><ele>321.0</ele><time>2026-03-24T09:27:07.844Z</time></trkpt><trkpt lat="45.744602" lon="9.196052"><ele>321.0</ele><time>2026-03-24T09:27:08.847Z</time></trkpt><trkpt lat="45.7445782" lon="9.1959567"><ele>321.0</ele><time>2026-03-24T09:27:09.857Z</time></trkpt><trkpt lat="45.7445951" lon="9.1958653"><ele>321.0</ele><time>2026-03-24T09:27:10.85Z</time></trkpt><trkpt lat="45.7446627" lon="9.195799"><ele>321.0</ele><time>2026-03-24T09:27:11.849Z</time></trkpt><trkpt lat="45.7447476" lon="9.1957319"><ele>321.0</ele><time>2026-03-24T09:27:12.84Z</time></trkpt><trkpt lat="45.7448673" lon="9.195673"><ele>321.0</ele><time>2026-03-24T09:27:13.843Z</time></trkpt><trkpt lat="45.744991" lon="9.1956238"><ele>321.0</ele><time>2026-03-24T09:27:14.85Z</time></trkpt><trkpt lat="45.7451561" lon="9.1955884"><ele>321.0</ele><time>2026-03-24T09:27:15.847Z</time></trkpt><trkpt lat="45.7453842" lon="9.195592"><ele>322.6666666666667</ele><time>2026-03-24T09:27:16.854Z</time></trkpt><trkpt lat="45.7455848" lon="9.1955774"><ele>324.33333333333337</ele><time>2026-03-24T09:27:17.841Z</time></trkpt><trkpt lat="45.7457831" lon="9.195568"><ele>326.0</ele><time>2026-03-24T09:27:18.844Z</time></trkpt><trkpt lat="45.7459868" lon="9.1955947"><ele>326.6666666666667</ele><time>2026-03-24T09:27:19.848Z</time></trkpt><trkpt lat="45.7461519" lon="9.195581"><ele>327.3333333333333</ele><time>2026-03-24T09:27:20.847Z</time></trkpt><trkpt lat="45.7463448" lon="9.1955908"><ele>328.0</ele><time>2026-03-24T09:27:21.839Z</time></trkpt><trkpt lat="45.7465309" lon="9.1956181"><ele>328.0</ele><time>2026-03-24T09:27:22.837Z</time></trkpt><trkpt lat="45.7467442" lon="9.1956289"><ele>328.0</ele><time>2026-03-24T09:27:23.834Z</time></trkpt><trkpt lat="45.7468394" lon="9.195581"><ele>328.0</ele><time>2026-03-24T09:27:24.851Z</time></trkpt><trkpt lat="45.7470202" lon="9.1955523"><ele>328.5</ele><time>2026-03-24T09:27:25.85Z</time></trkpt><trkpt lat="45.7471815" lon="9.1955043"><ele>329.0</ele><time>2026-03-24T09:27:26.85Z</time></trkpt><trkpt lat="45.7473292" lon="9.195472"><ele>329.5</ele><time>2026-03-24T09:27:27.856Z</time></trkpt><trkpt lat="45.7474609" lon="9.1954703"><ele>330.0</ele><time>2026-03-24T09:27:28.854Z</time></trkpt><trkpt lat="45.7475984" lon="9.1954234"><ele>330.5</ele><time>2026-03-24T09:27:29.86Z</time></trkpt><trkpt lat="45.747734" lon="9.1953876"><ele>331.0</ele><time>2026-03-24T09:27:30.861Z</time></trkpt><trkpt lat="45.7478732" lon="9.1953692"><ele>331.5</ele><time>2026-03-24T09:27:31.856Z</time></trkpt><trkpt lat="45.7480151" lon="9.1953752"><ele>332.0</ele><time>2026-03-24T09:27:32.854Z</time></trkpt><trkpt lat="45.748081" lon="9.1953514"><ele>332.0</ele><time>2026-03-24T09:27:33.854Z</time></trkpt><trkpt lat="45.7481998" lon="9.1953357"><ele>332.0</ele><time>2026-03-24T09:27:34.855Z</time></trkpt><trkpt lat="45.7482937" lon="9.1953155"><ele>332.0</ele><time>2026-03-24T09:27:35.858Z</time></trkpt><trkpt lat="45.7484106" lon="9.1952992"><ele>332.0</ele><time>2026-03-24T09:27:36.878Z</time></trkpt><trkpt lat="45.7485463" lon="9.1952892"><ele>331.75</ele><time>2026-03-24T09:27:37.864Z</time></trkpt><trkpt lat="45.74867" lon="9.1952717"><ele>331.5</ele><time>2026-03-24T09:27:38.865Z</time></trkpt><trkpt lat="45.748805" lon="9.1952472"><ele>331.25</ele><time>2026-03-24T09:27:39.865Z</time></trkpt><trkpt lat="45.7489344" lon="9.1952358"><ele>331.0</ele><time>2026-03-24T09:27:40.865Z</time></trkpt><trkpt lat="45.7490483" lon="9.1952246"><ele>331.0</ele><time>2026-03-24T09:27:41.861Z</time></trkpt><trkpt lat="45.7491676" lon="9.1952153"><ele>331.0</ele><time>2026-03-24T09:27:42.856Z</time></trkpt><trkpt lat="45.7492717" lon="9.1952144"><ele>331.0</ele><time>2026-03-24T09:27:43.858Z</time></trkpt><trkpt lat="45.7493792" lon="9.19522"><ele>331.0</ele><time>2026-03-24T09:27:44.862Z</time></trkpt><trkpt lat="45.7494827" lon="9.1952372"><ele>331.0</ele><time>2026-03-24T09:27:45.862Z</time></trkpt><trkpt lat="45.7495959" lon="9.1952597"><ele>330.0</ele><time>2026-03-24T09:27:46.862Z</time></trkpt><trkpt lat="45.7497202" lon="9.1952985"><ele>329.0</ele><time>2026-03-24T09:27:47.864Z</time></trkpt><trkpt lat="45.7498532" lon="9.1953467"><ele>328.0</ele><time>2026-03-24T09:27:48.864Z</time></trkpt><trkpt lat="45.7499931" lon="9.1954034"><ele>327.0</ele><time>2026-03-24T09:27:49.865Z</time></trkpt><trkpt lat="45.750147" lon="9.1954591"><ele>326.0</ele><time>2026-03-24T09:27:50.869Z</time></trkpt><trkpt lat="45.7503224" lon="9.1955094"><ele>325.0</ele><time>2026-03-24T09:27:51.867Z</time></trkpt><trkpt lat="45.7505116" lon="9.1955816"><ele>324.0</ele><time>2026-03-24T09:27:52.863Z</time></trkpt><trkpt lat="45.7506802" lon="9.1956235"><ele>324.0</ele><time>2026-03-24T09:27:53.861Z</time></trkpt><trkpt lat="45.7508489" lon="9.1956625"><ele>324.0</ele><time>2026-03-24T09:27:54.857Z</time></trkpt><trkpt lat="45.7510111" lon="9.1957033"><ele>324.0</ele><time>2026-03-24T09:27:55.868Z</time></trkpt><trkpt lat="45.7511749" lon="9.1957358"><ele>323.75</ele><time>2026-03-24T09:27:56.867Z</time></trkpt><trkpt lat="45.7512894" lon="9.1957729"><ele>323.5</ele><time>2026-03-24T09:27:57.875Z</time></trkpt><trkpt lat="45.7513922" lon="9.1957928"><ele>323.25</ele><time>2026-03-24T09:27:58.868Z</time></trkpt><trkpt lat="45.7515061" lon="9.1958269"><ele>323.0</ele><time>2026-03-24T09:27:59.868Z</time></trkpt><trkpt lat="45.7516161" lon="9.1958684"><ele>323.0</ele><time>2026-03-24T09:28:00.871Z</time></trkpt><trkpt lat="45.7517143" lon="9.1959102"><ele>323.0</ele><time>2026-03-24T09:28:01.868Z</time></trkpt><trkpt lat="45.7517997" lon="9.1959384"><ele>323.0</ele><time>2026-03-24T09:28:02.871Z</time></trkpt><trkpt lat="45.751865" lon="9.1959598"><ele>323.0</ele><time>2026-03-24T09:28:03.868Z</time></trkpt><trkpt lat="45.7519296" lon="9.1959974"><ele>323.0</ele><time>2026-03-24T09:28:04.869Z</time></trkpt><trkpt lat="45.7519909" lon="9.1960315"><ele>323.0</ele><time>2026-03-24T09:28:05.862Z</time></trkpt><trkpt lat="45.7520688" lon="9.1960697"><ele>323.2</ele><time>2026-03-24T09:28:06.859Z</time></trkpt><trkpt lat="45.7521456" lon="9.1960718"><ele>323.4</ele><time>2026-03-24T09:28:07.878Z</time></trkpt><trkpt lat="45.7522406" lon="9.1960647"><ele>323.59999999999997</ele><time>2026-03-24T09:28:08.864Z</time></trkpt><trkpt lat="45.7523354" lon="9.1960583"><ele>323.79999999999995</ele><time>2026-03-24T09:28:09.867Z</time></trkpt><trkpt lat="45.7524498" lon="9.1960758"><ele>324.0</ele><time>2026-03-24T09:28:10.865Z</time></trkpt><trkpt lat="45.7525721" lon="9.1960999"><ele>324.0</ele><time>2026-03-24T09:28:11.863Z</time></trkpt><trkpt lat="45.7526883" lon="9.1961295"><ele>324.0</ele><time>2026-03-24T09:28:12.865Z</time></trkpt><trkpt lat="45.7528109" lon="9.1961753"><ele>324.0</ele><time>2026-03-24T09:28:13.862Z</time></trkpt><trkpt lat="45.7529258" lon="9.1962035"><ele>324.0</ele><time>2026-03-24T09:28:14.862Z</time></trkpt><trkpt lat="45.7530395" lon="9.196223"><ele>324.0</ele><time>2026-03-24T09:28:15.867Z</time></trkpt><trkpt lat="45.753138" lon="9.1962453"><ele>324.0</ele><time>2026-03-24T09:28:16.866Z</time></trkpt><trkpt lat="45.7532378" lon="9.1962717"><ele>324.0</ele><time>2026-03-24T09:28:17.864Z</time></trkpt><trkpt lat="45.7533412" lon="9.1962948"><ele>324.0</ele><time>2026-03-24T09:28:18.867Z</time></trkpt><trkpt lat="45.7534481" lon="9.1963082"><ele>324.0</ele><time>2026-03-24T09:28:19.861Z</time></trkpt><trkpt lat="45.753548" lon="9.196336"><ele>324.2</ele><time>2026-03-24T09:28:20.858Z</time></trkpt><trkpt lat="45.7536505" lon="9.1963656"><ele>324.4</ele><time>2026-03-24T09:28:21.855Z</time></trkpt><trkpt lat="45.7537498" lon="9.1964189"><ele>324.6</ele><time>2026-03-24T09:28:22.852Z</time></trkpt><trkpt lat="45.7538422" lon="9.1964504"><ele>324.8</ele><time>2026-03-24T09:28:23.86Z</time></trkpt><trkpt lat="45.7539345" lon="9.1964897"><ele>325.0</ele><time>2026-03-24T09:28:24.855Z</time></trkpt><trkpt lat="45.7540392" lon="9.1965231"><ele>326.0</ele><time>2026-03-24T09:28:25.859Z</time></trkpt><trkpt lat="45.7541567" lon="9.1965596"><ele>327.0</ele><time>2026-03-24T09:28:26.862Z</time></trkpt><trkpt lat="45.7542665" lon="9.1965957"><ele>328.0</ele><time>2026-03-24T09:28:27.86Z</time></trkpt><trkpt lat="45.7543809" lon="9.1966431"><ele>329.0</ele><time>2026-03-24T09:28:28.856Z</time></trkpt><trkpt lat="45.7544988" lon="9.1966882"><ele>329.0</ele><time>2026-03-24T09:28:29.86Z</time></trkpt><trkpt lat="45.7546138" lon="9.1967243"><ele>329.0</ele><time>2026-03-24T09:28:30.866Z</time></trkpt><trkpt lat="45.7547229" lon="9.1967552"><ele>329.0</ele><time>2026-03-24T09:28:31.866Z</time></trkpt><trkpt lat="45.7548295" lon="9.1967813"><ele>329.0</ele><time>2026-03-24T09:28:32.86Z</time></trkpt><trkpt lat="45.7549363" lon="9.1968067"><ele>329.0</ele><time>2026-03-24T09:28:33.873Z</time></trkpt><trkpt lat="45.7550246" lon="9.1968361"><ele>329.0</ele><time>2026-03-24T09:28:34.861Z</time></trkpt><trkpt lat="45.7551139" lon="9.1968637"><ele>329.0</ele><time>2026-03-24T09:28:35.856Z</time></trkpt><trkpt lat="45.7551968" lon="9.1968808"><ele>329.0</ele><time>2026-03-24T09:28:36.866Z</time></trkpt><trkpt lat="45.7552763" lon="9.1968951"><ele>329.0</ele><time>2026-03-24T09:28:37.861Z</time></trkpt><trkpt lat="45.7553458" lon="9.1969097"><ele>329.0</ele><time>2026-03-24T09:28:38.88Z</time></trkpt><trkpt lat="45.755422" lon="9.1969361"><ele>329.0</ele><time>2026-03-24T09:28:39.856Z</time></trkpt><trkpt lat="45.7555045" lon="9.1969569"><ele>330.0</ele><time>2026-03-24T09:28:40.862Z</time></trkpt><trkpt lat="45.7555927" lon="9.1969825"><ele>331.0</ele><time>2026-03-24T09:28:41.849Z</time></trkpt><trkpt lat="45.7556736" lon="9.1969927"><ele>332.0</ele><time>2026-03-24T09:28:42.854Z</time></trkpt><trkpt lat="45.7557586" lon="9.1970065"><ele>333.0</ele><time>2026-03-24T09:28:43.847Z</time></trkpt><trkpt lat="45.755822" lon="9.1970169"><ele>334.0</ele><time>2026-03-24T09:28:44.853Z</time></trkpt><trkpt lat="45.7559176" lon="9.1970305"><ele>335.0</ele><time>2026-03-24T09:28:46.856Z</time></trkpt><trkpt lat="45.7559821" lon="9.1970464"><ele>336.1428571428571</ele><time>2026-03-24T09:28:47.854Z</time></trkpt><trkpt lat="45.7560546" lon="9.197074"><ele>337.2857142857143</ele><time>2026-03-24T09:28:48.846Z</time></trkpt><trkpt lat="45.7561165" lon="9.1971143"><ele>338.42857142857144</ele><time>2026-03-24T09:28:49.852Z</time></trkpt><trkpt lat="45.7561746" lon="9.1971601"><ele>339.57142857142856</ele><time>2026-03-24T09:28:50.858Z</time></trkpt><trkpt lat="45.7562385" lon="9.1971812"><ele>340.7142857142857</ele><time>2026-03-24T09:28:51.857Z</time></trkpt><trkpt lat="45.756302" lon="9.1972058"><ele>341.85714285714283</ele><time>2026-03-24T09:28:52.85Z</time></trkpt><trkpt lat="45.7563813" lon="9.1971955"><ele>343.0</ele><time>2026-03-24T09:28:53.845Z</time></trkpt><trkpt lat="45.756461" lon="9.1971731"><ele>343.0</ele><time>2026-03-24T09:28:54.85Z</time></trkpt><trkpt lat="45.756532" lon="9.1971612"><ele>343.0</ele><time>2026-03-24T09:28:55.852Z</time></trkpt><trkpt lat="45.756607" lon="9.1971409"><ele>343.0</ele><time>2026-03-24T09:28:56.844Z</time></trkpt><trkpt lat="45.7566926" lon="9.1971158"><ele>343.0</ele><time>2026-03-24T09:28:57.84Z</time></trkpt><trkpt lat="45.7568025" lon="9.197063"><ele>343.0</ele><time>2026-03-24T09:28:58.841Z</time></trkpt><trkpt lat="45.7569172" lon="9.1969973"><ele>343.59999999999997</ele><time>2026-03-24T09:28:59.852Z</time></trkpt><trkpt lat="45.7570181" lon="9.1969361"><ele>344.2</ele><time>2026-03-24T09:29:00.845Z</time></trkpt><trkpt lat="45.7571195" lon="9.1968917"><ele>344.8</ele><time>2026-03-24T09:29:01.851Z</time></trkpt><trkpt lat="45.7572284" lon="9.1968728"><ele>345.4</ele><time>2026-03-24T09:29:02.848Z</time></trkpt><trkpt lat="45.7573465" lon="9.1968627"><ele>346.0</ele><time>2026-03-24T09:29:03.852Z</time></trkpt><trkpt lat="45.7574583" lon="9.1968643"><ele>346.0</ele><time>2026-03-24T09:29:04.85Z</time></trkpt><trkpt lat="45.7575637" lon="9.1968633"><ele>346.0</ele><time>2026-03-24T09:29:05.85Z</time></trkpt><trkpt lat="45.7576691" lon="9.1968693"><ele>346.0</ele><time>2026-03-24T09:29:06.842Z</time></trkpt><trkpt lat="45.7577621" lon="9.1968925"><ele>346.0</ele><time>2026-03-24T09:29:07.853Z</time></trkpt><trkpt lat="45.7578399" lon="9.1969204"><ele>346.0</ele><time>2026-03-24T09:29:08.855Z</time></trkpt><trkpt lat="45.7579173" lon="9.1969447"><ele>344.66666666666663</ele><time>2026-03-24T09:29:09.872Z</time></trkpt><trkpt lat="45.75799" lon="9.1969883"><ele>343.3333333333333</ele><time>2026-03-24T09:29:10.856Z</time></trkpt><trkpt lat="45.7580527" lon="9.1970526"><ele>342.0</ele><time>2026-03-24T09:29:11.856Z</time></trkpt><trkpt lat="45.7581104" lon="9.1971443"><ele>340.6666666666667</ele><time>2026-03-24T09:29:12.855Z</time></trkpt><trkpt lat="45.7581624" lon="9.19723"><ele>339.33333333333337</ele><time>2026-03-24T09:29:13.865Z</time></trkpt><trkpt lat="45.7582236" lon="9.1973124"><ele>338.0</ele><time>2026-03-24T09:29:14.855Z</time></trkpt><trkpt lat="45.7582984" lon="9.197383"><ele>338.0</ele><time>2026-03-24T09:29:15.851Z</time></trkpt><trkpt lat="45.7583651" lon="9.1974537"><ele>338.0</ele><time>2026-03-24T09:29:16.852Z</time></trkpt><trkpt lat="45.7584248" lon="9.1975177"><ele>338.0</ele><time>2026-03-24T09:29:17.853Z</time></trkpt><trkpt lat="45.7584799" lon="9.1975803"><ele>338.0</ele><time>2026-03-24T09:29:18.85Z</time></trkpt><trkpt lat="45.7585381" lon="9.1976395"><ele>338.0</ele><time>2026-03-24T09:29:19.853Z</time></trkpt><trkpt lat="45.7585992" lon="9.1976968"><ele>338.0</ele><time>2026-03-24T09:29:20.844Z</time></trkpt><trkpt lat="45.7586735" lon="9.1977736"><ele>339.0</ele><time>2026-03-24T09:29:21.856Z</time></trkpt><trkpt lat="45.7587255" lon="9.1978526"><ele>340.0</ele><time>2026-03-24T09:29:22.855Z</time></trkpt><trkpt lat="45.7587797" lon="9.1979364"><ele>341.0</ele><time>2026-03-24T09:29:23.848Z</time></trkpt><trkpt lat="45.7588388" lon="9.1980173"><ele>342.0</ele><time>2026-03-24T09:29:24.852Z</time></trkpt><trkpt lat="45.758898" lon="9.1980822"><ele>343.0</ele><time>2026-03-24T09:29:25.852Z</time></trkpt><trkpt lat="45.7589632" lon="9.1981487"><ele>344.0</ele><time>2026-03-24T09:29:26.854Z</time></trkpt><trkpt lat="45.7590575" lon="9.1981708"><ele>340.5</ele><time>2026-03-24T09:29:27.847Z</time></trkpt><trkpt lat="45.7591698" lon="9.1981907"><ele>337.0</ele><time>2026-03-24T09:29:28.853Z</time></trkpt><trkpt lat="45.7592762" lon="9.1982127"><ele>333.5</ele><time>2026-03-24T09:29:29.863Z</time></trkpt><trkpt lat="45.7593862" lon="9.1982354"><ele>330.0</ele><time>2026-03-24T09:29:30.86Z</time></trkpt><trkpt lat="45.759504" lon="9.1982618"><ele>330.0</ele><time>2026-03-24T09:29:31.865Z</time></trkpt><trkpt lat="45.7596282" lon="9.1982968"><ele>330.0</ele><time>2026-03-24T09:29:32.861Z</time></trkpt><trkpt lat="45.7597472" lon="9.1983265"><ele>330.0</ele><time>2026-03-24T09:29:33.864Z</time></trkpt><trkpt lat="45.7598659" lon="9.1983671"><ele>330.0</ele><time>2026-03-24T09:29:34.856Z</time></trkpt><trkpt lat="45.7599649" lon="9.1984141"><ele>330.0</ele><time>2026-03-24T09:29:35.86Z</time></trkpt><trkpt lat="45.7600721" lon="9.1984616"><ele>330.0</ele><time>2026-03-24T09:29:36.855Z</time></trkpt><trkpt lat="45.7601887" lon="9.1985109"><ele>330.0</ele><time>2026-03-24T09:29:37.862Z</time></trkpt><trkpt lat="45.7603041" lon="9.1985431"><ele>330.0</ele><time>2026-03-24T09:29:38.858Z</time></trkpt><trkpt lat="45.7604122" lon="9.198576"><ele>330.2</ele><time>2026-03-24T09:29:39.852Z</time></trkpt><trkpt lat="45.7605084" lon="9.1985906"><ele>330.4</ele><time>2026-03-24T09:29:40.872Z</time></trkpt><trkpt lat="45.7606024" lon="9.1986051"><ele>330.6</ele><time>2026-03-24T09:29:41.85Z</time></trkpt><trkpt lat="45.760707" lon="9.1986467"><ele>330.8</ele><time>2026-03-24T09:29:42.853Z</time></trkpt><trkpt lat="45.7608231" lon="9.1986919"><ele>331.0</ele><time>2026-03-24T09:29:43.849Z</time></trkpt><trkpt lat="45.7609449" lon="9.1987372"><ele>332.0</ele><time>2026-03-24T09:29:44.858Z</time></trkpt><trkpt lat="45.7610809" lon="9.1988013"><ele>333.0</ele><time>2026-03-24T09:29:45.852Z</time></trkpt><trkpt lat="45.7612128" lon="9.1988702"><ele>334.0</ele><time>2026-03-24T09:29:46.852Z</time></trkpt><trkpt lat="45.7613016" lon="9.1989732"><ele>335.0</ele><time>2026-03-24T09:29:47.842Z</time></trkpt><trkpt lat="45.7613772" lon="9.1991137"><ele>335.0</ele><time>2026-03-24T09:29:48.848Z</time></trkpt><trkpt lat="45.7614291" lon="9.1992609"><ele>335.0</ele><time>2026-03-24T09:29:49.846Z</time></trkpt><trkpt lat="45.7614714" lon="9.1994223"><ele>335.0</ele><time>2026-03-24T09:29:50.862Z</time></trkpt><trkpt lat="45.761518" lon="9.1995856"><ele>335.0</ele><time>2026-03-24T09:29:51.864Z</time></trkpt><trkpt lat="45.7615689" lon="9.1997549"><ele>333.25</ele><time>2026-03-24T09:29:52.867Z</time></trkpt><trkpt lat="45.7616171" lon="9.1999198"><ele>331.5</ele><time>2026-03-24T09:29:53.865Z</time></trkpt><trkpt lat="45.7616672" lon="9.2000638"><ele>329.75</ele><time>2026-03-24T09:29:54.859Z</time></trkpt><trkpt lat="45.761723" lon="9.2002096"><ele>328.0</ele><time>2026-03-24T09:29:55.859Z</time></trkpt><trkpt lat="45.7617712" lon="9.2003362"><ele>328.0</ele><time>2026-03-24T09:29:56.854Z</time></trkpt><trkpt lat="45.7618191" lon="9.2004519"><ele>328.0</ele><time>2026-03-24T09:29:57.857Z</time></trkpt><trkpt lat="45.7618588" lon="9.200581"><ele>328.0</ele><time>2026-03-24T09:29:58.853Z</time></trkpt><trkpt lat="45.7618937" lon="9.200721"><ele>328.0</ele><time>2026-03-24T09:29:59.868Z</time></trkpt><trkpt lat="45.7619166" lon="9.2008834"><ele>328.0</ele><time>2026-03-24T09:30:00.863Z</time></trkpt><trkpt lat="45.7619436" lon="9.2010334"><ele>327.79999999999995</ele><time>2026-03-24T09:30:01.863Z</time></trkpt><trkpt lat="45.761971" lon="9.2011773"><ele>327.6</ele><time>2026-03-24T09:30:02.857Z</time></trkpt><trkpt lat="45.7620077" lon="9.2013117"><ele>327.4</ele><time>2026-03-24T09:30:03.862Z</time></trkpt><trkpt lat="45.7620538" lon="9.2014474"><ele>327.20000000000005</ele><time>2026-03-24T09:30:04.863Z</time></trkpt><trkpt lat="45.7621135" lon="9.2015806"><ele>327.0</ele><time>2026-03-24T09:30:05.856Z</time></trkpt><trkpt lat="45.7621774" lon="9.2017133"><ele>325.20000000000005</ele><time>2026-03-24T09:30:06.855Z</time></trkpt><trkpt lat="45.7622433" lon="9.201855"><ele>323.40000000000003</ele><time>2026-03-24T09:30:07.857Z</time></trkpt><trkpt lat="45.7623172" lon="9.2019827"><ele>321.6</ele><time>2026-03-24T09:30:08.858Z</time></trkpt><trkpt lat="45.7623777" lon="9.2021061"><ele>319.8</ele><time>2026-03-24T09:30:09.854Z</time></trkpt><trkpt lat="45.7624488" lon="9.2022163"><ele>318.0</ele><time>2026-03-24T09:30:10.849Z</time></trkpt><trkpt lat="45.7625093" lon="9.2023231"><ele>317.1666666666667</ele><time>2026-03-24T09:30:11.87Z</time></trkpt><trkpt lat="45.7625627" lon="9.2024195"><ele>316.3333333333333</ele><time>2026-03-24T09:30:12.86Z</time></trkpt><trkpt lat="45.7626078" lon="9.2025117"><ele>315.5</ele><time>2026-03-24T09:30:13.851Z</time></trkpt><trkpt lat="45.7626682" lon="9.2026073"><ele>314.66666666666663</ele><time>2026-03-24T09:30:15.845Z</time></trkpt><trkpt lat="45.7627196" lon="9.2026777"><ele>313.8333333333333</ele><time>2026-03-24T09:30:18.868Z</time></trkpt><trkpt lat="45.7627744" lon="9.2028079"><ele>313.0</ele><time>2026-03-24T09:30:21.866Z</time></trkpt><trkpt lat="45.7628045" lon="9.2029423"><ele>313.0</ele><time>2026-03-24T09:30:23.862Z</time></trkpt><trkpt lat="45.7628135" lon="9.2030532"><ele>313.0</ele><time>2026-03-24T09:30:25.864Z</time></trkpt><trkpt lat="45.7628171" lon="9.203231"><ele>313.0</ele><time>2026-03-24T09:30:27.853Z</time></trkpt><trkpt lat="45.7628206" lon="9.2033413"><ele>313.0</ele><time>2026-03-24T09:30:28.856Z</time></trkpt><trkpt lat="45.7628339" lon="9.2034457"><ele>313.0</ele><time>2026-03-24T09:30:29.854Z</time></trkpt><trkpt lat="45.7628647" lon="9.2035336"><ele>313.0</ele><time>2026-03-24T09:30:30.849Z</time></trkpt><trkpt lat="45.7629079" lon="9.2036014"><ele>312.8</ele><time>2026-03-24T09:30:31.866Z</time></trkpt><trkpt lat="45.7629812" lon="9.2036337"><ele>312.6</ele><time>2026-03-24T09:30:32.847Z</time></trkpt><trkpt lat="45.7630607" lon="9.2036614"><ele>312.4</ele><time>2026-03-24T09:30:33.842Z</time></trkpt><trkpt lat="45.7631354" lon="9.2037051"><ele>312.2</ele><time>2026-03-24T09:30:34.842Z</time></trkpt><trkpt lat="45.7632231" lon="9.2036506"><ele>312.0</ele><time>2026-03-24T09:30:35.846Z</time></trkpt><trkpt lat="45.763323" lon="9.2035402"><ele>312.0</ele><time>2026-03-24T09:30:36.849Z</time></trkpt><trkpt lat="45.763444" lon="9.2034139"><ele>312.0</ele><time>2026-03-24T09:30:37.848Z</time></trkpt><trkpt lat="45.7635813" lon="9.2032705"><ele>312.0</ele><time>2026-03-24T09:30:38.848Z</time></trkpt><trkpt lat="45.7637161" lon="9.2031052"><ele>313.3333333333333</ele><time>2026-03-24T09:30:39.848Z</time></trkpt><trkpt lat="45.7638576" lon="9.2029411"><ele>314.66666666666663</ele><time>2026-03-24T09:30:40.846Z</time></trkpt><trkpt lat="45.7639938" lon="9.2027168"><ele>316.0</ele><time>2026-03-24T09:30:41.853Z</time></trkpt><trkpt lat="45.7641126" lon="9.2025151"><ele>317.3333333333333</ele><time>2026-03-24T09:30:42.861Z</time></trkpt><trkpt lat="45.764202" lon="9.2022866"><ele>318.6666666666667</ele><time>2026-03-24T09:30:43.848Z</time></trkpt><trkpt lat="45.7642712" lon="9.2020415"><ele>320.0</ele><time>2026-03-24T09:30:44.845Z</time></trkpt><trkpt lat="45.7643197" lon="9.201744"><ele>319.33333333333337</ele><time>2026-03-24T09:30:45.852Z</time></trkpt><trkpt lat="45.7643672" lon="9.2014459"><ele>318.6666666666667</ele><time>2026-03-24T09:30:46.851Z</time></trkpt><trkpt lat="45.7644155" lon="9.2012032"><ele>318.0</ele><time>2026-03-24T09:30:47.851Z</time></trkpt><trkpt lat="45.7644536" lon="9.2009643"><ele>318.0</ele><time>2026-03-24T09:30:48.848Z</time></trkpt><trkpt lat="45.7645165" lon="9.2007732"><ele>318.0</ele><time>2026-03-24T09:30:49.849Z</time></trkpt><trkpt lat="45.7645945" lon="9.2006312"><ele>318.0</ele><time>2026-03-24T09:30:50.847Z</time></trkpt><trkpt lat="45.7646811" lon="9.2004744"><ele>318.0</ele><time>2026-03-24T09:30:51.845Z</time></trkpt><trkpt lat="45.7646969" lon="9.2003099"><ele>318.25</ele><time>2026-03-24T09:30:52.843Z</time></trkpt><trkpt lat="45.7647581" lon="9.200204"><ele>318.5</ele><time>2026-03-24T09:30:53.846Z</time></trkpt><trkpt lat="45.7648506" lon="9.2001242"><ele>318.75</ele><time>2026-03-24T09:30:54.851Z</time></trkpt><trkpt lat="45.765051" lon="9.2001642"><ele>319.0</ele><time>2026-03-24T09:30:55.847Z</time></trkpt><trkpt lat="45.765235" lon="9.2002066"><ele>319.0</ele><time>2026-03-24T09:30:56.854Z</time></trkpt><trkpt lat="45.7654739" lon="9.2002525"><ele>319.0</ele><time>2026-03-24T09:30:57.861Z</time></trkpt><trkpt lat="45.7656788" lon="9.2002683"><ele>319.0</ele><time>2026-03-24T09:30:58.86Z</time></trkpt><trkpt lat="45.7658237" lon="9.2002251"><ele>319.0</ele><time>2026-03-24T09:30:59.855Z</time></trkpt><trkpt lat="45.76598" lon="9.2001786"><ele>319.0</ele><time>2026-03-24T09:31:00.854Z</time></trkpt><trkpt lat="45.7661189" lon="9.200151"><ele>319.0</ele><time>2026-03-24T09:31:01.854Z</time></trkpt><trkpt lat="45.7662561" lon="9.2000873"><ele>319.0</ele><time>2026-03-24T09:31:02.851Z</time></trkpt><trkpt lat="45.7663737" lon="9.200027"><ele>318.4</ele><time>2026-03-24T09:31:03.855Z</time></trkpt><trkpt lat="45.7664819" lon="9.1999552"><ele>317.79999999999995</ele><time>2026-03-24T09:31:04.857Z</time></trkpt><trkpt lat="45.7665876" lon="9.199856"><ele>317.20000000000005</ele><time>2026-03-24T09:31:05.859Z</time></trkpt><trkpt lat="45.7666715" lon="9.199778"><ele>316.6</ele><time>2026-03-24T09:31:06.862Z</time></trkpt><trkpt lat="45.7667634" lon="9.1997162"><ele>316.0</ele><time>2026-03-24T09:31:07.857Z</time></trkpt><trkpt lat="45.7668847" lon="9.1996661"><ele>316.0</ele><time>2026-03-24T09:31:08.855Z</time></trkpt><trkpt lat="45.7670047" lon="9.1996084"><ele>316.0</ele><time>2026-03-24T09:31:09.857Z</time></trkpt><trkpt lat="45.7670998" lon="9.1995321"><ele>316.0</ele><time>2026-03-24T09:31:10.858Z</time></trkpt><trkpt lat="45.7672019" lon="9.1994618"><ele>316.0</ele><time>2026-03-24T09:31:11.855Z</time></trkpt><trkpt lat="45.76728" lon="9.199407"><ele>316.0</ele><time>2026-03-24T09:31:12.854Z</time></trkpt><trkpt lat="45.7673538" lon="9.1993502"><ele>316.0</ele><time>2026-03-24T09:31:13.894Z</time></trkpt><trkpt lat="45.7674306" lon="9.1993058"><ele>316.0</ele><time>2026-03-24T09:31:14.859Z</time></trkpt><trkpt lat="45.7674995" lon="9.1992676"><ele>316.0</ele><time>2026-03-24T09:31:15.86Z</time></trkpt><trkpt lat="45.7675566" lon="9.199226"><ele>316.0</ele><time>2026-03-24T09:31:16.862Z</time></trkpt><trkpt lat="45.767662" lon="9.1991349"><ele>316.0</ele><time>2026-03-24T09:31:18.863Z</time></trkpt><trkpt lat="45.7677615" lon="9.1990659"><ele>316.0</ele><time>2026-03-24T09:31:20.851Z</time></trkpt><trkpt lat="45.7678185" lon="9.1990189"><ele>316.0</ele><time>2026-03-24T09:31:21.855Z</time></trkpt><trkpt lat="45.7678776" lon="9.1989561"><ele>316.0</ele><time>2026-03-24T09:31:22.86Z</time></trkpt><trkpt lat="45.7679235" lon="9.1988752"><ele>316.0</ele><time>2026-03-24T09:31:23.849Z</time></trkpt><trkpt lat="45.7679753" lon="9.1987772"><ele>316.0</ele><time>2026-03-24T09:31:24.854Z</time></trkpt><trkpt lat="45.7680339" lon="9.1986739"><ele>316.0</ele><time>2026-03-24T09:31:25.861Z</time></trkpt><trkpt lat="45.7681028" lon="9.1985691"><ele>316.2</ele><time>2026-03-24T09:31:26.859Z</time></trkpt><trkpt lat="45.7681883" lon="9.1985064"><ele>316.40000000000003</ele><time>2026-03-24T09:31:27.858Z</time></trkpt><trkpt lat="45.7682888" lon="9.1984525"><ele>316.6</ele><time>2026-03-24T09:31:28.863Z</time></trkpt><trkpt lat="45.7683942" lon="9.1984295"><ele>316.8</ele><time>2026-03-24T09:31:29.864Z</time></trkpt><trkpt lat="45.7684944" lon="9.1983891"><ele>317.0</ele><time>2026-03-24T09:31:30.859Z</time></trkpt><trkpt lat="45.7685948" lon="9.1983211"><ele>318.5</ele><time>2026-03-24T09:31:31.859Z</time></trkpt><trkpt lat="45.7686914" lon="9.1982098"><ele>320.0</ele><time>2026-03-24T09:31:32.851Z</time></trkpt><trkpt lat="45.7687725" lon="9.198065"><ele>321.5</ele><time>2026-03-24T09:31:33.847Z</time></trkpt><trkpt lat="45.7688483" lon="9.1978995"><ele>323.0</ele><time>2026-03-24T09:31:34.847Z</time></trkpt><trkpt lat="45.7689119" lon="9.1977138"><ele>323.0</ele><time>2026-03-24T09:31:35.852Z</time></trkpt><trkpt lat="45.7689583" lon="9.1974859"><ele>323.0</ele><time>2026-03-24T09:31:36.849Z</time></trkpt><trkpt lat="45.7689722" lon="9.1972767"><ele>323.0</ele><time>2026-03-24T09:31:37.849Z</time></trkpt><trkpt lat="45.7689907" lon="9.1970836"><ele>323.0</ele><time>2026-03-24T09:31:38.85Z</time></trkpt><trkpt lat="45.7690283" lon="9.1968982"><ele>323.0</ele><time>2026-03-24T09:31:39.853Z</time></trkpt><trkpt lat="45.7690692" lon="9.1967311"><ele>323.0</ele><time>2026-03-24T09:31:40.858Z</time></trkpt><trkpt lat="45.7691078" lon="9.1965507"><ele>323.0</ele><time>2026-03-24T09:31:41.857Z</time></trkpt><trkpt lat="45.7691153" lon="9.1963832"><ele>323.0</ele><time>2026-03-24T09:31:42.859Z</time></trkpt><trkpt lat="45.7691351" lon="9.1961774"><ele>323.59999999999997</ele><time>2026-03-24T09:31:43.877Z</time></trkpt><trkpt lat="45.7691525" lon="9.1960225"><ele>324.2</ele><time>2026-03-24T09:31:44.851Z</time></trkpt><trkpt lat="45.7691412" lon="9.1958408"><ele>324.8</ele><time>2026-03-24T09:31:45.852Z</time></trkpt><trkpt lat="45.76914" lon="9.1956689"><ele>325.4</ele><time>2026-03-24T09:31:46.852Z</time></trkpt><trkpt lat="45.7691347" lon="9.1955372"><ele>326.0</ele><time>2026-03-24T09:31:47.849Z</time></trkpt><trkpt lat="45.769119" lon="9.1954398"><ele>326.0</ele><time>2026-03-24T09:31:48.857Z</time></trkpt><trkpt lat="45.7690996" lon="9.1953344"><ele>326.0</ele><time>2026-03-24T09:31:50.851Z</time></trkpt><trkpt lat="45.7691387" lon="9.1954119"><ele>326.0</ele><time>2026-03-24T09:31:52.844Z</time></trkpt><trkpt lat="45.7691723" lon="9.1955197"><ele>326.0</ele><time>2026-03-24T09:31:53.847Z</time></trkpt><trkpt lat="45.7692259" lon="9.1956308"><ele>326.0</ele><time>2026-03-24T09:31:54.855Z</time></trkpt><trkpt lat="45.7692824" lon="9.1957816"><ele>326.0</ele><time>2026-03-24T09:31:55.851Z</time></trkpt><trkpt lat="45.7693491" lon="9.1959581"><ele>325.33333333333337</ele><time>2026-03-24T09:31:56.841Z</time></trkpt><trkpt lat="45.7694095" lon="9.1961416"><ele>324.6666666666667</ele><time>2026-03-24T09:31:57.844Z</time></trkpt><trkpt lat="45.7694964" lon="9.1963333"><ele>324.0</ele><time>2026-03-24T09:31:58.84Z</time></trkpt><trkpt lat="45.7695797" lon="9.1965342"><ele>323.3333333333333</ele><time>2026-03-24T09:31:59.839Z</time></trkpt><trkpt lat="45.7696537" lon="9.1967342"><ele>322.66666666666663</ele><time>2026-03-24T09:32:00.852Z</time></trkpt><trkpt lat="45.7697283" lon="9.1969532"><ele>322.0</ele><time>2026-03-24T09:32:01.849Z</time></trkpt><trkpt lat="45.7698013" lon="9.197124"><ele>322.0</ele><time>2026-03-24T09:32:02.854Z</time></trkpt><trkpt lat="45.7698902" lon="9.1972448"><ele>322.0</ele><time>2026-03-24T09:32:03.851Z</time></trkpt><trkpt lat="45.7699226" lon="9.1973718"><ele>322.0</ele><time>2026-03-24T09:32:04.847Z</time></trkpt><trkpt lat="45.7699507" lon="9.1974535"><ele>322.0</ele><time>2026-03-24T09:32:06.836Z</time></trkpt><trkpt lat="45.769884" lon="9.1973891"><ele>322.0</ele><time>2026-03-24T09:32:07.829Z</time></trkpt><trkpt lat="45.7698837" lon="9.1976303"><ele>322.25</ele><time>2026-03-24T09:32:31.836Z</time></trkpt><trkpt lat="45.769869" lon="9.1977419"><ele>322.5</ele><time>2026-03-24T09:32:32.832Z</time></trkpt><trkpt lat="45.769891" lon="9.1979078"><ele>322.75</ele><time>2026-03-24T09:32:33.835Z</time></trkpt><trkpt lat="45.7699087" lon="9.1980971"><ele>323.0</ele><time>2026-03-24T09:32:34.835Z</time></trkpt><trkpt lat="45.769885" lon="9.1984495"><ele>324.0</ele><time>2026-03-24T09:32:35.843Z</time></trkpt><trkpt lat="45.7698827" lon="9.1987264"><ele>325.0</ele><time>2026-03-24T09:32:36.847Z</time></trkpt><trkpt lat="45.7698751" lon="9.1989772"><ele>326.0</ele><time>2026-03-24T09:32:37.843Z</time></trkpt><trkpt lat="45.7699046" lon="9.1991602"><ele>325.6</ele><time>2026-03-24T09:32:38.846Z</time></trkpt><trkpt lat="45.7699302" lon="9.1993129"><ele>325.20000000000005</ele><time>2026-03-24T09:32:39.842Z</time></trkpt><trkpt lat="45.7699521" lon="9.1994433"><ele>324.79999999999995</ele><time>2026-03-24T09:32:40.843Z</time></trkpt><trkpt lat="45.7700534" lon="9.1995547"><ele>324.4</ele><time>2026-03-24T09:32:42.851Z</time></trkpt><trkpt lat="45.7701613" lon="9.1995696"><ele>324.0</ele><time>2026-03-24T09:32:44.84Z</time></trkpt><trkpt lat="45.7702451" lon="9.1995305"><ele>324.0</ele><time>2026-03-24T09:32:45.865Z</time></trkpt><trkpt lat="45.7703465" lon="9.1995025"><ele>324.0</ele><time>2026-03-24T09:32:46.85Z</time></trkpt><trkpt lat="45.7704864" lon="9.1994592"><ele>324.0</ele><time>2026-03-24T09:32:47.842Z</time></trkpt><trkpt lat="45.7706316" lon="9.1994218"><ele>324.0</ele><time>2026-03-24T09:32:48.836Z</time></trkpt><trkpt lat="45.7707944" lon="9.1993667"><ele>324.0</ele><time>2026-03-24T09:32:49.84Z</time></trkpt><trkpt lat="45.7709658" lon="9.1992982"><ele>324.0</ele><time>2026-03-24T09:32:50.84Z</time></trkpt><trkpt lat="45.7711386" lon="9.1992117"><ele>324.0</ele><time>2026-03-24T09:32:51.848Z</time></trkpt><trkpt lat="45.7713307" lon="9.1991294"><ele>322.6666666666667</ele><time>2026-03-24T09:32:52.842Z</time></trkpt><trkpt lat="45.7715079" lon="9.1990457"><ele>321.33333333333337</ele><time>2026-03-24T09:32:53.847Z</time></trkpt><trkpt lat="45.7716436" lon="9.1989929"><ele>320.0</ele><time>2026-03-24T09:32:54.852Z</time></trkpt><trkpt lat="45.7717717" lon="9.1989225"><ele>318.0</ele><time>2026-03-24T09:32:55.856Z</time></trkpt><trkpt lat="45.7718797" lon="9.1988561"><ele>316.0</ele><time>2026-03-24T09:32:56.864Z</time></trkpt><trkpt lat="45.7720222" lon="9.1988131"><ele>314.0</ele><time>2026-03-24T09:32:57.869Z</time></trkpt><trkpt lat="45.7721782" lon="9.198786"><ele>312.0</ele><time>2026-03-24T09:32:58.865Z</time></trkpt><trkpt lat="45.7723006" lon="9.1987971"><ele>312.0</ele><time>2026-03-24T09:32:59.861Z</time></trkpt><trkpt lat="45.7724339" lon="9.1988516"><ele>312.0</ele><time>2026-03-24T09:33:00.856Z</time></trkpt><trkpt lat="45.7725791" lon="9.1989485"><ele>312.0</ele><time>2026-03-24T09:33:01.855Z</time></trkpt><trkpt lat="45.772707" lon="9.1990412"><ele>312.0</ele><time>2026-03-24T09:33:02.854Z</time></trkpt><trkpt lat="45.7728104" lon="9.1991242"><ele>310.0</ele><time>2026-03-24T09:33:03.858Z</time></trkpt><trkpt lat="45.7729254" lon="9.1992224"><ele>308.0</ele><time>2026-03-24T09:33:04.856Z</time></trkpt><trkpt lat="45.7730535" lon="9.1993022"><ele>306.0</ele><time>2026-03-24T09:33:05.857Z</time></trkpt><trkpt lat="45.7731743" lon="9.1994085"><ele>304.0</ele><time>2026-03-24T09:33:06.861Z</time></trkpt><trkpt lat="45.7732959" lon="9.1995118"><ele>304.0</ele><time>2026-03-24T09:33:07.859Z</time></trkpt><trkpt lat="45.7734251" lon="9.1996205"><ele>304.0</ele><time>2026-03-24T09:33:08.867Z</time></trkpt><trkpt lat="45.7735662" lon="9.1997344"><ele>304.0</ele><time>2026-03-24T09:33:09.858Z</time></trkpt><trkpt lat="45.7737049" lon="9.1998255"><ele>303.0</ele><time>2026-03-24T09:33:10.855Z</time></trkpt><trkpt lat="45.7738456" lon="9.1999195"><ele>302.0</ele><time>2026-03-24T09:33:11.855Z</time></trkpt><trkpt lat="45.7739501" lon="9.2000043"><ele>301.0</ele><time>2026-03-24T09:33:12.855Z</time></trkpt><trkpt lat="45.7740544" lon="9.2000951"><ele>300.0</ele><time>2026-03-24T09:33:13.848Z</time></trkpt><trkpt lat="45.7741391" lon="9.2001625"><ele>300.0</ele><time>2026-03-24T09:33:14.845Z</time></trkpt><trkpt lat="45.774201" lon="9.200228"><ele>300.0</ele><time>2026-03-24T09:33:15.848Z</time></trkpt><trkpt lat="45.7742854" lon="9.2002845"><ele>300.0</ele><time>2026-03-24T09:33:16.87Z</time></trkpt><trkpt lat="45.7743538" lon="9.2003433"><ele>300.0</ele><time>2026-03-24T09:33:17.851Z</time></trkpt><trkpt lat="45.7744153" lon="9.2003825"><ele>300.0</ele><time>2026-03-24T09:33:18.858Z</time></trkpt><trkpt lat="45.7744838" lon="9.2003976"><ele>300.0</ele><time>2026-03-24T09:33:19.854Z</time></trkpt><trkpt lat="45.7745611" lon="9.2004005"><ele>299.4</ele><time>2026-03-24T09:33:20.84Z</time></trkpt><trkpt lat="45.7746624" lon="9.2003792"><ele>298.8</ele><time>2026-03-24T09:33:21.849Z</time></trkpt><trkpt lat="45.7747541" lon="9.2003197"><ele>298.2</ele><time>2026-03-24T09:33:22.841Z</time></trkpt><trkpt lat="45.7748399" lon="9.2002136"><ele>297.6</ele><time>2026-03-24T09:33:23.841Z</time></trkpt><trkpt lat="45.7749042" lon="9.2000842"><ele>297.0</ele><time>2026-03-24T09:33:24.847Z</time></trkpt><trkpt lat="45.7749743" lon="9.1999611"><ele>297.0</ele><time>2026-03-24T09:33:25.847Z</time></trkpt><trkpt lat="45.7750415" lon="9.1998547"><ele>297.0</ele><time>2026-03-24T09:33:26.852Z</time></trkpt><trkpt lat="45.7751053" lon="9.1997567"><ele>297.0</ele><time>2026-03-24T09:33:27.857Z</time></trkpt><trkpt lat="45.7751661" lon="9.199659"><ele>297.0</ele><time>2026-03-24T09:33:28.854Z</time></trkpt><trkpt lat="45.7752459" lon="9.1995665"><ele>297.0</ele><time>2026-03-24T09:33:29.858Z</time></trkpt><trkpt lat="45.7753358" lon="9.1994854"><ele>296.0</ele><time>2026-03-24T09:33:30.851Z</time></trkpt><trkpt lat="45.7754361" lon="9.199445"><ele>295.0</ele><time>2026-03-24T09:33:31.855Z</time></trkpt><trkpt lat="45.7755649" lon="9.1994326"><ele>294.0</ele><time>2026-03-24T09:33:32.855Z</time></trkpt><trkpt lat="45.7757052" lon="9.1994219"><ele>293.0</ele><time>2026-03-24T09:33:33.861Z</time></trkpt><trkpt lat="45.7758598" lon="9.1993883"><ele>289.6666666666667</ele><time>2026-03-24T09:33:34.864Z</time></trkpt><trkpt lat="45.7760246" lon="9.1993627"><ele>286.3333333333333</ele><time>2026-03-24T09:33:35.857Z</time></trkpt><trkpt lat="45.7762043" lon="9.1993656"><ele>283.0</ele><time>2026-03-24T09:33:36.856Z</time></trkpt><trkpt lat="45.7763585" lon="9.1993078"><ele>283.0</ele><time>2026-03-24T09:33:37.868Z</time></trkpt><trkpt lat="45.7765054" lon="9.1992677"><ele>283.0</ele><time>2026-03-24T09:33:38.86Z</time></trkpt><trkpt lat="45.7766781" lon="9.1992219"><ele>283.0</ele><time>2026-03-24T09:33:39.863Z</time></trkpt><trkpt lat="45.7768151" lon="9.1991794"><ele>282.25</ele><time>2026-03-24T09:33:40.853Z</time></trkpt><trkpt lat="45.7769116" lon="9.1991475"><ele>281.5</ele><time>2026-03-24T09:33:41.849Z</time></trkpt><trkpt lat="45.7770193" lon="9.1991342"><ele>280.75</ele><time>2026-03-24T09:33:42.853Z</time></trkpt><trkpt lat="45.7771525" lon="9.1991203"><ele>280.0</ele><time>2026-03-24T09:33:43.849Z</time></trkpt><trkpt lat="45.7772877" lon="9.199145"><ele>280.0</ele><time>2026-03-24T09:33:44.853Z</time></trkpt><trkpt lat="45.7774352" lon="9.199198"><ele>280.0</ele><time>2026-03-24T09:33:45.859Z</time></trkpt><trkpt lat="45.7775898" lon="9.1992293"><ele>280.0</ele><time>2026-03-24T09:33:46.854Z</time></trkpt><trkpt lat="45.7777388" lon="9.19925"><ele>279.0</ele><time>2026-03-24T09:33:47.87Z</time></trkpt><trkpt lat="45.7778754" lon="9.1992793"><ele>278.0</ele><time>2026-03-24T09:33:48.862Z</time></trkpt><trkpt lat="45.7780226" lon="9.1993109"><ele>277.0</ele><time>2026-03-24T09:33:49.859Z</time></trkpt><trkpt lat="45.7781458" lon="9.1993024"><ele>276.0</ele><time>2026-03-24T09:33:50.862Z</time></trkpt><trkpt lat="45.778291" lon="9.1992894"><ele>276.0</ele><time>2026-03-24T09:33:51.863Z</time></trkpt><trkpt lat="45.7783824" lon="9.1992681"><ele>276.0</ele><time>2026-03-24T09:33:52.867Z</time></trkpt><trkpt lat="45.7785119" lon="9.199236"><ele>276.0</ele><time>2026-03-24T09:33:53.852Z</time></trkpt><trkpt lat="45.7786524" lon="9.1992424"><ele>276.0</ele><time>2026-03-24T09:33:54.844Z</time></trkpt><trkpt lat="45.7788003" lon="9.1992236"><ele>274.75</ele><time>2026-03-24T09:33:55.848Z</time></trkpt><trkpt lat="45.7788895" lon="9.1991926"><ele>273.5</ele><time>2026-03-24T09:33:56.847Z</time></trkpt><trkpt lat="45.7789918" lon="9.1991803"><ele>272.25</ele><time>2026-03-24T09:33:57.86Z</time></trkpt><trkpt lat="45.7791206" lon="9.1992221"><ele>271.0</ele><time>2026-03-24T09:33:58.847Z</time></trkpt><trkpt lat="45.7792455" lon="9.1993014"><ele>271.0</ele><time>2026-03-24T09:33:59.851Z</time></trkpt><trkpt lat="45.7793462" lon="9.1993772"><ele>271.0</ele><time>2026-03-24T09:34:00.858Z</time></trkpt><trkpt lat="45.7794511" lon="9.1994541"><ele>271.0</ele><time>2026-03-24T09:34:01.854Z</time></trkpt><trkpt lat="45.779556" lon="9.1995166"><ele>271.0</ele><time>2026-03-24T09:34:02.855Z</time></trkpt><trkpt lat="45.7796496" lon="9.1995966"><ele>270.5</ele><time>2026-03-24T09:34:03.847Z</time></trkpt><trkpt lat="45.7797609" lon="9.1996932"><ele>270.0</ele><time>2026-03-24T09:34:04.835Z</time></trkpt><trkpt lat="45.7798753" lon="9.1997474"><ele>269.5</ele><time>2026-03-24T09:34:05.84Z</time></trkpt><trkpt lat="45.7799769" lon="9.1997701"><ele>269.0</ele><time>2026-03-24T09:34:06.84Z</time></trkpt><trkpt lat="45.7800946" lon="9.1997757"><ele>269.5</ele><time>2026-03-24T09:34:07.842Z</time></trkpt><trkpt lat="45.7801964" lon="9.1997924"><ele>270.0</ele><time>2026-03-24T09:34:08.837Z</time></trkpt><trkpt lat="45.7802815" lon="9.1998259"><ele>270.5</ele><time>2026-03-24T09:34:09.84Z</time></trkpt><trkpt lat="45.7803549" lon="9.1998694"><ele>271.0</ele><time>2026-03-24T09:34:10.837Z</time></trkpt><trkpt lat="45.7804246" lon="9.199914"><ele>271.5</ele><time>2026-03-24T09:34:11.84Z</time></trkpt><trkpt lat="45.7804945" lon="9.1999543"><ele>272.0</ele><time>2026-03-24T09:34:12.836Z</time></trkpt><trkpt lat="45.7805649" lon="9.1999358"><ele>272.0</ele><time>2026-03-24T09:34:13.844Z</time></trkpt><trkpt lat="45.7806325" lon="9.1999005"><ele>272.0</ele><time>2026-03-24T09:34:14.839Z</time></trkpt><trkpt lat="45.7807095" lon="9.199856"><ele>272.0</ele><time>2026-03-24T09:34:15.837Z</time></trkpt><trkpt lat="45.7808086" lon="9.1998339"><ele>272.0</ele><time>2026-03-24T09:34:16.844Z</time></trkpt><trkpt lat="45.7809046" lon="9.1998131"><ele>272.0</ele><time>2026-03-24T09:34:17.843Z</time></trkpt><trkpt lat="45.7810167" lon="9.1998235"><ele>272.6</ele><time>2026-03-24T09:34:18.862Z</time></trkpt><trkpt lat="45.7811078" lon="9.1998217"><ele>273.2</ele><time>2026-03-24T09:34:19.845Z</time></trkpt><trkpt lat="45.7812102" lon="9.1998234"><ele>273.8</ele><time>2026-03-24T09:34:20.845Z</time></trkpt><trkpt lat="45.7813139" lon="9.1998051"><ele>274.4</ele><time>2026-03-24T09:34:21.845Z</time></trkpt><trkpt lat="45.7814176" lon="9.1997632"><ele>275.0</ele><time>2026-03-24T09:34:22.839Z</time></trkpt><trkpt lat="45.7815331" lon="9.1997608"><ele>275.0</ele><time>2026-03-24T09:34:23.846Z</time></trkpt><trkpt lat="45.7816425" lon="9.1997459"><ele>275.0</ele><time>2026-03-24T09:34:24.85Z</time></trkpt><trkpt lat="45.7817301" lon="9.1997334"><ele>275.0</ele><time>2026-03-24T09:34:25.848Z</time></trkpt><trkpt lat="45.7818078" lon="9.1997145"><ele>275.0</ele><time>2026-03-24T09:34:26.852Z</time></trkpt><trkpt lat="45.7819032" lon="9.1997068"><ele>275.0</ele><time>2026-03-24T09:34:27.855Z</time></trkpt><trkpt lat="45.7820036" lon="9.1997518"><ele>276.0</ele><time>2026-03-24T09:34:28.853Z</time></trkpt><trkpt lat="45.7821037" lon="9.1998118"><ele>277.0</ele><time>2026-03-24T09:34:29.86Z</time></trkpt><trkpt lat="45.7822011" lon="9.1998931"><ele>278.0</ele><time>2026-03-24T09:34:30.861Z</time></trkpt><trkpt lat="45.782307" lon="9.1999823"><ele>279.0</ele><time>2026-03-24T09:34:31.849Z</time></trkpt><trkpt lat="45.7824077" lon="9.2000771"><ele>279.25</ele><time>2026-03-24T09:34:32.854Z</time></trkpt><trkpt lat="45.7825163" lon="9.200168"><ele>279.5</ele><time>2026-03-24T09:34:33.864Z</time></trkpt><trkpt lat="45.7826357" lon="9.2002718"><ele>279.75</ele><time>2026-03-24T09:34:34.859Z</time></trkpt><trkpt lat="45.782756" lon="9.2003645"><ele>280.0</ele><time>2026-03-24T09:34:35.857Z</time></trkpt><trkpt lat="45.7828798" lon="9.200465"><ele>280.0</ele><time>2026-03-24T09:34:36.864Z</time></trkpt><trkpt lat="45.7830201" lon="9.2005773"><ele>280.0</ele><time>2026-03-24T09:34:37.853Z</time></trkpt><trkpt lat="45.7831514" lon="9.2006654"><ele>280.0</ele><time>2026-03-24T09:34:38.851Z</time></trkpt><trkpt lat="45.783251" lon="9.2007634"><ele>280.0</ele><time>2026-03-24T09:34:39.855Z</time></trkpt><trkpt lat="45.7833551" lon="9.2008683"><ele>280.0</ele><time>2026-03-24T09:34:40.85Z</time></trkpt><trkpt lat="45.7834467" lon="9.2009385"><ele>280.0</ele><time>2026-03-24T09:34:41.847Z</time></trkpt><trkpt lat="45.7835577" lon="9.2010589"><ele>280.0</ele><time>2026-03-24T09:34:42.843Z</time></trkpt><trkpt lat="45.7836798" lon="9.2011616"><ele>280.0</ele><time>2026-03-24T09:34:43.844Z</time></trkpt><trkpt lat="45.7837965" lon="9.2012508"><ele>280.0</ele><time>2026-03-24T09:34:44.838Z</time></trkpt><trkpt lat="45.7839095" lon="9.2013356"><ele>280.0</ele><time>2026-03-24T09:34:45.85Z</time></trkpt><trkpt lat="45.784029" lon="9.2014309"><ele>280.0</ele><time>2026-03-24T09:34:46.848Z</time></trkpt><trkpt lat="45.7841393" lon="9.2015306"><ele>280.0</ele><time>2026-03-24T09:34:47.846Z</time></trkpt><trkpt lat="45.7842364" lon="9.201622"><ele>279.0</ele><time>2026-03-24T09:34:48.853Z</time></trkpt><trkpt lat="45.7843" lon="9.2016799"><ele>278.0</ele><time>2026-03-24T09:34:49.865Z</time></trkpt><trkpt lat="45.7843849" lon="9.2017148"><ele>277.0</ele><time>2026-03-24T09:34:50.85Z</time></trkpt><trkpt lat="45.7845232" lon="9.201794"><ele>276.0</ele><time>2026-03-24T09:34:51.848Z</time></trkpt><trkpt lat="45.7846256" lon="9.201896"><ele>275.0</ele><time>2026-03-24T09:34:52.856Z</time></trkpt><trkpt lat="45.7847833" lon="9.2020645"><ele>275.0</ele><time>2026-03-24T09:34:53.851Z</time></trkpt><trkpt lat="45.7849059" lon="9.2021758"><ele>275.0</ele><time>2026-03-24T09:34:54.84Z</time></trkpt><trkpt lat="45.785051" lon="9.2022597"><ele>275.0</ele><time>2026-03-24T09:34:55.847Z</time></trkpt><trkpt lat="45.7851938" lon="9.2023879"><ele>275.33333333333337</ele><time>2026-03-24T09:34:56.848Z</time></trkpt><trkpt lat="45.7853519" lon="9.2025034"><ele>275.6666666666667</ele><time>2026-03-24T09:34:57.852Z</time></trkpt><trkpt lat="45.7855059" lon="9.2026302"><ele>276.0</ele><time>2026-03-24T09:34:58.848Z</time></trkpt><trkpt lat="45.7856589" lon="9.2027608"><ele>276.0</ele><time>2026-03-24T09:34:59.854Z</time></trkpt><trkpt lat="45.7858226" lon="9.2028826"><ele>276.0</ele><time>2026-03-24T09:35:00.848Z</time></trkpt><trkpt lat="45.7859822" lon="9.2030219"><ele>276.0</ele><time>2026-03-24T09:35:01.847Z</time></trkpt><trkpt lat="45.7861363" lon="9.2031664"><ele>276.0</ele><time>2026-03-24T09:35:02.844Z</time></trkpt><trkpt lat="45.7863036" lon="9.2032818"><ele>276.0</ele><time>2026-03-24T09:35:03.838Z</time></trkpt><trkpt lat="45.7864459" lon="9.2033775"><ele>276.0</ele><time>2026-03-24T09:35:04.85Z</time></trkpt><trkpt lat="45.786593" lon="9.2034993"><ele>276.0</ele><time>2026-03-24T09:35:05.846Z</time></trkpt><trkpt lat="45.7867182" lon="9.203599"><ele>276.0</ele><time>2026-03-24T09:35:06.852Z</time></trkpt><trkpt lat="45.7868534" lon="9.2037151"><ele>276.0</ele><time>2026-03-24T09:35:07.848Z</time></trkpt><trkpt lat="45.7869521" lon="9.2037883"><ele>276.0</ele><time>2026-03-24T09:35:08.848Z</time></trkpt><trkpt lat="45.7870775" lon="9.2038875"><ele>274.25</ele><time>2026-03-24T09:35:09.851Z</time></trkpt><trkpt lat="45.7872162" lon="9.2040099"><ele>272.5</ele><time>2026-03-24T09:35:10.855Z</time></trkpt><trkpt lat="45.7873274" lon="9.2040794"><ele>270.75</ele><time>2026-03-24T09:35:11.849Z</time></trkpt><trkpt lat="45.7874582" lon="9.2041775"><ele>269.0</ele><time>2026-03-24T09:35:12.847Z</time></trkpt><trkpt lat="45.7875975" lon="9.2042607"><ele>272.33333333333337</ele><time>2026-03-24T09:35:13.851Z</time></trkpt><trkpt lat="45.7877684" lon="9.204335"><ele>275.6666666666667</ele><time>2026-03-24T09:35:14.845Z</time></trkpt><trkpt lat="45.7879387" lon="9.2043788"><ele>279.0</ele><time>2026-03-24T09:35:15.846Z</time></trkpt><trkpt lat="45.7881212" lon="9.2044498"><ele>279.0</ele><time>2026-03-24T09:35:16.853Z</time></trkpt><trkpt lat="45.7883122" lon="9.2045228"><ele>279.0</ele><time>2026-03-24T09:35:17.853Z</time></trkpt><trkpt lat="45.7885418" lon="9.2045977"><ele>279.0</ele><time>2026-03-24T09:35:18.857Z</time></trkpt><trkpt lat="45.7887564" lon="9.2046745"><ele>282.0</ele><time>2026-03-24T09:35:19.853Z</time></trkpt><trkpt lat="45.7889683" lon="9.2047337"><ele>285.0</ele><time>2026-03-24T09:35:20.873Z</time></trkpt><trkpt lat="45.7892024" lon="9.2048014"><ele>281.6666666666667</ele><time>2026-03-24T09:35:21.858Z</time></trkpt><trkpt lat="45.7893687" lon="9.2048753"><ele>278.33333333333337</ele><time>2026-03-24T09:35:22.859Z</time></trkpt><trkpt lat="45.7895314" lon="9.2049145"><ele>275.0</ele><time>2026-03-24T09:35:23.852Z</time></trkpt><trkpt lat="45.7896848" lon="9.2049924"><ele>275.0</ele><time>2026-03-24T09:35:24.846Z</time></trkpt><trkpt lat="45.7898458" lon="9.2050448"><ele>275.0</ele><time>2026-03-24T09:35:25.853Z</time></trkpt><trkpt lat="45.7899836" lon="9.2051173"><ele>275.0</ele><time>2026-03-24T09:35:26.84Z</time></trkpt><trkpt lat="45.7901422" lon="9.2051341"><ele>278.25</ele><time>2026-03-24T09:35:27.851Z</time></trkpt><trkpt lat="45.7902821" lon="9.2051867"><ele>281.5</ele><time>2026-03-24T09:35:28.844Z</time></trkpt><trkpt lat="45.790404" lon="9.2052533"><ele>284.75</ele><time>2026-03-24T09:35:29.845Z</time></trkpt><trkpt lat="45.7905437" lon="9.2053372"><ele>288.0</ele><time>2026-03-24T09:35:30.842Z</time></trkpt><trkpt lat="45.7906811" lon="9.2054228"><ele>288.0</ele><time>2026-03-24T09:35:31.836Z</time></trkpt><trkpt lat="45.7908238" lon="9.2054852"><ele>288.0</ele><time>2026-03-24T09:35:32.834Z</time></trkpt><trkpt lat="45.7909924" lon="9.2055787"><ele>288.0</ele><time>2026-03-24T09:35:33.835Z</time></trkpt><trkpt lat="45.7911649" lon="9.2057039"><ele>283.6666666666667</ele><time>2026-03-24T09:35:34.837Z</time></trkpt><trkpt lat="45.7913216" lon="9.2058125"><ele>279.33333333333337</ele><time>2026-03-24T09:35:35.853Z</time></trkpt><trkpt lat="45.7915023" lon="9.2058843"><ele>275.0</ele><time>2026-03-24T09:35:36.853Z</time></trkpt><trkpt lat="45.7916645" lon="9.2059874"><ele>276.0</ele><time>2026-03-24T09:35:37.854Z</time></trkpt><trkpt lat="45.7918414" lon="9.2060564"><ele>277.0</ele><time>2026-03-24T09:35:38.859Z</time></trkpt><trkpt lat="45.7919772" lon="9.2061207"><ele>278.0</ele><time>2026-03-24T09:35:39.858Z</time></trkpt><trkpt lat="45.7921493" lon="9.2062207"><ele>278.0</ele><time>2026-03-24T09:35:40.853Z</time></trkpt><trkpt lat="45.792292" lon="9.2063021"><ele>278.0</ele><time>2026-03-24T09:35:41.86Z</time></trkpt><trkpt lat="45.7924311" lon="9.2064067"><ele>278.0</ele><time>2026-03-24T09:35:42.857Z</time></trkpt><trkpt lat="45.7925785" lon="9.2064895"><ele>277.0</ele><time>2026-03-24T09:35:43.858Z</time></trkpt><trkpt lat="45.7927303" lon="9.2065809"><ele>276.0</ele><time>2026-03-24T09:35:44.853Z</time></trkpt><trkpt lat="45.7928782" lon="9.2066689"><ele>275.0</ele><time>2026-03-24T09:35:45.86Z</time></trkpt><trkpt lat="45.793013" lon="9.20674"><ele>275.0</ele><time>2026-03-24T09:35:46.855Z</time></trkpt><trkpt lat="45.7931277" lon="9.2068021"><ele>275.0</ele><time>2026-03-24T09:35:47.859Z</time></trkpt><trkpt lat="45.7932548" lon="9.2068799"><ele>275.0</ele><time>2026-03-24T09:35:48.854Z</time></trkpt><trkpt lat="45.7933975" lon="9.2069454"><ele>275.0</ele><time>2026-03-24T09:35:49.853Z</time></trkpt><trkpt lat="45.7934585" lon="9.2069909"><ele>276.75</ele><time>2026-03-24T09:35:50.844Z</time></trkpt><trkpt lat="45.7935762" lon="9.207073"><ele>278.5</ele><time>2026-03-24T09:35:51.863Z</time></trkpt><trkpt lat="45.7937005" lon="9.2071456"><ele>280.25</ele><time>2026-03-24T09:35:52.851Z</time></trkpt><trkpt lat="45.7938141" lon="9.2072114"><ele>282.0</ele><time>2026-03-24T09:35:53.848Z</time></trkpt><trkpt lat="45.7939233" lon="9.2072722"><ele>281.2</ele><time>2026-03-24T09:35:54.848Z</time></trkpt><trkpt lat="45.794026" lon="9.2073292"><ele>280.4</ele><time>2026-03-24T09:35:55.85Z</time></trkpt><trkpt lat="45.7941321" lon="9.207387"><ele>279.6</ele><time>2026-03-24T09:35:56.853Z</time></trkpt><trkpt lat="45.7942231" lon="9.2074475"><ele>278.8</ele><time>2026-03-24T09:35:57.85Z</time></trkpt><trkpt lat="45.7943033" lon="9.2074897"><ele>278.0</ele><time>2026-03-24T09:35:58.846Z</time></trkpt><trkpt lat="45.7943646" lon="9.2075238"><ele>278.0</ele><time>2026-03-24T09:35:59.845Z</time></trkpt><trkpt lat="45.7944141" lon="9.2074605"><ele>278.0</ele><time>2026-03-24T09:36:03.847Z</time></trkpt><trkpt lat="45.7943356" lon="9.207436"><ele>278.0</ele><time>2026-03-24T09:36:06.853Z</time></trkpt><trkpt lat="45.794269" lon="9.207455"><ele>278.0</ele><time>2026-03-24T09:36:07.852Z</time></trkpt><trkpt lat="45.794198" lon="9.2074698"><ele>278.0</ele><time>2026-03-24T09:36:08.853Z</time></trkpt><trkpt lat="45.7941103" lon="9.2074418"><ele>278.0</ele><time>2026-03-24T09:36:09.849Z</time></trkpt><trkpt lat="45.7940031" lon="9.207375"><ele>277.25</ele><time>2026-03-24T09:36:10.852Z</time></trkpt><trkpt lat="45.7938838" lon="9.2073195"><ele>276.5</ele><time>2026-03-24T09:36:11.846Z</time></trkpt><trkpt lat="45.7937395" lon="9.2072479"><ele>275.75</ele><time>2026-03-24T09:36:12.844Z</time></trkpt><trkpt lat="45.7935923" lon="9.207162"><ele>275.0</ele><time>2026-03-24T09:36:13.849Z</time></trkpt><trkpt lat="45.7934669" lon="9.2070974"><ele>275.0</ele><time>2026-03-24T09:36:14.844Z</time></trkpt><trkpt lat="45.7933514" lon="9.207042"><ele>275.0</ele><time>2026-03-24T09:36:15.857Z</time></trkpt><trkpt lat="45.7932558" lon="9.206993"><ele>275.0</ele><time>2026-03-24T09:36:16.852Z</time></trkpt><trkpt lat="45.7931749" lon="9.2069501"><ele>275.0</ele><time>2026-03-24T09:36:17.843Z</time></trkpt><trkpt lat="45.7930853" lon="9.2068992"><ele>275.0</ele><time>2026-03-24T09:36:18.844Z</time></trkpt><trkpt lat="45.7929891" lon="9.2068189"><ele>275.0</ele><time>2026-03-24T09:36:20.835Z</time></trkpt><trkpt lat="45.7929818" lon="9.2067031"><ele>275.0</ele><time>2026-03-24T09:36:22.84Z</time></trkpt><trkpt lat="45.7930356" lon="9.2065873"><ele>275.0</ele><time>2026-03-24T09:36:24.841Z</time></trkpt><trkpt lat="45.7931068" lon="9.2064983"><ele>275.0</ele><time>2026-03-24T09:36:26.844Z</time></trkpt><trkpt lat="45.793168" lon="9.2064654"><ele>275.0</ele><time>2026-03-24T09:36:27.841Z</time></trkpt><trkpt lat="45.7932445" lon="9.2064422"><ele>275.0</ele><time>2026-03-24T09:36:28.85Z</time></trkpt><trkpt lat="45.7933052" lon="9.2064176"><ele>276.1666666666667</ele><time>2026-03-24T09:36:29.851Z</time></trkpt><trkpt lat="45.7933799" lon="9.206399"><ele>277.33333333333337</ele><time>2026-03-24T09:36:31.851Z</time></trkpt><trkpt lat="45.7934556" lon="9.2064421"><ele>278.5</ele><time>2026-03-24T09:36:33.848Z</time></trkpt><trkpt lat="45.7935473" lon="9.2064778"><ele>279.6666666666667</ele><time>2026-03-24T09:36:35.851Z</time></trkpt><trkpt lat="45.7936475" lon="9.206556"><ele>280.8333333333333</ele><time>2026-03-24T09:36:37.846Z</time></trkpt><trkpt lat="45.7937074" lon="9.2066018"><ele>282.0</ele><time>2026-03-24T09:36:38.846Z</time></trkpt><trkpt lat="45.7937696" lon="9.2066349"><ele>282.0</ele><time>2026-03-24T09:36:39.846Z</time></trkpt><trkpt lat="45.7938351" lon="9.2066835"><ele>282.0</ele><time>2026-03-24T09:36:40.848Z</time></trkpt><trkpt lat="45.7938958" lon="9.2067364"><ele>282.0</ele><time>2026-03-24T09:36:41.846Z</time></trkpt><trkpt lat="45.7939559" lon="9.2067957"><ele>282.0</ele><time>2026-03-24T09:36:42.848Z</time></trkpt><trkpt lat="45.7940135" lon="9.2068538"><ele>282.0</ele><time>2026-03-24T09:36:43.851Z</time></trkpt><trkpt lat="45.7940761" lon="9.2069034"><ele>282.0</ele><time>2026-03-24T09:36:44.849Z</time></trkpt><trkpt lat="45.7941489" lon="9.206955"><ele>282.0</ele><time>2026-03-24T09:36:45.851Z</time></trkpt><trkpt lat="45.7942255" lon="9.2070021"><ele>282.0</ele><time>2026-03-24T09:36:46.852Z</time></trkpt><trkpt lat="45.7942937" lon="9.2070483"><ele>282.0</ele><time>2026-03-24T09:36:47.841Z</time></trkpt><trkpt lat="45.7943631" lon="9.2070823"><ele>282.0</ele><time>2026-03-24T09:36:48.842Z</time></trkpt><trkpt lat="45.7944247" lon="9.2071177"><ele>282.0</ele><time>2026-03-24T09:36:49.837Z</time></trkpt><trkpt lat="45.7944947" lon="9.2071978"><ele>282.0</ele><time>2026-03-24T09:36:50.835Z</time></trkpt><trkpt lat="45.7945624" lon="9.2072511"><ele>282.0</ele><time>2026-03-24T09:36:51.839Z</time></trkpt><trkpt lat="45.7946315" lon="9.2073279"><ele>281.3333333333333</ele><time>2026-03-24T09:36:52.859Z</time></trkpt><trkpt lat="45.7947131" lon="9.2074119"><ele>280.6666666666667</ele><time>2026-03-24T09:36:53.844Z</time></trkpt><trkpt lat="45.7947886" lon="9.2075072"><ele>280.0</ele><time>2026-03-24T09:36:54.845Z</time></trkpt><trkpt lat="45.7948463" lon="9.2075866"><ele>279.33333333333337</ele><time>2026-03-24T09:36:55.85Z</time></trkpt><trkpt lat="45.7949055" lon="9.2076389"><ele>278.6666666666667</ele><time>2026-03-24T09:36:56.856Z</time></trkpt><trkpt lat="45.7949687" lon="9.2076793"><ele>278.0</ele><time>2026-03-24T09:36:57.852Z</time></trkpt><trkpt lat="45.7950641" lon="9.2077662"><ele>278.0</ele><time>2026-03-24T09:36:59.863Z</time></trkpt><trkpt lat="45.7951107" lon="9.2078317"><ele>278.0</ele><time>2026-03-24T09:37:01.855Z</time></trkpt><trkpt lat="45.7951725" lon="9.2079068"><ele>278.0</ele><time>2026-03-24T09:37:07.839Z</time></trkpt><trkpt lat="45.7952373" lon="9.2079438"><ele>278.0</ele><time>2026-03-24T09:37:10.835Z</time></trkpt><trkpt lat="45.7953191" lon="9.2079538"><ele>278.0</ele><time>2026-03-24T09:37:12.847Z</time></trkpt><trkpt lat="45.7954211" lon="9.2079183"><ele>278.0</ele><time>2026-03-24T09:37:14.844Z</time></trkpt><trkpt lat="45.7955302" lon="9.2079231"><ele>280.4</ele><time>2026-03-24T09:37:16.855Z</time></trkpt><trkpt lat="45.7956311" lon="9.2079297"><ele>282.8</ele><time>2026-03-24T09:37:18.854Z</time></trkpt><trkpt lat="45.795733" lon="9.2079337"><ele>285.2</ele><time>2026-03-24T09:37:20.844Z</time></trkpt><trkpt lat="45.7958389" lon="9.2079354"><ele>287.6</ele><time>2026-03-24T09:37:22.85Z</time></trkpt><trkpt lat="45.7959416" lon="9.2079482"><ele>290.0</ele><time>2026-03-24T09:37:24.853Z</time></trkpt><trkpt lat="45.7960344" lon="9.2079693"><ele>293.6</ele><time>2026-03-24T09:37:26.84Z</time></trkpt><trkpt lat="45.7961349" lon="9.2079711"><ele>297.2</ele><time>2026-03-24T09:37:28.842Z</time></trkpt><trkpt lat="45.7962098" lon="9.2079639"><ele>300.8</ele><time>2026-03-24T09:37:30.846Z</time></trkpt><trkpt lat="45.7962855" lon="9.2079826"><ele>304.4</ele><time>2026-03-24T09:37:32.844Z</time></trkpt><trkpt lat="45.7963799" lon="9.2080589"><ele>308.0</ele><time>2026-03-24T09:37:34.849Z</time></trkpt><trkpt lat="45.7964552" lon="9.2081383"><ele>308.0</ele><time>2026-03-24T09:37:36.844Z</time></trkpt><trkpt lat="45.7964231" lon="9.208028"><ele>308.0</ele><time>2026-03-24T09:38:37.844Z</time></trkpt><trkpt lat="45.7963588" lon="9.208044"><ele>308.0</ele><time>2026-03-24T09:39:25.838Z</time></trkpt><trkpt lat="45.7962921" lon="9.2080564"><ele>308.0</ele><time>2026-03-24T09:39:27.851Z</time></trkpt><trkpt lat="45.7962259" lon="9.2080963"><ele>308.0</ele><time>2026-03-24T09:39:30.838Z</time></trkpt><trkpt lat="45.7961519" lon="9.2081036"><ele>308.0</ele><time>2026-03-24T09:39:33.847Z</time></trkpt><trkpt lat="45.7960592" lon="9.2081122"><ele>305.0</ele><time>2026-03-24T09:39:36.848Z</time></trkpt><trkpt lat="45.7959859" lon="9.2080881"><ele>302.0</ele><time>2026-03-24T09:39:41.851Z</time></trkpt><trkpt lat="45.7958931" lon="9.2080727"><ele>299.0</ele><time>2026-03-24T09:39:44.851Z</time></trkpt><trkpt lat="45.795798" lon="9.2080282"><ele>296.0</ele><time>2026-03-24T09:39:46.85Z</time></trkpt><trkpt lat="45.7957187" lon="9.2080125"><ele>293.0</ele><time>2026-03-24T09:39:48.847Z</time></trkpt><trkpt lat="45.7956404" lon="9.2079803"><ele>290.0</ele><time>2026-03-24T09:39:51.851Z</time></trkpt><trkpt lat="45.7955648" lon="9.2080001"><ele>290.0</ele><time>2026-03-24T09:39:55.849Z</time></trkpt><trkpt lat="45.7956108" lon="9.2080688"><ele>290.0</ele><time>2026-03-24T09:40:02.843Z</time></trkpt><trkpt lat="45.7956597" lon="9.2081273"><ele>290.0</ele><time>2026-03-24T09:41:18.854Z</time></trkpt><trkpt lat="45.7957334" lon="9.2082151"><ele>290.0</ele><time>2026-03-24T09:41:20.857Z</time></trkpt><trkpt lat="45.7957913" lon="9.2082734"><ele>290.0</ele><time>2026-03-24T09:41:22.859Z</time></trkpt><trkpt lat="45.7958567" lon="9.2083394"><ele>290.0</ele><time>2026-03-24T09:41:24.851Z</time></trkpt><trkpt lat="45.795922" lon="9.2083934"><ele>290.0</ele><time>2026-03-24T09:41:26.847Z</time></trkpt><trkpt lat="45.7960111" lon="9.2084529"><ele>290.0</ele><time>2026-03-24T09:41:28.848Z</time></trkpt><trkpt lat="45.7960977" lon="9.2085367"><ele>290.0</ele><time>2026-03-24T09:41:30.855Z</time></trkpt><trkpt lat="45.7961712" lon="9.2085854"><ele>290.0</ele><time>2026-03-24T09:41:32.85Z</time></trkpt><trkpt lat="45.7962456" lon="9.2086158"><ele>290.0</ele><time>2026-03-24T09:41:38.856Z</time></trkpt><trkpt lat="45.796298" lon="9.20868"><ele>290.0</ele><time>2026-03-24T09:41:41.85Z</time></trkpt><trkpt lat="45.7963498" lon="9.2087384"><ele>290.0</ele><time>2026-03-24T09:41:43.849Z</time></trkpt><trkpt lat="45.7964533" lon="9.2088452"><ele>290.0</ele><time>2026-03-24T09:41:45.855Z</time></trkpt><trkpt lat="45.7965085" lon="9.2089027"><ele>290.0</ele><time>2026-03-24T09:41:46.853Z</time></trkpt><trkpt lat="45.7966032" lon="9.2090015"><ele>290.0</ele><time>2026-03-24T09:41:48.846Z</time></trkpt><trkpt lat="45.7966618" lon="9.2090686"><ele>290.0</ele><time>2026-03-24T09:41:50.848Z</time></trkpt><trkpt lat="45.7967271" lon="9.2091294"><ele>288.6</ele><time>2026-03-24T09:41:52.849Z</time></trkpt><trkpt lat="45.7968159" lon="9.2092061"><ele>287.2</ele><time>2026-03-24T09:41:54.848Z</time></trkpt><trkpt lat="45.7969129" lon="9.2092872"><ele>285.8</ele><time>2026-03-24T09:41:56.851Z</time></trkpt><trkpt lat="45.7969981" lon="9.2093565"><ele>284.4</ele><time>2026-03-24T09:41:58.843Z</time></trkpt><trkpt lat="45.7970827" lon="9.2094186"><ele>283.0</ele><time>2026-03-24T09:42:00.846Z</time></trkpt><trkpt lat="45.797195" lon="9.2094811"><ele>283.0</ele><time>2026-03-24T09:42:02.854Z</time></trkpt><trkpt lat="45.7972939" lon="9.2095637"><ele>283.0</ele><time>2026-03-24T09:42:04.833Z</time></trkpt><trkpt lat="45.7973709" lon="9.2096363"><ele>283.0</ele><time>2026-03-24T09:42:06.832Z</time></trkpt><trkpt lat="45.7974537" lon="9.2097034"><ele>283.0</ele><time>2026-03-24T09:42:08.84Z</time></trkpt><trkpt lat="45.7975142" lon="9.2098008"><ele>283.0</ele><time>2026-03-24T09:42:10.842Z</time></trkpt><trkpt lat="45.7976219" lon="9.2099058"><ele>282.5</ele><time>2026-03-24T09:42:12.841Z</time></trkpt><trkpt lat="45.7976795" lon="9.2099613"><ele>282.0</ele><time>2026-03-24T09:42:13.845Z</time></trkpt><trkpt lat="45.7977408" lon="9.2100223"><ele>281.5</ele><time>2026-03-24T09:42:14.842Z</time></trkpt><trkpt lat="45.7978065" lon="9.2100849"><ele>281.0</ele><time>2026-03-24T09:42:15.847Z</time></trkpt><trkpt lat="45.7978704" lon="9.210155"><ele>280.5</ele><time>2026-03-24T09:42:16.844Z</time></trkpt><trkpt lat="45.7979329" lon="9.2102258"><ele>280.0</ele><time>2026-03-24T09:42:17.846Z</time></trkpt><trkpt lat="45.7979822" lon="9.2103076"><ele>280.0</ele><time>2026-03-24T09:42:18.851Z</time></trkpt><trkpt lat="45.7980358" lon="9.2103713"><ele>280.0</ele><time>2026-03-24T09:42:19.848Z</time></trkpt><trkpt lat="45.7980983" lon="9.2104498"><ele>280.0</ele><time>2026-03-24T09:42:20.847Z</time></trkpt><trkpt lat="45.7981664" lon="9.2105261"><ele>280.0</ele><time>2026-03-24T09:42:21.856Z</time></trkpt><trkpt lat="45.7982318" lon="9.210583"><ele>280.0</ele><time>2026-03-24T09:42:22.85Z</time></trkpt><trkpt lat="45.7982976" lon="9.2106472"><ele>280.0</ele><time>2026-03-24T09:42:23.851Z</time></trkpt><trkpt lat="45.7983557" lon="9.2107113"><ele>279.42857142857144</ele><time>2026-03-24T09:42:24.852Z</time></trkpt><trkpt lat="45.7984134" lon="9.2107721"><ele>278.8571428571429</ele><time>2026-03-24T09:42:25.849Z</time></trkpt><trkpt lat="45.7984728" lon="9.2108282"><ele>278.2857142857143</ele><time>2026-03-24T09:42:26.844Z</time></trkpt><trkpt lat="45.7985262" lon="9.2108896"><ele>277.7142857142857</ele><time>2026-03-24T09:42:27.848Z</time></trkpt><trkpt lat="45.798577" lon="9.2109576"><ele>277.14285714285717</ele><time>2026-03-24T09:42:28.842Z</time></trkpt><trkpt lat="45.7986218" lon="9.2110272"><ele>276.57142857142856</ele><time>2026-03-24T09:42:29.852Z</time></trkpt><trkpt lat="45.7986728" lon="9.2110901"><ele>276.0</ele><time>2026-03-24T09:42:30.85Z</time></trkpt><trkpt lat="45.7987309" lon="9.2111492"><ele>276.0</ele><time>2026-03-24T09:42:31.848Z</time></trkpt><trkpt lat="45.7987811" lon="9.2112088"><ele>276.0</ele><time>2026-03-24T09:42:32.847Z</time></trkpt><trkpt lat="45.7988657" lon="9.2113085"><ele>276.0</ele><time>2026-03-24T09:42:34.849Z</time></trkpt><trkpt lat="45.7989045" lon="9.2114132"><ele>276.0</ele><time>2026-03-24T09:42:36.848Z</time></trkpt><trkpt lat="45.7988911" lon="9.2115051"><ele>276.0</ele><time>2026-03-24T09:42:37.847Z</time></trkpt><trkpt lat="45.798917" lon="9.2116886"><ele>273.75</ele><time>2026-03-24T09:42:39.843Z</time></trkpt><trkpt lat="45.7989688" lon="9.2118163"><ele>271.5</ele><time>2026-03-24T09:42:40.856Z</time></trkpt><trkpt lat="45.799038" lon="9.2119583"><ele>269.25</ele><time>2026-03-24T09:42:41.843Z</time></trkpt><trkpt lat="45.7991142" lon="9.2121226"><ele>267.0</ele><time>2026-03-24T09:42:42.846Z</time></trkpt><trkpt lat="45.799212" lon="9.21229"><ele>266.6666666666667</ele><time>2026-03-24T09:42:43.853Z</time></trkpt><trkpt lat="45.799348" lon="9.2124548"><ele>266.33333333333337</ele><time>2026-03-24T09:42:44.857Z</time></trkpt><trkpt lat="45.7995126" lon="9.2126207"><ele>266.0</ele><time>2026-03-24T09:42:45.866Z</time></trkpt><trkpt lat="45.7996886" lon="9.2127963"><ele>266.0</ele><time>2026-03-24T09:42:46.868Z</time></trkpt><trkpt lat="45.7998581" lon="9.2129313"><ele>266.0</ele><time>2026-03-24T09:42:47.861Z</time></trkpt><trkpt lat="45.8000166" lon="9.2130609"><ele>266.0</ele><time>2026-03-24T09:42:48.863Z</time></trkpt><trkpt lat="45.8001453" lon="9.2132027"><ele>266.0</ele><time>2026-03-24T09:42:49.868Z</time></trkpt><trkpt lat="45.8002871" lon="9.2133638"><ele>266.0</ele><time>2026-03-24T09:42:50.862Z</time></trkpt><trkpt lat="45.8004306" lon="9.2135267"><ele>266.0</ele><time>2026-03-24T09:42:51.862Z</time></trkpt><trkpt lat="45.8005658" lon="9.2136557"><ele>266.0</ele><time>2026-03-24T09:42:52.863Z</time></trkpt><trkpt lat="45.8006832" lon="9.2137767"><ele>266.0</ele><time>2026-03-24T09:42:53.861Z</time></trkpt><trkpt lat="45.8007974" lon="9.2139013"><ele>266.0</ele><time>2026-03-24T09:42:54.86Z</time></trkpt><trkpt lat="45.8009247" lon="9.2140144"><ele>266.0</ele><time>2026-03-24T09:42:55.853Z</time></trkpt><trkpt lat="45.8010485" lon="9.2140675"><ele>267.6666666666667</ele><time>2026-03-24T09:42:56.857Z</time></trkpt><trkpt lat="45.801207" lon="9.2141388"><ele>269.3333333333333</ele><time>2026-03-24T09:42:57.856Z</time></trkpt><trkpt lat="45.8013596" lon="9.214218"><ele>271.0</ele><time>2026-03-24T09:42:58.853Z</time></trkpt><trkpt lat="45.8015307" lon="9.2143724"><ele>271.0</ele><time>2026-03-24T09:42:59.857Z</time></trkpt><trkpt lat="45.8017034" lon="9.214517"><ele>271.0</ele><time>2026-03-24T09:43:00.856Z</time></trkpt><trkpt lat="45.8018391" lon="9.2146651"><ele>271.0</ele><time>2026-03-24T09:43:01.859Z</time></trkpt><trkpt lat="45.8019845" lon="9.2148321"><ele>272.0</ele><time>2026-03-24T09:43:02.858Z</time></trkpt><trkpt lat="45.8021101" lon="9.2149658"><ele>273.0</ele><time>2026-03-24T09:43:03.852Z</time></trkpt><trkpt lat="45.8022395" lon="9.2151178"><ele>274.0</ele><time>2026-03-24T09:43:04.865Z</time></trkpt><trkpt lat="45.8023887" lon="9.2152629"><ele>274.0</ele><time>2026-03-24T09:43:05.854Z</time></trkpt><trkpt lat="45.8024934" lon="9.2153711"><ele>274.0</ele><time>2026-03-24T09:43:06.857Z</time></trkpt><trkpt lat="45.8026058" lon="9.2155083"><ele>274.0</ele><time>2026-03-24T09:43:07.852Z</time></trkpt><trkpt lat="45.8027224" lon="9.2156049"><ele>274.0</ele><time>2026-03-24T09:43:08.86Z</time></trkpt><trkpt lat="45.8028172" lon="9.2157048"><ele>274.4</ele><time>2026-03-24T09:43:09.856Z</time></trkpt><trkpt lat="45.8028987" lon="9.2157841"><ele>274.79999999999995</ele><time>2026-03-24T09:43:10.855Z</time></trkpt><trkpt lat="45.8029535" lon="9.2158676"><ele>275.20000000000005</ele><time>2026-03-24T09:43:11.864Z</time></trkpt><trkpt lat="45.803019" lon="9.2159283"><ele>275.6</ele><time>2026-03-24T09:43:12.857Z</time></trkpt><trkpt lat="45.8031044" lon="9.2160084"><ele>276.0</ele><time>2026-03-24T09:43:13.859Z</time></trkpt><trkpt lat="45.8031899" lon="9.2160853"><ele>276.0</ele><time>2026-03-24T09:43:14.855Z</time></trkpt><trkpt lat="45.8032771" lon="9.2161638"><ele>276.0</ele><time>2026-03-24T09:43:15.857Z</time></trkpt><trkpt lat="45.8033808" lon="9.2162691"><ele>276.0</ele><time>2026-03-24T09:43:16.852Z</time></trkpt><trkpt lat="45.803484" lon="9.2163742"><ele>276.0</ele><time>2026-03-24T09:43:17.862Z</time></trkpt><trkpt lat="45.8035872" lon="9.2164829"><ele>277.0</ele><time>2026-03-24T09:43:18.858Z</time></trkpt><trkpt lat="45.8036952" lon="9.2165928"><ele>278.0</ele><time>2026-03-24T09:43:19.856Z</time></trkpt><trkpt lat="45.803798" lon="9.216707"><ele>279.0</ele><time>2026-03-24T09:43:20.858Z</time></trkpt><trkpt lat="45.803888" lon="9.2167922"><ele>280.0</ele><time>2026-03-24T09:43:21.853Z</time></trkpt><trkpt lat="45.8039865" lon="9.2168819"><ele>280.0</ele><time>2026-03-24T09:43:22.864Z</time></trkpt><trkpt lat="45.8040702" lon="9.2169815"><ele>280.0</ele><time>2026-03-24T09:43:23.853Z</time></trkpt><trkpt lat="45.8041512" lon="9.2170874"><ele>280.0</ele><time>2026-03-24T09:43:24.855Z</time></trkpt><trkpt lat="45.8042141" lon="9.2171962"><ele>280.0</ele><time>2026-03-24T09:43:25.86Z</time></trkpt><trkpt lat="45.8042667" lon="9.2172856"><ele>280.0</ele><time>2026-03-24T09:43:26.85Z</time></trkpt><trkpt lat="45.8043033" lon="9.2173616"><ele>280.2</ele><time>2026-03-24T09:43:27.855Z</time></trkpt><trkpt lat="45.8043408" lon="9.2175574"><ele>280.4</ele><time>2026-03-24T09:43:29.85Z</time></trkpt><trkpt lat="45.804361" lon="9.2176638"><ele>280.6</ele><time>2026-03-24T09:43:30.851Z</time></trkpt><trkpt lat="45.8043749" lon="9.2177982"><ele>280.8</ele><time>2026-03-24T09:43:31.85Z</time></trkpt><trkpt lat="45.8044243" lon="9.2178784"><ele>281.0</ele><time>2026-03-24T09:43:32.855Z</time></trkpt><trkpt lat="45.8045004" lon="9.2179635"><ele>281.0</ele><time>2026-03-24T09:43:33.848Z</time></trkpt><trkpt lat="45.8045708" lon="9.2180558"><ele>281.0</ele><time>2026-03-24T09:43:34.857Z</time></trkpt><trkpt lat="45.8046247" lon="9.218158"><ele>281.0</ele><time>2026-03-24T09:43:35.869Z</time></trkpt><trkpt lat="45.8047066" lon="9.2182697"><ele>281.0</ele><time>2026-03-24T09:43:36.846Z</time></trkpt><trkpt lat="45.8047882" lon="9.2183933"><ele>281.0</ele><time>2026-03-24T09:43:37.845Z</time></trkpt><trkpt lat="45.8048485" lon="9.2184924"><ele>281.0</ele><time>2026-03-24T09:43:38.85Z</time></trkpt><trkpt lat="45.8049073" lon="9.2185924"><ele>281.0</ele><time>2026-03-24T09:43:39.851Z</time></trkpt><trkpt lat="45.8049724" lon="9.2186933"><ele>281.0</ele><time>2026-03-24T09:43:40.856Z</time></trkpt><trkpt lat="45.8050465" lon="9.2187994"><ele>281.0</ele><time>2026-03-24T09:43:41.854Z</time></trkpt><trkpt lat="45.8051174" lon="9.2189042"><ele>281.0</ele><time>2026-03-24T09:43:42.852Z</time></trkpt><trkpt lat="45.8052046" lon="9.2190049"><ele>280.83333333333337</ele><time>2026-03-24T09:43:43.86Z</time></trkpt><trkpt lat="45.8052841" lon="9.2190976"><ele>280.6666666666667</ele><time>2026-03-24T09:43:44.851Z</time></trkpt><trkpt lat="45.8053659" lon="9.2191902"><ele>280.5</ele><time>2026-03-24T09:43:45.845Z</time></trkpt><trkpt lat="45.805436" lon="9.2192682"><ele>280.3333333333333</ele><time>2026-03-24T09:43:46.85Z</time></trkpt><trkpt lat="45.8054923" lon="9.2193366"><ele>280.16666666666663</ele><time>2026-03-24T09:43:47.841Z</time></trkpt><trkpt lat="45.8055473" lon="9.2193929"><ele>280.0</ele><time>2026-03-24T09:43:48.841Z</time></trkpt><trkpt lat="45.8056211" lon="9.2194643"><ele>280.0</ele><time>2026-03-24T09:43:50.836Z</time></trkpt><trkpt lat="45.8056646" lon="9.219538"><ele>280.0</ele><time>2026-03-24T09:43:52.836Z</time></trkpt><trkpt lat="45.8057497" lon="9.2196725"><ele>280.0</ele><time>2026-03-24T09:43:54.846Z</time></trkpt><trkpt lat="45.8058166" lon="9.2197321"><ele>280.0</ele><time>2026-03-24T09:43:55.846Z</time></trkpt><trkpt lat="45.8059236" lon="9.2198376"><ele>280.0</ele><time>2026-03-24T09:43:57.85Z</time></trkpt><trkpt lat="45.8060187" lon="9.2199232"><ele>280.0</ele><time>2026-03-24T09:43:58.849Z</time></trkpt><trkpt lat="45.8061221" lon="9.2200189"><ele>280.0</ele><time>2026-03-24T09:43:59.846Z</time></trkpt><trkpt lat="45.806256" lon="9.2201495"><ele>280.0</ele><time>2026-03-24T09:44:00.84Z</time></trkpt><trkpt lat="45.8064133" lon="9.2203452"><ele>280.0</ele><time>2026-03-24T09:44:01.845Z</time></trkpt><trkpt lat="45.8065752" lon="9.2205235"><ele>280.0</ele><time>2026-03-24T09:44:02.837Z</time></trkpt><trkpt lat="45.8067109" lon="9.2206754"><ele>280.0</ele><time>2026-03-24T09:44:03.845Z</time></trkpt><trkpt lat="45.8068676" lon="9.220833"><ele>280.0</ele><time>2026-03-24T09:44:04.839Z</time></trkpt><trkpt lat="45.8070062" lon="9.2209754"><ele>280.0</ele><time>2026-03-24T09:44:05.841Z</time></trkpt><trkpt lat="45.8070948" lon="9.2211197"><ele>280.0</ele><time>2026-03-24T09:44:06.863Z</time></trkpt><trkpt lat="45.8072137" lon="9.2212627"><ele>280.0</ele><time>2026-03-24T09:44:07.852Z</time></trkpt><trkpt lat="45.8073384" lon="9.2213762"><ele>280.0</ele><time>2026-03-24T09:44:08.856Z</time></trkpt><trkpt lat="45.8074502" lon="9.2214862"><ele>280.0</ele><time>2026-03-24T09:44:09.857Z</time></trkpt><trkpt lat="45.8075454" lon="9.2215553"><ele>280.0</ele><time>2026-03-24T09:44:10.852Z</time></trkpt><trkpt lat="45.807643" lon="9.221627"><ele>279.4</ele><time>2026-03-24T09:44:11.845Z</time></trkpt><trkpt lat="45.8077291" lon="9.2217249"><ele>278.8</ele><time>2026-03-24T09:44:12.852Z</time></trkpt><trkpt lat="45.8078233" lon="9.2218305"><ele>278.2</ele><time>2026-03-24T09:44:13.858Z</time></trkpt><trkpt lat="45.8078941" lon="9.2219418"><ele>277.6</ele><time>2026-03-24T09:44:14.856Z</time></trkpt><trkpt lat="45.8079558" lon="9.2220266"><ele>277.0</ele><time>2026-03-24T09:44:15.857Z</time></trkpt><trkpt lat="45.8080191" lon="9.2220979"><ele>277.0</ele><time>2026-03-24T09:44:16.853Z</time></trkpt><trkpt lat="45.8080803" lon="9.2221599"><ele>277.0</ele><time>2026-03-24T09:44:17.858Z</time></trkpt><trkpt lat="45.8081415" lon="9.2222169"><ele>277.0</ele><time>2026-03-24T09:44:18.845Z</time></trkpt><trkpt lat="45.8081992" lon="9.2222828"><ele>277.0</ele><time>2026-03-24T09:44:19.855Z</time></trkpt><trkpt lat="45.8082555" lon="9.2223517"><ele>277.0</ele><time>2026-03-24T09:44:20.851Z</time></trkpt><trkpt lat="45.8083201" lon="9.2224271"><ele>277.0</ele><time>2026-03-24T09:44:21.857Z</time></trkpt><trkpt lat="45.8083732" lon="9.2224841"><ele>277.0</ele><time>2026-03-24T09:44:22.852Z</time></trkpt><trkpt lat="45.8084616" lon="9.2225633"><ele>277.6</ele><time>2026-03-24T09:44:24.853Z</time></trkpt><trkpt lat="45.8085621" lon="9.2226749"><ele>278.2</ele><time>2026-03-24T09:44:26.858Z</time></trkpt><trkpt lat="45.8086165" lon="9.2227439"><ele>278.8</ele><time>2026-03-24T09:44:27.854Z</time></trkpt><trkpt lat="45.8086625" lon="9.2228143"><ele>279.4</ele><time>2026-03-24T09:44:28.85Z</time></trkpt><trkpt lat="45.8087293" lon="9.2229353"><ele>280.0</ele><time>2026-03-24T09:44:30.851Z</time></trkpt><trkpt lat="45.8088356" lon="9.2230215"><ele>280.0</ele><time>2026-03-24T09:44:32.854Z</time></trkpt><trkpt lat="45.8089477" lon="9.2231263"><ele>280.0</ele><time>2026-03-24T09:44:34.85Z</time></trkpt><trkpt lat="45.8090226" lon="9.2231985"><ele>280.0</ele><time>2026-03-24T09:44:35.855Z</time></trkpt><trkpt lat="45.8091029" lon="9.2232876"><ele>280.0</ele><time>2026-03-24T09:44:36.855Z</time></trkpt><trkpt lat="45.8091981" lon="9.2233807"><ele>280.0</ele><time>2026-03-24T09:44:37.869Z</time></trkpt><trkpt lat="45.8092932" lon="9.2234659"><ele>280.16666666666663</ele><time>2026-03-24T09:44:38.849Z</time></trkpt><trkpt lat="45.8093571" lon="9.2235411"><ele>280.3333333333333</ele><time>2026-03-24T09:44:39.85Z</time></trkpt><trkpt lat="45.8094301" lon="9.2236043"><ele>280.5</ele><time>2026-03-24T09:44:40.861Z</time></trkpt><trkpt lat="45.8094953" lon="9.2236752"><ele>280.6666666666667</ele><time>2026-03-24T09:44:41.849Z</time></trkpt><trkpt lat="45.8095387" lon="9.223778"><ele>280.83333333333337</ele><time>2026-03-24T09:44:42.856Z</time></trkpt><trkpt lat="45.809571" lon="9.2238819"><ele>281.0</ele><time>2026-03-24T09:44:43.855Z</time></trkpt><trkpt lat="45.809608" lon="9.2239979"><ele>281.2</ele><time>2026-03-24T09:44:44.855Z</time></trkpt><trkpt lat="45.8096466" lon="9.2241039"><ele>281.40000000000003</ele><time>2026-03-24T09:44:45.848Z</time></trkpt><trkpt lat="45.8096771" lon="9.2241958"><ele>281.6</ele><time>2026-03-24T09:44:46.847Z</time></trkpt><trkpt lat="45.8097337" lon="9.224261"><ele>281.8</ele><time>2026-03-24T09:44:48.848Z</time></trkpt><trkpt lat="45.8098615" lon="9.2242855"><ele>282.0</ele><time>2026-03-24T09:44:50.851Z</time></trkpt><trkpt lat="45.809972" lon="9.2243495"><ele>282.0</ele><time>2026-03-24T09:44:51.847Z</time></trkpt><trkpt lat="45.8100752" lon="9.2244239"><ele>282.0</ele><time>2026-03-24T09:44:52.851Z</time></trkpt><trkpt lat="45.8101696" lon="9.2245289"><ele>282.0</ele><time>2026-03-24T09:44:53.854Z</time></trkpt><trkpt lat="45.8102693" lon="9.2246141"><ele>282.0</ele><time>2026-03-24T09:44:54.851Z</time></trkpt><trkpt lat="45.8103625" lon="9.2246883"><ele>282.3333333333333</ele><time>2026-03-24T09:44:55.85Z</time></trkpt><trkpt lat="45.8104391" lon="9.2247517"><ele>282.6666666666667</ele><time>2026-03-24T09:44:56.853Z</time></trkpt><trkpt lat="45.8105072" lon="9.2248221"><ele>283.0</ele><time>2026-03-24T09:44:57.843Z</time></trkpt><trkpt lat="45.8105692" lon="9.22489"><ele>283.33333333333337</ele><time>2026-03-24T09:44:58.839Z</time></trkpt><trkpt lat="45.8106579" lon="9.2249453"><ele>283.6666666666667</ele><time>2026-03-24T09:45:00.84Z</time></trkpt><trkpt lat="45.810729" lon="9.2249775"><ele>284.0</ele><time>2026-03-24T09:45:04.831Z</time></trkpt><trkpt lat="45.8107856" lon="9.2250302"><ele>284.0</ele><time>2026-03-24T09:45:06.84Z</time></trkpt><trkpt lat="45.8108744" lon="9.2250633"><ele>284.0</ele><time>2026-03-24T09:45:08.849Z</time></trkpt><trkpt lat="45.8109334" lon="9.2251596"><ele>284.0</ele><time>2026-03-24T09:45:09.837Z</time></trkpt><trkpt lat="45.8109921" lon="9.2252786"><ele>284.0</ele><time>2026-03-24T09:45:10.836Z</time></trkpt><trkpt lat="45.8110473" lon="9.2253875"><ele>284.0</ele><time>2026-03-24T09:45:11.834Z</time></trkpt><trkpt lat="45.8110913" lon="9.2254973"><ele>284.5</ele><time>2026-03-24T09:45:12.829Z</time></trkpt><trkpt lat="45.8111317" lon="9.2255847"><ele>285.0</ele><time>2026-03-24T09:45:13.834Z</time></trkpt><trkpt lat="45.8111763" lon="9.2256575"><ele>285.5</ele><time>2026-03-24T09:45:14.824Z</time></trkpt><trkpt lat="45.8112282" lon="9.225743"><ele>286.0</ele><time>2026-03-24T09:45:15.826Z</time></trkpt><trkpt lat="45.8112627" lon="9.2258677"><ele>286.5</ele><time>2026-03-24T09:45:16.826Z</time></trkpt><trkpt lat="45.8113012" lon="9.2259771"><ele>287.0</ele><time>2026-03-24T09:45:17.833Z</time></trkpt><trkpt lat="45.8113268" lon="9.2260818"><ele>287.0</ele><time>2026-03-24T09:45:18.835Z</time></trkpt><trkpt lat="45.8113497" lon="9.2261672"><ele>287.0</ele><time>2026-03-24T09:45:19.84Z</time></trkpt><trkpt lat="45.8113849" lon="9.2262789"><ele>287.0</ele><time>2026-03-24T09:45:21.844Z</time></trkpt><trkpt lat="45.8114263" lon="9.2263724"><ele>287.0</ele><time>2026-03-24T09:46:13.826Z</time></trkpt><trkpt lat="45.8114475" lon="9.2264583"><ele>287.0</ele><time>2026-03-24T09:46:15.83Z</time></trkpt><trkpt lat="45.8114721" lon="9.2265663"><ele>287.0</ele><time>2026-03-24T09:46:17.837Z</time></trkpt><trkpt lat="45.8115128" lon="9.2266486"><ele>287.0</ele><time>2026-03-24T09:46:18.841Z</time></trkpt><trkpt lat="45.8115713" lon="9.22676"><ele>287.0</ele><time>2026-03-24T09:46:21.853Z</time></trkpt><trkpt lat="45.8116425" lon="9.2267984"><ele>287.0</ele><time>2026-03-24T09:46:22.843Z</time></trkpt><trkpt lat="45.811723" lon="9.2268349"><ele>287.0</ele><time>2026-03-24T09:46:23.844Z</time></trkpt><trkpt lat="45.8118001" lon="9.2268657"><ele>287.0</ele><time>2026-03-24T09:46:24.835Z</time></trkpt><trkpt lat="45.8118977" lon="9.2269064"><ele>287.0</ele><time>2026-03-24T09:46:25.838Z</time></trkpt><trkpt lat="45.8119896" lon="9.2269555"><ele>287.0</ele><time>2026-03-24T09:46:26.846Z</time></trkpt><trkpt lat="45.8120803" lon="9.2270011"><ele>287.0</ele><time>2026-03-24T09:46:27.844Z</time></trkpt><trkpt lat="45.8121619" lon="9.2270483"><ele>287.0</ele><time>2026-03-24T09:46:28.845Z</time></trkpt><trkpt lat="45.8122536" lon="9.2271105"><ele>287.0</ele><time>2026-03-24T09:46:29.845Z</time></trkpt><trkpt lat="45.8123287" lon="9.2271621"><ele>287.0</ele><time>2026-03-24T09:46:30.843Z</time></trkpt><trkpt lat="45.8124005" lon="9.2272091"><ele>287.0</ele><time>2026-03-24T09:46:31.838Z</time></trkpt><trkpt lat="45.81247" lon="9.2272437"><ele>287.0</ele><time>2026-03-24T09:46:32.842Z</time></trkpt><trkpt lat="45.8125458" lon="9.2272878"><ele>287.0</ele><time>2026-03-24T09:46:33.841Z</time></trkpt><trkpt lat="45.8126369" lon="9.2273471"><ele>287.0</ele><time>2026-03-24T09:46:34.841Z</time></trkpt><trkpt lat="45.8127137" lon="9.22738"><ele>287.0</ele><time>2026-03-24T09:46:35.842Z</time></trkpt><trkpt lat="45.8127943" lon="9.2274133"><ele>287.0</ele><time>2026-03-24T09:46:36.841Z</time></trkpt><trkpt lat="45.8128611" lon="9.2274487"><ele>287.0</ele><time>2026-03-24T09:46:37.829Z</time></trkpt><trkpt lat="45.8129322" lon="9.2274902"><ele>287.0</ele><time>2026-03-24T09:46:38.836Z</time></trkpt><trkpt lat="45.8129985" lon="9.227533"><ele>287.0</ele><time>2026-03-24T09:46:39.829Z</time></trkpt><trkpt lat="45.8130743" lon="9.2275704"><ele>287.0</ele><time>2026-03-24T09:46:40.838Z</time></trkpt><trkpt lat="45.8131514" lon="9.2276135"><ele>287.0</ele><time>2026-03-24T09:46:41.855Z</time></trkpt><trkpt lat="45.8132169" lon="9.2276591"><ele>287.0</ele><time>2026-03-24T09:46:42.844Z</time></trkpt><trkpt lat="45.8132969" lon="9.2277238"><ele>287.0</ele><time>2026-03-24T09:46:43.847Z</time></trkpt><trkpt lat="45.8133635" lon="9.2277595"><ele>287.0</ele><time>2026-03-24T09:46:44.85Z</time></trkpt><trkpt lat="45.8134242" lon="9.2277874"><ele>287.0</ele><time>2026-03-24T09:46:45.839Z</time></trkpt><trkpt lat="45.8134855" lon="9.2278105"><ele>287.0</ele><time>2026-03-24T09:46:47.836Z</time></trkpt><trkpt lat="45.8135562" lon="9.2278378"><ele>287.0</ele><time>2026-03-24T09:46:55.836Z</time></trkpt><trkpt lat="45.8136171" lon="9.2278937"><ele>287.0</ele><time>2026-03-24T09:46:57.845Z</time></trkpt><trkpt lat="45.8136987" lon="9.2279377"><ele>287.0</ele><time>2026-03-24T09:46:59.838Z</time></trkpt><trkpt lat="45.8137869" lon="9.2280017"><ele>287.0</ele><time>2026-03-24T09:47:01.842Z</time></trkpt><trkpt lat="45.813855" lon="9.2280121"><ele>287.2</ele><time>2026-03-24T09:47:02.846Z</time></trkpt><trkpt lat="45.8139188" lon="9.2279332"><ele>287.4</ele><time>2026-03-24T09:47:04.838Z</time></trkpt><trkpt lat="45.8139454" lon="9.2277395"><ele>287.6</ele><time>2026-03-24T09:47:06.836Z</time></trkpt><trkpt lat="45.8139481" lon="9.2276019"><ele>287.8</ele><time>2026-03-24T09:47:07.83Z</time></trkpt><trkpt lat="45.8139353" lon="9.2274653"><ele>288.0</ele><time>2026-03-24T09:47:08.839Z</time></trkpt><trkpt lat="45.8139479" lon="9.2273242"><ele>288.6</ele><time>2026-03-24T09:47:09.838Z</time></trkpt><trkpt lat="45.8139643" lon="9.2271625"><ele>289.20000000000005</ele><time>2026-03-24T09:47:10.836Z</time></trkpt><trkpt lat="45.8140018" lon="9.2270135"><ele>289.8</ele><time>2026-03-24T09:47:11.84Z</time></trkpt><trkpt lat="45.8140255" lon="9.2268755"><ele>290.40000000000003</ele><time>2026-03-24T09:47:12.853Z</time></trkpt><trkpt lat="45.8140336" lon="9.2267253"><ele>291.0</ele><time>2026-03-24T09:47:13.842Z</time></trkpt><trkpt lat="45.8140959" lon="9.226599"><ele>291.40000000000003</ele><time>2026-03-24T09:47:14.842Z</time></trkpt><trkpt lat="45.8141471" lon="9.2264643"><ele>291.8</ele><time>2026-03-24T09:47:15.843Z</time></trkpt><trkpt lat="45.8141867" lon="9.2263141"><ele>292.20000000000005</ele><time>2026-03-24T09:47:16.842Z</time></trkpt><trkpt lat="45.814227" lon="9.2261761"><ele>292.6</ele><time>2026-03-24T09:47:17.839Z</time></trkpt><trkpt lat="45.8142446" lon="9.2260353"><ele>293.0</ele><time>2026-03-24T09:47:18.842Z</time></trkpt><trkpt lat="45.8142752" lon="9.2259114"><ele>293.8</ele><time>2026-03-24T09:47:19.846Z</time></trkpt><trkpt lat="45.81434" lon="9.2257911"><ele>294.6</ele><time>2026-03-24T09:47:20.841Z</time></trkpt><trkpt lat="45.8144058" lon="9.2256852"><ele>295.4</ele><time>2026-03-24T09:47:21.84Z</time></trkpt><trkpt lat="45.8145046" lon="9.2256071"><ele>296.2</ele><time>2026-03-24T09:47:22.839Z</time></trkpt><trkpt lat="45.8146068" lon="9.2255454"><ele>297.0</ele><time>2026-03-24T09:47:23.841Z</time></trkpt><trkpt lat="45.8147171" lon="9.2254872"><ele>297.4</ele><time>2026-03-24T09:47:24.848Z</time></trkpt><trkpt lat="45.8148258" lon="9.2254278"><ele>297.79999999999995</ele><time>2026-03-24T09:47:25.851Z</time></trkpt><trkpt lat="45.8149283" lon="9.2253637"><ele>298.2</ele><time>2026-03-24T09:47:26.847Z</time></trkpt><trkpt lat="45.8150258" lon="9.225302"><ele>298.59999999999997</ele><time>2026-03-24T09:47:27.844Z</time></trkpt><trkpt lat="45.8151222" lon="9.2252422"><ele>299.0</ele><time>2026-03-24T09:47:28.843Z</time></trkpt><trkpt lat="45.8152021" lon="9.225186"><ele>299.1666666666667</ele><time>2026-03-24T09:47:29.845Z</time></trkpt><trkpt lat="45.81527" lon="9.2251389"><ele>299.33333333333337</ele><time>2026-03-24T09:47:30.841Z</time></trkpt><trkpt lat="45.8153421" lon="9.2251039"><ele>299.5</ele><time>2026-03-24T09:47:31.845Z</time></trkpt><trkpt lat="45.8154039" lon="9.2250641"><ele>299.6666666666667</ele><time>2026-03-24T09:47:32.844Z</time></trkpt><trkpt lat="45.8154949" lon="9.2250088"><ele>299.8333333333333</ele><time>2026-03-24T09:47:34.847Z</time></trkpt><trkpt lat="45.8156046" lon="9.224999"><ele>300.0</ele><time>2026-03-24T09:47:36.841Z</time></trkpt><trkpt lat="45.8156665" lon="9.2250224"><ele>300.0</ele><time>2026-03-24T09:47:37.843Z</time></trkpt><trkpt lat="45.8157356" lon="9.2250614"><ele>300.0</ele><time>2026-03-24T09:47:38.841Z</time></trkpt><trkpt lat="45.8157996" lon="9.2251233"><ele>300.0</ele><time>2026-03-24T09:47:39.84Z</time></trkpt><trkpt lat="45.8158889" lon="9.2251779"><ele>300.0</ele><time>2026-03-24T09:47:40.835Z</time></trkpt><trkpt lat="45.8160413" lon="9.2252259"><ele>300.0</ele><time>2026-03-24T09:47:41.84Z</time></trkpt><trkpt lat="45.8161986" lon="9.2253123"><ele>300.3333333333333</ele><time>2026-03-24T09:47:42.833Z</time></trkpt><trkpt lat="45.81638" lon="9.2253769"><ele>300.66666666666663</ele><time>2026-03-24T09:47:43.851Z</time></trkpt><trkpt lat="45.8166103" lon="9.2254663"><ele>301.0</ele><time>2026-03-24T09:47:44.832Z</time></trkpt><trkpt lat="45.8168146" lon="9.225602"><ele>299.0</ele><time>2026-03-24T09:47:45.828Z</time></trkpt><trkpt lat="45.8169926" lon="9.225678"><ele>297.0</ele><time>2026-03-24T09:47:46.853Z</time></trkpt><trkpt lat="45.8171489" lon="9.225708"><ele>295.0</ele><time>2026-03-24T09:47:47.848Z</time></trkpt><trkpt lat="45.8173053" lon="9.2257453"><ele>295.0</ele><time>2026-03-24T09:47:48.857Z</time></trkpt><trkpt lat="45.8174549" lon="9.2257879"><ele>295.0</ele><time>2026-03-24T09:47:49.848Z</time></trkpt><trkpt lat="45.8176046" lon="9.2257982"><ele>295.0</ele><time>2026-03-24T09:47:50.846Z</time></trkpt><trkpt lat="45.8177296" lon="9.2258323"><ele>295.0</ele><time>2026-03-24T09:47:51.848Z</time></trkpt><trkpt lat="45.8178531" lon="9.2258354"><ele>294.75</ele><time>2026-03-24T09:47:52.845Z</time></trkpt><trkpt lat="45.8179788" lon="9.2257946"><ele>294.5</ele><time>2026-03-24T09:47:53.84Z</time></trkpt><trkpt lat="45.818112" lon="9.2257528"><ele>294.25</ele><time>2026-03-24T09:47:54.846Z</time></trkpt><trkpt lat="45.8182058" lon="9.2256774"><ele>294.0</ele><time>2026-03-24T09:47:55.842Z</time></trkpt><trkpt lat="45.8183144" lon="9.2255882"><ele>294.0</ele><time>2026-03-24T09:47:56.844Z</time></trkpt><trkpt lat="45.8184107" lon="9.2254959"><ele>294.0</ele><time>2026-03-24T09:47:57.841Z</time></trkpt><trkpt lat="45.8185172" lon="9.2254081"><ele>294.0</ele><time>2026-03-24T09:47:58.842Z</time></trkpt><trkpt lat="45.8186275" lon="9.2253524"><ele>294.0</ele><time>2026-03-24T09:47:59.843Z</time></trkpt><trkpt lat="45.818737" lon="9.225336"><ele>294.0</ele><time>2026-03-24T09:48:00.839Z</time></trkpt><trkpt lat="45.8188626" lon="9.2253678"><ele>294.0</ele><time>2026-03-24T09:48:01.844Z</time></trkpt><trkpt lat="45.8189959" lon="9.2253877"><ele>294.0</ele><time>2026-03-24T09:48:02.844Z</time></trkpt><trkpt lat="45.8191486" lon="9.2254235"><ele>294.0</ele><time>2026-03-24T09:48:03.835Z</time></trkpt><trkpt lat="45.8193583" lon="9.2254972"><ele>294.3333333333333</ele><time>2026-03-24T09:48:04.842Z</time></trkpt><trkpt lat="45.8195173" lon="9.2255718"><ele>294.66666666666663</ele><time>2026-03-24T09:48:05.849Z</time></trkpt><trkpt lat="45.8196983" lon="9.225664"><ele>295.0</ele><time>2026-03-24T09:48:06.858Z</time></trkpt><trkpt lat="45.8198695" lon="9.2257417"><ele>295.0</ele><time>2026-03-24T09:48:07.852Z</time></trkpt><trkpt lat="45.8199912" lon="9.2257777"><ele>295.0</ele><time>2026-03-24T09:48:08.851Z</time></trkpt><trkpt lat="45.8201328" lon="9.2258195"><ele>295.0</ele><time>2026-03-24T09:48:09.845Z</time></trkpt><trkpt lat="45.8202279" lon="9.2258059"><ele>295.0</ele><time>2026-03-24T09:48:10.842Z</time></trkpt><trkpt lat="45.8203629" lon="9.2257743"><ele>295.0</ele><time>2026-03-24T09:48:11.847Z</time></trkpt><trkpt lat="45.8204823" lon="9.2256958"><ele>295.0</ele><time>2026-03-24T09:48:12.836Z</time></trkpt><trkpt lat="45.8205719" lon="9.2255877"><ele>295.0</ele><time>2026-03-24T09:48:13.843Z</time></trkpt><trkpt lat="45.820598" lon="9.2253698"><ele>295.0</ele><time>2026-03-24T09:48:14.858Z</time></trkpt><trkpt lat="45.8206645" lon="9.2251716"><ele>295.0</ele><time>2026-03-24T09:48:15.841Z</time></trkpt><trkpt lat="45.8207451" lon="9.2249698"><ele>295.0</ele><time>2026-03-24T09:48:16.844Z</time></trkpt><trkpt lat="45.8208175" lon="9.2247483"><ele>295.0</ele><time>2026-03-24T09:48:17.838Z</time></trkpt><trkpt lat="45.8209076" lon="9.2245418"><ele>295.0</ele><time>2026-03-24T09:48:18.848Z</time></trkpt><trkpt lat="45.8210089" lon="9.2243286"><ele>295.0</ele><time>2026-03-24T09:48:19.842Z</time></trkpt><trkpt lat="45.8210985" lon="9.2241393"><ele>295.0</ele><time>2026-03-24T09:48:20.84Z</time></trkpt><trkpt lat="45.8211776" lon="9.2239128"><ele>295.0</ele><time>2026-03-24T09:48:21.836Z</time></trkpt><trkpt lat="45.8213026" lon="9.2237488"><ele>295.0</ele><time>2026-03-24T09:48:22.844Z</time></trkpt><trkpt lat="45.8213856" lon="9.2236275"><ele>295.0</ele><time>2026-03-24T09:48:23.836Z</time></trkpt><trkpt lat="45.8214994" lon="9.2235711"><ele>295.0</ele><time>2026-03-24T09:48:24.838Z</time></trkpt><trkpt lat="45.8216074" lon="9.2234696"><ele>295.0</ele><time>2026-03-24T09:48:25.837Z</time></trkpt><trkpt lat="45.8217455" lon="9.2233782"><ele>295.0</ele><time>2026-03-24T09:48:26.843Z</time></trkpt><trkpt lat="45.8218697" lon="9.2232928"><ele>295.0</ele><time>2026-03-24T09:48:27.837Z</time></trkpt><trkpt lat="45.8219981" lon="9.2231982"><ele>295.0</ele><time>2026-03-24T09:48:28.844Z</time></trkpt><trkpt lat="45.8221383" lon="9.2231082"><ele>295.5</ele><time>2026-03-24T09:48:29.843Z</time></trkpt><trkpt lat="45.8222641" lon="9.2230143"><ele>296.0</ele><time>2026-03-24T09:48:30.84Z</time></trkpt><trkpt lat="45.8223879" lon="9.2229527"><ele>296.5</ele><time>2026-03-24T09:48:31.844Z</time></trkpt><trkpt lat="45.822486" lon="9.2228854"><ele>297.0</ele><time>2026-03-24T09:48:32.845Z</time></trkpt><trkpt lat="45.8226329" lon="9.2228625"><ele>297.5</ele><time>2026-03-24T09:48:33.844Z</time></trkpt><trkpt lat="45.8227339" lon="9.2228155"><ele>298.0</ele><time>2026-03-24T09:48:34.84Z</time></trkpt><trkpt lat="45.822869" lon="9.2227796"><ele>298.5</ele><time>2026-03-24T09:48:35.846Z</time></trkpt><trkpt lat="45.8230012" lon="9.2227854"><ele>299.0</ele><time>2026-03-24T09:48:36.84Z</time></trkpt><trkpt lat="45.8231479" lon="9.2227438"><ele>299.0</ele><time>2026-03-24T09:48:37.843Z</time></trkpt><trkpt lat="45.8232625" lon="9.2227379"><ele>299.0</ele><time>2026-03-24T09:48:38.834Z</time></trkpt><trkpt lat="45.823375" lon="9.2227182"><ele>299.0</ele><time>2026-03-24T09:48:39.835Z</time></trkpt><trkpt lat="45.8234867" lon="9.2226952"><ele>299.0</ele><time>2026-03-24T09:48:40.833Z</time></trkpt><trkpt lat="45.8235775" lon="9.2226424"><ele>299.0</ele><time>2026-03-24T09:48:41.828Z</time></trkpt><trkpt lat="45.8236365" lon="9.2226066"><ele>299.33333333333337</ele><time>2026-03-24T09:48:42.829Z</time></trkpt><trkpt lat="45.8237054" lon="9.2226123"><ele>299.6666666666667</ele><time>2026-03-24T09:48:43.831Z</time></trkpt><trkpt lat="45.8239314" lon="9.2226131"><ele>300.0</ele><time>2026-03-24T09:48:57.823Z</time></trkpt><trkpt lat="45.8240928" lon="9.2226086"><ele>300.0</ele><time>2026-03-24T09:48:59.819Z</time></trkpt><trkpt lat="45.8242143" lon="9.2226109"><ele>300.0</ele><time>2026-03-24T09:49:00.82Z</time></trkpt><trkpt lat="45.8244567" lon="9.2226652"><ele>300.0</ele><time>2026-03-24T09:49:01.823Z</time></trkpt><trkpt lat="45.82457" lon="9.2227094"><ele>300.0</ele><time>2026-03-24T09:49:02.828Z</time></trkpt><trkpt lat="45.8246745" lon="9.2227194"><ele>300.0</ele><time>2026-03-24T09:49:03.835Z</time></trkpt><trkpt lat="45.8248038" lon="9.2227331"><ele>300.0</ele><time>2026-03-24T09:49:04.831Z</time></trkpt><trkpt lat="45.8249204" lon="9.2227325"><ele>300.0</ele><time>2026-03-24T09:49:05.825Z</time></trkpt><trkpt lat="45.825011" lon="9.2227224"><ele>300.0</ele><time>2026-03-24T09:49:06.828Z</time></trkpt><trkpt lat="45.8251086" lon="9.2227199"><ele>300.8</ele><time>2026-03-24T09:49:07.824Z</time></trkpt><trkpt lat="45.8252091" lon="9.2227577"><ele>301.6</ele><time>2026-03-24T09:49:08.828Z</time></trkpt><trkpt lat="45.8253048" lon="9.2228187"><ele>302.4</ele><time>2026-03-24T09:49:09.825Z</time></trkpt><trkpt lat="45.8253982" lon="9.2228543"><ele>303.2</ele><time>2026-03-24T09:49:10.83Z</time></trkpt><trkpt lat="45.8254937" lon="9.2228551"><ele>304.0</ele><time>2026-03-24T09:49:11.838Z</time></trkpt><trkpt lat="45.8256176" lon="9.2228555"><ele>304.0</ele><time>2026-03-24T09:49:12.841Z</time></trkpt><trkpt lat="45.8257308" lon="9.2228866"><ele>304.0</ele><time>2026-03-24T09:49:13.841Z</time></trkpt><trkpt lat="45.8258649" lon="9.2229474"><ele>304.0</ele><time>2026-03-24T09:49:14.835Z</time></trkpt><trkpt lat="45.826006" lon="9.2230374"><ele>304.0</ele><time>2026-03-24T09:49:15.839Z</time></trkpt><trkpt lat="45.8261432" lon="9.2231429"><ele>303.0</ele><time>2026-03-24T09:49:16.856Z</time></trkpt><trkpt lat="45.826295" lon="9.2232152"><ele>302.0</ele><time>2026-03-24T09:49:17.841Z</time></trkpt><trkpt lat="45.8264723" lon="9.2232799"><ele>301.0</ele><time>2026-03-24T09:49:18.842Z</time></trkpt><trkpt lat="45.8266449" lon="9.2234071"><ele>301.0</ele><time>2026-03-24T09:49:19.851Z</time></trkpt><trkpt lat="45.8268061" lon="9.2235223"><ele>301.0</ele><time>2026-03-24T09:49:20.842Z</time></trkpt><trkpt lat="45.8269588" lon="9.2236275"><ele>301.0</ele><time>2026-03-24T09:49:21.846Z</time></trkpt><trkpt lat="45.8271041" lon="9.2237267"><ele>301.5</ele><time>2026-03-24T09:49:22.846Z</time></trkpt><trkpt lat="45.8272429" lon="9.2238183"><ele>302.0</ele><time>2026-03-24T09:49:23.845Z</time></trkpt><trkpt lat="45.8273156" lon="9.2238573"><ele>302.5</ele><time>2026-03-24T09:49:24.85Z</time></trkpt><trkpt lat="45.8274234" lon="9.22392"><ele>303.0</ele><time>2026-03-24T09:49:25.839Z</time></trkpt><trkpt lat="45.8275438" lon="9.2239553"><ele>303.2</ele><time>2026-03-24T09:49:26.839Z</time></trkpt><trkpt lat="45.8276217" lon="9.2239907"><ele>303.4</ele><time>2026-03-24T09:49:27.84Z</time></trkpt><trkpt lat="45.8276664" lon="9.2240572"><ele>303.59999999999997</ele><time>2026-03-24T09:49:28.845Z</time></trkpt><trkpt lat="45.8277165" lon="9.2241928"><ele>303.8</ele><time>2026-03-24T09:49:30.838Z</time></trkpt><trkpt lat="45.8277901" lon="9.2243236"><ele>304.0</ele><time>2026-03-24T09:49:31.831Z</time></trkpt><trkpt lat="45.8278076" lon="9.2244397"><ele>304.3333333333333</ele><time>2026-03-24T09:49:32.83Z</time></trkpt><trkpt lat="45.8278301" lon="9.2245457"><ele>304.66666666666663</ele><time>2026-03-24T09:49:33.831Z</time></trkpt><trkpt lat="45.8278209" lon="9.2246582"><ele>305.0</ele><time>2026-03-24T09:49:34.828Z</time></trkpt><trkpt lat="45.8278265" lon="9.2247581"><ele>305.3333333333333</ele><time>2026-03-24T09:49:35.821Z</time></trkpt><trkpt lat="45.8278415" lon="9.2248906"><ele>305.6666666666667</ele><time>2026-03-24T09:49:36.824Z</time></trkpt><trkpt lat="45.8278198" lon="9.2250489"><ele>306.0</ele><time>2026-03-24T09:49:37.828Z</time></trkpt><trkpt lat="45.827804" lon="9.2252139"><ele>306.0</ele><time>2026-03-24T09:49:38.825Z</time></trkpt><trkpt lat="45.8277832" lon="9.2253907"><ele>306.0</ele><time>2026-03-24T09:49:39.824Z</time></trkpt><trkpt lat="45.8277646" lon="9.2255571"><ele>306.0</ele><time>2026-03-24T09:49:40.825Z</time></trkpt><trkpt lat="45.8277192" lon="9.225762"><ele>306.0</ele><time>2026-03-24T09:49:41.83Z</time></trkpt><trkpt lat="45.8276745" lon="9.2259255"><ele>305.2</ele><time>2026-03-24T09:49:42.82Z</time></trkpt><trkpt lat="45.8276221" lon="9.2260631"><ele>304.40000000000003</ele><time>2026-03-24T09:49:43.824Z</time></trkpt><trkpt lat="45.8275636" lon="9.226181"><ele>303.6</ele><time>2026-03-24T09:49:44.822Z</time></trkpt><trkpt lat="45.8274931" lon="9.2262962"><ele>302.8</ele><time>2026-03-24T09:49:45.827Z</time></trkpt><trkpt lat="45.827434" lon="9.226411"><ele>302.0</ele><time>2026-03-24T09:49:46.831Z</time></trkpt><trkpt lat="45.8273895" lon="9.2265051"><ele>301.8</ele><time>2026-03-24T09:49:47.839Z</time></trkpt><trkpt lat="45.8273744" lon="9.2266021"><ele>301.6</ele><time>2026-03-24T09:49:48.832Z</time></trkpt><trkpt lat="45.8273448" lon="9.2267002"><ele>301.40000000000003</ele><time>2026-03-24T09:49:49.826Z</time></trkpt><trkpt lat="45.8273806" lon="9.2268508"><ele>301.2</ele><time>2026-03-24T09:49:51.82Z</time></trkpt><trkpt lat="45.8275048" lon="9.2268173"><ele>301.0</ele><time>2026-03-24T09:49:52.818Z</time></trkpt><trkpt lat="45.8276203" lon="9.2267698"><ele>301.66666666666663</ele><time>2026-03-24T09:49:53.821Z</time></trkpt><trkpt lat="45.8277626" lon="9.2266999"><ele>302.3333333333333</ele><time>2026-03-24T09:49:54.831Z</time></trkpt><trkpt lat="45.827919" lon="9.2267503"><ele>303.0</ele><time>2026-03-24T09:49:55.825Z</time></trkpt><trkpt lat="45.8280488" lon="9.2268734"><ele>303.0</ele><time>2026-03-24T09:49:56.842Z</time></trkpt><trkpt lat="45.8282258" lon="9.2269668"><ele>303.0</ele><time>2026-03-24T09:49:57.844Z</time></trkpt><trkpt lat="45.8284261" lon="9.2269858"><ele>303.0</ele><time>2026-03-24T09:49:58.842Z</time></trkpt><trkpt lat="45.8285501" lon="9.2269995"><ele>303.4</ele><time>2026-03-24T09:49:59.849Z</time></trkpt><trkpt lat="45.8286775" lon="9.2270007"><ele>303.8</ele><time>2026-03-24T09:50:00.837Z</time></trkpt><trkpt lat="45.8287767" lon="9.2269578"><ele>304.2</ele><time>2026-03-24T09:50:01.834Z</time></trkpt><trkpt lat="45.8288746" lon="9.2269416"><ele>304.6</ele><time>2026-03-24T09:50:02.835Z</time></trkpt><trkpt lat="45.8289817" lon="9.2269257"><ele>305.0</ele><time>2026-03-24T09:50:03.837Z</time></trkpt><trkpt lat="45.8291071" lon="9.2269251"><ele>305.0</ele><time>2026-03-24T09:50:04.835Z</time></trkpt><trkpt lat="45.8292143" lon="9.2269204"><ele>305.0</ele><time>2026-03-24T09:50:05.83Z</time></trkpt><trkpt lat="45.8293419" lon="9.2269304"><ele>305.0</ele><time>2026-03-24T09:50:06.833Z</time></trkpt><trkpt lat="45.829479" lon="9.2269297"><ele>305.0</ele><time>2026-03-24T09:50:07.829Z</time></trkpt><trkpt lat="45.8295874" lon="9.2268957"><ele>306.8</ele><time>2026-03-24T09:50:08.829Z</time></trkpt><trkpt lat="45.8296718" lon="9.2268367"><ele>308.6</ele><time>2026-03-24T09:50:09.835Z</time></trkpt><trkpt lat="45.8297199" lon="9.2267565"><ele>310.4</ele><time>2026-03-24T09:50:10.834Z</time></trkpt><trkpt lat="45.8297906" lon="9.226617"><ele>312.2</ele><time>2026-03-24T09:50:12.829Z</time></trkpt><trkpt lat="45.8298378" lon="9.226485"><ele>314.0</ele><time>2026-03-24T09:50:14.827Z</time></trkpt><trkpt lat="45.829935" lon="9.2264082"><ele>314.1666666666667</ele><time>2026-03-24T09:50:16.85Z</time></trkpt><trkpt lat="45.8300063" lon="9.2263977"><ele>314.33333333333337</ele><time>2026-03-24T09:50:17.845Z</time></trkpt><trkpt lat="45.8300833" lon="9.2263981"><ele>314.5</ele><time>2026-03-24T09:50:18.863Z</time></trkpt><trkpt lat="45.8301708" lon="9.2263995"><ele>314.6666666666667</ele><time>2026-03-24T09:50:19.847Z</time></trkpt><trkpt lat="45.8302523" lon="9.2264047"><ele>314.8333333333333</ele><time>2026-03-24T09:50:20.842Z</time></trkpt><trkpt lat="45.8303322" lon="9.2264042"><ele>315.0</ele><time>2026-03-24T09:50:21.838Z</time></trkpt><trkpt lat="45.8304268" lon="9.226413"><ele>315.8</ele><time>2026-03-24T09:50:22.837Z</time></trkpt><trkpt lat="45.8305165" lon="9.2264108"><ele>316.6</ele><time>2026-03-24T09:50:23.833Z</time></trkpt><trkpt lat="45.8306167" lon="9.226413"><ele>317.4</ele><time>2026-03-24T09:50:24.842Z</time></trkpt><trkpt lat="45.8307212" lon="9.2264203"><ele>318.2</ele><time>2026-03-24T09:50:25.832Z</time></trkpt><trkpt lat="45.83081" lon="9.2264237"><ele>319.0</ele><time>2026-03-24T09:50:26.835Z</time></trkpt><trkpt lat="45.8309014" lon="9.2264158"><ele>319.0</ele><time>2026-03-24T09:50:27.83Z</time></trkpt><trkpt lat="45.8309716" lon="9.2264026"><ele>319.0</ele><time>2026-03-24T09:50:28.831Z</time></trkpt><trkpt lat="45.8310612" lon="9.2263984"><ele>319.0</ele><time>2026-03-24T09:50:29.837Z</time></trkpt><trkpt lat="45.831167" lon="9.2263975"><ele>319.0</ele><time>2026-03-24T09:50:30.83Z</time></trkpt><trkpt lat="45.8312583" lon="9.2264273"><ele>319.0</ele><time>2026-03-24T09:50:31.83Z</time></trkpt><trkpt lat="45.8313439" lon="9.2264725"><ele>320.0</ele><time>2026-03-24T09:50:32.833Z</time></trkpt><trkpt lat="45.8314418" lon="9.2265513"><ele>321.0</ele><time>2026-03-24T09:50:33.836Z</time></trkpt><trkpt lat="45.8315319" lon="9.2266528"><ele>322.0</ele><time>2026-03-24T09:50:34.83Z</time></trkpt><trkpt lat="45.8316433" lon="9.2267506"><ele>323.0</ele><time>2026-03-24T09:50:35.833Z</time></trkpt><trkpt lat="45.8317488" lon="9.2268419"><ele>324.4</ele><time>2026-03-24T09:50:36.832Z</time></trkpt><trkpt lat="45.8318301" lon="9.2269282"><ele>325.79999999999995</ele><time>2026-03-24T09:50:37.829Z</time></trkpt><trkpt lat="45.8319054" lon="9.227008"><ele>327.2</ele><time>2026-03-24T09:50:38.831Z</time></trkpt><trkpt lat="45.8319839" lon="9.2270914"><ele>328.6</ele><time>2026-03-24T09:50:39.834Z</time></trkpt><trkpt lat="45.8320468" lon="9.2271636"><ele>330.0</ele><time>2026-03-24T09:50:40.831Z</time></trkpt><trkpt lat="45.8321144" lon="9.2272257"><ele>330.0</ele><time>2026-03-24T09:50:41.834Z</time></trkpt><trkpt lat="45.8321662" lon="9.2272892"><ele>330.0</ele><time>2026-03-24T09:50:42.835Z</time></trkpt><trkpt lat="45.8322124" lon="9.2273891"><ele>330.0</ele><time>2026-03-24T09:50:44.83Z</time></trkpt><trkpt lat="45.8322699" lon="9.2274262"><ele>330.0</ele><time>2026-03-24T09:50:48.829Z</time></trkpt><trkpt lat="45.8323693" lon="9.2273642"><ele>330.0</ele><time>2026-03-24T09:50:50.825Z</time></trkpt><trkpt lat="45.8324232" lon="9.2272648"><ele>330.0</ele><time>2026-03-24T09:50:51.831Z</time></trkpt><trkpt lat="45.8324861" lon="9.2271333"><ele>330.0</ele><time>2026-03-24T09:50:52.833Z</time></trkpt><trkpt lat="45.8325526" lon="9.226998"><ele>330.0</ele><time>2026-03-24T09:50:53.828Z</time></trkpt><trkpt lat="45.832621" lon="9.2268563"><ele>330.0</ele><time>2026-03-24T09:50:54.836Z</time></trkpt><trkpt lat="45.832667" lon="9.2267096"><ele>330.0</ele><time>2026-03-24T09:50:55.833Z</time></trkpt><trkpt lat="45.8327191" lon="9.2265836"><ele>331.6</ele><time>2026-03-24T09:50:56.834Z</time></trkpt><trkpt lat="45.832773" lon="9.2264675"><ele>333.2</ele><time>2026-03-24T09:50:57.831Z</time></trkpt><trkpt lat="45.8328479" lon="9.2263762"><ele>334.79999999999995</ele><time>2026-03-24T09:50:58.827Z</time></trkpt><trkpt lat="45.8329535" lon="9.2263601"><ele>336.4</ele><time>2026-03-24T09:50:59.836Z</time></trkpt><trkpt lat="45.8330541" lon="9.226317"><ele>338.0</ele><time>2026-03-24T09:51:00.834Z</time></trkpt><trkpt lat="45.833167" lon="9.2263103"><ele>338.0</ele><time>2026-03-24T09:51:01.828Z</time></trkpt><trkpt lat="45.833278" lon="9.2263531"><ele>338.0</ele><time>2026-03-24T09:51:02.826Z</time></trkpt><trkpt lat="45.8333937" lon="9.2263998"><ele>338.0</ele><time>2026-03-24T09:51:03.827Z</time></trkpt><trkpt lat="45.8334847" lon="9.2264667"><ele>338.0</ele><time>2026-03-24T09:51:04.822Z</time></trkpt><trkpt lat="45.8335658" lon="9.2265303"><ele>338.0</ele><time>2026-03-24T09:51:05.828Z</time></trkpt><trkpt lat="45.8336523" lon="9.2265957"><ele>337.6666666666667</ele><time>2026-03-24T09:51:06.826Z</time></trkpt><trkpt lat="45.833737" lon="9.2266642"><ele>337.33333333333337</ele><time>2026-03-24T09:51:07.825Z</time></trkpt><trkpt lat="45.8338153" lon="9.2267219"><ele>337.0</ele><time>2026-03-24T09:51:08.828Z</time></trkpt><trkpt lat="45.8338767" lon="9.2267522"><ele>336.6666666666667</ele><time>2026-03-24T09:51:09.824Z</time></trkpt><trkpt lat="45.8339407" lon="9.2267731"><ele>336.3333333333333</ele><time>2026-03-24T09:51:10.829Z</time></trkpt><trkpt lat="45.8340342" lon="9.226808"><ele>336.0</ele><time>2026-03-24T09:51:12.828Z</time></trkpt><trkpt lat="45.8341045" lon="9.2268633"><ele>336.0</ele><time>2026-03-24T09:51:28.827Z</time></trkpt><trkpt lat="45.8341777" lon="9.2269324"><ele>336.0</ele><time>2026-03-24T09:51:30.833Z</time></trkpt><trkpt lat="45.8342307" lon="9.2270502"><ele>336.0</ele><time>2026-03-24T09:51:31.835Z</time></trkpt><trkpt lat="45.8343081" lon="9.2272831"><ele>336.0</ele><time>2026-03-24T09:51:32.831Z</time></trkpt><trkpt lat="45.8343957" lon="9.2275736"><ele>332.0</ele><time>2026-03-24T09:51:33.834Z</time></trkpt><trkpt lat="45.8344758" lon="9.2278684"><ele>328.0</ele><time>2026-03-24T09:51:34.835Z</time></trkpt><trkpt lat="45.8345737" lon="9.2282619"><ele>328.0</ele><time>2026-03-24T09:51:35.836Z</time></trkpt><trkpt lat="45.8346374" lon="9.2286693"><ele>328.0</ele><time>2026-03-24T09:51:36.837Z</time></trkpt><trkpt lat="45.8347184" lon="9.228997"><ele>328.5</ele><time>2026-03-24T09:51:37.829Z</time></trkpt><trkpt lat="45.8347706" lon="9.2293282"><ele>329.0</ele><time>2026-03-24T09:51:38.825Z</time></trkpt><trkpt lat="45.8348637" lon="9.2296163"><ele>333.0</ele><time>2026-03-24T09:51:39.831Z</time></trkpt><trkpt lat="45.8349418" lon="9.2299608"><ele>337.0</ele><time>2026-03-24T09:51:40.836Z</time></trkpt><trkpt lat="45.8350167" lon="9.2302767"><ele>337.0</ele><time>2026-03-24T09:51:41.83Z</time></trkpt><trkpt lat="45.8350626" lon="9.2306179"><ele>337.0</ele><time>2026-03-24T09:51:42.832Z</time></trkpt><trkpt lat="45.8350441" lon="9.2308657"><ele>337.0</ele><time>2026-03-24T09:51:43.838Z</time></trkpt><trkpt lat="45.8351104" lon="9.2311131"><ele>339.3333333333333</ele><time>2026-03-24T09:51:44.842Z</time></trkpt><trkpt lat="45.8351365" lon="9.2313737"><ele>341.6666666666667</ele><time>2026-03-24T09:51:45.838Z</time></trkpt><trkpt lat="45.8351484" lon="9.2315546"><ele>344.0</ele><time>2026-03-24T09:51:46.843Z</time></trkpt><trkpt lat="45.8351778" lon="9.231767"><ele>341.25</ele><time>2026-03-24T09:51:47.835Z</time></trkpt><trkpt lat="45.8352182" lon="9.2319353"><ele>338.5</ele><time>2026-03-24T09:51:48.84Z</time></trkpt><trkpt lat="45.8352527" lon="9.2321068"><ele>335.75</ele><time>2026-03-24T09:51:49.84Z</time></trkpt><trkpt lat="45.8352925" lon="9.2322849"><ele>333.0</ele><time>2026-03-24T09:51:50.851Z</time></trkpt><trkpt lat="45.8353008" lon="9.232492"><ele>333.0</ele><time>2026-03-24T09:51:51.836Z</time></trkpt><trkpt lat="45.8352995" lon="9.2327253"><ele>333.0</ele><time>2026-03-24T09:51:52.842Z</time></trkpt><trkpt lat="45.8353157" lon="9.2329625"><ele>333.0</ele><time>2026-03-24T09:51:53.83Z</time></trkpt><trkpt lat="45.8353409" lon="9.2331761"><ele>334.6666666666667</ele><time>2026-03-24T09:51:54.835Z</time></trkpt><trkpt lat="45.8353469" lon="9.2334205"><ele>336.33333333333337</ele><time>2026-03-24T09:51:55.834Z</time></trkpt><trkpt lat="45.8353642" lon="9.2336531"><ele>338.0</ele><time>2026-03-24T09:51:56.841Z</time></trkpt><trkpt lat="45.8354165" lon="9.2338808"><ele>340.0</ele><time>2026-03-24T09:51:57.84Z</time></trkpt><trkpt lat="45.8354324" lon="9.2340686"><ele>342.0</ele><time>2026-03-24T09:51:58.833Z</time></trkpt><trkpt lat="45.8354605" lon="9.2342458"><ele>344.0</ele><time>2026-03-24T09:51:59.834Z</time></trkpt><trkpt lat="45.8355102" lon="9.2344485"><ele>346.0</ele><time>2026-03-24T09:52:00.835Z</time></trkpt><trkpt lat="45.8355466" lon="9.2346457"><ele>346.0</ele><time>2026-03-24T09:52:01.834Z</time></trkpt><trkpt lat="45.8355799" lon="9.2348373"><ele>346.0</ele><time>2026-03-24T09:52:02.84Z</time></trkpt><trkpt lat="45.835596" lon="9.2350419"><ele>346.0</ele><time>2026-03-24T09:52:03.841Z</time></trkpt><trkpt lat="45.8356406" lon="9.2352495"><ele>346.0</ele><time>2026-03-24T09:52:04.843Z</time></trkpt><trkpt lat="45.8356447" lon="9.2354795"><ele>346.25</ele><time>2026-03-24T09:52:05.838Z</time></trkpt><trkpt lat="45.8356741" lon="9.2356601"><ele>346.5</ele><time>2026-03-24T09:52:06.836Z</time></trkpt><trkpt lat="45.8357206" lon="9.2358438"><ele>346.75</ele><time>2026-03-24T09:52:07.839Z</time></trkpt><trkpt lat="45.8357656" lon="9.2360446"><ele>347.0</ele><time>2026-03-24T09:52:08.838Z</time></trkpt><trkpt lat="45.8357624" lon="9.2362361"><ele>347.0</ele><time>2026-03-24T09:52:09.834Z</time></trkpt><trkpt lat="45.8357813" lon="9.2363977"><ele>347.0</ele><time>2026-03-24T09:52:10.829Z</time></trkpt><trkpt lat="45.8358076" lon="9.2365795"><ele>347.0</ele><time>2026-03-24T09:52:11.832Z</time></trkpt><trkpt lat="45.8358505" lon="9.2367569"><ele>347.0</ele><time>2026-03-24T09:52:12.832Z</time></trkpt><trkpt lat="45.835917" lon="9.23695"><ele>349.33333333333337</ele><time>2026-03-24T09:52:13.834Z</time></trkpt><trkpt lat="45.835988" lon="9.2371391"><ele>351.6666666666667</ele><time>2026-03-24T09:52:14.836Z</time></trkpt><trkpt lat="45.8360779" lon="9.2373409"><ele>354.0</ele><time>2026-03-24T09:52:15.83Z</time></trkpt><trkpt lat="45.8361793" lon="9.2375362"><ele>354.0</ele><time>2026-03-24T09:52:16.836Z</time></trkpt><trkpt lat="45.8362883" lon="9.237818"><ele>354.0</ele><time>2026-03-24T09:52:17.828Z</time></trkpt><trkpt lat="45.8364015" lon="9.2380878"><ele>354.0</ele><time>2026-03-24T09:52:18.829Z</time></trkpt><trkpt lat="45.8365159" lon="9.2383994"><ele>353.0</ele><time>2026-03-24T09:52:19.834Z</time></trkpt><trkpt lat="45.8366268" lon="9.2386963"><ele>352.0</ele><time>2026-03-24T09:52:20.833Z</time></trkpt><trkpt lat="45.8366978" lon="9.2389839"><ele>351.0</ele><time>2026-03-24T09:52:21.846Z</time></trkpt><trkpt lat="45.836788" lon="9.2392609"><ele>349.6666666666667</ele><time>2026-03-24T09:52:22.836Z</time></trkpt><trkpt lat="45.8368826" lon="9.2395452"><ele>348.33333333333337</ele><time>2026-03-24T09:52:23.836Z</time></trkpt><trkpt lat="45.8369645" lon="9.2398197"><ele>347.0</ele><time>2026-03-24T09:52:24.838Z</time></trkpt><trkpt lat="45.8370326" lon="9.2400861"><ele>347.0</ele><time>2026-03-24T09:52:25.834Z</time></trkpt><trkpt lat="45.8370735" lon="9.2403494"><ele>347.0</ele><time>2026-03-24T09:52:26.847Z</time></trkpt><trkpt lat="45.8371346" lon="9.2405981"><ele>347.0</ele><time>2026-03-24T09:52:27.844Z</time></trkpt><trkpt lat="45.8371783" lon="9.2408333"><ele>345.0</ele><time>2026-03-24T09:52:28.84Z</time></trkpt><trkpt lat="45.8372252" lon="9.2410564"><ele>343.0</ele><time>2026-03-24T09:52:29.839Z</time></trkpt><trkpt lat="45.8372635" lon="9.2412798"><ele>341.0</ele><time>2026-03-24T09:52:30.833Z</time></trkpt><trkpt lat="45.8373399" lon="9.2414711"><ele>341.0</ele><time>2026-03-24T09:52:31.839Z</time></trkpt><trkpt lat="45.837416" lon="9.2416747"><ele>341.0</ele><time>2026-03-24T09:52:32.841Z</time></trkpt><trkpt lat="45.8375231" lon="9.2418629"><ele>341.0</ele><time>2026-03-24T09:52:33.836Z</time></trkpt><trkpt lat="45.837621" lon="9.2420603"><ele>341.33333333333337</ele><time>2026-03-24T09:52:34.835Z</time></trkpt><trkpt lat="45.8377132" lon="9.2422616"><ele>341.6666666666667</ele><time>2026-03-24T09:52:35.838Z</time></trkpt><trkpt lat="45.8378046" lon="9.2424467"><ele>342.0</ele><time>2026-03-24T09:52:36.832Z</time></trkpt><trkpt lat="45.8379342" lon="9.2426173"><ele>342.0</ele><time>2026-03-24T09:52:37.829Z</time></trkpt><trkpt lat="45.8380548" lon="9.2427559"><ele>342.0</ele><time>2026-03-24T09:52:38.842Z</time></trkpt><trkpt lat="45.8381731" lon="9.2428814"><ele>342.0</ele><time>2026-03-24T09:52:39.83Z</time></trkpt><trkpt lat="45.8382695" lon="9.2430153"><ele>342.0</ele><time>2026-03-24T09:52:40.832Z</time></trkpt><trkpt lat="45.8383688" lon="9.2431653"><ele>343.3333333333333</ele><time>2026-03-24T09:52:41.837Z</time></trkpt><trkpt lat="45.8384321" lon="9.2433334"><ele>344.66666666666663</ele><time>2026-03-24T09:52:42.837Z</time></trkpt><trkpt lat="45.8384812" lon="9.2435454"><ele>346.0</ele><time>2026-03-24T09:52:43.845Z</time></trkpt><trkpt lat="45.8385405" lon="9.2437754"><ele>345.0</ele><time>2026-03-24T09:52:44.841Z</time></trkpt><trkpt lat="45.8386051" lon="9.2440118"><ele>344.0</ele><time>2026-03-24T09:52:45.84Z</time></trkpt><trkpt lat="45.8386447" lon="9.2442519"><ele>343.0</ele><time>2026-03-24T09:52:46.846Z</time></trkpt><trkpt lat="45.8386682" lon="9.2444716"><ele>343.0</ele><time>2026-03-24T09:52:47.841Z</time></trkpt><trkpt lat="45.8387234" lon="9.244681"><ele>343.0</ele><time>2026-03-24T09:52:48.842Z</time></trkpt><trkpt lat="45.8387705" lon="9.2448782"><ele>343.0</ele><time>2026-03-24T09:52:49.837Z</time></trkpt><trkpt lat="45.8387837" lon="9.245104"><ele>343.66666666666663</ele><time>2026-03-24T09:52:50.83Z</time></trkpt><trkpt lat="45.8388125" lon="9.245327"><ele>344.3333333333333</ele><time>2026-03-24T09:52:51.835Z</time></trkpt><trkpt lat="45.8388627" lon="9.2455561"><ele>345.0</ele><time>2026-03-24T09:52:52.847Z</time></trkpt><trkpt lat="45.8389218" lon="9.2457745"><ele>345.75</ele><time>2026-03-24T09:52:53.832Z</time></trkpt><trkpt lat="45.8389566" lon="9.2459642"><ele>346.5</ele><time>2026-03-24T09:52:54.831Z</time></trkpt><trkpt lat="45.8390141" lon="9.2461494"><ele>347.25</ele><time>2026-03-24T09:52:55.835Z</time></trkpt><trkpt lat="45.8390825" lon="9.2463289"><ele>348.0</ele><time>2026-03-24T09:52:56.833Z</time></trkpt><trkpt lat="45.8391661" lon="9.2464997"><ele>348.25</ele><time>2026-03-24T09:52:57.828Z</time></trkpt><trkpt lat="45.8392476" lon="9.2466544"><ele>348.5</ele><time>2026-03-24T09:52:58.833Z</time></trkpt><trkpt lat="45.8393163" lon="9.24681"><ele>348.75</ele><time>2026-03-24T09:52:59.835Z</time></trkpt><trkpt lat="45.8393795" lon="9.2469379"><ele>349.0</ele><time>2026-03-24T09:53:00.832Z</time></trkpt><trkpt lat="45.8394442" lon="9.2470656"><ele>349.0</ele><time>2026-03-24T09:53:01.834Z</time></trkpt><trkpt lat="45.8395024" lon="9.2472036"><ele>349.0</ele><time>2026-03-24T09:53:02.834Z</time></trkpt><trkpt lat="45.8395553" lon="9.2473458"><ele>349.0</ele><time>2026-03-24T09:53:03.834Z</time></trkpt><trkpt lat="45.8396003" lon="9.2474754"><ele>349.0</ele><time>2026-03-24T09:53:04.827Z</time></trkpt><trkpt lat="45.8396465" lon="9.2475818"><ele>349.0</ele><time>2026-03-24T09:53:05.832Z</time></trkpt><trkpt lat="45.8396875" lon="9.247688"><ele>349.79999999999995</ele><time>2026-03-24T09:53:06.828Z</time></trkpt><trkpt lat="45.8397244" lon="9.2478029"><ele>350.59999999999997</ele><time>2026-03-24T09:53:07.827Z</time></trkpt><trkpt lat="45.8397567" lon="9.2479134"><ele>351.4</ele><time>2026-03-24T09:53:08.832Z</time></trkpt><trkpt lat="45.8397995" lon="9.2480488"><ele>352.2</ele><time>2026-03-24T09:53:09.821Z</time></trkpt><trkpt lat="45.8398401" lon="9.248215"><ele>353.0</ele><time>2026-03-24T09:53:10.829Z</time></trkpt><trkpt lat="45.8399008" lon="9.2483992"><ele>353.0</ele><time>2026-03-24T09:53:11.833Z</time></trkpt><trkpt lat="45.8399724" lon="9.2486005"><ele>353.0</ele><time>2026-03-24T09:53:12.831Z</time></trkpt><trkpt lat="45.8400759" lon="9.2488087"><ele>353.0</ele><time>2026-03-24T09:53:13.832Z</time></trkpt><trkpt lat="45.8401939" lon="9.2490066"><ele>352.33333333333337</ele><time>2026-03-24T09:53:14.834Z</time></trkpt><trkpt lat="45.8402881" lon="9.2491917"><ele>351.6666666666667</ele><time>2026-03-24T09:53:15.832Z</time></trkpt><trkpt lat="45.8403809" lon="9.2493868"><ele>351.0</ele><time>2026-03-24T09:53:16.835Z</time></trkpt><trkpt lat="45.8404645" lon="9.2495739"><ele>351.0</ele><time>2026-03-24T09:53:17.838Z</time></trkpt><trkpt lat="45.8405459" lon="9.249757"><ele>351.0</ele><time>2026-03-24T09:53:18.837Z</time></trkpt><trkpt lat="45.8406243" lon="9.249949"><ele>351.0</ele><time>2026-03-24T09:53:19.833Z</time></trkpt><trkpt lat="45.8407015" lon="9.2501765"><ele>351.0</ele><time>2026-03-24T09:53:20.832Z</time></trkpt><trkpt lat="45.8407935" lon="9.2503605"><ele>351.0</ele><time>2026-03-24T09:53:21.834Z</time></trkpt><trkpt lat="45.8409014" lon="9.2505545"><ele>351.0</ele><time>2026-03-24T09:53:22.83Z</time></trkpt><trkpt lat="45.8409748" lon="9.2507476"><ele>351.0</ele><time>2026-03-24T09:53:23.847Z</time></trkpt><trkpt lat="45.8410711" lon="9.2509332"><ele>351.0</ele><time>2026-03-24T09:53:24.831Z</time></trkpt><trkpt lat="45.8411672" lon="9.2510959"><ele>351.0</ele><time>2026-03-24T09:53:25.83Z</time></trkpt><trkpt lat="45.8412808" lon="9.2512239"><ele>351.0</ele><time>2026-03-24T09:53:26.829Z</time></trkpt><trkpt lat="45.8413998" lon="9.2513988"><ele>351.0</ele><time>2026-03-24T09:53:27.829Z</time></trkpt><trkpt lat="45.8415237" lon="9.2515699"><ele>351.0</ele><time>2026-03-24T09:53:28.83Z</time></trkpt><trkpt lat="45.8416147" lon="9.2517458"><ele>352.0</ele><time>2026-03-24T09:53:29.832Z</time></trkpt><trkpt lat="45.8417332" lon="9.2519077"><ele>353.0</ele><time>2026-03-24T09:53:30.827Z</time></trkpt><trkpt lat="45.8418393" lon="9.2520319"><ele>354.0</ele><time>2026-03-24T09:53:31.836Z</time></trkpt><trkpt lat="45.8419309" lon="9.2522081"><ele>353.75</ele><time>2026-03-24T09:53:32.842Z</time></trkpt><trkpt lat="45.842049" lon="9.2523577"><ele>353.5</ele><time>2026-03-24T09:53:33.841Z</time></trkpt><trkpt lat="45.8421661" lon="9.2524519"><ele>353.25</ele><time>2026-03-24T09:53:34.837Z</time></trkpt><trkpt lat="45.8422642" lon="9.252565"><ele>353.0</ele><time>2026-03-24T09:53:35.83Z</time></trkpt><trkpt lat="45.8423727" lon="9.2527055"><ele>353.0</ele><time>2026-03-24T09:53:36.838Z</time></trkpt><trkpt lat="45.842492" lon="9.2528868"><ele>353.0</ele><time>2026-03-24T09:53:37.833Z</time></trkpt><trkpt lat="45.8425824" lon="9.2530656"><ele>353.0</ele><time>2026-03-24T09:53:38.83Z</time></trkpt><trkpt lat="45.8426457" lon="9.2532204"><ele>354.0</ele><time>2026-03-24T09:53:39.827Z</time></trkpt><trkpt lat="45.8427194" lon="9.253379"><ele>355.0</ele><time>2026-03-24T09:53:40.824Z</time></trkpt><trkpt lat="45.8427664" lon="9.253563"><ele>356.0</ele><time>2026-03-24T09:53:41.83Z</time></trkpt><trkpt lat="45.8428226" lon="9.253712"><ele>357.0</ele><time>2026-03-24T09:53:42.828Z</time></trkpt><trkpt lat="45.8428958" lon="9.2538302"><ele>357.0</ele><time>2026-03-24T09:53:43.829Z</time></trkpt><trkpt lat="45.8430035" lon="9.2539107"><ele>357.0</ele><time>2026-03-24T09:53:44.823Z</time></trkpt><trkpt lat="45.8431436" lon="9.2539642"><ele>357.0</ele><time>2026-03-24T09:53:45.828Z</time></trkpt><trkpt lat="45.8432822" lon="9.254038"><ele>357.0</ele><time>2026-03-24T09:53:46.83Z</time></trkpt><trkpt lat="45.8434504" lon="9.2541103"><ele>356.5</ele><time>2026-03-24T09:53:47.832Z</time></trkpt><trkpt lat="45.8436439" lon="9.2542702"><ele>356.0</ele><time>2026-03-24T09:53:48.833Z</time></trkpt><trkpt lat="45.8438448" lon="9.2544784"><ele>356.0</ele><time>2026-03-24T09:53:49.83Z</time></trkpt><trkpt lat="45.8440312" lon="9.2546935"><ele>356.0</ele><time>2026-03-24T09:53:50.835Z</time></trkpt><trkpt lat="45.8442006" lon="9.2548755"><ele>357.33333333333337</ele><time>2026-03-24T09:53:51.841Z</time></trkpt><trkpt lat="45.8443732" lon="9.2550681"><ele>358.6666666666667</ele><time>2026-03-24T09:53:52.844Z</time></trkpt><trkpt lat="45.8445254" lon="9.2552429"><ele>360.0</ele><time>2026-03-24T09:53:53.838Z</time></trkpt><trkpt lat="45.8446872" lon="9.2554081"><ele>360.0</ele><time>2026-03-24T09:53:54.855Z</time></trkpt><trkpt lat="45.8448306" lon="9.2555399"><ele>360.0</ele><time>2026-03-24T09:53:55.842Z</time></trkpt><trkpt lat="45.8449777" lon="9.2556571"><ele>360.0</ele><time>2026-03-24T09:53:56.837Z</time></trkpt><trkpt lat="45.8451012" lon="9.2557818"><ele>360.0</ele><time>2026-03-24T09:53:57.84Z</time></trkpt><trkpt lat="45.8451916" lon="9.2559201"><ele>360.0</ele><time>2026-03-24T09:53:58.835Z</time></trkpt><trkpt lat="45.8453172" lon="9.2560733"><ele>360.0</ele><time>2026-03-24T09:53:59.833Z</time></trkpt><trkpt lat="45.8454183" lon="9.2561987"><ele>360.0</ele><time>2026-03-24T09:54:00.828Z</time></trkpt><trkpt lat="45.8455251" lon="9.2563019"><ele>360.0</ele><time>2026-03-24T09:54:01.826Z</time></trkpt><trkpt lat="45.8456278" lon="9.2563909"><ele>360.0</ele><time>2026-03-24T09:54:03.832Z</time></trkpt><trkpt lat="45.8456706" lon="9.2564606"><ele>360.0</ele><time>2026-03-24T09:54:04.839Z</time></trkpt><trkpt lat="45.845725" lon="9.2565742"><ele>360.0</ele><time>2026-03-24T09:54:06.836Z</time></trkpt><trkpt lat="45.845793" lon="9.2566353"><ele>360.0</ele><time>2026-03-24T09:54:08.84Z</time></trkpt><trkpt lat="45.8458529" lon="9.256678"><ele>360.0</ele><time>2026-03-24T09:54:09.832Z</time></trkpt><trkpt lat="45.8459191" lon="9.2567427"><ele>360.75</ele><time>2026-03-24T09:54:10.836Z</time></trkpt><trkpt lat="45.846005" lon="9.2568337"><ele>361.5</ele><time>2026-03-24T09:54:11.839Z</time></trkpt><trkpt lat="45.8461062" lon="9.256945"><ele>362.25</ele><time>2026-03-24T09:54:12.839Z</time></trkpt><trkpt lat="45.8462073" lon="9.2570649"><ele>363.0</ele><time>2026-03-24T09:54:13.842Z</time></trkpt><trkpt lat="45.8463178" lon="9.2572155"><ele>363.6666666666667</ele><time>2026-03-24T09:54:14.838Z</time></trkpt><trkpt lat="45.8464542" lon="9.257349"><ele>364.33333333333337</ele><time>2026-03-24T09:54:15.833Z</time></trkpt><trkpt lat="45.8466116" lon="9.2575282"><ele>365.0</ele><time>2026-03-24T09:54:16.839Z</time></trkpt><trkpt lat="45.8467701" lon="9.2577189"><ele>365.0</ele><time>2026-03-24T09:54:17.829Z</time></trkpt><trkpt lat="45.8469508" lon="9.2579757"><ele>365.0</ele><time>2026-03-24T09:54:18.839Z</time></trkpt><trkpt lat="45.8471259" lon="9.2582698"><ele>367.0</ele><time>2026-03-24T09:54:19.831Z</time></trkpt><trkpt lat="45.847276" lon="9.2585728"><ele>369.0</ele><time>2026-03-24T09:54:20.828Z</time></trkpt><trkpt lat="45.847443" lon="9.2588876"><ele>368.0</ele><time>2026-03-24T09:54:21.828Z</time></trkpt><trkpt lat="45.8475675" lon="9.2592228"><ele>367.0</ele><time>2026-03-24T09:54:22.827Z</time></trkpt><trkpt lat="45.8477091" lon="9.2595121"><ele>366.0</ele><time>2026-03-24T09:54:23.821Z</time></trkpt><trkpt lat="45.8478563" lon="9.259809"><ele>365.0</ele><time>2026-03-24T09:54:24.822Z</time></trkpt><trkpt lat="45.8479615" lon="9.2601338"><ele>365.0</ele><time>2026-03-24T09:54:25.836Z</time></trkpt><trkpt lat="45.8481174" lon="9.2604114"><ele>365.0</ele><time>2026-03-24T09:54:26.827Z</time></trkpt><trkpt lat="45.8482584" lon="9.2607165"><ele>367.0</ele><time>2026-03-24T09:54:27.823Z</time></trkpt><trkpt lat="45.8483988" lon="9.2609668"><ele>369.0</ele><time>2026-03-24T09:54:28.824Z</time></trkpt><trkpt lat="45.8485221" lon="9.2611932"><ele>371.0</ele><time>2026-03-24T09:54:29.825Z</time></trkpt><trkpt lat="45.8486314" lon="9.261484"><ele>371.0</ele><time>2026-03-24T09:54:30.823Z</time></trkpt><trkpt lat="45.8487558" lon="9.2617545"><ele>371.0</ele><time>2026-03-24T09:54:31.825Z</time></trkpt><trkpt lat="45.8488758" lon="9.2619794"><ele>371.0</ele><time>2026-03-24T09:54:32.828Z</time></trkpt><trkpt lat="45.8489933" lon="9.2622064"><ele>371.33333333333337</ele><time>2026-03-24T09:54:33.828Z</time></trkpt><trkpt lat="45.8491314" lon="9.2624045"><ele>371.6666666666667</ele><time>2026-03-24T09:54:34.823Z</time></trkpt><trkpt lat="45.8492776" lon="9.262607"><ele>372.0</ele><time>2026-03-24T09:54:35.825Z</time></trkpt><trkpt lat="45.8494748" lon="9.2628418"><ele>372.0</ele><time>2026-03-24T09:54:36.823Z</time></trkpt><trkpt lat="45.8496648" lon="9.263079"><ele>372.0</ele><time>2026-03-24T09:54:37.825Z</time></trkpt><trkpt lat="45.8498415" lon="9.2632896"><ele>372.3333333333333</ele><time>2026-03-24T09:54:38.821Z</time></trkpt><trkpt lat="45.8500063" lon="9.2635"><ele>372.66666666666663</ele><time>2026-03-24T09:54:39.824Z</time></trkpt><trkpt lat="45.8501763" lon="9.2637077"><ele>373.0</ele><time>2026-03-24T09:54:40.832Z</time></trkpt><trkpt lat="45.8503209" lon="9.263941"><ele>374.3333333333333</ele><time>2026-03-24T09:54:41.832Z</time></trkpt><trkpt lat="45.8504429" lon="9.2641449"><ele>375.6666666666667</ele><time>2026-03-24T09:54:42.829Z</time></trkpt><trkpt lat="45.8505455" lon="9.264362"><ele>377.0</ele><time>2026-03-24T09:54:43.833Z</time></trkpt><trkpt lat="45.8506547" lon="9.2645915"><ele>377.0</ele><time>2026-03-24T09:54:44.831Z</time></trkpt><trkpt lat="45.8507546" lon="9.2647631"><ele>377.0</ele><time>2026-03-24T09:54:45.83Z</time></trkpt><trkpt lat="45.8508186" lon="9.2649685"><ele>377.0</ele><time>2026-03-24T09:54:46.832Z</time></trkpt><trkpt lat="45.8509004" lon="9.2651688"><ele>377.0</ele><time>2026-03-24T09:54:47.826Z</time></trkpt><trkpt lat="45.8510352" lon="9.2653611"><ele>377.0</ele><time>2026-03-24T09:54:48.839Z</time></trkpt><trkpt lat="45.8511873" lon="9.2656078"><ele>377.0</ele><time>2026-03-24T09:54:49.835Z</time></trkpt><trkpt lat="45.8513513" lon="9.2658509"><ele>378.0</ele><time>2026-03-24T09:54:50.838Z</time></trkpt><trkpt lat="45.8514813" lon="9.2660437"><ele>379.0</ele><time>2026-03-24T09:54:51.839Z</time></trkpt><trkpt lat="45.8516117" lon="9.2662316"><ele>380.0</ele><time>2026-03-24T09:54:52.842Z</time></trkpt><trkpt lat="45.8517555" lon="9.2664536"><ele>380.0</ele><time>2026-03-24T09:54:53.835Z</time></trkpt><trkpt lat="45.851882" lon="9.2666443"><ele>380.0</ele><time>2026-03-24T09:54:54.833Z</time></trkpt><trkpt lat="45.8519892" lon="9.2668118"><ele>380.0</ele><time>2026-03-24T09:54:55.838Z</time></trkpt><trkpt lat="45.8521022" lon="9.2670125"><ele>380.0</ele><time>2026-03-24T09:54:56.849Z</time></trkpt><trkpt lat="45.8521767" lon="9.2671672"><ele>380.0</ele><time>2026-03-24T09:54:57.832Z</time></trkpt><trkpt lat="45.8522955" lon="9.2673258"><ele>380.0</ele><time>2026-03-24T09:54:58.84Z</time></trkpt><trkpt lat="45.8523855" lon="9.2675303"><ele>381.33333333333337</ele><time>2026-03-24T09:54:59.84Z</time></trkpt><trkpt lat="45.8525228" lon="9.2676975"><ele>382.6666666666667</ele><time>2026-03-24T09:55:00.839Z</time></trkpt><trkpt lat="45.8526316" lon="9.2679107"><ele>384.0</ele><time>2026-03-24T09:55:01.84Z</time></trkpt><trkpt lat="45.8527232" lon="9.2681182"><ele>384.0</ele><time>2026-03-24T09:55:02.838Z</time></trkpt><trkpt lat="45.8528025" lon="9.2683079"><ele>384.0</ele><time>2026-03-24T09:55:03.841Z</time></trkpt><trkpt lat="45.8528722" lon="9.2684707"><ele>384.0</ele><time>2026-03-24T09:55:04.838Z</time></trkpt><trkpt lat="45.8529241" lon="9.2686137"><ele>384.0</ele><time>2026-03-24T09:55:05.842Z</time></trkpt><trkpt lat="45.8530099" lon="9.268794"><ele>384.5</ele><time>2026-03-24T09:55:06.834Z</time></trkpt><trkpt lat="45.8531047" lon="9.2689575"><ele>385.0</ele><time>2026-03-24T09:55:07.833Z</time></trkpt><trkpt lat="45.8531842" lon="9.2691452"><ele>385.5</ele><time>2026-03-24T09:55:08.833Z</time></trkpt><trkpt lat="45.8532299" lon="9.2693368"><ele>386.0</ele><time>2026-03-24T09:55:09.832Z</time></trkpt><trkpt lat="45.8532462" lon="9.269531"><ele>386.0</ele><time>2026-03-24T09:55:10.827Z</time></trkpt><trkpt lat="45.8532654" lon="9.2697229"><ele>386.0</ele><time>2026-03-24T09:55:11.84Z</time></trkpt><trkpt lat="45.8532589" lon="9.2699122"><ele>386.0</ele><time>2026-03-24T09:55:12.842Z</time></trkpt><trkpt lat="45.8532623" lon="9.2701245"><ele>386.0</ele><time>2026-03-24T09:55:13.84Z</time></trkpt><trkpt lat="45.8532488" lon="9.2703477"><ele>387.25</ele><time>2026-03-24T09:55:14.832Z</time></trkpt><trkpt lat="45.8532347" lon="9.2705434"><ele>388.5</ele><time>2026-03-24T09:55:15.824Z</time></trkpt><trkpt lat="45.8532213" lon="9.2707102"><ele>389.75</ele><time>2026-03-24T09:55:16.837Z</time></trkpt><trkpt lat="45.8531947" lon="9.2708793"><ele>391.0</ele><time>2026-03-24T09:55:17.833Z</time></trkpt><trkpt lat="45.8531493" lon="9.2710499"><ele>391.20000000000005</ele><time>2026-03-24T09:55:18.834Z</time></trkpt><trkpt lat="45.8530772" lon="9.2712046"><ele>391.40000000000003</ele><time>2026-03-24T09:55:19.837Z</time></trkpt><trkpt lat="45.8530149" lon="9.2713604"><ele>391.6</ele><time>2026-03-24T09:55:20.841Z</time></trkpt><trkpt lat="45.8529814" lon="9.2714958"><ele>391.8</ele><time>2026-03-24T09:55:21.844Z</time></trkpt><trkpt lat="45.8529783" lon="9.271614"><ele>392.0</ele><time>2026-03-24T09:55:22.839Z</time></trkpt><trkpt lat="45.8529863" lon="9.2717187"><ele>391.8</ele><time>2026-03-24T09:55:23.825Z</time></trkpt><trkpt lat="45.8530015" lon="9.2718849"><ele>391.6</ele><time>2026-03-24T09:55:25.82Z</time></trkpt><trkpt lat="45.8530303" lon="9.2720152"><ele>391.40000000000003</ele><time>2026-03-24T09:55:27.842Z</time></trkpt><trkpt lat="45.8530469" lon="9.2721397"><ele>391.20000000000005</ele><time>2026-03-24T09:55:29.825Z</time></trkpt><trkpt lat="45.8530469" lon="9.2722816"><ele>391.0</ele><time>2026-03-24T09:55:31.83Z</time></trkpt><trkpt lat="45.8530993" lon="9.2724074"><ele>391.00000000000006</ele><time>2026-03-24T09:55:33.819Z</time></trkpt><trkpt lat="45.8531639" lon="9.2723997"><ele>391.0</ele><time>2026-03-24T09:55:34.823Z</time></trkpt><trkpt lat="45.8532568" lon="9.2722899"><ele>391.0</ele><time>2026-03-24T09:55:36.824Z</time></trkpt><trkpt lat="45.8533029" lon="9.2722136"><ele>391.0</ele><time>2026-03-24T09:55:37.819Z</time></trkpt><trkpt lat="45.8533633" lon="9.2721858"><ele>391.00000000000006</ele><time>2026-03-24T09:55:38.82Z</time></trkpt><trkpt lat="45.8533973" lon="9.2720626"><ele>391.0</ele><time>2026-03-24T09:55:39.821Z</time></trkpt><trkpt lat="45.8534656" lon="9.2720005"><ele>390.20000000000005</ele><time>2026-03-24T09:55:41.82Z</time></trkpt><trkpt lat="45.8535698" lon="9.2719523"><ele>389.40000000000003</ele><time>2026-03-24T09:55:43.821Z</time></trkpt><trkpt lat="45.8536621" lon="9.2718896"><ele>388.6</ele><time>2026-03-24T09:55:45.835Z</time></trkpt><trkpt lat="45.853747" lon="9.2718276"><ele>387.8</ele><time>2026-03-24T09:55:47.832Z</time></trkpt><trkpt lat="45.8538216" lon="9.2717077"><ele>387.0</ele><time>2026-03-24T09:55:49.835Z</time></trkpt><trkpt lat="45.8538824" lon="9.2716587"><ele>387.0</ele><time>2026-03-24T09:55:50.827Z</time></trkpt><trkpt lat="45.8539421" lon="9.2716036"><ele>387.0</ele><time>2026-03-24T09:55:51.832Z</time></trkpt><trkpt lat="45.8540062" lon="9.2715564"><ele>387.0</ele><time>2026-03-24T09:55:52.83Z</time></trkpt><trkpt lat="45.8540837" lon="9.2715105"><ele>387.0</ele><time>2026-03-24T09:55:53.83Z</time></trkpt><trkpt lat="45.8541507" lon="9.2714665"><ele>387.0</ele><time>2026-03-24T09:55:54.827Z</time></trkpt><trkpt lat="45.8542022" lon="9.2714118"><ele>387.0</ele><time>2026-03-24T09:55:55.828Z</time></trkpt><trkpt lat="45.8542798" lon="9.2713258"><ele>387.8333333333333</ele><time>2026-03-24T09:55:57.83Z</time></trkpt><trkpt lat="45.8543374" lon="9.2712546"><ele>388.66666666666663</ele><time>2026-03-24T09:55:59.83Z</time></trkpt><trkpt lat="45.8544179" lon="9.2711213"><ele>389.5</ele><time>2026-03-24T09:56:06.836Z</time></trkpt><trkpt lat="45.8544667" lon="9.2710573"><ele>390.3333333333333</ele><time>2026-03-24T09:56:07.838Z</time></trkpt><trkpt lat="45.854512" lon="9.2709919"><ele>391.16666666666663</ele><time>2026-03-24T09:56:08.835Z</time></trkpt><trkpt lat="45.8545467" lon="9.2709135"><ele>392.0</ele><time>2026-03-24T09:56:09.84Z</time></trkpt><trkpt lat="45.8545936" lon="9.2707887"><ele>392.0</ele><time>2026-03-24T09:56:11.832Z</time></trkpt><trkpt lat="45.8546159" lon="9.2706592"><ele>392.0</ele><time>2026-03-24T09:56:13.831Z</time></trkpt><trkpt lat="45.85463" lon="9.2705003"><ele>392.0</ele><time>2026-03-24T09:56:15.823Z</time></trkpt><trkpt lat="45.8546771" lon="9.2704268"><ele>392.0</ele><time>2026-03-24T09:56:16.829Z</time></trkpt><trkpt lat="45.8547239" lon="9.2703308"><ele>392.0</ele><time>2026-03-24T09:56:17.831Z</time></trkpt><trkpt lat="45.8547803" lon="9.2702132"><ele>391.20000000000005</ele><time>2026-03-24T09:56:19.838Z</time></trkpt><trkpt lat="45.8548398" lon="9.270103"><ele>390.4</ele><time>2026-03-24T09:56:21.833Z</time></trkpt><trkpt lat="45.8548639" lon="9.2699991"><ele>389.6</ele><time>2026-03-24T09:56:23.835Z</time></trkpt><trkpt lat="45.8549058" lon="9.2699261"><ele>388.79999999999995</ele><time>2026-03-24T09:56:25.839Z</time></trkpt><trkpt lat="45.854961" lon="9.2698093"><ele>388.0</ele><time>2026-03-24T09:56:27.843Z</time></trkpt><trkpt lat="45.8550149" lon="9.2696522"><ele>387.83333333333337</ele><time>2026-03-24T09:56:29.851Z</time></trkpt><trkpt lat="45.8550942" lon="9.2695074"><ele>387.6666666666667</ele><time>2026-03-24T09:56:31.83Z</time></trkpt><trkpt lat="45.8551565" lon="9.2694466"><ele>387.5</ele><time>2026-03-24T09:56:32.838Z</time></trkpt><trkpt lat="45.8552237" lon="9.2693943"><ele>387.33333333333337</ele><time>2026-03-24T09:56:33.838Z</time></trkpt><trkpt lat="45.8552939" lon="9.2693587"><ele>387.1666666666667</ele><time>2026-03-24T09:56:34.832Z</time></trkpt><trkpt lat="45.8553754" lon="9.2693351"><ele>387.0</ele><time>2026-03-24T09:56:35.837Z</time></trkpt><trkpt lat="45.8554709" lon="9.2693239"><ele>387.0</ele><time>2026-03-24T09:56:36.835Z</time></trkpt><trkpt lat="45.8555875" lon="9.2693677"><ele>387.0</ele><time>2026-03-24T09:56:37.831Z</time></trkpt><trkpt lat="45.8556958" lon="9.269398"><ele>387.0</ele><time>2026-03-24T09:56:38.834Z</time></trkpt><trkpt lat="45.8558033" lon="9.2694232"><ele>387.0</ele><time>2026-03-24T09:56:39.837Z</time></trkpt><trkpt lat="45.8559074" lon="9.2694424"><ele>387.0</ele><time>2026-03-24T09:56:40.829Z</time></trkpt><trkpt lat="45.8560025" lon="9.2694628"><ele>387.6</ele><time>2026-03-24T09:56:41.832Z</time></trkpt><trkpt lat="45.8560911" lon="9.2694907"><ele>388.20000000000005</ele><time>2026-03-24T09:56:42.83Z</time></trkpt><trkpt lat="45.8561812" lon="9.2695191"><ele>388.8</ele><time>2026-03-24T09:56:43.838Z</time></trkpt><trkpt lat="45.8562802" lon="9.2695669"><ele>389.4</ele><time>2026-03-24T09:56:44.825Z</time></trkpt><trkpt lat="45.8563813" lon="9.2696249"><ele>390.0</ele><time>2026-03-24T09:56:45.827Z</time></trkpt><trkpt lat="45.8564829" lon="9.2696606"><ele>390.0</ele><time>2026-03-24T09:56:46.829Z</time></trkpt><trkpt lat="45.8565832" lon="9.269695"><ele>390.0</ele><time>2026-03-24T09:56:47.832Z</time></trkpt><trkpt lat="45.8566734" lon="9.2697284"><ele>390.0</ele><time>2026-03-24T09:56:48.826Z</time></trkpt><trkpt lat="45.8567568" lon="9.2697503"><ele>390.0</ele><time>2026-03-24T09:56:49.828Z</time></trkpt><trkpt lat="45.8568247" lon="9.2697485"><ele>390.0</ele><time>2026-03-24T09:56:50.831Z</time></trkpt><trkpt lat="45.8568995" lon="9.2697771"><ele>390.0</ele><time>2026-03-24T09:56:52.838Z</time></trkpt><trkpt lat="45.8569918" lon="9.2697954"><ele>390.6</ele><time>2026-03-24T09:56:54.836Z</time></trkpt><trkpt lat="45.8571275" lon="9.2697914"><ele>391.2</ele><time>2026-03-24T09:56:56.823Z</time></trkpt><trkpt lat="45.8572127" lon="9.2697757"><ele>391.79999999999995</ele><time>2026-03-24T09:56:57.828Z</time></trkpt><trkpt lat="45.8573178" lon="9.2697633"><ele>392.4</ele><time>2026-03-24T09:56:58.818Z</time></trkpt><trkpt lat="45.8574293" lon="9.2697295"><ele>393.0</ele><time>2026-03-24T09:56:59.828Z</time></trkpt><trkpt lat="45.8575593" lon="9.2697124"><ele>393.5</ele><time>2026-03-24T09:57:00.836Z</time></trkpt><trkpt lat="45.8576939" lon="9.2696963"><ele>394.0</ele><time>2026-03-24T09:57:01.826Z</time></trkpt><trkpt lat="45.8578344" lon="9.2696785"><ele>394.5</ele><time>2026-03-24T09:57:02.819Z</time></trkpt><trkpt lat="45.8579716" lon="9.2696649"><ele>395.0</ele><time>2026-03-24T09:57:03.822Z</time></trkpt><trkpt lat="45.858091" lon="9.2696634"><ele>395.0</ele><time>2026-03-24T09:57:04.821Z</time></trkpt><trkpt lat="45.8582401" lon="9.2696694"><ele>395.0</ele><time>2026-03-24T09:57:05.827Z</time></trkpt><trkpt lat="45.8583954" lon="9.2696873"><ele>395.0</ele><time>2026-03-24T09:57:06.824Z</time></trkpt><trkpt lat="45.8585915" lon="9.2697387"><ele>397.0</ele><time>2026-03-24T09:57:07.821Z</time></trkpt><trkpt lat="45.8587554" lon="9.2697567"><ele>399.0</ele><time>2026-03-24T09:57:08.817Z</time></trkpt><trkpt lat="45.8589119" lon="9.2697476"><ele>401.0</ele><time>2026-03-24T09:57:09.819Z</time></trkpt><trkpt lat="45.8590259" lon="9.2696492"><ele>401.0</ele><time>2026-03-24T09:57:10.822Z</time></trkpt><trkpt lat="45.8591798" lon="9.2695532"><ele>401.0</ele><time>2026-03-24T09:57:11.816Z</time></trkpt><trkpt lat="45.8593041" lon="9.2694412"><ele>401.0</ele><time>2026-03-24T09:57:12.814Z</time></trkpt><trkpt lat="45.8594339" lon="9.2693621"><ele>403.25</ele><time>2026-03-24T09:57:13.82Z</time></trkpt><trkpt lat="45.8595522" lon="9.2692733"><ele>405.5</ele><time>2026-03-24T09:57:14.815Z</time></trkpt><trkpt lat="45.8596626" lon="9.2691779"><ele>407.75</ele><time>2026-03-24T09:57:15.817Z</time></trkpt><trkpt lat="45.8597981" lon="9.2690838"><ele>410.0</ele><time>2026-03-24T09:57:16.818Z</time></trkpt><trkpt lat="45.8598702" lon="9.2689806"><ele>409.8</ele><time>2026-03-24T09:57:17.821Z</time></trkpt><trkpt lat="45.8599079" lon="9.2688734"><ele>409.6</ele><time>2026-03-24T09:57:18.821Z</time></trkpt><trkpt lat="45.8599558" lon="9.2687804"><ele>409.4</ele><time>2026-03-24T09:57:19.822Z</time></trkpt><trkpt lat="45.8600256" lon="9.268645"><ele>409.2</ele><time>2026-03-24T09:57:20.824Z</time></trkpt><trkpt lat="45.8601362" lon="9.268639"><ele>409.0</ele><time>2026-03-24T09:57:21.82Z</time></trkpt><trkpt lat="45.8602641" lon="9.2687517"><ele>409.4</ele><time>2026-03-24T09:57:23.82Z</time></trkpt><trkpt lat="45.8603125" lon="9.2688881"><ele>409.79999999999995</ele><time>2026-03-24T09:57:24.815Z</time></trkpt><trkpt lat="45.8603641" lon="9.2690355"><ele>410.20000000000005</ele><time>2026-03-24T09:57:25.822Z</time></trkpt><trkpt lat="45.8603942" lon="9.2691516"><ele>410.6</ele><time>2026-03-24T09:57:26.82Z</time></trkpt><trkpt lat="45.8604268" lon="9.2692688"><ele>411.0</ele><time>2026-03-24T09:57:27.824Z</time></trkpt><trkpt lat="45.8604487" lon="9.2694072"><ele>411.0</ele><time>2026-03-24T09:57:28.823Z</time></trkpt><trkpt lat="45.8604925" lon="9.2694888"><ele>411.0</ele><time>2026-03-24T09:57:29.819Z</time></trkpt><trkpt lat="45.8605561" lon="9.2695414"><ele>411.0</ele><time>2026-03-24T09:57:30.819Z</time></trkpt><trkpt lat="45.8606816" lon="9.2695161"><ele>411.0</ele><time>2026-03-24T09:57:31.821Z</time></trkpt><trkpt lat="45.8608215" lon="9.2694833"><ele>411.0</ele><time>2026-03-24T09:57:32.81Z</time></trkpt><trkpt lat="45.8609736" lon="9.2694758"><ele>411.6</ele><time>2026-03-24T09:57:33.82Z</time></trkpt><trkpt lat="45.8611022" lon="9.269516"><ele>412.20000000000005</ele><time>2026-03-24T09:57:34.815Z</time></trkpt><trkpt lat="45.8611989" lon="9.2695649"><ele>412.79999999999995</ele><time>2026-03-24T09:57:35.825Z</time></trkpt><trkpt lat="45.8613092" lon="9.2696117"><ele>413.4</ele><time>2026-03-24T09:57:36.818Z</time></trkpt><trkpt lat="45.8614042" lon="9.2696525"><ele>414.0</ele><time>2026-03-24T09:57:37.817Z</time></trkpt><trkpt lat="45.8614967" lon="9.2696891"><ele>414.0</ele><time>2026-03-24T09:57:38.821Z</time></trkpt><trkpt lat="45.8615717" lon="9.2697169"><ele>414.0</ele><time>2026-03-24T09:57:39.823Z</time></trkpt><trkpt lat="45.8616821" lon="9.2698393"><ele>414.0</ele><time>2026-03-24T09:57:41.827Z</time></trkpt><trkpt lat="45.8617155" lon="9.2699686"><ele>414.0</ele><time>2026-03-24T09:57:42.829Z</time></trkpt><trkpt lat="45.8617476" lon="9.2700927"><ele>414.0</ele><time>2026-03-24T09:57:43.824Z</time></trkpt><trkpt lat="45.8617688" lon="9.2702383"><ele>415.2</ele><time>2026-03-24T09:57:44.827Z</time></trkpt><trkpt lat="45.8617783" lon="9.2704041"><ele>416.4</ele><time>2026-03-24T09:57:45.817Z</time></trkpt><trkpt lat="45.8617779" lon="9.2705459"><ele>417.6</ele><time>2026-03-24T09:57:46.834Z</time></trkpt><trkpt lat="45.8617807" lon="9.2706967"><ele>418.8</ele><time>2026-03-24T09:57:47.83Z</time></trkpt><trkpt lat="45.8617739" lon="9.2708522"><ele>420.0</ele><time>2026-03-24T09:57:48.836Z</time></trkpt><trkpt lat="45.8617746" lon="9.2710066"><ele>421.5</ele><time>2026-03-24T09:57:49.837Z</time></trkpt><trkpt lat="45.8617882" lon="9.2711694"><ele>423.0</ele><time>2026-03-24T09:57:50.84Z</time></trkpt><trkpt lat="45.8618106" lon="9.2713541"><ele>424.5</ele><time>2026-03-24T09:57:51.841Z</time></trkpt><trkpt lat="45.8618369" lon="9.2715299"><ele>426.0</ele><time>2026-03-24T09:57:52.833Z</time></trkpt><trkpt lat="45.861853" lon="9.2717064"><ele>426.0</ele><time>2026-03-24T09:57:53.835Z</time></trkpt><trkpt lat="45.8618678" lon="9.2718908"><ele>426.0</ele><time>2026-03-24T09:57:54.836Z</time></trkpt><trkpt lat="45.861876" lon="9.2720823"><ele>426.0</ele><time>2026-03-24T09:57:55.838Z</time></trkpt><trkpt lat="45.8618915" lon="9.272257"><ele>426.0</ele><time>2026-03-24T09:57:56.836Z</time></trkpt><trkpt lat="45.8619035" lon="9.2724442"><ele>425.5</ele><time>2026-03-24T09:57:57.835Z</time></trkpt><trkpt lat="45.8619171" lon="9.2726251"><ele>425.0</ele><time>2026-03-24T09:57:58.832Z</time></trkpt><trkpt lat="45.8619273" lon="9.272819"><ele>424.5</ele><time>2026-03-24T09:57:59.831Z</time></trkpt><trkpt lat="45.861932" lon="9.2730223"><ele>424.0</ele><time>2026-03-24T09:58:00.824Z</time></trkpt><trkpt lat="45.8619504" lon="9.2731893"><ele>424.0</ele><time>2026-03-24T09:58:01.829Z</time></trkpt><trkpt lat="45.8619585" lon="9.273374"><ele>424.0</ele><time>2026-03-24T09:58:02.851Z</time></trkpt><trkpt lat="45.8619599" lon="9.2735661"><ele>424.0</ele><time>2026-03-24T09:58:03.836Z</time></trkpt><trkpt lat="45.8619434" lon="9.2737648"><ele>424.0</ele><time>2026-03-24T09:58:04.837Z</time></trkpt><trkpt lat="45.861924" lon="9.273979"><ele>425.25</ele><time>2026-03-24T09:58:05.836Z</time></trkpt><trkpt lat="45.8619173" lon="9.2741854"><ele>426.5</ele><time>2026-03-24T09:58:06.837Z</time></trkpt><trkpt lat="45.8619192" lon="9.2743945"><ele>427.75</ele><time>2026-03-24T09:58:07.835Z</time></trkpt><trkpt lat="45.8619152" lon="9.2746066"><ele>429.0</ele><time>2026-03-24T09:58:08.834Z</time></trkpt><trkpt lat="45.8619254" lon="9.2748007"><ele>429.75</ele><time>2026-03-24T09:58:09.842Z</time></trkpt><trkpt lat="45.8619482" lon="9.2749791"><ele>430.5</ele><time>2026-03-24T09:58:10.827Z</time></trkpt><trkpt lat="45.861967" lon="9.2751603"><ele>431.25</ele><time>2026-03-24T09:58:11.828Z</time></trkpt><trkpt lat="45.8619855" lon="9.2753269"><ele>432.0</ele><time>2026-03-24T09:58:12.829Z</time></trkpt><trkpt lat="45.8620374" lon="9.2754793"><ele>434.0</ele><time>2026-03-24T09:58:13.828Z</time></trkpt><trkpt lat="45.8621283" lon="9.2756191"><ele>436.0</ele><time>2026-03-24T09:58:14.827Z</time></trkpt><trkpt lat="45.8622379" lon="9.2757402"><ele>438.0</ele><time>2026-03-24T09:58:15.822Z</time></trkpt><trkpt lat="45.8624024" lon="9.2758078"><ele>440.0</ele><time>2026-03-24T09:58:16.828Z</time></trkpt><trkpt lat="45.8625804" lon="9.2758674"><ele>442.66666666666663</ele><time>2026-03-24T09:58:17.831Z</time></trkpt><trkpt lat="45.8627396" lon="9.2759411"><ele>445.33333333333337</ele><time>2026-03-24T09:58:18.823Z</time></trkpt><trkpt lat="45.8629024" lon="9.2759576"><ele>448.0</ele><time>2026-03-24T09:58:19.823Z</time></trkpt><trkpt lat="45.8630744" lon="9.2759549"><ele>448.0</ele><time>2026-03-24T09:58:20.819Z</time></trkpt><trkpt lat="45.8632497" lon="9.2759117"><ele>448.0</ele><time>2026-03-24T09:58:21.824Z</time></trkpt><trkpt lat="45.8633814" lon="9.2758666"><ele>448.0</ele><time>2026-03-24T09:58:22.823Z</time></trkpt><trkpt lat="45.8635273" lon="9.2757772"><ele>456.6666666666667</ele><time>2026-03-24T09:58:23.818Z</time></trkpt><trkpt lat="45.8637106" lon="9.2756605"><ele>465.33333333333337</ele><time>2026-03-24T09:58:24.82Z</time></trkpt><trkpt lat="45.863858" lon="9.2755068"><ele>474.0</ele><time>2026-03-24T09:58:25.826Z</time></trkpt><trkpt lat="45.8639482" lon="9.2753198"><ele>474.0</ele><time>2026-03-24T09:58:26.822Z</time></trkpt><trkpt lat="45.8640577" lon="9.2750737"><ele>474.0</ele><time>2026-03-24T09:58:27.823Z</time></trkpt><trkpt lat="45.8641091" lon="9.274822"><ele>474.0</ele><time>2026-03-24T09:58:28.825Z</time></trkpt><trkpt lat="45.8641093" lon="9.2745861"><ele>471.33333333333337</ele><time>2026-03-24T09:58:29.831Z</time></trkpt><trkpt lat="45.8641608" lon="9.2742942"><ele>468.6666666666667</ele><time>2026-03-24T09:58:30.83Z</time></trkpt><trkpt lat="45.8642183" lon="9.2739641"><ele>466.0</ele><time>2026-03-24T09:58:31.83Z</time></trkpt><trkpt lat="45.8642289" lon="9.273645"><ele>465.6666666666667</ele><time>2026-03-24T09:58:32.829Z</time></trkpt><trkpt lat="45.8642397" lon="9.2733583"><ele>465.33333333333337</ele><time>2026-03-24T09:58:33.845Z</time></trkpt><trkpt lat="45.8642732" lon="9.2730673"><ele>465.0</ele><time>2026-03-24T09:58:34.82Z</time></trkpt><trkpt lat="45.8643127" lon="9.2727518"><ele>475.33333333333337</ele><time>2026-03-24T09:58:35.819Z</time></trkpt><trkpt lat="45.8643895" lon="9.2725226"><ele>485.6666666666667</ele><time>2026-03-24T09:58:36.818Z</time></trkpt><trkpt lat="45.8644533" lon="9.2723112"><ele>496.0</ele><time>2026-03-24T09:58:37.82Z</time></trkpt><trkpt lat="45.8645299" lon="9.2720445"><ele>496.0</ele><time>2026-03-24T09:58:38.814Z</time></trkpt><trkpt lat="45.864596" lon="9.2717565"><ele>496.0</ele><time>2026-03-24T09:58:39.811Z</time></trkpt><trkpt lat="45.8646742" lon="9.2714783"><ele>496.0</ele><time>2026-03-24T09:58:40.818Z</time></trkpt><trkpt lat="45.8647708" lon="9.2712867"><ele>492.33333333333337</ele><time>2026-03-24T09:58:41.817Z</time></trkpt><trkpt lat="45.8648601" lon="9.2710867"><ele>488.66666666666663</ele><time>2026-03-24T09:58:42.812Z</time></trkpt><trkpt lat="45.864952" lon="9.2708516"><ele>485.0</ele><time>2026-03-24T09:58:43.806Z</time></trkpt><trkpt lat="45.8650263" lon="9.2706257"><ele>482.75</ele><time>2026-03-24T09:58:44.802Z</time></trkpt><trkpt lat="45.865041" lon="9.2704273"><ele>480.5</ele><time>2026-03-24T09:58:45.789Z</time></trkpt><trkpt lat="45.8650632" lon="9.2701782"><ele>478.25</ele><time>2026-03-24T09:58:46.778Z</time></trkpt><trkpt lat="45.8651775" lon="9.2700755"><ele>476.0</ele><time>2026-03-24T09:58:47.803Z</time></trkpt><trkpt lat="45.8652902" lon="9.2699406"><ele>481.66666666666663</ele><time>2026-03-24T09:58:48.817Z</time></trkpt><trkpt lat="45.8653739" lon="9.2697699"><ele>487.33333333333337</ele><time>2026-03-24T09:58:49.82Z</time></trkpt><trkpt lat="45.8654392" lon="9.2695244"><ele>493.0</ele><time>2026-03-24T09:58:50.825Z</time></trkpt><trkpt lat="45.8655086" lon="9.2693569"><ele>493.0</ele><time>2026-03-24T09:58:51.828Z</time></trkpt><trkpt lat="45.8655483" lon="9.2691867"><ele>493.0</ele><time>2026-03-24T09:58:52.83Z</time></trkpt><trkpt lat="45.8656113" lon="9.2690303"><ele>493.0</ele><time>2026-03-24T09:58:53.834Z</time></trkpt><trkpt lat="45.8656531" lon="9.2688938"><ele>493.0</ele><time>2026-03-24T09:58:54.838Z</time></trkpt><trkpt lat="45.8656903" lon="9.2687535"><ele>490.5</ele><time>2026-03-24T09:58:55.834Z</time></trkpt><trkpt lat="45.8656952" lon="9.2685427"><ele>488.0</ele><time>2026-03-24T09:58:56.839Z</time></trkpt><trkpt lat="45.8657176" lon="9.2683976"><ele>485.5</ele><time>2026-03-24T09:58:57.838Z</time></trkpt><trkpt lat="45.8657903" lon="9.2682074"><ele>483.0</ele><time>2026-03-24T09:58:58.829Z</time></trkpt><trkpt lat="45.8658767" lon="9.2679911"><ele>486.33333333333337</ele><time>2026-03-24T09:58:59.84Z</time></trkpt><trkpt lat="45.8659876" lon="9.2677895"><ele>489.6666666666667</ele><time>2026-03-24T09:59:00.836Z</time></trkpt><trkpt lat="45.8661293" lon="9.2675682"><ele>493.0</ele><time>2026-03-24T09:59:01.836Z</time></trkpt><trkpt lat="45.8662774" lon="9.2673634"><ele>490.6666666666667</ele><time>2026-03-24T09:59:02.83Z</time></trkpt><trkpt lat="45.8664036" lon="9.2671261"><ele>488.33333333333337</ele><time>2026-03-24T09:59:03.826Z</time></trkpt><trkpt lat="45.8665102" lon="9.2668427"><ele>486.0</ele><time>2026-03-24T09:59:04.85Z</time></trkpt><trkpt lat="45.8666366" lon="9.2665729"><ele>486.66666666666663</ele><time>2026-03-24T09:59:05.845Z</time></trkpt><trkpt lat="45.8667699" lon="9.2663334"><ele>487.3333333333333</ele><time>2026-03-24T09:59:06.835Z</time></trkpt><trkpt lat="45.8668697" lon="9.2661058"><ele>488.0</ele><time>2026-03-24T09:59:07.831Z</time></trkpt><trkpt lat="45.8669601" lon="9.2659294"><ele>488.0</ele><time>2026-03-24T09:59:08.828Z</time></trkpt><trkpt lat="45.8670789" lon="9.2657717"><ele>488.0</ele><time>2026-03-24T09:59:09.83Z</time></trkpt><trkpt lat="45.867224" lon="9.2656426"><ele>488.0</ele><time>2026-03-24T09:59:10.824Z</time></trkpt><trkpt lat="45.8673716" lon="9.2655562"><ele>486.0</ele><time>2026-03-24T09:59:11.83Z</time></trkpt><trkpt lat="45.8675188" lon="9.265504"><ele>484.0</ele><time>2026-03-24T09:59:12.831Z</time></trkpt><trkpt lat="45.8676645" lon="9.2654453"><ele>482.0</ele><time>2026-03-24T09:59:13.831Z</time></trkpt><trkpt lat="45.8678367" lon="9.2654228"><ele>482.0</ele><time>2026-03-24T09:59:14.835Z</time></trkpt><trkpt lat="45.8680174" lon="9.2653928"><ele>482.0</ele><time>2026-03-24T09:59:15.832Z</time></trkpt><trkpt lat="45.8681846" lon="9.2653418"><ele>482.0</ele><time>2026-03-24T09:59:16.832Z</time></trkpt><trkpt lat="45.8683234" lon="9.2653173"><ele>486.25</ele><time>2026-03-24T09:59:17.827Z</time></trkpt><trkpt lat="45.8684463" lon="9.2652871"><ele>490.5</ele><time>2026-03-24T09:59:18.825Z</time></trkpt><trkpt lat="45.8686011" lon="9.2652505"><ele>494.75</ele><time>2026-03-24T09:59:19.83Z</time></trkpt><trkpt lat="45.8687194" lon="9.265186"><ele>499.0</ele><time>2026-03-24T09:59:20.832Z</time></trkpt><trkpt lat="45.8688322" lon="9.2650803"><ele>499.0</ele><time>2026-03-24T09:59:21.829Z</time></trkpt><trkpt lat="45.8689053" lon="9.2649403"><ele>499.0</ele><time>2026-03-24T09:59:22.825Z</time></trkpt><trkpt lat="45.8689962" lon="9.2647498"><ele>499.0</ele><time>2026-03-24T09:59:23.835Z</time></trkpt><trkpt lat="45.8690474" lon="9.2645408"><ele>499.0</ele><time>2026-03-24T09:59:24.822Z</time></trkpt><trkpt lat="45.8691471" lon="9.2643155"><ele>500.33333333333337</ele><time>2026-03-24T09:59:25.837Z</time></trkpt><trkpt lat="45.8692568" lon="9.2641323"><ele>501.66666666666663</ele><time>2026-03-24T09:59:26.827Z</time></trkpt><trkpt lat="45.8693367" lon="9.2639622"><ele>503.0</ele><time>2026-03-24T09:59:27.829Z</time></trkpt><trkpt lat="45.8694002" lon="9.2637467"><ele>503.0</ele><time>2026-03-24T09:59:28.828Z</time></trkpt><trkpt lat="45.869446" lon="9.2635594"><ele>503.0</ele><time>2026-03-24T09:59:29.821Z</time></trkpt><trkpt lat="45.869468" lon="9.2633961"><ele>503.0</ele><time>2026-03-24T09:59:30.819Z</time></trkpt><trkpt lat="45.8694744" lon="9.2632706"><ele>503.0</ele><time>2026-03-24T09:59:31.824Z</time></trkpt><trkpt lat="45.8694684" lon="9.2630852"><ele>497.75</ele><time>2026-03-24T09:59:32.826Z</time></trkpt><trkpt lat="45.8695075" lon="9.2629247"><ele>492.5</ele><time>2026-03-24T09:59:33.822Z</time></trkpt><trkpt lat="45.8695773" lon="9.2627855"><ele>487.25</ele><time>2026-03-24T09:59:34.827Z</time></trkpt><trkpt lat="45.8696625" lon="9.2626451"><ele>482.0</ele><time>2026-03-24T09:59:35.828Z</time></trkpt><trkpt lat="45.8697525" lon="9.2625724"><ele>482.0</ele><time>2026-03-24T09:59:36.819Z</time></trkpt><trkpt lat="45.8698593" lon="9.2625524"><ele>482.0</ele><time>2026-03-24T09:59:37.822Z</time></trkpt><trkpt lat="45.8700344" lon="9.2625741"><ele>482.0</ele><time>2026-03-24T09:59:38.827Z</time></trkpt><trkpt lat="45.8702312" lon="9.2626268"><ele>484.66666666666663</ele><time>2026-03-24T09:59:39.829Z</time></trkpt><trkpt lat="45.8704525" lon="9.262696"><ele>487.33333333333337</ele><time>2026-03-24T09:59:40.82Z</time></trkpt><trkpt lat="45.8706583" lon="9.2627302"><ele>490.0</ele><time>2026-03-24T09:59:41.805Z</time></trkpt><trkpt lat="45.8708537" lon="9.2627199"><ele>494.6666666666667</ele><time>2026-03-24T09:59:42.807Z</time></trkpt><trkpt lat="45.8710012" lon="9.26265"><ele>499.33333333333337</ele><time>2026-03-24T09:59:43.807Z</time></trkpt><trkpt lat="45.8711479" lon="9.2625234"><ele>504.0</ele><time>2026-03-24T09:59:44.807Z</time></trkpt><trkpt lat="45.8712511" lon="9.262361"><ele>499.33333333333337</ele><time>2026-03-24T09:59:45.81Z</time></trkpt><trkpt lat="45.8713917" lon="9.2622217"><ele>494.6666666666667</ele><time>2026-03-24T09:59:46.812Z</time></trkpt><trkpt lat="45.8715523" lon="9.2620915"><ele>490.0</ele><time>2026-03-24T09:59:47.812Z</time></trkpt><trkpt lat="45.8717267" lon="9.2619447"><ele>496.6666666666667</ele><time>2026-03-24T09:59:48.814Z</time></trkpt><trkpt lat="45.8719032" lon="9.2617922"><ele>503.33333333333337</ele><time>2026-03-24T09:59:49.816Z</time></trkpt><trkpt lat="45.8720569" lon="9.2616205"><ele>510.0</ele><time>2026-03-24T09:59:50.813Z</time></trkpt><trkpt lat="45.872212" lon="9.2614947"><ele>507.33333333333337</ele><time>2026-03-24T09:59:51.813Z</time></trkpt><trkpt lat="45.8723362" lon="9.2613608"><ele>504.6666666666667</ele><time>2026-03-24T09:59:52.814Z</time></trkpt><trkpt lat="45.8724853" lon="9.2612445"><ele>502.0</ele><time>2026-03-24T09:59:53.813Z</time></trkpt><trkpt lat="45.8726161" lon="9.2611914"><ele>502.0</ele><time>2026-03-24T09:59:54.81Z</time></trkpt><trkpt lat="45.8727685" lon="9.2611272"><ele>502.0</ele><time>2026-03-24T09:59:55.789Z</time></trkpt><trkpt lat="45.8728784" lon="9.2610007"><ele>502.0</ele><time>2026-03-24T09:59:56.793Z</time></trkpt><trkpt lat="45.8729864" lon="9.2609272"><ele>502.0</ele><time>2026-03-24T09:59:57.787Z</time></trkpt><trkpt lat="45.8731063" lon="9.2609224"><ele>502.0</ele><time>2026-03-24T09:59:58.792Z</time></trkpt><trkpt lat="45.8732298" lon="9.2609045"><ele>502.0</ele><time>2026-03-24T09:59:59.788Z</time></trkpt><trkpt lat="45.8733871" lon="9.2609083"><ele>502.0</ele><time>2026-03-24T10:00:00.788Z</time></trkpt><trkpt lat="45.8735379" lon="9.2610091"><ele>502.0</ele><time>2026-03-24T10:00:01.784Z</time></trkpt><trkpt lat="45.8736637" lon="9.2611084"><ele>506.0</ele><time>2026-03-24T10:00:02.789Z</time></trkpt><trkpt lat="45.8738028" lon="9.2611843"><ele>510.0</ele><time>2026-03-24T10:00:03.788Z</time></trkpt><trkpt lat="45.8739326" lon="9.2612014"><ele>514.0</ele><time>2026-03-24T10:00:04.784Z</time></trkpt><trkpt lat="45.8741041" lon="9.2612022"><ele>514.0</ele><time>2026-03-24T10:00:05.787Z</time></trkpt><trkpt lat="45.8742565" lon="9.2611532"><ele>514.0</ele><time>2026-03-24T10:00:06.789Z</time></trkpt><trkpt lat="45.8743997" lon="9.2611111"><ele>514.0</ele><time>2026-03-24T10:00:07.787Z</time></trkpt><trkpt lat="45.8745512" lon="9.2609987"><ele>513.5</ele><time>2026-03-24T10:00:08.794Z</time></trkpt><trkpt lat="45.874695" lon="9.2609071"><ele>513.0</ele><time>2026-03-24T10:00:09.796Z</time></trkpt><trkpt lat="45.8748524" lon="9.2607823"><ele>512.5</ele><time>2026-03-24T10:00:10.792Z</time></trkpt><trkpt lat="45.8749301" lon="9.2607409"><ele>512.0</ele><time>2026-03-24T10:00:11.796Z</time></trkpt><trkpt lat="45.875022" lon="9.2607637"><ele>515.5</ele><time>2026-03-24T10:00:12.796Z</time></trkpt><trkpt lat="45.8751471" lon="9.2607284"><ele>519.0</ele><time>2026-03-24T10:00:13.795Z</time></trkpt><trkpt lat="45.8752401" lon="9.260862"><ele>522.5</ele><time>2026-03-24T10:00:14.802Z</time></trkpt><trkpt lat="45.8753773" lon="9.261022"><ele>526.0</ele><time>2026-03-24T10:00:15.801Z</time></trkpt><trkpt lat="45.8755506" lon="9.261149"><ele>526.0</ele><time>2026-03-24T10:00:16.799Z</time></trkpt><trkpt lat="45.875728" lon="9.2612763"><ele>526.0</ele><time>2026-03-24T10:00:17.797Z</time></trkpt><trkpt lat="45.8759078" lon="9.261407"><ele>526.0</ele><time>2026-03-24T10:00:18.793Z</time></trkpt><trkpt lat="45.8760268" lon="9.2614944"><ele>524.5</ele><time>2026-03-24T10:00:19.79Z</time></trkpt><trkpt lat="45.8761702" lon="9.2615774"><ele>523.0</ele><time>2026-03-24T10:00:20.797Z</time></trkpt><trkpt lat="45.8762959" lon="9.2616856"><ele>521.5</ele><time>2026-03-24T10:00:21.79Z</time></trkpt><trkpt lat="45.8764226" lon="9.2617534"><ele>520.0</ele><time>2026-03-24T10:00:22.795Z</time></trkpt><trkpt lat="45.8765446" lon="9.2618172"><ele>520.0</ele><time>2026-03-24T10:00:23.791Z</time></trkpt><trkpt lat="45.8766477" lon="9.261851"><ele>520.0</ele><time>2026-03-24T10:00:24.797Z</time></trkpt><trkpt lat="45.8767456" lon="9.2618583"><ele>520.0</ele><time>2026-03-24T10:00:25.793Z</time></trkpt><trkpt lat="45.8768449" lon="9.2618672"><ele>520.0</ele><time>2026-03-24T10:00:26.792Z</time></trkpt><trkpt lat="45.8769206" lon="9.2618741"><ele>520.0</ele><time>2026-03-24T10:00:27.794Z</time></trkpt><trkpt lat="45.8770019" lon="9.2618768"><ele>523.75</ele><time>2026-03-24T10:00:28.79Z</time></trkpt><trkpt lat="45.8771109" lon="9.261931"><ele>527.5</ele><time>2026-03-24T10:00:29.798Z</time></trkpt><trkpt lat="45.8772399" lon="9.2619911"><ele>531.25</ele><time>2026-03-24T10:00:30.793Z</time></trkpt><trkpt lat="45.8773724" lon="9.2620292"><ele>535.0</ele><time>2026-03-24T10:00:31.789Z</time></trkpt><trkpt lat="45.8775081" lon="9.2620658"><ele>538.3333333333334</ele><time>2026-03-24T10:00:32.796Z</time></trkpt><trkpt lat="45.8776631" lon="9.2620882"><ele>541.6666666666666</ele><time>2026-03-24T10:00:33.788Z</time></trkpt><trkpt lat="45.8778391" lon="9.2621395"><ele>545.0</ele><time>2026-03-24T10:00:34.795Z</time></trkpt><trkpt lat="45.8779811" lon="9.2621709"><ele>545.0</ele><time>2026-03-24T10:00:35.789Z</time></trkpt><trkpt lat="45.8781105" lon="9.2621965"><ele>545.0</ele><time>2026-03-24T10:00:36.785Z</time></trkpt><trkpt lat="45.8782245" lon="9.262184"><ele>545.0</ele><time>2026-03-24T10:00:37.797Z</time></trkpt><trkpt lat="45.8783509" lon="9.2621929"><ele>545.0</ele><time>2026-03-24T10:00:38.789Z</time></trkpt><trkpt lat="45.8784786" lon="9.2622352"><ele>548.75</ele><time>2026-03-24T10:00:39.789Z</time></trkpt><trkpt lat="45.878615" lon="9.2622508"><ele>552.5</ele><time>2026-03-24T10:00:40.796Z</time></trkpt><trkpt lat="45.8787532" lon="9.2622837"><ele>556.25</ele><time>2026-03-24T10:00:41.796Z</time></trkpt><trkpt lat="45.8788806" lon="9.2623172"><ele>560.0</ele><time>2026-03-24T10:00:42.795Z</time></trkpt><trkpt lat="45.8789819" lon="9.2623722"><ele>556.0</ele><time>2026-03-24T10:00:43.8Z</time></trkpt><trkpt lat="45.8790966" lon="9.2624348"><ele>552.0</ele><time>2026-03-24T10:00:44.798Z</time></trkpt><trkpt lat="45.879231" lon="9.2625134"><ele>548.0</ele><time>2026-03-24T10:00:45.795Z</time></trkpt><trkpt lat="45.8793812" lon="9.2625661"><ele>544.0</ele><time>2026-03-24T10:00:46.796Z</time></trkpt><trkpt lat="45.8795484" lon="9.2626392"><ele>544.0</ele><time>2026-03-24T10:00:47.794Z</time></trkpt><trkpt lat="45.8797172" lon="9.2626794"><ele>544.0</ele><time>2026-03-24T10:00:48.803Z</time></trkpt><trkpt lat="45.8798787" lon="9.2627044"><ele>544.0</ele><time>2026-03-24T10:00:49.798Z</time></trkpt><trkpt lat="45.8800306" lon="9.2627023"><ele>544.6</ele><time>2026-03-24T10:00:50.788Z</time></trkpt><trkpt lat="45.8801497" lon="9.2627072"><ele>545.2</ele><time>2026-03-24T10:00:51.797Z</time></trkpt><trkpt lat="45.8802847" lon="9.2627488"><ele>545.8000000000001</ele><time>2026-03-24T10:00:52.793Z</time></trkpt><trkpt lat="45.8803499" lon="9.2627554"><ele>546.4</ele><time>2026-03-24T10:00:53.795Z</time></trkpt><trkpt lat="45.8804266" lon="9.2627877"><ele>547.0</ele><time>2026-03-24T10:00:54.8Z</time></trkpt><trkpt lat="45.8805593" lon="9.2627936"><ele>547.0</ele><time>2026-03-24T10:00:56.799Z</time></trkpt><trkpt lat="45.8806537" lon="9.262828"><ele>547.0</ele><time>2026-03-24T10:00:57.8Z</time></trkpt><trkpt lat="45.8807484" lon="9.2628466"><ele>547.0</ele><time>2026-03-24T10:00:58.8Z</time></trkpt><trkpt lat="45.8808367" lon="9.2628773"><ele>547.0</ele><time>2026-03-24T10:00:59.794Z</time></trkpt><trkpt lat="45.8809247" lon="9.2629082"><ele>547.0</ele><time>2026-03-24T10:01:00.787Z</time></trkpt><trkpt lat="45.8810336" lon="9.2629518"><ele>547.0</ele><time>2026-03-24T10:01:01.793Z</time></trkpt><trkpt lat="45.8811466" lon="9.2629674"><ele>547.0</ele><time>2026-03-24T10:01:02.798Z</time></trkpt><trkpt lat="45.8812678" lon="9.2629871"><ele>547.0</ele><time>2026-03-24T10:01:03.788Z</time></trkpt><trkpt lat="45.8813813" lon="9.2630295"><ele>547.0</ele><time>2026-03-24T10:01:04.788Z</time></trkpt><trkpt lat="45.8814862" lon="9.2630717"><ele>547.0</ele><time>2026-03-24T10:01:05.794Z</time></trkpt><trkpt lat="45.8815829" lon="9.2630977"><ele>547.0</ele><time>2026-03-24T10:01:06.786Z</time></trkpt><trkpt lat="45.8817292" lon="9.2631365"><ele>547.0</ele><time>2026-03-24T10:01:07.791Z</time></trkpt><trkpt lat="45.8818853" lon="9.2631719"><ele>547.0</ele><time>2026-03-24T10:01:08.788Z</time></trkpt><trkpt lat="45.8821091" lon="9.2632047"><ele>542.5</ele><time>2026-03-24T10:01:09.79Z</time></trkpt><trkpt lat="45.882377" lon="9.2632834"><ele>538.0</ele><time>2026-03-24T10:01:10.79Z</time></trkpt><trkpt lat="45.8826377" lon="9.263402"><ele>538.0</ele><time>2026-03-24T10:01:11.795Z</time></trkpt><trkpt lat="45.8828608" lon="9.2634673"><ele>538.0</ele><time>2026-03-24T10:01:12.801Z</time></trkpt><trkpt lat="45.8830986" lon="9.2635447"><ele>538.0</ele><time>2026-03-24T10:01:13.793Z</time></trkpt><trkpt lat="45.8833564" lon="9.263615"><ele>538.0</ele><time>2026-03-24T10:01:14.789Z</time></trkpt><trkpt lat="45.8835822" lon="9.2636615"><ele>540.0</ele><time>2026-03-24T10:01:15.792Z</time></trkpt><trkpt lat="45.8837731" lon="9.2636971"><ele>542.0</ele><time>2026-03-24T10:01:16.796Z</time></trkpt><trkpt lat="45.8839594" lon="9.2637708"><ele>544.0</ele><time>2026-03-24T10:01:17.787Z</time></trkpt><trkpt lat="45.8841502" lon="9.2638476"><ele>544.3333333333334</ele><time>2026-03-24T10:01:18.793Z</time></trkpt><trkpt lat="45.8843336" lon="9.263908"><ele>544.6666666666666</ele><time>2026-03-24T10:01:19.794Z</time></trkpt><trkpt lat="45.8845067" lon="9.2639556"><ele>545.0</ele><time>2026-03-24T10:01:20.796Z</time></trkpt><trkpt lat="45.8846438" lon="9.2639512"><ele>545.0</ele><time>2026-03-24T10:01:21.796Z</time></trkpt><trkpt lat="45.8847604" lon="9.2638883"><ele>545.0</ele><time>2026-03-24T10:01:22.796Z</time></trkpt><trkpt lat="45.8848659" lon="9.2638147"><ele>545.0</ele><time>2026-03-24T10:01:23.792Z</time></trkpt><trkpt lat="45.8849241" lon="9.2636944"><ele>545.0</ele><time>2026-03-24T10:01:24.788Z</time></trkpt><trkpt lat="45.8849658" lon="9.2635223"><ele>545.0</ele><time>2026-03-24T10:01:25.795Z</time></trkpt><trkpt lat="45.8850172" lon="9.2632779"><ele>545.0</ele><time>2026-03-24T10:01:26.796Z</time></trkpt><trkpt lat="45.8850623" lon="9.2630241"><ele>545.0</ele><time>2026-03-24T10:01:27.801Z</time></trkpt><trkpt lat="45.8851705" lon="9.2628322"><ele>545.6666666666666</ele><time>2026-03-24T10:01:28.796Z</time></trkpt><trkpt lat="45.8853047" lon="9.2626258"><ele>546.3333333333334</ele><time>2026-03-24T10:01:29.793Z</time></trkpt><trkpt lat="45.8854576" lon="9.2624721"><ele>547.0</ele><time>2026-03-24T10:01:30.787Z</time></trkpt><trkpt lat="45.8856619" lon="9.2623662"><ele>546.5</ele><time>2026-03-24T10:01:31.791Z</time></trkpt><trkpt lat="45.8858801" lon="9.262212"><ele>546.0</ele><time>2026-03-24T10:01:32.799Z</time></trkpt><trkpt lat="45.8860947" lon="9.2620489"><ele>546.0</ele><time>2026-03-24T10:01:33.796Z</time></trkpt><trkpt lat="45.8863453" lon="9.2619444"><ele>546.0</ele><time>2026-03-24T10:01:34.792Z</time></trkpt><trkpt lat="45.8865971" lon="9.2618162"><ele>549.5</ele><time>2026-03-24T10:01:35.793Z</time></trkpt><trkpt lat="45.8868636" lon="9.2616633"><ele>553.0</ele><time>2026-03-24T10:01:36.791Z</time></trkpt><trkpt lat="45.887159" lon="9.2615295"><ele>554.0</ele><time>2026-03-24T10:01:37.796Z</time></trkpt><trkpt lat="45.8874488" lon="9.2613606"><ele>555.0</ele><time>2026-03-24T10:01:38.796Z</time></trkpt><trkpt lat="45.8877003" lon="9.2612457"><ele>556.5</ele><time>2026-03-24T10:01:39.795Z</time></trkpt><trkpt lat="45.8879442" lon="9.2611295"><ele>558.0</ele><time>2026-03-24T10:01:40.794Z</time></trkpt><trkpt lat="45.8881475" lon="9.2610491"><ele>558.0</ele><time>2026-03-24T10:01:41.79Z</time></trkpt><trkpt lat="45.8883352" lon="9.2609603"><ele>558.0</ele><time>2026-03-24T10:01:42.796Z</time></trkpt><trkpt lat="45.8885307" lon="9.2608512"><ele>558.0</ele><time>2026-03-24T10:01:43.792Z</time></trkpt><trkpt lat="45.888754" lon="9.2607536"><ele>558.5</ele><time>2026-03-24T10:01:44.798Z</time></trkpt><trkpt lat="45.8889729" lon="9.2606996"><ele>559.0</ele><time>2026-03-24T10:01:45.792Z</time></trkpt><trkpt lat="45.8892045" lon="9.2606225"><ele>561.3333333333334</ele><time>2026-03-24T10:01:46.798Z</time></trkpt><trkpt lat="45.8894175" lon="9.2605662"><ele>563.6666666666666</ele><time>2026-03-24T10:01:47.791Z</time></trkpt><trkpt lat="45.8895937" lon="9.260506"><ele>566.0</ele><time>2026-03-24T10:01:48.792Z</time></trkpt><trkpt lat="45.88981" lon="9.260478"><ele>566.0</ele><time>2026-03-24T10:01:49.792Z</time></trkpt><trkpt lat="45.8900142" lon="9.2604993"><ele>566.0</ele><time>2026-03-24T10:01:50.79Z</time></trkpt><trkpt lat="45.8902519" lon="9.2605131"><ele>566.0</ele><time>2026-03-24T10:01:51.792Z</time></trkpt><trkpt lat="45.890498" lon="9.260505"><ele>568.0</ele><time>2026-03-24T10:01:52.792Z</time></trkpt><trkpt lat="45.8907259" lon="9.2605088"><ele>570.0</ele><time>2026-03-24T10:01:53.79Z</time></trkpt><trkpt lat="45.8909659" lon="9.2605155"><ele>572.3333333333334</ele><time>2026-03-24T10:01:54.79Z</time></trkpt><trkpt lat="45.8911636" lon="9.2605361"><ele>574.6666666666667</ele><time>2026-03-24T10:01:55.787Z</time></trkpt><trkpt lat="45.8914086" lon="9.2605357"><ele>577.0</ele><time>2026-03-24T10:01:56.794Z</time></trkpt><trkpt lat="45.8916282" lon="9.2606215"><ele>576.0</ele><time>2026-03-24T10:01:57.791Z</time></trkpt><trkpt lat="45.891878" lon="9.2607204"><ele>575.0</ele><time>2026-03-24T10:01:58.793Z</time></trkpt><trkpt lat="45.8921424" lon="9.2608509"><ele>575.0</ele><time>2026-03-24T10:01:59.793Z</time></trkpt><trkpt lat="45.8924053" lon="9.2609835"><ele>575.0</ele><time>2026-03-24T10:02:00.791Z</time></trkpt><trkpt lat="45.8926431" lon="9.2611049"><ele>578.3333333333333</ele><time>2026-03-24T10:02:01.79Z</time></trkpt><trkpt lat="45.8928516" lon="9.2611772"><ele>581.6666666666666</ele><time>2026-03-24T10:02:02.791Z</time></trkpt><trkpt lat="45.8930415" lon="9.261251"><ele>585.0</ele><time>2026-03-24T10:02:03.789Z</time></trkpt><trkpt lat="45.8932147" lon="9.2613151"><ele>585.0</ele><time>2026-03-24T10:02:04.788Z</time></trkpt><trkpt lat="45.8933747" lon="9.2613501"><ele>585.0</ele><time>2026-03-24T10:02:05.791Z</time></trkpt><trkpt lat="45.8935672" lon="9.261391"><ele>585.0</ele><time>2026-03-24T10:02:06.794Z</time></trkpt><trkpt lat="45.8937858" lon="9.2613967"><ele>586.0</ele><time>2026-03-24T10:02:07.791Z</time></trkpt><trkpt lat="45.8939795" lon="9.2613931"><ele>587.0</ele><time>2026-03-24T10:02:08.79Z</time></trkpt><trkpt lat="45.8942021" lon="9.2614276"><ele>588.0</ele><time>2026-03-24T10:02:09.794Z</time></trkpt><trkpt lat="45.894449" lon="9.2614541"><ele>588.0</ele><time>2026-03-24T10:02:10.791Z</time></trkpt><trkpt lat="45.8947132" lon="9.2615085"><ele>588.0</ele><time>2026-03-24T10:02:11.792Z</time></trkpt><trkpt lat="45.8949556" lon="9.261538"><ele>593.3333333333334</ele><time>2026-03-24T10:02:12.79Z</time></trkpt><trkpt lat="45.8951573" lon="9.2615922"><ele>598.6666666666667</ele><time>2026-03-24T10:02:13.79Z</time></trkpt><trkpt lat="45.8953471" lon="9.2616978"><ele>604.0</ele><time>2026-03-24T10:02:14.786Z</time></trkpt><trkpt lat="45.8955619" lon="9.2618439"><ele>604.0</ele><time>2026-03-24T10:02:15.79Z</time></trkpt><trkpt lat="45.895743" lon="9.2619422"><ele>604.0</ele><time>2026-03-24T10:02:16.792Z</time></trkpt><trkpt lat="45.8959067" lon="9.2620624"><ele>604.0</ele><time>2026-03-24T10:02:17.795Z</time></trkpt><trkpt lat="45.896075" lon="9.2621983"><ele>603.0</ele><time>2026-03-24T10:02:18.79Z</time></trkpt><trkpt lat="45.8962143" lon="9.2623313"><ele>602.0</ele><time>2026-03-24T10:02:19.79Z</time></trkpt><trkpt lat="45.8963434" lon="9.262476"><ele>601.0</ele><time>2026-03-24T10:02:20.794Z</time></trkpt><trkpt lat="45.8965062" lon="9.2625745"><ele>601.0</ele><time>2026-03-24T10:02:21.791Z</time></trkpt><trkpt lat="45.8966842" lon="9.2626366"><ele>601.0</ele><time>2026-03-24T10:02:22.789Z</time></trkpt><trkpt lat="45.8968732" lon="9.2627031"><ele>601.0</ele><time>2026-03-24T10:02:23.79Z</time></trkpt><trkpt lat="45.8971203" lon="9.2628101"><ele>598.5</ele><time>2026-03-24T10:02:24.789Z</time></trkpt><trkpt lat="45.897356" lon="9.2629847"><ele>596.0</ele><time>2026-03-24T10:02:25.794Z</time></trkpt><trkpt lat="45.8975802" lon="9.2631503"><ele>598.6666666666666</ele><time>2026-03-24T10:02:26.797Z</time></trkpt><trkpt lat="45.8977879" lon="9.2632945"><ele>601.3333333333334</ele><time>2026-03-24T10:02:27.783Z</time></trkpt><trkpt lat="45.8979883" lon="9.2633832"><ele>604.0</ele><time>2026-03-24T10:02:28.789Z</time></trkpt><trkpt lat="45.898231" lon="9.263484"><ele>602.3333333333334</ele><time>2026-03-24T10:02:29.789Z</time></trkpt><trkpt lat="45.8984211" lon="9.2635997"><ele>600.6666666666666</ele><time>2026-03-24T10:02:30.786Z</time></trkpt><trkpt lat="45.8986008" lon="9.2637823"><ele>599.0</ele><time>2026-03-24T10:02:31.789Z</time></trkpt><trkpt lat="45.8987842" lon="9.2639642"><ele>599.0</ele><time>2026-03-24T10:02:32.788Z</time></trkpt><trkpt lat="45.8989399" lon="9.2641081"><ele>599.0</ele><time>2026-03-24T10:02:33.781Z</time></trkpt><trkpt lat="45.8991063" lon="9.2642236"><ele>599.0</ele><time>2026-03-24T10:02:34.78Z</time></trkpt><trkpt lat="45.8992878" lon="9.2642944"><ele>601.0</ele><time>2026-03-24T10:02:35.783Z</time></trkpt><trkpt lat="45.8994393" lon="9.2643096"><ele>603.0</ele><time>2026-03-24T10:02:36.78Z</time></trkpt><trkpt lat="45.8996467" lon="9.2642884"><ele>605.0</ele><time>2026-03-24T10:02:37.783Z</time></trkpt><trkpt lat="45.8998748" lon="9.2642164"><ele>605.0</ele><time>2026-03-24T10:02:38.787Z</time></trkpt><trkpt lat="45.9001014" lon="9.2641472"><ele>605.0</ele><time>2026-03-24T10:02:39.786Z</time></trkpt><trkpt lat="45.9003331" lon="9.2641018"><ele>605.0</ele><time>2026-03-24T10:02:40.785Z</time></trkpt><trkpt lat="45.9005641" lon="9.2640828"><ele>605.0</ele><time>2026-03-24T10:02:41.792Z</time></trkpt><trkpt lat="45.9007002" lon="9.2640345"><ele>605.0</ele><time>2026-03-24T10:02:42.795Z</time></trkpt><trkpt lat="45.9008714" lon="9.2640105"><ele>607.75</ele><time>2026-03-24T10:02:43.788Z</time></trkpt><trkpt lat="45.9009948" lon="9.2640333"><ele>610.5</ele><time>2026-03-24T10:02:44.789Z</time></trkpt><trkpt lat="45.9011344" lon="9.2641186"><ele>613.25</ele><time>2026-03-24T10:02:45.787Z</time></trkpt><trkpt lat="45.9012481" lon="9.2642341"><ele>616.0</ele><time>2026-03-24T10:02:46.788Z</time></trkpt><trkpt lat="45.9014001" lon="9.2643773"><ele>616.0</ele><time>2026-03-24T10:02:47.787Z</time></trkpt><trkpt lat="45.9015683" lon="9.2645404"><ele>616.0</ele><time>2026-03-24T10:02:48.791Z</time></trkpt><trkpt lat="45.9017288" lon="9.2647104"><ele>616.0</ele><time>2026-03-24T10:02:49.786Z</time></trkpt><trkpt lat="45.9018979" lon="9.264858"><ele>616.3333333333334</ele><time>2026-03-24T10:02:50.786Z</time></trkpt><trkpt lat="45.9020427" lon="9.2650241"><ele>616.6666666666666</ele><time>2026-03-24T10:02:51.786Z</time></trkpt><trkpt lat="45.9021662" lon="9.2651632"><ele>617.0</ele><time>2026-03-24T10:02:52.786Z</time></trkpt><trkpt lat="45.9023127" lon="9.265278"><ele>617.0</ele><time>2026-03-24T10:02:53.785Z</time></trkpt><trkpt lat="45.9024741" lon="9.2653714"><ele>617.0</ele><time>2026-03-24T10:02:54.786Z</time></trkpt><trkpt lat="45.9026507" lon="9.2654357"><ele>617.0</ele><time>2026-03-24T10:02:55.783Z</time></trkpt><trkpt lat="45.9028425" lon="9.2655076"><ele>616.6666666666666</ele><time>2026-03-24T10:02:56.784Z</time></trkpt><trkpt lat="45.9030027" lon="9.2655706"><ele>616.3333333333334</ele><time>2026-03-24T10:02:57.783Z</time></trkpt><trkpt lat="45.9031759" lon="9.2656608"><ele>616.0</ele><time>2026-03-24T10:02:58.784Z</time></trkpt><trkpt lat="45.903386" lon="9.265746"><ele>616.3333333333334</ele><time>2026-03-24T10:02:59.782Z</time></trkpt><trkpt lat="45.903565" lon="9.2657741"><ele>616.6666666666666</ele><time>2026-03-24T10:03:00.783Z</time></trkpt><trkpt lat="45.9037222" lon="9.2658899"><ele>617.0</ele><time>2026-03-24T10:03:01.786Z</time></trkpt><trkpt lat="45.9038646" lon="9.2660479"><ele>617.0</ele><time>2026-03-24T10:03:02.781Z</time></trkpt><trkpt lat="45.9039947" lon="9.2662192"><ele>617.0</ele><time>2026-03-24T10:03:03.783Z</time></trkpt><trkpt lat="45.904127" lon="9.266356"><ele>617.0</ele><time>2026-03-24T10:03:04.789Z</time></trkpt><trkpt lat="45.9042804" lon="9.2664933"><ele>615.0</ele><time>2026-03-24T10:03:05.786Z</time></trkpt><trkpt lat="45.9044199" lon="9.2666106"><ele>613.0</ele><time>2026-03-24T10:03:06.787Z</time></trkpt><trkpt lat="45.9045412" lon="9.2666249"><ele>611.0</ele><time>2026-03-24T10:03:07.785Z</time></trkpt><trkpt lat="45.9046721" lon="9.2665892"><ele>609.0</ele><time>2026-03-24T10:03:08.783Z</time></trkpt><trkpt lat="45.9048654" lon="9.266585"><ele>609.6666666666666</ele><time>2026-03-24T10:03:09.786Z</time></trkpt><trkpt lat="45.9050225" lon="9.2664441"><ele>610.3333333333333</ele><time>2026-03-24T10:03:10.784Z</time></trkpt><trkpt lat="45.9051672" lon="9.2662583"><ele>611.0</ele><time>2026-03-24T10:03:11.786Z</time></trkpt><trkpt lat="45.9053622" lon="9.2660829"><ele>612.0</ele><time>2026-03-24T10:03:12.787Z</time></trkpt><trkpt lat="45.9055345" lon="9.2659488"><ele>613.0</ele><time>2026-03-24T10:03:13.786Z</time></trkpt><trkpt lat="45.9057034" lon="9.2658207"><ele>614.0</ele><time>2026-03-24T10:03:14.784Z</time></trkpt><trkpt lat="45.9059159" lon="9.2657082"><ele>615.6666666666666</ele><time>2026-03-24T10:03:15.786Z</time></trkpt><trkpt lat="45.9060728" lon="9.2655821"><ele>617.3333333333334</ele><time>2026-03-24T10:03:16.786Z</time></trkpt><trkpt lat="45.9061751" lon="9.2654526"><ele>619.0</ele><time>2026-03-24T10:03:17.789Z</time></trkpt><trkpt lat="45.9062884" lon="9.2652949"><ele>619.0</ele><time>2026-03-24T10:03:18.79Z</time></trkpt><trkpt lat="45.9064082" lon="9.265184"><ele>619.0</ele><time>2026-03-24T10:03:19.791Z</time></trkpt><trkpt lat="45.9065425" lon="9.2650794"><ele>619.0</ele><time>2026-03-24T10:03:20.787Z</time></trkpt><trkpt lat="45.9066493" lon="9.2649397"><ele>619.0</ele><time>2026-03-24T10:03:21.792Z</time></trkpt><trkpt lat="45.9067529" lon="9.2648144"><ele>622.0</ele><time>2026-03-24T10:03:22.791Z</time></trkpt><trkpt lat="45.9068933" lon="9.264667"><ele>625.0</ele><time>2026-03-24T10:03:23.789Z</time></trkpt><trkpt lat="45.9070588" lon="9.2644835"><ele>628.0</ele><time>2026-03-24T10:03:24.791Z</time></trkpt><trkpt lat="45.9072385" lon="9.2642881"><ele>628.0</ele><time>2026-03-24T10:03:25.789Z</time></trkpt><trkpt lat="45.9074351" lon="9.2640859"><ele>628.0</ele><time>2026-03-24T10:03:26.792Z</time></trkpt><trkpt lat="45.9076243" lon="9.2638856"><ele>642.5</ele><time>2026-03-24T10:03:27.788Z</time></trkpt><trkpt lat="45.9078491" lon="9.2637178"><ele>657.0</ele><time>2026-03-24T10:03:28.79Z</time></trkpt><trkpt lat="45.9080807" lon="9.2635598"><ele>657.0</ele><time>2026-03-24T10:03:29.789Z</time></trkpt><trkpt lat="45.9083054" lon="9.2634288"><ele>657.0</ele><time>2026-03-24T10:03:30.789Z</time></trkpt><trkpt lat="45.9085566" lon="9.2633077"><ele>648.0</ele><time>2026-03-24T10:03:31.788Z</time></trkpt><trkpt lat="45.9088112" lon="9.2631745"><ele>639.0</ele><time>2026-03-24T10:03:32.789Z</time></trkpt><trkpt lat="45.9090303" lon="9.2630453"><ele>651.0</ele><time>2026-03-24T10:03:33.787Z</time></trkpt><trkpt lat="45.9092551" lon="9.2629429"><ele>663.0</ele><time>2026-03-24T10:03:34.788Z</time></trkpt><trkpt lat="45.909454" lon="9.2628565"><ele>675.0</ele><time>2026-03-24T10:03:35.788Z</time></trkpt><trkpt lat="45.9096399" lon="9.2628026"><ele>675.0</ele><time>2026-03-24T10:03:36.788Z</time></trkpt><trkpt lat="45.9098265" lon="9.2627274"><ele>675.0</ele><time>2026-03-24T10:03:37.789Z</time></trkpt><trkpt lat="45.909973" lon="9.2626833"><ele>675.0</ele><time>2026-03-24T10:03:38.794Z</time></trkpt><trkpt lat="45.9101105" lon="9.2625785"><ele>676.3333333333334</ele><time>2026-03-24T10:03:39.789Z</time></trkpt><trkpt lat="45.9102771" lon="9.2625059"><ele>677.6666666666667</ele><time>2026-03-24T10:03:40.785Z</time></trkpt><trkpt lat="45.910454" lon="9.2625052"><ele>679.0</ele><time>2026-03-24T10:03:41.787Z</time></trkpt><trkpt lat="45.910699" lon="9.2625637"><ele>678.6666666666667</ele><time>2026-03-24T10:03:42.784Z</time></trkpt><trkpt lat="45.9109177" lon="9.2626143"><ele>678.3333333333334</ele><time>2026-03-24T10:03:43.787Z</time></trkpt><trkpt lat="45.9111366" lon="9.2626196"><ele>678.0</ele><time>2026-03-24T10:03:44.789Z</time></trkpt><trkpt lat="45.9112942" lon="9.2626372"><ele>678.0</ele><time>2026-03-24T10:03:45.789Z</time></trkpt><trkpt lat="45.911443" lon="9.2626097"><ele>678.0</ele><time>2026-03-24T10:03:46.786Z</time></trkpt><trkpt lat="45.9115815" lon="9.2625316"><ele>678.0</ele><time>2026-03-24T10:03:47.788Z</time></trkpt><trkpt lat="45.9116865" lon="9.2624497"><ele>678.0</ele><time>2026-03-24T10:03:48.783Z</time></trkpt><trkpt lat="45.911814" lon="9.2623357"><ele>679.6666666666666</ele><time>2026-03-24T10:03:49.789Z</time></trkpt><trkpt lat="45.9119484" lon="9.2622002"><ele>681.3333333333333</ele><time>2026-03-24T10:03:50.788Z</time></trkpt><trkpt lat="45.912082" lon="9.26199"><ele>683.0</ele><time>2026-03-24T10:03:51.794Z</time></trkpt><trkpt lat="45.9121569" lon="9.2617241"><ele>688.6666666666666</ele><time>2026-03-24T10:03:52.789Z</time></trkpt><trkpt lat="45.9122061" lon="9.2614271"><ele>694.3333333333334</ele><time>2026-03-24T10:03:53.786Z</time></trkpt><trkpt lat="45.9122564" lon="9.2611085"><ele>700.0</ele><time>2026-03-24T10:03:54.789Z</time></trkpt><trkpt lat="45.9123394" lon="9.2608148"><ele>698.6666666666667</ele><time>2026-03-24T10:03:55.787Z</time></trkpt><trkpt lat="45.9124678" lon="9.2605481"><ele>697.3333333333334</ele><time>2026-03-24T10:03:56.782Z</time></trkpt><trkpt lat="45.9126276" lon="9.2604146"><ele>696.0</ele><time>2026-03-24T10:03:57.784Z</time></trkpt><trkpt lat="45.9127628" lon="9.2602582"><ele>696.0</ele><time>2026-03-24T10:03:58.785Z</time></trkpt><trkpt lat="45.912897" lon="9.260141"><ele>696.0</ele><time>2026-03-24T10:03:59.785Z</time></trkpt><trkpt lat="45.9130534" lon="9.260054"><ele>696.0</ele><time>2026-03-24T10:04:00.788Z</time></trkpt><trkpt lat="45.9132139" lon="9.2599961"><ele>696.0</ele><time>2026-03-24T10:04:01.787Z</time></trkpt><trkpt lat="45.9133582" lon="9.2599272"><ele>696.0</ele><time>2026-03-24T10:04:02.787Z</time></trkpt><trkpt lat="45.9135138" lon="9.2598647"><ele>696.0</ele><time>2026-03-24T10:04:03.788Z</time></trkpt><trkpt lat="45.9136643" lon="9.2598217"><ele>698.6666666666666</ele><time>2026-03-24T10:04:04.788Z</time></trkpt><trkpt lat="45.9137953" lon="9.2598052"><ele>701.3333333333333</ele><time>2026-03-24T10:04:05.791Z</time></trkpt><trkpt lat="45.913958" lon="9.2598274"><ele>704.0</ele><time>2026-03-24T10:04:06.788Z</time></trkpt><trkpt lat="45.9141108" lon="9.259903"><ele>709.0</ele><time>2026-03-24T10:04:07.792Z</time></trkpt><trkpt lat="45.9142894" lon="9.2600662"><ele>714.0</ele><time>2026-03-24T10:04:08.796Z</time></trkpt><trkpt lat="45.9144458" lon="9.2601699"><ele>719.0</ele><time>2026-03-24T10:04:09.794Z</time></trkpt><trkpt lat="45.9146065" lon="9.2602347"><ele>719.0</ele><time>2026-03-24T10:04:10.792Z</time></trkpt><trkpt lat="45.9148153" lon="9.2602883"><ele>719.0</ele><time>2026-03-24T10:04:11.79Z</time></trkpt><trkpt lat="45.9150233" lon="9.2603258"><ele>719.0</ele><time>2026-03-24T10:04:12.795Z</time></trkpt><trkpt lat="45.9152524" lon="9.2603245"><ele>723.0</ele><time>2026-03-24T10:04:13.796Z</time></trkpt><trkpt lat="45.915465" lon="9.2603351"><ele>727.0</ele><time>2026-03-24T10:04:14.791Z</time></trkpt><trkpt lat="45.9156703" lon="9.2603515"><ele>731.0</ele><time>2026-03-24T10:04:15.796Z</time></trkpt><trkpt lat="45.9158826" lon="9.2603902"><ele>736.0</ele><time>2026-03-24T10:04:16.796Z</time></trkpt><trkpt lat="45.9160604" lon="9.2604005"><ele>741.0</ele><time>2026-03-24T10:04:17.79Z</time></trkpt><trkpt lat="45.9162439" lon="9.2604392"><ele>746.0</ele><time>2026-03-24T10:04:18.795Z</time></trkpt><trkpt lat="45.9164219" lon="9.2605795"><ele>744.6666666666666</ele><time>2026-03-24T10:04:19.796Z</time></trkpt><trkpt lat="45.916593" lon="9.2607558"><ele>743.3333333333334</ele><time>2026-03-24T10:04:20.792Z</time></trkpt><trkpt lat="45.9167819" lon="9.2609021"><ele>742.0</ele><time>2026-03-24T10:04:21.797Z</time></trkpt><trkpt lat="45.9169666" lon="9.2610254"><ele>742.0</ele><time>2026-03-24T10:04:22.796Z</time></trkpt><trkpt lat="45.9171487" lon="9.2610947"><ele>742.0</ele><time>2026-03-24T10:04:23.793Z</time></trkpt><trkpt lat="45.9173366" lon="9.2611591"><ele>742.0</ele><time>2026-03-24T10:04:24.791Z</time></trkpt><trkpt lat="45.9175618" lon="9.2611832"><ele>745.0</ele><time>2026-03-24T10:04:25.788Z</time></trkpt><trkpt lat="45.9178236" lon="9.261237"><ele>748.0</ele><time>2026-03-24T10:04:26.796Z</time></trkpt><trkpt lat="45.918061" lon="9.2612904"><ele>748.0</ele><time>2026-03-24T10:04:27.797Z</time></trkpt><trkpt lat="45.9182678" lon="9.2613462"><ele>748.0</ele><time>2026-03-24T10:04:28.79Z</time></trkpt><trkpt lat="45.9184309" lon="9.2614079"><ele>748.0</ele><time>2026-03-24T10:04:29.795Z</time></trkpt><trkpt lat="45.9185949" lon="9.2614391"><ele>745.6666666666667</ele><time>2026-03-24T10:04:30.791Z</time></trkpt><trkpt lat="45.918762" lon="9.261465"><ele>743.3333333333334</ele><time>2026-03-24T10:04:31.794Z</time></trkpt><trkpt lat="45.9189101" lon="9.2614918"><ele>741.0</ele><time>2026-03-24T10:04:32.791Z</time></trkpt><trkpt lat="45.9190571" lon="9.2615229"><ele>741.0</ele><time>2026-03-24T10:04:33.791Z</time></trkpt><trkpt lat="45.9191971" lon="9.261535"><ele>741.0</ele><time>2026-03-24T10:04:34.79Z</time></trkpt><trkpt lat="45.9193178" lon="9.2615577"><ele>741.0</ele><time>2026-03-24T10:04:35.799Z</time></trkpt><trkpt lat="45.9194637" lon="9.2615546"><ele>741.0</ele><time>2026-03-24T10:04:36.793Z</time></trkpt><trkpt lat="45.9196184" lon="9.2615854"><ele>742.0</ele><time>2026-03-24T10:04:37.786Z</time></trkpt><trkpt lat="45.9197609" lon="9.2615678"><ele>743.0</ele><time>2026-03-24T10:04:38.792Z</time></trkpt><trkpt lat="45.9199546" lon="9.2615837"><ele>744.0</ele><time>2026-03-24T10:04:39.785Z</time></trkpt><trkpt lat="45.9201318" lon="9.2615605"><ele>747.0</ele><time>2026-03-24T10:04:41.023Z</time></trkpt><trkpt lat="45.9204083" lon="9.2614969"><ele>750.0</ele><time>2026-03-24T10:04:42.832Z</time></trkpt><trkpt lat="45.9205516" lon="9.2614989"><ele>753.0</ele><time>2026-03-24T10:04:43.831Z</time></trkpt><trkpt lat="45.9206769" lon="9.261535"><ele>753.0</ele><time>2026-03-24T10:04:44.826Z</time></trkpt><trkpt lat="45.9207844" lon="9.2616444"><ele>753.0</ele><time>2026-03-24T10:04:45.834Z</time></trkpt><trkpt lat="45.9208906" lon="9.2617341"><ele>753.0</ele><time>2026-03-24T10:04:46.833Z</time></trkpt><trkpt lat="45.9209691" lon="9.2618272"><ele>753.0</ele><time>2026-03-24T10:04:47.846Z</time></trkpt><trkpt lat="45.9210491" lon="9.2619219"><ele>752.8333333333334</ele><time>2026-03-24T10:04:48.847Z</time></trkpt><trkpt lat="45.9210996" lon="9.2619904"><ele>752.6666666666666</ele><time>2026-03-24T10:04:49.847Z</time></trkpt><trkpt lat="45.9211389" lon="9.2620682"><ele>752.5</ele><time>2026-03-24T10:04:51.838Z</time></trkpt><trkpt lat="45.9211899" lon="9.2621313"><ele>752.3333333333333</ele><time>2026-03-24T10:05:00.851Z</time></trkpt><trkpt lat="45.9212787" lon="9.2621951"><ele>752.1666666666666</ele><time>2026-03-24T10:05:02.857Z</time></trkpt><trkpt lat="45.9214202" lon="9.2622324"><ele>752.0</ele><time>2026-03-24T10:05:03.844Z</time></trkpt><trkpt lat="45.9215895" lon="9.2622902"><ele>753.3333333333333</ele><time>2026-03-24T10:05:04.836Z</time></trkpt><trkpt lat="45.9217651" lon="9.2623593"><ele>754.6666666666666</ele><time>2026-03-24T10:05:05.837Z</time></trkpt><trkpt lat="45.921928" lon="9.2624283"><ele>756.0</ele><time>2026-03-24T10:05:06.84Z</time></trkpt><trkpt lat="45.9221459" lon="9.262577"><ele>756.0</ele><time>2026-03-24T10:05:07.844Z</time></trkpt><trkpt lat="45.9223139" lon="9.2626464"><ele>756.0</ele><time>2026-03-24T10:05:08.842Z</time></trkpt><trkpt lat="45.9224555" lon="9.2627787"><ele>756.0</ele><time>2026-03-24T10:05:09.834Z</time></trkpt><trkpt lat="45.9225982" lon="9.2629543"><ele>759.3333333333334</ele><time>2026-03-24T10:05:10.849Z</time></trkpt><trkpt lat="45.9226765" lon="9.2631445"><ele>762.6666666666667</ele><time>2026-03-24T10:05:11.868Z</time></trkpt><trkpt lat="45.9227508" lon="9.2633345"><ele>766.0</ele><time>2026-03-24T10:05:12.866Z</time></trkpt><trkpt lat="45.9228138" lon="9.2635694"><ele>766.0</ele><time>2026-03-24T10:05:13.859Z</time></trkpt><trkpt lat="45.9228924" lon="9.263775"><ele>766.0</ele><time>2026-03-24T10:05:14.859Z</time></trkpt><trkpt lat="45.9229331" lon="9.2640253"><ele>766.0</ele><time>2026-03-24T10:05:15.869Z</time></trkpt><trkpt lat="45.9229702" lon="9.2643392"><ele>766.0</ele><time>2026-03-24T10:05:16.864Z</time></trkpt><trkpt lat="45.9230153" lon="9.2646729"><ele>766.0</ele><time>2026-03-24T10:05:17.859Z</time></trkpt><trkpt lat="45.9230556" lon="9.2650169"><ele>766.0</ele><time>2026-03-24T10:05:18.86Z</time></trkpt><trkpt lat="45.9231056" lon="9.2653564"><ele>766.0</ele><time>2026-03-24T10:05:19.858Z</time></trkpt><trkpt lat="45.9231132" lon="9.265667"><ele>766.0</ele><time>2026-03-24T10:05:20.862Z</time></trkpt><trkpt lat="45.9231276" lon="9.2659553"><ele>766.0</ele><time>2026-03-24T10:05:21.852Z</time></trkpt><trkpt lat="45.9231164" lon="9.2661577"><ele>766.0</ele><time>2026-03-24T10:05:22.844Z</time></trkpt><trkpt lat="45.9231229" lon="9.2663578"><ele>763.25</ele><time>2026-03-24T10:05:23.857Z</time></trkpt><trkpt lat="45.9231068" lon="9.2665719"><ele>760.5</ele><time>2026-03-24T10:05:24.854Z</time></trkpt><trkpt lat="45.9231572" lon="9.2667402"><ele>757.75</ele><time>2026-03-24T10:05:25.848Z</time></trkpt><trkpt lat="45.9231903" lon="9.2669085"><ele>755.0</ele><time>2026-03-24T10:05:26.858Z</time></trkpt><trkpt lat="45.9232893" lon="9.2670113"><ele>755.25</ele><time>2026-03-24T10:05:27.851Z</time></trkpt><trkpt lat="45.9234114" lon="9.2671319"><ele>755.5</ele><time>2026-03-24T10:05:28.845Z</time></trkpt><trkpt lat="45.923554" lon="9.2671798"><ele>755.75</ele><time>2026-03-24T10:05:29.847Z</time></trkpt><trkpt lat="45.9236606" lon="9.2672612"><ele>756.0</ele><time>2026-03-24T10:05:30.834Z</time></trkpt><trkpt lat="45.9237726" lon="9.2673174"><ele>756.0</ele><time>2026-03-24T10:05:31.83Z</time></trkpt><trkpt lat="45.9238567" lon="9.2673661"><ele>756.0</ele><time>2026-03-24T10:05:32.853Z</time></trkpt><trkpt lat="45.9238436" lon="9.2672536"><ele>756.0</ele><time>2026-03-24T10:05:39.846Z</time></trkpt><trkpt lat="45.9237812" lon="9.2672259"><ele>756.0</ele><time>2026-03-24T10:05:41.853Z</time></trkpt><trkpt lat="45.923716" lon="9.2672416"><ele>756.0</ele><time>2026-03-24T10:05:54.878Z</time></trkpt><trkpt lat="45.9236478" lon="9.2672608"><ele>756.0</ele><time>2026-03-24T10:05:58.876Z</time></trkpt><trkpt lat="45.923556" lon="9.2672985"><ele>756.0</ele><time>2026-03-24T10:06:02.857Z</time></trkpt><trkpt lat="45.923466" lon="9.2672956"><ele>756.0</ele><time>2026-03-24T10:06:04.866Z</time></trkpt><trkpt lat="45.923386" lon="9.2673111"><ele>756.0</ele><time>2026-03-24T10:06:06.859Z</time></trkpt><trkpt lat="45.9234378" lon="9.2672567"><ele>756.0</ele><time>2026-03-24T10:07:18.835Z</time></trkpt><trkpt lat="45.9233661" lon="9.2672663"><ele>756.0</ele><time>2026-03-24T10:10:29.804Z</time></trkpt><trkpt lat="45.9233037" lon="9.2672444"><ele>756.0</ele><time>2026-03-24T10:10:34.767Z</time></trkpt><trkpt lat="45.9233798" lon="9.2673246"><ele>755.0</ele><time>2026-03-24T10:10:37.808Z</time></trkpt><trkpt lat="45.9234201" lon="9.2674048"><ele>756.0</ele><time>2026-03-24T10:10:39.812Z</time></trkpt><trkpt lat="45.9234189" lon="9.2674953"><ele>756.0</ele><time>2026-03-24T10:10:42.808Z</time></trkpt><trkpt lat="45.9233681" lon="9.2673976"><ele>755.0</ele><time>2026-03-24T10:10:55.875Z</time></trkpt><trkpt lat="45.9233561" lon="9.2672942"><ele>755.0</ele><time>2026-03-24T10:12:01.867Z</time></trkpt></trkseg><trkseg><trkpt lat="45.9221613" lon="9.2621544"><ele>755.0</ele><time>2026-03-24T10:31:17.916Z</time></trkpt><trkpt lat="45.9229339" lon="9.2667062"><ele>755.0</ele><time>2026-03-24T10:31:37.318Z</time></trkpt><trkpt lat="45.9233638" lon="9.2673672"><ele>755.1428571428571</ele><time>2026-03-24T10:31:42.419Z</time></trkpt><trkpt lat="45.9234244" lon="9.2672978"><ele>755.2857142857143</ele><time>2026-03-24T10:32:12.492Z</time></trkpt><trkpt lat="45.9234839" lon="9.2672596"><ele>755.4285714285714</ele><time>2026-03-24T10:32:15.473Z</time></trkpt><trkpt lat="45.9234776" lon="9.2671609"><ele>755.5714285714286</ele><time>2026-03-24T10:32:22.364Z</time></trkpt><trkpt lat="45.9235412" lon="9.2671323"><ele>755.7142857142858</ele><time>2026-03-24T10:32:41.968Z</time></trkpt><trkpt lat="45.9235966" lon="9.2670761"><ele>755.8571428571429</ele><time>2026-03-24T10:32:46.974Z</time></trkpt><trkpt lat="45.9235289" lon="9.2670875"><ele>756.0</ele><time>2026-03-24T10:32:51.991Z</time></trkpt><trkpt lat="45.9234604" lon="9.2671725"><ele>756.0</ele><time>2026-03-24T10:32:53.997Z</time></trkpt><trkpt lat="45.9234073" lon="9.2672715"><ele>756.0</ele><time>2026-03-24T10:33:09.982Z</time></trkpt><trkpt lat="45.9233655" lon="9.2673396"><ele>756.0</ele><time>2026-03-24T10:33:11.984Z</time></trkpt><trkpt lat="45.9233048" lon="9.2673689"><ele>756.0</ele><time>2026-03-24T10:33:15.986Z</time></trkpt><trkpt lat="45.9233811" lon="9.2673655"><ele>756.0</ele><time>2026-03-24T10:33:37.992Z</time></trkpt><trkpt lat="45.9234169" lon="9.2672885"><ele>756.0</ele><time>2026-03-24T10:33:48.996Z</time></trkpt><trkpt lat="45.9233679" lon="9.2673489"><ele>756.0</ele><time>2026-03-24T10:34:22.824Z</time></trkpt><trkpt lat="45.9233031" lon="9.2673616"><ele>756.0</ele><time>2026-03-24T10:35:03.836Z</time></trkpt><trkpt lat="45.9234031" lon="9.2673152"><ele>756.0</ele><time>2026-03-24T10:35:30.861Z</time></trkpt><trkpt lat="45.9234447" lon="9.2672308"><ele>756.0</ele><time>2026-03-24T10:35:41.845Z</time></trkpt><trkpt lat="45.9235321" lon="9.2672545"><ele>756.0</ele><time>2026-03-24T10:35:43.866Z</time></trkpt><trkpt lat="45.9236188" lon="9.2672697"><ele>756.0</ele><time>2026-03-24T10:35:45.856Z</time></trkpt><trkpt lat="45.9237067" lon="9.2671905"><ele>756.0</ele><time>2026-03-24T10:35:48.858Z</time></trkpt><trkpt lat="45.923786" lon="9.2671586"><ele>756.0</ele><time>2026-03-24T10:35:50.866Z</time></trkpt><trkpt lat="45.9239123" lon="9.2672647"><ele>756.0</ele><time>2026-03-24T10:35:52.854Z</time></trkpt><trkpt lat="45.9239925" lon="9.267345"><ele>756.0</ele><time>2026-03-24T10:35:53.854Z</time></trkpt><trkpt lat="45.9240601" lon="9.2674195"><ele>756.0</ele><time>2026-03-24T10:35:54.859Z</time></trkpt><trkpt lat="45.9241193" lon="9.2674735"><ele>757.5999999999999</ele><time>2026-03-24T10:35:55.857Z</time></trkpt><trkpt lat="45.924232" lon="9.2675542"><ele>759.2</ele><time>2026-03-24T10:35:57.852Z</time></trkpt><trkpt lat="45.9242933" lon="9.2675877"><ele>760.8</ele><time>2026-03-24T10:35:58.845Z</time></trkpt><trkpt lat="45.9243601" lon="9.2676276"><ele>762.4000000000001</ele><time>2026-03-24T10:35:59.852Z</time></trkpt><trkpt lat="45.9244474" lon="9.2676779"><ele>764.0</ele><time>2026-03-24T10:36:00.844Z</time></trkpt><trkpt lat="45.9245512" lon="9.2677334"><ele>764.0</ele><time>2026-03-24T10:36:01.851Z</time></trkpt><trkpt lat="45.9246674" lon="9.2677941"><ele>764.0</ele><time>2026-03-24T10:36:02.853Z</time></trkpt><trkpt lat="45.9247933" lon="9.267845"><ele>764.0</ele><time>2026-03-24T10:36:03.853Z</time></trkpt><trkpt lat="45.9249119" lon="9.2678951"><ele>764.0</ele><time>2026-03-24T10:36:04.851Z</time></trkpt><trkpt lat="45.9250232" lon="9.2679363"><ele>761.2</ele><time>2026-03-24T10:36:05.861Z</time></trkpt><trkpt lat="45.9251357" lon="9.2679741"><ele>758.4000000000001</ele><time>2026-03-24T10:36:06.857Z</time></trkpt><trkpt lat="45.9252443" lon="9.2680077"><ele>755.6</ele><time>2026-03-24T10:36:07.858Z</time></trkpt><trkpt lat="45.9253451" lon="9.2680425"><ele>752.8</ele><time>2026-03-24T10:36:08.867Z</time></trkpt><trkpt lat="45.9254487" lon="9.268059"><ele>750.0</ele><time>2026-03-24T10:36:09.858Z</time></trkpt><trkpt lat="45.9255518" lon="9.2680563"><ele>750.0</ele><time>2026-03-24T10:36:10.858Z</time></trkpt><trkpt lat="45.925675" lon="9.2680343"><ele>750.0</ele><time>2026-03-24T10:36:11.86Z</time></trkpt><trkpt lat="45.9258092" lon="9.2679813"><ele>750.0</ele><time>2026-03-24T10:36:12.86Z</time></trkpt><trkpt lat="45.9259456" lon="9.2679302"><ele>750.0</ele><time>2026-03-24T10:36:13.854Z</time></trkpt><trkpt lat="45.9260723" lon="9.2678926"><ele>748.0</ele><time>2026-03-24T10:36:14.845Z</time></trkpt><trkpt lat="45.9262143" lon="9.2678651"><ele>746.0</ele><time>2026-03-24T10:36:15.85Z</time></trkpt><trkpt lat="45.9263698" lon="9.2677995"><ele>744.0</ele><time>2026-03-24T10:36:16.845Z</time></trkpt><trkpt lat="45.9265116" lon="9.26777"><ele>742.0</ele><time>2026-03-24T10:36:17.842Z</time></trkpt><trkpt lat="45.9266419" lon="9.2677311"><ele>738.25</ele><time>2026-03-24T10:36:18.903Z</time></trkpt><trkpt lat="45.9267885" lon="9.2677034"><ele>734.5</ele><time>2026-03-24T10:36:19.844Z</time></trkpt><trkpt lat="45.9268884" lon="9.2676409"><ele>730.75</ele><time>2026-03-24T10:36:20.84Z</time></trkpt><trkpt lat="45.9270204" lon="9.2676154"><ele>727.0</ele><time>2026-03-24T10:36:21.84Z</time></trkpt><trkpt lat="45.9271506" lon="9.2675984"><ele>727.0</ele><time>2026-03-24T10:36:22.833Z</time></trkpt><trkpt lat="45.9273192" lon="9.2676025"><ele>727.0</ele><time>2026-03-24T10:36:23.837Z</time></trkpt><trkpt lat="45.927442" lon="9.267651"><ele>727.0</ele><time>2026-03-24T10:36:24.84Z</time></trkpt><trkpt lat="45.9275886" lon="9.2676812"><ele>727.0</ele><time>2026-03-24T10:36:25.836Z</time></trkpt><trkpt lat="45.9277325" lon="9.2677217"><ele>724.5</ele><time>2026-03-24T10:36:26.845Z</time></trkpt><trkpt lat="45.9278123" lon="9.2677521"><ele>722.0</ele><time>2026-03-24T10:36:27.85Z</time></trkpt><trkpt lat="45.9278631" lon="9.2678063"><ele>719.5</ele><time>2026-03-24T10:36:28.845Z</time></trkpt><trkpt lat="45.9279287" lon="9.2678525"><ele>717.0</ele><time>2026-03-24T10:36:29.847Z</time></trkpt><trkpt lat="45.9280059" lon="9.2679531"><ele>714.5</ele><time>2026-03-24T10:36:31.854Z</time></trkpt><trkpt lat="45.9279444" lon="9.2680634"><ele>712.0</ele><time>2026-03-24T10:36:33.848Z</time></trkpt><trkpt lat="45.927857" lon="9.2681031"><ele>711.0</ele><time>2026-03-24T10:36:34.85Z</time></trkpt><trkpt lat="45.9277277" lon="9.2681543"><ele>710.0</ele><time>2026-03-24T10:36:35.844Z</time></trkpt><trkpt lat="45.9275836" lon="9.2682161"><ele>709.0</ele><time>2026-03-24T10:36:36.842Z</time></trkpt><trkpt lat="45.9274458" lon="9.2682923"><ele>708.0</ele><time>2026-03-24T10:36:37.852Z</time></trkpt><trkpt lat="45.9273367" lon="9.2683612"><ele>708.0</ele><time>2026-03-24T10:36:38.846Z</time></trkpt><trkpt lat="45.9272339" lon="9.2684277"><ele>708.0</ele><time>2026-03-24T10:36:39.847Z</time></trkpt><trkpt lat="45.9271564" lon="9.2685041"><ele>708.0</ele><time>2026-03-24T10:36:40.844Z</time></trkpt><trkpt lat="45.9271126" lon="9.2685703"><ele>708.0</ele><time>2026-03-24T10:36:41.844Z</time></trkpt><trkpt lat="45.9270866" lon="9.2687032"><ele>708.0</ele><time>2026-03-24T10:36:43.841Z</time></trkpt><trkpt lat="45.9272255" lon="9.2686746"><ele>708.0</ele><time>2026-03-24T10:36:45.844Z</time></trkpt><trkpt lat="45.9273518" lon="9.268624"><ele>708.0</ele><time>2026-03-24T10:36:46.845Z</time></trkpt><trkpt lat="45.9274834" lon="9.2685599"><ele>708.0</ele><time>2026-03-24T10:36:47.84Z</time></trkpt><trkpt lat="45.9275884" lon="9.268489"><ele>708.0</ele><time>2026-03-24T10:36:48.877Z</time></trkpt><trkpt lat="45.9276733" lon="9.2684464"><ele>704.6666666666666</ele><time>2026-03-24T10:36:49.847Z</time></trkpt><trkpt lat="45.9277526" lon="9.2684172"><ele>701.3333333333334</ele><time>2026-03-24T10:36:50.848Z</time></trkpt><trkpt lat="45.9278247" lon="9.2684429"><ele>698.0</ele><time>2026-03-24T10:36:51.848Z</time></trkpt><trkpt lat="45.9278849" lon="9.2684794"><ele>694.6666666666667</ele><time>2026-03-24T10:36:52.845Z</time></trkpt><trkpt lat="45.92783" lon="9.2686349"><ele>691.3333333333334</ele><time>2026-03-24T10:36:54.861Z</time></trkpt><trkpt lat="45.927751" lon="9.2687127"><ele>688.0</ele><time>2026-03-24T10:36:55.846Z</time></trkpt><trkpt lat="45.9276484" lon="9.268792"><ele>688.0</ele><time>2026-03-24T10:36:56.857Z</time></trkpt><trkpt lat="45.927561" lon="9.2688691"><ele>688.0</ele><time>2026-03-24T10:36:57.857Z</time></trkpt><trkpt lat="45.9274869" lon="9.2689542"><ele>688.0</ele><time>2026-03-24T10:36:58.855Z</time></trkpt><trkpt lat="45.9274327" lon="9.2690477"><ele>688.0</ele><time>2026-03-24T10:36:59.848Z</time></trkpt><trkpt lat="45.9274256" lon="9.2691394"><ele>688.0</ele><time>2026-03-24T10:37:00.838Z</time></trkpt><trkpt lat="45.9274634" lon="9.26922"><ele>688.0</ele><time>2026-03-24T10:37:01.842Z</time></trkpt><trkpt lat="45.9275688" lon="9.2692175"><ele>688.0</ele><time>2026-03-24T10:37:03.835Z</time></trkpt><trkpt lat="45.9276573" lon="9.2691237"><ele>688.0</ele><time>2026-03-24T10:37:04.826Z</time></trkpt><trkpt lat="45.9277378" lon="9.2690268"><ele>688.0</ele><time>2026-03-24T10:37:05.822Z</time></trkpt><trkpt lat="45.9278581" lon="9.2688867"><ele>688.0</ele><time>2026-03-24T10:37:06.82Z</time></trkpt><trkpt lat="45.9279859" lon="9.2687342"><ele>688.0</ele><time>2026-03-24T10:37:07.825Z</time></trkpt><trkpt lat="45.9281073" lon="9.2685837"><ele>688.0</ele><time>2026-03-24T10:37:08.822Z</time></trkpt><trkpt lat="45.9282163" lon="9.2684499"><ele>688.0</ele><time>2026-03-24T10:37:09.831Z</time></trkpt><trkpt lat="45.9283245" lon="9.268348"><ele>688.0</ele><time>2026-03-24T10:37:10.839Z</time></trkpt><trkpt lat="45.9284402" lon="9.2682681"><ele>686.6666666666667</ele><time>2026-03-24T10:37:11.844Z</time></trkpt><trkpt lat="45.9285542" lon="9.2682119"><ele>685.3333333333334</ele><time>2026-03-24T10:37:12.845Z</time></trkpt><trkpt lat="45.9286443" lon="9.2681736"><ele>684.0</ele><time>2026-03-24T10:37:13.848Z</time></trkpt><trkpt lat="45.9287114" lon="9.2681636"><ele>682.6666666666666</ele><time>2026-03-24T10:37:14.838Z</time></trkpt><trkpt lat="45.9287745" lon="9.2681592"><ele>681.3333333333333</ele><time>2026-03-24T10:37:15.844Z</time></trkpt><trkpt lat="45.9288456" lon="9.268182"><ele>680.0</ele><time>2026-03-24T10:37:16.84Z</time></trkpt><trkpt lat="45.9288604" lon="9.2682995"><ele>680.0</ele><time>2026-03-24T10:37:18.864Z</time></trkpt><trkpt lat="45.9287998" lon="9.2683553"><ele>680.0</ele><time>2026-03-24T10:37:19.874Z</time></trkpt><trkpt lat="45.9287025" lon="9.2684211"><ele>680.0</ele><time>2026-03-24T10:37:20.842Z</time></trkpt><trkpt lat="45.9286062" lon="9.2684915"><ele>680.0</ele><time>2026-03-24T10:37:21.845Z</time></trkpt><trkpt lat="45.9285105" lon="9.2685672"><ele>680.0</ele><time>2026-03-24T10:37:22.842Z</time></trkpt><trkpt lat="45.9284102" lon="9.2686621"><ele>681.3333333333333</ele><time>2026-03-24T10:37:23.85Z</time></trkpt><trkpt lat="45.9283412" lon="9.2687742"><ele>682.6666666666666</ele><time>2026-03-24T10:37:24.839Z</time></trkpt><trkpt lat="45.9283079" lon="9.2688866"><ele>684.0</ele><time>2026-03-24T10:37:25.849Z</time></trkpt><trkpt lat="45.9283321" lon="9.2689936"><ele>685.3333333333334</ele><time>2026-03-24T10:37:26.833Z</time></trkpt><trkpt lat="45.9283745" lon="9.2690686"><ele>686.6666666666667</ele><time>2026-03-24T10:37:27.841Z</time></trkpt><trkpt lat="45.9284487" lon="9.2691427"><ele>688.0</ele><time>2026-03-24T10:37:28.836Z</time></trkpt><trkpt lat="45.9285691" lon="9.269213"><ele>682.2</ele><time>2026-03-24T10:37:29.83Z</time></trkpt><trkpt lat="45.9286936" lon="9.2692809"><ele>676.4</ele><time>2026-03-24T10:37:30.825Z</time></trkpt><trkpt lat="45.9287971" lon="9.2693524"><ele>670.6</ele><time>2026-03-24T10:37:31.829Z</time></trkpt><trkpt lat="45.9288939" lon="9.2693995"><ele>664.8000000000001</ele><time>2026-03-24T10:37:32.831Z</time></trkpt><trkpt lat="45.9289876" lon="9.269428"><ele>659.0</ele><time>2026-03-24T10:37:33.832Z</time></trkpt><trkpt lat="45.9290714" lon="9.2694194"><ele>659.0</ele><time>2026-03-24T10:37:34.837Z</time></trkpt><trkpt lat="45.9291366" lon="9.2693856"><ele>659.0</ele><time>2026-03-24T10:37:35.839Z</time></trkpt><trkpt lat="45.9291772" lon="9.2693015"><ele>659.0</ele><time>2026-03-24T10:37:36.837Z</time></trkpt><trkpt lat="45.9291708" lon="9.2691576"><ele>659.0</ele><time>2026-03-24T10:37:37.831Z</time></trkpt><trkpt lat="45.9291572" lon="9.2690132"><ele>659.0</ele><time>2026-03-24T10:37:38.838Z</time></trkpt><trkpt lat="45.9291457" lon="9.2688752"><ele>659.0</ele><time>2026-03-24T10:37:39.84Z</time></trkpt><trkpt lat="45.9291405" lon="9.2687635"><ele>659.0</ele><time>2026-03-24T10:37:40.838Z</time></trkpt><trkpt lat="45.9292156" lon="9.2687232"><ele>659.0</ele><time>2026-03-24T10:37:42.831Z</time></trkpt><trkpt lat="45.9293007" lon="9.2688062"><ele>659.0</ele><time>2026-03-24T10:37:44.824Z</time></trkpt><trkpt lat="45.9293359" lon="9.2689417"><ele>659.0</ele><time>2026-03-24T10:37:45.829Z</time></trkpt><trkpt lat="45.929402" lon="9.2690754"><ele>659.0</ele><time>2026-03-24T10:37:46.824Z</time></trkpt><trkpt lat="45.9294861" lon="9.2691922"><ele>659.0</ele><time>2026-03-24T10:37:47.82Z</time></trkpt><trkpt lat="45.9295817" lon="9.2693032"><ele>659.0</ele><time>2026-03-24T10:37:48.83Z</time></trkpt><trkpt lat="45.9297247" lon="9.2693612"><ele>659.0</ele><time>2026-03-24T10:37:49.819Z</time></trkpt><trkpt lat="45.9298728" lon="9.2693872"><ele>659.0</ele><time>2026-03-24T10:37:50.837Z</time></trkpt><trkpt lat="45.9300189" lon="9.2694206"><ele>656.0</ele><time>2026-03-24T10:37:51.821Z</time></trkpt><trkpt lat="45.9301863" lon="9.2694077"><ele>653.0</ele><time>2026-03-24T10:37:52.823Z</time></trkpt><trkpt lat="45.9303723" lon="9.2694247"><ele>650.0</ele><time>2026-03-24T10:37:53.841Z</time></trkpt><trkpt lat="45.9305448" lon="9.269461"><ele>650.0</ele><time>2026-03-24T10:37:54.84Z</time></trkpt><trkpt lat="45.9306766" lon="9.2695283"><ele>650.0</ele><time>2026-03-24T10:37:55.844Z</time></trkpt><trkpt lat="45.9307781" lon="9.2696576"><ele>650.0</ele><time>2026-03-24T10:37:56.842Z</time></trkpt><trkpt lat="45.9308336" lon="9.2697966"><ele>650.0</ele><time>2026-03-24T10:37:57.849Z</time></trkpt><trkpt lat="45.9309685" lon="9.2698598"><ele>644.8</ele><time>2026-03-24T10:37:58.857Z</time></trkpt><trkpt lat="45.9310808" lon="9.2699104"><ele>639.6</ele><time>2026-03-24T10:37:59.851Z</time></trkpt><trkpt lat="45.9311677" lon="9.2699612"><ele>634.4</ele><time>2026-03-24T10:38:00.859Z</time></trkpt><trkpt lat="45.9312684" lon="9.2699674"><ele>629.2</ele><time>2026-03-24T10:38:01.854Z</time></trkpt><trkpt lat="45.9313742" lon="9.2699936"><ele>624.0</ele><time>2026-03-24T10:38:02.847Z</time></trkpt><trkpt lat="45.9314733" lon="9.2700087"><ele>624.0</ele><time>2026-03-24T10:38:03.844Z</time></trkpt><trkpt lat="45.9315804" lon="9.2699965"><ele>624.0</ele><time>2026-03-24T10:38:04.845Z</time></trkpt><trkpt lat="45.9316804" lon="9.2699613"><ele>624.0</ele><time>2026-03-24T10:38:05.843Z</time></trkpt><trkpt lat="45.9317812" lon="9.2698982"><ele>624.0</ele><time>2026-03-24T10:38:06.837Z</time></trkpt><trkpt lat="45.9318642" lon="9.2697999"><ele>624.0</ele><time>2026-03-24T10:38:07.839Z</time></trkpt><trkpt lat="45.9319412" lon="9.2696724"><ele>625.2</ele><time>2026-03-24T10:38:08.843Z</time></trkpt><trkpt lat="45.932015" lon="9.269565"><ele>626.4</ele><time>2026-03-24T10:38:09.834Z</time></trkpt><trkpt lat="45.9320975" lon="9.2694631"><ele>627.6</ele><time>2026-03-24T10:38:10.827Z</time></trkpt><trkpt lat="45.9321928" lon="9.2693885"><ele>628.8</ele><time>2026-03-24T10:38:11.83Z</time></trkpt><trkpt lat="45.9323079" lon="9.2693322"><ele>630.0</ele><time>2026-03-24T10:38:12.834Z</time></trkpt><trkpt lat="45.9324387" lon="9.2693177"><ele>625.25</ele><time>2026-03-24T10:38:13.837Z</time></trkpt><trkpt lat="45.9325685" lon="9.2693532"><ele>620.5</ele><time>2026-03-24T10:38:14.837Z</time></trkpt><trkpt lat="45.932695" lon="9.2693931"><ele>615.75</ele><time>2026-03-24T10:38:15.835Z</time></trkpt><trkpt lat="45.9328044" lon="9.269438"><ele>611.0</ele><time>2026-03-24T10:38:16.836Z</time></trkpt><trkpt lat="45.9329138" lon="9.2694453"><ele>611.0</ele><time>2026-03-24T10:38:17.831Z</time></trkpt><trkpt lat="45.9330313" lon="9.2694224"><ele>611.0</ele><time>2026-03-24T10:38:18.843Z</time></trkpt><trkpt lat="45.9331355" lon="9.2693782"><ele>611.0</ele><time>2026-03-24T10:38:19.829Z</time></trkpt><trkpt lat="45.9332149" lon="9.2692715"><ele>611.0</ele><time>2026-03-24T10:38:20.833Z</time></trkpt><trkpt lat="45.9332704" lon="9.2690564"><ele>617.0</ele><time>2026-03-24T10:38:21.846Z</time></trkpt><trkpt lat="45.9333402" lon="9.2688803"><ele>623.0</ele><time>2026-03-24T10:38:22.837Z</time></trkpt><trkpt lat="45.9334375" lon="9.2687311"><ele>629.0</ele><time>2026-03-24T10:38:23.836Z</time></trkpt><trkpt lat="45.933529" lon="9.2686267"><ele>635.0</ele><time>2026-03-24T10:38:24.839Z</time></trkpt><trkpt lat="45.9336684" lon="9.2685816"><ele>635.0</ele><time>2026-03-24T10:38:25.845Z</time></trkpt><trkpt lat="45.9337952" lon="9.2685503"><ele>635.0</ele><time>2026-03-24T10:38:26.848Z</time></trkpt><trkpt lat="45.9339063" lon="9.268553"><ele>635.0</ele><time>2026-03-24T10:38:27.841Z</time></trkpt><trkpt lat="45.9340114" lon="9.2685609"><ele>635.0</ele><time>2026-03-24T10:38:28.835Z</time></trkpt><trkpt lat="45.9341185" lon="9.2685921"><ele>635.5</ele><time>2026-03-24T10:38:29.835Z</time></trkpt><trkpt lat="45.9342291" lon="9.2686575"><ele>636.0</ele><time>2026-03-24T10:38:30.831Z</time></trkpt><trkpt lat="45.9343351" lon="9.268749"><ele>636.5</ele><time>2026-03-24T10:38:31.833Z</time></trkpt><trkpt lat="45.9344295" lon="9.268859"><ele>637.0</ele><time>2026-03-24T10:38:32.833Z</time></trkpt><trkpt lat="45.9345217" lon="9.2689962"><ele>637.0</ele><time>2026-03-24T10:38:33.835Z</time></trkpt><trkpt lat="45.9345921" lon="9.2691617"><ele>637.0</ele><time>2026-03-24T10:38:34.839Z</time></trkpt><trkpt lat="45.9346315" lon="9.2693556"><ele>637.0</ele><time>2026-03-24T10:38:35.839Z</time></trkpt><trkpt lat="45.9346376" lon="9.2695508"><ele>637.0</ele><time>2026-03-24T10:38:36.837Z</time></trkpt><trkpt lat="45.9346198" lon="9.2697301"><ele>635.4</ele><time>2026-03-24T10:38:37.836Z</time></trkpt><trkpt lat="45.9345945" lon="9.2698985"><ele>633.8000000000001</ele><time>2026-03-24T10:38:38.837Z</time></trkpt><trkpt lat="45.9345866" lon="9.2700408"><ele>632.2</ele><time>2026-03-24T10:38:39.837Z</time></trkpt><trkpt lat="45.9345824" lon="9.2701622"><ele>630.6</ele><time>2026-03-24T10:38:40.829Z</time></trkpt><trkpt lat="45.9346101" lon="9.27028"><ele>629.0</ele><time>2026-03-24T10:38:41.834Z</time></trkpt><trkpt lat="45.9346701" lon="9.2703841"><ele>629.0</ele><time>2026-03-24T10:38:42.834Z</time></trkpt><trkpt lat="45.9347483" lon="9.2704783"><ele>629.0</ele><time>2026-03-24T10:38:43.829Z</time></trkpt><trkpt lat="45.9348555" lon="9.2705297"><ele>629.0</ele><time>2026-03-24T10:38:44.833Z</time></trkpt><trkpt lat="45.9349911" lon="9.2705817"><ele>629.0</ele><time>2026-03-24T10:38:45.837Z</time></trkpt><trkpt lat="45.9351287" lon="9.2706249"><ele>629.75</ele><time>2026-03-24T10:38:46.837Z</time></trkpt><trkpt lat="45.9352504" lon="9.270676"><ele>630.5</ele><time>2026-03-24T10:38:47.837Z</time></trkpt><trkpt lat="45.9353613" lon="9.2707163"><ele>631.25</ele><time>2026-03-24T10:38:48.843Z</time></trkpt><trkpt lat="45.9354605" lon="9.2707905"><ele>632.0</ele><time>2026-03-24T10:38:49.837Z</time></trkpt><trkpt lat="45.9355481" lon="9.2708516"><ele>632.0</ele><time>2026-03-24T10:38:50.839Z</time></trkpt><trkpt lat="45.9356248" lon="9.2709091"><ele>632.0</ele><time>2026-03-24T10:38:51.847Z</time></trkpt><trkpt lat="45.9356941" lon="9.2709753"><ele>632.0</ele><time>2026-03-24T10:38:52.857Z</time></trkpt><trkpt lat="45.9357648" lon="9.2710299"><ele>632.0</ele><time>2026-03-24T10:38:53.854Z</time></trkpt><trkpt lat="45.9358431" lon="9.2710901"><ele>632.0</ele><time>2026-03-24T10:38:54.845Z</time></trkpt><trkpt lat="45.9359264" lon="9.2711266"><ele>632.0</ele><time>2026-03-24T10:38:55.841Z</time></trkpt><trkpt lat="45.9360117" lon="9.2711418"><ele>632.8333333333333</ele><time>2026-03-24T10:38:56.845Z</time></trkpt><trkpt lat="45.9360945" lon="9.2711507"><ele>633.6666666666666</ele><time>2026-03-24T10:38:57.844Z</time></trkpt><trkpt lat="45.9361824" lon="9.2711409"><ele>634.5</ele><time>2026-03-24T10:38:58.84Z</time></trkpt><trkpt lat="45.9362665" lon="9.2711439"><ele>635.3333333333334</ele><time>2026-03-24T10:38:59.841Z</time></trkpt><trkpt lat="45.9363419" lon="9.2711348"><ele>636.1666666666667</ele><time>2026-03-24T10:39:00.839Z</time></trkpt><trkpt lat="45.9364163" lon="9.2711485"><ele>637.0</ele><time>2026-03-24T10:39:01.83Z</time></trkpt><trkpt lat="45.9364896" lon="9.2711509"><ele>637.0</ele><time>2026-03-24T10:39:02.837Z</time></trkpt><trkpt lat="45.9365796" lon="9.2711429"><ele>637.0</ele><time>2026-03-24T10:39:03.833Z</time></trkpt><trkpt lat="45.9366671" lon="9.271146"><ele>637.0</ele><time>2026-03-24T10:39:04.841Z</time></trkpt><trkpt lat="45.9367682" lon="9.2711652"><ele>637.0</ele><time>2026-03-24T10:39:05.834Z</time></trkpt><trkpt lat="45.9368678" lon="9.2712078"><ele>637.0</ele><time>2026-03-24T10:39:06.839Z</time></trkpt><trkpt lat="45.9370006" lon="9.2712572"><ele>635.5</ele><time>2026-03-24T10:39:07.837Z</time></trkpt><trkpt lat="45.9371261" lon="9.2713034"><ele>634.0</ele><time>2026-03-24T10:39:08.83Z</time></trkpt><trkpt lat="45.9372493" lon="9.2713558"><ele>632.5</ele><time>2026-03-24T10:39:09.837Z</time></trkpt><trkpt lat="45.9373599" lon="9.2714254"><ele>631.0</ele><time>2026-03-24T10:39:10.83Z</time></trkpt><trkpt lat="45.9374831" lon="9.2714964"><ele>633.5</ele><time>2026-03-24T10:39:11.829Z</time></trkpt><trkpt lat="45.9376026" lon="9.2715767"><ele>636.0</ele><time>2026-03-24T10:39:12.842Z</time></trkpt><trkpt lat="45.9377257" lon="9.271664"><ele>638.5</ele><time>2026-03-24T10:39:13.835Z</time></trkpt><trkpt lat="45.9378415" lon="9.2717711"><ele>641.0</ele><time>2026-03-24T10:39:14.84Z</time></trkpt><trkpt lat="45.9379627" lon="9.271861"><ele>641.0</ele><time>2026-03-24T10:39:15.824Z</time></trkpt><trkpt lat="45.9380878" lon="9.2719181"><ele>641.0</ele><time>2026-03-24T10:39:16.834Z</time></trkpt><trkpt lat="45.9382118" lon="9.2719625"><ele>641.0</ele><time>2026-03-24T10:39:17.83Z</time></trkpt><trkpt lat="45.9383299" lon="9.2720017"><ele>641.0</ele><time>2026-03-24T10:39:18.854Z</time></trkpt><trkpt lat="45.9384155" lon="9.2720697"><ele>641.0</ele><time>2026-03-24T10:39:19.841Z</time></trkpt><trkpt lat="45.9384689" lon="9.2721793"><ele>641.0</ele><time>2026-03-24T10:39:20.834Z</time></trkpt><trkpt lat="45.9385221" lon="9.2723248"><ele>641.0</ele><time>2026-03-24T10:39:21.844Z</time></trkpt><trkpt lat="45.9385683" lon="9.2724846"><ele>641.0</ele><time>2026-03-24T10:39:22.84Z</time></trkpt><trkpt lat="45.9386283" lon="9.2726271"><ele>641.0</ele><time>2026-03-24T10:39:23.849Z</time></trkpt><trkpt lat="45.9386786" lon="9.2727713"><ele>641.0</ele><time>2026-03-24T10:39:24.827Z</time></trkpt><trkpt lat="45.9387441" lon="9.2728891"><ele>641.0</ele><time>2026-03-24T10:39:25.825Z</time></trkpt><trkpt lat="45.9388077" lon="9.2730061"><ele>641.0</ele><time>2026-03-24T10:39:26.828Z</time></trkpt><trkpt lat="45.9388914" lon="9.2730931"><ele>641.0</ele><time>2026-03-24T10:39:27.831Z</time></trkpt><trkpt lat="45.938991" lon="9.273112"><ele>641.0</ele><time>2026-03-24T10:39:28.834Z</time></trkpt><trkpt lat="45.9391163" lon="9.2730986"><ele>642.6666666666666</ele><time>2026-03-24T10:39:29.833Z</time></trkpt><trkpt lat="45.9392413" lon="9.2730845"><ele>644.3333333333334</ele><time>2026-03-24T10:39:30.822Z</time></trkpt><trkpt lat="45.9393944" lon="9.2730297"><ele>646.0</ele><time>2026-03-24T10:39:31.826Z</time></trkpt><trkpt lat="45.9395639" lon="9.27295"><ele>646.0</ele><time>2026-03-24T10:39:32.832Z</time></trkpt><trkpt lat="45.9397545" lon="9.2728356"><ele>646.0</ele><time>2026-03-24T10:39:33.843Z</time></trkpt><trkpt lat="45.9399335" lon="9.2727215"><ele>646.0</ele><time>2026-03-24T10:39:34.833Z</time></trkpt><trkpt lat="45.9401078" lon="9.2725473"><ele>645.3333333333334</ele><time>2026-03-24T10:39:35.839Z</time></trkpt><trkpt lat="45.9402914" lon="9.2724981"><ele>644.6666666666666</ele><time>2026-03-24T10:39:36.845Z</time></trkpt><trkpt lat="45.9404368" lon="9.2724514"><ele>644.0</ele><time>2026-03-24T10:39:37.85Z</time></trkpt><trkpt lat="45.9405835" lon="9.2723592"><ele>644.0</ele><time>2026-03-24T10:39:38.838Z</time></trkpt><trkpt lat="45.9407302" lon="9.2722747"><ele>644.0</ele><time>2026-03-24T10:39:39.838Z</time></trkpt><trkpt lat="45.9408581" lon="9.2722404"><ele>644.0</ele><time>2026-03-24T10:39:40.832Z</time></trkpt><trkpt lat="45.9409774" lon="9.272231"><ele>644.0</ele><time>2026-03-24T10:39:41.836Z</time></trkpt><trkpt lat="45.9411002" lon="9.2722302"><ele>649.0</ele><time>2026-03-24T10:39:42.831Z</time></trkpt><trkpt lat="45.9412272" lon="9.2722143"><ele>654.0</ele><time>2026-03-24T10:39:43.835Z</time></trkpt><trkpt lat="45.941394" lon="9.2721353"><ele>659.0</ele><time>2026-03-24T10:39:44.84Z</time></trkpt><trkpt lat="45.9415429" lon="9.2721051"><ele>659.0</ele><time>2026-03-24T10:39:45.838Z</time></trkpt><trkpt lat="45.9416961" lon="9.272066"><ele>659.0</ele><time>2026-03-24T10:39:46.838Z</time></trkpt><trkpt lat="45.9418652" lon="9.2720317"><ele>659.0</ele><time>2026-03-24T10:39:47.838Z</time></trkpt><trkpt lat="45.9420243" lon="9.271993"><ele>655.0</ele><time>2026-03-24T10:39:48.849Z</time></trkpt><trkpt lat="45.9421738" lon="9.2719144"><ele>651.0</ele><time>2026-03-24T10:39:49.837Z</time></trkpt><trkpt lat="45.9423413" lon="9.2718074"><ele>647.0</ele><time>2026-03-24T10:39:50.833Z</time></trkpt><trkpt lat="45.9424934" lon="9.2716713"><ele>649.5</ele><time>2026-03-24T10:39:51.835Z</time></trkpt><trkpt lat="45.9426048" lon="9.2715598"><ele>652.0</ele><time>2026-03-24T10:39:52.827Z</time></trkpt><trkpt lat="45.9427304" lon="9.2714254"><ele>654.5</ele><time>2026-03-24T10:39:53.834Z</time></trkpt><trkpt lat="45.9428238" lon="9.2712863"><ele>657.0</ele><time>2026-03-24T10:39:54.853Z</time></trkpt><trkpt lat="45.9429207" lon="9.2711249"><ele>657.0</ele><time>2026-03-24T10:39:55.828Z</time></trkpt><trkpt lat="45.9429963" lon="9.2710132"><ele>657.0</ele><time>2026-03-24T10:39:56.836Z</time></trkpt><trkpt lat="45.9430867" lon="9.2709355"><ele>657.0</ele><time>2026-03-24T10:39:57.846Z</time></trkpt><trkpt lat="45.9431398" lon="9.270862"><ele>657.0</ele><time>2026-03-24T10:39:58.847Z</time></trkpt><trkpt lat="45.9432565" lon="9.2708602"><ele>657.0</ele><time>2026-03-24T10:39:59.844Z</time></trkpt><trkpt lat="45.9433964" lon="9.2709139"><ele>655.25</ele><time>2026-03-24T10:40:00.844Z</time></trkpt><trkpt lat="45.9435254" lon="9.2709385"><ele>653.5</ele><time>2026-03-24T10:40:01.846Z</time></trkpt><trkpt lat="45.9436402" lon="9.2709618"><ele>651.75</ele><time>2026-03-24T10:40:02.846Z</time></trkpt><trkpt lat="45.9437683" lon="9.2709669"><ele>650.0</ele><time>2026-03-24T10:40:03.846Z</time></trkpt><trkpt lat="45.9438838" lon="9.2709474"><ele>650.0</ele><time>2026-03-24T10:40:04.839Z</time></trkpt><trkpt lat="45.9440107" lon="9.2708824"><ele>650.0</ele><time>2026-03-24T10:40:05.844Z</time></trkpt><trkpt lat="45.9441527" lon="9.2707963"><ele>650.0</ele><time>2026-03-24T10:40:06.837Z</time></trkpt><trkpt lat="45.9442853" lon="9.2706389"><ele>650.5</ele><time>2026-03-24T10:40:07.842Z</time></trkpt><trkpt lat="45.9443875" lon="9.270377"><ele>651.0</ele><time>2026-03-24T10:40:08.841Z</time></trkpt><trkpt lat="45.9445446" lon="9.2700909"><ele>651.0</ele><time>2026-03-24T10:40:09.836Z</time></trkpt><trkpt lat="45.9446941" lon="9.269908"><ele>651.0</ele><time>2026-03-24T10:40:10.839Z</time></trkpt><trkpt lat="45.9447901" lon="9.2697559"><ele>651.0</ele><time>2026-03-24T10:40:11.84Z</time></trkpt><trkpt lat="45.9449073" lon="9.2696194"><ele>653.5</ele><time>2026-03-24T10:40:12.847Z</time></trkpt><trkpt lat="45.9450027" lon="9.2694812"><ele>656.0</ele><time>2026-03-24T10:40:13.843Z</time></trkpt><trkpt lat="45.9450782" lon="9.2693018"><ele>658.5</ele><time>2026-03-24T10:40:14.837Z</time></trkpt><trkpt lat="45.9451346" lon="9.2691405"><ele>661.0</ele><time>2026-03-24T10:40:15.833Z</time></trkpt><trkpt lat="45.9451721" lon="9.2689893"><ele>656.5</ele><time>2026-03-24T10:40:16.833Z</time></trkpt><trkpt lat="45.9452581" lon="9.268802"><ele>652.0</ele><time>2026-03-24T10:40:17.834Z</time></trkpt><trkpt lat="45.9453437" lon="9.2686112"><ele>647.5</ele><time>2026-03-24T10:40:18.837Z</time></trkpt><trkpt lat="45.9454085" lon="9.2684748"><ele>643.0</ele><time>2026-03-24T10:40:19.832Z</time></trkpt><trkpt lat="45.9454991" lon="9.2682927"><ele>647.6666666666667</ele><time>2026-03-24T10:40:20.834Z</time></trkpt><trkpt lat="45.9455706" lon="9.2681088"><ele>652.3333333333334</ele><time>2026-03-24T10:40:21.835Z</time></trkpt><trkpt lat="45.9456706" lon="9.2679328"><ele>657.0</ele><time>2026-03-24T10:40:22.836Z</time></trkpt><trkpt lat="45.9457856" lon="9.2677083"><ele>657.0</ele><time>2026-03-24T10:40:23.829Z</time></trkpt><trkpt lat="45.9458203" lon="9.2675412"><ele>657.0</ele><time>2026-03-24T10:40:24.836Z</time></trkpt><trkpt lat="45.9458886" lon="9.2673723"><ele>657.0</ele><time>2026-03-24T10:40:25.864Z</time></trkpt><trkpt lat="45.9459355" lon="9.2672315"><ele>657.0</ele><time>2026-03-24T10:40:26.843Z</time></trkpt><trkpt lat="45.945984" lon="9.2671149"><ele>655.3333333333334</ele><time>2026-03-24T10:40:27.836Z</time></trkpt><trkpt lat="45.9460916" lon="9.2669584"><ele>653.6666666666667</ele><time>2026-03-24T10:40:28.836Z</time></trkpt><trkpt lat="45.9461808" lon="9.2667961"><ele>652.0</ele><time>2026-03-24T10:40:29.854Z</time></trkpt><trkpt lat="45.9463381" lon="9.2667277"><ele>652.0</ele><time>2026-03-24T10:40:30.85Z</time></trkpt><trkpt lat="45.9464697" lon="9.26662"><ele>652.0</ele><time>2026-03-24T10:40:31.845Z</time></trkpt><trkpt lat="45.9465817" lon="9.2664878"><ele>652.0</ele><time>2026-03-24T10:40:32.843Z</time></trkpt><trkpt lat="45.9466877" lon="9.2664367"><ele>652.0</ele><time>2026-03-24T10:40:33.843Z</time></trkpt><trkpt lat="45.9468323" lon="9.2662677"><ele>646.3333333333334</ele><time>2026-03-24T10:40:34.833Z</time></trkpt><trkpt lat="45.9469519" lon="9.2660897"><ele>640.6666666666666</ele><time>2026-03-24T10:40:35.84Z</time></trkpt><trkpt lat="45.9470403" lon="9.2658921"><ele>635.0</ele><time>2026-03-24T10:40:36.837Z</time></trkpt><trkpt lat="45.9471535" lon="9.2656902"><ele>638.0</ele><time>2026-03-24T10:40:37.828Z</time></trkpt><trkpt lat="45.947292" lon="9.2654988"><ele>641.0</ele><time>2026-03-24T10:40:38.828Z</time></trkpt><trkpt lat="45.9474196" lon="9.2653476"><ele>644.0</ele><time>2026-03-24T10:40:39.82Z</time></trkpt><trkpt lat="45.9475149" lon="9.2651466"><ele>640.0</ele><time>2026-03-24T10:40:40.828Z</time></trkpt><trkpt lat="45.947583" lon="9.2649479"><ele>636.0</ele><time>2026-03-24T10:40:41.828Z</time></trkpt><trkpt lat="45.9476105" lon="9.2648178"><ele>632.0</ele><time>2026-03-24T10:40:42.831Z</time></trkpt><trkpt lat="45.9476338" lon="9.2646176"><ele>628.0</ele><time>2026-03-24T10:40:43.835Z</time></trkpt><trkpt lat="45.9475713" lon="9.2644445"><ele>628.0</ele><time>2026-03-24T10:40:44.859Z</time></trkpt><trkpt lat="45.9475741" lon="9.2642781"><ele>628.0</ele><time>2026-03-24T10:40:45.853Z</time></trkpt><trkpt lat="45.94765" lon="9.2640922"><ele>628.0</ele><time>2026-03-24T10:40:46.857Z</time></trkpt><trkpt lat="45.9477412" lon="9.2639211"><ele>628.0</ele><time>2026-03-24T10:40:47.85Z</time></trkpt><trkpt lat="45.94784" lon="9.2637559"><ele>629.0</ele><time>2026-03-24T10:40:48.841Z</time></trkpt><trkpt lat="45.9479157" lon="9.2635694"><ele>630.0</ele><time>2026-03-24T10:40:49.86Z</time></trkpt><trkpt lat="45.948015" lon="9.2633816"><ele>631.0</ele><time>2026-03-24T10:40:50.849Z</time></trkpt><trkpt lat="45.9480837" lon="9.2632187"><ele>632.0</ele><time>2026-03-24T10:40:51.853Z</time></trkpt><trkpt lat="45.9481581" lon="9.2630186"><ele>634.0</ele><time>2026-03-24T10:40:52.854Z</time></trkpt><trkpt lat="45.9481927" lon="9.2627845"><ele>636.0</ele><time>2026-03-24T10:40:53.856Z</time></trkpt><trkpt lat="45.9482399" lon="9.2625593"><ele>638.0</ele><time>2026-03-24T10:40:54.865Z</time></trkpt><trkpt lat="45.948294" lon="9.2623424"><ele>636.3333333333333</ele><time>2026-03-24T10:40:55.865Z</time></trkpt><trkpt lat="45.9483356" lon="9.2621536"><ele>634.6666666666666</ele><time>2026-03-24T10:40:56.877Z</time></trkpt><trkpt lat="45.9484054" lon="9.2619437"><ele>633.0</ele><time>2026-03-24T10:40:57.861Z</time></trkpt><trkpt lat="45.9484851" lon="9.261706"><ele>633.0</ele><time>2026-03-24T10:40:58.86Z</time></trkpt><trkpt lat="45.948533" lon="9.261504"><ele>633.0</ele><time>2026-03-24T10:40:59.858Z</time></trkpt><trkpt lat="45.9485909" lon="9.2613182"><ele>633.0</ele><time>2026-03-24T10:41:00.861Z</time></trkpt><trkpt lat="45.9486489" lon="9.2612138"><ele>633.0</ele><time>2026-03-24T10:41:01.852Z</time></trkpt><trkpt lat="45.9487216" lon="9.2610645"><ele>634.1999999999999</ele><time>2026-03-24T10:41:02.843Z</time></trkpt><trkpt lat="45.9487999" lon="9.2609178"><ele>635.4</ele><time>2026-03-24T10:41:03.84Z</time></trkpt><trkpt lat="45.9487864" lon="9.2607944"><ele>636.5999999999999</ele><time>2026-03-24T10:41:04.84Z</time></trkpt><trkpt lat="45.9487759" lon="9.2606367"><ele>637.8</ele><time>2026-03-24T10:41:05.847Z</time></trkpt><trkpt lat="45.9487873" lon="9.2604761"><ele>639.0</ele><time>2026-03-24T10:41:06.85Z</time></trkpt><trkpt lat="45.9488041" lon="9.2603311"><ele>640.6</ele><time>2026-03-24T10:41:07.848Z</time></trkpt><trkpt lat="45.9488393" lon="9.2601911"><ele>642.2</ele><time>2026-03-24T10:41:08.85Z</time></trkpt><trkpt lat="45.9488874" lon="9.2600572"><ele>643.8000000000001</ele><time>2026-03-24T10:41:09.839Z</time></trkpt><trkpt lat="45.9489537" lon="9.2599418"><ele>645.4</ele><time>2026-03-24T10:41:10.844Z</time></trkpt><trkpt lat="45.949057" lon="9.2598618"><ele>647.0</ele><time>2026-03-24T10:41:11.842Z</time></trkpt><trkpt lat="45.949181" lon="9.259818"><ele>646.5</ele><time>2026-03-24T10:41:12.845Z</time></trkpt><trkpt lat="45.9493075" lon="9.2597836"><ele>646.0</ele><time>2026-03-24T10:41:13.84Z</time></trkpt><trkpt lat="45.949443" lon="9.2597838"><ele>645.5</ele><time>2026-03-24T10:41:14.844Z</time></trkpt><trkpt lat="45.9495905" lon="9.2597927"><ele>645.0</ele><time>2026-03-24T10:41:15.854Z</time></trkpt><trkpt lat="45.94972" lon="9.2597947"><ele>645.25</ele><time>2026-03-24T10:41:16.839Z</time></trkpt><trkpt lat="45.9498386" lon="9.2597655"><ele>645.5</ele><time>2026-03-24T10:41:17.835Z</time></trkpt><trkpt lat="45.9499652" lon="9.2597086"><ele>645.75</ele><time>2026-03-24T10:41:18.838Z</time></trkpt><trkpt lat="45.9500802" lon="9.2596012"><ele>646.0</ele><time>2026-03-24T10:41:19.838Z</time></trkpt><trkpt lat="45.9501955" lon="9.2594767"><ele>645.0</ele><time>2026-03-24T10:41:20.831Z</time></trkpt><trkpt lat="45.9503106" lon="9.2593553"><ele>644.0</ele><time>2026-03-24T10:41:21.819Z</time></trkpt><trkpt lat="45.9504135" lon="9.2591611"><ele>643.0</ele><time>2026-03-24T10:41:22.827Z</time></trkpt><trkpt lat="45.9505126" lon="9.2590112"><ele>643.75</ele><time>2026-03-24T10:41:23.832Z</time></trkpt><trkpt lat="45.9506059" lon="9.2588684"><ele>644.5</ele><time>2026-03-24T10:41:24.84Z</time></trkpt><trkpt lat="45.9506567" lon="9.2587379"><ele>645.25</ele><time>2026-03-24T10:41:25.841Z</time></trkpt><trkpt lat="45.9507321" lon="9.258619"><ele>646.0</ele><time>2026-03-24T10:41:26.847Z</time></trkpt><trkpt lat="45.9507935" lon="9.2584819"><ele>646.0</ele><time>2026-03-24T10:41:27.83Z</time></trkpt><trkpt lat="45.9508521" lon="9.2583988"><ele>646.0</ele><time>2026-03-24T10:41:28.827Z</time></trkpt><trkpt lat="45.9508992" lon="9.2582883"><ele>646.0</ele><time>2026-03-24T10:41:29.826Z</time></trkpt><trkpt lat="45.9509394" lon="9.2581556"><ele>646.0</ele><time>2026-03-24T10:41:30.828Z</time></trkpt><trkpt lat="45.9509799" lon="9.2580127"><ele>646.0</ele><time>2026-03-24T10:41:31.834Z</time></trkpt><trkpt lat="45.9510135" lon="9.2578666"><ele>645.4</ele><time>2026-03-24T10:41:32.832Z</time></trkpt><trkpt lat="45.951047" lon="9.2577241"><ele>644.8</ele><time>2026-03-24T10:41:33.838Z</time></trkpt><trkpt lat="45.9510763" lon="9.257604"><ele>644.1999999999999</ele><time>2026-03-24T10:41:34.841Z</time></trkpt><trkpt lat="45.9511175" lon="9.25748"><ele>643.5999999999999</ele><time>2026-03-24T10:41:35.844Z</time></trkpt><trkpt lat="45.9511721" lon="9.2573692"><ele>643.0</ele><time>2026-03-24T10:41:36.846Z</time></trkpt><trkpt lat="45.9512608" lon="9.2572875"><ele>643.6666666666667</ele><time>2026-03-24T10:41:37.844Z</time></trkpt><trkpt lat="45.9513732" lon="9.2572402"><ele>644.3333333333334</ele><time>2026-03-24T10:41:38.847Z</time></trkpt><trkpt lat="45.951521" lon="9.2572145"><ele>645.0</ele><time>2026-03-24T10:41:39.855Z</time></trkpt><trkpt lat="45.9517166" lon="9.2572234"><ele>643.5</ele><time>2026-03-24T10:41:40.848Z</time></trkpt><trkpt lat="45.9519681" lon="9.2572951"><ele>642.0</ele><time>2026-03-24T10:41:41.851Z</time></trkpt><trkpt lat="45.9521857" lon="9.2573464"><ele>642.0</ele><time>2026-03-24T10:41:42.839Z</time></trkpt><trkpt lat="45.9524103" lon="9.257339"><ele>642.0</ele><time>2026-03-24T10:41:43.842Z</time></trkpt><trkpt lat="45.9526571" lon="9.2573162"><ele>644.0</ele><time>2026-03-24T10:41:44.836Z</time></trkpt><trkpt lat="45.9529016" lon="9.257278"><ele>646.0</ele><time>2026-03-24T10:41:45.823Z</time></trkpt><trkpt lat="45.9531331" lon="9.2572699"><ele>643.0</ele><time>2026-03-24T10:41:46.82Z</time></trkpt><trkpt lat="45.9533708" lon="9.2573016"><ele>640.0</ele><time>2026-03-24T10:41:47.816Z</time></trkpt><trkpt lat="45.9534754" lon="9.2573257"><ele>637.0</ele><time>2026-03-24T10:41:48.818Z</time></trkpt><trkpt lat="45.9536379" lon="9.2573041"><ele>636.0</ele><time>2026-03-24T10:41:49.839Z</time></trkpt><trkpt lat="45.953793" lon="9.257272"><ele>635.0</ele><time>2026-03-24T10:41:50.833Z</time></trkpt><trkpt lat="45.953933" lon="9.257251"><ele>634.0</ele><time>2026-03-24T10:41:51.828Z</time></trkpt><trkpt lat="45.9540897" lon="9.2572565"><ele>634.0</ele><time>2026-03-24T10:41:52.835Z</time></trkpt><trkpt lat="45.9542013" lon="9.2571957"><ele>634.0</ele><time>2026-03-24T10:41:53.825Z</time></trkpt><trkpt lat="45.9542786" lon="9.2571499"><ele>634.0</ele><time>2026-03-24T10:41:54.826Z</time></trkpt><trkpt lat="45.9543576" lon="9.2568764"><ele>634.0</ele><time>2026-03-24T10:41:56.813Z</time></trkpt><trkpt lat="45.9544684" lon="9.2566707"><ele>633.5</ele><time>2026-03-24T10:41:57.827Z</time></trkpt><trkpt lat="45.9545657" lon="9.2564742"><ele>633.0</ele><time>2026-03-24T10:41:58.813Z</time></trkpt><trkpt lat="45.9546557" lon="9.2563198"><ele>632.5</ele><time>2026-03-24T10:41:59.823Z</time></trkpt><trkpt lat="45.9547384" lon="9.2561622"><ele>632.0</ele><time>2026-03-24T10:42:00.83Z</time></trkpt><trkpt lat="45.954817" lon="9.2559657"><ele>632.0</ele><time>2026-03-24T10:42:01.822Z</time></trkpt><trkpt lat="45.9549016" lon="9.2558255"><ele>632.0</ele><time>2026-03-24T10:42:02.825Z</time></trkpt><trkpt lat="45.9550151" lon="9.2556471"><ele>632.0</ele><time>2026-03-24T10:42:03.825Z</time></trkpt><trkpt lat="45.9551397" lon="9.2554539"><ele>624.6666666666666</ele><time>2026-03-24T10:42:04.819Z</time></trkpt><trkpt lat="45.9552006" lon="9.2552373"><ele>617.3333333333334</ele><time>2026-03-24T10:42:05.809Z</time></trkpt><trkpt lat="45.9552487" lon="9.2550258"><ele>610.0</ele><time>2026-03-24T10:42:06.81Z</time></trkpt><trkpt lat="45.9552859" lon="9.2547949"><ele>610.0</ele><time>2026-03-24T10:42:07.807Z</time></trkpt><trkpt lat="45.9553342" lon="9.2545696"><ele>610.0</ele><time>2026-03-24T10:42:08.815Z</time></trkpt><trkpt lat="45.9554167" lon="9.2543631"><ele>610.0</ele><time>2026-03-24T10:42:09.823Z</time></trkpt><trkpt lat="45.9555032" lon="9.25418"><ele>610.0</ele><time>2026-03-24T10:42:10.82Z</time></trkpt><trkpt lat="45.9556356" lon="9.2540443"><ele>610.0</ele><time>2026-03-24T10:42:11.821Z</time></trkpt><trkpt lat="45.9557256" lon="9.2539281"><ele>610.0</ele><time>2026-03-24T10:42:12.822Z</time></trkpt><trkpt lat="45.9558147" lon="9.2538271"><ele>610.0</ele><time>2026-03-24T10:42:13.821Z</time></trkpt><trkpt lat="45.9558892" lon="9.2536843"><ele>606.8</ele><time>2026-03-24T10:42:14.826Z</time></trkpt><trkpt lat="45.9559532" lon="9.2535531"><ele>603.6</ele><time>2026-03-24T10:42:15.829Z</time></trkpt><trkpt lat="45.956012" lon="9.2534456"><ele>600.4</ele><time>2026-03-24T10:42:16.837Z</time></trkpt><trkpt lat="45.9560224" lon="9.2532883"><ele>597.2</ele><time>2026-03-24T10:42:17.825Z</time></trkpt><trkpt lat="45.9560572" lon="9.2531223"><ele>594.0</ele><time>2026-03-24T10:42:18.823Z</time></trkpt><trkpt lat="45.9561153" lon="9.252975"><ele>594.0</ele><time>2026-03-24T10:42:19.835Z</time></trkpt><trkpt lat="45.9561872" lon="9.2528154"><ele>594.0</ele><time>2026-03-24T10:42:20.834Z</time></trkpt><trkpt lat="45.9562807" lon="9.2526665"><ele>594.0</ele><time>2026-03-24T10:42:21.839Z</time></trkpt><trkpt lat="45.9564095" lon="9.252543"><ele>594.0</ele><time>2026-03-24T10:42:22.834Z</time></trkpt><trkpt lat="45.9565613" lon="9.2524114"><ele>596.0</ele><time>2026-03-24T10:42:23.836Z</time></trkpt><trkpt lat="45.956669" lon="9.2522522"><ele>598.0</ele><time>2026-03-24T10:42:24.837Z</time></trkpt><trkpt lat="45.956761" lon="9.2520928"><ele>600.0</ele><time>2026-03-24T10:42:25.838Z</time></trkpt><trkpt lat="45.9568335" lon="9.2519669"><ele>602.0</ele><time>2026-03-24T10:42:26.836Z</time></trkpt><trkpt lat="45.9569104" lon="9.2518514"><ele>594.3333333333333</ele><time>2026-03-24T10:42:27.839Z</time></trkpt><trkpt lat="45.956968" lon="9.2516938"><ele>586.6666666666666</ele><time>2026-03-24T10:42:28.853Z</time></trkpt><trkpt lat="45.9570232" lon="9.2514603"><ele>579.0</ele><time>2026-03-24T10:42:29.837Z</time></trkpt><trkpt lat="45.9570799" lon="9.2512086"><ele>578.75</ele><time>2026-03-24T10:42:30.846Z</time></trkpt><trkpt lat="45.9571255" lon="9.2509818"><ele>578.5</ele><time>2026-03-24T10:42:31.847Z</time></trkpt><trkpt lat="45.9571496" lon="9.2507883"><ele>578.25</ele><time>2026-03-24T10:42:32.841Z</time></trkpt><trkpt lat="45.9571621" lon="9.2506371"><ele>578.0</ele><time>2026-03-24T10:42:33.84Z</time></trkpt><trkpt lat="45.9571456" lon="9.250538"><ele>578.0</ele><time>2026-03-24T10:42:34.834Z</time></trkpt><trkpt lat="45.9572184" lon="9.2504687"><ele>578.0</ele><time>2026-03-24T10:42:36.833Z</time></trkpt><trkpt lat="45.9572706" lon="9.2505358"><ele>578.0</ele><time>2026-03-24T10:42:37.836Z</time></trkpt><trkpt lat="45.957302" lon="9.2506908"><ele>578.0</ele><time>2026-03-24T10:42:38.831Z</time></trkpt><trkpt lat="45.9573099" lon="9.2509128"><ele>578.0</ele><time>2026-03-24T10:42:39.829Z</time></trkpt><trkpt lat="45.9573164" lon="9.2511171"><ele>578.0</ele><time>2026-03-24T10:42:40.832Z</time></trkpt><trkpt lat="45.9573136" lon="9.2513268"><ele>578.0</ele><time>2026-03-24T10:42:41.823Z</time></trkpt><trkpt lat="45.9572909" lon="9.2515329"><ele>578.0</ele><time>2026-03-24T10:42:42.823Z</time></trkpt><trkpt lat="45.9572931" lon="9.2517264"><ele>578.0</ele><time>2026-03-24T10:42:43.822Z</time></trkpt><trkpt lat="45.9573419" lon="9.2518858"><ele>578.1999999999999</ele><time>2026-03-24T10:42:44.83Z</time></trkpt><trkpt lat="45.9573826" lon="9.2520436"><ele>578.4</ele><time>2026-03-24T10:42:45.821Z</time></trkpt><trkpt lat="45.9574173" lon="9.2521859"><ele>578.5999999999999</ele><time>2026-03-24T10:42:46.834Z</time></trkpt><trkpt lat="45.9574204" lon="9.2523164"><ele>578.8</ele><time>2026-03-24T10:42:47.827Z</time></trkpt><trkpt lat="45.9574166" lon="9.2524385"><ele>579.0</ele><time>2026-03-24T10:42:48.828Z</time></trkpt><trkpt lat="45.9574176" lon="9.2525461"><ele>579.4</ele><time>2026-03-24T10:42:49.839Z</time></trkpt><trkpt lat="45.9574906" lon="9.2526138"><ele>579.8</ele><time>2026-03-24T10:42:50.83Z</time></trkpt><trkpt lat="45.9575664" lon="9.2526557"><ele>580.2</ele><time>2026-03-24T10:42:51.84Z</time></trkpt><trkpt lat="45.9576727" lon="9.2525995"><ele>580.6</ele><time>2026-03-24T10:42:52.822Z</time></trkpt><trkpt lat="45.9578135" lon="9.2524991"><ele>581.0</ele><time>2026-03-24T10:42:53.83Z</time></trkpt><trkpt lat="45.9579988" lon="9.2522999"><ele>581.3333333333333</ele><time>2026-03-24T10:42:54.821Z</time></trkpt><trkpt lat="45.9581852" lon="9.2520971"><ele>581.6666666666666</ele><time>2026-03-24T10:42:55.821Z</time></trkpt><trkpt lat="45.9583487" lon="9.2519256"><ele>582.0</ele><time>2026-03-24T10:42:56.832Z</time></trkpt><trkpt lat="45.9584706" lon="9.2517995"><ele>582.0</ele><time>2026-03-24T10:42:57.828Z</time></trkpt><trkpt lat="45.9585958" lon="9.2517381"><ele>582.0</ele><time>2026-03-24T10:42:58.829Z</time></trkpt><trkpt lat="45.9587208" lon="9.2516192"><ele>582.0</ele><time>2026-03-24T10:42:59.844Z</time></trkpt><trkpt lat="45.9588155" lon="9.251415"><ele>571.6666666666666</ele><time>2026-03-24T10:43:00.83Z</time></trkpt><trkpt lat="45.9589096" lon="9.2512472"><ele>561.3333333333333</ele><time>2026-03-24T10:43:01.825Z</time></trkpt><trkpt lat="45.9590101" lon="9.2510347"><ele>551.0</ele><time>2026-03-24T10:43:02.825Z</time></trkpt><trkpt lat="45.9590855" lon="9.2508405"><ele>551.0</ele><time>2026-03-24T10:43:03.833Z</time></trkpt><trkpt lat="45.9591705" lon="9.2506538"><ele>551.0</ele><time>2026-03-24T10:43:04.834Z</time></trkpt><trkpt lat="45.9592581" lon="9.2504813"><ele>551.0</ele><time>2026-03-24T10:43:05.835Z</time></trkpt><trkpt lat="45.9593855" lon="9.2503509"><ele>547.3333333333333</ele><time>2026-03-24T10:43:06.832Z</time></trkpt><trkpt lat="45.9595004" lon="9.2502178"><ele>543.6666666666666</ele><time>2026-03-24T10:43:07.831Z</time></trkpt><trkpt lat="45.9596585" lon="9.2500775"><ele>540.0</ele><time>2026-03-24T10:43:08.838Z</time></trkpt><trkpt lat="45.9598316" lon="9.2499754"><ele>540.0</ele><time>2026-03-24T10:43:09.838Z</time></trkpt><trkpt lat="45.9599866" lon="9.2498741"><ele>540.0</ele><time>2026-03-24T10:43:10.836Z</time></trkpt><trkpt lat="45.9601351" lon="9.2497854"><ele>540.0</ele><time>2026-03-24T10:43:11.835Z</time></trkpt><trkpt lat="45.9602931" lon="9.249731"><ele>530.6666666666666</ele><time>2026-03-24T10:43:12.839Z</time></trkpt><trkpt lat="45.9604632" lon="9.2496586"><ele>521.3333333333333</ele><time>2026-03-24T10:43:13.837Z</time></trkpt><trkpt lat="45.9606228" lon="9.2496595"><ele>512.0</ele><time>2026-03-24T10:43:14.831Z</time></trkpt><trkpt lat="45.9607755" lon="9.2496768"><ele>513.5</ele><time>2026-03-24T10:43:15.83Z</time></trkpt><trkpt lat="45.9609074" lon="9.2497269"><ele>515.0</ele><time>2026-03-24T10:43:16.825Z</time></trkpt><trkpt lat="45.9610508" lon="9.2497628"><ele>516.5</ele><time>2026-03-24T10:43:17.82Z</time></trkpt><trkpt lat="45.9611983" lon="9.24981"><ele>518.0</ele><time>2026-03-24T10:43:18.817Z</time></trkpt><trkpt lat="45.9613493" lon="9.2498539"><ele>518.0</ele><time>2026-03-24T10:43:19.834Z</time></trkpt><trkpt lat="45.9615021" lon="9.2499552"><ele>518.0</ele><time>2026-03-24T10:43:20.816Z</time></trkpt><trkpt lat="45.96167" lon="9.2500402"><ele>518.0</ele><time>2026-03-24T10:43:21.824Z</time></trkpt><trkpt lat="45.9617818" lon="9.2500956"><ele>511.5</ele><time>2026-03-24T10:43:22.823Z</time></trkpt><trkpt lat="45.9618925" lon="9.2501468"><ele>505.0</ele><time>2026-03-24T10:43:23.82Z</time></trkpt><trkpt lat="45.9620399" lon="9.250211"><ele>498.5</ele><time>2026-03-24T10:43:24.83Z</time></trkpt><trkpt lat="45.9621151" lon="9.2504095"><ele>492.0</ele><time>2026-03-24T10:43:25.835Z</time></trkpt><trkpt lat="45.9621779" lon="9.2506074"><ele>495.0</ele><time>2026-03-24T10:43:26.836Z</time></trkpt><trkpt lat="45.9622681" lon="9.2507682"><ele>498.0</ele><time>2026-03-24T10:43:27.848Z</time></trkpt><trkpt lat="45.9623674" lon="9.2509193"><ele>501.0</ele><time>2026-03-24T10:43:28.842Z</time></trkpt><trkpt lat="45.9624373" lon="9.2511052"><ele>504.0</ele><time>2026-03-24T10:43:29.847Z</time></trkpt><trkpt lat="45.9624718" lon="9.2512559"><ele>504.0</ele><time>2026-03-24T10:43:30.86Z</time></trkpt><trkpt lat="45.9624555" lon="9.2514176"><ele>504.0</ele><time>2026-03-24T10:43:31.849Z</time></trkpt><trkpt lat="45.9624472" lon="9.2515762"><ele>504.0</ele><time>2026-03-24T10:43:32.85Z</time></trkpt><trkpt lat="45.9624332" lon="9.2517566"><ele>504.0</ele><time>2026-03-24T10:43:33.841Z</time></trkpt><trkpt lat="45.9624341" lon="9.2519339"><ele>503.5</ele><time>2026-03-24T10:43:34.844Z</time></trkpt><trkpt lat="45.9624427" lon="9.2521215"><ele>503.0</ele><time>2026-03-24T10:43:35.845Z</time></trkpt><trkpt lat="45.9624539" lon="9.2523008"><ele>502.5</ele><time>2026-03-24T10:43:36.853Z</time></trkpt><trkpt lat="45.9624731" lon="9.2524633"><ele>502.0</ele><time>2026-03-24T10:43:37.848Z</time></trkpt><trkpt lat="45.9625" lon="9.2526239"><ele>499.0</ele><time>2026-03-24T10:43:38.846Z</time></trkpt><trkpt lat="45.9625488" lon="9.2527819"><ele>496.00000000000006</ele><time>2026-03-24T10:43:39.852Z</time></trkpt><trkpt lat="45.9626129" lon="9.2529124"><ele>493.00000000000006</ele><time>2026-03-24T10:43:40.85Z</time></trkpt><trkpt lat="45.9626728" lon="9.2530254"><ele>490.0</ele><time>2026-03-24T10:43:41.844Z</time></trkpt><trkpt lat="45.9627483" lon="9.2531164"><ele>487.0</ele><time>2026-03-24T10:43:42.849Z</time></trkpt><trkpt lat="45.9628318" lon="9.2531871"><ele>487.0</ele><time>2026-03-24T10:43:43.828Z</time></trkpt><trkpt lat="45.9629322" lon="9.2532428"><ele>487.00000000000006</ele><time>2026-03-24T10:43:44.828Z</time></trkpt><trkpt lat="45.9630445" lon="9.2532377"><ele>487.00000000000006</ele><time>2026-03-24T10:43:45.809Z</time></trkpt><trkpt lat="45.9630998" lon="9.2531356"><ele>487.0</ele><time>2026-03-24T10:43:47.814Z</time></trkpt><trkpt lat="45.9631133" lon="9.2530418"><ele>487.0</ele><time>2026-03-24T10:43:48.805Z</time></trkpt><trkpt lat="45.9630857" lon="9.2529026"><ele>482.6666666666667</ele><time>2026-03-24T10:43:49.815Z</time></trkpt><trkpt lat="45.9630081" lon="9.2526772"><ele>478.33333333333337</ele><time>2026-03-24T10:43:50.825Z</time></trkpt><trkpt lat="45.9629797" lon="9.2524287"><ele>474.0</ele><time>2026-03-24T10:43:51.822Z</time></trkpt><trkpt lat="45.9629826" lon="9.2521843"><ele>474.0</ele><time>2026-03-24T10:43:52.836Z</time></trkpt><trkpt lat="45.9629837" lon="9.2519647"><ele>474.0</ele><time>2026-03-24T10:43:53.832Z</time></trkpt><trkpt lat="45.9630016" lon="9.2517493"><ele>474.0</ele><time>2026-03-24T10:43:54.844Z</time></trkpt><trkpt lat="45.9630051" lon="9.2515595"><ele>474.0</ele><time>2026-03-24T10:43:55.835Z</time></trkpt><trkpt lat="45.9629746" lon="9.2514009"><ele>474.0</ele><time>2026-03-24T10:43:56.836Z</time></trkpt><trkpt lat="45.9629241" lon="9.2512605"><ele>474.0</ele><time>2026-03-24T10:43:57.833Z</time></trkpt><trkpt lat="45.9628679" lon="9.2511192"><ele>474.0</ele><time>2026-03-24T10:43:58.833Z</time></trkpt><trkpt lat="45.9628336" lon="9.2509972"><ele>474.0</ele><time>2026-03-24T10:43:59.84Z</time></trkpt><trkpt lat="45.9628099" lon="9.2509051"><ele>474.0</ele><time>2026-03-24T10:44:01.841Z</time></trkpt><trkpt lat="45.9627464" lon="9.2508469"><ele>474.0</ele><time>2026-03-24T10:44:03.816Z</time></trkpt><trkpt lat="45.9626809" lon="9.2509263"><ele>474.0</ele><time>2026-03-24T10:44:05.809Z</time></trkpt><trkpt lat="45.9625854" lon="9.2510958"><ele>474.0</ele><time>2026-03-24T10:44:07.802Z</time></trkpt><trkpt lat="45.9625782" lon="9.2512954"><ele>474.0</ele><time>2026-03-24T10:44:09.8Z</time></trkpt><trkpt lat="45.9626423" lon="9.2513804"><ele>473.0</ele><time>2026-03-24T10:44:11.798Z</time></trkpt><trkpt lat="45.9628333" lon="9.2515064"><ele>472.0</ele><time>2026-03-24T10:44:12.809Z</time></trkpt><trkpt lat="45.9629631" lon="9.2517597"><ele>471.0</ele><time>2026-03-24T10:44:14.821Z</time></trkpt><trkpt lat="45.9629887" lon="9.2518762"><ele>471.0</ele><time>2026-03-24T10:44:15.813Z</time></trkpt><trkpt lat="45.9630009" lon="9.2520345"><ele>471.0</ele><time>2026-03-24T10:44:16.823Z</time></trkpt><trkpt lat="45.9629583" lon="9.2521626"><ele>471.0</ele><time>2026-03-24T10:44:17.825Z</time></trkpt><trkpt lat="45.9629609" lon="9.2522612"><ele>471.0</ele><time>2026-03-24T10:44:18.822Z</time></trkpt><trkpt lat="45.9630049" lon="9.2523822"><ele>471.0</ele><time>2026-03-24T10:44:19.835Z</time></trkpt><trkpt lat="45.9630363" lon="9.2524851"><ele>471.75</ele><time>2026-03-24T10:44:20.809Z</time></trkpt><trkpt lat="45.9631269" lon="9.2525917"><ele>472.5</ele><time>2026-03-24T10:44:21.826Z</time></trkpt><trkpt lat="45.9632033" lon="9.2526766"><ele>473.25</ele><time>2026-03-24T10:44:22.813Z</time></trkpt><trkpt lat="45.9633268" lon="9.2527709"><ele>474.0</ele><time>2026-03-24T10:44:23.821Z</time></trkpt><trkpt lat="45.9634342" lon="9.2528104"><ele>469.5</ele><time>2026-03-24T10:44:24.81Z</time></trkpt><trkpt lat="45.963579" lon="9.2528938"><ele>465.0</ele><time>2026-03-24T10:44:25.826Z</time></trkpt><trkpt lat="45.963704" lon="9.2529569"><ele>460.5</ele><time>2026-03-24T10:44:26.816Z</time></trkpt><trkpt lat="45.963845" lon="9.2530526"><ele>456.0</ele><time>2026-03-24T10:44:27.826Z</time></trkpt><trkpt lat="45.9639371" lon="9.2531519"><ele>456.0</ele><time>2026-03-24T10:44:28.803Z</time></trkpt><trkpt lat="45.9640153" lon="9.2532909"><ele>456.0</ele><time>2026-03-24T10:44:29.813Z</time></trkpt><trkpt lat="45.9641098" lon="9.2534416"><ele>456.0</ele><time>2026-03-24T10:44:30.813Z</time></trkpt><trkpt lat="45.9642416" lon="9.2535678"><ele>456.0</ele><time>2026-03-24T10:44:31.813Z</time></trkpt><trkpt lat="45.9643784" lon="9.2536789"><ele>447.33333333333337</ele><time>2026-03-24T10:44:32.825Z</time></trkpt><trkpt lat="45.964518" lon="9.2537954"><ele>438.6666666666667</ele><time>2026-03-24T10:44:33.805Z</time></trkpt><trkpt lat="45.9647095" lon="9.2539019"><ele>430.0</ele><time>2026-03-24T10:44:34.81Z</time></trkpt><trkpt lat="45.9649269" lon="9.2539066"><ele>425.75</ele><time>2026-03-24T10:44:35.813Z</time></trkpt><trkpt lat="45.9650801" lon="9.253942"><ele>421.5</ele><time>2026-03-24T10:44:36.816Z</time></trkpt><trkpt lat="45.9651449" lon="9.254016"><ele>417.25</ele><time>2026-03-24T10:44:37.818Z</time></trkpt><trkpt lat="45.965192" lon="9.2541531"><ele>413.0</ele><time>2026-03-24T10:44:38.826Z</time></trkpt><trkpt lat="45.9652789" lon="9.2543325"><ele>413.0</ele><time>2026-03-24T10:44:39.831Z</time></trkpt><trkpt lat="45.965372" lon="9.2545083"><ele>413.0</ele><time>2026-03-24T10:44:40.832Z</time></trkpt><trkpt lat="45.9654455" lon="9.2546626"><ele>413.0</ele><time>2026-03-24T10:44:41.846Z</time></trkpt><trkpt lat="45.9655201" lon="9.2547946"><ele>413.0</ele><time>2026-03-24T10:44:42.832Z</time></trkpt><trkpt lat="45.9655885" lon="9.2549346"><ele>415.0</ele><time>2026-03-24T10:44:43.832Z</time></trkpt><trkpt lat="45.965694" lon="9.2550883"><ele>417.0</ele><time>2026-03-24T10:44:44.837Z</time></trkpt><trkpt lat="45.9657851" lon="9.2552651"><ele>419.0</ele><time>2026-03-24T10:44:45.837Z</time></trkpt><trkpt lat="45.9658408" lon="9.2553959"><ele>421.0</ele><time>2026-03-24T10:44:46.836Z</time></trkpt><trkpt lat="45.9658897" lon="9.2554874"><ele>421.0</ele><time>2026-03-24T10:44:47.839Z</time></trkpt><trkpt lat="45.965804" lon="9.2553255"><ele>421.0</ele><time>2026-03-24T10:44:51.831Z</time></trkpt><trkpt lat="45.9657475" lon="9.2551936"><ele>421.0</ele><time>2026-03-24T10:44:52.835Z</time></trkpt><trkpt lat="45.9656838" lon="9.2550348"><ele>421.0</ele><time>2026-03-24T10:44:53.833Z</time></trkpt><trkpt lat="45.9656228" lon="9.2548516"><ele>419.4</ele><time>2026-03-24T10:44:54.833Z</time></trkpt><trkpt lat="45.9655687" lon="9.2546662"><ele>417.8</ele><time>2026-03-24T10:44:55.83Z</time></trkpt><trkpt lat="45.9655336" lon="9.2545202"><ele>416.2</ele><time>2026-03-24T10:44:56.836Z</time></trkpt><trkpt lat="45.9655033" lon="9.2543877"><ele>414.59999999999997</ele><time>2026-03-24T10:44:57.844Z</time></trkpt><trkpt lat="45.9654995" lon="9.2542826"><ele>413.0</ele><time>2026-03-24T10:44:58.851Z</time></trkpt><trkpt lat="45.9655189" lon="9.2541627"><ele>413.0</ele><time>2026-03-24T10:44:59.858Z</time></trkpt><trkpt lat="45.9655879" lon="9.2541141"><ele>413.0</ele><time>2026-03-24T10:45:00.837Z</time></trkpt><trkpt lat="45.9657135" lon="9.2541204"><ele>413.0</ele><time>2026-03-24T10:45:01.846Z</time></trkpt><trkpt lat="45.9658082" lon="9.2542307"><ele>413.0</ele><time>2026-03-24T10:45:02.846Z</time></trkpt><trkpt lat="45.9658739" lon="9.2543489"><ele>413.0</ele><time>2026-03-24T10:45:03.867Z</time></trkpt><trkpt lat="45.965899" lon="9.254462"><ele>411.59999999999997</ele><time>2026-03-24T10:45:04.856Z</time></trkpt><trkpt lat="45.9658971" lon="9.2545899"><ele>410.2</ele><time>2026-03-24T10:45:05.852Z</time></trkpt><trkpt lat="45.9659075" lon="9.2547437"><ele>408.8</ele><time>2026-03-24T10:45:06.857Z</time></trkpt><trkpt lat="45.9659433" lon="9.2548679"><ele>407.4</ele><time>2026-03-24T10:45:07.836Z</time></trkpt><trkpt lat="45.9659734" lon="9.2549899"><ele>406.0</ele><time>2026-03-24T10:45:08.83Z</time></trkpt><trkpt lat="45.965999" lon="9.2551046"><ele>406.0</ele><time>2026-03-24T10:45:09.828Z</time></trkpt><trkpt lat="45.9660369" lon="9.2552026"><ele>406.0</ele><time>2026-03-24T10:45:10.828Z</time></trkpt><trkpt lat="45.9660977" lon="9.2552558"><ele>406.0</ele><time>2026-03-24T10:45:11.822Z</time></trkpt><trkpt lat="45.9661397" lon="9.2551865"><ele>406.0</ele><time>2026-03-24T10:45:15.824Z</time></trkpt><trkpt lat="45.9661453" lon="9.255091"><ele>406.0</ele><time>2026-03-24T10:45:17.821Z</time></trkpt><trkpt lat="45.9661751" lon="9.2549899"><ele>406.0</ele><time>2026-03-24T10:45:18.823Z</time></trkpt><trkpt lat="45.9662267" lon="9.2548867"><ele>406.0</ele><time>2026-03-24T10:45:19.837Z</time></trkpt><trkpt lat="45.966266" lon="9.2547552"><ele>406.0</ele><time>2026-03-24T10:45:20.83Z</time></trkpt><trkpt lat="45.9663233" lon="9.2545884"><ele>406.0</ele><time>2026-03-24T10:45:21.836Z</time></trkpt><trkpt lat="45.9663855" lon="9.2544874"><ele>406.0</ele><time>2026-03-24T10:45:22.837Z</time></trkpt><trkpt lat="45.9664214" lon="9.2543162"><ele>406.0</ele><time>2026-03-24T10:45:23.834Z</time></trkpt><trkpt lat="45.9664403" lon="9.2541433"><ele>401.75</ele><time>2026-03-24T10:45:24.826Z</time></trkpt><trkpt lat="45.9664095" lon="9.2539389"><ele>397.5</ele><time>2026-03-24T10:45:25.847Z</time></trkpt><trkpt lat="45.9663806" lon="9.2537473"><ele>393.25</ele><time>2026-03-24T10:45:26.838Z</time></trkpt><trkpt lat="45.9663544" lon="9.2535678"><ele>389.0</ele><time>2026-03-24T10:45:27.838Z</time></trkpt><trkpt lat="45.9663267" lon="9.2533716"><ele>389.0</ele><time>2026-03-24T10:45:28.836Z</time></trkpt><trkpt lat="45.9662956" lon="9.253229"><ele>389.0</ele><time>2026-03-24T10:45:29.838Z</time></trkpt><trkpt lat="45.9662172" lon="9.253164"><ele>389.0</ele><time>2026-03-24T10:45:30.839Z</time></trkpt><trkpt lat="45.9661348" lon="9.253152"><ele>389.0</ele><time>2026-03-24T10:45:31.828Z</time></trkpt><trkpt lat="45.9660238" lon="9.253154"><ele>389.0</ele><time>2026-03-24T10:45:32.837Z</time></trkpt><trkpt lat="45.9659219" lon="9.2531413"><ele>386.79999999999995</ele><time>2026-03-24T10:45:33.86Z</time></trkpt><trkpt lat="45.9658591" lon="9.2531153"><ele>384.59999999999997</ele><time>2026-03-24T10:45:34.831Z</time></trkpt><trkpt lat="45.9659049" lon="9.2530096"><ele>382.4</ele><time>2026-03-24T10:45:37.838Z</time></trkpt><trkpt lat="45.9660294" lon="9.2529999"><ele>380.2</ele><time>2026-03-24T10:45:38.843Z</time></trkpt><trkpt lat="45.9661774" lon="9.2530062"><ele>378.0</ele><time>2026-03-24T10:45:39.831Z</time></trkpt><trkpt lat="45.9663315" lon="9.2529911"><ele>378.0</ele><time>2026-03-24T10:45:40.839Z</time></trkpt><trkpt lat="45.9664875" lon="9.2529449"><ele>378.0</ele><time>2026-03-24T10:45:41.833Z</time></trkpt><trkpt lat="45.9666775" lon="9.2528746"><ele>378.0</ele><time>2026-03-24T10:45:42.835Z</time></trkpt><trkpt lat="45.966873" lon="9.2527798"><ele>376.25</ele><time>2026-03-24T10:45:43.839Z</time></trkpt><trkpt lat="45.9670295" lon="9.2527116"><ele>374.5</ele><time>2026-03-24T10:45:44.842Z</time></trkpt><trkpt lat="45.9671827" lon="9.2526934"><ele>372.75</ele><time>2026-03-24T10:45:45.834Z</time></trkpt><trkpt lat="45.9673138" lon="9.2526771"><ele>371.0</ele><time>2026-03-24T10:45:46.831Z</time></trkpt><trkpt lat="45.9673803" lon="9.2527328"><ele>371.0</ele><time>2026-03-24T10:45:47.832Z</time></trkpt><trkpt lat="45.9675081" lon="9.2527755"><ele>371.0</ele><time>2026-03-24T10:45:49.838Z</time></trkpt><trkpt lat="45.9675654" lon="9.2528872"><ele>371.0</ele><time>2026-03-24T10:45:50.831Z</time></trkpt><trkpt lat="45.9676496" lon="9.253064"><ele>371.0</ele><time>2026-03-24T10:45:51.837Z</time></trkpt><trkpt lat="45.9677584" lon="9.253235"><ele>365.33333333333337</ele><time>2026-03-24T10:45:52.839Z</time></trkpt><trkpt lat="45.9679095" lon="9.253394"><ele>359.6666666666667</ele><time>2026-03-24T10:45:53.85Z</time></trkpt><trkpt lat="45.9680357" lon="9.2535279"><ele>354.0</ele><time>2026-03-24T10:45:54.85Z</time></trkpt><trkpt lat="45.9681984" lon="9.253652"><ele>354.0</ele><time>2026-03-24T10:45:55.847Z</time></trkpt><trkpt lat="45.9683099" lon="9.2537839"><ele>354.0</ele><time>2026-03-24T10:45:56.843Z</time></trkpt><trkpt lat="45.9684022" lon="9.2539081"><ele>354.0</ele><time>2026-03-24T10:45:57.838Z</time></trkpt><trkpt lat="45.9685116" lon="9.2539594"><ele>354.0</ele><time>2026-03-24T10:45:58.827Z</time></trkpt><trkpt lat="45.9686359" lon="9.2539836"><ele>350.6</ele><time>2026-03-24T10:45:59.831Z</time></trkpt><trkpt lat="45.9687236" lon="9.2540045"><ele>347.2</ele><time>2026-03-24T10:46:00.837Z</time></trkpt><trkpt lat="45.9688025" lon="9.2540322"><ele>343.8</ele><time>2026-03-24T10:46:01.841Z</time></trkpt><trkpt lat="45.9688873" lon="9.2541124"><ele>340.40000000000003</ele><time>2026-03-24T10:46:02.837Z</time></trkpt><trkpt lat="45.9689649" lon="9.2542077"><ele>337.0</ele><time>2026-03-24T10:46:03.835Z</time></trkpt><trkpt lat="45.9690373" lon="9.254349"><ele>337.0</ele><time>2026-03-24T10:46:04.852Z</time></trkpt><trkpt lat="45.969077" lon="9.2545167"><ele>337.0</ele><time>2026-03-24T10:46:05.835Z</time></trkpt><trkpt lat="45.9691085" lon="9.254689"><ele>337.0</ele><time>2026-03-24T10:46:06.837Z</time></trkpt><trkpt lat="45.9690893" lon="9.2548604"><ele>337.0</ele><time>2026-03-24T10:46:07.845Z</time></trkpt><trkpt lat="45.969057" lon="9.2550233"><ele>336.66666666666663</ele><time>2026-03-24T10:46:08.854Z</time></trkpt><trkpt lat="45.9690237" lon="9.255154"><ele>336.3333333333333</ele><time>2026-03-24T10:46:09.83Z</time></trkpt><trkpt lat="45.9690365" lon="9.2552482"><ele>336.0</ele><time>2026-03-24T10:46:10.842Z</time></trkpt><trkpt lat="45.9690771" lon="9.2553821"><ele>335.6666666666667</ele><time>2026-03-24T10:46:12.827Z</time></trkpt><trkpt lat="45.969155" lon="9.2553632"><ele>335.33333333333337</ele><time>2026-03-24T10:46:13.829Z</time></trkpt><trkpt lat="45.9692401" lon="9.2553045"><ele>335.0</ele><time>2026-03-24T10:46:14.833Z</time></trkpt><trkpt lat="45.9693117" lon="9.2552831"><ele>333.4</ele><time>2026-03-24T10:46:15.836Z</time></trkpt><trkpt lat="45.9693905" lon="9.2552949"><ele>331.8</ele><time>2026-03-24T10:46:16.828Z</time></trkpt><trkpt lat="45.9694829" lon="9.2553438"><ele>330.20000000000005</ele><time>2026-03-24T10:46:17.834Z</time></trkpt><trkpt lat="45.9696003" lon="9.2553859"><ele>328.6</ele><time>2026-03-24T10:46:18.828Z</time></trkpt><trkpt lat="45.9697199" lon="9.2554506"><ele>327.0</ele><time>2026-03-24T10:46:19.844Z</time></trkpt><trkpt lat="45.9698423" lon="9.255546"><ele>326.5</ele><time>2026-03-24T10:46:20.839Z</time></trkpt><trkpt lat="45.9699515" lon="9.2556568"><ele>326.0</ele><time>2026-03-24T10:46:21.839Z</time></trkpt><trkpt lat="45.9700586" lon="9.2557757"><ele>325.5</ele><time>2026-03-24T10:46:22.837Z</time></trkpt><trkpt lat="45.9701629" lon="9.2558882"><ele>325.0</ele><time>2026-03-24T10:46:23.827Z</time></trkpt><trkpt lat="45.9702404" lon="9.256043"><ele>322.25</ele><time>2026-03-24T10:46:24.834Z</time></trkpt><trkpt lat="45.9703079" lon="9.2562168"><ele>319.5</ele><time>2026-03-24T10:46:25.832Z</time></trkpt><trkpt lat="45.9703635" lon="9.2563779"><ele>316.75</ele><time>2026-03-24T10:46:26.843Z</time></trkpt><trkpt lat="45.9703633" lon="9.2565565"><ele>314.0</ele><time>2026-03-24T10:46:27.838Z</time></trkpt><trkpt lat="45.9703497" lon="9.2567349"><ele>312.75</ele><time>2026-03-24T10:46:28.844Z</time></trkpt><trkpt lat="45.9703254" lon="9.2569028"><ele>311.5</ele><time>2026-03-24T10:46:29.846Z</time></trkpt><trkpt lat="45.9702886" lon="9.2570732"><ele>310.25</ele><time>2026-03-24T10:46:30.853Z</time></trkpt><trkpt lat="45.9702528" lon="9.2572474"><ele>309.0</ele><time>2026-03-24T10:46:31.849Z</time></trkpt><trkpt lat="45.9702058" lon="9.2574331"><ele>308.75</ele><time>2026-03-24T10:46:32.848Z</time></trkpt><trkpt lat="45.9701533" lon="9.2576153"><ele>308.5</ele><time>2026-03-24T10:46:33.85Z</time></trkpt><trkpt lat="45.9701092" lon="9.2577957"><ele>308.25</ele><time>2026-03-24T10:46:34.841Z</time></trkpt><trkpt lat="45.9700567" lon="9.2579782"><ele>308.0</ele><time>2026-03-24T10:46:35.848Z</time></trkpt><trkpt lat="45.9700157" lon="9.2581472"><ele>307.6</ele><time>2026-03-24T10:46:36.833Z</time></trkpt><trkpt lat="45.9700146" lon="9.2583048"><ele>307.20000000000005</ele><time>2026-03-24T10:46:37.838Z</time></trkpt><trkpt lat="45.9700342" lon="9.2584685"><ele>306.8</ele><time>2026-03-24T10:46:38.832Z</time></trkpt><trkpt lat="45.9700342" lon="9.2586223"><ele>306.40000000000003</ele><time>2026-03-24T10:46:39.83Z</time></trkpt><trkpt lat="45.9700679" lon="9.2587471"><ele>306.0</ele><time>2026-03-24T10:46:40.832Z</time></trkpt><trkpt lat="45.9701243" lon="9.2588498"><ele>306.0</ele><time>2026-03-24T10:46:41.832Z</time></trkpt><trkpt lat="45.9702056" lon="9.2589089"><ele>306.0</ele><time>2026-03-24T10:46:42.829Z</time></trkpt><trkpt lat="45.9703276" lon="9.258928"><ele>306.0</ele><time>2026-03-24T10:46:43.839Z</time></trkpt><trkpt lat="45.9704605" lon="9.2589315"><ele>306.0</ele><time>2026-03-24T10:46:44.837Z</time></trkpt><trkpt lat="45.9706352" lon="9.2588933"><ele>306.0</ele><time>2026-03-24T10:46:45.852Z</time></trkpt><trkpt lat="45.9707911" lon="9.2588428"><ele>306.0</ele><time>2026-03-24T10:46:46.854Z</time></trkpt><trkpt lat="45.9709356" lon="9.258798"><ele>306.0</ele><time>2026-03-24T10:46:47.853Z</time></trkpt><trkpt lat="45.9710727" lon="9.2587676"><ele>306.0</ele><time>2026-03-24T10:46:48.856Z</time></trkpt><trkpt lat="45.9712037" lon="9.2587576"><ele>303.75</ele><time>2026-03-24T10:46:49.853Z</time></trkpt><trkpt lat="45.9713571" lon="9.2587381"><ele>301.5</ele><time>2026-03-24T10:46:50.838Z</time></trkpt><trkpt lat="45.9715055" lon="9.2587872"><ele>299.25</ele><time>2026-03-24T10:46:51.83Z</time></trkpt><trkpt lat="45.9716196" lon="9.2589059"><ele>297.0</ele><time>2026-03-24T10:46:52.842Z</time></trkpt><trkpt lat="45.9717308" lon="9.2590408"><ele>294.5</ele><time>2026-03-24T10:46:53.829Z</time></trkpt><trkpt lat="45.9718226" lon="9.2591664"><ele>292.0</ele><time>2026-03-24T10:46:54.837Z</time></trkpt><trkpt lat="45.9719141" lon="9.2592716"><ele>289.5</ele><time>2026-03-24T10:46:55.835Z</time></trkpt><trkpt lat="45.9719914" lon="9.2593769"><ele>287.0</ele><time>2026-03-24T10:46:56.83Z</time></trkpt><trkpt lat="45.9720599" lon="9.2594849"><ele>287.0</ele><time>2026-03-24T10:46:57.834Z</time></trkpt><trkpt lat="45.9721295" lon="9.2596074"><ele>287.0</ele><time>2026-03-24T10:46:58.829Z</time></trkpt><trkpt lat="45.9722009" lon="9.2597367"><ele>287.0</ele><time>2026-03-24T10:46:59.837Z</time></trkpt><trkpt lat="45.9722552" lon="9.2598724"><ele>287.0</ele><time>2026-03-24T10:47:00.836Z</time></trkpt><trkpt lat="45.9723031" lon="9.2600084"><ele>287.0</ele><time>2026-03-24T10:47:01.831Z</time></trkpt><trkpt lat="45.9723455" lon="9.260134"><ele>286.6666666666667</ele><time>2026-03-24T10:47:02.82Z</time></trkpt><trkpt lat="45.9723899" lon="9.2602504"><ele>286.33333333333337</ele><time>2026-03-24T10:47:03.823Z</time></trkpt><trkpt lat="45.9724275" lon="9.2603478"><ele>286.0</ele><time>2026-03-24T10:47:04.833Z</time></trkpt><trkpt lat="45.972456" lon="9.2604405"><ele>285.6666666666667</ele><time>2026-03-24T10:47:05.837Z</time></trkpt><trkpt lat="45.9724888" lon="9.2605253"><ele>285.3333333333333</ele><time>2026-03-24T10:47:06.849Z</time></trkpt><trkpt lat="45.9725523" lon="9.2606434"><ele>285.0</ele><time>2026-03-24T10:47:08.83Z</time></trkpt><trkpt lat="45.9726375" lon="9.2606379"><ele>282.5</ele><time>2026-03-24T10:47:10.833Z</time></trkpt><trkpt lat="45.9727318" lon="9.2606571"><ele>280.0</ele><time>2026-03-24T10:47:12.826Z</time></trkpt><trkpt lat="45.9727897" lon="9.2606946"><ele>277.5</ele><time>2026-03-24T10:47:13.83Z</time></trkpt><trkpt lat="45.9728489" lon="9.2607602"><ele>275.0</ele><time>2026-03-24T10:47:14.836Z</time></trkpt><trkpt lat="45.9729003" lon="9.2608239"><ele>272.5</ele><time>2026-03-24T10:47:15.833Z</time></trkpt><trkpt lat="45.9729534" lon="9.2609155"><ele>270.0</ele><time>2026-03-24T10:47:16.843Z</time></trkpt><trkpt lat="45.9729956" lon="9.2610163"><ele>270.0</ele><time>2026-03-24T10:47:17.842Z</time></trkpt><trkpt lat="45.9730309" lon="9.2611021"><ele>270.0</ele><time>2026-03-24T10:47:18.838Z</time></trkpt><trkpt lat="45.9730822" lon="9.2611973"><ele>270.0</ele><time>2026-03-24T10:47:20.843Z</time></trkpt><trkpt lat="45.9731613" lon="9.2612822"><ele>270.0</ele><time>2026-03-24T10:48:00.871Z</time></trkpt><trkpt lat="45.9732219" lon="9.2613511"><ele>270.0</ele><time>2026-03-24T10:49:19.859Z</time></trkpt><trkpt lat="45.9732709" lon="9.2614225"><ele>270.0</ele><time>2026-03-24T10:49:28.85Z</time></trkpt><trkpt lat="45.9733617" lon="9.2614167"><ele>265.75</ele><time>2026-03-24T10:49:31.847Z</time></trkpt><trkpt lat="45.9734891" lon="9.2613282"><ele>261.5</ele><time>2026-03-24T10:49:33.836Z</time></trkpt><trkpt lat="45.9735789" lon="9.2612533"><ele>257.25</ele><time>2026-03-24T10:49:34.83Z</time></trkpt><trkpt lat="45.9736627" lon="9.2611453"><ele>253.0</ele><time>2026-03-24T10:49:35.833Z</time></trkpt><trkpt lat="45.9737246" lon="9.2610236"><ele>253.0</ele><time>2026-03-24T10:49:36.835Z</time></trkpt><trkpt lat="45.9737829" lon="9.2608455"><ele>253.0</ele><time>2026-03-24T10:49:37.833Z</time></trkpt><trkpt lat="45.9738281" lon="9.2606793"><ele>253.0</ele><time>2026-03-24T10:49:38.832Z</time></trkpt><trkpt lat="45.9738719" lon="9.2605214"><ele>253.0</ele><time>2026-03-24T10:49:39.83Z</time></trkpt><trkpt lat="45.9739039" lon="9.2603899"><ele>254.83333333333331</ele><time>2026-03-24T10:49:40.824Z</time></trkpt><trkpt lat="45.973932" lon="9.2602686"><ele>256.66666666666663</ele><time>2026-03-24T10:49:41.852Z</time></trkpt><trkpt lat="45.9739612" lon="9.2601562"><ele>258.5</ele><time>2026-03-24T10:49:42.825Z</time></trkpt><trkpt lat="45.9739865" lon="9.2600535"><ele>260.3333333333333</ele><time>2026-03-24T10:49:43.824Z</time></trkpt><trkpt lat="45.9740852" lon="9.2600174"><ele>262.1666666666667</ele><time>2026-03-24T10:49:45.824Z</time></trkpt><trkpt lat="45.9741325" lon="9.2601057"><ele>264.0</ele><time>2026-03-24T10:49:47.826Z</time></trkpt><trkpt lat="45.9741192" lon="9.2602377"><ele>264.0</ele><time>2026-03-24T10:49:48.818Z</time></trkpt><trkpt lat="45.9741181" lon="9.2603662"><ele>264.0</ele><time>2026-03-24T10:49:49.82Z</time></trkpt><trkpt lat="45.9740684" lon="9.2605436"><ele>264.0</ele><time>2026-03-24T10:49:50.818Z</time></trkpt><trkpt lat="45.9740015" lon="9.2607388"><ele>264.0</ele><time>2026-03-24T10:49:51.832Z</time></trkpt><trkpt lat="45.9739291" lon="9.2609265"><ele>262.0</ele><time>2026-03-24T10:49:52.848Z</time></trkpt><trkpt lat="45.973882" lon="9.261115"><ele>260.0</ele><time>2026-03-24T10:49:53.836Z</time></trkpt><trkpt lat="45.9738613" lon="9.2612766"><ele>258.0</ele><time>2026-03-24T10:49:54.822Z</time></trkpt><trkpt lat="45.9738743" lon="9.2614001"><ele>256.0</ele><time>2026-03-24T10:49:55.825Z</time></trkpt><trkpt lat="45.9739145" lon="9.2615111"><ele>254.0</ele><time>2026-03-24T10:49:56.818Z</time></trkpt><trkpt lat="45.9739906" lon="9.261582"><ele>254.0</ele><time>2026-03-24T10:49:57.821Z</time></trkpt><trkpt lat="45.97405" lon="9.2616863"><ele>253.99999999999997</ele><time>2026-03-24T10:49:58.825Z</time></trkpt><trkpt lat="45.9741161" lon="9.2617553"><ele>253.99999999999997</ele><time>2026-03-24T10:49:59.821Z</time></trkpt><trkpt lat="45.974198" lon="9.2618256"><ele>254.0</ele><time>2026-03-24T10:50:00.825Z</time></trkpt><trkpt lat="45.9743424" lon="9.2618329"><ele>254.0</ele><time>2026-03-24T10:50:01.813Z</time></trkpt><trkpt lat="45.974476" lon="9.2618436"><ele>251.5</ele><time>2026-03-24T10:50:02.813Z</time></trkpt><trkpt lat="45.9746193" lon="9.2618506"><ele>249.0</ele><time>2026-03-24T10:50:03.812Z</time></trkpt><trkpt lat="45.974736" lon="9.2619169"><ele>246.5</ele><time>2026-03-24T10:50:04.831Z</time></trkpt><trkpt lat="45.9748545" lon="9.2619971"><ele>244.0</ele><time>2026-03-24T10:50:05.835Z</time></trkpt><trkpt lat="45.9750068" lon="9.2620433"><ele>241.25</ele><time>2026-03-24T10:50:06.838Z</time></trkpt><trkpt lat="45.9751264" lon="9.2621027"><ele>238.5</ele><time>2026-03-24T10:50:07.826Z</time></trkpt><trkpt lat="45.9752389" lon="9.2621442"><ele>235.75</ele><time>2026-03-24T10:50:08.827Z</time></trkpt><trkpt lat="45.9753456" lon="9.2622106"><ele>233.0</ele><time>2026-03-24T10:50:09.818Z</time></trkpt><trkpt lat="45.9754711" lon="9.2622738"><ele>233.25</ele><time>2026-03-24T10:50:10.826Z</time></trkpt><trkpt lat="45.9755988" lon="9.2623039"><ele>233.5</ele><time>2026-03-24T10:50:11.823Z</time></trkpt><trkpt lat="45.9757545" lon="9.2623033"><ele>233.75</ele><time>2026-03-24T10:50:12.847Z</time></trkpt><trkpt lat="45.975917" lon="9.2623364"><ele>234.0</ele><time>2026-03-24T10:50:13.822Z</time></trkpt><trkpt lat="45.9760703" lon="9.2623735"><ele>234.0</ele><time>2026-03-24T10:50:14.822Z</time></trkpt><trkpt lat="45.9762533" lon="9.2624108"><ele>234.0</ele><time>2026-03-24T10:50:15.815Z</time></trkpt><trkpt lat="45.9764414" lon="9.2623992"><ele>234.0</ele><time>2026-03-24T10:50:16.817Z</time></trkpt><trkpt lat="45.9765679" lon="9.2624156"><ele>234.25</ele><time>2026-03-24T10:50:17.818Z</time></trkpt><trkpt lat="45.9766954" lon="9.2624688"><ele>234.5</ele><time>2026-03-24T10:50:18.825Z</time></trkpt><trkpt lat="45.9768076" lon="9.2625249"><ele>234.75</ele><time>2026-03-24T10:50:19.828Z</time></trkpt><trkpt lat="45.9769289" lon="9.2625428"><ele>235.0</ele><time>2026-03-24T10:50:20.824Z</time></trkpt><trkpt lat="45.9770322" lon="9.2625704"><ele>234.99999999999997</ele><time>2026-03-24T10:50:21.822Z</time></trkpt><trkpt lat="45.9771213" lon="9.2625973"><ele>235.0</ele><time>2026-03-24T10:50:22.823Z</time></trkpt><trkpt lat="45.9771983" lon="9.2626135"><ele>235.0</ele><time>2026-03-24T10:50:23.82Z</time></trkpt><trkpt lat="45.977274" lon="9.2626123"><ele>235.0</ele><time>2026-03-24T10:50:24.817Z</time></trkpt><trkpt lat="45.9773901" lon="9.2625431"><ele>234.99999999999997</ele><time>2026-03-24T10:50:26.817Z</time></trkpt><trkpt lat="45.9774333" lon="9.2624574"><ele>235.0</ele><time>2026-03-24T10:50:27.816Z</time></trkpt><trkpt lat="45.9774439" lon="9.2623659"><ele>235.6</ele><time>2026-03-24T10:50:28.818Z</time></trkpt><trkpt lat="45.9774173" lon="9.2622525"><ele>236.2</ele><time>2026-03-24T10:50:29.835Z</time></trkpt><trkpt lat="45.9773888" lon="9.2621213"><ele>236.8</ele><time>2026-03-24T10:50:30.826Z</time></trkpt><trkpt lat="45.977345" lon="9.2619828"><ele>237.4</ele><time>2026-03-24T10:50:31.824Z</time></trkpt><trkpt lat="45.9773098" lon="9.2618357"><ele>238.0</ele><time>2026-03-24T10:50:32.821Z</time></trkpt><trkpt lat="45.9772894" lon="9.2616605"><ele>239.0</ele><time>2026-03-24T10:50:33.814Z</time></trkpt><trkpt lat="45.9772788" lon="9.2614416"><ele>240.0</ele><time>2026-03-24T10:50:34.813Z</time></trkpt><trkpt lat="45.9772856" lon="9.2612492"><ele>241.0</ele><time>2026-03-24T10:50:35.808Z</time></trkpt><trkpt lat="45.9773053" lon="9.2610501"><ele>242.0</ele><time>2026-03-24T10:50:36.822Z</time></trkpt><trkpt lat="45.977333" lon="9.2608536"><ele>242.0</ele><time>2026-03-24T10:50:37.823Z</time></trkpt><trkpt lat="45.9773645" lon="9.260674"><ele>242.0</ele><time>2026-03-24T10:50:38.824Z</time></trkpt><trkpt lat="45.9774169" lon="9.2605065"><ele>242.0</ele><time>2026-03-24T10:50:39.819Z</time></trkpt><trkpt lat="45.9774863" lon="9.2603423"><ele>242.0</ele><time>2026-03-24T10:50:40.833Z</time></trkpt><trkpt lat="45.9775668" lon="9.2602225"><ele>243.39999999999998</ele><time>2026-03-24T10:50:41.832Z</time></trkpt><trkpt lat="45.9776384" lon="9.2601279"><ele>244.79999999999998</ele><time>2026-03-24T10:50:42.834Z</time></trkpt><trkpt lat="45.9777259" lon="9.2600399"><ele>246.2</ele><time>2026-03-24T10:50:43.85Z</time></trkpt><trkpt lat="45.977808" lon="9.2599563"><ele>247.6</ele><time>2026-03-24T10:50:44.828Z</time></trkpt><trkpt lat="45.9778852" lon="9.2598558"><ele>249.0</ele><time>2026-03-24T10:50:45.832Z</time></trkpt><trkpt lat="45.9779527" lon="9.2597422"><ele>249.0</ele><time>2026-03-24T10:50:46.836Z</time></trkpt><trkpt lat="45.9780148" lon="9.2596222"><ele>248.99999999999997</ele><time>2026-03-24T10:50:47.835Z</time></trkpt><trkpt lat="45.9780548" lon="9.2594784"><ele>248.99999999999997</ele><time>2026-03-24T10:50:48.834Z</time></trkpt><trkpt lat="45.9780804" lon="9.2593356"><ele>249.0</ele><time>2026-03-24T10:50:49.849Z</time></trkpt><trkpt lat="45.9781116" lon="9.2591796"><ele>249.0</ele><time>2026-03-24T10:50:50.836Z</time></trkpt><trkpt lat="45.9781432" lon="9.2590168"><ele>248.25</ele><time>2026-03-24T10:50:51.831Z</time></trkpt><trkpt lat="45.9781768" lon="9.2588547"><ele>247.5</ele><time>2026-03-24T10:50:52.829Z</time></trkpt><trkpt lat="45.9782118" lon="9.2586978"><ele>246.75</ele><time>2026-03-24T10:50:53.829Z</time></trkpt><trkpt lat="45.9782515" lon="9.2585412"><ele>246.0</ele><time>2026-03-24T10:50:54.829Z</time></trkpt><trkpt lat="45.9782863" lon="9.2583849"><ele>246.0</ele><time>2026-03-24T10:50:55.829Z</time></trkpt><trkpt lat="45.9783223" lon="9.2582448"><ele>246.00000000000003</ele><time>2026-03-24T10:50:56.831Z</time></trkpt><trkpt lat="45.9783537" lon="9.2581011"><ele>246.00000000000003</ele><time>2026-03-24T10:50:57.833Z</time></trkpt><trkpt lat="45.9783981" lon="9.2579593"><ele>246.0</ele><time>2026-03-24T10:50:58.839Z</time></trkpt><trkpt lat="45.9784262" lon="9.2578086"><ele>246.0</ele><time>2026-03-24T10:50:59.838Z</time></trkpt><trkpt lat="45.978436" lon="9.2576539"><ele>247.4</ele><time>2026-03-24T10:51:00.839Z</time></trkpt><trkpt lat="45.9784515" lon="9.2575133"><ele>248.8</ele><time>2026-03-24T10:51:01.837Z</time></trkpt><trkpt lat="45.9784682" lon="9.2573671"><ele>250.20000000000002</ele><time>2026-03-24T10:51:02.835Z</time></trkpt><trkpt lat="45.9784871" lon="9.2572305"><ele>251.60000000000002</ele><time>2026-03-24T10:51:03.835Z</time></trkpt><trkpt lat="45.9785" lon="9.2570902"><ele>253.0</ele><time>2026-03-24T10:51:04.833Z</time></trkpt><trkpt lat="45.9785147" lon="9.2569594"><ele>252.99999999999997</ele><time>2026-03-24T10:51:05.833Z</time></trkpt><trkpt lat="45.9785334" lon="9.2568366"><ele>253.0</ele><time>2026-03-24T10:51:06.827Z</time></trkpt><trkpt lat="45.9785442" lon="9.2567261"><ele>253.0</ele><time>2026-03-24T10:51:07.824Z</time></trkpt><trkpt lat="45.9785384" lon="9.2566193"><ele>253.0</ele><time>2026-03-24T10:51:08.822Z</time></trkpt><trkpt lat="45.9785198" lon="9.2565016"><ele>252.99999999999997</ele><time>2026-03-24T10:51:09.825Z</time></trkpt><trkpt lat="45.9785179" lon="9.256363"><ele>253.0</ele><time>2026-03-24T10:51:10.835Z</time></trkpt><trkpt lat="45.9785261" lon="9.2562324"><ele>252.2</ele><time>2026-03-24T10:51:11.831Z</time></trkpt><trkpt lat="45.9785506" lon="9.2560826"><ele>251.4</ele><time>2026-03-24T10:51:12.831Z</time></trkpt><trkpt lat="45.9785666" lon="9.2559588"><ele>250.59999999999997</ele><time>2026-03-24T10:51:13.832Z</time></trkpt><trkpt lat="45.9786119" lon="9.2558091"><ele>249.79999999999998</ele><time>2026-03-24T10:51:14.853Z</time></trkpt><trkpt lat="45.9786382" lon="9.2556507"><ele>249.0</ele><time>2026-03-24T10:51:15.825Z</time></trkpt><trkpt lat="45.9786664" lon="9.2554829"><ele>246.75</ele><time>2026-03-24T10:51:16.828Z</time></trkpt><trkpt lat="45.9786968" lon="9.2553085"><ele>244.5</ele><time>2026-03-24T10:51:17.825Z</time></trkpt><trkpt lat="45.9787412" lon="9.2551312"><ele>242.25</ele><time>2026-03-24T10:51:18.824Z</time></trkpt><trkpt lat="45.978764" lon="9.2550025"><ele>240.0</ele><time>2026-03-24T10:51:19.836Z</time></trkpt><trkpt lat="45.9788002" lon="9.2548618"><ele>238.0</ele><time>2026-03-24T10:51:20.828Z</time></trkpt><trkpt lat="45.978846" lon="9.2547382"><ele>236.0</ele><time>2026-03-24T10:51:21.829Z</time></trkpt><trkpt lat="45.978901" lon="9.2546242"><ele>234.0</ele><time>2026-03-24T10:51:22.827Z</time></trkpt><trkpt lat="45.9789509" lon="9.2545256"><ele>232.0</ele><time>2026-03-24T10:51:23.829Z</time></trkpt><trkpt lat="45.9790185" lon="9.2544745"><ele>230.0</ele><time>2026-03-24T10:51:24.826Z</time></trkpt><trkpt lat="45.9791107" lon="9.2544594"><ele>228.0</ele><time>2026-03-24T10:51:25.828Z</time></trkpt><trkpt lat="45.9792012" lon="9.2544449"><ele>226.16666666666666</ele><time>2026-03-24T10:51:26.831Z</time></trkpt><trkpt lat="45.9792941" lon="9.254449"><ele>224.33333333333331</ele><time>2026-03-24T10:51:27.833Z</time></trkpt><trkpt lat="45.979367" lon="9.2544189"><ele>222.5</ele><time>2026-03-24T10:51:28.83Z</time></trkpt><trkpt lat="45.9794495" lon="9.2544192"><ele>220.66666666666666</ele><time>2026-03-24T10:51:29.83Z</time></trkpt><trkpt lat="45.979546" lon="9.2544561"><ele>218.83333333333331</ele><time>2026-03-24T10:51:30.838Z</time></trkpt><trkpt lat="45.9796358" lon="9.2544904"><ele>217.0</ele><time>2026-03-24T10:51:31.83Z</time></trkpt><trkpt lat="45.9797183" lon="9.2545381"><ele>216.99999999999997</ele><time>2026-03-24T10:51:32.826Z</time></trkpt><trkpt lat="45.9797926" lon="9.254596"><ele>217.0</ele><time>2026-03-24T10:51:33.833Z</time></trkpt><trkpt lat="45.9798705" lon="9.2546522"><ele>217.0</ele><time>2026-03-24T10:51:34.838Z</time></trkpt><trkpt lat="45.9799603" lon="9.2547045"><ele>217.0</ele><time>2026-03-24T10:51:35.833Z</time></trkpt><trkpt lat="45.9800483" lon="9.2547238"><ele>216.99999999999997</ele><time>2026-03-24T10:51:36.839Z</time></trkpt><trkpt lat="45.9801301" lon="9.2547531"><ele>217.0</ele><time>2026-03-24T10:51:37.836Z</time></trkpt><trkpt lat="45.9802127" lon="9.2548116"><ele>219.6</ele><time>2026-03-24T10:51:38.839Z</time></trkpt><trkpt lat="45.9802967" lon="9.2548745"><ele>222.2</ele><time>2026-03-24T10:51:39.83Z</time></trkpt><trkpt lat="45.9803865" lon="9.2549285"><ele>224.8</ele><time>2026-03-24T10:51:40.832Z</time></trkpt><trkpt lat="45.9804608" lon="9.2549876"><ele>227.4</ele><time>2026-03-24T10:51:41.826Z</time></trkpt><trkpt lat="45.9805421" lon="9.2550462"><ele>230.0</ele><time>2026-03-24T10:51:42.837Z</time></trkpt><trkpt lat="45.9806239" lon="9.2551053"><ele>230.00000000000003</ele><time>2026-03-24T10:51:43.838Z</time></trkpt><trkpt lat="45.9807005" lon="9.2551516"><ele>230.0</ele><time>2026-03-24T10:51:44.831Z</time></trkpt><trkpt lat="45.9807676" lon="9.2551951"><ele>230.0</ele><time>2026-03-24T10:51:45.852Z</time></trkpt><trkpt lat="45.9808448" lon="9.2552525"><ele>230.0</ele><time>2026-03-24T10:51:46.836Z</time></trkpt><trkpt lat="45.9809202" lon="9.2552974"><ele>230.00000000000003</ele><time>2026-03-24T10:51:47.831Z</time></trkpt><trkpt lat="45.9809965" lon="9.2553379"><ele>230.0</ele><time>2026-03-24T10:51:48.83Z</time></trkpt><trkpt lat="45.9810666" lon="9.2553883"><ele>230.00000000000003</ele><time>2026-03-24T10:51:49.837Z</time></trkpt><trkpt lat="45.9811219" lon="9.255444"><ele>230.0</ele><time>2026-03-24T10:51:50.824Z</time></trkpt><trkpt lat="45.9811827" lon="9.2554845"><ele>230.0</ele><time>2026-03-24T10:51:51.826Z</time></trkpt><trkpt lat="45.9812858" lon="9.2555577"><ele>230.0</ele><time>2026-03-24T10:51:53.825Z</time></trkpt><trkpt lat="45.9813949" lon="9.255635"><ele>230.00000000000003</ele><time>2026-03-24T10:51:55.83Z</time></trkpt><trkpt lat="45.981443" lon="9.2556954"><ele>230.0</ele><time>2026-03-24T10:51:56.827Z</time></trkpt><trkpt lat="45.9814916" lon="9.2557661"><ele>230.00000000000003</ele><time>2026-03-24T10:51:57.824Z</time></trkpt><trkpt lat="45.9815513" lon="9.2558533"><ele>230.0</ele><time>2026-03-24T10:51:58.824Z</time></trkpt><trkpt lat="45.9816156" lon="9.2559337"><ele>230.0</ele><time>2026-03-24T10:51:59.83Z</time></trkpt><trkpt lat="45.9816816" lon="9.2560013"><ele>230.0</ele><time>2026-03-24T10:52:00.825Z</time></trkpt><trkpt lat="45.9817554" lon="9.2560747"><ele>230.00000000000003</ele><time>2026-03-24T10:52:01.821Z</time></trkpt><trkpt lat="45.981817" lon="9.2561498"><ele>230.0</ele><time>2026-03-24T10:52:02.808Z</time></trkpt><trkpt lat="45.9818738" lon="9.2562076"><ele>229.16666666666669</ele><time>2026-03-24T10:52:03.807Z</time></trkpt><trkpt lat="45.9819343" lon="9.2562668"><ele>228.33333333333334</ele><time>2026-03-24T10:52:04.805Z</time></trkpt><trkpt lat="45.9820025" lon="9.2563331"><ele>227.5</ele><time>2026-03-24T10:52:05.8Z</time></trkpt><trkpt lat="45.9820753" lon="9.2564139"><ele>226.66666666666669</ele><time>2026-03-24T10:52:06.803Z</time></trkpt><trkpt lat="45.9821426" lon="9.2564249"><ele>225.83333333333334</ele><time>2026-03-24T10:52:07.806Z</time></trkpt><trkpt lat="45.9822546" lon="9.2564566"><ele>225.0</ele><time>2026-03-24T10:52:09.807Z</time></trkpt><trkpt lat="45.9823485" lon="9.2564953"><ele>225.0</ele><time>2026-03-24T10:52:11.814Z</time></trkpt><trkpt lat="45.9824435" lon="9.2565104"><ele>225.0</ele><time>2026-03-24T10:52:13.813Z</time></trkpt><trkpt lat="45.9825404" lon="9.2566177"><ele>225.0</ele><time>2026-03-24T10:52:15.816Z</time></trkpt><trkpt lat="45.9826064" lon="9.2566769"><ele>225.0</ele><time>2026-03-24T10:52:16.835Z</time></trkpt><trkpt lat="45.982686" lon="9.2567274"><ele>225.0</ele><time>2026-03-24T10:52:17.817Z</time></trkpt><trkpt lat="45.9828022" lon="9.256795"><ele>224.0</ele><time>2026-03-24T10:52:19.83Z</time></trkpt><trkpt lat="45.9828641" lon="9.25688"><ele>223.0</ele><time>2026-03-24T10:52:20.823Z</time></trkpt><trkpt lat="45.982927" lon="9.2569573"><ele>222.0</ele><time>2026-03-24T10:52:21.828Z</time></trkpt><trkpt lat="45.9829814" lon="9.2570382"><ele>221.0</ele><time>2026-03-24T10:52:22.824Z</time></trkpt><trkpt lat="45.9830351" lon="9.2570937"><ele>220.0</ele><time>2026-03-24T10:52:23.823Z</time></trkpt><trkpt lat="45.9831258" lon="9.2571922"><ele>219.0</ele><time>2026-03-24T10:52:25.828Z</time></trkpt><trkpt lat="45.9832106" lon="9.2573303"><ele>219.0</ele><time>2026-03-24T10:52:27.827Z</time></trkpt><trkpt lat="45.9832539" lon="9.2574064"><ele>219.0</ele><time>2026-03-24T10:52:28.826Z</time></trkpt><trkpt lat="45.9833052" lon="9.2574857"><ele>219.0</ele><time>2026-03-24T10:52:29.826Z</time></trkpt><trkpt lat="45.9833587" lon="9.2575705"><ele>219.0</ele><time>2026-03-24T10:52:30.833Z</time></trkpt><trkpt lat="45.983409" lon="9.2576276"><ele>219.0</ele><time>2026-03-24T10:52:31.828Z</time></trkpt><trkpt lat="45.9834613" lon="9.2576896"><ele>219.0</ele><time>2026-03-24T10:52:32.831Z</time></trkpt><trkpt lat="45.983549" lon="9.2578287"><ele>218.5</ele><time>2026-03-24T10:52:34.83Z</time></trkpt><trkpt lat="45.9835958" lon="9.2579037"><ele>218.0</ele><time>2026-03-24T10:52:35.828Z</time></trkpt><trkpt lat="45.9836366" lon="9.257986"><ele>217.5</ele><time>2026-03-24T10:52:36.827Z</time></trkpt><trkpt lat="45.9836805" lon="9.2580531"><ele>217.0</ele><time>2026-03-24T10:52:37.828Z</time></trkpt><trkpt lat="45.9837273" lon="9.2581212"><ele>216.5</ele><time>2026-03-24T10:52:38.823Z</time></trkpt><trkpt lat="45.98381" lon="9.2582704"><ele>216.0</ele><time>2026-03-24T10:52:40.83Z</time></trkpt><trkpt lat="45.9838762" lon="9.2583295"><ele>216.0</ele><time>2026-03-24T10:52:41.825Z</time></trkpt><trkpt lat="45.9839521" lon="9.2583685"><ele>216.0</ele><time>2026-03-24T10:52:42.821Z</time></trkpt><trkpt lat="45.9840209" lon="9.2584116"><ele>216.0</ele><time>2026-03-24T10:52:43.823Z</time></trkpt><trkpt lat="45.9840931" lon="9.2584435"><ele>216.0</ele><time>2026-03-24T10:52:44.82Z</time></trkpt><trkpt lat="45.9841695" lon="9.2584616"><ele>216.0</ele><time>2026-03-24T10:52:45.821Z</time></trkpt><trkpt lat="45.9842387" lon="9.2584581"><ele>216.0</ele><time>2026-03-24T10:52:46.828Z</time></trkpt><trkpt lat="45.9843563" lon="9.2584873"><ele>213.33333333333334</ele><time>2026-03-24T10:52:48.835Z</time></trkpt><trkpt lat="45.9844753" lon="9.2585571"><ele>210.66666666666669</ele><time>2026-03-24T10:52:50.833Z</time></trkpt><trkpt lat="45.984534" lon="9.2585988"><ele>208.0</ele><time>2026-03-24T10:52:51.827Z</time></trkpt><trkpt lat="45.9846015" lon="9.258643"><ele>205.33333333333334</ele><time>2026-03-24T10:52:52.831Z</time></trkpt><trkpt lat="45.9846626" lon="9.2587004"><ele>202.66666666666669</ele><time>2026-03-24T10:52:53.825Z</time></trkpt><trkpt lat="45.9847266" lon="9.2587635"><ele>200.0</ele><time>2026-03-24T10:52:54.828Z</time></trkpt><trkpt lat="45.9847732" lon="9.2588347"><ele>200.00000000000003</ele><time>2026-03-24T10:52:55.829Z</time></trkpt><trkpt lat="45.9848143" lon="9.2589191"><ele>200.0</ele><time>2026-03-24T10:52:56.834Z</time></trkpt><trkpt lat="45.9848889" lon="9.2590704"><ele>200.0</ele><time>2026-03-24T10:52:58.841Z</time></trkpt><trkpt lat="45.9849217" lon="9.2591641"><ele>200.0</ele><time>2026-03-24T10:52:59.849Z</time></trkpt><trkpt lat="45.9849739" lon="9.2592369"><ele>200.00000000000003</ele><time>2026-03-24T10:53:00.846Z</time></trkpt><trkpt lat="45.9850287" lon="9.2593146"><ele>200.0</ele><time>2026-03-24T10:53:01.844Z</time></trkpt><trkpt lat="45.9850749" lon="9.2593869"><ele>200.0</ele><time>2026-03-24T10:53:02.836Z</time></trkpt><trkpt lat="45.985125" lon="9.2594505"><ele>200.0</ele><time>2026-03-24T10:53:03.835Z</time></trkpt><trkpt lat="45.9851911" lon="9.2595845"><ele>200.0</ele><time>2026-03-24T10:53:05.83Z</time></trkpt><trkpt lat="45.9852655" lon="9.2596958"><ele>200.0</ele><time>2026-03-24T10:53:07.829Z</time></trkpt><trkpt lat="45.9853286" lon="9.2598119"><ele>200.0</ele><time>2026-03-24T10:53:09.827Z</time></trkpt><trkpt lat="45.9853975" lon="9.2599106"><ele>200.00000000000003</ele><time>2026-03-24T10:53:11.838Z</time></trkpt><trkpt lat="45.9854518" lon="9.2599941"><ele>200.0</ele><time>2026-03-24T10:53:13.845Z</time></trkpt><trkpt lat="45.9853977" lon="9.260093"><ele>200.0</ele><time>2026-03-24T10:53:16.837Z</time></trkpt><trkpt lat="45.9853436" lon="9.2601791"><ele>200.0</ele><time>2026-03-24T10:53:18.855Z</time></trkpt><trkpt lat="45.9852612" lon="9.2602574"><ele>200.00000000000003</ele><time>2026-03-24T10:53:20.828Z</time></trkpt><trkpt lat="45.9852217" lon="9.2603452"><ele>200.0</ele><time>2026-03-24T10:53:22.84Z</time></trkpt><trkpt lat="45.9852231" lon="9.2604557"><ele>200.00000000000003</ele><time>2026-03-24T10:53:24.853Z</time></trkpt><trkpt lat="45.9853038" lon="9.2604949"><ele>200.0</ele><time>2026-03-24T10:54:11.828Z</time></trkpt><trkpt lat="45.9853645" lon="9.2605558"><ele>200.0</ele><time>2026-03-24T10:54:13.825Z</time></trkpt><trkpt lat="45.985452" lon="9.2605907"><ele>200.0</ele><time>2026-03-24T10:54:15.821Z</time></trkpt><trkpt lat="45.985515" lon="9.260611"><ele>200.00000000000003</ele><time>2026-03-24T10:54:16.824Z</time></trkpt><trkpt lat="45.9855741" lon="9.260643"><ele>200.0</ele><time>2026-03-24T10:54:17.819Z</time></trkpt><trkpt lat="45.9856629" lon="9.2606339"><ele>200.00000000000003</ele><time>2026-03-24T10:54:19.826Z</time></trkpt><trkpt lat="45.985737" lon="9.2606697"><ele>200.0</ele><time>2026-03-24T10:54:21.818Z</time></trkpt><trkpt lat="45.9857991" lon="9.2606111"><ele>200.0</ele><time>2026-03-24T10:54:24.825Z</time></trkpt><trkpt lat="45.985729" lon="9.2605674"><ele>200.0</ele><time>2026-03-24T10:54:30.815Z</time></trkpt><trkpt lat="45.9856377" lon="9.2605709"><ele>200.00000000000003</ele><time>2026-03-24T10:54:42.833Z</time></trkpt><trkpt lat="45.9856022" lon="9.2604706"><ele>200.0</ele><time>2026-03-24T10:54:46.828Z</time></trkpt><trkpt lat="45.9855704" lon="9.2603627"><ele>200.0</ele><time>2026-03-24T10:54:56.834Z</time></trkpt><trkpt lat="45.9855549" lon="9.2602461"><ele>200.0</ele><time>2026-03-24T10:54:58.841Z</time></trkpt><trkpt lat="45.9855219" lon="9.2601191"><ele>200.0</ele><time>2026-03-24T10:55:00.827Z</time></trkpt><trkpt lat="45.9854882" lon="9.2599873"><ele>200.0</ele><time>2026-03-24T10:55:02.833Z</time></trkpt><trkpt lat="45.9854364" lon="9.2598956"><ele>200.0</ele><time>2026-03-24T10:55:06.827Z</time></trkpt><trkpt lat="45.9853341" lon="9.2598609"><ele>200.00000000000003</ele><time>2026-03-24T11:01:24.83Z</time></trkpt><trkpt lat="45.9852886" lon="9.2599237"><ele>200.0</ele><time>2026-03-24T11:01:30.821Z</time></trkpt><trkpt lat="45.9853672" lon="9.2599304"><ele>200.0</ele><time>2026-03-24T11:01:44.841Z</time></trkpt><trkpt lat="45.9854188" lon="9.2598614"><ele>200.0</ele><time>2026-03-24T11:01:49.83Z</time></trkpt><trkpt lat="45.9854428" lon="9.2599476"><ele>200.00000000000003</ele><time>2026-03-24T11:03:13.827Z</time></trkpt><trkpt lat="45.9855262" lon="9.2599195"><ele>200.0</ele><time>2026-03-24T11:03:27.803Z</time></trkpt><trkpt lat="45.9855906" lon="9.2598321"><ele>200.00000000000003</ele><time>2026-03-24T11:03:32.827Z</time></trkpt><trkpt lat="45.9855261" lon="9.2598973"><ele>200.0</ele><time>2026-03-24T11:03:44.849Z</time></trkpt><trkpt lat="45.9854629" lon="9.2599178"><ele>200.0</ele><time>2026-03-24T11:03:59.844Z</time></trkpt><trkpt lat="45.9854132" lon="9.2599959"><ele>200.0</ele><time>2026-03-24T11:04:38.827Z</time></trkpt><trkpt lat="45.9853593" lon="9.2600429"><ele>200.00000000000003</ele><time>2026-03-24T11:04:41.828Z</time></trkpt><trkpt lat="45.985275" lon="9.2601904"><ele>200.0</ele><time>2026-03-24T11:04:43.82Z</time></trkpt><trkpt lat="45.9852261" lon="9.260283"><ele>200.0</ele><time>2026-03-24T11:04:44.837Z</time></trkpt><trkpt lat="45.9851898" lon="9.2603866"><ele>200.0</ele><time>2026-03-24T11:04:45.829Z</time></trkpt><trkpt lat="45.9851777" lon="9.2604766"><ele>200.0</ele><time>2026-03-24T11:04:46.828Z</time></trkpt><trkpt lat="45.9852295" lon="9.2606466"><ele>200.0</ele><time>2026-03-24T11:04:48.839Z</time></trkpt><trkpt lat="45.9852554" lon="9.2607953"><ele>200.0</ele><time>2026-03-24T11:04:50.82Z</time></trkpt><trkpt lat="45.9851478" lon="9.260756"><ele>202.0</ele><time>2026-03-24T11:04:53.816Z</time></trkpt><trkpt lat="45.9850552" lon="9.2606642"><ele>204.0</ele><time>2026-03-24T11:04:54.813Z</time></trkpt><trkpt lat="45.9849493" lon="9.260545"><ele>206.0</ele><time>2026-03-24T11:04:55.813Z</time></trkpt><trkpt lat="45.9848605" lon="9.2604272"><ele>208.0</ele><time>2026-03-24T11:04:56.829Z</time></trkpt><trkpt lat="45.984766" lon="9.260298"><ele>208.8</ele><time>2026-03-24T11:04:57.82Z</time></trkpt><trkpt lat="45.984683" lon="9.2601893"><ele>209.60000000000002</ele><time>2026-03-24T11:04:58.825Z</time></trkpt><trkpt lat="45.9846009" lon="9.2600879"><ele>210.39999999999998</ele><time>2026-03-24T11:04:59.817Z</time></trkpt><trkpt lat="45.9845427" lon="9.2600099"><ele>211.2</ele><time>2026-03-24T11:05:00.828Z</time></trkpt><trkpt lat="45.9844627" lon="9.2599143"><ele>212.0</ele><time>2026-03-24T11:05:01.811Z</time></trkpt><trkpt lat="45.9844" lon="9.2598048"><ele>211.16666666666669</ele><time>2026-03-24T11:05:02.822Z</time></trkpt><trkpt lat="45.9843352" lon="9.2597335"><ele>210.33333333333334</ele><time>2026-03-24T11:05:03.832Z</time></trkpt><trkpt lat="45.9842584" lon="9.2597117"><ele>209.5</ele><time>2026-03-24T11:05:04.816Z</time></trkpt><trkpt lat="45.98419" lon="9.2597344"><ele>208.66666666666669</ele><time>2026-03-24T11:05:05.812Z</time></trkpt><trkpt lat="45.9841351" lon="9.2598204"><ele>207.83333333333334</ele><time>2026-03-24T11:05:06.811Z</time></trkpt><trkpt lat="45.9840715" lon="9.2598863"><ele>207.0</ele><time>2026-03-24T11:05:07.805Z</time></trkpt><trkpt lat="45.9840204" lon="9.2600244"><ele>215.25</ele><time>2026-03-24T11:05:08.81Z</time></trkpt><trkpt lat="45.9839952" lon="9.2601903"><ele>223.5</ele><time>2026-03-24T11:05:09.808Z</time></trkpt><trkpt lat="45.9839905" lon="9.2603871"><ele>231.75</ele><time>2026-03-24T11:05:10.809Z</time></trkpt><trkpt lat="45.9840065" lon="9.2605414"><ele>240.0</ele><time>2026-03-24T11:05:11.805Z</time></trkpt><trkpt lat="45.9840771" lon="9.2607288"><ele>241.0</ele><time>2026-03-24T11:05:12.802Z</time></trkpt><trkpt lat="45.9841211" lon="9.2608944"><ele>242.0</ele><time>2026-03-24T11:05:13.798Z</time></trkpt><trkpt lat="45.9841546" lon="9.2610602"><ele>243.0</ele><time>2026-03-24T11:05:14.812Z</time></trkpt><trkpt lat="45.984219" lon="9.261191"><ele>244.0</ele><time>2026-03-24T11:05:15.807Z</time></trkpt><trkpt lat="45.9842708" lon="9.2613246"><ele>240.5</ele><time>2026-03-24T11:05:16.809Z</time></trkpt><trkpt lat="45.9843765" lon="9.2614432"><ele>237.0</ele><time>2026-03-24T11:05:17.806Z</time></trkpt><trkpt lat="45.9845085" lon="9.2615298"><ele>233.5</ele><time>2026-03-24T11:05:18.807Z</time></trkpt><trkpt lat="45.9846423" lon="9.2615902"><ele>230.0</ele><time>2026-03-24T11:05:19.803Z</time></trkpt><trkpt lat="45.9847725" lon="9.2616474"><ele>230.0</ele><time>2026-03-24T11:05:20.804Z</time></trkpt><trkpt lat="45.9848933" lon="9.2616758"><ele>230.0</ele><time>2026-03-24T11:05:21.812Z</time></trkpt><trkpt lat="45.984991" lon="9.2617162"><ele>230.0</ele><time>2026-03-24T11:05:22.816Z</time></trkpt><trkpt lat="45.9850727" lon="9.2617699"><ele>230.0</ele><time>2026-03-24T11:05:23.812Z</time></trkpt><trkpt lat="45.9851354" lon="9.2618299"><ele>230.0</ele><time>2026-03-24T11:05:24.809Z</time></trkpt><trkpt lat="45.9852023" lon="9.2619164"><ele>230.00000000000003</ele><time>2026-03-24T11:05:25.814Z</time></trkpt><trkpt lat="45.9852448" lon="9.2619978"><ele>230.0</ele><time>2026-03-24T11:05:26.831Z</time></trkpt><trkpt lat="45.9852579" lon="9.2620963"><ele>230.0</ele><time>2026-03-24T11:05:27.819Z</time></trkpt><trkpt lat="45.9851569" lon="9.2622083"><ele>230.0</ele><time>2026-03-24T11:05:29.821Z</time></trkpt><trkpt lat="45.9850805" lon="9.2622164"><ele>230.00000000000003</ele><time>2026-03-24T11:05:30.821Z</time></trkpt><trkpt lat="45.9849858" lon="9.2621967"><ele>230.0</ele><time>2026-03-24T11:05:31.819Z</time></trkpt><trkpt lat="45.9848938" lon="9.262165"><ele>230.00000000000003</ele><time>2026-03-24T11:05:32.831Z</time></trkpt><trkpt lat="45.9848148" lon="9.2621301"><ele>230.0</ele><time>2026-03-24T11:05:33.853Z</time></trkpt><trkpt lat="45.9847266" lon="9.2620966"><ele>230.0</ele><time>2026-03-24T11:05:34.879Z</time></trkpt><trkpt lat="45.9846512" lon="9.2620568"><ele>230.0</ele><time>2026-03-24T11:05:35.834Z</time></trkpt><trkpt lat="45.984581" lon="9.2620282"><ele>230.00000000000003</ele><time>2026-03-24T11:05:36.837Z</time></trkpt><trkpt lat="45.9845023" lon="9.261974"><ele>230.0</ele><time>2026-03-24T11:05:37.843Z</time></trkpt><trkpt lat="45.9844477" lon="9.2619088"><ele>230.00000000000003</ele><time>2026-03-24T11:05:38.846Z</time></trkpt><trkpt lat="45.9843947" lon="9.261836"><ele>230.0</ele><time>2026-03-24T11:05:39.845Z</time></trkpt><trkpt lat="45.9843291" lon="9.2617681"><ele>230.0</ele><time>2026-03-24T11:05:40.839Z</time></trkpt><trkpt lat="45.984261" lon="9.2617091"><ele>230.0</ele><time>2026-03-24T11:05:41.84Z</time></trkpt><trkpt lat="45.984183" lon="9.2616544"><ele>230.00000000000003</ele><time>2026-03-24T11:05:42.834Z</time></trkpt><trkpt lat="45.9840939" lon="9.2616162"><ele>230.0</ele><time>2026-03-24T11:05:43.837Z</time></trkpt><trkpt lat="45.984012" lon="9.2615897"><ele>232.2</ele><time>2026-03-24T11:05:44.828Z</time></trkpt><trkpt lat="45.983898" lon="9.2615775"><ele>234.4</ele><time>2026-03-24T11:05:46.822Z</time></trkpt><trkpt lat="45.9838208" lon="9.2616192"><ele>236.60000000000002</ele><time>2026-03-24T11:05:47.82Z</time></trkpt><trkpt lat="45.9837458" lon="9.2616733"><ele>238.8</ele><time>2026-03-24T11:05:48.821Z</time></trkpt><trkpt lat="45.9836642" lon="9.2617403"><ele>241.0</ele><time>2026-03-24T11:05:49.833Z</time></trkpt><trkpt lat="45.9835687" lon="9.2617986"><ele>240.99999999999997</ele><time>2026-03-24T11:05:50.833Z</time></trkpt><trkpt lat="45.9834672" lon="9.2618457"><ele>241.0</ele><time>2026-03-24T11:05:51.841Z</time></trkpt><trkpt lat="45.9833648" lon="9.2618914"><ele>241.0</ele><time>2026-03-24T11:05:52.832Z</time></trkpt><trkpt lat="45.983293" lon="9.2619022"><ele>241.0</ele><time>2026-03-24T11:05:53.832Z</time></trkpt><trkpt lat="45.9832204" lon="9.2619099"><ele>240.99999999999997</ele><time>2026-03-24T11:05:54.833Z</time></trkpt><trkpt lat="45.9831326" lon="9.2619091"><ele>241.0</ele><time>2026-03-24T11:05:55.831Z</time></trkpt><trkpt lat="45.9830423" lon="9.2619077"><ele>241.33333333333331</ele><time>2026-03-24T11:05:56.838Z</time></trkpt><trkpt lat="45.982963" lon="9.2618774"><ele>241.66666666666666</ele><time>2026-03-24T11:05:57.825Z</time></trkpt><trkpt lat="45.982886" lon="9.261846"><ele>242.0</ele><time>2026-03-24T11:05:58.821Z</time></trkpt><trkpt lat="45.9828234" lon="9.261799"><ele>242.33333333333331</ele><time>2026-03-24T11:05:59.817Z</time></trkpt><trkpt lat="45.9827634" lon="9.2617709"><ele>242.66666666666666</ele><time>2026-03-24T11:06:00.821Z</time></trkpt><trkpt lat="45.9826611" lon="9.2617142"><ele>243.0</ele><time>2026-03-24T11:06:02.824Z</time></trkpt><trkpt lat="45.9825985" lon="9.2616861"><ele>243.0</ele><time>2026-03-24T11:06:03.823Z</time></trkpt><trkpt lat="45.9825316" lon="9.261663"><ele>243.0</ele><time>2026-03-24T11:06:04.841Z</time></trkpt><trkpt lat="45.982464" lon="9.2616364"><ele>243.0</ele><time>2026-03-24T11:06:05.832Z</time></trkpt><trkpt lat="45.9823925" lon="9.2616296"><ele>243.0</ele><time>2026-03-24T11:06:06.836Z</time></trkpt><trkpt lat="45.9823122" lon="9.2616271"><ele>243.0</ele><time>2026-03-24T11:06:07.844Z</time></trkpt><trkpt lat="45.9822321" lon="9.2616282"><ele>243.0</ele><time>2026-03-24T11:06:08.837Z</time></trkpt><trkpt lat="45.9821463" lon="9.2616238"><ele>242.83333333333334</ele><time>2026-03-24T11:06:09.843Z</time></trkpt><trkpt lat="45.9820595" lon="9.2616115"><ele>242.66666666666669</ele><time>2026-03-24T11:06:10.84Z</time></trkpt><trkpt lat="45.9819747" lon="9.2616035"><ele>242.5</ele><time>2026-03-24T11:06:11.838Z</time></trkpt><trkpt lat="45.9818856" lon="9.261603"><ele>242.33333333333334</ele><time>2026-03-24T11:06:12.84Z</time></trkpt><trkpt lat="45.9818013" lon="9.2615763"><ele>242.16666666666669</ele><time>2026-03-24T11:06:13.841Z</time></trkpt><trkpt lat="45.9817373" lon="9.2615294"><ele>242.0</ele><time>2026-03-24T11:06:14.844Z</time></trkpt><trkpt lat="45.9816648" lon="9.2614746"><ele>243.0</ele><time>2026-03-24T11:06:15.841Z</time></trkpt><trkpt lat="45.9815998" lon="9.2614276"><ele>244.0</ele><time>2026-03-24T11:06:16.848Z</time></trkpt><trkpt lat="45.9814944" lon="9.2613801"><ele>245.0</ele><time>2026-03-24T11:06:18.846Z</time></trkpt><trkpt lat="45.9813799" lon="9.2613718"><ele>246.0</ele><time>2026-03-24T11:06:20.843Z</time></trkpt><trkpt lat="45.9813099" lon="9.2613934"><ele>247.0</ele><time>2026-03-24T11:06:21.837Z</time></trkpt><trkpt lat="45.9812331" lon="9.2614457"><ele>246.33333333333331</ele><time>2026-03-24T11:06:22.836Z</time></trkpt><trkpt lat="45.9811657" lon="9.2615002"><ele>245.66666666666666</ele><time>2026-03-24T11:06:23.835Z</time></trkpt><trkpt lat="45.9810852" lon="9.2615506"><ele>245.0</ele><time>2026-03-24T11:06:24.84Z</time></trkpt><trkpt lat="45.9810077" lon="9.2615856"><ele>244.33333333333331</ele><time>2026-03-24T11:06:25.836Z</time></trkpt><trkpt lat="45.9809312" lon="9.2616279"><ele>243.66666666666666</ele><time>2026-03-24T11:06:26.851Z</time></trkpt><trkpt lat="45.9808563" lon="9.2616745"><ele>243.0</ele><time>2026-03-24T11:06:27.837Z</time></trkpt><trkpt lat="45.9807422" lon="9.2617216"><ele>243.0</ele><time>2026-03-24T11:06:29.836Z</time></trkpt><trkpt lat="45.9806546" lon="9.2618016"><ele>243.0</ele><time>2026-03-24T11:06:31.841Z</time></trkpt><trkpt lat="45.9805731" lon="9.2617964"><ele>243.0</ele><time>2026-03-24T11:06:33.844Z</time></trkpt><trkpt lat="45.9804709" lon="9.2618387"><ele>243.0</ele><time>2026-03-24T11:06:35.874Z</time></trkpt><trkpt lat="45.9803552" lon="9.2618895"><ele>243.0</ele><time>2026-03-24T11:06:37.855Z</time></trkpt><trkpt lat="45.9802899" lon="9.2619203"><ele>243.0</ele><time>2026-03-24T11:06:38.864Z</time></trkpt><trkpt lat="45.9802186" lon="9.2619675"><ele>243.0</ele><time>2026-03-24T11:06:39.853Z</time></trkpt><trkpt lat="45.9801326" lon="9.2620296"><ele>243.0</ele><time>2026-03-24T11:06:40.852Z</time></trkpt><trkpt lat="45.9800409" lon="9.262103"><ele>243.0</ele><time>2026-03-24T11:06:41.844Z</time></trkpt><trkpt lat="45.9799524" lon="9.2621923"><ele>243.0</ele><time>2026-03-24T11:06:42.853Z</time></trkpt><trkpt lat="45.9798458" lon="9.2622885"><ele>242.0</ele><time>2026-03-24T11:06:43.845Z</time></trkpt><trkpt lat="45.9797511" lon="9.2623915"><ele>241.0</ele><time>2026-03-24T11:06:44.846Z</time></trkpt><trkpt lat="45.9796609" lon="9.2624869"><ele>240.0</ele><time>2026-03-24T11:06:45.842Z</time></trkpt><trkpt lat="45.9795703" lon="9.2625676"><ele>239.0</ele><time>2026-03-24T11:06:46.845Z</time></trkpt><trkpt lat="45.9794899" lon="9.2626469"><ele>238.0</ele><time>2026-03-24T11:06:47.847Z</time></trkpt><trkpt lat="45.979401" lon="9.2627235"><ele>238.0</ele><time>2026-03-24T11:06:48.851Z</time></trkpt><trkpt lat="45.9792981" lon="9.2628018"><ele>238.0</ele><time>2026-03-24T11:06:49.846Z</time></trkpt><trkpt lat="45.9791919" lon="9.2628842"><ele>238.0</ele><time>2026-03-24T11:06:50.854Z</time></trkpt><trkpt lat="45.97909" lon="9.2629573"><ele>238.0</ele><time>2026-03-24T11:06:51.839Z</time></trkpt><trkpt lat="45.9789641" lon="9.2630115"><ele>239.5</ele><time>2026-03-24T11:06:52.83Z</time></trkpt><trkpt lat="45.978825" lon="9.2630423"><ele>241.0</ele><time>2026-03-24T11:06:53.829Z</time></trkpt><trkpt lat="45.9786832" lon="9.2630561"><ele>242.5</ele><time>2026-03-24T11:06:54.84Z</time></trkpt><trkpt lat="45.9785527" lon="9.2630157"><ele>244.0</ele><time>2026-03-24T11:06:55.832Z</time></trkpt><trkpt lat="45.9784239" lon="9.2629601"><ele>243.0</ele><time>2026-03-24T11:06:56.855Z</time></trkpt><trkpt lat="45.9782914" lon="9.2629085"><ele>242.0</ele><time>2026-03-24T11:06:57.836Z</time></trkpt><trkpt lat="45.9781585" lon="9.2628649"><ele>241.0</ele><time>2026-03-24T11:06:58.849Z</time></trkpt><trkpt lat="45.9780337" lon="9.2628314"><ele>240.0</ele><time>2026-03-24T11:06:59.841Z</time></trkpt><trkpt lat="45.97793" lon="9.2627964"><ele>240.0</ele><time>2026-03-24T11:07:00.841Z</time></trkpt><trkpt lat="45.9778307" lon="9.2627856"><ele>240.0</ele><time>2026-03-24T11:07:01.836Z</time></trkpt><trkpt lat="45.977746" lon="9.2627771"><ele>240.0</ele><time>2026-03-24T11:07:02.842Z</time></trkpt><trkpt lat="45.9776542" lon="9.2627658"><ele>240.0</ele><time>2026-03-24T11:07:03.838Z</time></trkpt><trkpt lat="45.9775819" lon="9.2627486"><ele>240.0</ele><time>2026-03-24T11:07:04.841Z</time></trkpt><trkpt lat="45.9774937" lon="9.2627179"><ele>240.0</ele><time>2026-03-24T11:07:06.857Z</time></trkpt><trkpt lat="45.977428" lon="9.2627264"><ele>239.16666666666666</ele><time>2026-03-24T11:07:08.83Z</time></trkpt><trkpt lat="45.9773637" lon="9.2627175"><ele>238.33333333333331</ele><time>2026-03-24T11:07:18.862Z</time></trkpt><trkpt lat="45.9772873" lon="9.2626783"><ele>237.5</ele><time>2026-03-24T11:07:24.84Z</time></trkpt><trkpt lat="45.9772252" lon="9.2626626"><ele>236.66666666666666</ele><time>2026-03-24T11:07:25.837Z</time></trkpt><trkpt lat="45.9771159" lon="9.2626389"><ele>235.83333333333331</ele><time>2026-03-24T11:07:26.859Z</time></trkpt><trkpt lat="45.9770231" lon="9.2626339"><ele>235.0</ele><time>2026-03-24T11:07:27.85Z</time></trkpt><trkpt lat="45.9769154" lon="9.2626027"><ele>235.0</ele><time>2026-03-24T11:07:28.85Z</time></trkpt><trkpt lat="45.976801" lon="9.2625753"><ele>235.0</ele><time>2026-03-24T11:07:29.864Z</time></trkpt><trkpt lat="45.9766885" lon="9.2625544"><ele>235.0</ele><time>2026-03-24T11:07:30.852Z</time></trkpt><trkpt lat="45.9765882" lon="9.2625427"><ele>235.0</ele><time>2026-03-24T11:07:31.849Z</time></trkpt><trkpt lat="45.9764779" lon="9.262525"><ele>235.0</ele><time>2026-03-24T11:07:32.855Z</time></trkpt><trkpt lat="45.9763747" lon="9.2624896"><ele>234.75</ele><time>2026-03-24T11:07:33.848Z</time></trkpt><trkpt lat="45.9762691" lon="9.2624588"><ele>234.5</ele><time>2026-03-24T11:07:34.85Z</time></trkpt><trkpt lat="45.9761568" lon="9.2624392"><ele>234.25</ele><time>2026-03-24T11:07:35.856Z</time></trkpt><trkpt lat="45.9760392" lon="9.2624253"><ele>234.0</ele><time>2026-03-24T11:07:36.834Z</time></trkpt><trkpt lat="45.9759193" lon="9.2623973"><ele>234.0</ele><time>2026-03-24T11:07:37.868Z</time></trkpt><trkpt lat="45.9758175" lon="9.2623599"><ele>233.99999999999997</ele><time>2026-03-24T11:07:38.862Z</time></trkpt><trkpt lat="45.9757054" lon="9.2623326"><ele>233.99999999999997</ele><time>2026-03-24T11:07:39.861Z</time></trkpt><trkpt lat="45.9755972" lon="9.2623131"><ele>234.0</ele><time>2026-03-24T11:07:40.852Z</time></trkpt><trkpt lat="45.9754869" lon="9.2622888"><ele>234.0</ele><time>2026-03-24T11:07:41.86Z</time></trkpt><trkpt lat="45.9753861" lon="9.2622709"><ele>233.79999999999998</ele><time>2026-03-24T11:07:42.865Z</time></trkpt><trkpt lat="45.9752842" lon="9.2622437"><ele>233.59999999999997</ele><time>2026-03-24T11:07:43.859Z</time></trkpt><trkpt lat="45.9751846" lon="9.2622058"><ele>233.4</ele><time>2026-03-24T11:07:44.856Z</time></trkpt><trkpt lat="45.9750952" lon="9.2621323"><ele>233.2</ele><time>2026-03-24T11:07:45.854Z</time></trkpt><trkpt lat="45.9750099" lon="9.2620361"><ele>233.0</ele><time>2026-03-24T11:07:46.854Z</time></trkpt><trkpt lat="45.9749206" lon="9.2619255"><ele>234.60000000000002</ele><time>2026-03-24T11:07:47.849Z</time></trkpt><trkpt lat="45.9748372" lon="9.2618039"><ele>236.20000000000002</ele><time>2026-03-24T11:07:48.847Z</time></trkpt><trkpt lat="45.9747726" lon="9.261684"><ele>237.8</ele><time>2026-03-24T11:07:49.844Z</time></trkpt><trkpt lat="45.9747129" lon="9.2615872"><ele>239.4</ele><time>2026-03-24T11:07:50.856Z</time></trkpt><trkpt lat="45.9746527" lon="9.2615066"><ele>241.0</ele><time>2026-03-24T11:07:51.853Z</time></trkpt><trkpt lat="45.9745893" lon="9.2614254"><ele>240.99999999999997</ele><time>2026-03-24T11:07:52.844Z</time></trkpt><trkpt lat="45.9745183" lon="9.2613789"><ele>241.0</ele><time>2026-03-24T11:07:53.849Z</time></trkpt><trkpt lat="45.9744463" lon="9.2613497"><ele>241.0</ele><time>2026-03-24T11:07:54.845Z</time></trkpt><trkpt lat="45.9743667" lon="9.2613265"><ele>241.0</ele><time>2026-03-24T11:07:55.846Z</time></trkpt><trkpt lat="45.9742732" lon="9.2613336"><ele>240.99999999999997</ele><time>2026-03-24T11:07:56.857Z</time></trkpt><trkpt lat="45.9741776" lon="9.2613142"><ele>241.0</ele><time>2026-03-24T11:07:57.836Z</time></trkpt><trkpt lat="45.9740941" lon="9.2613129"><ele>243.4</ele><time>2026-03-24T11:07:58.847Z</time></trkpt><trkpt lat="45.9740153" lon="9.2612994"><ele>245.8</ele><time>2026-03-24T11:07:59.842Z</time></trkpt><trkpt lat="45.9739219" lon="9.2611838"><ele>248.20000000000002</ele><time>2026-03-24T11:08:01.841Z</time></trkpt><trkpt lat="45.9738942" lon="9.2610799"><ele>250.60000000000002</ele><time>2026-03-24T11:08:02.835Z</time></trkpt><trkpt lat="45.973874" lon="9.2609598"><ele>253.0</ele><time>2026-03-24T11:08:03.833Z</time></trkpt><trkpt lat="45.9738791" lon="9.2608299"><ele>253.0</ele><time>2026-03-24T11:08:04.835Z</time></trkpt><trkpt lat="45.9739256" lon="9.260686"><ele>253.0</ele><time>2026-03-24T11:08:05.829Z</time></trkpt><trkpt lat="45.9739818" lon="9.2605317"><ele>253.0</ele><time>2026-03-24T11:08:06.831Z</time></trkpt><trkpt lat="45.9740348" lon="9.260411"><ele>253.0</ele><time>2026-03-24T11:08:07.828Z</time></trkpt><trkpt lat="45.9740994" lon="9.2602984"><ele>253.0</ele><time>2026-03-24T11:08:08.851Z</time></trkpt><trkpt lat="45.9741362" lon="9.2601813"><ele>255.2</ele><time>2026-03-24T11:08:09.836Z</time></trkpt><trkpt lat="45.9741559" lon="9.2600712"><ele>257.4</ele><time>2026-03-24T11:08:10.831Z</time></trkpt><trkpt lat="45.9741725" lon="9.2599659"><ele>259.59999999999997</ele><time>2026-03-24T11:08:11.829Z</time></trkpt><trkpt lat="45.9741418" lon="9.2598388"><ele>261.8</ele><time>2026-03-24T11:08:13.824Z</time></trkpt><trkpt lat="45.9740546" lon="9.2599084"><ele>264.0</ele><time>2026-03-24T11:08:15.823Z</time></trkpt><trkpt lat="45.9740124" lon="9.2600479"><ele>264.0</ele><time>2026-03-24T11:08:17.848Z</time></trkpt><trkpt lat="45.9739898" lon="9.2601769"><ele>264.0</ele><time>2026-03-24T11:08:18.837Z</time></trkpt><trkpt lat="45.9739615" lon="9.2603255"><ele>264.0</ele><time>2026-03-24T11:08:19.831Z</time></trkpt><trkpt lat="45.973924" lon="9.2604925"><ele>264.0</ele><time>2026-03-24T11:08:20.835Z</time></trkpt><trkpt lat="45.9738695" lon="9.2606411"><ele>264.0</ele><time>2026-03-24T11:08:21.825Z</time></trkpt><trkpt lat="45.973817" lon="9.2607732"><ele>261.8</ele><time>2026-03-24T11:08:22.835Z</time></trkpt><trkpt lat="45.9737597" lon="9.2609062"><ele>259.59999999999997</ele><time>2026-03-24T11:08:23.826Z</time></trkpt><trkpt lat="45.9736846" lon="9.2609943"><ele>257.4</ele><time>2026-03-24T11:08:24.822Z</time></trkpt><trkpt lat="45.9735956" lon="9.2610873"><ele>255.2</ele><time>2026-03-24T11:08:25.834Z</time></trkpt><trkpt lat="45.9735085" lon="9.2611632"><ele>253.0</ele><time>2026-03-24T11:08:26.841Z</time></trkpt><trkpt lat="45.9734223" lon="9.2612132"><ele>256.4</ele><time>2026-03-24T11:08:27.834Z</time></trkpt><trkpt lat="45.9733277" lon="9.2612447"><ele>259.8</ele><time>2026-03-24T11:08:28.829Z</time></trkpt><trkpt lat="45.9732294" lon="9.2612764"><ele>263.2</ele><time>2026-03-24T11:08:29.83Z</time></trkpt><trkpt lat="45.9731419" lon="9.2612297"><ele>266.6</ele><time>2026-03-24T11:08:30.839Z</time></trkpt><trkpt lat="45.9730655" lon="9.2611629"><ele>270.0</ele><time>2026-03-24T11:08:31.837Z</time></trkpt><trkpt lat="45.9729828" lon="9.2610661"><ele>270.0</ele><time>2026-03-24T11:08:32.829Z</time></trkpt><trkpt lat="45.9729307" lon="9.2609532"><ele>270.0</ele><time>2026-03-24T11:08:33.832Z</time></trkpt><trkpt lat="45.9728789" lon="9.260844"><ele>270.0</ele><time>2026-03-24T11:08:34.832Z</time></trkpt><trkpt lat="45.972839" lon="9.2607215"><ele>270.0</ele><time>2026-03-24T11:08:35.839Z</time></trkpt><trkpt lat="45.9727864" lon="9.2606092"><ele>270.0</ele><time>2026-03-24T11:08:36.835Z</time></trkpt><trkpt lat="45.9727233" lon="9.2605038"><ele>271.8</ele><time>2026-03-24T11:08:37.846Z</time></trkpt><trkpt lat="45.9726207" lon="9.2604506"><ele>273.6</ele><time>2026-03-24T11:08:39.866Z</time></trkpt><trkpt lat="45.9725265" lon="9.2604"><ele>275.4</ele><time>2026-03-24T11:08:42.86Z</time></trkpt><trkpt lat="45.9724378" lon="9.2603646"><ele>277.2</ele><time>2026-03-24T11:08:44.862Z</time></trkpt><trkpt lat="45.9723937" lon="9.2604533"><ele>279.0</ele><time>2026-03-24T11:08:46.855Z</time></trkpt><trkpt lat="45.972365" lon="9.2605584"><ele>279.25</ele><time>2026-03-24T11:08:48.847Z</time></trkpt><trkpt lat="45.9724996" lon="9.2606809"><ele>279.5</ele><time>2026-03-24T11:08:50.835Z</time></trkpt><trkpt lat="45.9726084" lon="9.2607379"><ele>279.75</ele><time>2026-03-24T11:08:51.839Z</time></trkpt><trkpt lat="45.9726936" lon="9.2608374"><ele>280.0</ele><time>2026-03-24T11:08:52.839Z</time></trkpt><trkpt lat="45.9727378" lon="9.2609761"><ele>278.0</ele><time>2026-03-24T11:08:53.847Z</time></trkpt><trkpt lat="45.9727492" lon="9.2611007"><ele>276.0</ele><time>2026-03-24T11:08:54.855Z</time></trkpt><trkpt lat="45.9727394" lon="9.2612348"><ele>274.0</ele><time>2026-03-24T11:08:55.849Z</time></trkpt><trkpt lat="45.9727226" lon="9.2613838"><ele>272.0</ele><time>2026-03-24T11:08:56.854Z</time></trkpt><trkpt lat="45.9726716" lon="9.2615383"><ele>270.0</ele><time>2026-03-24T11:08:57.85Z</time></trkpt><trkpt lat="45.9726369" lon="9.2617162"><ele>271.25</ele><time>2026-03-24T11:08:58.845Z</time></trkpt><trkpt lat="45.9726025" lon="9.26191"><ele>272.5</ele><time>2026-03-24T11:08:59.851Z</time></trkpt><trkpt lat="45.9725988" lon="9.2621246"><ele>273.75</ele><time>2026-03-24T11:09:00.847Z</time></trkpt><trkpt lat="45.9725822" lon="9.2623335"><ele>275.0</ele><time>2026-03-24T11:09:01.852Z</time></trkpt><trkpt lat="45.9725801" lon="9.262512"><ele>275.0</ele><time>2026-03-24T11:09:02.868Z</time></trkpt><trkpt lat="45.9725722" lon="9.262672"><ele>275.0</ele><time>2026-03-24T11:09:03.853Z</time></trkpt><trkpt lat="45.9725451" lon="9.2628199"><ele>275.0</ele><time>2026-03-24T11:09:04.842Z</time></trkpt><trkpt lat="45.9725072" lon="9.2629771"><ele>275.0</ele><time>2026-03-24T11:09:05.832Z</time></trkpt><trkpt lat="45.9724547" lon="9.2631209"><ele>275.0</ele><time>2026-03-24T11:09:06.839Z</time></trkpt><trkpt lat="45.9724025" lon="9.2632541"><ele>278.0</ele><time>2026-03-24T11:09:07.829Z</time></trkpt><trkpt lat="45.972343" lon="9.263386"><ele>281.0</ele><time>2026-03-24T11:09:08.826Z</time></trkpt><trkpt lat="45.9722638" lon="9.2635601"><ele>284.0</ele><time>2026-03-24T11:09:09.828Z</time></trkpt><trkpt lat="45.9721704" lon="9.2637573"><ele>287.0</ele><time>2026-03-24T11:09:10.847Z</time></trkpt><trkpt lat="45.9720819" lon="9.2639541"><ele>289.33333333333337</ele><time>2026-03-24T11:09:11.829Z</time></trkpt><trkpt lat="45.9720094" lon="9.2641297"><ele>291.6666666666667</ele><time>2026-03-24T11:09:12.828Z</time></trkpt><trkpt lat="45.9719058" lon="9.2643044"><ele>294.0</ele><time>2026-03-24T11:09:13.831Z</time></trkpt><trkpt lat="45.9717997" lon="9.2645056"><ele>294.0</ele><time>2026-03-24T11:09:14.834Z</time></trkpt><trkpt lat="45.9717239" lon="9.2647098"><ele>294.0</ele><time>2026-03-24T11:09:15.845Z</time></trkpt><trkpt lat="45.9716577" lon="9.2648695"><ele>294.0</ele><time>2026-03-24T11:09:16.837Z</time></trkpt><trkpt lat="45.9715415" lon="9.2651059"><ele>291.0</ele><time>2026-03-24T11:09:17.832Z</time></trkpt><trkpt lat="45.9714602" lon="9.2653185"><ele>288.0</ele><time>2026-03-24T11:09:18.84Z</time></trkpt><trkpt lat="45.9713641" lon="9.2654445"><ele>285.0</ele><time>2026-03-24T11:09:19.825Z</time></trkpt><trkpt lat="45.9712174" lon="9.2655358"><ele>285.0</ele><time>2026-03-24T11:09:20.839Z</time></trkpt><trkpt lat="45.971057" lon="9.2656038"><ele>285.0</ele><time>2026-03-24T11:09:21.845Z</time></trkpt><trkpt lat="45.9708864" lon="9.2655179"><ele>285.0</ele><time>2026-03-24T11:09:22.839Z</time></trkpt><trkpt lat="45.9707436" lon="9.2654203"><ele>282.6</ele><time>2026-03-24T11:09:23.843Z</time></trkpt><trkpt lat="45.9706456" lon="9.2654059"><ele>280.2</ele><time>2026-03-24T11:09:24.85Z</time></trkpt><trkpt lat="45.9705655" lon="9.2654614"><ele>277.8</ele><time>2026-03-24T11:09:25.839Z</time></trkpt><trkpt lat="45.9705035" lon="9.2655961"><ele>275.4</ele><time>2026-03-24T11:09:26.869Z</time></trkpt><trkpt lat="45.9704857" lon="9.2657423"><ele>273.0</ele><time>2026-03-24T11:09:27.856Z</time></trkpt><trkpt lat="45.9704598" lon="9.2659059"><ele>271.6</ele><time>2026-03-24T11:09:28.849Z</time></trkpt><trkpt lat="45.9704241" lon="9.2660367"><ele>270.20000000000005</ele><time>2026-03-24T11:09:29.852Z</time></trkpt><trkpt lat="45.9703657" lon="9.2661407"><ele>268.8</ele><time>2026-03-24T11:09:30.847Z</time></trkpt><trkpt lat="45.9703103" lon="9.2662273"><ele>267.40000000000003</ele><time>2026-03-24T11:09:31.845Z</time></trkpt><trkpt lat="45.9701986" lon="9.2662855"><ele>266.0</ele><time>2026-03-24T11:09:32.856Z</time></trkpt><trkpt lat="45.9700478" lon="9.2662874"><ele>266.33333333333337</ele><time>2026-03-24T11:09:33.846Z</time></trkpt><trkpt lat="45.9698929" lon="9.266268"><ele>266.6666666666667</ele><time>2026-03-24T11:09:34.835Z</time></trkpt><trkpt lat="45.9697343" lon="9.2662115"><ele>267.0</ele><time>2026-03-24T11:09:35.843Z</time></trkpt><trkpt lat="45.9695744" lon="9.266171"><ele>267.0</ele><time>2026-03-24T11:09:36.851Z</time></trkpt><trkpt lat="45.9694483" lon="9.2661689"><ele>267.0</ele><time>2026-03-24T11:09:37.846Z</time></trkpt><trkpt lat="45.9693497" lon="9.2662159"><ele>267.0</ele><time>2026-03-24T11:09:38.843Z</time></trkpt><trkpt lat="45.9692571" lon="9.2663165"><ele>267.0</ele><time>2026-03-24T11:09:39.846Z</time></trkpt><trkpt lat="45.9691802" lon="9.2664408"><ele>267.5</ele><time>2026-03-24T11:09:40.848Z</time></trkpt><trkpt lat="45.9690812" lon="9.2665285"><ele>268.0</ele><time>2026-03-24T11:09:41.861Z</time></trkpt><trkpt lat="45.9689538" lon="9.2665403"><ele>268.5</ele><time>2026-03-24T11:09:42.842Z</time></trkpt><trkpt lat="45.9688305" lon="9.2664856"><ele>269.0</ele><time>2026-03-24T11:09:43.854Z</time></trkpt><trkpt lat="45.9686993" lon="9.2663854"><ele>269.0</ele><time>2026-03-24T11:09:44.842Z</time></trkpt><trkpt lat="45.9685778" lon="9.2663042"><ele>269.0</ele><time>2026-03-24T11:09:45.844Z</time></trkpt><trkpt lat="45.9684595" lon="9.266237"><ele>269.0</ele><time>2026-03-24T11:09:46.844Z</time></trkpt><trkpt lat="45.9683528" lon="9.2662311"><ele>269.0</ele><time>2026-03-24T11:09:47.838Z</time></trkpt><trkpt lat="45.9682469" lon="9.266282"><ele>271.25</ele><time>2026-03-24T11:09:48.832Z</time></trkpt><trkpt lat="45.9681585" lon="9.2663772"><ele>273.5</ele><time>2026-03-24T11:09:49.844Z</time></trkpt><trkpt lat="45.9680893" lon="9.2665281"><ele>275.75</ele><time>2026-03-24T11:09:50.841Z</time></trkpt><trkpt lat="45.9680629" lon="9.2666834"><ele>278.0</ele><time>2026-03-24T11:09:51.834Z</time></trkpt><trkpt lat="45.9680476" lon="9.266838"><ele>272.25</ele><time>2026-03-24T11:09:52.836Z</time></trkpt><trkpt lat="45.9680512" lon="9.2670025"><ele>266.5</ele><time>2026-03-24T11:09:53.834Z</time></trkpt><trkpt lat="45.9680138" lon="9.2671415"><ele>260.75</ele><time>2026-03-24T11:09:54.832Z</time></trkpt><trkpt lat="45.9679311" lon="9.2672506"><ele>255.0</ele><time>2026-03-24T11:09:55.827Z</time></trkpt><trkpt lat="45.9678121" lon="9.2673506"><ele>252.33333333333331</ele><time>2026-03-24T11:09:56.837Z</time></trkpt><trkpt lat="45.9676692" lon="9.2674282"><ele>249.66666666666666</ele><time>2026-03-24T11:09:57.829Z</time></trkpt><trkpt lat="45.9675269" lon="9.2674971"><ele>247.0</ele><time>2026-03-24T11:09:58.831Z</time></trkpt><trkpt lat="45.9673785" lon="9.2675516"><ele>247.0</ele><time>2026-03-24T11:09:59.827Z</time></trkpt><trkpt lat="45.9672309" lon="9.2675915"><ele>247.0</ele><time>2026-03-24T11:10:00.829Z</time></trkpt><trkpt lat="45.9670965" lon="9.2675752"><ele>247.0</ele><time>2026-03-24T11:10:01.83Z</time></trkpt><trkpt lat="45.9669768" lon="9.267589"><ele>247.0</ele><time>2026-03-24T11:10:02.828Z</time></trkpt><trkpt lat="45.9668706" lon="9.2675524"><ele>247.0</ele><time>2026-03-24T11:10:03.828Z</time></trkpt><trkpt lat="45.9667586" lon="9.2674939"><ele>247.0</ele><time>2026-03-24T11:10:04.83Z</time></trkpt><trkpt lat="45.966651" lon="9.2674545"><ele>247.0</ele><time>2026-03-24T11:10:05.833Z</time></trkpt><trkpt lat="45.9665514" lon="9.2674435"><ele>247.0</ele><time>2026-03-24T11:10:06.841Z</time></trkpt><trkpt lat="45.9664518" lon="9.2674019"><ele>247.0</ele><time>2026-03-24T11:10:07.827Z</time></trkpt><trkpt lat="45.9663463" lon="9.2673237"><ele>255.0</ele><time>2026-03-24T11:10:08.83Z</time></trkpt><trkpt lat="45.9662266" lon="9.2672565"><ele>263.0</ele><time>2026-03-24T11:10:09.833Z</time></trkpt><trkpt lat="45.9661005" lon="9.2671611"><ele>271.0</ele><time>2026-03-24T11:10:10.834Z</time></trkpt><trkpt lat="45.9659779" lon="9.2670701"><ele>279.0</ele><time>2026-03-24T11:10:11.835Z</time></trkpt><trkpt lat="45.9658741" lon="9.266981"><ele>274.4</ele><time>2026-03-24T11:10:12.877Z</time></trkpt><trkpt lat="45.9657666" lon="9.2669138"><ele>269.79999999999995</ele><time>2026-03-24T11:10:13.836Z</time></trkpt><trkpt lat="45.9656561" lon="9.2668432"><ele>265.20000000000005</ele><time>2026-03-24T11:10:14.838Z</time></trkpt><trkpt lat="45.9655646" lon="9.2667608"><ele>260.6</ele><time>2026-03-24T11:10:15.84Z</time></trkpt><trkpt lat="45.9654737" lon="9.266767"><ele>256.0</ele><time>2026-03-24T11:10:16.843Z</time></trkpt><trkpt lat="45.9653843" lon="9.2668109"><ele>256.0</ele><time>2026-03-24T11:10:17.841Z</time></trkpt><trkpt lat="45.9653034" lon="9.2668352"><ele>256.0</ele><time>2026-03-24T11:10:18.848Z</time></trkpt><trkpt lat="45.9652159" lon="9.2668117"><ele>256.0</ele><time>2026-03-24T11:10:19.852Z</time></trkpt><trkpt lat="45.9651191" lon="9.2667684"><ele>256.0</ele><time>2026-03-24T11:10:20.847Z</time></trkpt><trkpt lat="45.965055" lon="9.2666456"><ele>256.0</ele><time>2026-03-24T11:10:21.843Z</time></trkpt><trkpt lat="45.9650081" lon="9.2665064"><ele>258.6</ele><time>2026-03-24T11:10:22.833Z</time></trkpt><trkpt lat="45.9649755" lon="9.2663776"><ele>261.20000000000005</ele><time>2026-03-24T11:10:23.844Z</time></trkpt><trkpt lat="45.9649224" lon="9.2662683"><ele>263.79999999999995</ele><time>2026-03-24T11:10:24.843Z</time></trkpt><trkpt lat="45.9648443" lon="9.2661942"><ele>266.4</ele><time>2026-03-24T11:10:25.843Z</time></trkpt><trkpt lat="45.9647502" lon="9.2661407"><ele>269.0</ele><time>2026-03-24T11:10:26.848Z</time></trkpt><trkpt lat="45.9646391" lon="9.2660935"><ele>269.0</ele><time>2026-03-24T11:10:27.842Z</time></trkpt><trkpt lat="45.9644789" lon="9.2660397"><ele>269.0</ele><time>2026-03-24T11:10:28.835Z</time></trkpt><trkpt lat="45.9642928" lon="9.2659733"><ele>269.0</ele><time>2026-03-24T11:10:29.841Z</time></trkpt><trkpt lat="45.9641034" lon="9.2659"><ele>260.6666666666667</ele><time>2026-03-24T11:10:30.836Z</time></trkpt><trkpt lat="45.9638917" lon="9.2658223"><ele>252.33333333333331</ele><time>2026-03-24T11:10:31.833Z</time></trkpt><trkpt lat="45.9636839" lon="9.2657798"><ele>244.0</ele><time>2026-03-24T11:10:32.836Z</time></trkpt><trkpt lat="45.9634363" lon="9.2657786"><ele>238.33333333333331</ele><time>2026-03-24T11:10:33.841Z</time></trkpt><trkpt lat="45.9632458" lon="9.265815"><ele>232.66666666666669</ele><time>2026-03-24T11:10:34.844Z</time></trkpt><trkpt lat="45.9630589" lon="9.2658253"><ele>227.0</ele><time>2026-03-24T11:10:35.842Z</time></trkpt><trkpt lat="45.9628969" lon="9.2657824"><ele>227.0</ele><time>2026-03-24T11:10:36.855Z</time></trkpt><trkpt lat="45.9627132" lon="9.2657526"><ele>227.0</ele><time>2026-03-24T11:10:37.85Z</time></trkpt><trkpt lat="45.9625435" lon="9.2657436"><ele>227.0</ele><time>2026-03-24T11:10:38.848Z</time></trkpt><trkpt lat="45.9624139" lon="9.265737"><ele>226.5</ele><time>2026-03-24T11:10:39.848Z</time></trkpt><trkpt lat="45.9622768" lon="9.2657717"><ele>226.0</ele><time>2026-03-24T11:10:40.845Z</time></trkpt><trkpt lat="45.9621569" lon="9.2658439"><ele>225.5</ele><time>2026-03-24T11:10:41.851Z</time></trkpt><trkpt lat="45.9620494" lon="9.2659364"><ele>225.0</ele><time>2026-03-24T11:10:42.878Z</time></trkpt><trkpt lat="45.9619518" lon="9.2660086"><ele>225.0</ele><time>2026-03-24T11:10:43.857Z</time></trkpt><trkpt lat="45.9618208" lon="9.2660262"><ele>225.0</ele><time>2026-03-24T11:10:44.842Z</time></trkpt><trkpt lat="45.9616873" lon="9.2660311"><ele>225.0</ele><time>2026-03-24T11:10:45.85Z</time></trkpt><trkpt lat="45.9615481" lon="9.2660292"><ele>225.0</ele><time>2026-03-24T11:10:46.84Z</time></trkpt><trkpt lat="45.9614216" lon="9.2659674"><ele>223.0</ele><time>2026-03-24T11:10:47.852Z</time></trkpt><trkpt lat="45.9612827" lon="9.2659437"><ele>221.0</ele><time>2026-03-24T11:10:48.849Z</time></trkpt><trkpt lat="45.9611154" lon="9.265992"><ele>219.0</ele><time>2026-03-24T11:10:49.849Z</time></trkpt><trkpt lat="45.9609542" lon="9.2660376"><ele>221.66666666666669</ele><time>2026-03-24T11:10:50.852Z</time></trkpt><trkpt lat="45.9607881" lon="9.2661038"><ele>224.33333333333334</ele><time>2026-03-24T11:10:51.848Z</time></trkpt><trkpt lat="45.9606438" lon="9.2661989"><ele>227.0</ele><time>2026-03-24T11:10:52.847Z</time></trkpt><trkpt lat="45.9605073" lon="9.2661952"><ele>227.0</ele><time>2026-03-24T11:10:53.851Z</time></trkpt><trkpt lat="45.9603644" lon="9.2662364"><ele>227.0</ele><time>2026-03-24T11:10:54.849Z</time></trkpt><trkpt lat="45.9601935" lon="9.2662972"><ele>227.0</ele><time>2026-03-24T11:10:55.846Z</time></trkpt><trkpt lat="45.960054" lon="9.2663124"><ele>227.0</ele><time>2026-03-24T11:10:56.858Z</time></trkpt><trkpt lat="45.9599482" lon="9.2662574"><ele>227.0</ele><time>2026-03-24T11:10:57.85Z</time></trkpt><trkpt lat="45.9598641" lon="9.266255"><ele>227.0</ele><time>2026-03-24T11:10:58.849Z</time></trkpt><trkpt lat="45.9597985" lon="9.2662564"><ele>227.0</ele><time>2026-03-24T11:10:59.843Z</time></trkpt><trkpt lat="45.9598384" lon="9.2664185"><ele>227.0</ele><time>2026-03-24T11:11:01.85Z</time></trkpt><trkpt lat="45.9598332" lon="9.2665488"><ele>227.0</ele><time>2026-03-24T11:11:02.84Z</time></trkpt><trkpt lat="45.9598391" lon="9.2667144"><ele>227.0</ele><time>2026-03-24T11:11:03.838Z</time></trkpt><trkpt lat="45.9598356" lon="9.2669048"><ele>227.0</ele><time>2026-03-24T11:11:04.84Z</time></trkpt><trkpt lat="45.9598397" lon="9.2670889"><ele>227.0</ele><time>2026-03-24T11:11:05.843Z</time></trkpt><trkpt lat="45.9598129" lon="9.2672848"><ele>224.33333333333334</ele><time>2026-03-24T11:11:06.844Z</time></trkpt><trkpt lat="45.959765" lon="9.267505"><ele>221.66666666666669</ele><time>2026-03-24T11:11:07.831Z</time></trkpt><trkpt lat="45.9597238" lon="9.2677231"><ele>219.0</ele><time>2026-03-24T11:11:08.835Z</time></trkpt><trkpt lat="45.9596847" lon="9.2679782"><ele>217.0</ele><time>2026-03-24T11:11:09.824Z</time></trkpt><trkpt lat="45.9596266" lon="9.2681173"><ele>214.99999999999997</ele><time>2026-03-24T11:11:10.83Z</time></trkpt><trkpt lat="45.959517" lon="9.2682105"><ele>213.0</ele><time>2026-03-24T11:11:11.831Z</time></trkpt><trkpt lat="45.9594652" lon="9.2683333"><ele>211.0</ele><time>2026-03-24T11:11:12.829Z</time></trkpt><trkpt lat="45.9594155" lon="9.2684647"><ele>209.0</ele><time>2026-03-24T11:11:13.844Z</time></trkpt><trkpt lat="45.9593664" lon="9.2685787"><ele>209.0</ele><time>2026-03-24T11:11:14.837Z</time></trkpt><trkpt lat="45.9592925" lon="9.2687443"><ele>209.0</ele><time>2026-03-24T11:11:15.839Z</time></trkpt><trkpt lat="45.9592329" lon="9.2688953"><ele>209.0</ele><time>2026-03-24T11:11:16.838Z</time></trkpt><trkpt lat="45.95918" lon="9.2690578"><ele>209.0</ele><time>2026-03-24T11:11:17.838Z</time></trkpt><trkpt lat="45.9590858" lon="9.2691859"><ele>215.66666666666669</ele><time>2026-03-24T11:11:18.836Z</time></trkpt><trkpt lat="45.9589841" lon="9.2693174"><ele>222.33333333333331</ele><time>2026-03-24T11:11:19.827Z</time></trkpt><trkpt lat="45.9588288" lon="9.269421"><ele>229.0</ele><time>2026-03-24T11:11:20.836Z</time></trkpt><trkpt lat="45.9586769" lon="9.2694825"><ele>229.0</ele><time>2026-03-24T11:11:21.825Z</time></trkpt><trkpt lat="45.9585613" lon="9.2695825"><ele>229.0</ele><time>2026-03-24T11:11:22.829Z</time></trkpt><trkpt lat="45.9584354" lon="9.2696791"><ele>229.0</ele><time>2026-03-24T11:11:23.829Z</time></trkpt><trkpt lat="45.9582697" lon="9.269733"><ele>229.0</ele><time>2026-03-24T11:11:24.829Z</time></trkpt><trkpt lat="45.9581083" lon="9.2697809"><ele>228.33333333333331</ele><time>2026-03-24T11:11:25.831Z</time></trkpt><trkpt lat="45.9579284" lon="9.269839"><ele>227.66666666666669</ele><time>2026-03-24T11:11:26.835Z</time></trkpt><trkpt lat="45.9577335" lon="9.269838"><ele>227.0</ele><time>2026-03-24T11:11:27.831Z</time></trkpt><trkpt lat="45.9575537" lon="9.2698632"><ele>228.33333333333334</ele><time>2026-03-24T11:11:28.842Z</time></trkpt><trkpt lat="45.9573725" lon="9.26984"><ele>229.66666666666669</ele><time>2026-03-24T11:11:29.84Z</time></trkpt><trkpt lat="45.9571718" lon="9.2698535"><ele>231.0</ele><time>2026-03-24T11:11:30.847Z</time></trkpt><trkpt lat="45.9569815" lon="9.2698543"><ele>231.0</ele><time>2026-03-24T11:11:31.842Z</time></trkpt><trkpt lat="45.9568265" lon="9.2698839"><ele>231.00000000000003</ele><time>2026-03-24T11:11:32.842Z</time></trkpt><trkpt lat="45.9567313" lon="9.2698515"><ele>231.00000000000003</ele><time>2026-03-24T11:11:33.843Z</time></trkpt><trkpt lat="45.9566572" lon="9.2698683"><ele>231.0</ele><time>2026-03-24T11:11:34.844Z</time></trkpt><trkpt lat="45.9565557" lon="9.2699068"><ele>231.0</ele><time>2026-03-24T11:11:35.84Z</time></trkpt><trkpt lat="45.9564451" lon="9.2699795"><ele>229.25</ele><time>2026-03-24T11:11:36.839Z</time></trkpt><trkpt lat="45.9563711" lon="9.2701429"><ele>227.5</ele><time>2026-03-24T11:11:37.838Z</time></trkpt><trkpt lat="45.9563198" lon="9.2703463"><ele>225.75</ele><time>2026-03-24T11:11:38.844Z</time></trkpt><trkpt lat="45.9562866" lon="9.270535"><ele>224.0</ele><time>2026-03-24T11:11:39.842Z</time></trkpt><trkpt lat="45.9562029" lon="9.270733"><ele>224.0</ele><time>2026-03-24T11:11:40.853Z</time></trkpt><trkpt lat="45.9560834" lon="9.2709147"><ele>224.0</ele><time>2026-03-24T11:11:41.861Z</time></trkpt><trkpt lat="45.9559666" lon="9.2711306"><ele>224.0</ele><time>2026-03-24T11:11:42.859Z</time></trkpt><trkpt lat="45.9558068" lon="9.2712813"><ele>223.25</ele><time>2026-03-24T11:11:43.856Z</time></trkpt><trkpt lat="45.9556968" lon="9.271445"><ele>222.5</ele><time>2026-03-24T11:11:44.878Z</time></trkpt><trkpt lat="45.9556048" lon="9.2716326"><ele>221.75</ele><time>2026-03-24T11:11:45.85Z</time></trkpt><trkpt lat="45.9555875" lon="9.2717787"><ele>221.0</ele><time>2026-03-24T11:11:46.861Z</time></trkpt><trkpt lat="45.955577" lon="9.2719669"><ele>221.0</ele><time>2026-03-24T11:11:47.849Z</time></trkpt><trkpt lat="45.9555515" lon="9.2721859"><ele>221.0</ele><time>2026-03-24T11:11:48.852Z</time></trkpt><trkpt lat="45.9555788" lon="9.2723751"><ele>221.0</ele><time>2026-03-24T11:11:49.849Z</time></trkpt><trkpt lat="45.9555147" lon="9.2725636"><ele>221.0</ele><time>2026-03-24T11:11:50.862Z</time></trkpt><trkpt lat="45.9554399" lon="9.2727713"><ele>218.33333333333334</ele><time>2026-03-24T11:11:51.845Z</time></trkpt><trkpt lat="45.95532" lon="9.2729673"><ele>215.66666666666669</ele><time>2026-03-24T11:11:52.85Z</time></trkpt><trkpt lat="45.9552063" lon="9.2731586"><ele>213.0</ele><time>2026-03-24T11:11:53.856Z</time></trkpt><trkpt lat="45.9551395" lon="9.2733555"><ele>213.25</ele><time>2026-03-24T11:11:54.857Z</time></trkpt><trkpt lat="45.9550487" lon="9.2735663"><ele>213.5</ele><time>2026-03-24T11:11:55.866Z</time></trkpt><trkpt lat="45.9549508" lon="9.2737317"><ele>213.75</ele><time>2026-03-24T11:11:56.874Z</time></trkpt><trkpt lat="45.9548731" lon="9.2738534"><ele>214.0</ele><time>2026-03-24T11:11:57.864Z</time></trkpt><trkpt lat="45.9548197" lon="9.2740251"><ele>214.0</ele><time>2026-03-24T11:11:58.851Z</time></trkpt><trkpt lat="45.9547614" lon="9.2741225"><ele>213.99999999999997</ele><time>2026-03-24T11:11:59.849Z</time></trkpt><trkpt lat="45.9546958" lon="9.2742739"><ele>213.99999999999997</ele><time>2026-03-24T11:12:00.848Z</time></trkpt><trkpt lat="45.9546357" lon="9.2743705"><ele>214.0</ele><time>2026-03-24T11:12:01.85Z</time></trkpt><trkpt lat="45.9545604" lon="9.2744416"><ele>214.0</ele><time>2026-03-24T11:12:02.849Z</time></trkpt><trkpt lat="45.954472" lon="9.2745627"><ele>214.0</ele><time>2026-03-24T11:12:03.849Z</time></trkpt><trkpt lat="45.9543781" lon="9.2746859"><ele>214.0</ele><time>2026-03-24T11:12:04.848Z</time></trkpt><trkpt lat="45.9542536" lon="9.2748074"><ele>214.0</ele><time>2026-03-24T11:12:05.847Z</time></trkpt><trkpt lat="45.9541377" lon="9.2749286"><ele>214.0</ele><time>2026-03-24T11:12:06.844Z</time></trkpt><trkpt lat="45.9540127" lon="9.2750401"><ele>214.66666666666666</ele><time>2026-03-24T11:12:07.833Z</time></trkpt><trkpt lat="45.9538774" lon="9.2751359"><ele>215.33333333333331</ele><time>2026-03-24T11:12:08.841Z</time></trkpt><trkpt lat="45.9537334" lon="9.2752229"><ele>216.0</ele><time>2026-03-24T11:12:09.839Z</time></trkpt><trkpt lat="45.9535855" lon="9.2752847"><ele>216.0</ele><time>2026-03-24T11:12:10.853Z</time></trkpt><trkpt lat="45.95339" lon="9.2753371"><ele>216.0</ele><time>2026-03-24T11:12:11.862Z</time></trkpt><trkpt lat="45.9532313" lon="9.2754219"><ele>216.0</ele><time>2026-03-24T11:12:12.862Z</time></trkpt><trkpt lat="45.9530807" lon="9.2754992"><ele>217.25</ele><time>2026-03-24T11:12:13.856Z</time></trkpt><trkpt lat="45.9529346" lon="9.2755635"><ele>218.5</ele><time>2026-03-24T11:12:14.85Z</time></trkpt><trkpt lat="45.9527974" lon="9.2756215"><ele>219.75</ele><time>2026-03-24T11:12:15.872Z</time></trkpt><trkpt lat="45.9526692" lon="9.2756469"><ele>221.0</ele><time>2026-03-24T11:12:16.853Z</time></trkpt><trkpt lat="45.9525479" lon="9.2756621"><ele>217.33333333333334</ele><time>2026-03-24T11:12:17.85Z</time></trkpt><trkpt lat="45.9523988" lon="9.2757256"><ele>213.66666666666669</ele><time>2026-03-24T11:12:18.845Z</time></trkpt><trkpt lat="45.9522533" lon="9.275764"><ele>210.0</ele><time>2026-03-24T11:12:19.841Z</time></trkpt><trkpt lat="45.9521073" lon="9.2759185"><ele>210.0</ele><time>2026-03-24T11:12:20.854Z</time></trkpt><trkpt lat="45.9519322" lon="9.2760345"><ele>210.0</ele><time>2026-03-24T11:12:21.853Z</time></trkpt><trkpt lat="45.9517432" lon="9.2761643"><ele>210.0</ele><time>2026-03-24T11:12:22.848Z</time></trkpt><trkpt lat="45.9515421" lon="9.27628"><ele>210.33333333333331</ele><time>2026-03-24T11:12:23.85Z</time></trkpt><trkpt lat="45.9513664" lon="9.276378"><ele>210.66666666666666</ele><time>2026-03-24T11:12:24.852Z</time></trkpt><trkpt lat="45.9512259" lon="9.2764854"><ele>211.0</ele><time>2026-03-24T11:12:25.847Z</time></trkpt><trkpt lat="45.9510811" lon="9.2765706"><ele>211.0</ele><time>2026-03-24T11:12:26.854Z</time></trkpt><trkpt lat="45.950962" lon="9.2766421"><ele>211.0</ele><time>2026-03-24T11:12:27.844Z</time></trkpt><trkpt lat="45.9508351" lon="9.2767585"><ele>211.0</ele><time>2026-03-24T11:12:28.836Z</time></trkpt><trkpt lat="45.9506862" lon="9.2768743"><ele>211.0</ele><time>2026-03-24T11:12:29.836Z</time></trkpt><trkpt lat="45.9505564" lon="9.2769701"><ele>214.66666666666666</ele><time>2026-03-24T11:12:30.83Z</time></trkpt><trkpt lat="45.9503881" lon="9.2770934"><ele>218.33333333333331</ele><time>2026-03-24T11:12:31.845Z</time></trkpt><trkpt lat="45.9502422" lon="9.2771944"><ele>222.0</ele><time>2026-03-24T11:12:32.847Z</time></trkpt><trkpt lat="45.9500689" lon="9.2772471"><ele>217.75</ele><time>2026-03-24T11:12:33.849Z</time></trkpt><trkpt lat="45.9499012" lon="9.2772549"><ele>213.5</ele><time>2026-03-24T11:12:34.857Z</time></trkpt><trkpt lat="45.9497704" lon="9.2772866"><ele>209.25</ele><time>2026-03-24T11:12:35.853Z</time></trkpt><trkpt lat="45.9496308" lon="9.2773229"><ele>205.0</ele><time>2026-03-24T11:12:36.855Z</time></trkpt><trkpt lat="45.9494964" lon="9.2773567"><ele>205.0</ele><time>2026-03-24T11:12:37.848Z</time></trkpt><trkpt lat="45.9493756" lon="9.2774235"><ele>205.0</ele><time>2026-03-24T11:12:38.843Z</time></trkpt><trkpt lat="45.949274" lon="9.2775043"><ele>205.0</ele><time>2026-03-24T11:12:39.839Z</time></trkpt><trkpt lat="45.949158" lon="9.2775928"><ele>205.0</ele><time>2026-03-24T11:12:40.84Z</time></trkpt><trkpt lat="45.949035" lon="9.2776611"><ele>210.0</ele><time>2026-03-24T11:12:41.836Z</time></trkpt><trkpt lat="45.9488962" lon="9.2777749"><ele>215.0</ele><time>2026-03-24T11:12:42.842Z</time></trkpt><trkpt lat="45.9487424" lon="9.2778167"><ele>220.0</ele><time>2026-03-24T11:12:43.845Z</time></trkpt><trkpt lat="45.9485722" lon="9.2777463"><ele>220.0</ele><time>2026-03-24T11:12:44.845Z</time></trkpt><trkpt lat="45.9484449" lon="9.2777301"><ele>220.0</ele><time>2026-03-24T11:12:45.842Z</time></trkpt><trkpt lat="45.9483031" lon="9.2776861"><ele>220.0</ele><time>2026-03-24T11:12:46.858Z</time></trkpt><trkpt lat="45.9481828" lon="9.277624"><ele>220.0</ele><time>2026-03-24T11:12:47.844Z</time></trkpt><trkpt lat="45.9480938" lon="9.2776514"><ele>223.0</ele><time>2026-03-24T11:12:48.835Z</time></trkpt><trkpt lat="45.9479965" lon="9.2777348"><ele>226.0</ele><time>2026-03-24T11:12:49.84Z</time></trkpt><trkpt lat="45.9478703" lon="9.2778245"><ele>229.0</ele><time>2026-03-24T11:12:50.843Z</time></trkpt><trkpt lat="45.947748" lon="9.2779254"><ele>232.0</ele><time>2026-03-24T11:12:51.84Z</time></trkpt><trkpt lat="45.9476411" lon="9.2779754"><ele>238.0</ele><time>2026-03-24T11:12:52.833Z</time></trkpt><trkpt lat="45.9475346" lon="9.278048"><ele>244.0</ele><time>2026-03-24T11:12:53.833Z</time></trkpt><trkpt lat="45.9474025" lon="9.2780085"><ele>250.0</ele><time>2026-03-24T11:12:54.833Z</time></trkpt><trkpt lat="45.9472571" lon="9.2780028"><ele>256.0</ele><time>2026-03-24T11:12:55.837Z</time></trkpt><trkpt lat="45.9471033" lon="9.2779779"><ele>256.0</ele><time>2026-03-24T11:12:56.841Z</time></trkpt><trkpt lat="45.9469836" lon="9.2779442"><ele>256.0</ele><time>2026-03-24T11:12:57.829Z</time></trkpt><trkpt lat="45.9468777" lon="9.2779924"><ele>256.0</ele><time>2026-03-24T11:12:58.826Z</time></trkpt><trkpt lat="45.9467623" lon="9.2780973"><ele>256.0</ele><time>2026-03-24T11:12:59.841Z</time></trkpt><trkpt lat="45.946685" lon="9.2782303"><ele>251.4</ele><time>2026-03-24T11:13:00.833Z</time></trkpt><trkpt lat="45.9466249" lon="9.2783445"><ele>246.8</ele><time>2026-03-24T11:13:01.822Z</time></trkpt><trkpt lat="45.9465334" lon="9.278423"><ele>242.20000000000002</ele><time>2026-03-24T11:13:02.827Z</time></trkpt><trkpt lat="45.9464329" lon="9.278476"><ele>237.60000000000002</ele><time>2026-03-24T11:13:03.827Z</time></trkpt><trkpt lat="45.9463264" lon="9.2785187"><ele>233.0</ele><time>2026-03-24T11:13:04.824Z</time></trkpt><trkpt lat="45.9461997" lon="9.2785666"><ele>233.0</ele><time>2026-03-24T11:13:05.828Z</time></trkpt><trkpt lat="45.9460573" lon="9.2786015"><ele>233.0</ele><time>2026-03-24T11:13:06.821Z</time></trkpt><trkpt lat="45.9458714" lon="9.2786153"><ele>233.0</ele><time>2026-03-24T11:13:07.832Z</time></trkpt><trkpt lat="45.9456918" lon="9.2786495"><ele>233.75</ele><time>2026-03-24T11:13:08.826Z</time></trkpt><trkpt lat="45.9455545" lon="9.2787015"><ele>234.5</ele><time>2026-03-24T11:13:09.835Z</time></trkpt><trkpt lat="45.9454146" lon="9.2787844"><ele>235.25</ele><time>2026-03-24T11:13:10.834Z</time></trkpt><trkpt lat="45.9452825" lon="9.2788102"><ele>236.0</ele><time>2026-03-24T11:13:11.839Z</time></trkpt><trkpt lat="45.9451337" lon="9.2788686"><ele>239.33333333333334</ele><time>2026-03-24T11:13:12.837Z</time></trkpt><trkpt lat="45.9449693" lon="9.2788778"><ele>242.66666666666669</ele><time>2026-03-24T11:13:13.835Z</time></trkpt><trkpt lat="45.9448018" lon="9.2788713"><ele>246.0</ele><time>2026-03-24T11:13:14.834Z</time></trkpt><trkpt lat="45.944643" lon="9.2788531"><ele>246.0</ele><time>2026-03-24T11:13:15.827Z</time></trkpt><trkpt lat="45.9444907" lon="9.2789279"><ele>246.0</ele><time>2026-03-24T11:13:16.829Z</time></trkpt><trkpt lat="45.9443457" lon="9.2790393"><ele>246.0</ele><time>2026-03-24T11:13:17.841Z</time></trkpt><trkpt lat="45.9442093" lon="9.2790952"><ele>246.0</ele><time>2026-03-24T11:13:18.828Z</time></trkpt><trkpt lat="45.9440691" lon="9.2790957"><ele>246.0</ele><time>2026-03-24T11:13:19.831Z</time></trkpt><trkpt lat="45.9439447" lon="9.2790952"><ele>246.0</ele><time>2026-03-24T11:13:20.838Z</time></trkpt><trkpt lat="45.9438109" lon="9.2791445"><ele>246.0</ele><time>2026-03-24T11:13:21.837Z</time></trkpt><trkpt lat="45.9436683" lon="9.2791804"><ele>244.8</ele><time>2026-03-24T11:13:22.83Z</time></trkpt><trkpt lat="45.943588" lon="9.2791857"><ele>243.60000000000002</ele><time>2026-03-24T11:13:23.833Z</time></trkpt><trkpt lat="45.9434746" lon="9.2792299"><ele>242.4</ele><time>2026-03-24T11:13:24.835Z</time></trkpt><trkpt lat="45.9433679" lon="9.2793295"><ele>241.2</ele><time>2026-03-24T11:13:25.834Z</time></trkpt><trkpt lat="45.943303" lon="9.279418"><ele>240.0</ele><time>2026-03-24T11:13:26.848Z</time></trkpt><trkpt lat="45.9432205" lon="9.2794977"><ele>240.0</ele><time>2026-03-24T11:13:27.829Z</time></trkpt><trkpt lat="45.9431564" lon="9.2796252"><ele>240.0</ele><time>2026-03-24T11:13:28.833Z</time></trkpt><trkpt lat="45.9430699" lon="9.2798032"><ele>240.0</ele><time>2026-03-24T11:13:29.83Z</time></trkpt><trkpt lat="45.9429987" lon="9.2800003"><ele>240.0</ele><time>2026-03-24T11:13:30.838Z</time></trkpt><trkpt lat="45.9428932" lon="9.2801207"><ele>238.66666666666669</ele><time>2026-03-24T11:13:31.837Z</time></trkpt><trkpt lat="45.9427977" lon="9.2802269"><ele>237.33333333333334</ele><time>2026-03-24T11:13:32.84Z</time></trkpt><trkpt lat="45.9426491" lon="9.2803049"><ele>236.0</ele><time>2026-03-24T11:13:33.832Z</time></trkpt><trkpt lat="45.9424688" lon="9.2803412"><ele>236.0</ele><time>2026-03-24T11:13:34.841Z</time></trkpt><trkpt lat="45.9422935" lon="9.2804666"><ele>236.0</ele><time>2026-03-24T11:13:35.85Z</time></trkpt><trkpt lat="45.9421396" lon="9.2806482"><ele>236.0</ele><time>2026-03-24T11:13:36.84Z</time></trkpt><trkpt lat="45.9419803" lon="9.2808026"><ele>233.66666666666669</ele><time>2026-03-24T11:13:37.84Z</time></trkpt><trkpt lat="45.9418174" lon="9.2810017"><ele>231.33333333333331</ele><time>2026-03-24T11:13:38.842Z</time></trkpt><trkpt lat="45.9416625" lon="9.2811839"><ele>229.0</ele><time>2026-03-24T11:13:39.839Z</time></trkpt><trkpt lat="45.9415381" lon="9.2813434"><ele>222.5</ele><time>2026-03-24T11:13:40.848Z</time></trkpt><trkpt lat="45.9414043" lon="9.2814868"><ele>216.0</ele><time>2026-03-24T11:13:41.844Z</time></trkpt><trkpt lat="45.9412796" lon="9.2815859"><ele>209.5</ele><time>2026-03-24T11:13:42.843Z</time></trkpt><trkpt lat="45.9411704" lon="9.2816984"><ele>203.0</ele><time>2026-03-24T11:13:43.844Z</time></trkpt><trkpt lat="45.9410559" lon="9.281792"><ele>203.0</ele><time>2026-03-24T11:13:44.841Z</time></trkpt><trkpt lat="45.9409819" lon="9.281895"><ele>203.0</ele><time>2026-03-24T11:13:45.845Z</time></trkpt><trkpt lat="45.9408923" lon="9.2819969"><ele>203.0</ele><time>2026-03-24T11:13:46.842Z</time></trkpt><trkpt lat="45.9407781" lon="9.2820632"><ele>203.0</ele><time>2026-03-24T11:13:47.827Z</time></trkpt><trkpt lat="45.9406205" lon="9.282089"><ele>205.25</ele><time>2026-03-24T11:13:48.85Z</time></trkpt><trkpt lat="45.9405014" lon="9.2821147"><ele>207.5</ele><time>2026-03-24T11:13:49.843Z</time></trkpt><trkpt lat="45.9403631" lon="9.2821795"><ele>209.75</ele><time>2026-03-24T11:13:50.85Z</time></trkpt><trkpt lat="45.9402205" lon="9.282228"><ele>212.0</ele><time>2026-03-24T11:13:51.838Z</time></trkpt><trkpt lat="45.9400315" lon="9.2822917"><ele>212.0</ele><time>2026-03-24T11:13:52.84Z</time></trkpt><trkpt lat="45.9398305" lon="9.2823013"><ele>212.0</ele><time>2026-03-24T11:13:53.841Z</time></trkpt><trkpt lat="45.9396511" lon="9.2823058"><ele>212.0</ele><time>2026-03-24T11:13:54.853Z</time></trkpt><trkpt lat="45.9394992" lon="9.2823134"><ele>212.0</ele><time>2026-03-24T11:13:55.855Z</time></trkpt><trkpt lat="45.9393657" lon="9.2823166"><ele>212.0</ele><time>2026-03-24T11:13:56.867Z</time></trkpt><trkpt lat="45.9392401" lon="9.2823174"><ele>212.0</ele><time>2026-03-24T11:13:57.85Z</time></trkpt><trkpt lat="45.9391111" lon="9.2823366"><ele>212.0</ele><time>2026-03-24T11:13:58.849Z</time></trkpt><trkpt lat="45.9389657" lon="9.2823609"><ele>208.5</ele><time>2026-03-24T11:13:59.85Z</time></trkpt><trkpt lat="45.9388317" lon="9.2823426"><ele>205.0</ele><time>2026-03-24T11:14:00.85Z</time></trkpt><trkpt lat="45.9387019" lon="9.2823231"><ele>201.5</ele><time>2026-03-24T11:14:01.84Z</time></trkpt><trkpt lat="45.9385758" lon="9.2823201"><ele>198.0</ele><time>2026-03-24T11:14:02.832Z</time></trkpt><trkpt lat="45.9384751" lon="9.2823462"><ele>202.4</ele><time>2026-03-24T11:14:03.831Z</time></trkpt><trkpt lat="45.9383559" lon="9.2823735"><ele>206.8</ele><time>2026-03-24T11:14:04.831Z</time></trkpt><trkpt lat="45.9382435" lon="9.2824035"><ele>211.2</ele><time>2026-03-24T11:14:05.826Z</time></trkpt><trkpt lat="45.9381512" lon="9.2824483"><ele>215.6</ele><time>2026-03-24T11:14:06.835Z</time></trkpt><trkpt lat="45.9380486" lon="9.2824683"><ele>220.0</ele><time>2026-03-24T11:14:07.834Z</time></trkpt><trkpt lat="45.9379399" lon="9.2824571"><ele>220.0</ele><time>2026-03-24T11:14:08.837Z</time></trkpt><trkpt lat="45.9378039" lon="9.2824314"><ele>220.0</ele><time>2026-03-24T11:14:09.824Z</time></trkpt><trkpt lat="45.9376463" lon="9.2824007"><ele>220.0</ele><time>2026-03-24T11:14:10.829Z</time></trkpt><trkpt lat="45.9374479" lon="9.282332"><ele>222.0</ele><time>2026-03-24T11:14:11.839Z</time></trkpt><trkpt lat="45.937269" lon="9.2823309"><ele>224.0</ele><time>2026-03-24T11:14:12.833Z</time></trkpt><trkpt lat="45.937096" lon="9.2823425"><ele>226.0</ele><time>2026-03-24T11:14:13.831Z</time></trkpt><trkpt lat="45.936932" lon="9.2823112"><ele>226.0</ele><time>2026-03-24T11:14:14.838Z</time></trkpt><trkpt lat="45.9368049" lon="9.2822861"><ele>226.0</ele><time>2026-03-24T11:14:15.841Z</time></trkpt><trkpt lat="45.9366611" lon="9.2822709"><ele>226.0</ele><time>2026-03-24T11:14:16.845Z</time></trkpt><trkpt lat="45.9365131" lon="9.2822949"><ele>226.0</ele><time>2026-03-24T11:14:17.839Z</time></trkpt><trkpt lat="45.9363681" lon="9.2823142"><ele>223.0</ele><time>2026-03-24T11:14:18.835Z</time></trkpt><trkpt lat="45.936226" lon="9.2823576"><ele>220.0</ele><time>2026-03-24T11:14:19.858Z</time></trkpt><trkpt lat="45.9360889" lon="9.2824012"><ele>217.0</ele><time>2026-03-24T11:14:20.842Z</time></trkpt><trkpt lat="45.9359523" lon="9.2824321"><ele>214.0</ele><time>2026-03-24T11:14:21.838Z</time></trkpt><trkpt lat="45.9358163" lon="9.2823696"><ele>212.0</ele><time>2026-03-24T11:14:22.831Z</time></trkpt><trkpt lat="45.9356619" lon="9.2823719"><ele>210.0</ele><time>2026-03-24T11:14:23.835Z</time></trkpt><trkpt lat="45.9355097" lon="9.282355"><ele>208.0</ele><time>2026-03-24T11:14:24.841Z</time></trkpt><trkpt lat="45.9353466" lon="9.2823828"><ele>208.0</ele><time>2026-03-24T11:14:25.842Z</time></trkpt><trkpt lat="45.9351911" lon="9.2824136"><ele>208.0</ele><time>2026-03-24T11:14:26.858Z</time></trkpt><trkpt lat="45.935057" lon="9.282446"><ele>208.0</ele><time>2026-03-24T11:14:27.84Z</time></trkpt><trkpt lat="45.9349143" lon="9.2824965"><ele>208.0</ele><time>2026-03-24T11:14:28.851Z</time></trkpt><trkpt lat="45.9347628" lon="9.2825161"><ele>209.33333333333331</ele><time>2026-03-24T11:14:29.853Z</time></trkpt><trkpt lat="45.9346027" lon="9.282624"><ele>210.66666666666669</ele><time>2026-03-24T11:14:30.845Z</time></trkpt><trkpt lat="45.9344352" lon="9.2827629"><ele>212.0</ele><time>2026-03-24T11:14:31.846Z</time></trkpt><trkpt lat="45.9343089" lon="9.2828984"><ele>212.0</ele><time>2026-03-24T11:14:32.84Z</time></trkpt><trkpt lat="45.934135" lon="9.2830582"><ele>212.0</ele><time>2026-03-24T11:14:33.849Z</time></trkpt><trkpt lat="45.9340005" lon="9.28323"><ele>212.0</ele><time>2026-03-24T11:14:34.853Z</time></trkpt><trkpt lat="45.9338712" lon="9.2833682"><ele>212.0</ele><time>2026-03-24T11:14:35.851Z</time></trkpt><trkpt lat="45.9337522" lon="9.2835327"><ele>212.0</ele><time>2026-03-24T11:14:36.85Z</time></trkpt><trkpt lat="45.9336287" lon="9.2836719"><ele>212.0</ele><time>2026-03-24T11:14:37.854Z</time></trkpt><trkpt lat="45.9335111" lon="9.2837052"><ele>212.0</ele><time>2026-03-24T11:14:38.858Z</time></trkpt><trkpt lat="45.9333649" lon="9.2837458"><ele>212.0</ele><time>2026-03-24T11:14:39.846Z</time></trkpt><trkpt lat="45.9332534" lon="9.2837821"><ele>212.0</ele><time>2026-03-24T11:14:40.851Z</time></trkpt><trkpt lat="45.9331328" lon="9.2837845"><ele>212.0</ele><time>2026-03-24T11:14:41.85Z</time></trkpt><trkpt lat="45.9329959" lon="9.2838339"><ele>212.0</ele><time>2026-03-24T11:14:42.859Z</time></trkpt><trkpt lat="45.9328359" lon="9.2838749"><ele>212.0</ele><time>2026-03-24T11:14:43.86Z</time></trkpt><trkpt lat="45.9326771" lon="9.2838956"><ele>212.0</ele><time>2026-03-24T11:14:44.854Z</time></trkpt><trkpt lat="45.9325491" lon="9.283903"><ele>212.0</ele><time>2026-03-24T11:14:45.86Z</time></trkpt><trkpt lat="45.9324232" lon="9.2839178"><ele>212.0</ele><time>2026-03-24T11:14:46.858Z</time></trkpt><trkpt lat="45.9323059" lon="9.2838952"><ele>213.5</ele><time>2026-03-24T11:14:47.942Z</time></trkpt><trkpt lat="45.9321651" lon="9.2838583"><ele>215.0</ele><time>2026-03-24T11:14:48.846Z</time></trkpt><trkpt lat="45.9320233" lon="9.2838245"><ele>216.5</ele><time>2026-03-24T11:14:49.849Z</time></trkpt><trkpt lat="45.9318621" lon="9.2838123"><ele>218.0</ele><time>2026-03-24T11:14:50.88Z</time></trkpt><trkpt lat="45.9317182" lon="9.2837655"><ele>218.60000000000002</ele><time>2026-03-24T11:14:51.848Z</time></trkpt><trkpt lat="45.9315993" lon="9.2837069"><ele>219.20000000000002</ele><time>2026-03-24T11:14:52.848Z</time></trkpt><trkpt lat="45.931475" lon="9.283686"><ele>219.8</ele><time>2026-03-24T11:14:53.845Z</time></trkpt><trkpt lat="45.9313757" lon="9.2836972"><ele>220.4</ele><time>2026-03-24T11:14:54.837Z</time></trkpt><trkpt lat="45.9312898" lon="9.2837412"><ele>221.0</ele><time>2026-03-24T11:14:55.842Z</time></trkpt><trkpt lat="45.9312156" lon="9.283789"><ele>221.00000000000003</ele><time>2026-03-24T11:14:56.855Z</time></trkpt><trkpt lat="45.9311489" lon="9.283827"><ele>221.0</ele><time>2026-03-24T11:14:57.854Z</time></trkpt><trkpt lat="45.9310752" lon="9.2838693"><ele>221.0</ele><time>2026-03-24T11:14:58.85Z</time></trkpt><trkpt lat="45.9309961" lon="9.2839052"><ele>221.0</ele><time>2026-03-24T11:14:59.848Z</time></trkpt><trkpt lat="45.9309035" lon="9.2839388"><ele>221.00000000000003</ele><time>2026-03-24T11:15:00.842Z</time></trkpt><trkpt lat="45.9307982" lon="9.2839989"><ele>221.0</ele><time>2026-03-24T11:15:01.846Z</time></trkpt><trkpt lat="45.930681" lon="9.2840674"><ele>218.75</ele><time>2026-03-24T11:15:02.846Z</time></trkpt><trkpt lat="45.9305619" lon="9.2841719"><ele>216.5</ele><time>2026-03-24T11:15:03.849Z</time></trkpt><trkpt lat="45.9304206" lon="9.2842622"><ele>214.25</ele><time>2026-03-24T11:15:04.847Z</time></trkpt><trkpt lat="45.9302924" lon="9.2843748"><ele>212.0</ele><time>2026-03-24T11:15:05.856Z</time></trkpt><trkpt lat="45.9301735" lon="9.284474"><ele>212.25</ele><time>2026-03-24T11:15:06.845Z</time></trkpt><trkpt lat="45.930038" lon="9.2845033"><ele>212.5</ele><time>2026-03-24T11:15:07.853Z</time></trkpt><trkpt lat="45.9299006" lon="9.28453"><ele>212.75</ele><time>2026-03-24T11:15:08.85Z</time></trkpt><trkpt lat="45.9297756" lon="9.2845666"><ele>213.0</ele><time>2026-03-24T11:15:09.849Z</time></trkpt><trkpt lat="45.9296406" lon="9.2845541"><ele>213.0</ele><time>2026-03-24T11:15:10.857Z</time></trkpt><trkpt lat="45.9295144" lon="9.2845623"><ele>213.0</ele><time>2026-03-24T11:15:11.854Z</time></trkpt><trkpt lat="45.9294272" lon="9.2846047"><ele>213.0</ele><time>2026-03-24T11:15:12.848Z</time></trkpt><trkpt lat="45.9293549" lon="9.2846181"><ele>213.0</ele><time>2026-03-24T11:15:14.846Z</time></trkpt><trkpt lat="45.9292546" lon="9.2846322"><ele>213.0</ele><time>2026-03-24T11:15:16.837Z</time></trkpt><trkpt lat="45.9291751" lon="9.2846232"><ele>213.4</ele><time>2026-03-24T11:15:17.846Z</time></trkpt><trkpt lat="45.9290931" lon="9.2846201"><ele>213.8</ele><time>2026-03-24T11:15:18.845Z</time></trkpt><trkpt lat="45.9290135" lon="9.2846223"><ele>214.2</ele><time>2026-03-24T11:15:19.857Z</time></trkpt><trkpt lat="45.9289184" lon="9.2846235"><ele>214.6</ele><time>2026-03-24T11:15:20.869Z</time></trkpt><trkpt lat="45.9288141" lon="9.2846454"><ele>215.0</ele><time>2026-03-24T11:15:21.866Z</time></trkpt><trkpt lat="45.9287051" lon="9.2846874"><ele>215.0</ele><time>2026-03-24T11:15:22.851Z</time></trkpt><trkpt lat="45.928588" lon="9.2847501"><ele>215.0</ele><time>2026-03-24T11:15:23.855Z</time></trkpt><trkpt lat="45.9284782" lon="9.2848339"><ele>215.0</ele><time>2026-03-24T11:15:24.854Z</time></trkpt><trkpt lat="45.9283716" lon="9.2849402"><ele>215.0</ele><time>2026-03-24T11:15:25.854Z</time></trkpt><trkpt lat="45.9282724" lon="9.2850421"><ele>214.0</ele><time>2026-03-24T11:15:26.862Z</time></trkpt><trkpt lat="45.9281739" lon="9.2851369"><ele>213.0</ele><time>2026-03-24T11:15:27.85Z</time></trkpt><trkpt lat="45.9280652" lon="9.2852289"><ele>212.0</ele><time>2026-03-24T11:15:28.859Z</time></trkpt><trkpt lat="45.9279396" lon="9.285327"><ele>211.0</ele><time>2026-03-24T11:15:29.857Z</time></trkpt><trkpt lat="45.9278105" lon="9.2854184"><ele>211.0</ele><time>2026-03-24T11:15:30.861Z</time></trkpt><trkpt lat="45.9276599" lon="9.2854952"><ele>211.0</ele><time>2026-03-24T11:15:31.843Z</time></trkpt><trkpt lat="45.9275096" lon="9.2855401"><ele>211.0</ele><time>2026-03-24T11:15:32.844Z</time></trkpt><trkpt lat="45.9273864" lon="9.2855737"><ele>211.0</ele><time>2026-03-24T11:15:33.839Z</time></trkpt><trkpt lat="45.9272609" lon="9.2855533"><ele>212.0</ele><time>2026-03-24T11:15:34.845Z</time></trkpt><trkpt lat="45.9271636" lon="9.2855325"><ele>213.0</ele><time>2026-03-24T11:15:35.84Z</time></trkpt><trkpt lat="45.9270244" lon="9.2855195"><ele>214.0</ele><time>2026-03-24T11:15:36.849Z</time></trkpt><trkpt lat="45.926895" lon="9.2854725"><ele>215.0</ele><time>2026-03-24T11:15:37.845Z</time></trkpt><trkpt lat="45.9267745" lon="9.285449"><ele>214.0</ele><time>2026-03-24T11:15:38.85Z</time></trkpt><trkpt lat="45.9266401" lon="9.285411"><ele>213.0</ele><time>2026-03-24T11:15:39.843Z</time></trkpt><trkpt lat="45.9265107" lon="9.2853796"><ele>212.0</ele><time>2026-03-24T11:15:40.856Z</time></trkpt><trkpt lat="45.9263699" lon="9.2853572"><ele>211.0</ele><time>2026-03-24T11:15:41.858Z</time></trkpt><trkpt lat="45.926215" lon="9.2853585"><ele>211.0</ele><time>2026-03-24T11:15:42.858Z</time></trkpt><trkpt lat="45.9260624" lon="9.2853613"><ele>211.0</ele><time>2026-03-24T11:15:43.864Z</time></trkpt><trkpt lat="45.9259239" lon="9.2853476"><ele>211.0</ele><time>2026-03-24T11:15:44.852Z</time></trkpt><trkpt lat="45.9258107" lon="9.2853188"><ele>211.0</ele><time>2026-03-24T11:15:45.842Z</time></trkpt><trkpt lat="45.9256966" lon="9.2853139"><ele>212.25</ele><time>2026-03-24T11:15:46.846Z</time></trkpt><trkpt lat="45.925568" lon="9.2853871"><ele>213.5</ele><time>2026-03-24T11:15:47.831Z</time></trkpt><trkpt lat="45.9254142" lon="9.285478"><ele>214.75</ele><time>2026-03-24T11:15:48.846Z</time></trkpt><trkpt lat="45.9252909" lon="9.2855528"><ele>216.0</ele><time>2026-03-24T11:15:49.839Z</time></trkpt><trkpt lat="45.9251974" lon="9.2856413"><ele>214.75</ele><time>2026-03-24T11:15:50.844Z</time></trkpt><trkpt lat="45.925105" lon="9.2857522"><ele>213.5</ele><time>2026-03-24T11:15:51.855Z</time></trkpt><trkpt lat="45.9250174" lon="9.2858739"><ele>212.25</ele><time>2026-03-24T11:15:52.844Z</time></trkpt><trkpt lat="45.9249324" lon="9.2859931"><ele>211.0</ele><time>2026-03-24T11:15:53.844Z</time></trkpt><trkpt lat="45.9248423" lon="9.2860844"><ele>211.0</ele><time>2026-03-24T11:15:54.837Z</time></trkpt><trkpt lat="45.9247523" lon="9.2861757"><ele>211.0</ele><time>2026-03-24T11:15:55.837Z</time></trkpt><trkpt lat="45.9246401" lon="9.2862242"><ele>211.0</ele><time>2026-03-24T11:15:56.866Z</time></trkpt><trkpt lat="45.9245128" lon="9.2863078"><ele>211.0</ele><time>2026-03-24T11:15:57.858Z</time></trkpt><trkpt lat="45.924389" lon="9.2863899"><ele>210.0</ele><time>2026-03-24T11:15:58.85Z</time></trkpt><trkpt lat="45.9242557" lon="9.2864606"><ele>209.0</ele><time>2026-03-24T11:15:59.844Z</time></trkpt><trkpt lat="45.9241269" lon="9.2865792"><ele>208.0</ele><time>2026-03-24T11:16:00.843Z</time></trkpt><trkpt lat="45.9239889" lon="9.2866453"><ele>207.0</ele><time>2026-03-24T11:16:01.853Z</time></trkpt><trkpt lat="45.9238822" lon="9.2867277"><ele>207.0</ele><time>2026-03-24T11:16:02.847Z</time></trkpt><trkpt lat="45.923765" lon="9.2868361"><ele>207.0</ele><time>2026-03-24T11:16:03.839Z</time></trkpt><trkpt lat="45.9236406" lon="9.2869868"><ele>207.0</ele><time>2026-03-24T11:16:04.84Z</time></trkpt><trkpt lat="45.9234885" lon="9.2871823"><ele>208.0</ele><time>2026-03-24T11:16:05.843Z</time></trkpt><trkpt lat="45.9233439" lon="9.2873531"><ele>209.0</ele><time>2026-03-24T11:16:06.832Z</time></trkpt><trkpt lat="45.9232231" lon="9.2874734"><ele>210.0</ele><time>2026-03-24T11:16:07.834Z</time></trkpt><trkpt lat="45.9230932" lon="9.2875527"><ele>210.0</ele><time>2026-03-24T11:16:08.834Z</time></trkpt><trkpt lat="45.9229492" lon="9.2876162"><ele>210.0</ele><time>2026-03-24T11:16:09.833Z</time></trkpt><trkpt lat="45.9228299" lon="9.287674"><ele>210.0</ele><time>2026-03-24T11:16:10.826Z</time></trkpt><trkpt lat="45.9226822" lon="9.2876403"><ele>210.0</ele><time>2026-03-24T11:16:11.831Z</time></trkpt><trkpt lat="45.9225205" lon="9.2875828"><ele>213.75</ele><time>2026-03-24T11:16:12.837Z</time></trkpt><trkpt lat="45.9223993" lon="9.2875543"><ele>217.5</ele><time>2026-03-24T11:16:13.837Z</time></trkpt><trkpt lat="45.9222801" lon="9.2875267"><ele>221.25</ele><time>2026-03-24T11:16:14.844Z</time></trkpt><trkpt lat="45.9221615" lon="9.287531"><ele>225.0</ele><time>2026-03-24T11:16:15.841Z</time></trkpt><trkpt lat="45.92204" lon="9.287561"><ele>225.0</ele><time>2026-03-24T11:16:16.845Z</time></trkpt><trkpt lat="45.9219135" lon="9.2876285"><ele>225.0</ele><time>2026-03-24T11:16:17.845Z</time></trkpt><trkpt lat="45.9217957" lon="9.2876898"><ele>225.0</ele><time>2026-03-24T11:16:18.847Z</time></trkpt><trkpt lat="45.9216833" lon="9.2877467"><ele>225.0</ele><time>2026-03-24T11:16:19.855Z</time></trkpt><trkpt lat="45.9215884" lon="9.2878053"><ele>226.8</ele><time>2026-03-24T11:16:20.855Z</time></trkpt><trkpt lat="45.9214985" lon="9.2878558"><ele>228.6</ele><time>2026-03-24T11:16:21.853Z</time></trkpt><trkpt lat="45.9213981" lon="9.2879009"><ele>230.39999999999998</ele><time>2026-03-24T11:16:22.873Z</time></trkpt><trkpt lat="45.9212962" lon="9.2879588"><ele>232.2</ele><time>2026-03-24T11:16:23.854Z</time></trkpt><trkpt lat="45.9211992" lon="9.2880326"><ele>234.0</ele><time>2026-03-24T11:16:24.859Z</time></trkpt><trkpt lat="45.9211085" lon="9.288112"><ele>230.6</ele><time>2026-03-24T11:16:25.857Z</time></trkpt><trkpt lat="45.9210227" lon="9.2882035"><ele>227.2</ele><time>2026-03-24T11:16:26.859Z</time></trkpt><trkpt lat="45.9209481" lon="9.2883033"><ele>223.79999999999998</ele><time>2026-03-24T11:16:27.843Z</time></trkpt><trkpt lat="45.9208607" lon="9.2884007"><ele>220.39999999999998</ele><time>2026-03-24T11:16:28.852Z</time></trkpt><trkpt lat="45.9207707" lon="9.2884913"><ele>217.0</ele><time>2026-03-24T11:16:29.858Z</time></trkpt><trkpt lat="45.9206811" lon="9.2885743"><ele>217.0</ele><time>2026-03-24T11:16:30.856Z</time></trkpt><trkpt lat="45.9205933" lon="9.2886627"><ele>217.0</ele><time>2026-03-24T11:16:31.856Z</time></trkpt><trkpt lat="45.9205028" lon="9.2887489"><ele>217.0</ele><time>2026-03-24T11:16:32.853Z</time></trkpt><trkpt lat="45.9204114" lon="9.2888158"><ele>217.0</ele><time>2026-03-24T11:16:33.848Z</time></trkpt><trkpt lat="45.9203216" lon="9.2888834"><ele>217.0</ele><time>2026-03-24T11:16:34.85Z</time></trkpt><trkpt lat="45.9202287" lon="9.2889715"><ele>215.6</ele><time>2026-03-24T11:16:35.842Z</time></trkpt><trkpt lat="45.9201439" lon="9.2890509"><ele>214.2</ele><time>2026-03-24T11:16:36.852Z</time></trkpt><trkpt lat="45.9200599" lon="9.2891171"><ele>212.8</ele><time>2026-03-24T11:16:37.85Z</time></trkpt><trkpt lat="45.9199639" lon="9.2891652"><ele>211.4</ele><time>2026-03-24T11:16:38.848Z</time></trkpt><trkpt lat="45.9198638" lon="9.2891893"><ele>210.0</ele><time>2026-03-24T11:16:39.845Z</time></trkpt><trkpt lat="45.9197513" lon="9.2892013"><ele>210.0</ele><time>2026-03-24T11:16:40.853Z</time></trkpt><trkpt lat="45.9196424" lon="9.2892333"><ele>210.0</ele><time>2026-03-24T11:16:41.849Z</time></trkpt><trkpt lat="45.9195312" lon="9.2892507"><ele>210.0</ele><time>2026-03-24T11:16:42.851Z</time></trkpt><trkpt lat="45.9194001" lon="9.2892829"><ele>210.0</ele><time>2026-03-24T11:16:43.861Z</time></trkpt><trkpt lat="45.9192791" lon="9.2893155"><ele>210.5</ele><time>2026-03-24T11:16:44.862Z</time></trkpt><trkpt lat="45.9191657" lon="9.2893421"><ele>211.0</ele><time>2026-03-24T11:16:45.852Z</time></trkpt><trkpt lat="45.9190565" lon="9.2893674"><ele>211.5</ele><time>2026-03-24T11:16:46.866Z</time></trkpt><trkpt lat="45.918939" lon="9.2894067"><ele>212.0</ele><time>2026-03-24T11:16:47.873Z</time></trkpt><trkpt lat="45.918829" lon="9.2894495"><ele>212.0</ele><time>2026-03-24T11:16:48.867Z</time></trkpt><trkpt lat="45.918719" lon="9.2895019"><ele>212.0</ele><time>2026-03-24T11:16:49.861Z</time></trkpt><trkpt lat="45.9186075" lon="9.2895596"><ele>212.0</ele><time>2026-03-24T11:16:50.862Z</time></trkpt><trkpt lat="45.9185026" lon="9.2896416"><ele>212.0</ele><time>2026-03-24T11:16:51.852Z</time></trkpt><trkpt lat="45.9184199" lon="9.2897454"><ele>210.0</ele><time>2026-03-24T11:16:52.85Z</time></trkpt><trkpt lat="45.9183282" lon="9.2898517"><ele>208.0</ele><time>2026-03-24T11:16:53.876Z</time></trkpt><trkpt lat="45.9182251" lon="9.2899507"><ele>206.0</ele><time>2026-03-24T11:16:54.853Z</time></trkpt><trkpt lat="45.9181201" lon="9.2900433"><ele>204.0</ele><time>2026-03-24T11:16:55.843Z</time></trkpt><trkpt lat="45.9180027" lon="9.2901227"><ele>204.0</ele><time>2026-03-24T11:16:56.864Z</time></trkpt><trkpt lat="45.9178964" lon="9.2901724"><ele>204.0</ele><time>2026-03-24T11:16:57.842Z</time></trkpt><trkpt lat="45.9178091" lon="9.2902459"><ele>204.0</ele><time>2026-03-24T11:16:58.836Z</time></trkpt><trkpt lat="45.9177285" lon="9.2903376"><ele>204.0</ele><time>2026-03-24T11:16:59.838Z</time></trkpt><trkpt lat="45.9176447" lon="9.2904281"><ele>204.0</ele><time>2026-03-24T11:17:00.838Z</time></trkpt><trkpt lat="45.9175592" lon="9.2905464"><ele>204.75</ele><time>2026-03-24T11:17:01.84Z</time></trkpt><trkpt lat="45.9174793" lon="9.2906783"><ele>205.5</ele><time>2026-03-24T11:17:02.846Z</time></trkpt><trkpt lat="45.9174056" lon="9.2908168"><ele>206.25</ele><time>2026-03-24T11:17:03.844Z</time></trkpt><trkpt lat="45.9173295" lon="9.2909439"><ele>207.0</ele><time>2026-03-24T11:17:04.841Z</time></trkpt><trkpt lat="45.9172571" lon="9.2910962"><ele>207.0</ele><time>2026-03-24T11:17:05.852Z</time></trkpt><trkpt lat="45.9171749" lon="9.2912399"><ele>207.0</ele><time>2026-03-24T11:17:06.851Z</time></trkpt><trkpt lat="45.9171072" lon="9.2913813"><ele>207.0</ele><time>2026-03-24T11:17:07.845Z</time></trkpt><trkpt lat="45.9170286" lon="9.291507"><ele>207.0</ele><time>2026-03-24T11:17:08.841Z</time></trkpt><trkpt lat="45.916937" lon="9.2916218"><ele>206.75</ele><time>2026-03-24T11:17:09.85Z</time></trkpt><trkpt lat="45.9168397" lon="9.2917291"><ele>206.5</ele><time>2026-03-24T11:17:10.843Z</time></trkpt><trkpt lat="45.9167384" lon="9.291821"><ele>206.25</ele><time>2026-03-24T11:17:11.849Z</time></trkpt><trkpt lat="45.9166345" lon="9.291892"><ele>206.0</ele><time>2026-03-24T11:17:12.841Z</time></trkpt><trkpt lat="45.9165326" lon="9.291972"><ele>206.0</ele><time>2026-03-24T11:17:13.849Z</time></trkpt><trkpt lat="45.9164294" lon="9.2920503"><ele>206.0</ele><time>2026-03-24T11:17:14.848Z</time></trkpt><trkpt lat="45.9163358" lon="9.2921315"><ele>206.0</ele><time>2026-03-24T11:17:15.843Z</time></trkpt><trkpt lat="45.9162658" lon="9.2922074"><ele>206.0</ele><time>2026-03-24T11:17:16.849Z</time></trkpt><trkpt lat="45.9161788" lon="9.2922727"><ele>206.0</ele><time>2026-03-24T11:17:17.861Z</time></trkpt><trkpt lat="45.9160964" lon="9.2923262"><ele>205.20000000000002</ele><time>2026-03-24T11:17:18.852Z</time></trkpt><trkpt lat="45.9160225" lon="9.292393"><ele>204.4</ele><time>2026-03-24T11:17:19.852Z</time></trkpt><trkpt lat="45.9159455" lon="9.2924424"><ele>203.6</ele><time>2026-03-24T11:17:20.849Z</time></trkpt><trkpt lat="45.9158642" lon="9.2925097"><ele>202.8</ele><time>2026-03-24T11:17:21.845Z</time></trkpt><trkpt lat="45.915786" lon="9.2925843"><ele>202.0</ele><time>2026-03-24T11:17:22.839Z</time></trkpt><trkpt lat="45.915701" lon="9.2926605"><ele>202.0</ele><time>2026-03-24T11:17:23.84Z</time></trkpt><trkpt lat="45.9155961" lon="9.2927327"><ele>202.0</ele><time>2026-03-24T11:17:24.853Z</time></trkpt><trkpt lat="45.9154804" lon="9.2928131"><ele>202.0</ele><time>2026-03-24T11:17:25.831Z</time></trkpt><trkpt lat="45.9153438" lon="9.2928674"><ele>202.0</ele><time>2026-03-24T11:17:26.866Z</time></trkpt><trkpt lat="45.9152134" lon="9.2929257"><ele>202.0</ele><time>2026-03-24T11:17:27.864Z</time></trkpt><trkpt lat="45.9151015" lon="9.2929914"><ele>202.0</ele><time>2026-03-24T11:17:28.861Z</time></trkpt><trkpt lat="45.9150068" lon="9.2930332"><ele>202.0</ele><time>2026-03-24T11:17:29.852Z</time></trkpt><trkpt lat="45.9149072" lon="9.293068"><ele>202.0</ele><time>2026-03-24T11:17:30.864Z</time></trkpt><trkpt lat="45.9147948" lon="9.2930851"><ele>202.0</ele><time>2026-03-24T11:17:31.851Z</time></trkpt><trkpt lat="45.9146678" lon="9.2930845"><ele>202.75</ele><time>2026-03-24T11:17:32.856Z</time></trkpt><trkpt lat="45.9145358" lon="9.2930788"><ele>203.5</ele><time>2026-03-24T11:17:33.864Z</time></trkpt><trkpt lat="45.9144068" lon="9.2930626"><ele>204.25</ele><time>2026-03-24T11:17:34.864Z</time></trkpt><trkpt lat="45.9142764" lon="9.2930462"><ele>205.0</ele><time>2026-03-24T11:17:35.861Z</time></trkpt><trkpt lat="45.9141567" lon="9.2930285"><ele>205.2</ele><time>2026-03-24T11:17:36.864Z</time></trkpt><trkpt lat="45.9140498" lon="9.2930038"><ele>205.4</ele><time>2026-03-24T11:17:37.869Z</time></trkpt><trkpt lat="45.9139523" lon="9.2929779"><ele>205.60000000000002</ele><time>2026-03-24T11:17:38.871Z</time></trkpt><trkpt lat="45.9138424" lon="9.2929777"><ele>205.8</ele><time>2026-03-24T11:17:39.86Z</time></trkpt><trkpt lat="45.9137325" lon="9.2929919"><ele>206.0</ele><time>2026-03-24T11:17:40.87Z</time></trkpt><trkpt lat="45.9136324" lon="9.2930081"><ele>206.0</ele><time>2026-03-24T11:17:41.858Z</time></trkpt><trkpt lat="45.9135401" lon="9.2930349"><ele>206.0</ele><time>2026-03-24T11:17:42.865Z</time></trkpt><trkpt lat="45.9134493" lon="9.2930619"><ele>206.0</ele><time>2026-03-24T11:17:43.862Z</time></trkpt><trkpt lat="45.9133617" lon="9.2930878"><ele>206.0</ele><time>2026-03-24T11:17:44.861Z</time></trkpt><trkpt lat="45.913275" lon="9.2931128"><ele>206.0</ele><time>2026-03-24T11:17:45.86Z</time></trkpt><trkpt lat="45.9131867" lon="9.2931403"><ele>205.33333333333334</ele><time>2026-03-24T11:17:46.86Z</time></trkpt><trkpt lat="45.9131051" lon="9.2931738"><ele>204.66666666666669</ele><time>2026-03-24T11:17:47.856Z</time></trkpt><trkpt lat="45.9130379" lon="9.2932179"><ele>204.0</ele><time>2026-03-24T11:17:48.854Z</time></trkpt><trkpt lat="45.9129806" lon="9.2932586"><ele>203.33333333333331</ele><time>2026-03-24T11:17:49.858Z</time></trkpt><trkpt lat="45.912917" lon="9.2933065"><ele>202.66666666666666</ele><time>2026-03-24T11:17:50.854Z</time></trkpt><trkpt lat="45.9128407" lon="9.2933543"><ele>202.0</ele><time>2026-03-24T11:17:51.845Z</time></trkpt><trkpt lat="45.9127318" lon="9.2934336"><ele>202.0</ele><time>2026-03-24T11:17:52.841Z</time></trkpt><trkpt lat="45.912599" lon="9.2935219"><ele>202.0</ele><time>2026-03-24T11:17:53.838Z</time></trkpt><trkpt lat="45.9124672" lon="9.2936179"><ele>202.0</ele><time>2026-03-24T11:17:54.836Z</time></trkpt><trkpt lat="45.9123288" lon="9.2937006"><ele>202.0</ele><time>2026-03-24T11:17:55.852Z</time></trkpt><trkpt lat="45.9121792" lon="9.2937982"><ele>202.33333333333331</ele><time>2026-03-24T11:17:56.846Z</time></trkpt><trkpt lat="45.9120271" lon="9.2939436"><ele>202.66666666666669</ele><time>2026-03-24T11:17:57.836Z</time></trkpt><trkpt lat="45.911889" lon="9.2939896"><ele>203.0</ele><time>2026-03-24T11:17:58.838Z</time></trkpt><trkpt lat="45.9117178" lon="9.2940697"><ele>203.0</ele><time>2026-03-24T11:17:59.837Z</time></trkpt><trkpt lat="45.9115613" lon="9.2941018"><ele>203.0</ele><time>2026-03-24T11:18:00.837Z</time></trkpt><trkpt lat="45.9114153" lon="9.2940992"><ele>203.0</ele><time>2026-03-24T11:18:01.82Z</time></trkpt><trkpt lat="45.9112717" lon="9.2941736"><ele>203.0</ele><time>2026-03-24T11:18:02.824Z</time></trkpt><trkpt lat="45.9111687" lon="9.2941398"><ele>203.0</ele><time>2026-03-24T11:18:03.83Z</time></trkpt><trkpt lat="45.9110566" lon="9.2941302"><ele>203.0</ele><time>2026-03-24T11:18:04.822Z</time></trkpt><trkpt lat="45.910918" lon="9.2941725"><ele>203.0</ele><time>2026-03-24T11:18:05.826Z</time></trkpt><trkpt lat="45.9107839" lon="9.294228"><ele>203.5</ele><time>2026-03-24T11:18:06.82Z</time></trkpt><trkpt lat="45.9106471" lon="9.2942575"><ele>204.0</ele><time>2026-03-24T11:18:07.835Z</time></trkpt><trkpt lat="45.9105186" lon="9.2942836"><ele>204.5</ele><time>2026-03-24T11:18:08.839Z</time></trkpt><trkpt lat="45.9103954" lon="9.2943573"><ele>205.0</ele><time>2026-03-24T11:18:09.846Z</time></trkpt><trkpt lat="45.9102731" lon="9.2944486"><ele>205.0</ele><time>2026-03-24T11:18:10.851Z</time></trkpt><trkpt lat="45.9101776" lon="9.2945271"><ele>205.0</ele><time>2026-03-24T11:18:11.855Z</time></trkpt><trkpt lat="45.9100712" lon="9.2946263"><ele>205.0</ele><time>2026-03-24T11:18:12.865Z</time></trkpt><trkpt lat="45.9099733" lon="9.2946902"><ele>205.0</ele><time>2026-03-24T11:18:13.849Z</time></trkpt><trkpt lat="45.909896" lon="9.2946768"><ele>205.0</ele><time>2026-03-24T11:18:14.852Z</time></trkpt><trkpt lat="45.9097944" lon="9.2946907"><ele>204.66666666666666</ele><time>2026-03-24T11:18:15.856Z</time></trkpt><trkpt lat="45.9097021" lon="9.2946947"><ele>204.33333333333331</ele><time>2026-03-24T11:18:16.856Z</time></trkpt><trkpt lat="45.909623" lon="9.2947111"><ele>204.0</ele><time>2026-03-24T11:18:17.85Z</time></trkpt><trkpt lat="45.9095587" lon="9.2947415"><ele>203.66666666666669</ele><time>2026-03-24T11:18:18.852Z</time></trkpt><trkpt lat="45.9094969" lon="9.2947782"><ele>203.33333333333334</ele><time>2026-03-24T11:18:19.843Z</time></trkpt><trkpt lat="45.9093842" lon="9.2948968"><ele>203.0</ele><time>2026-03-24T11:18:21.845Z</time></trkpt><trkpt lat="45.9093012" lon="9.2950009"><ele>206.25</ele><time>2026-03-24T11:18:22.834Z</time></trkpt><trkpt lat="45.9092127" lon="9.2951178"><ele>209.5</ele><time>2026-03-24T11:18:23.843Z</time></trkpt><trkpt lat="45.9091232" lon="9.2952442"><ele>212.75</ele><time>2026-03-24T11:18:24.845Z</time></trkpt><trkpt lat="45.9090411" lon="9.2953923"><ele>216.0</ele><time>2026-03-24T11:18:25.837Z</time></trkpt><trkpt lat="45.9089602" lon="9.2955267"><ele>214.20000000000002</ele><time>2026-03-24T11:18:26.869Z</time></trkpt><trkpt lat="45.9088983" lon="9.2956719"><ele>212.40000000000003</ele><time>2026-03-24T11:18:27.837Z</time></trkpt><trkpt lat="45.9088495" lon="9.2958017"><ele>210.6</ele><time>2026-03-24T11:18:28.844Z</time></trkpt><trkpt lat="45.9087902" lon="9.2959367"><ele>208.8</ele><time>2026-03-24T11:18:29.842Z</time></trkpt><trkpt lat="45.9087391" lon="9.296058"><ele>207.0</ele><time>2026-03-24T11:18:30.836Z</time></trkpt><trkpt lat="45.908686" lon="9.2961618"><ele>207.0</ele><time>2026-03-24T11:18:31.835Z</time></trkpt><trkpt lat="45.9086065" lon="9.2962619"><ele>207.0</ele><time>2026-03-24T11:18:32.827Z</time></trkpt><trkpt lat="45.908524" lon="9.2963512"><ele>207.0</ele><time>2026-03-24T11:18:33.824Z</time></trkpt><trkpt lat="45.9084428" lon="9.2964354"><ele>207.0</ele><time>2026-03-24T11:18:34.832Z</time></trkpt><trkpt lat="45.9083444" lon="9.2964815"><ele>207.0</ele><time>2026-03-24T11:18:35.836Z</time></trkpt><trkpt lat="45.9082385" lon="9.296502"><ele>208.2</ele><time>2026-03-24T11:18:36.833Z</time></trkpt><trkpt lat="45.9081387" lon="9.2965032"><ele>209.39999999999998</ele><time>2026-03-24T11:18:37.842Z</time></trkpt><trkpt lat="45.9080569" lon="9.2965254"><ele>210.60000000000002</ele><time>2026-03-24T11:18:38.848Z</time></trkpt><trkpt lat="45.9079591" lon="9.296527"><ele>211.8</ele><time>2026-03-24T11:18:39.847Z</time></trkpt><trkpt lat="45.9078457" lon="9.2964972"><ele>213.0</ele><time>2026-03-24T11:18:40.846Z</time></trkpt><trkpt lat="45.9077335" lon="9.2964308"><ele>216.5</ele><time>2026-03-24T11:18:41.853Z</time></trkpt><trkpt lat="45.9076404" lon="9.2963425"><ele>220.0</ele><time>2026-03-24T11:18:42.844Z</time></trkpt><trkpt lat="45.9075487" lon="9.2962088"><ele>223.5</ele><time>2026-03-24T11:18:43.851Z</time></trkpt><trkpt lat="45.9074639" lon="9.2960574"><ele>227.0</ele><time>2026-03-24T11:18:44.843Z</time></trkpt><trkpt lat="45.9073774" lon="9.2959064"><ele>227.25</ele><time>2026-03-24T11:18:45.833Z</time></trkpt><trkpt lat="45.9072826" lon="9.2957706"><ele>227.5</ele><time>2026-03-24T11:18:46.829Z</time></trkpt><trkpt lat="45.9071623" lon="9.2956519"><ele>227.75</ele><time>2026-03-24T11:18:47.832Z</time></trkpt><trkpt lat="45.9070656" lon="9.2955927"><ele>228.0</ele><time>2026-03-24T11:18:48.83Z</time></trkpt><trkpt lat="45.9069547" lon="9.2955304"><ele>230.0</ele><time>2026-03-24T11:18:49.822Z</time></trkpt><trkpt lat="45.9068178" lon="9.2955505"><ele>232.0</ele><time>2026-03-24T11:18:50.816Z</time></trkpt><trkpt lat="45.9066546" lon="9.2955729"><ele>234.0</ele><time>2026-03-24T11:18:51.817Z</time></trkpt><trkpt lat="45.9064784" lon="9.2956557"><ele>234.0</ele><time>2026-03-24T11:18:52.811Z</time></trkpt><trkpt lat="45.9062885" lon="9.2957416"><ele>234.0</ele><time>2026-03-24T11:18:53.829Z</time></trkpt><trkpt lat="45.906085" lon="9.2958073"><ele>234.0</ele><time>2026-03-24T11:18:54.834Z</time></trkpt><trkpt lat="45.9058963" lon="9.2958768"><ele>237.0</ele><time>2026-03-24T11:18:55.835Z</time></trkpt><trkpt lat="45.9057203" lon="9.2959933"><ele>240.0</ele><time>2026-03-24T11:18:56.841Z</time></trkpt><trkpt lat="45.9055575" lon="9.2961094"><ele>243.0</ele><time>2026-03-24T11:18:57.85Z</time></trkpt><trkpt lat="45.9054113" lon="9.2963287"><ele>244.66666666666669</ele><time>2026-03-24T11:18:58.839Z</time></trkpt><trkpt lat="45.905253" lon="9.2965366"><ele>246.33333333333334</ele><time>2026-03-24T11:18:59.838Z</time></trkpt><trkpt lat="45.9050782" lon="9.2966988"><ele>248.0</ele><time>2026-03-24T11:19:00.831Z</time></trkpt><trkpt lat="45.9049332" lon="9.2967544"><ele>248.0</ele><time>2026-03-24T11:19:01.824Z</time></trkpt><trkpt lat="45.9047796" lon="9.296831"><ele>248.0</ele><time>2026-03-24T11:19:02.829Z</time></trkpt><trkpt lat="45.9046687" lon="9.2969045"><ele>248.0</ele><time>2026-03-24T11:19:03.834Z</time></trkpt><trkpt lat="45.9045346" lon="9.2969282"><ele>248.0</ele><time>2026-03-24T11:19:04.833Z</time></trkpt><trkpt lat="45.9043836" lon="9.2969458"><ele>250.0</ele><time>2026-03-24T11:19:05.843Z</time></trkpt><trkpt lat="45.90422" lon="9.2969705"><ele>252.0</ele><time>2026-03-24T11:19:06.843Z</time></trkpt><trkpt lat="45.9040937" lon="9.2969621"><ele>254.0</ele><time>2026-03-24T11:19:07.836Z</time></trkpt><trkpt lat="45.9039749" lon="9.296973"><ele>256.0</ele><time>2026-03-24T11:19:08.84Z</time></trkpt><trkpt lat="45.9038548" lon="9.2969655"><ele>256.0</ele><time>2026-03-24T11:19:09.834Z</time></trkpt><trkpt lat="45.9037731" lon="9.2969096"><ele>256.0</ele><time>2026-03-24T11:19:10.841Z</time></trkpt><trkpt lat="45.9036432" lon="9.2968511"><ele>256.0</ele><time>2026-03-24T11:19:12.841Z</time></trkpt><trkpt lat="45.9035643" lon="9.2968283"><ele>256.0</ele><time>2026-03-24T11:19:13.844Z</time></trkpt><trkpt lat="45.903501" lon="9.2967975"><ele>256.0</ele><time>2026-03-24T11:19:14.84Z</time></trkpt><trkpt lat="45.9034209" lon="9.29671"><ele>256.0</ele><time>2026-03-24T11:19:16.828Z</time></trkpt><trkpt lat="45.9035227" lon="9.2967572"><ele>256.0</ele><time>2026-03-24T11:19:22.826Z</time></trkpt><trkpt lat="45.9036311" lon="9.2967863"><ele>256.0</ele><time>2026-03-24T11:19:24.828Z</time></trkpt><trkpt lat="45.903746" lon="9.2967918"><ele>256.0</ele><time>2026-03-24T11:19:25.825Z</time></trkpt><trkpt lat="45.9038584" lon="9.2968156"><ele>256.0</ele><time>2026-03-24T11:19:26.842Z</time></trkpt><trkpt lat="45.9039741" lon="9.2968374"><ele>256.0</ele><time>2026-03-24T11:19:27.834Z</time></trkpt><trkpt lat="45.9040906" lon="9.2968483"><ele>256.0</ele><time>2026-03-24T11:19:28.861Z</time></trkpt><trkpt lat="45.9042343" lon="9.2968279"><ele>256.0</ele><time>2026-03-24T11:19:29.838Z</time></trkpt><trkpt lat="45.9043808" lon="9.296821"><ele>256.0</ele><time>2026-03-24T11:19:30.849Z</time></trkpt><trkpt lat="45.9045221" lon="9.2967858"><ele>253.33333333333331</ele><time>2026-03-24T11:19:31.847Z</time></trkpt><trkpt lat="45.9046746" lon="9.2967624"><ele>250.66666666666669</ele><time>2026-03-24T11:19:32.845Z</time></trkpt><trkpt lat="45.9048227" lon="9.2967501"><ele>248.0</ele><time>2026-03-24T11:19:33.838Z</time></trkpt><trkpt lat="45.9049778" lon="9.296717"><ele>246.33333333333334</ele><time>2026-03-24T11:19:34.835Z</time></trkpt><trkpt lat="45.9051173" lon="9.2966557"><ele>244.66666666666669</ele><time>2026-03-24T11:19:35.839Z</time></trkpt><trkpt lat="45.9052764" lon="9.2965154"><ele>243.0</ele><time>2026-03-24T11:19:36.838Z</time></trkpt><trkpt lat="45.9054132" lon="9.2964044"><ele>243.0</ele><time>2026-03-24T11:19:37.842Z</time></trkpt><trkpt lat="45.9055367" lon="9.2962818"><ele>243.0</ele><time>2026-03-24T11:19:38.85Z</time></trkpt><trkpt lat="45.9056712" lon="9.2961605"><ele>243.0</ele><time>2026-03-24T11:19:39.848Z</time></trkpt><trkpt lat="45.9058105" lon="9.2960818"><ele>240.0</ele><time>2026-03-24T11:19:40.853Z</time></trkpt><trkpt lat="45.9059452" lon="9.2960119"><ele>237.0</ele><time>2026-03-24T11:19:41.854Z</time></trkpt><trkpt lat="45.9060972" lon="9.2959436"><ele>234.0</ele><time>2026-03-24T11:19:42.851Z</time></trkpt><trkpt lat="45.9062603" lon="9.29591"><ele>234.0</ele><time>2026-03-24T11:19:43.842Z</time></trkpt><trkpt lat="45.9064094" lon="9.295868"><ele>234.0</ele><time>2026-03-24T11:19:44.853Z</time></trkpt><trkpt lat="45.9065565" lon="9.2958569"><ele>234.0</ele><time>2026-03-24T11:19:45.851Z</time></trkpt><trkpt lat="45.9067012" lon="9.2958226"><ele>234.0</ele><time>2026-03-24T11:19:46.851Z</time></trkpt><trkpt lat="45.9068638" lon="9.2958109"><ele>232.5</ele><time>2026-03-24T11:19:47.843Z</time></trkpt><trkpt lat="45.9070295" lon="9.2957848"><ele>231.0</ele><time>2026-03-24T11:19:48.849Z</time></trkpt><trkpt lat="45.907193" lon="9.2957542"><ele>229.5</ele><time>2026-03-24T11:19:49.85Z</time></trkpt><trkpt lat="45.9073058" lon="9.2957874"><ele>228.0</ele><time>2026-03-24T11:19:50.838Z</time></trkpt><trkpt lat="45.9074294" lon="9.2957197"><ele>228.0</ele><time>2026-03-24T11:19:51.835Z</time></trkpt><trkpt lat="45.9075393" lon="9.2957049"><ele>228.0</ele><time>2026-03-24T11:19:52.834Z</time></trkpt><trkpt lat="45.9076262" lon="9.2957425"><ele>228.0</ele><time>2026-03-24T11:19:53.841Z</time></trkpt><trkpt lat="45.9077089" lon="9.2959056"><ele>228.0</ele><time>2026-03-24T11:19:54.841Z</time></trkpt><trkpt lat="45.9077504" lon="9.2961667"><ele>227.75</ele><time>2026-03-24T11:19:55.845Z</time></trkpt><trkpt lat="45.9078638" lon="9.2962978"><ele>227.5</ele><time>2026-03-24T11:19:56.85Z</time></trkpt><trkpt lat="45.9079687" lon="9.2963682"><ele>227.25</ele><time>2026-03-24T11:19:57.836Z</time></trkpt><trkpt lat="45.9080907" lon="9.2964133"><ele>227.0</ele><time>2026-03-24T11:19:58.85Z</time></trkpt><trkpt lat="45.9082247" lon="9.2964178"><ele>227.0</ele><time>2026-03-24T11:19:59.842Z</time></trkpt><trkpt lat="45.9083596" lon="9.2964041"><ele>227.0</ele><time>2026-03-24T11:20:00.852Z</time></trkpt><trkpt lat="45.9085245" lon="9.2963233"><ele>227.0</ele><time>2026-03-24T11:20:01.841Z</time></trkpt><trkpt lat="45.9086713" lon="9.2962353"><ele>220.33333333333334</ele><time>2026-03-24T11:20:02.845Z</time></trkpt><trkpt lat="45.9088484" lon="9.2960908"><ele>213.66666666666669</ele><time>2026-03-24T11:20:03.837Z</time></trkpt><trkpt lat="45.908977" lon="9.2959132"><ele>207.0</ele><time>2026-03-24T11:20:04.83Z</time></trkpt><trkpt lat="45.9090619" lon="9.2957439"><ele>205.66666666666669</ele><time>2026-03-24T11:20:05.834Z</time></trkpt><trkpt lat="45.9091416" lon="9.2955015"><ele>204.33333333333334</ele><time>2026-03-24T11:20:06.834Z</time></trkpt><trkpt lat="45.9092017" lon="9.2953895"><ele>203.0</ele><time>2026-03-24T11:20:07.831Z</time></trkpt><trkpt lat="45.9092662" lon="9.2951671"><ele>203.0</ele><time>2026-03-24T11:20:08.832Z</time></trkpt><trkpt lat="45.9093314" lon="9.2949997"><ele>203.0</ele><time>2026-03-24T11:20:09.83Z</time></trkpt><trkpt lat="45.9093974" lon="9.2948979"><ele>203.0</ele><time>2026-03-24T11:20:10.834Z</time></trkpt><trkpt lat="45.9094594" lon="9.2947646"><ele>203.0</ele><time>2026-03-24T11:20:11.828Z</time></trkpt><trkpt lat="45.909545" lon="9.2946821"><ele>203.0</ele><time>2026-03-24T11:20:12.84Z</time></trkpt><trkpt lat="45.909653" lon="9.2947177"><ele>203.00000000000003</ele><time>2026-03-24T11:20:13.832Z</time></trkpt><trkpt lat="45.9097288" lon="9.2947027"><ele>203.0</ele><time>2026-03-24T11:20:14.834Z</time></trkpt><trkpt lat="45.9097962" lon="9.2946704"><ele>203.0</ele><time>2026-03-24T11:20:15.829Z</time></trkpt><trkpt lat="45.9098525" lon="9.2947177"><ele>203.0</ele><time>2026-03-24T11:20:16.828Z</time></trkpt><trkpt lat="45.9099008" lon="9.2947863"><ele>203.00000000000003</ele><time>2026-03-24T11:20:17.845Z</time></trkpt><trkpt lat="45.9099077" lon="9.2949216"><ele>203.0</ele><time>2026-03-24T11:20:19.854Z</time></trkpt><trkpt lat="45.9098466" lon="9.2950364"><ele>203.0</ele><time>2026-03-24T11:20:21.845Z</time></trkpt><trkpt lat="45.909778" lon="9.2951263"><ele>203.0</ele><time>2026-03-24T11:20:22.847Z</time></trkpt><trkpt lat="45.9097004" lon="9.2952429"><ele>203.0</ele><time>2026-03-24T11:20:23.842Z</time></trkpt><trkpt lat="45.9096004" lon="9.2954018"><ele>203.0</ele><time>2026-03-24T11:20:24.845Z</time></trkpt><trkpt lat="45.9094964" lon="9.2956129"><ele>201.66666666666669</ele><time>2026-03-24T11:20:25.829Z</time></trkpt><trkpt lat="45.909406" lon="9.2958162"><ele>200.33333333333331</ele><time>2026-03-24T11:20:26.832Z</time></trkpt><trkpt lat="45.9093127" lon="9.2960187"><ele>199.0</ele><time>2026-03-24T11:20:27.836Z</time></trkpt><trkpt lat="45.9091947" lon="9.2962547"><ele>199.66666666666666</ele><time>2026-03-24T11:20:28.841Z</time></trkpt><trkpt lat="45.9090319" lon="9.2964218"><ele>200.33333333333331</ele><time>2026-03-24T11:20:29.847Z</time></trkpt><trkpt lat="45.9088811" lon="9.2966118"><ele>201.0</ele><time>2026-03-24T11:20:30.835Z</time></trkpt><trkpt lat="45.9087501" lon="9.2967315"><ele>201.0</ele><time>2026-03-24T11:20:31.838Z</time></trkpt><trkpt lat="45.9086118" lon="9.2968644"><ele>201.0</ele><time>2026-03-24T11:20:32.842Z</time></trkpt><trkpt lat="45.9084585" lon="9.2969959"><ele>201.0</ele><time>2026-03-24T11:20:33.844Z</time></trkpt><trkpt lat="45.9082894" lon="9.297175"><ele>201.0</ele><time>2026-03-24T11:20:34.846Z</time></trkpt><trkpt lat="45.9081148" lon="9.2973228"><ele>201.0</ele><time>2026-03-24T11:20:35.844Z</time></trkpt><trkpt lat="45.9079499" lon="9.2974891"><ele>201.0</ele><time>2026-03-24T11:20:36.845Z</time></trkpt><trkpt lat="45.9077519" lon="9.297698"><ele>204.0</ele><time>2026-03-24T11:20:37.839Z</time></trkpt><trkpt lat="45.9075472" lon="9.2978551"><ele>207.0</ele><time>2026-03-24T11:20:38.842Z</time></trkpt><trkpt lat="45.9073545" lon="9.2980123"><ele>204.66666666666669</ele><time>2026-03-24T11:20:39.844Z</time></trkpt><trkpt lat="45.9071836" lon="9.2981483"><ele>202.33333333333334</ele><time>2026-03-24T11:20:40.856Z</time></trkpt><trkpt lat="45.9070012" lon="9.2982866"><ele>200.0</ele><time>2026-03-24T11:20:41.856Z</time></trkpt><trkpt lat="45.9067999" lon="9.2984708"><ele>202.5</ele><time>2026-03-24T11:20:42.85Z</time></trkpt><trkpt lat="45.9066131" lon="9.2986561"><ele>205.0</ele><time>2026-03-24T11:20:43.856Z</time></trkpt><trkpt lat="45.9063998" lon="9.2988336"><ele>204.66666666666666</ele><time>2026-03-24T11:20:44.855Z</time></trkpt><trkpt lat="45.9062112" lon="9.2989817"><ele>204.33333333333331</ele><time>2026-03-24T11:20:45.85Z</time></trkpt><trkpt lat="45.9060401" lon="9.2991447"><ele>204.0</ele><time>2026-03-24T11:20:46.853Z</time></trkpt><trkpt lat="45.9058835" lon="9.2992827"><ele>204.0</ele><time>2026-03-24T11:20:47.848Z</time></trkpt><trkpt lat="45.9057256" lon="9.299444"><ele>204.0</ele><time>2026-03-24T11:20:48.846Z</time></trkpt><trkpt lat="45.9055741" lon="9.2995716"><ele>204.0</ele><time>2026-03-24T11:20:49.84Z</time></trkpt><trkpt lat="45.9054152" lon="9.2996814"><ele>204.0</ele><time>2026-03-24T11:20:50.846Z</time></trkpt><trkpt lat="45.9052344" lon="9.2997453"><ele>204.0</ele><time>2026-03-24T11:20:51.852Z</time></trkpt><trkpt lat="45.9050616" lon="9.2998054"><ele>204.0</ele><time>2026-03-24T11:20:52.844Z</time></trkpt><trkpt lat="45.9049108" lon="9.2998651"><ele>203.0</ele><time>2026-03-24T11:20:53.841Z</time></trkpt><trkpt lat="45.9047648" lon="9.2999762"><ele>202.0</ele><time>2026-03-24T11:20:54.846Z</time></trkpt><trkpt lat="45.9046233" lon="9.300102"><ele>201.0</ele><time>2026-03-24T11:20:55.848Z</time></trkpt><trkpt lat="45.9044621" lon="9.3003173"><ele>201.0</ele><time>2026-03-24T11:20:56.855Z</time></trkpt><trkpt lat="45.9043081" lon="9.3005089"><ele>201.0</ele><time>2026-03-24T11:20:57.854Z</time></trkpt><trkpt lat="45.9041675" lon="9.3007103"><ele>201.0</ele><time>2026-03-24T11:20:58.853Z</time></trkpt><trkpt lat="45.904025" lon="9.3008756"><ele>200.66666666666669</ele><time>2026-03-24T11:20:59.846Z</time></trkpt><trkpt lat="45.9038762" lon="9.3010009"><ele>200.33333333333334</ele><time>2026-03-24T11:21:00.856Z</time></trkpt><trkpt lat="45.9036932" lon="9.3010967"><ele>200.0</ele><time>2026-03-24T11:21:01.851Z</time></trkpt><trkpt lat="45.9035165" lon="9.3011501"><ele>202.0</ele><time>2026-03-24T11:21:02.845Z</time></trkpt><trkpt lat="45.9033293" lon="9.3012017"><ele>204.0</ele><time>2026-03-24T11:21:03.846Z</time></trkpt><trkpt lat="45.9031231" lon="9.3012625"><ele>206.0</ele><time>2026-03-24T11:21:04.847Z</time></trkpt><trkpt lat="45.9029405" lon="9.3013481"><ele>206.75</ele><time>2026-03-24T11:21:05.848Z</time></trkpt><trkpt lat="45.9027611" lon="9.3014216"><ele>207.5</ele><time>2026-03-24T11:21:06.842Z</time></trkpt><trkpt lat="45.9026387" lon="9.3014964"><ele>208.25</ele><time>2026-03-24T11:21:07.837Z</time></trkpt><trkpt lat="45.9025732" lon="9.3015694"><ele>209.0</ele><time>2026-03-24T11:21:08.839Z</time></trkpt><trkpt lat="45.9025181" lon="9.3016479"><ele>209.0</ele><time>2026-03-24T11:21:09.84Z</time></trkpt><trkpt lat="45.9024476" lon="9.3019193"><ele>209.0</ele><time>2026-03-24T11:21:10.84Z</time></trkpt><trkpt lat="45.9023438" lon="9.3021738"><ele>209.0</ele><time>2026-03-24T11:21:11.829Z</time></trkpt><trkpt lat="45.9022226" lon="9.3024488"><ele>207.33333333333334</ele><time>2026-03-24T11:21:12.836Z</time></trkpt><trkpt lat="45.9020783" lon="9.3027247"><ele>205.66666666666669</ele><time>2026-03-24T11:21:13.829Z</time></trkpt><trkpt lat="45.9019445" lon="9.3029521"><ele>204.0</ele><time>2026-03-24T11:21:14.825Z</time></trkpt><trkpt lat="45.9018763" lon="9.3031901"><ele>202.33333333333331</ele><time>2026-03-24T11:21:15.823Z</time></trkpt><trkpt lat="45.9017965" lon="9.3034301"><ele>200.66666666666666</ele><time>2026-03-24T11:21:16.822Z</time></trkpt><trkpt lat="45.9016981" lon="9.3036651"><ele>199.0</ele><time>2026-03-24T11:21:17.819Z</time></trkpt><trkpt lat="45.9015728" lon="9.3038706"><ele>200.33333333333331</ele><time>2026-03-24T11:21:18.826Z</time></trkpt><trkpt lat="45.9014595" lon="9.3040851"><ele>201.66666666666669</ele><time>2026-03-24T11:21:19.823Z</time></trkpt><trkpt lat="45.9013495" lon="9.3042948"><ele>203.0</ele><time>2026-03-24T11:21:20.83Z</time></trkpt><trkpt lat="45.9012188" lon="9.3045412"><ele>201.66666666666669</ele><time>2026-03-24T11:21:21.821Z</time></trkpt><trkpt lat="45.9010974" lon="9.3047539"><ele>200.33333333333331</ele><time>2026-03-24T11:21:22.824Z</time></trkpt><trkpt lat="45.9009879" lon="9.3049919"><ele>199.0</ele><time>2026-03-24T11:21:23.836Z</time></trkpt><trkpt lat="45.9008821" lon="9.3052073"><ele>201.0</ele><time>2026-03-24T11:21:24.832Z</time></trkpt><trkpt lat="45.900795" lon="9.3054708"><ele>203.0</ele><time>2026-03-24T11:21:25.83Z</time></trkpt><trkpt lat="45.9006684" lon="9.3057418"><ele>205.0</ele><time>2026-03-24T11:21:26.83Z</time></trkpt><trkpt lat="45.9005354" lon="9.3059844"><ele>205.0</ele><time>2026-03-24T11:21:27.834Z</time></trkpt><trkpt lat="45.9003811" lon="9.3061909"><ele>205.0</ele><time>2026-03-24T11:21:28.826Z</time></trkpt><trkpt lat="45.9002578" lon="9.3063963"><ele>205.0</ele><time>2026-03-24T11:21:29.826Z</time></trkpt><trkpt lat="45.9001336" lon="9.30658"><ele>206.66666666666666</ele><time>2026-03-24T11:21:30.829Z</time></trkpt><trkpt lat="45.8999963" lon="9.3067361"><ele>208.33333333333331</ele><time>2026-03-24T11:21:31.852Z</time></trkpt><trkpt lat="45.8998817" lon="9.3069113"><ele>210.0</ele><time>2026-03-24T11:21:32.836Z</time></trkpt><trkpt lat="45.8997393" lon="9.3071228"><ele>204.5</ele><time>2026-03-24T11:21:33.834Z</time></trkpt><trkpt lat="45.8995938" lon="9.3073453"><ele>199.0</ele><time>2026-03-24T11:21:34.831Z</time></trkpt><trkpt lat="45.8994238" lon="9.3075843"><ele>199.0</ele><time>2026-03-24T11:21:35.836Z</time></trkpt><trkpt lat="45.8992735" lon="9.307785"><ele>199.0</ele><time>2026-03-24T11:21:36.832Z</time></trkpt><trkpt lat="45.8991504" lon="9.3079718"><ele>199.0</ele><time>2026-03-24T11:21:37.829Z</time></trkpt><trkpt lat="45.899038" lon="9.308181"><ele>201.66666666666666</ele><time>2026-03-24T11:21:38.833Z</time></trkpt><trkpt lat="45.8989886" lon="9.3083979"><ele>204.33333333333331</ele><time>2026-03-24T11:21:39.84Z</time></trkpt><trkpt lat="45.898943" lon="9.3086317"><ele>207.0</ele><time>2026-03-24T11:21:40.834Z</time></trkpt><trkpt lat="45.8988823" lon="9.3088898"><ele>204.33333333333331</ele><time>2026-03-24T11:21:41.839Z</time></trkpt><trkpt lat="45.8988112" lon="9.309122"><ele>201.66666666666666</ele><time>2026-03-24T11:21:42.838Z</time></trkpt><trkpt lat="45.898752" lon="9.3093383"><ele>199.0</ele><time>2026-03-24T11:21:43.829Z</time></trkpt><trkpt lat="45.8986829" lon="9.3095559"><ele>198.66666666666666</ele><time>2026-03-24T11:21:44.831Z</time></trkpt><trkpt lat="45.8986557" lon="9.3097714"><ele>198.33333333333331</ele><time>2026-03-24T11:21:45.833Z</time></trkpt><trkpt lat="45.8986582" lon="9.3100166"><ele>198.0</ele><time>2026-03-24T11:21:46.828Z</time></trkpt><trkpt lat="45.8986528" lon="9.3102161"><ele>198.0</ele><time>2026-03-24T11:21:47.837Z</time></trkpt><trkpt lat="45.8986279" lon="9.3104006"><ele>198.0</ele><time>2026-03-24T11:21:48.829Z</time></trkpt><trkpt lat="45.8985781" lon="9.310572"><ele>198.0</ele><time>2026-03-24T11:21:49.828Z</time></trkpt><trkpt lat="45.8984677" lon="9.3106993"><ele>198.0</ele><time>2026-03-24T11:21:50.838Z</time></trkpt><trkpt lat="45.8983134" lon="9.3107823"><ele>200.33333333333331</ele><time>2026-03-24T11:21:51.835Z</time></trkpt><trkpt lat="45.8981683" lon="9.3109058"><ele>202.66666666666666</ele><time>2026-03-24T11:21:52.83Z</time></trkpt><trkpt lat="45.8980256" lon="9.3109593"><ele>205.0</ele><time>2026-03-24T11:21:53.822Z</time></trkpt><trkpt lat="45.8978759" lon="9.3109869"><ele>205.0</ele><time>2026-03-24T11:21:54.816Z</time></trkpt><trkpt lat="45.897713" lon="9.3109584"><ele>205.0</ele><time>2026-03-24T11:21:55.819Z</time></trkpt><trkpt lat="45.8975805" lon="9.3109951"><ele>205.0</ele><time>2026-03-24T11:21:56.832Z</time></trkpt><trkpt lat="45.8974335" lon="9.3109506"><ele>205.0</ele><time>2026-03-24T11:21:57.82Z</time></trkpt><trkpt lat="45.8973003" lon="9.3109053"><ele>207.75</ele><time>2026-03-24T11:21:58.825Z</time></trkpt><trkpt lat="45.8971652" lon="9.3109417"><ele>210.5</ele><time>2026-03-24T11:21:59.824Z</time></trkpt><trkpt lat="45.8970413" lon="9.3109436"><ele>213.25</ele><time>2026-03-24T11:22:00.835Z</time></trkpt><trkpt lat="45.8968807" lon="9.3110372"><ele>216.0</ele><time>2026-03-24T11:22:01.833Z</time></trkpt><trkpt lat="45.8966847" lon="9.3112148"><ele>212.0</ele><time>2026-03-24T11:22:02.844Z</time></trkpt><trkpt lat="45.8964882" lon="9.3114199"><ele>208.0</ele><time>2026-03-24T11:22:03.831Z</time></trkpt><trkpt lat="45.8963303" lon="9.3115787"><ele>204.0</ele><time>2026-03-24T11:22:04.836Z</time></trkpt><trkpt lat="45.8961709" lon="9.3117439"><ele>204.0</ele><time>2026-03-24T11:22:05.827Z</time></trkpt><trkpt lat="45.8959649" lon="9.3118887"><ele>204.0</ele><time>2026-03-24T11:22:06.835Z</time></trkpt><trkpt lat="45.8957773" lon="9.3120533"><ele>204.0</ele><time>2026-03-24T11:22:07.836Z</time></trkpt><trkpt lat="45.895613" lon="9.312238"><ele>204.66666666666669</ele><time>2026-03-24T11:22:08.835Z</time></trkpt><trkpt lat="45.8954329" lon="9.3124024"><ele>205.33333333333334</ele><time>2026-03-24T11:22:09.836Z</time></trkpt><trkpt lat="45.8952791" lon="9.3125676"><ele>206.0</ele><time>2026-03-24T11:22:10.83Z</time></trkpt><trkpt lat="45.8951133" lon="9.3127244"><ele>214.66666666666669</ele><time>2026-03-24T11:22:11.832Z</time></trkpt><trkpt lat="45.8949648" lon="9.3128548"><ele>223.33333333333331</ele><time>2026-03-24T11:22:12.833Z</time></trkpt><trkpt lat="45.8948447" lon="9.3129613"><ele>232.0</ele><time>2026-03-24T11:22:13.83Z</time></trkpt><trkpt lat="45.8947116" lon="9.3130545"><ele>232.5</ele><time>2026-03-24T11:22:14.831Z</time></trkpt><trkpt lat="45.8945891" lon="9.3131245"><ele>233.0</ele><time>2026-03-24T11:22:15.821Z</time></trkpt><trkpt lat="45.8944474" lon="9.3131883"><ele>233.5</ele><time>2026-03-24T11:22:16.82Z</time></trkpt><trkpt lat="45.8943314" lon="9.3131686"><ele>234.0</ele><time>2026-03-24T11:22:17.815Z</time></trkpt><trkpt lat="45.8942105" lon="9.3131649"><ele>234.0</ele><time>2026-03-24T11:22:18.823Z</time></trkpt><trkpt lat="45.8940983" lon="9.3131704"><ele>234.0</ele><time>2026-03-24T11:22:19.816Z</time></trkpt><trkpt lat="45.8939391" lon="9.3132231"><ele>234.0</ele><time>2026-03-24T11:22:20.819Z</time></trkpt><trkpt lat="45.8937985" lon="9.3132981"><ele>234.0</ele><time>2026-03-24T11:22:21.817Z</time></trkpt><trkpt lat="45.8936782" lon="9.313414"><ele>234.0</ele><time>2026-03-24T11:22:22.82Z</time></trkpt><trkpt lat="45.8935782" lon="9.3135458"><ele>234.0</ele><time>2026-03-24T11:22:23.815Z</time></trkpt><trkpt lat="45.8934763" lon="9.3137146"><ele>234.0</ele><time>2026-03-24T11:22:24.824Z</time></trkpt><trkpt lat="45.8933496" lon="9.3139113"><ele>230.75</ele><time>2026-03-24T11:22:25.82Z</time></trkpt><trkpt lat="45.8932381" lon="9.3140503"><ele>227.5</ele><time>2026-03-24T11:22:26.832Z</time></trkpt><trkpt lat="45.8931307" lon="9.3141595"><ele>224.25</ele><time>2026-03-24T11:22:27.82Z</time></trkpt><trkpt lat="45.8930648" lon="9.3143384"><ele>221.0</ele><time>2026-03-24T11:22:28.825Z</time></trkpt><trkpt lat="45.8929869" lon="9.314518"><ele>221.0</ele><time>2026-03-24T11:22:29.826Z</time></trkpt><trkpt lat="45.8929061" lon="9.3146751"><ele>221.0</ele><time>2026-03-24T11:22:30.832Z</time></trkpt><trkpt lat="45.8928214" lon="9.3148243"><ele>221.0</ele><time>2026-03-24T11:22:31.83Z</time></trkpt><trkpt lat="45.8927437" lon="9.3149372"><ele>221.0</ele><time>2026-03-24T11:22:32.814Z</time></trkpt><trkpt lat="45.8926569" lon="9.3150196"><ele>219.20000000000002</ele><time>2026-03-24T11:22:33.838Z</time></trkpt><trkpt lat="45.8925633" lon="9.3150704"><ele>217.40000000000003</ele><time>2026-03-24T11:22:34.814Z</time></trkpt><trkpt lat="45.8924656" lon="9.315106"><ele>215.6</ele><time>2026-03-24T11:22:35.819Z</time></trkpt><trkpt lat="45.8923777" lon="9.3151471"><ele>213.8</ele><time>2026-03-24T11:22:36.815Z</time></trkpt><trkpt lat="45.8923144" lon="9.3151915"><ele>212.0</ele><time>2026-03-24T11:22:37.825Z</time></trkpt><trkpt lat="45.8922343" lon="9.3152397"><ele>212.0</ele><time>2026-03-24T11:22:38.819Z</time></trkpt><trkpt lat="45.8921435" lon="9.3152764"><ele>212.0</ele><time>2026-03-24T11:22:39.821Z</time></trkpt><trkpt lat="45.8920474" lon="9.3153053"><ele>212.0</ele><time>2026-03-24T11:22:40.82Z</time></trkpt><trkpt lat="45.8919555" lon="9.3153277"><ele>212.0</ele><time>2026-03-24T11:22:41.818Z</time></trkpt><trkpt lat="45.8918527" lon="9.3153394"><ele>212.0</ele><time>2026-03-24T11:22:42.828Z</time></trkpt><trkpt lat="45.8917566" lon="9.3153319"><ele>216.33333333333334</ele><time>2026-03-24T11:22:43.837Z</time></trkpt><trkpt lat="45.8916714" lon="9.3153154"><ele>220.66666666666669</ele><time>2026-03-24T11:22:44.842Z</time></trkpt><trkpt lat="45.8915844" lon="9.3153097"><ele>225.0</ele><time>2026-03-24T11:22:45.844Z</time></trkpt><trkpt lat="45.8915114" lon="9.315312"><ele>229.33333333333331</ele><time>2026-03-24T11:22:46.836Z</time></trkpt><trkpt lat="45.8914322" lon="9.3153088"><ele>233.66666666666666</ele><time>2026-03-24T11:22:47.831Z</time></trkpt><trkpt lat="45.8913568" lon="9.3153073"><ele>238.0</ele><time>2026-03-24T11:22:48.832Z</time></trkpt><trkpt lat="45.8912833" lon="9.3153299"><ele>238.0</ele><time>2026-03-24T11:22:49.826Z</time></trkpt><trkpt lat="45.8912136" lon="9.315376"><ele>238.0</ele><time>2026-03-24T11:22:50.819Z</time></trkpt><trkpt lat="45.891155" lon="9.3154857"><ele>238.0</ele><time>2026-03-24T11:22:51.819Z</time></trkpt><trkpt lat="45.8910916" lon="9.3156193"><ele>238.0</ele><time>2026-03-24T11:22:52.828Z</time></trkpt><trkpt lat="45.891075" lon="9.3158218"><ele>238.0</ele><time>2026-03-24T11:22:53.827Z</time></trkpt><trkpt lat="45.8910682" lon="9.3160359"><ele>229.25</ele><time>2026-03-24T11:22:54.819Z</time></trkpt><trkpt lat="45.8910526" lon="9.3162293"><ele>220.5</ele><time>2026-03-24T11:22:55.824Z</time></trkpt><trkpt lat="45.8910824" lon="9.3164187"><ele>211.75</ele><time>2026-03-24T11:22:56.844Z</time></trkpt><trkpt lat="45.8911047" lon="9.3166122"><ele>203.0</ele><time>2026-03-24T11:22:57.839Z</time></trkpt><trkpt lat="45.891097" lon="9.3167994"><ele>201.75</ele><time>2026-03-24T11:22:58.836Z</time></trkpt><trkpt lat="45.8910768" lon="9.3169849"><ele>200.5</ele><time>2026-03-24T11:22:59.839Z</time></trkpt><trkpt lat="45.8910424" lon="9.317147"><ele>199.25</ele><time>2026-03-24T11:23:00.84Z</time></trkpt><trkpt lat="45.890966" lon="9.3172839"><ele>198.0</ele><time>2026-03-24T11:23:01.837Z</time></trkpt><trkpt lat="45.8908825" lon="9.3174134"><ele>202.2</ele><time>2026-03-24T11:23:02.836Z</time></trkpt><trkpt lat="45.8908217" lon="9.3175361"><ele>206.4</ele><time>2026-03-24T11:23:03.837Z</time></trkpt><trkpt lat="45.8907628" lon="9.3176437"><ele>210.59999999999997</ele><time>2026-03-24T11:23:04.86Z</time></trkpt><trkpt lat="45.8907053" lon="9.3177319"><ele>214.79999999999998</ele><time>2026-03-24T11:23:05.838Z</time></trkpt><trkpt lat="45.8906434" lon="9.3178183"><ele>219.0</ele><time>2026-03-24T11:23:06.836Z</time></trkpt><trkpt lat="45.8905445" lon="9.3178892"><ele>219.0</ele><time>2026-03-24T11:23:07.836Z</time></trkpt><trkpt lat="45.8904166" lon="9.3179838"><ele>219.0</ele><time>2026-03-24T11:23:08.834Z</time></trkpt><trkpt lat="45.8902865" lon="9.3180503"><ele>219.0</ele><time>2026-03-24T11:23:09.832Z</time></trkpt><trkpt lat="45.8901656" lon="9.3181079"><ele>219.0</ele><time>2026-03-24T11:23:10.841Z</time></trkpt><trkpt lat="45.890042" lon="9.3181597"><ele>218.25</ele><time>2026-03-24T11:23:11.844Z</time></trkpt><trkpt lat="45.8899193" lon="9.3182174"><ele>217.5</ele><time>2026-03-24T11:23:12.842Z</time></trkpt><trkpt lat="45.8898141" lon="9.3182862"><ele>216.75</ele><time>2026-03-24T11:23:13.831Z</time></trkpt><trkpt lat="45.8897171" lon="9.31838"><ele>216.0</ele><time>2026-03-24T11:23:14.834Z</time></trkpt><trkpt lat="45.8896442" lon="9.3185261"><ele>216.0</ele><time>2026-03-24T11:23:15.827Z</time></trkpt><trkpt lat="45.8895676" lon="9.3186984"><ele>216.0</ele><time>2026-03-24T11:23:16.833Z</time></trkpt><trkpt lat="45.8894993" lon="9.3188604"><ele>216.0</ele><time>2026-03-24T11:23:17.833Z</time></trkpt><trkpt lat="45.8894258" lon="9.3190146"><ele>216.0</ele><time>2026-03-24T11:23:18.829Z</time></trkpt><trkpt lat="45.8893648" lon="9.3191565"><ele>218.5</ele><time>2026-03-24T11:23:19.827Z</time></trkpt><trkpt lat="45.8892907" lon="9.3193019"><ele>221.0</ele><time>2026-03-24T11:23:20.829Z</time></trkpt><trkpt lat="45.8892211" lon="9.3194239"><ele>223.5</ele><time>2026-03-24T11:23:21.822Z</time></trkpt><trkpt lat="45.8891272" lon="9.3195601"><ele>226.0</ele><time>2026-03-24T11:23:22.838Z</time></trkpt><trkpt lat="45.889027" lon="9.3196605"><ele>219.75</ele><time>2026-03-24T11:23:23.834Z</time></trkpt><trkpt lat="45.8889414" lon="9.3197477"><ele>213.5</ele><time>2026-03-24T11:23:24.826Z</time></trkpt><trkpt lat="45.8888369" lon="9.3198347"><ele>207.25</ele><time>2026-03-24T11:23:25.827Z</time></trkpt><trkpt lat="45.8887195" lon="9.3198858"><ele>201.0</ele><time>2026-03-24T11:23:26.84Z</time></trkpt><trkpt lat="45.8886136" lon="9.3198727"><ele>201.0</ele><time>2026-03-24T11:23:27.826Z</time></trkpt><trkpt lat="45.88851" lon="9.3198916"><ele>201.0</ele><time>2026-03-24T11:23:28.829Z</time></trkpt><trkpt lat="45.8884061" lon="9.3199518"><ele>201.0</ele><time>2026-03-24T11:23:29.834Z</time></trkpt><trkpt lat="45.8883094" lon="9.3200346"><ele>201.0</ele><time>2026-03-24T11:23:30.837Z</time></trkpt><trkpt lat="45.8882223" lon="9.3201014"><ele>201.0</ele><time>2026-03-24T11:23:31.84Z</time></trkpt><trkpt lat="45.8881393" lon="9.3201641"><ele>201.25</ele><time>2026-03-24T11:23:32.834Z</time></trkpt><trkpt lat="45.8880492" lon="9.3202549"><ele>201.5</ele><time>2026-03-24T11:23:33.834Z</time></trkpt><trkpt lat="45.8879652" lon="9.3203638"><ele>201.75</ele><time>2026-03-24T11:23:34.827Z</time></trkpt><trkpt lat="45.8878772" lon="9.3205103"><ele>202.0</ele><time>2026-03-24T11:23:35.841Z</time></trkpt><trkpt lat="45.8877915" lon="9.3206598"><ele>202.0</ele><time>2026-03-24T11:23:36.83Z</time></trkpt><trkpt lat="45.8877154" lon="9.3208085"><ele>202.0</ele><time>2026-03-24T11:23:37.836Z</time></trkpt><trkpt lat="45.8876496" lon="9.3209555"><ele>202.0</ele><time>2026-03-24T11:23:38.831Z</time></trkpt><trkpt lat="45.8875816" lon="9.3211095"><ele>202.0</ele><time>2026-03-24T11:23:39.837Z</time></trkpt><trkpt lat="45.8875219" lon="9.3212536"><ele>203.75</ele><time>2026-03-24T11:23:40.834Z</time></trkpt><trkpt lat="45.8874674" lon="9.3214035"><ele>205.5</ele><time>2026-03-24T11:23:41.836Z</time></trkpt><trkpt lat="45.8874185" lon="9.3215395"><ele>207.25</ele><time>2026-03-24T11:23:42.843Z</time></trkpt><trkpt lat="45.8873431" lon="9.3216772"><ele>209.0</ele><time>2026-03-24T11:23:43.841Z</time></trkpt><trkpt lat="45.8872506" lon="9.3218097"><ele>209.0</ele><time>2026-03-24T11:23:44.833Z</time></trkpt><trkpt lat="45.8871373" lon="9.321913"><ele>209.0</ele><time>2026-03-24T11:23:45.837Z</time></trkpt><trkpt lat="45.8870305" lon="9.3220144"><ele>209.0</ele><time>2026-03-24T11:23:46.848Z</time></trkpt><trkpt lat="45.8869466" lon="9.3221456"><ele>209.0</ele><time>2026-03-24T11:23:47.847Z</time></trkpt><trkpt lat="45.8868616" lon="9.322254"><ele>206.5</ele><time>2026-03-24T11:23:48.835Z</time></trkpt><trkpt lat="45.8867661" lon="9.3223666"><ele>204.0</ele><time>2026-03-24T11:23:49.839Z</time></trkpt><trkpt lat="45.8866657" lon="9.3224818"><ele>201.5</ele><time>2026-03-24T11:23:50.84Z</time></trkpt><trkpt lat="45.8865651" lon="9.3225899"><ele>199.0</ele><time>2026-03-24T11:23:51.828Z</time></trkpt><trkpt lat="45.8864781" lon="9.3227089"><ele>199.75</ele><time>2026-03-24T11:23:52.828Z</time></trkpt><trkpt lat="45.8863973" lon="9.3228348"><ele>200.5</ele><time>2026-03-24T11:23:53.821Z</time></trkpt><trkpt lat="45.8863332" lon="9.3229849"><ele>201.25</ele><time>2026-03-24T11:23:54.828Z</time></trkpt><trkpt lat="45.886296" lon="9.3231438"><ele>202.0</ele><time>2026-03-24T11:23:55.831Z</time></trkpt><trkpt lat="45.8862435" lon="9.3232838"><ele>202.0</ele><time>2026-03-24T11:23:56.836Z</time></trkpt><trkpt lat="45.8861899" lon="9.3234125"><ele>202.0</ele><time>2026-03-24T11:23:57.826Z</time></trkpt><trkpt lat="45.8861015" lon="9.32354"><ele>202.0</ele><time>2026-03-24T11:23:58.825Z</time></trkpt><trkpt lat="45.886021" lon="9.323654"><ele>202.0</ele><time>2026-03-24T11:23:59.823Z</time></trkpt><trkpt lat="45.8859146" lon="9.3237548"><ele>202.25</ele><time>2026-03-24T11:24:00.815Z</time></trkpt><trkpt lat="45.8858067" lon="9.3238451"><ele>202.5</ele><time>2026-03-24T11:24:01.815Z</time></trkpt><trkpt lat="45.8856788" lon="9.3238833"><ele>202.75</ele><time>2026-03-24T11:24:02.809Z</time></trkpt><trkpt lat="45.8855612" lon="9.3239297"><ele>203.0</ele><time>2026-03-24T11:24:03.818Z</time></trkpt><trkpt lat="45.8854595" lon="9.3239715"><ele>203.00000000000003</ele><time>2026-03-24T11:24:04.819Z</time></trkpt><trkpt lat="45.8853647" lon="9.3240116"><ele>203.0</ele><time>2026-03-24T11:24:05.82Z</time></trkpt><trkpt lat="45.8852954" lon="9.3240544"><ele>203.0</ele><time>2026-03-24T11:24:06.845Z</time></trkpt><trkpt lat="45.8852336" lon="9.3241226"><ele>203.0</ele><time>2026-03-24T11:24:07.822Z</time></trkpt><trkpt lat="45.8851694" lon="9.3242432"><ele>203.00000000000003</ele><time>2026-03-24T11:24:09.816Z</time></trkpt><trkpt lat="45.8851312" lon="9.3243176"><ele>203.0</ele><time>2026-03-24T11:24:10.82Z</time></trkpt><trkpt lat="45.8850557" lon="9.3244596"><ele>204.5</ele><time>2026-03-24T11:24:12.818Z</time></trkpt><trkpt lat="45.885012" lon="9.3245521"><ele>206.0</ele><time>2026-03-24T11:24:13.822Z</time></trkpt><trkpt lat="45.8849444" lon="9.3246392"><ele>207.5</ele><time>2026-03-24T11:24:14.818Z</time></trkpt><trkpt lat="45.884927" lon="9.3248175"><ele>209.0</ele><time>2026-03-24T11:24:15.818Z</time></trkpt><trkpt lat="45.8848553" lon="9.325058"><ele>209.0</ele><time>2026-03-24T11:24:16.825Z</time></trkpt><trkpt lat="45.8847936" lon="9.3253377"><ele>209.0</ele><time>2026-03-24T11:24:17.819Z</time></trkpt><trkpt lat="45.8846772" lon="9.3257197"><ele>205.0</ele><time>2026-03-24T11:24:18.822Z</time></trkpt><trkpt lat="45.8845765" lon="9.3260876"><ele>201.0</ele><time>2026-03-24T11:24:19.821Z</time></trkpt><trkpt lat="45.8844961" lon="9.3264513"><ele>201.0</ele><time>2026-03-24T11:24:20.823Z</time></trkpt><trkpt lat="45.8844725" lon="9.3267161"><ele>201.0</ele><time>2026-03-24T11:24:21.824Z</time></trkpt><trkpt lat="45.8844601" lon="9.3269885"><ele>201.0</ele><time>2026-03-24T11:24:22.824Z</time></trkpt><trkpt lat="45.8844599" lon="9.3272615"><ele>200.33333333333331</ele><time>2026-03-24T11:24:23.828Z</time></trkpt><trkpt lat="45.8844489" lon="9.3275106"><ele>199.66666666666666</ele><time>2026-03-24T11:24:24.835Z</time></trkpt><trkpt lat="45.8844379" lon="9.3277852"><ele>199.0</ele><time>2026-03-24T11:24:25.841Z</time></trkpt><trkpt lat="45.8844084" lon="9.3280397"><ele>198.66666666666666</ele><time>2026-03-24T11:24:26.857Z</time></trkpt><trkpt lat="45.8843643" lon="9.3282913"><ele>198.33333333333331</ele><time>2026-03-24T11:24:27.854Z</time></trkpt><trkpt lat="45.8843453" lon="9.328568"><ele>198.0</ele><time>2026-03-24T11:24:28.852Z</time></trkpt><trkpt lat="45.8843449" lon="9.3288397"><ele>198.0</ele><time>2026-03-24T11:24:29.848Z</time></trkpt><trkpt lat="45.884328" lon="9.3291195"><ele>198.0</ele><time>2026-03-24T11:24:30.849Z</time></trkpt><trkpt lat="45.8843087" lon="9.3293931"><ele>198.0</ele><time>2026-03-24T11:24:31.85Z</time></trkpt><trkpt lat="45.8842992" lon="9.3296372"><ele>198.5</ele><time>2026-03-24T11:24:32.845Z</time></trkpt><trkpt lat="45.8843098" lon="9.3298359"><ele>199.0</ele><time>2026-03-24T11:24:33.845Z</time></trkpt><trkpt lat="45.8843102" lon="9.3300091"><ele>199.5</ele><time>2026-03-24T11:24:34.839Z</time></trkpt><trkpt lat="45.8843164" lon="9.3302022"><ele>200.0</ele><time>2026-03-24T11:24:35.838Z</time></trkpt><trkpt lat="45.8843275" lon="9.3303925"><ele>199.75</ele><time>2026-03-24T11:24:36.851Z</time></trkpt><trkpt lat="45.8843056" lon="9.3305962"><ele>199.5</ele><time>2026-03-24T11:24:37.832Z</time></trkpt><trkpt lat="45.8843017" lon="9.3308017"><ele>199.25</ele><time>2026-03-24T11:24:38.834Z</time></trkpt><trkpt lat="45.8842925" lon="9.331011"><ele>199.0</ele><time>2026-03-24T11:24:39.84Z</time></trkpt><trkpt lat="45.8842281" lon="9.3312214"><ele>202.0</ele><time>2026-03-24T11:24:40.834Z</time></trkpt><trkpt lat="45.8841341" lon="9.3314042"><ele>205.0</ele><time>2026-03-24T11:24:41.833Z</time></trkpt><trkpt lat="45.884076" lon="9.331592"><ele>208.0</ele><time>2026-03-24T11:24:42.839Z</time></trkpt><trkpt lat="45.8839619" lon="9.3317836"><ele>208.0</ele><time>2026-03-24T11:24:43.842Z</time></trkpt><trkpt lat="45.8838761" lon="9.3319953"><ele>208.0</ele><time>2026-03-24T11:24:44.838Z</time></trkpt><trkpt lat="45.8837945" lon="9.3321688"><ele>208.0</ele><time>2026-03-24T11:24:45.829Z</time></trkpt><trkpt lat="45.8837072" lon="9.3324073"><ele>207.0</ele><time>2026-03-24T11:24:46.839Z</time></trkpt><trkpt lat="45.8836303" lon="9.332606"><ele>206.0</ele><time>2026-03-24T11:24:47.831Z</time></trkpt><trkpt lat="45.883549" lon="9.332857"><ele>205.0</ele><time>2026-03-24T11:24:48.817Z</time></trkpt><trkpt lat="45.8834633" lon="9.3330751"><ele>206.0</ele><time>2026-03-24T11:24:49.797Z</time></trkpt><trkpt lat="45.8833643" lon="9.3332831"><ele>207.0</ele><time>2026-03-24T11:24:50.794Z</time></trkpt><trkpt lat="45.8832798" lon="9.3335062"><ele>208.0</ele><time>2026-03-24T11:24:51.759Z</time></trkpt><trkpt lat="45.8733953" lon="9.3570281"><ele>204.0</ele><time>2026-03-24T11:25:57.13Z</time></trkpt><trkpt lat="45.8726997" lon="9.3572656"><ele>204.0</ele><time>2026-03-24T11:26:04.8Z</time></trkpt><trkpt lat="45.8726614" lon="9.3574892"><ele>204.0</ele><time>2026-03-24T11:26:05.802Z</time></trkpt><trkpt lat="45.8725279" lon="9.3576006"><ele>204.0</ele><time>2026-03-24T11:26:06.796Z</time></trkpt><trkpt lat="45.8723661" lon="9.3577029"><ele>205.66666666666669</ele><time>2026-03-24T11:26:07.808Z</time></trkpt><trkpt lat="45.8721675" lon="9.3577747"><ele>207.33333333333334</ele><time>2026-03-24T11:26:08.807Z</time></trkpt><trkpt lat="45.8720228" lon="9.3578676"><ele>209.0</ele><time>2026-03-24T11:26:09.818Z</time></trkpt><trkpt lat="45.8718585" lon="9.3578677"><ele>204.5</ele><time>2026-03-24T11:26:10.802Z</time></trkpt><trkpt lat="45.8717422" lon="9.3580292"><ele>200.0</ele><time>2026-03-24T11:26:11.762Z</time></trkpt><trkpt lat="45.8589335" lon="9.3656747"><ele>200.0</ele><time>2026-03-24T11:27:18.8Z</time></trkpt><trkpt lat="45.8587991" lon="9.3657285"><ele>200.0</ele><time>2026-03-24T11:27:19.798Z</time></trkpt><trkpt lat="45.8587029" lon="9.3657478"><ele>200.0</ele><time>2026-03-24T11:27:20.819Z</time></trkpt><trkpt lat="45.8586017" lon="9.3657792"><ele>200.0</ele><time>2026-03-24T11:27:21.826Z</time></trkpt><trkpt lat="45.8585083" lon="9.3658339"><ele>200.0</ele><time>2026-03-24T11:27:22.83Z</time></trkpt><trkpt lat="45.8584232" lon="9.3658833"><ele>200.33333333333334</ele><time>2026-03-24T11:27:23.825Z</time></trkpt><trkpt lat="45.8583515" lon="9.3659289"><ele>200.66666666666669</ele><time>2026-03-24T11:27:24.826Z</time></trkpt><trkpt lat="45.8582944" lon="9.3659747"><ele>201.0</ele><time>2026-03-24T11:27:25.826Z</time></trkpt><trkpt lat="45.8582244" lon="9.3659914"><ele>201.33333333333331</ele><time>2026-03-24T11:27:27.84Z</time></trkpt><trkpt lat="45.8581667" lon="9.365947"><ele>201.66666666666666</ele><time>2026-03-24T11:27:30.832Z</time></trkpt><trkpt lat="45.8580245" lon="9.3658598"><ele>202.0</ele><time>2026-03-24T11:27:32.831Z</time></trkpt><trkpt lat="45.8579169" lon="9.365826"><ele>202.0</ele><time>2026-03-24T11:27:33.833Z</time></trkpt><trkpt lat="45.857823" lon="9.3658105"><ele>202.0</ele><time>2026-03-24T11:27:34.83Z</time></trkpt><trkpt lat="45.85772" lon="9.3657953"><ele>202.0</ele><time>2026-03-24T11:27:35.839Z</time></trkpt><trkpt lat="45.8576148" lon="9.3658053"><ele>202.0</ele><time>2026-03-24T11:27:36.844Z</time></trkpt><trkpt lat="45.8575115" lon="9.3658091"><ele>202.0</ele><time>2026-03-24T11:27:37.844Z</time></trkpt><trkpt lat="45.8574007" lon="9.3658243"><ele>203.0</ele><time>2026-03-24T11:27:38.835Z</time></trkpt><trkpt lat="45.857284" lon="9.365837"><ele>204.0</ele><time>2026-03-24T11:27:39.834Z</time></trkpt><trkpt lat="45.8571682" lon="9.3658573"><ele>205.0</ele><time>2026-03-24T11:27:40.84Z</time></trkpt><trkpt lat="45.8570421" lon="9.3658765"><ele>206.0</ele><time>2026-03-24T11:27:41.836Z</time></trkpt><trkpt lat="45.8569182" lon="9.3658879"><ele>206.0</ele><time>2026-03-24T11:27:42.852Z</time></trkpt><trkpt lat="45.8568074" lon="9.3659072"><ele>206.0</ele><time>2026-03-24T11:27:43.839Z</time></trkpt><trkpt lat="45.8567045" lon="9.3659147"><ele>206.0</ele><time>2026-03-24T11:27:44.845Z</time></trkpt><trkpt lat="45.8565745" lon="9.3659279"><ele>206.0</ele><time>2026-03-24T11:27:45.845Z</time></trkpt><trkpt lat="45.8564505" lon="9.3659522"><ele>206.25</ele><time>2026-03-24T11:27:46.851Z</time></trkpt><trkpt lat="45.8563281" lon="9.3659692"><ele>206.5</ele><time>2026-03-24T11:27:47.853Z</time></trkpt><trkpt lat="45.8562068" lon="9.3659808"><ele>206.75</ele><time>2026-03-24T11:27:48.853Z</time></trkpt><trkpt lat="45.8560954" lon="9.3659838"><ele>207.0</ele><time>2026-03-24T11:27:49.855Z</time></trkpt><trkpt lat="45.8559776" lon="9.3659761"><ele>207.2</ele><time>2026-03-24T11:27:50.852Z</time></trkpt><trkpt lat="45.8558672" lon="9.3659479"><ele>207.39999999999998</ele><time>2026-03-24T11:27:51.847Z</time></trkpt><trkpt lat="45.8557561" lon="9.3659068"><ele>207.60000000000002</ele><time>2026-03-24T11:27:52.844Z</time></trkpt><trkpt lat="45.8556513" lon="9.3658673"><ele>207.8</ele><time>2026-03-24T11:27:53.852Z</time></trkpt><trkpt lat="45.8555654" lon="9.3658202"><ele>208.0</ele><time>2026-03-24T11:27:54.869Z</time></trkpt><trkpt lat="45.855472" lon="9.3657923"><ele>208.0</ele><time>2026-03-24T11:27:55.872Z</time></trkpt><trkpt lat="45.8553721" lon="9.3657505"><ele>208.0</ele><time>2026-03-24T11:27:56.866Z</time></trkpt><trkpt lat="45.8552676" lon="9.3657058"><ele>208.0</ele><time>2026-03-24T11:27:57.879Z</time></trkpt><trkpt lat="45.8551767" lon="9.3656635"><ele>208.0</ele><time>2026-03-24T11:27:58.867Z</time></trkpt><trkpt lat="45.8551003" lon="9.3656394"><ele>208.0</ele><time>2026-03-24T11:27:59.866Z</time></trkpt><trkpt lat="45.8550338" lon="9.3656065"><ele>208.4</ele><time>2026-03-24T11:28:00.869Z</time></trkpt><trkpt lat="45.8549318" lon="9.3655316"><ele>208.8</ele><time>2026-03-24T11:28:02.865Z</time></trkpt><trkpt lat="45.8548702" lon="9.3654934"><ele>209.2</ele><time>2026-03-24T11:28:03.87Z</time></trkpt><trkpt lat="45.8547846" lon="9.3654647"><ele>209.6</ele><time>2026-03-24T11:28:04.866Z</time></trkpt><trkpt lat="45.8546818" lon="9.3654367"><ele>210.0</ele><time>2026-03-24T11:28:05.856Z</time></trkpt><trkpt lat="45.8545522" lon="9.3653989"><ele>211.0</ele><time>2026-03-24T11:28:06.861Z</time></trkpt><trkpt lat="45.8543984" lon="9.365337"><ele>212.0</ele><time>2026-03-24T11:28:07.861Z</time></trkpt><trkpt lat="45.8542235" lon="9.3652393"><ele>213.0</ele><time>2026-03-24T11:28:08.85Z</time></trkpt><trkpt lat="45.8540001" lon="9.365131"><ele>213.33333333333331</ele><time>2026-03-24T11:28:09.851Z</time></trkpt><trkpt lat="45.8538007" lon="9.3650459"><ele>213.66666666666666</ele><time>2026-03-24T11:28:10.867Z</time></trkpt><trkpt lat="45.8535918" lon="9.3649905"><ele>214.0</ele><time>2026-03-24T11:28:11.858Z</time></trkpt><trkpt lat="45.8533722" lon="9.3648823"><ele>214.66666666666666</ele><time>2026-03-24T11:28:12.868Z</time></trkpt><trkpt lat="45.8531725" lon="9.3647785"><ele>215.33333333333331</ele><time>2026-03-24T11:28:13.863Z</time></trkpt><trkpt lat="45.8529487" lon="9.3646909"><ele>216.0</ele><time>2026-03-24T11:28:14.854Z</time></trkpt><trkpt lat="45.8527411" lon="9.3645882"><ele>217.66666666666669</ele><time>2026-03-24T11:28:15.855Z</time></trkpt><trkpt lat="45.8525413" lon="9.3645349"><ele>219.33333333333334</ele><time>2026-03-24T11:28:16.856Z</time></trkpt><trkpt lat="45.8522992" lon="9.3644938"><ele>221.0</ele><time>2026-03-24T11:28:17.842Z</time></trkpt><trkpt lat="45.8520909" lon="9.3644596"><ele>221.0</ele><time>2026-03-24T11:28:18.84Z</time></trkpt><trkpt lat="45.851872" lon="9.3643694"><ele>221.0</ele><time>2026-03-24T11:28:19.831Z</time></trkpt><trkpt lat="45.8516701" lon="9.3643091"><ele>221.0</ele><time>2026-03-24T11:28:20.836Z</time></trkpt><trkpt lat="45.8514894" lon="9.3642573"><ele>221.66666666666669</ele><time>2026-03-24T11:28:21.836Z</time></trkpt><trkpt lat="45.8513177" lon="9.3642144"><ele>222.33333333333331</ele><time>2026-03-24T11:28:22.834Z</time></trkpt><trkpt lat="45.8511572" lon="9.3641457"><ele>223.0</ele><time>2026-03-24T11:28:23.842Z</time></trkpt><trkpt lat="45.8510152" lon="9.3640823"><ele>223.33333333333331</ele><time>2026-03-24T11:28:24.84Z</time></trkpt><trkpt lat="45.8508703" lon="9.3639765"><ele>223.66666666666669</ele><time>2026-03-24T11:28:25.848Z</time></trkpt><trkpt lat="45.8507453" lon="9.363842"><ele>224.0</ele><time>2026-03-24T11:28:26.848Z</time></trkpt><trkpt lat="45.8506067" lon="9.3637057"><ele>224.75</ele><time>2026-03-24T11:28:27.865Z</time></trkpt><trkpt lat="45.8505071" lon="9.3635875"><ele>225.5</ele><time>2026-03-24T11:28:28.858Z</time></trkpt><trkpt lat="45.8503706" lon="9.3635209"><ele>226.25</ele><time>2026-03-24T11:28:29.85Z</time></trkpt><trkpt lat="45.8502764" lon="9.3634353"><ele>227.0</ele><time>2026-03-24T11:28:30.845Z</time></trkpt><trkpt lat="45.8501627" lon="9.3633429"><ele>227.0</ele><time>2026-03-24T11:28:31.854Z</time></trkpt><trkpt lat="45.8500485" lon="9.3632252"><ele>227.0</ele><time>2026-03-24T11:28:32.856Z</time></trkpt><trkpt lat="45.8499348" lon="9.3631744"><ele>227.0</ele><time>2026-03-24T11:28:33.85Z</time></trkpt><trkpt lat="45.8498304" lon="9.3630838"><ele>227.0</ele><time>2026-03-24T11:28:34.852Z</time></trkpt><trkpt lat="45.8497135" lon="9.3630511"><ele>227.0</ele><time>2026-03-24T11:28:35.855Z</time></trkpt><trkpt lat="45.8496321" lon="9.3629699"><ele>227.0</ele><time>2026-03-24T11:28:36.854Z</time></trkpt><trkpt lat="45.8495481" lon="9.3629096"><ele>227.0</ele><time>2026-03-24T11:28:37.854Z</time></trkpt><trkpt lat="45.8494665" lon="9.3628399"><ele>227.0</ele><time>2026-03-24T11:28:38.849Z</time></trkpt><trkpt lat="45.8493793" lon="9.3627739"><ele>227.0</ele><time>2026-03-24T11:28:39.855Z</time></trkpt><trkpt lat="45.8492886" lon="9.3627048"><ele>227.00000000000003</ele><time>2026-03-24T11:28:40.862Z</time></trkpt><trkpt lat="45.8491976" lon="9.3626421"><ele>227.0</ele><time>2026-03-24T11:28:41.866Z</time></trkpt><trkpt lat="45.8491158" lon="9.362575"><ele>227.0</ele><time>2026-03-24T11:28:42.858Z</time></trkpt><trkpt lat="45.8490466" lon="9.3625151"><ele>227.0</ele><time>2026-03-24T11:28:43.88Z</time></trkpt><trkpt lat="45.8489773" lon="9.3624591"><ele>227.00000000000003</ele><time>2026-03-24T11:28:44.855Z</time></trkpt><trkpt lat="45.8488988" lon="9.3624091"><ele>227.0</ele><time>2026-03-24T11:28:45.852Z</time></trkpt><trkpt lat="45.8488131" lon="9.3623678"><ele>227.0</ele><time>2026-03-24T11:28:46.86Z</time></trkpt><trkpt lat="45.8487282" lon="9.3623137"><ele>227.0</ele><time>2026-03-24T11:28:47.849Z</time></trkpt><trkpt lat="45.8486441" lon="9.3622291"><ele>227.0</ele><time>2026-03-24T11:28:48.875Z</time></trkpt><trkpt lat="45.8485562" lon="9.3621518"><ele>227.0</ele><time>2026-03-24T11:28:49.869Z</time></trkpt><trkpt lat="45.848465" lon="9.362094"><ele>227.0</ele><time>2026-03-24T11:28:50.874Z</time></trkpt><trkpt lat="45.8483721" lon="9.3620413"><ele>227.00000000000003</ele><time>2026-03-24T11:28:51.865Z</time></trkpt><trkpt lat="45.8482872" lon="9.3619933"><ele>227.0</ele><time>2026-03-24T11:28:52.872Z</time></trkpt><trkpt lat="45.8482162" lon="9.3619419"><ele>227.0</ele><time>2026-03-24T11:28:53.866Z</time></trkpt><trkpt lat="45.8481489" lon="9.361887"><ele>227.0</ele><time>2026-03-24T11:28:54.881Z</time></trkpt><trkpt lat="45.8480773" lon="9.3618496"><ele>227.00000000000003</ele><time>2026-03-24T11:28:55.878Z</time></trkpt><trkpt lat="45.8480129" lon="9.3618188"><ele>227.0</ele><time>2026-03-24T11:28:56.868Z</time></trkpt><trkpt lat="45.8479027" lon="9.3617735"><ele>227.0</ele><time>2026-03-24T11:28:58.862Z</time></trkpt><trkpt lat="45.8478403" lon="9.3617469"><ele>227.00000000000003</ele><time>2026-03-24T11:28:59.868Z</time></trkpt><trkpt lat="45.8477719" lon="9.3617196"><ele>227.0</ele><time>2026-03-24T11:29:00.867Z</time></trkpt><trkpt lat="45.8477052" lon="9.3616792"><ele>227.0</ele><time>2026-03-24T11:29:01.865Z</time></trkpt><trkpt lat="45.8476403" lon="9.361638"><ele>227.00000000000003</ele><time>2026-03-24T11:29:02.866Z</time></trkpt><trkpt lat="45.8475642" lon="9.3615865"><ele>227.0</ele><time>2026-03-24T11:29:03.865Z</time></trkpt><trkpt lat="45.8475003" lon="9.3615358"><ele>227.0</ele><time>2026-03-24T11:29:04.869Z</time></trkpt><trkpt lat="45.8474336" lon="9.3615066"><ele>226.50000000000003</ele><time>2026-03-24T11:29:05.87Z</time></trkpt><trkpt lat="45.8473681" lon="9.361481"><ele>226.0</ele><time>2026-03-24T11:29:06.865Z</time></trkpt><trkpt lat="45.8472635" lon="9.3614165"><ele>225.5</ele><time>2026-03-24T11:29:08.857Z</time></trkpt><trkpt lat="45.8471902" lon="9.3613848"><ele>225.0</ele><time>2026-03-24T11:29:10.854Z</time></trkpt><trkpt lat="45.8471326" lon="9.3613318"><ele>224.50000000000003</ele><time>2026-03-24T11:29:15.867Z</time></trkpt><trkpt lat="45.8470514" lon="9.3612847"><ele>224.0</ele><time>2026-03-24T11:29:20.87Z</time></trkpt><trkpt lat="45.8469635" lon="9.3612784"><ele>224.00000000000003</ele><time>2026-03-24T11:29:22.869Z</time></trkpt><trkpt lat="45.8468977" lon="9.3612855"><ele>224.0</ele><time>2026-03-24T11:29:23.869Z</time></trkpt><trkpt lat="45.8468316" lon="9.3612982"><ele>224.0</ele><time>2026-03-24T11:29:24.869Z</time></trkpt><trkpt lat="45.8467388" lon="9.3613138"><ele>224.0</ele><time>2026-03-24T11:29:25.864Z</time></trkpt><trkpt lat="45.8466494" lon="9.3613366"><ele>224.00000000000003</ele><time>2026-03-24T11:29:26.856Z</time></trkpt><trkpt lat="45.846548" lon="9.361356"><ele>224.0</ele><time>2026-03-24T11:29:27.867Z</time></trkpt><trkpt lat="45.8464177" lon="9.36136"><ele>224.25</ele><time>2026-03-24T11:29:28.86Z</time></trkpt><trkpt lat="45.8462884" lon="9.3613694"><ele>224.5</ele><time>2026-03-24T11:29:29.855Z</time></trkpt><trkpt lat="45.8461619" lon="9.3613606"><ele>224.75</ele><time>2026-03-24T11:29:30.843Z</time></trkpt><trkpt lat="45.8460223" lon="9.361325"><ele>225.0</ele><time>2026-03-24T11:29:31.853Z</time></trkpt><trkpt lat="45.8458769" lon="9.3612834"><ele>224.5</ele><time>2026-03-24T11:29:32.853Z</time></trkpt><trkpt lat="45.845734" lon="9.3612225"><ele>224.0</ele><time>2026-03-24T11:29:33.864Z</time></trkpt><trkpt lat="45.8456562" lon="9.3612095"><ele>223.5</ele><time>2026-03-24T11:29:34.865Z</time></trkpt><trkpt lat="45.8455501" lon="9.3611569"><ele>223.0</ele><time>2026-03-24T11:29:35.857Z</time></trkpt><trkpt lat="45.8454381" lon="9.3611343"><ele>223.0</ele><time>2026-03-24T11:29:36.853Z</time></trkpt><trkpt lat="45.8453266" lon="9.3611446"><ele>223.0</ele><time>2026-03-24T11:29:37.862Z</time></trkpt><trkpt lat="45.8452333" lon="9.3611188"><ele>223.0</ele><time>2026-03-24T11:29:38.854Z</time></trkpt><trkpt lat="45.8451321" lon="9.3611014"><ele>223.0</ele><time>2026-03-24T11:29:39.869Z</time></trkpt><trkpt lat="45.845028" lon="9.3610497"><ele>223.0</ele><time>2026-03-24T11:29:40.86Z</time></trkpt><trkpt lat="45.8449221" lon="9.3609751"><ele>222.5</ele><time>2026-03-24T11:29:41.864Z</time></trkpt><trkpt lat="45.844797" lon="9.3608836"><ele>222.0</ele><time>2026-03-24T11:29:42.862Z</time></trkpt><trkpt lat="45.8446632" lon="9.3607984"><ele>221.5</ele><time>2026-03-24T11:29:43.876Z</time></trkpt><trkpt lat="45.8445337" lon="9.3606968"><ele>221.0</ele><time>2026-03-24T11:29:44.862Z</time></trkpt><trkpt lat="45.8443883" lon="9.3605711"><ele>221.66666666666669</ele><time>2026-03-24T11:29:45.87Z</time></trkpt><trkpt lat="45.8442245" lon="9.3604513"><ele>222.33333333333331</ele><time>2026-03-24T11:29:46.865Z</time></trkpt><trkpt lat="45.8440815" lon="9.3603292"><ele>223.0</ele><time>2026-03-24T11:29:47.866Z</time></trkpt><trkpt lat="45.8439102" lon="9.3601789"><ele>223.0</ele><time>2026-03-24T11:29:48.855Z</time></trkpt><trkpt lat="45.8437429" lon="9.3600208"><ele>223.0</ele><time>2026-03-24T11:29:49.861Z</time></trkpt><trkpt lat="45.8435659" lon="9.3598813"><ele>223.0</ele><time>2026-03-24T11:29:50.851Z</time></trkpt><trkpt lat="45.8434051" lon="9.3597563"><ele>222.99999999999997</ele><time>2026-03-24T11:29:51.841Z</time></trkpt><trkpt lat="45.8432937" lon="9.3596723"><ele>223.0</ele><time>2026-03-24T11:29:52.83Z</time></trkpt><trkpt lat="45.8432162" lon="9.3595767"><ele>223.0</ele><time>2026-03-24T11:29:53.824Z</time></trkpt><trkpt lat="45.8431582" lon="9.35954"><ele>223.0</ele><time>2026-03-24T11:30:05.855Z</time></trkpt><trkpt lat="45.8430954" lon="9.3594971"><ele>222.99999999999997</ele><time>2026-03-24T11:30:08.842Z</time></trkpt><trkpt lat="45.8430263" lon="9.3594574"><ele>223.0</ele><time>2026-03-24T11:30:09.847Z</time></trkpt><trkpt lat="45.8429234" lon="9.3593738"><ele>223.0</ele><time>2026-03-24T11:30:10.848Z</time></trkpt><trkpt lat="45.8428002" lon="9.3592749"><ele>223.0</ele><time>2026-03-24T11:30:11.844Z</time></trkpt><trkpt lat="45.8426724" lon="9.3591587"><ele>223.0</ele><time>2026-03-24T11:30:12.851Z</time></trkpt><trkpt lat="45.8425246" lon="9.3590344"><ele>223.0</ele><time>2026-03-24T11:30:13.85Z</time></trkpt><trkpt lat="45.8423634" lon="9.3589083"><ele>223.0</ele><time>2026-03-24T11:30:14.852Z</time></trkpt><trkpt lat="45.8421751" lon="9.3587267"><ele>223.0</ele><time>2026-03-24T11:30:15.855Z</time></trkpt><trkpt lat="45.8419863" lon="9.3585686"><ele>223.0</ele><time>2026-03-24T11:30:16.868Z</time></trkpt><trkpt lat="45.8418022" lon="9.3584319"><ele>223.0</ele><time>2026-03-24T11:30:17.855Z</time></trkpt><trkpt lat="45.8416459" lon="9.358296"><ele>223.0</ele><time>2026-03-24T11:30:18.848Z</time></trkpt><trkpt lat="45.8414755" lon="9.3581434"><ele>223.0</ele><time>2026-03-24T11:30:19.846Z</time></trkpt><trkpt lat="45.841308" lon="9.3579935"><ele>223.0</ele><time>2026-03-24T11:30:20.853Z</time></trkpt><trkpt lat="45.8411438" lon="9.3578717"><ele>223.0</ele><time>2026-03-24T11:30:21.843Z</time></trkpt><trkpt lat="45.8410041" lon="9.3577673"><ele>222.5</ele><time>2026-03-24T11:30:22.844Z</time></trkpt><trkpt lat="45.8408412" lon="9.3576526"><ele>222.0</ele><time>2026-03-24T11:30:23.841Z</time></trkpt><trkpt lat="45.8407371" lon="9.3575738"><ele>221.5</ele><time>2026-03-24T11:30:24.828Z</time></trkpt><trkpt lat="45.8406279" lon="9.3575518"><ele>221.0</ele><time>2026-03-24T11:30:25.83Z</time></trkpt><trkpt lat="45.8405073" lon="9.3575182"><ele>221.0</ele><time>2026-03-24T11:30:27.85Z</time></trkpt><trkpt lat="45.8404378" lon="9.357475"><ele>221.0</ele><time>2026-03-24T11:30:29.856Z</time></trkpt><trkpt lat="45.8403558" lon="9.3576654"><ele>221.0</ele><time>2026-03-24T11:30:31.858Z</time></trkpt><trkpt lat="45.8403674" lon="9.357835"><ele>221.0</ele><time>2026-03-24T11:30:32.844Z</time></trkpt><trkpt lat="45.8403586" lon="9.357995"><ele>221.20000000000002</ele><time>2026-03-24T11:30:33.849Z</time></trkpt><trkpt lat="45.8403221" lon="9.3581645"><ele>221.40000000000003</ele><time>2026-03-24T11:30:34.842Z</time></trkpt><trkpt lat="45.8402607" lon="9.3582993"><ele>221.6</ele><time>2026-03-24T11:30:35.844Z</time></trkpt><trkpt lat="45.8401949" lon="9.3583882"><ele>221.8</ele><time>2026-03-24T11:30:36.844Z</time></trkpt><trkpt lat="45.8401263" lon="9.3584542"><ele>222.0</ele><time>2026-03-24T11:30:37.831Z</time></trkpt><trkpt lat="45.8400342" lon="9.3584747"><ele>222.25</ele><time>2026-03-24T11:30:38.832Z</time></trkpt><trkpt lat="45.8399147" lon="9.3584414"><ele>222.5</ele><time>2026-03-24T11:30:39.828Z</time></trkpt><trkpt lat="45.8397828" lon="9.3583804"><ele>222.75</ele><time>2026-03-24T11:30:40.824Z</time></trkpt><trkpt lat="45.8396362" lon="9.3583002"><ele>223.0</ele><time>2026-03-24T11:30:41.819Z</time></trkpt><trkpt lat="45.8394734" lon="9.3581801"><ele>223.0</ele><time>2026-03-24T11:30:42.826Z</time></trkpt><trkpt lat="45.8393147" lon="9.3580342"><ele>223.0</ele><time>2026-03-24T11:30:43.827Z</time></trkpt><trkpt lat="45.8391262" lon="9.3578832"><ele>223.0</ele><time>2026-03-24T11:30:44.829Z</time></trkpt><trkpt lat="45.8389251" lon="9.3577142"><ele>223.0</ele><time>2026-03-24T11:30:45.83Z</time></trkpt><trkpt lat="45.8387385" lon="9.3574465"><ele>223.0</ele><time>2026-03-24T11:30:46.826Z</time></trkpt><trkpt lat="45.838522" lon="9.3572397"><ele>223.0</ele><time>2026-03-24T11:30:47.846Z</time></trkpt><trkpt lat="45.8382871" lon="9.3570254"><ele>223.0</ele><time>2026-03-24T11:30:48.822Z</time></trkpt><trkpt lat="45.8380891" lon="9.3568075"><ele>223.0</ele><time>2026-03-24T11:30:49.829Z</time></trkpt><trkpt lat="45.8379053" lon="9.3565759"><ele>223.0</ele><time>2026-03-24T11:30:50.831Z</time></trkpt><trkpt lat="45.8376697" lon="9.3563685"><ele>224.0</ele><time>2026-03-24T11:30:51.829Z</time></trkpt><trkpt lat="45.8374667" lon="9.3561245"><ele>225.0</ele><time>2026-03-24T11:30:52.833Z</time></trkpt><trkpt lat="45.8372338" lon="9.3559012"><ele>225.0</ele><time>2026-03-24T11:30:53.824Z</time></trkpt><trkpt lat="45.837018" lon="9.3556684"><ele>225.0</ele><time>2026-03-24T11:30:54.812Z</time></trkpt><trkpt lat="45.8367823" lon="9.3554551"><ele>223.66666666666669</ele><time>2026-03-24T11:30:55.814Z</time></trkpt><trkpt lat="45.8366047" lon="9.3552791"><ele>222.33333333333334</ele><time>2026-03-24T11:30:56.824Z</time></trkpt><trkpt lat="45.8364225" lon="9.3550737"><ele>221.0</ele><time>2026-03-24T11:30:57.834Z</time></trkpt><trkpt lat="45.8362348" lon="9.3548633"><ele>221.5</ele><time>2026-03-24T11:30:58.829Z</time></trkpt><trkpt lat="45.8360578" lon="9.3546688"><ele>222.0</ele><time>2026-03-24T11:30:59.828Z</time></trkpt><trkpt lat="45.8358567" lon="9.3544726"><ele>221.0</ele><time>2026-03-24T11:31:00.832Z</time></trkpt><trkpt lat="45.8356791" lon="9.3542762"><ele>220.0</ele><time>2026-03-24T11:31:01.831Z</time></trkpt><trkpt lat="45.8354637" lon="9.3540773"><ele>220.5</ele><time>2026-03-24T11:31:02.83Z</time></trkpt><trkpt lat="45.8352543" lon="9.3538623"><ele>221.0</ele><time>2026-03-24T11:31:03.83Z</time></trkpt><trkpt lat="45.8350506" lon="9.3536281"><ele>221.0</ele><time>2026-03-24T11:31:04.832Z</time></trkpt><trkpt lat="45.8348535" lon="9.3534415"><ele>221.0</ele><time>2026-03-24T11:31:05.835Z</time></trkpt><trkpt lat="45.8346406" lon="9.3532251"><ele>221.0</ele><time>2026-03-24T11:31:06.845Z</time></trkpt><trkpt lat="45.8344551" lon="9.3530219"><ele>221.0</ele><time>2026-03-24T11:31:07.841Z</time></trkpt><trkpt lat="45.8342876" lon="9.352821"><ele>221.0</ele><time>2026-03-24T11:31:08.841Z</time></trkpt><trkpt lat="45.8340979" lon="9.3526792"><ele>221.0</ele><time>2026-03-24T11:31:09.833Z</time></trkpt><trkpt lat="45.8339228" lon="9.3525441"><ele>221.0</ele><time>2026-03-24T11:31:10.842Z</time></trkpt><trkpt lat="45.8337122" lon="9.3524446"><ele>221.0</ele><time>2026-03-24T11:31:11.84Z</time></trkpt><trkpt lat="45.833523" lon="9.3523678"><ele>221.0</ele><time>2026-03-24T11:31:12.834Z</time></trkpt><trkpt lat="45.8332981" lon="9.3523311"><ele>221.0</ele><time>2026-03-24T11:31:13.839Z</time></trkpt><trkpt lat="45.8330744" lon="9.3523139"><ele>222.33333333333334</ele><time>2026-03-24T11:31:14.839Z</time></trkpt><trkpt lat="45.8328571" lon="9.3523221"><ele>223.66666666666669</ele><time>2026-03-24T11:31:15.842Z</time></trkpt><trkpt lat="45.8326398" lon="9.352357"><ele>225.0</ele><time>2026-03-24T11:31:16.849Z</time></trkpt><trkpt lat="45.8324276" lon="9.352402"><ele>226.66666666666669</ele><time>2026-03-24T11:31:17.845Z</time></trkpt><trkpt lat="45.8322092" lon="9.3524667"><ele>228.33333333333334</ele><time>2026-03-24T11:31:18.866Z</time></trkpt><trkpt lat="45.8320141" lon="9.3525275"><ele>230.0</ele><time>2026-03-24T11:31:19.848Z</time></trkpt><trkpt lat="45.8318156" lon="9.3525792"><ele>230.33333333333334</ele><time>2026-03-24T11:31:20.846Z</time></trkpt><trkpt lat="45.8316104" lon="9.3525716"><ele>230.66666666666669</ele><time>2026-03-24T11:31:21.853Z</time></trkpt><trkpt lat="45.8314074" lon="9.3525174"><ele>231.0</ele><time>2026-03-24T11:31:22.846Z</time></trkpt><trkpt lat="45.8311861" lon="9.3524538"><ele>229.5</ele><time>2026-03-24T11:31:23.843Z</time></trkpt><trkpt lat="45.8309411" lon="9.3523833"><ele>228.0</ele><time>2026-03-24T11:31:24.855Z</time></trkpt><trkpt lat="45.8307143" lon="9.3523114"><ele>228.0</ele><time>2026-03-24T11:31:25.864Z</time></trkpt><trkpt lat="45.8304929" lon="9.3522497"><ele>228.0</ele><time>2026-03-24T11:31:26.867Z</time></trkpt><trkpt lat="45.8302844" lon="9.3521863"><ele>228.0</ele><time>2026-03-24T11:31:27.879Z</time></trkpt><trkpt lat="45.830079" lon="9.3521222"><ele>228.0</ele><time>2026-03-24T11:31:28.877Z</time></trkpt><trkpt lat="45.8298996" lon="9.3520925"><ele>228.0</ele><time>2026-03-24T11:31:29.855Z</time></trkpt><trkpt lat="45.8297283" lon="9.3520587"><ele>228.0</ele><time>2026-03-24T11:31:30.848Z</time></trkpt><trkpt lat="45.8295723" lon="9.3520111"><ele>228.0</ele><time>2026-03-24T11:31:31.85Z</time></trkpt><trkpt lat="45.8294066" lon="9.3519278"><ele>228.0</ele><time>2026-03-24T11:31:32.854Z</time></trkpt><trkpt lat="45.8292498" lon="9.3518814"><ele>228.0</ele><time>2026-03-24T11:31:33.86Z</time></trkpt><trkpt lat="45.8291095" lon="9.3518478"><ele>228.33333333333331</ele><time>2026-03-24T11:31:34.858Z</time></trkpt><trkpt lat="45.8289716" lon="9.3517782"><ele>228.66666666666666</ele><time>2026-03-24T11:31:35.864Z</time></trkpt><trkpt lat="45.8288118" lon="9.3517154"><ele>229.0</ele><time>2026-03-24T11:31:36.861Z</time></trkpt><trkpt lat="45.8286656" lon="9.3516454"><ele>229.0</ele><time>2026-03-24T11:31:37.862Z</time></trkpt><trkpt lat="45.8285069" lon="9.3515715"><ele>229.0</ele><time>2026-03-24T11:31:38.857Z</time></trkpt><trkpt lat="45.8283362" lon="9.3514678"><ele>229.0</ele><time>2026-03-24T11:31:39.857Z</time></trkpt><trkpt lat="45.8281866" lon="9.3513428"><ele>228.75</ele><time>2026-03-24T11:31:40.852Z</time></trkpt><trkpt lat="45.8280577" lon="9.3512443"><ele>228.5</ele><time>2026-03-24T11:31:41.848Z</time></trkpt><trkpt lat="45.8279412" lon="9.3511435"><ele>228.25</ele><time>2026-03-24T11:31:42.846Z</time></trkpt><trkpt lat="45.8278112" lon="9.3510357"><ele>228.0</ele><time>2026-03-24T11:31:43.84Z</time></trkpt><trkpt lat="45.8276843" lon="9.3509444"><ele>229.0</ele><time>2026-03-24T11:31:44.837Z</time></trkpt><trkpt lat="45.8275599" lon="9.3508614"><ele>230.0</ele><time>2026-03-24T11:31:45.838Z</time></trkpt><trkpt lat="45.8274849" lon="9.350822"><ele>231.0</ele><time>2026-03-24T11:31:46.836Z</time></trkpt><trkpt lat="45.8274093" lon="9.3507811"><ele>232.0</ele><time>2026-03-24T11:31:47.835Z</time></trkpt><trkpt lat="45.8273519" lon="9.3507209"><ele>233.0</ele><time>2026-03-24T11:31:48.821Z</time></trkpt><trkpt lat="45.8272411" lon="9.3506242"><ele>232.50000000000003</ele><time>2026-03-24T11:31:50.83Z</time></trkpt><trkpt lat="45.8271847" lon="9.3505233"><ele>232.0</ele><time>2026-03-24T11:31:51.844Z</time></trkpt><trkpt lat="45.8271476" lon="9.3504313"><ele>231.5</ele><time>2026-03-24T11:31:52.853Z</time></trkpt><trkpt lat="45.8271063" lon="9.3503505"><ele>231.0</ele><time>2026-03-24T11:31:53.847Z</time></trkpt><trkpt lat="45.8269994" lon="9.3502863"><ele>230.50000000000003</ele><time>2026-03-24T11:31:55.851Z</time></trkpt><trkpt lat="45.826913" lon="9.3502661"><ele>230.0</ele><time>2026-03-24T11:31:56.843Z</time></trkpt><trkpt lat="45.826801" lon="9.3502461"><ele>230.0</ele><time>2026-03-24T11:31:57.848Z</time></trkpt><trkpt lat="45.8266606" lon="9.3501945"><ele>230.0</ele><time>2026-03-24T11:31:58.834Z</time></trkpt><trkpt lat="45.8265235" lon="9.3501008"><ele>230.0</ele><time>2026-03-24T11:31:59.838Z</time></trkpt><trkpt lat="45.8263748" lon="9.3499943"><ele>230.0</ele><time>2026-03-24T11:32:00.825Z</time></trkpt><trkpt lat="45.8261893" lon="9.3498571"><ele>230.0</ele><time>2026-03-24T11:32:01.827Z</time></trkpt><trkpt lat="45.8259758" lon="9.3496906"><ele>228.66666666666669</ele><time>2026-03-24T11:32:02.846Z</time></trkpt><trkpt lat="45.825813" lon="9.3495228"><ele>227.33333333333331</ele><time>2026-03-24T11:32:03.837Z</time></trkpt><trkpt lat="45.825646" lon="9.3494043"><ele>226.0</ele><time>2026-03-24T11:32:04.846Z</time></trkpt><trkpt lat="45.8255201" lon="9.3492791"><ele>226.0</ele><time>2026-03-24T11:32:05.836Z</time></trkpt><trkpt lat="45.8254016" lon="9.3491119"><ele>226.0</ele><time>2026-03-24T11:32:06.821Z</time></trkpt><trkpt lat="45.8252404" lon="9.3489266"><ele>226.0</ele><time>2026-03-24T11:32:07.832Z</time></trkpt><trkpt lat="45.8250735" lon="9.3486775"><ele>226.33333333333331</ele><time>2026-03-24T11:32:08.816Z</time></trkpt><trkpt lat="45.8249483" lon="9.3484151"><ele>226.66666666666669</ele><time>2026-03-24T11:32:09.831Z</time></trkpt><trkpt lat="45.8248188" lon="9.3481544"><ele>227.0</ele><time>2026-03-24T11:32:10.832Z</time></trkpt><trkpt lat="45.8247115" lon="9.3479182"><ele>228.33333333333334</ele><time>2026-03-24T11:32:11.832Z</time></trkpt><trkpt lat="45.8246558" lon="9.3477186"><ele>229.66666666666669</ele><time>2026-03-24T11:32:12.82Z</time></trkpt><trkpt lat="45.8245663" lon="9.3474401"><ele>231.0</ele><time>2026-03-24T11:32:13.83Z</time></trkpt><trkpt lat="45.82451" lon="9.3471556"><ele>232.33333333333331</ele><time>2026-03-24T11:32:14.844Z</time></trkpt><trkpt lat="45.8244514" lon="9.3468996"><ele>233.66666666666666</ele><time>2026-03-24T11:32:15.84Z</time></trkpt><trkpt lat="45.824364" lon="9.34666"><ele>235.0</ele><time>2026-03-24T11:32:16.843Z</time></trkpt><trkpt lat="45.8243542" lon="9.3463458"><ele>235.0</ele><time>2026-03-24T11:32:17.832Z</time></trkpt><trkpt lat="45.824392" lon="9.3459415"><ele>235.0</ele><time>2026-03-24T11:32:18.838Z</time></trkpt><trkpt lat="45.8244524" lon="9.3455244"><ele>232.5</ele><time>2026-03-24T11:32:19.842Z</time></trkpt><trkpt lat="45.824498" lon="9.3451041"><ele>230.0</ele><time>2026-03-24T11:32:20.875Z</time></trkpt><trkpt lat="45.8245252" lon="9.3447005"><ele>229.5</ele><time>2026-03-24T11:32:21.85Z</time></trkpt><trkpt lat="45.8245377" lon="9.3443403"><ele>229.0</ele><time>2026-03-24T11:32:22.838Z</time></trkpt><trkpt lat="45.8245584" lon="9.3440124"><ele>232.5</ele><time>2026-03-24T11:32:23.841Z</time></trkpt><trkpt lat="45.8245665" lon="9.3436818"><ele>236.0</ele><time>2026-03-24T11:32:24.836Z</time></trkpt><trkpt lat="45.8245668" lon="9.3433632"><ele>236.0</ele><time>2026-03-24T11:32:25.84Z</time></trkpt><trkpt lat="45.8245712" lon="9.3430514"><ele>236.0</ele><time>2026-03-24T11:32:26.836Z</time></trkpt><trkpt lat="45.8245652" lon="9.342743"><ele>236.0</ele><time>2026-03-24T11:32:27.85Z</time></trkpt><trkpt lat="45.8245841" lon="9.3424629"><ele>238.33333333333334</ele><time>2026-03-24T11:32:28.847Z</time></trkpt><trkpt lat="45.824621" lon="9.3422175"><ele>240.66666666666669</ele><time>2026-03-24T11:32:29.84Z</time></trkpt><trkpt lat="45.82464" lon="9.3419654"><ele>243.0</ele><time>2026-03-24T11:32:30.84Z</time></trkpt><trkpt lat="45.8246427" lon="9.3416619"><ele>240.5</ele><time>2026-03-24T11:32:31.835Z</time></trkpt><trkpt lat="45.8246538" lon="9.3413382"><ele>238.0</ele><time>2026-03-24T11:32:32.839Z</time></trkpt><trkpt lat="45.8246449" lon="9.3409959"><ele>238.0</ele><time>2026-03-24T11:32:33.839Z</time></trkpt><trkpt lat="45.8246278" lon="9.3406203"><ele>238.0</ele><time>2026-03-24T11:32:34.843Z</time></trkpt><trkpt lat="45.824642" lon="9.3402774"><ele>237.33333333333331</ele><time>2026-03-24T11:32:35.846Z</time></trkpt><trkpt lat="45.8246702" lon="9.3399632"><ele>236.66666666666669</ele><time>2026-03-24T11:32:36.841Z</time></trkpt><trkpt lat="45.8246838" lon="9.3396639"><ele>236.0</ele><time>2026-03-24T11:32:37.846Z</time></trkpt><trkpt lat="45.8246906" lon="9.3393448"><ele>236.0</ele><time>2026-03-24T11:32:38.84Z</time></trkpt><trkpt lat="45.8247049" lon="9.3390313"><ele>236.0</ele><time>2026-03-24T11:32:39.838Z</time></trkpt><trkpt lat="45.8247175" lon="9.3387525"><ele>236.0</ele><time>2026-03-24T11:32:40.845Z</time></trkpt><trkpt lat="45.8246886" lon="9.3384703"><ele>236.66666666666669</ele><time>2026-03-24T11:32:41.841Z</time></trkpt><trkpt lat="45.8246777" lon="9.3381662"><ele>237.33333333333331</ele><time>2026-03-24T11:32:42.844Z</time></trkpt><trkpt lat="45.8246688" lon="9.3378552"><ele>238.0</ele><time>2026-03-24T11:32:43.846Z</time></trkpt><trkpt lat="45.8246528" lon="9.3375352"><ele>239.0</ele><time>2026-03-24T11:32:44.846Z</time></trkpt><trkpt lat="45.8246476" lon="9.3372374"><ele>240.0</ele><time>2026-03-24T11:32:45.845Z</time></trkpt><trkpt lat="45.8246295" lon="9.336942"><ele>241.0</ele><time>2026-03-24T11:32:46.85Z</time></trkpt><trkpt lat="45.8246012" lon="9.3366234"><ele>243.0</ele><time>2026-03-24T11:32:47.849Z</time></trkpt><trkpt lat="45.8245615" lon="9.3362999"><ele>245.0</ele><time>2026-03-24T11:32:48.845Z</time></trkpt><trkpt lat="45.8245461" lon="9.3359918"><ele>247.0</ele><time>2026-03-24T11:32:49.855Z</time></trkpt><trkpt lat="45.8245791" lon="9.3356613"><ele>247.0</ele><time>2026-03-24T11:32:50.849Z</time></trkpt><trkpt lat="45.8245956" lon="9.3353355"><ele>247.0</ele><time>2026-03-24T11:32:51.863Z</time></trkpt><trkpt lat="45.8245964" lon="9.3349959"><ele>247.0</ele><time>2026-03-24T11:32:52.849Z</time></trkpt><trkpt lat="45.8246016" lon="9.3346634"><ele>247.0</ele><time>2026-03-24T11:32:53.847Z</time></trkpt><trkpt lat="45.8245753" lon="9.3343485"><ele>247.0</ele><time>2026-03-24T11:32:54.844Z</time></trkpt><trkpt lat="45.8245665" lon="9.3340168"><ele>247.0</ele><time>2026-03-24T11:32:55.846Z</time></trkpt><trkpt lat="45.8245462" lon="9.3337243"><ele>247.0</ele><time>2026-03-24T11:32:56.848Z</time></trkpt><trkpt lat="45.8245398" lon="9.3334279"><ele>247.5</ele><time>2026-03-24T11:32:57.853Z</time></trkpt><trkpt lat="45.824515" lon="9.3330785"><ele>248.0</ele><time>2026-03-24T11:32:58.847Z</time></trkpt><trkpt lat="45.8244924" lon="9.3327364"><ele>249.0</ele><time>2026-03-24T11:32:59.846Z</time></trkpt><trkpt lat="45.8244776" lon="9.3324258"><ele>250.0</ele><time>2026-03-24T11:33:00.846Z</time></trkpt><trkpt lat="45.8244414" lon="9.3321121"><ele>251.0</ele><time>2026-03-24T11:33:01.851Z</time></trkpt><trkpt lat="45.8244163" lon="9.3317846"><ele>252.5</ele><time>2026-03-24T11:33:02.845Z</time></trkpt><trkpt lat="45.8243845" lon="9.3314342"><ele>254.0</ele><time>2026-03-24T11:33:03.847Z</time></trkpt><trkpt lat="45.8243673" lon="9.3310901"><ele>255.0</ele><time>2026-03-24T11:33:04.845Z</time></trkpt><trkpt lat="45.8243245" lon="9.3307415"><ele>256.0</ele><time>2026-03-24T11:33:05.845Z</time></trkpt><trkpt lat="45.824306" lon="9.3304068"><ele>246.0</ele><time>2026-03-24T11:33:06.853Z</time></trkpt><trkpt lat="45.8242688" lon="9.3300818"><ele>236.0</ele><time>2026-03-24T11:33:07.852Z</time></trkpt><trkpt lat="45.8242396" lon="9.3297234"><ele>236.0</ele><time>2026-03-24T11:33:08.85Z</time></trkpt><trkpt lat="45.8242078" lon="9.329368"><ele>236.0</ele><time>2026-03-24T11:33:09.845Z</time></trkpt><trkpt lat="45.8241767" lon="9.3290072"><ele>237.5</ele><time>2026-03-24T11:33:10.849Z</time></trkpt><trkpt lat="45.8241293" lon="9.3286798"><ele>239.0</ele><time>2026-03-24T11:33:11.843Z</time></trkpt><trkpt lat="45.8241073" lon="9.3283446"><ele>239.33333333333334</ele><time>2026-03-24T11:33:12.838Z</time></trkpt><trkpt lat="45.8240901" lon="9.3280298"><ele>239.66666666666669</ele><time>2026-03-24T11:33:13.844Z</time></trkpt><trkpt lat="45.824042" lon="9.3277371"><ele>240.0</ele><time>2026-03-24T11:33:14.847Z</time></trkpt><trkpt lat="45.8239921" lon="9.3274434"><ele>242.5</ele><time>2026-03-24T11:33:15.849Z</time></trkpt><trkpt lat="45.8239202" lon="9.3271297"><ele>245.0</ele><time>2026-03-24T11:33:16.844Z</time></trkpt><trkpt lat="45.8238457" lon="9.3268333"><ele>245.0</ele><time>2026-03-24T11:33:17.852Z</time></trkpt><trkpt lat="45.823747" lon="9.3265434"><ele>245.0</ele><time>2026-03-24T11:33:18.853Z</time></trkpt><trkpt lat="45.8236712" lon="9.3262384"><ele>244.33333333333334</ele><time>2026-03-24T11:33:19.856Z</time></trkpt><trkpt lat="45.8235808" lon="9.3259732"><ele>243.66666666666669</ele><time>2026-03-24T11:33:20.862Z</time></trkpt><trkpt lat="45.8234805" lon="9.3257009"><ele>243.0</ele><time>2026-03-24T11:33:21.866Z</time></trkpt><trkpt lat="45.8233512" lon="9.325463"><ele>237.33333333333331</ele><time>2026-03-24T11:33:22.894Z</time></trkpt><trkpt lat="45.8232069" lon="9.3252493"><ele>231.66666666666666</ele><time>2026-03-24T11:33:23.86Z</time></trkpt><trkpt lat="45.8230569" lon="9.3250361"><ele>226.0</ele><time>2026-03-24T11:33:24.848Z</time></trkpt><trkpt lat="45.8228974" lon="9.3248421"><ele>226.33333333333331</ele><time>2026-03-24T11:33:25.838Z</time></trkpt><trkpt lat="45.8227392" lon="9.3246456"><ele>226.66666666666669</ele><time>2026-03-24T11:33:26.839Z</time></trkpt><trkpt lat="45.8225576" lon="9.3244728"><ele>227.0</ele><time>2026-03-24T11:33:27.844Z</time></trkpt><trkpt lat="45.8223428" lon="9.3243133"><ele>226.0</ele><time>2026-03-24T11:33:28.834Z</time></trkpt><trkpt lat="45.8221429" lon="9.3241497"><ele>225.0</ele><time>2026-03-24T11:33:29.831Z</time></trkpt><trkpt lat="45.8219222" lon="9.3239846"><ele>226.0</ele><time>2026-03-24T11:33:30.827Z</time></trkpt><trkpt lat="45.8216815" lon="9.3238262"><ele>227.0</ele><time>2026-03-24T11:33:31.835Z</time></trkpt><trkpt lat="45.8214044" lon="9.3237306"><ele>227.0</ele><time>2026-03-24T11:33:32.836Z</time></trkpt><trkpt lat="45.8211768" lon="9.3235551"><ele>227.0</ele><time>2026-03-24T11:33:33.85Z</time></trkpt><trkpt lat="45.8209467" lon="9.3234421"><ele>226.5</ele><time>2026-03-24T11:33:34.848Z</time></trkpt><trkpt lat="45.8206594" lon="9.3233531"><ele>226.0</ele><time>2026-03-24T11:33:35.846Z</time></trkpt><trkpt lat="45.8204178" lon="9.3232345"><ele>226.0</ele><time>2026-03-24T11:33:36.834Z</time></trkpt><trkpt lat="45.8201942" lon="9.3231366"><ele>226.0</ele><time>2026-03-24T11:33:37.84Z</time></trkpt><trkpt lat="45.8199865" lon="9.3230138"><ele>229.0</ele><time>2026-03-24T11:33:38.845Z</time></trkpt><trkpt lat="45.8197662" lon="9.3229087"><ele>232.0</ele><time>2026-03-24T11:33:39.838Z</time></trkpt><trkpt lat="45.8195697" lon="9.3227553"><ele>232.0</ele><time>2026-03-24T11:33:40.851Z</time></trkpt><trkpt lat="45.8193707" lon="9.3226692"><ele>232.0</ele><time>2026-03-24T11:33:41.849Z</time></trkpt><trkpt lat="45.8191666" lon="9.3225791"><ele>232.0</ele><time>2026-03-24T11:33:42.849Z</time></trkpt><trkpt lat="45.8189621" lon="9.3224445"><ele>231.5</ele><time>2026-03-24T11:33:43.849Z</time></trkpt><trkpt lat="45.8187465" lon="9.3223254"><ele>231.0</ele><time>2026-03-24T11:33:44.853Z</time></trkpt><trkpt lat="45.8185354" lon="9.3222115"><ele>230.0</ele><time>2026-03-24T11:33:45.859Z</time></trkpt><trkpt lat="45.8183115" lon="9.322103"><ele>229.0</ele><time>2026-03-24T11:33:46.859Z</time></trkpt><trkpt lat="45.8181082" lon="9.3219959"><ele>229.0</ele><time>2026-03-24T11:33:47.861Z</time></trkpt><trkpt lat="45.8178842" lon="9.3218694"><ele>229.0</ele><time>2026-03-24T11:33:48.863Z</time></trkpt><trkpt lat="45.8176408" lon="9.321773"><ele>227.5</ele><time>2026-03-24T11:33:49.863Z</time></trkpt><trkpt lat="45.8174378" lon="9.3216709"><ele>226.0</ele><time>2026-03-24T11:33:50.871Z</time></trkpt><trkpt lat="45.8172176" lon="9.3215469"><ele>226.0</ele><time>2026-03-24T11:33:51.858Z</time></trkpt><trkpt lat="45.8169927" lon="9.3214151"><ele>226.0</ele><time>2026-03-24T11:33:52.884Z</time></trkpt><trkpt lat="45.8167377" lon="9.3212888"><ele>227.5</ele><time>2026-03-24T11:33:53.863Z</time></trkpt><trkpt lat="45.8165342" lon="9.3211688"><ele>229.0</ele><time>2026-03-24T11:33:54.859Z</time></trkpt><trkpt lat="45.8163047" lon="9.3210912"><ele>229.0</ele><time>2026-03-24T11:33:55.867Z</time></trkpt><trkpt lat="45.8160867" lon="9.3209772"><ele>229.0</ele><time>2026-03-24T11:33:56.863Z</time></trkpt><trkpt lat="45.8158951" lon="9.3208562"><ele>229.0</ele><time>2026-03-24T11:33:57.871Z</time></trkpt><trkpt lat="45.8156917" lon="9.3207409"><ele>229.0</ele><time>2026-03-24T11:33:58.858Z</time></trkpt><trkpt lat="45.8154816" lon="9.3206129"><ele>229.0</ele><time>2026-03-24T11:33:59.86Z</time></trkpt><trkpt lat="45.8153019" lon="9.3204992"><ele>229.0</ele><time>2026-03-24T11:34:00.861Z</time></trkpt><trkpt lat="45.8151076" lon="9.3203641"><ele>231.33333333333331</ele><time>2026-03-24T11:34:01.868Z</time></trkpt><trkpt lat="45.8149103" lon="9.3202453"><ele>233.66666666666669</ele><time>2026-03-24T11:34:02.859Z</time></trkpt><trkpt lat="45.8147052" lon="9.3201211"><ele>236.0</ele><time>2026-03-24T11:34:03.861Z</time></trkpt><trkpt lat="45.8144875" lon="9.3199325"><ele>238.5</ele><time>2026-03-24T11:34:04.847Z</time></trkpt><trkpt lat="45.8142197" lon="9.3197207"><ele>241.0</ele><time>2026-03-24T11:34:05.863Z</time></trkpt><trkpt lat="45.81397" lon="9.3195018"><ele>241.0</ele><time>2026-03-24T11:34:06.847Z</time></trkpt><trkpt lat="45.8137555" lon="9.319317"><ele>241.0</ele><time>2026-03-24T11:34:07.849Z</time></trkpt><trkpt lat="45.8134651" lon="9.3190727"><ele>244.5</ele><time>2026-03-24T11:34:08.853Z</time></trkpt><trkpt lat="45.813168" lon="9.3188457"><ele>248.0</ele><time>2026-03-24T11:34:09.867Z</time></trkpt><trkpt lat="45.8128818" lon="9.3186058"><ele>243.0</ele><time>2026-03-24T11:34:10.861Z</time></trkpt><trkpt lat="45.8125885" lon="9.3183574"><ele>238.0</ele><time>2026-03-24T11:34:11.854Z</time></trkpt><trkpt lat="45.8123407" lon="9.3181084"><ele>238.5</ele><time>2026-03-24T11:34:12.858Z</time></trkpt><trkpt lat="45.8120907" lon="9.3178636"><ele>239.0</ele><time>2026-03-24T11:34:13.846Z</time></trkpt><trkpt lat="45.8117854" lon="9.31764"><ele>239.0</ele><time>2026-03-24T11:34:14.839Z</time></trkpt><trkpt lat="45.8115663" lon="9.3174067"><ele>239.0</ele><time>2026-03-24T11:34:15.848Z</time></trkpt><trkpt lat="45.8113353" lon="9.3172058"><ele>240.5</ele><time>2026-03-24T11:34:16.836Z</time></trkpt><trkpt lat="45.8110988" lon="9.316993"><ele>242.0</ele><time>2026-03-24T11:34:17.839Z</time></trkpt><trkpt lat="45.8108672" lon="9.3167811"><ele>242.0</ele><time>2026-03-24T11:34:18.847Z</time></trkpt><trkpt lat="45.8106242" lon="9.3165862"><ele>242.0</ele><time>2026-03-24T11:34:19.846Z</time></trkpt><trkpt lat="45.8103706" lon="9.3163836"><ele>245.0</ele><time>2026-03-24T11:34:20.856Z</time></trkpt><trkpt lat="45.8101309" lon="9.3161775"><ele>248.0</ele><time>2026-03-24T11:34:21.847Z</time></trkpt><trkpt lat="45.8098491" lon="9.3159616"><ele>248.0</ele><time>2026-03-24T11:34:22.848Z</time></trkpt><trkpt lat="45.8096093" lon="9.3157217"><ele>248.0</ele><time>2026-03-24T11:34:23.874Z</time></trkpt><trkpt lat="45.8093407" lon="9.3155023"><ele>254.0</ele><time>2026-03-24T11:34:24.857Z</time></trkpt><trkpt lat="45.8090686" lon="9.3152741"><ele>260.0</ele><time>2026-03-24T11:34:25.858Z</time></trkpt><trkpt lat="45.8088175" lon="9.315056"><ele>260.0</ele><time>2026-03-24T11:34:26.863Z</time></trkpt><trkpt lat="45.8085554" lon="9.3148302"><ele>260.0</ele><time>2026-03-24T11:34:27.878Z</time></trkpt><trkpt lat="45.8083246" lon="9.31461"><ele>262.0</ele><time>2026-03-24T11:34:28.849Z</time></trkpt><trkpt lat="45.8080914" lon="9.3144004"><ele>264.0</ele><time>2026-03-24T11:34:29.852Z</time></trkpt><trkpt lat="45.8078739" lon="9.3142197"><ele>264.0</ele><time>2026-03-24T11:34:30.852Z</time></trkpt><trkpt lat="45.8076734" lon="9.3140175"><ele>264.0</ele><time>2026-03-24T11:34:31.849Z</time></trkpt><trkpt lat="45.8074648" lon="9.31383"><ele>264.0</ele><time>2026-03-24T11:34:32.852Z</time></trkpt><trkpt lat="45.8072245" lon="9.3136251"><ele>264.0</ele><time>2026-03-24T11:34:33.848Z</time></trkpt><trkpt lat="45.8069719" lon="9.3134047"><ele>264.0</ele><time>2026-03-24T11:34:34.852Z</time></trkpt><trkpt lat="45.8067385" lon="9.3131909"><ele>264.0</ele><time>2026-03-24T11:34:35.852Z</time></trkpt><trkpt lat="45.8065205" lon="9.3129942"><ele>263.5</ele><time>2026-03-24T11:34:36.847Z</time></trkpt><trkpt lat="45.8062911" lon="9.3127589"><ele>263.0</ele><time>2026-03-24T11:34:37.85Z</time></trkpt><trkpt lat="45.8060638" lon="9.3125291"><ele>262.5</ele><time>2026-03-24T11:34:38.851Z</time></trkpt><trkpt lat="45.8058367" lon="9.3123226"><ele>262.0</ele><time>2026-03-24T11:34:39.846Z</time></trkpt><trkpt lat="45.8056094" lon="9.312101"><ele>263.5</ele><time>2026-03-24T11:34:40.84Z</time></trkpt><trkpt lat="45.8053983" lon="9.311882"><ele>265.0</ele><time>2026-03-24T11:34:41.848Z</time></trkpt><trkpt lat="45.8051536" lon="9.3116793"><ele>265.5</ele><time>2026-03-24T11:34:42.839Z</time></trkpt><trkpt lat="45.8048948" lon="9.3114619"><ele>266.0</ele><time>2026-03-24T11:34:43.844Z</time></trkpt><trkpt lat="45.8046215" lon="9.311236"><ele>266.0</ele><time>2026-03-24T11:34:44.851Z</time></trkpt><trkpt lat="45.8043414" lon="9.3109818"><ele>266.0</ele><time>2026-03-24T11:34:45.845Z</time></trkpt><trkpt lat="45.8040771" lon="9.3107346"><ele>266.5</ele><time>2026-03-24T11:34:46.861Z</time></trkpt><trkpt lat="45.8038229" lon="9.3104715"><ele>267.0</ele><time>2026-03-24T11:34:47.857Z</time></trkpt><trkpt lat="45.8035955" lon="9.3102166"><ele>266.0</ele><time>2026-03-24T11:34:48.847Z</time></trkpt><trkpt lat="45.8033517" lon="9.309977"><ele>265.0</ele><time>2026-03-24T11:34:49.858Z</time></trkpt><trkpt lat="45.8030933" lon="9.3097498"><ele>264.5</ele><time>2026-03-24T11:34:50.859Z</time></trkpt><trkpt lat="45.8028688" lon="9.3095184"><ele>264.0</ele><time>2026-03-24T11:34:51.858Z</time></trkpt><trkpt lat="45.8026431" lon="9.3092984"><ele>264.0</ele><time>2026-03-24T11:34:52.86Z</time></trkpt><trkpt lat="45.8024344" lon="9.3090677"><ele>264.0</ele><time>2026-03-24T11:34:53.851Z</time></trkpt><trkpt lat="45.8022241" lon="9.3088557"><ele>264.5</ele><time>2026-03-24T11:34:54.864Z</time></trkpt><trkpt lat="45.8019815" lon="9.3086532"><ele>265.0</ele><time>2026-03-24T11:34:55.847Z</time></trkpt><trkpt lat="45.8017931" lon="9.308453"><ele>264.0</ele><time>2026-03-24T11:34:56.835Z</time></trkpt><trkpt lat="45.8015944" lon="9.3082537"><ele>263.0</ele><time>2026-03-24T11:34:57.853Z</time></trkpt><trkpt lat="45.8013764" lon="9.3080569"><ele>263.0</ele><time>2026-03-24T11:34:58.843Z</time></trkpt><trkpt lat="45.8011469" lon="9.3078313"><ele>263.0</ele><time>2026-03-24T11:34:59.851Z</time></trkpt><trkpt lat="45.8009001" lon="9.3076311"><ele>263.0</ele><time>2026-03-24T11:35:00.853Z</time></trkpt><trkpt lat="45.8006844" lon="9.3074016"><ele>263.0</ele><time>2026-03-24T11:35:01.851Z</time></trkpt><trkpt lat="45.8004625" lon="9.3071884"><ele>262.5</ele><time>2026-03-24T11:35:02.85Z</time></trkpt><trkpt lat="45.800228" lon="9.3069882"><ele>262.0</ele><time>2026-03-24T11:35:03.856Z</time></trkpt><trkpt lat="45.7999868" lon="9.3067925"><ele>262.5</ele><time>2026-03-24T11:35:04.847Z</time></trkpt><trkpt lat="45.7997855" lon="9.3065424"><ele>263.0</ele><time>2026-03-24T11:35:05.846Z</time></trkpt><trkpt lat="45.7995788" lon="9.3063336"><ele>263.0</ele><time>2026-03-24T11:35:06.853Z</time></trkpt><trkpt lat="45.7993814" lon="9.3061473"><ele>263.0</ele><time>2026-03-24T11:35:07.851Z</time></trkpt><trkpt lat="45.7991555" lon="9.3059566"><ele>263.5</ele><time>2026-03-24T11:35:08.86Z</time></trkpt><trkpt lat="45.798919" lon="9.3057397"><ele>264.0</ele><time>2026-03-24T11:35:09.853Z</time></trkpt><trkpt lat="45.7986912" lon="9.3054989"><ele>264.0</ele><time>2026-03-24T11:35:10.858Z</time></trkpt><trkpt lat="45.7984555" lon="9.3052846"><ele>264.0</ele><time>2026-03-24T11:35:11.856Z</time></trkpt><trkpt lat="45.7982273" lon="9.3050282"><ele>264.0</ele><time>2026-03-24T11:35:12.847Z</time></trkpt><trkpt lat="45.7979854" lon="9.3047981"><ele>264.0</ele><time>2026-03-24T11:35:13.855Z</time></trkpt><trkpt lat="45.7977383" lon="9.3045496"><ele>265.5</ele><time>2026-03-24T11:35:14.855Z</time></trkpt><trkpt lat="45.7974828" lon="9.3043205"><ele>267.0</ele><time>2026-03-24T11:35:15.854Z</time></trkpt><trkpt lat="45.7972364" lon="9.3040842"><ele>268.0</ele><time>2026-03-24T11:35:16.857Z</time></trkpt><trkpt lat="45.796983" lon="9.3038614"><ele>269.0</ele><time>2026-03-24T11:35:17.856Z</time></trkpt><trkpt lat="45.7967318" lon="9.3036319"><ele>269.0</ele><time>2026-03-24T11:35:18.852Z</time></trkpt><trkpt lat="45.7964944" lon="9.3034109"><ele>269.0</ele><time>2026-03-24T11:35:19.857Z</time></trkpt><trkpt lat="45.7962605" lon="9.3032009"><ele>271.5</ele><time>2026-03-24T11:35:20.856Z</time></trkpt><trkpt lat="45.7960048" lon="9.3029898"><ele>274.0</ele><time>2026-03-24T11:35:21.853Z</time></trkpt><trkpt lat="45.7957581" lon="9.3027759"><ele>274.5</ele><time>2026-03-24T11:35:22.85Z</time></trkpt><trkpt lat="45.7955202" lon="9.3025257"><ele>275.0</ele><time>2026-03-24T11:35:23.85Z</time></trkpt><trkpt lat="45.7952797" lon="9.3022857"><ele>275.0</ele><time>2026-03-24T11:35:24.855Z</time></trkpt><trkpt lat="45.7950382" lon="9.3020431"><ele>275.0</ele><time>2026-03-24T11:35:25.866Z</time></trkpt><trkpt lat="45.7947579" lon="9.3018301"><ele>275.0</ele><time>2026-03-24T11:35:26.855Z</time></trkpt><trkpt lat="45.7945404" lon="9.3015877"><ele>275.0</ele><time>2026-03-24T11:35:27.859Z</time></trkpt><trkpt lat="45.7942886" lon="9.301362"><ele>275.5</ele><time>2026-03-24T11:35:28.861Z</time></trkpt><trkpt lat="45.7940291" lon="9.3011319"><ele>276.0</ele><time>2026-03-24T11:35:29.859Z</time></trkpt><trkpt lat="45.7938035" lon="9.3009251"><ele>276.0</ele><time>2026-03-24T11:35:30.86Z</time></trkpt><trkpt lat="45.7935763" lon="9.300703"><ele>276.0</ele><time>2026-03-24T11:35:31.852Z</time></trkpt><trkpt lat="45.7933298" lon="9.3004843"><ele>276.0</ele><time>2026-03-24T11:35:32.848Z</time></trkpt><trkpt lat="45.7931157" lon="9.3002486"><ele>276.0</ele><time>2026-03-24T11:35:33.855Z</time></trkpt><trkpt lat="45.7928719" lon="9.3000505"><ele>275.0</ele><time>2026-03-24T11:35:34.846Z</time></trkpt><trkpt lat="45.7926383" lon="9.2998637"><ele>274.0</ele><time>2026-03-24T11:35:35.841Z</time></trkpt><trkpt lat="45.7923867" lon="9.2997259"><ele>274.0</ele><time>2026-03-24T11:35:36.849Z</time></trkpt><trkpt lat="45.7921298" lon="9.2995422"><ele>274.0</ele><time>2026-03-24T11:35:37.845Z</time></trkpt><trkpt lat="45.7918741" lon="9.2993608"><ele>272.0</ele><time>2026-03-24T11:35:38.844Z</time></trkpt><trkpt lat="45.7916686" lon="9.2992317"><ele>270.0</ele><time>2026-03-24T11:35:39.85Z</time></trkpt><trkpt lat="45.7914395" lon="9.2990631"><ele>271.5</ele><time>2026-03-24T11:35:40.846Z</time></trkpt><trkpt lat="45.7911862" lon="9.2988967"><ele>273.0</ele><time>2026-03-24T11:35:41.844Z</time></trkpt><trkpt lat="45.7909261" lon="9.2987435"><ele>273.0</ele><time>2026-03-24T11:35:42.851Z</time></trkpt><trkpt lat="45.7906909" lon="9.2985872"><ele>273.0</ele><time>2026-03-24T11:35:43.857Z</time></trkpt><trkpt lat="45.7904497" lon="9.2984221"><ele>273.0</ele><time>2026-03-24T11:35:44.854Z</time></trkpt><trkpt lat="45.7902005" lon="9.2982558"><ele>273.0</ele><time>2026-03-24T11:35:45.853Z</time></trkpt><trkpt lat="45.7899493" lon="9.2980977"><ele>274.5</ele><time>2026-03-24T11:35:46.857Z</time></trkpt><trkpt lat="45.7896638" lon="9.2979353"><ele>276.0</ele><time>2026-03-24T11:35:47.853Z</time></trkpt><trkpt lat="45.7894088" lon="9.2977438"><ele>274.0</ele><time>2026-03-24T11:35:48.853Z</time></trkpt><trkpt lat="45.7891225" lon="9.2975791"><ele>272.0</ele><time>2026-03-24T11:35:49.855Z</time></trkpt><trkpt lat="45.7888364" lon="9.2974092"><ele>272.0</ele><time>2026-03-24T11:35:50.863Z</time></trkpt><trkpt lat="45.7885644" lon="9.2972161"><ele>272.0</ele><time>2026-03-24T11:35:51.852Z</time></trkpt><trkpt lat="45.7882687" lon="9.2970218"><ele>272.0</ele><time>2026-03-24T11:35:52.865Z</time></trkpt><trkpt lat="45.7880059" lon="9.2968149"><ele>272.0</ele><time>2026-03-24T11:35:53.857Z</time></trkpt><trkpt lat="45.7877023" lon="9.2966035"><ele>269.5</ele><time>2026-03-24T11:35:54.869Z</time></trkpt><trkpt lat="45.7874177" lon="9.2963914"><ele>267.0</ele><time>2026-03-24T11:35:55.868Z</time></trkpt><trkpt lat="45.7871259" lon="9.2961897"><ele>266.5</ele><time>2026-03-24T11:35:56.869Z</time></trkpt><trkpt lat="45.78684" lon="9.2960072"><ele>266.0</ele><time>2026-03-24T11:35:57.868Z</time></trkpt><trkpt lat="45.7865682" lon="9.2958216"><ele>266.0</ele><time>2026-03-24T11:35:58.857Z</time></trkpt><trkpt lat="45.7862866" lon="9.295651"><ele>266.0</ele><time>2026-03-24T11:35:59.851Z</time></trkpt><trkpt lat="45.7860283" lon="9.2954858"><ele>265.5</ele><time>2026-03-24T11:36:00.867Z</time></trkpt><trkpt lat="45.7857518" lon="9.2953208"><ele>265.0</ele><time>2026-03-24T11:36:01.856Z</time></trkpt><trkpt lat="45.785515" lon="9.2951432"><ele>265.0</ele><time>2026-03-24T11:36:02.851Z</time></trkpt><trkpt lat="45.785254" lon="9.2949803"><ele>265.0</ele><time>2026-03-24T11:36:03.858Z</time></trkpt><trkpt lat="45.7849927" lon="9.2948402"><ele>267.5</ele><time>2026-03-24T11:36:04.861Z</time></trkpt><trkpt lat="45.7847598" lon="9.294677"><ele>270.0</ele><time>2026-03-24T11:36:05.856Z</time></trkpt><trkpt lat="45.7844893" lon="9.2945023"><ele>270.5</ele><time>2026-03-24T11:36:06.85Z</time></trkpt><trkpt lat="45.7842392" lon="9.294336"><ele>271.0</ele><time>2026-03-24T11:36:07.856Z</time></trkpt><trkpt lat="45.7840026" lon="9.2941264"><ele>272.0</ele><time>2026-03-24T11:36:08.847Z</time></trkpt><trkpt lat="45.7837426" lon="9.2939174"><ele>273.0</ele><time>2026-03-24T11:36:09.858Z</time></trkpt><trkpt lat="45.7834862" lon="9.2937583"><ele>273.0</ele><time>2026-03-24T11:36:10.855Z</time></trkpt><trkpt lat="45.7832281" lon="9.293584"><ele>273.0</ele><time>2026-03-24T11:36:11.852Z</time></trkpt><trkpt lat="45.7829789" lon="9.293418"><ele>273.0</ele><time>2026-03-24T11:36:12.85Z</time></trkpt><trkpt lat="45.7827104" lon="9.2932471"><ele>273.0</ele><time>2026-03-24T11:36:13.846Z</time></trkpt><trkpt lat="45.7824644" lon="9.2930934"><ele>271.5</ele><time>2026-03-24T11:36:14.846Z</time></trkpt><trkpt lat="45.7822192" lon="9.2929372"><ele>270.0</ele><time>2026-03-24T11:36:15.847Z</time></trkpt><trkpt lat="45.7820189" lon="9.2927886"><ele>269.5</ele><time>2026-03-24T11:36:16.851Z</time></trkpt><trkpt lat="45.7817991" lon="9.2926548"><ele>269.0</ele><time>2026-03-24T11:36:17.843Z</time></trkpt><trkpt lat="45.7815752" lon="9.2924954"><ele>269.0</ele><time>2026-03-24T11:36:18.854Z</time></trkpt><trkpt lat="45.7813468" lon="9.2923581"><ele>269.0</ele><time>2026-03-24T11:36:19.86Z</time></trkpt><trkpt lat="45.7811403" lon="9.2922303"><ele>267.0</ele><time>2026-03-24T11:36:20.856Z</time></trkpt><trkpt lat="45.7809405" lon="9.2920846"><ele>265.0</ele><time>2026-03-24T11:36:21.858Z</time></trkpt><trkpt lat="45.7807159" lon="9.291912"><ele>265.0</ele><time>2026-03-24T11:36:22.852Z</time></trkpt><trkpt lat="45.7804633" lon="9.2917542"><ele>265.0</ele><time>2026-03-24T11:36:23.843Z</time></trkpt><trkpt lat="45.7802053" lon="9.2916216"><ele>264.0</ele><time>2026-03-24T11:36:24.838Z</time></trkpt><trkpt lat="45.779971" lon="9.2914663"><ele>263.0</ele><time>2026-03-24T11:36:25.851Z</time></trkpt><trkpt lat="45.7797152" lon="9.291266"><ele>263.0</ele><time>2026-03-24T11:36:26.853Z</time></trkpt><trkpt lat="45.779463" lon="9.2911233"><ele>263.0</ele><time>2026-03-24T11:36:27.892Z</time></trkpt><trkpt lat="45.7792346" lon="9.2909452"><ele>263.0</ele><time>2026-03-24T11:36:28.862Z</time></trkpt><trkpt lat="45.7789815" lon="9.2907733"><ele>263.0</ele><time>2026-03-24T11:36:29.859Z</time></trkpt><trkpt lat="45.77871" lon="9.2905703"><ele>263.5</ele><time>2026-03-24T11:36:30.857Z</time></trkpt><trkpt lat="45.7784428" lon="9.2904109"><ele>264.0</ele><time>2026-03-24T11:36:31.861Z</time></trkpt><trkpt lat="45.7781937" lon="9.2902477"><ele>264.0</ele><time>2026-03-24T11:36:32.864Z</time></trkpt><trkpt lat="45.7779401" lon="9.2900715"><ele>264.0</ele><time>2026-03-24T11:36:33.874Z</time></trkpt><trkpt lat="45.7776584" lon="9.2898979"><ele>264.0</ele><time>2026-03-24T11:36:34.859Z</time></trkpt><trkpt lat="45.7774115" lon="9.2897145"><ele>264.0</ele><time>2026-03-24T11:36:35.866Z</time></trkpt><trkpt lat="45.7771473" lon="9.2895366"><ele>264.0</ele><time>2026-03-24T11:36:36.868Z</time></trkpt><trkpt lat="45.7768605" lon="9.2893374"><ele>264.0</ele><time>2026-03-24T11:36:37.866Z</time></trkpt><trkpt lat="45.7765831" lon="9.2891541"><ele>264.0</ele><time>2026-03-24T11:36:38.872Z</time></trkpt><trkpt lat="45.7763454" lon="9.2889843"><ele>264.0</ele><time>2026-03-24T11:36:39.86Z</time></trkpt><trkpt lat="45.7761011" lon="9.2888529"><ele>264.5</ele><time>2026-03-24T11:36:40.866Z</time></trkpt><trkpt lat="45.7758287" lon="9.2887202"><ele>265.0</ele><time>2026-03-24T11:36:41.862Z</time></trkpt><trkpt lat="45.7755609" lon="9.288611"><ele>265.0</ele><time>2026-03-24T11:36:42.851Z</time></trkpt><trkpt lat="45.7753059" lon="9.2885088"><ele>265.0</ele><time>2026-03-24T11:36:43.855Z</time></trkpt><trkpt lat="45.775036" lon="9.2884586"><ele>266.0</ele><time>2026-03-24T11:36:44.856Z</time></trkpt><trkpt lat="45.7747584" lon="9.2883994"><ele>267.0</ele><time>2026-03-24T11:36:45.865Z</time></trkpt><trkpt lat="45.7744674" lon="9.2883519"><ele>267.0</ele><time>2026-03-24T11:36:46.859Z</time></trkpt><trkpt lat="45.7741762" lon="9.288324"><ele>267.0</ele><time>2026-03-24T11:36:47.855Z</time></trkpt><trkpt lat="45.7738781" lon="9.2882879"><ele>267.0</ele><time>2026-03-24T11:36:48.852Z</time></trkpt><trkpt lat="45.7736058" lon="9.2882976"><ele>267.0</ele><time>2026-03-24T11:36:49.864Z</time></trkpt><trkpt lat="45.7733199" lon="9.2882936"><ele>267.0</ele><time>2026-03-24T11:36:50.867Z</time></trkpt><trkpt lat="45.7730269" lon="9.2883071"><ele>267.0</ele><time>2026-03-24T11:36:51.871Z</time></trkpt><trkpt lat="45.7727401" lon="9.288271"><ele>267.0</ele><time>2026-03-24T11:36:52.859Z</time></trkpt><trkpt lat="45.7723947" lon="9.2882256"><ele>267.0</ele><time>2026-03-24T11:36:53.855Z</time></trkpt><trkpt lat="45.7720651" lon="9.2882613"><ele>268.0</ele><time>2026-03-24T11:36:54.858Z</time></trkpt><trkpt lat="45.7716813" lon="9.2882663"><ele>269.0</ele><time>2026-03-24T11:36:55.866Z</time></trkpt><trkpt lat="45.7713501" lon="9.2882365"><ele>269.0</ele><time>2026-03-24T11:36:56.864Z</time></trkpt><trkpt lat="45.7710425" lon="9.2881906"><ele>269.0</ele><time>2026-03-24T11:36:57.871Z</time></trkpt><trkpt lat="45.7707413" lon="9.2881917"><ele>269.5</ele><time>2026-03-24T11:36:58.879Z</time></trkpt><trkpt lat="45.7704466" lon="9.2881614"><ele>270.0</ele><time>2026-03-24T11:36:59.859Z</time></trkpt><trkpt lat="45.7701798" lon="9.2881664"><ele>270.5</ele><time>2026-03-24T11:37:00.856Z</time></trkpt><trkpt lat="45.7699017" lon="9.2881219"><ele>271.0</ele><time>2026-03-24T11:37:01.86Z</time></trkpt><trkpt lat="45.7696286" lon="9.2880831"><ele>272.5</ele><time>2026-03-24T11:37:02.861Z</time></trkpt><trkpt lat="45.7693546" lon="9.2880532"><ele>274.0</ele><time>2026-03-24T11:37:03.86Z</time></trkpt><trkpt lat="45.7690913" lon="9.2880434"><ele>274.0</ele><time>2026-03-24T11:37:04.85Z</time></trkpt><trkpt lat="45.7688616" lon="9.2880425"><ele>274.0</ele><time>2026-03-24T11:37:05.846Z</time></trkpt><trkpt lat="45.7686468" lon="9.2879921"><ele>274.0</ele><time>2026-03-24T11:37:06.853Z</time></trkpt><trkpt lat="45.7684185" lon="9.2879674"><ele>275.3333333333333</ele><time>2026-03-24T11:37:07.848Z</time></trkpt><trkpt lat="45.7682163" lon="9.2879503"><ele>276.6666666666667</ele><time>2026-03-24T11:37:08.854Z</time></trkpt><trkpt lat="45.768013" lon="9.2879403"><ele>278.0</ele><time>2026-03-24T11:37:09.858Z</time></trkpt><trkpt lat="45.7678089" lon="9.2879075"><ele>279.0</ele><time>2026-03-24T11:37:10.861Z</time></trkpt><trkpt lat="45.7675977" lon="9.2879373"><ele>280.0</ele><time>2026-03-24T11:37:11.859Z</time></trkpt><trkpt lat="45.7673988" lon="9.2879365"><ele>281.0</ele><time>2026-03-24T11:37:12.861Z</time></trkpt><trkpt lat="45.7671956" lon="9.2879307"><ele>281.0</ele><time>2026-03-24T11:37:13.864Z</time></trkpt><trkpt lat="45.7669922" lon="9.2879215"><ele>281.0</ele><time>2026-03-24T11:37:14.865Z</time></trkpt><trkpt lat="45.7667791" lon="9.2878879"><ele>281.0</ele><time>2026-03-24T11:37:15.862Z</time></trkpt><trkpt lat="45.7665579" lon="9.2878677"><ele>285.5</ele><time>2026-03-24T11:37:16.861Z</time></trkpt><trkpt lat="45.766339" lon="9.2878468"><ele>290.0</ele><time>2026-03-24T11:37:17.862Z</time></trkpt><trkpt lat="45.7661056" lon="9.2878555"><ele>291.0</ele><time>2026-03-24T11:37:18.866Z</time></trkpt><trkpt lat="45.7658917" lon="9.2878232"><ele>292.0</ele><time>2026-03-24T11:37:19.863Z</time></trkpt><trkpt lat="45.7656456" lon="9.2878064"><ele>292.0</ele><time>2026-03-24T11:37:20.862Z</time></trkpt><trkpt lat="45.7654265" lon="9.2877741"><ele>292.0</ele><time>2026-03-24T11:37:21.871Z</time></trkpt><trkpt lat="45.7652125" lon="9.2877251"><ele>292.0</ele><time>2026-03-24T11:37:22.865Z</time></trkpt><trkpt lat="45.7649922" lon="9.2876819"><ele>292.0</ele><time>2026-03-24T11:37:23.865Z</time></trkpt><trkpt lat="45.7647786" lon="9.2876477"><ele>292.0</ele><time>2026-03-24T11:37:24.868Z</time></trkpt><trkpt lat="45.7645494" lon="9.2875836"><ele>292.0</ele><time>2026-03-24T11:37:25.864Z</time></trkpt><trkpt lat="45.7643457" lon="9.2875028"><ele>293.0</ele><time>2026-03-24T11:37:26.859Z</time></trkpt><trkpt lat="45.7641458" lon="9.2874274"><ele>294.0</ele><time>2026-03-24T11:37:27.888Z</time></trkpt><trkpt lat="45.7639584" lon="9.2872906"><ele>295.0</ele><time>2026-03-24T11:37:28.859Z</time></trkpt><trkpt lat="45.7637531" lon="9.2871606"><ele>295.0</ele><time>2026-03-24T11:37:29.883Z</time></trkpt><trkpt lat="45.7635461" lon="9.2869832"><ele>295.0</ele><time>2026-03-24T11:37:30.859Z</time></trkpt><trkpt lat="45.7633664" lon="9.2868179"><ele>295.0</ele><time>2026-03-24T11:37:31.863Z</time></trkpt><trkpt lat="45.7631683" lon="9.2866364"><ele>295.0</ele><time>2026-03-24T11:37:32.854Z</time></trkpt><trkpt lat="45.7629818" lon="9.2864497"><ele>293.5</ele><time>2026-03-24T11:37:33.859Z</time></trkpt><trkpt lat="45.7627988" lon="9.2862324"><ele>292.0</ele><time>2026-03-24T11:37:34.858Z</time></trkpt><trkpt lat="45.7626418" lon="9.2859797"><ele>293.0</ele><time>2026-03-24T11:37:35.844Z</time></trkpt><trkpt lat="45.7624806" lon="9.2857614"><ele>294.0</ele><time>2026-03-24T11:37:36.842Z</time></trkpt><trkpt lat="45.7623347" lon="9.2854913"><ele>294.0</ele><time>2026-03-24T11:37:37.847Z</time></trkpt><trkpt lat="45.7622015" lon="9.2852442"><ele>294.0</ele><time>2026-03-24T11:37:38.845Z</time></trkpt><trkpt lat="45.7620317" lon="9.2849914"><ele>293.5</ele><time>2026-03-24T11:37:39.841Z</time></trkpt><trkpt lat="45.7619163" lon="9.2847499"><ele>293.0</ele><time>2026-03-24T11:37:40.85Z</time></trkpt><trkpt lat="45.7617978" lon="9.2844127"><ele>295.5</ele><time>2026-03-24T11:37:41.839Z</time></trkpt><trkpt lat="45.761673" lon="9.2841215"><ele>298.0</ele><time>2026-03-24T11:37:42.838Z</time></trkpt><trkpt lat="45.7615427" lon="9.2838011"><ele>298.0</ele><time>2026-03-24T11:37:43.841Z</time></trkpt><trkpt lat="45.76142" lon="9.2834927"><ele>298.0</ele><time>2026-03-24T11:37:44.836Z</time></trkpt><trkpt lat="45.7612741" lon="9.2831533"><ele>299.5</ele><time>2026-03-24T11:37:45.838Z</time></trkpt><trkpt lat="45.7611589" lon="9.2828663"><ele>301.0</ele><time>2026-03-24T11:37:46.838Z</time></trkpt><trkpt lat="45.7610286" lon="9.2825754"><ele>301.5</ele><time>2026-03-24T11:37:47.831Z</time></trkpt><trkpt lat="45.7609026" lon="9.2822487"><ele>302.0</ele><time>2026-03-24T11:37:48.832Z</time></trkpt><trkpt lat="45.7607694" lon="9.2819103"><ele>302.0</ele><time>2026-03-24T11:37:49.833Z</time></trkpt><trkpt lat="45.760621" lon="9.2816037"><ele>302.0</ele><time>2026-03-24T11:37:50.845Z</time></trkpt><trkpt lat="45.760485" lon="9.2812964"><ele>299.0</ele><time>2026-03-24T11:37:51.842Z</time></trkpt><trkpt lat="45.7603567" lon="9.2810268"><ele>296.0</ele><time>2026-03-24T11:37:52.85Z</time></trkpt><trkpt lat="45.7602434" lon="9.280737"><ele>295.5</ele><time>2026-03-24T11:37:53.85Z</time></trkpt><trkpt lat="45.7601127" lon="9.2804471"><ele>295.0</ele><time>2026-03-24T11:37:54.853Z</time></trkpt><trkpt lat="45.7600008" lon="9.2801283"><ele>295.0</ele><time>2026-03-24T11:37:55.854Z</time></trkpt><trkpt lat="45.7598846" lon="9.2798238"><ele>295.0</ele><time>2026-03-24T11:37:56.864Z</time></trkpt><trkpt lat="45.7597719" lon="9.2795337"><ele>294.0</ele><time>2026-03-24T11:37:57.871Z</time></trkpt><trkpt lat="45.7596225" lon="9.2792064"><ele>293.0</ele><time>2026-03-24T11:37:58.867Z</time></trkpt><trkpt lat="45.7594899" lon="9.2788942"><ele>292.5</ele><time>2026-03-24T11:37:59.856Z</time></trkpt><trkpt lat="45.7593661" lon="9.2786208"><ele>292.0</ele><time>2026-03-24T11:38:00.895Z</time></trkpt><trkpt lat="45.7592243" lon="9.2783259"><ele>291.0</ele><time>2026-03-24T11:38:01.868Z</time></trkpt><trkpt lat="45.7590921" lon="9.2780276"><ele>290.0</ele><time>2026-03-24T11:38:02.865Z</time></trkpt><trkpt lat="45.7589817" lon="9.2777434"><ele>290.0</ele><time>2026-03-24T11:38:03.859Z</time></trkpt><trkpt lat="45.7588783" lon="9.2774442"><ele>290.0</ele><time>2026-03-24T11:38:04.856Z</time></trkpt><trkpt lat="45.7587475" lon="9.2771346"><ele>290.5</ele><time>2026-03-24T11:38:05.856Z</time></trkpt><trkpt lat="45.7586219" lon="9.276858"><ele>291.0</ele><time>2026-03-24T11:38:06.843Z</time></trkpt><trkpt lat="45.7584917" lon="9.2765787"><ele>288.5</ele><time>2026-03-24T11:38:07.842Z</time></trkpt><trkpt lat="45.7583609" lon="9.2763286"><ele>286.0</ele><time>2026-03-24T11:38:08.842Z</time></trkpt><trkpt lat="45.7582008" lon="9.2760681"><ele>286.0</ele><time>2026-03-24T11:38:09.86Z</time></trkpt><trkpt lat="45.7579815" lon="9.2757739"><ele>286.0</ele><time>2026-03-24T11:38:10.853Z</time></trkpt><trkpt lat="45.757812" lon="9.2755044"><ele>284.0</ele><time>2026-03-24T11:38:11.859Z</time></trkpt><trkpt lat="45.7576371" lon="9.2752511"><ele>282.0</ele><time>2026-03-24T11:38:12.86Z</time></trkpt><trkpt lat="45.757469" lon="9.2749655"><ele>281.0</ele><time>2026-03-24T11:38:13.853Z</time></trkpt><trkpt lat="45.7572753" lon="9.2746686"><ele>280.0</ele><time>2026-03-24T11:38:14.846Z</time></trkpt><trkpt lat="45.7571052" lon="9.2743474"><ele>280.0</ele><time>2026-03-24T11:38:15.854Z</time></trkpt><trkpt lat="45.7569245" lon="9.2740288"><ele>280.0</ele><time>2026-03-24T11:38:16.853Z</time></trkpt><trkpt lat="45.7567178" lon="9.2737315"><ele>279.5</ele><time>2026-03-24T11:38:17.861Z</time></trkpt><trkpt lat="45.7565103" lon="9.2734256"><ele>279.0</ele><time>2026-03-24T11:38:18.857Z</time></trkpt><trkpt lat="45.7563205" lon="9.2731114"><ele>279.5</ele><time>2026-03-24T11:38:19.867Z</time></trkpt><trkpt lat="45.7561172" lon="9.2728244"><ele>280.0</ele><time>2026-03-24T11:38:20.864Z</time></trkpt><trkpt lat="45.7559064" lon="9.2725049"><ele>279.0</ele><time>2026-03-24T11:38:21.865Z</time></trkpt><trkpt lat="45.7556811" lon="9.2722181"><ele>278.0</ele><time>2026-03-24T11:38:22.851Z</time></trkpt><trkpt lat="45.7554933" lon="9.2719848"><ele>278.0</ele><time>2026-03-24T11:38:23.853Z</time></trkpt><trkpt lat="45.7553209" lon="9.271713"><ele>278.0</ele><time>2026-03-24T11:38:24.851Z</time></trkpt><trkpt lat="45.7551198" lon="9.2714777"><ele>276.5</ele><time>2026-03-24T11:38:25.856Z</time></trkpt><trkpt lat="45.7549109" lon="9.2712334"><ele>275.0</ele><time>2026-03-24T11:38:26.858Z</time></trkpt><trkpt lat="45.754704" lon="9.2709889"><ele>275.0</ele><time>2026-03-24T11:38:27.865Z</time></trkpt><trkpt lat="45.7545009" lon="9.2707289"><ele>275.0</ele><time>2026-03-24T11:38:28.86Z</time></trkpt><trkpt lat="45.7543145" lon="9.27044"><ele>275.5</ele><time>2026-03-24T11:38:29.863Z</time></trkpt><trkpt lat="45.7541497" lon="9.2701396"><ele>276.0</ele><time>2026-03-24T11:38:30.865Z</time></trkpt><trkpt lat="45.7539578" lon="9.2698504"><ele>277.5</ele><time>2026-03-24T11:38:31.854Z</time></trkpt><trkpt lat="45.7537717" lon="9.2695622"><ele>279.0</ele><time>2026-03-24T11:38:32.857Z</time></trkpt><trkpt lat="45.7535848" lon="9.2692215"><ele>277.5</ele><time>2026-03-24T11:38:33.854Z</time></trkpt><trkpt lat="45.7533802" lon="9.2689176"><ele>276.0</ele><time>2026-03-24T11:38:34.846Z</time></trkpt><trkpt lat="45.7532108" lon="9.2686231"><ele>276.0</ele><time>2026-03-24T11:38:35.856Z</time></trkpt><trkpt lat="45.7530085" lon="9.2683497"><ele>276.0</ele><time>2026-03-24T11:38:36.855Z</time></trkpt><trkpt lat="45.7528222" lon="9.2680496"><ele>275.5</ele><time>2026-03-24T11:38:37.852Z</time></trkpt><trkpt lat="45.752618" lon="9.2677422"><ele>275.0</ele><time>2026-03-24T11:38:38.857Z</time></trkpt><trkpt lat="45.7524293" lon="9.2674516"><ele>277.5</ele><time>2026-03-24T11:38:39.852Z</time></trkpt><trkpt lat="45.7522507" lon="9.2671743"><ele>280.0</ele><time>2026-03-24T11:38:40.849Z</time></trkpt><trkpt lat="45.752044" lon="9.2668981"><ele>277.5</ele><time>2026-03-24T11:38:41.846Z</time></trkpt><trkpt lat="45.7518538" lon="9.2666399"><ele>275.0</ele><time>2026-03-24T11:38:42.855Z</time></trkpt><trkpt lat="45.7516716" lon="9.2664039"><ele>280.0</ele><time>2026-03-24T11:38:43.851Z</time></trkpt><trkpt lat="45.7514953" lon="9.2661628"><ele>285.0</ele><time>2026-03-24T11:38:44.843Z</time></trkpt><trkpt lat="45.7512824" lon="9.2659121"><ele>285.0</ele><time>2026-03-24T11:38:45.842Z</time></trkpt><trkpt lat="45.7510693" lon="9.2656516"><ele>285.0</ele><time>2026-03-24T11:38:46.844Z</time></trkpt><trkpt lat="45.7508131" lon="9.2654261"><ele>283.0</ele><time>2026-03-24T11:38:47.85Z</time></trkpt><trkpt lat="45.75061" lon="9.2651628"><ele>281.0</ele><time>2026-03-24T11:38:48.85Z</time></trkpt><trkpt lat="45.7503918" lon="9.2649269"><ele>272.5</ele><time>2026-03-24T11:38:49.852Z</time></trkpt><trkpt lat="45.7501707" lon="9.2646779"><ele>264.0</ele><time>2026-03-24T11:38:50.856Z</time></trkpt><trkpt lat="45.7499355" lon="9.2644139"><ele>264.0</ele><time>2026-03-24T11:38:51.851Z</time></trkpt><trkpt lat="45.7497192" lon="9.2641666"><ele>264.0</ele><time>2026-03-24T11:38:52.853Z</time></trkpt><trkpt lat="45.7494928" lon="9.2639375"><ele>262.5</ele><time>2026-03-24T11:38:53.853Z</time></trkpt><trkpt lat="45.7492655" lon="9.2637016"><ele>261.0</ele><time>2026-03-24T11:38:54.858Z</time></trkpt><trkpt lat="45.7490578" lon="9.2634568"><ele>261.0</ele><time>2026-03-24T11:38:55.855Z</time></trkpt><trkpt lat="45.7488786" lon="9.2632358"><ele>261.0</ele><time>2026-03-24T11:38:56.854Z</time></trkpt><trkpt lat="45.7486585" lon="9.2630063"><ele>261.0</ele><time>2026-03-24T11:38:57.872Z</time></trkpt><trkpt lat="45.7484422" lon="9.2627941"><ele>261.0</ele><time>2026-03-24T11:38:58.864Z</time></trkpt><trkpt lat="45.7482284" lon="9.2625494"><ele>261.0</ele><time>2026-03-24T11:38:59.865Z</time></trkpt><trkpt lat="45.7480071" lon="9.2622868"><ele>261.0</ele><time>2026-03-24T11:39:00.862Z</time></trkpt><trkpt lat="45.7477774" lon="9.2620353"><ele>261.5</ele><time>2026-03-24T11:39:01.879Z</time></trkpt><trkpt lat="45.7475407" lon="9.2617824"><ele>262.0</ele><time>2026-03-24T11:39:02.861Z</time></trkpt><trkpt lat="45.7473166" lon="9.2615253"><ele>260.0</ele><time>2026-03-24T11:39:03.866Z</time></trkpt><trkpt lat="45.7470669" lon="9.2612633"><ele>258.0</ele><time>2026-03-24T11:39:04.85Z</time></trkpt><trkpt lat="45.7468495" lon="9.261006"><ele>258.0</ele><time>2026-03-24T11:39:05.859Z</time></trkpt><trkpt lat="45.7466104" lon="9.2607317"><ele>258.0</ele><time>2026-03-24T11:39:06.863Z</time></trkpt><trkpt lat="45.7463584" lon="9.2604631"><ele>257.0</ele><time>2026-03-24T11:39:07.862Z</time></trkpt><trkpt lat="45.7461287" lon="9.2601974"><ele>256.0</ele><time>2026-03-24T11:39:08.858Z</time></trkpt><trkpt lat="45.7459016" lon="9.2599531"><ele>256.0</ele><time>2026-03-24T11:39:09.856Z</time></trkpt><trkpt lat="45.745658" lon="9.2596878"><ele>256.0</ele><time>2026-03-24T11:39:10.851Z</time></trkpt><trkpt lat="45.7453915" lon="9.2594474"><ele>257.0</ele><time>2026-03-24T11:39:11.86Z</time></trkpt><trkpt lat="45.7451882" lon="9.2591802"><ele>258.0</ele><time>2026-03-24T11:39:12.863Z</time></trkpt><trkpt lat="45.7449587" lon="9.2589062"><ele>258.0</ele><time>2026-03-24T11:39:13.852Z</time></trkpt><trkpt lat="45.7447642" lon="9.2587034"><ele>258.0</ele><time>2026-03-24T11:39:14.861Z</time></trkpt><trkpt lat="45.7445983" lon="9.258484"><ele>257.5</ele><time>2026-03-24T11:39:15.858Z</time></trkpt><trkpt lat="45.7443751" lon="9.2582737"><ele>257.0</ele><time>2026-03-24T11:39:16.86Z</time></trkpt><trkpt lat="45.7441767" lon="9.2580521"><ele>257.0</ele><time>2026-03-24T11:39:17.853Z</time></trkpt><trkpt lat="45.7439763" lon="9.2578445"><ele>257.0</ele><time>2026-03-24T11:39:18.859Z</time></trkpt><trkpt lat="45.7437766" lon="9.2576277"><ele>257.0</ele><time>2026-03-24T11:39:19.861Z</time></trkpt><trkpt lat="45.7435561" lon="9.257408"><ele>257.0</ele><time>2026-03-24T11:39:20.862Z</time></trkpt><trkpt lat="45.7433697" lon="9.25717"><ele>256.5</ele><time>2026-03-24T11:39:21.861Z</time></trkpt><trkpt lat="45.7431803" lon="9.256959"><ele>256.0</ele><time>2026-03-24T11:39:22.862Z</time></trkpt><trkpt lat="45.7429914" lon="9.2567555"><ele>256.0</ele><time>2026-03-24T11:39:23.869Z</time></trkpt><trkpt lat="45.7427974" lon="9.256521"><ele>256.0</ele><time>2026-03-24T11:39:24.865Z</time></trkpt><trkpt lat="45.742605" lon="9.2563233"><ele>255.0</ele><time>2026-03-24T11:39:25.871Z</time></trkpt><trkpt lat="45.7423978" lon="9.2560814"><ele>254.0</ele><time>2026-03-24T11:39:26.859Z</time></trkpt><trkpt lat="45.7421962" lon="9.2558381"><ele>253.5</ele><time>2026-03-24T11:39:27.879Z</time></trkpt><trkpt lat="45.741997" lon="9.2556068"><ele>253.0</ele><time>2026-03-24T11:39:28.865Z</time></trkpt><trkpt lat="45.7417889" lon="9.2553826"><ele>254.0</ele><time>2026-03-24T11:39:29.866Z</time></trkpt><trkpt lat="45.7415616" lon="9.255147"><ele>255.0</ele><time>2026-03-24T11:39:30.872Z</time></trkpt><trkpt lat="45.7413498" lon="9.2548737"><ele>254.5</ele><time>2026-03-24T11:39:31.87Z</time></trkpt><trkpt lat="45.7411138" lon="9.2546257"><ele>254.0</ele><time>2026-03-24T11:39:32.885Z</time></trkpt><trkpt lat="45.7408909" lon="9.2543849"><ele>255.5</ele><time>2026-03-24T11:39:33.859Z</time></trkpt><trkpt lat="45.7406793" lon="9.2541486"><ele>257.0</ele><time>2026-03-24T11:39:34.852Z</time></trkpt><trkpt lat="45.7404626" lon="9.2539067"><ele>257.0</ele><time>2026-03-24T11:39:35.852Z</time></trkpt><trkpt lat="45.740237" lon="9.2536846"><ele>257.0</ele><time>2026-03-24T11:39:36.856Z</time></trkpt><trkpt lat="45.7400468" lon="9.2534416"><ele>257.0</ele><time>2026-03-24T11:39:37.86Z</time></trkpt><trkpt lat="45.7398198" lon="9.2532204"><ele>257.0</ele><time>2026-03-24T11:39:38.851Z</time></trkpt><trkpt lat="45.7396186" lon="9.2529803"><ele>256.5</ele><time>2026-03-24T11:39:39.855Z</time></trkpt><trkpt lat="45.7393981" lon="9.2527171"><ele>256.0</ele><time>2026-03-24T11:39:40.854Z</time></trkpt><trkpt lat="45.7391817" lon="9.2524708"><ele>253.5</ele><time>2026-03-24T11:39:41.86Z</time></trkpt><trkpt lat="45.738974" lon="9.2522302"><ele>251.0</ele><time>2026-03-24T11:39:42.86Z</time></trkpt><trkpt lat="45.7387251" lon="9.2519588"><ele>250.0</ele><time>2026-03-24T11:39:43.863Z</time></trkpt><trkpt lat="45.738486" lon="9.2516943"><ele>249.0</ele><time>2026-03-24T11:39:44.868Z</time></trkpt><trkpt lat="45.7382449" lon="9.2514387"><ele>248.0</ele><time>2026-03-24T11:39:45.864Z</time></trkpt><trkpt lat="45.7380041" lon="9.2511821"><ele>247.0</ele><time>2026-03-24T11:39:46.868Z</time></trkpt><trkpt lat="45.7377707" lon="9.2509102"><ele>246.0</ele><time>2026-03-24T11:39:47.862Z</time></trkpt><trkpt lat="45.7375366" lon="9.2506528"><ele>245.0</ele><time>2026-03-24T11:39:48.869Z</time></trkpt><trkpt lat="45.7373388" lon="9.2504373"><ele>244.0</ele><time>2026-03-24T11:39:49.862Z</time></trkpt><trkpt lat="45.7371406" lon="9.2502349"><ele>243.0</ele><time>2026-03-24T11:39:50.863Z</time></trkpt><trkpt lat="45.7369218" lon="9.2500573"><ele>243.0</ele><time>2026-03-24T11:39:51.861Z</time></trkpt><trkpt lat="45.7367042" lon="9.2499026"><ele>243.0</ele><time>2026-03-24T11:39:52.856Z</time></trkpt><trkpt lat="45.736474" lon="9.2497638"><ele>242.5</ele><time>2026-03-24T11:39:53.858Z</time></trkpt><trkpt lat="45.7362205" lon="9.2496581"><ele>242.0</ele><time>2026-03-24T11:39:54.869Z</time></trkpt><trkpt lat="45.7359666" lon="9.2495887"><ele>241.5</ele><time>2026-03-24T11:39:55.852Z</time></trkpt><trkpt lat="45.7357274" lon="9.2495705"><ele>241.0</ele><time>2026-03-24T11:39:56.86Z</time></trkpt><trkpt lat="45.7354619" lon="9.2495437"><ele>241.5</ele><time>2026-03-24T11:39:57.876Z</time></trkpt><trkpt lat="45.7352039" lon="9.2495035"><ele>242.0</ele><time>2026-03-24T11:39:58.871Z</time></trkpt><trkpt lat="45.7349195" lon="9.2494355"><ele>242.0</ele><time>2026-03-24T11:39:59.859Z</time></trkpt><trkpt lat="45.7346386" lon="9.2494059"><ele>242.0</ele><time>2026-03-24T11:40:00.87Z</time></trkpt><trkpt lat="45.7343478" lon="9.2493795"><ele>242.5</ele><time>2026-03-24T11:40:01.856Z</time></trkpt><trkpt lat="45.7340802" lon="9.249321"><ele>243.0</ele><time>2026-03-24T11:40:02.86Z</time></trkpt><trkpt lat="45.7338425" lon="9.2492872"><ele>243.0</ele><time>2026-03-24T11:40:03.879Z</time></trkpt><trkpt lat="45.7335853" lon="9.2492328"><ele>243.0</ele><time>2026-03-24T11:40:04.86Z</time></trkpt><trkpt lat="45.7333454" lon="9.2492056"><ele>243.0</ele><time>2026-03-24T11:40:05.855Z</time></trkpt><trkpt lat="45.733116" lon="9.2491421"><ele>243.0</ele><time>2026-03-24T11:40:06.879Z</time></trkpt><trkpt lat="45.7328864" lon="9.2490919"><ele>243.0</ele><time>2026-03-24T11:40:07.869Z</time></trkpt><trkpt lat="45.73264" lon="9.249052"><ele>243.0</ele><time>2026-03-24T11:40:08.87Z</time></trkpt><trkpt lat="45.7323934" lon="9.2490272"><ele>243.0</ele><time>2026-03-24T11:40:09.875Z</time></trkpt><trkpt lat="45.7321473" lon="9.2490023"><ele>243.0</ele><time>2026-03-24T11:40:10.874Z</time></trkpt><trkpt lat="45.7319202" lon="9.2489898"><ele>243.0</ele><time>2026-03-24T11:40:11.87Z</time></trkpt><trkpt lat="45.7316985" lon="9.2489567"><ele>243.0</ele><time>2026-03-24T11:40:12.878Z</time></trkpt><trkpt lat="45.7314462" lon="9.2489211"><ele>243.0</ele><time>2026-03-24T11:40:13.875Z</time></trkpt><trkpt lat="45.7311885" lon="9.248873"><ele>243.0</ele><time>2026-03-24T11:40:14.879Z</time></trkpt><trkpt lat="45.7309528" lon="9.2488427"><ele>245.0</ele><time>2026-03-24T11:40:15.882Z</time></trkpt><trkpt lat="45.7306979" lon="9.2488392"><ele>247.0</ele><time>2026-03-24T11:40:16.876Z</time></trkpt><trkpt lat="45.7304485" lon="9.2488048"><ele>250.0</ele><time>2026-03-24T11:40:17.875Z</time></trkpt><trkpt lat="45.7302113" lon="9.24877"><ele>253.0</ele><time>2026-03-24T11:40:18.869Z</time></trkpt><trkpt lat="45.7299609" lon="9.2487382"><ele>253.0</ele><time>2026-03-24T11:40:19.877Z</time></trkpt><trkpt lat="45.7297219" lon="9.2486865"><ele>253.0</ele><time>2026-03-24T11:40:20.871Z</time></trkpt><trkpt lat="45.7295169" lon="9.2486003"><ele>254.0</ele><time>2026-03-24T11:40:21.862Z</time></trkpt><trkpt lat="45.7292983" lon="9.2484672"><ele>255.0</ele><time>2026-03-24T11:40:22.866Z</time></trkpt><trkpt lat="45.7290628" lon="9.24833"><ele>255.0</ele><time>2026-03-24T11:40:23.863Z</time></trkpt><trkpt lat="45.7288061" lon="9.2481887"><ele>255.0</ele><time>2026-03-24T11:40:24.86Z</time></trkpt><trkpt lat="45.7285777" lon="9.248"><ele>255.5</ele><time>2026-03-24T11:40:25.87Z</time></trkpt><trkpt lat="45.7283677" lon="9.247762"><ele>256.0</ele><time>2026-03-24T11:40:26.862Z</time></trkpt><trkpt lat="45.728221" lon="9.247505"><ele>256.0</ele><time>2026-03-24T11:40:27.875Z</time></trkpt><trkpt lat="45.7279794" lon="9.2473103"><ele>256.0</ele><time>2026-03-24T11:40:28.865Z</time></trkpt><trkpt lat="45.727772" lon="9.2470935"><ele>258.5</ele><time>2026-03-24T11:40:29.87Z</time></trkpt><trkpt lat="45.7275821" lon="9.2468933"><ele>261.0</ele><time>2026-03-24T11:40:30.864Z</time></trkpt><trkpt lat="45.7273574" lon="9.246662"><ele>262.5</ele><time>2026-03-24T11:40:31.864Z</time></trkpt><trkpt lat="45.7271217" lon="9.2464419"><ele>264.0</ele><time>2026-03-24T11:40:32.865Z</time></trkpt><trkpt lat="45.7268752" lon="9.2462173"><ele>264.0</ele><time>2026-03-24T11:40:33.864Z</time></trkpt><trkpt lat="45.7266387" lon="9.2459885"><ele>264.0</ele><time>2026-03-24T11:40:34.881Z</time></trkpt><trkpt lat="45.726411" lon="9.2457613"><ele>262.5</ele><time>2026-03-24T11:40:35.861Z</time></trkpt><trkpt lat="45.7261763" lon="9.2455193"><ele>261.0</ele><time>2026-03-24T11:40:36.86Z</time></trkpt><trkpt lat="45.7259545" lon="9.2452937"><ele>265.5</ele><time>2026-03-24T11:40:37.852Z</time></trkpt><trkpt lat="45.7257168" lon="9.2450638"><ele>270.0</ele><time>2026-03-24T11:40:38.852Z</time></trkpt><trkpt lat="45.7255042" lon="9.2448447"><ele>270.5</ele><time>2026-03-24T11:40:39.853Z</time></trkpt><trkpt lat="45.7252785" lon="9.244594"><ele>271.0</ele><time>2026-03-24T11:40:40.849Z</time></trkpt><trkpt lat="45.7250283" lon="9.2443682"><ele>271.0</ele><time>2026-03-24T11:40:41.84Z</time></trkpt><trkpt lat="45.7247821" lon="9.2441377"><ele>271.0</ele><time>2026-03-24T11:40:42.847Z</time></trkpt><trkpt lat="45.7245332" lon="9.2438594"><ele>268.0</ele><time>2026-03-24T11:40:43.837Z</time></trkpt><trkpt lat="45.7242984" lon="9.2436776"><ele>265.0</ele><time>2026-03-24T11:40:44.852Z</time></trkpt><trkpt lat="45.7240729" lon="9.2434564"><ele>265.0</ele><time>2026-03-24T11:40:45.845Z</time></trkpt><trkpt lat="45.7238232" lon="9.2432299"><ele>265.0</ele><time>2026-03-24T11:40:46.842Z</time></trkpt><trkpt lat="45.7236136" lon="9.2429849"><ele>263.0</ele><time>2026-03-24T11:40:47.834Z</time></trkpt><trkpt lat="45.7234277" lon="9.2427033"><ele>261.0</ele><time>2026-03-24T11:40:48.838Z</time></trkpt><trkpt lat="45.7232577" lon="9.242384"><ele>259.0</ele><time>2026-03-24T11:40:49.848Z</time></trkpt><trkpt lat="45.7230725" lon="9.2420281"><ele>257.0</ele><time>2026-03-24T11:40:50.843Z</time></trkpt><trkpt lat="45.7229018" lon="9.2416594"><ele>256.0</ele><time>2026-03-24T11:40:51.839Z</time></trkpt><trkpt lat="45.7227247" lon="9.241312"><ele>255.0</ele><time>2026-03-24T11:40:52.837Z</time></trkpt><trkpt lat="45.7225397" lon="9.2409498"><ele>249.5</ele><time>2026-03-24T11:40:53.837Z</time></trkpt><trkpt lat="45.7223276" lon="9.2405568"><ele>244.0</ele><time>2026-03-24T11:40:54.841Z</time></trkpt><trkpt lat="45.722109" lon="9.2401845"><ele>244.0</ele><time>2026-03-24T11:40:55.858Z</time></trkpt><trkpt lat="45.7219134" lon="9.2398258"><ele>244.0</ele><time>2026-03-24T11:40:56.856Z</time></trkpt><trkpt lat="45.7217421" lon="9.2394588"><ele>243.0</ele><time>2026-03-24T11:40:57.863Z</time></trkpt><trkpt lat="45.7215524" lon="9.2391122"><ele>242.0</ele><time>2026-03-24T11:40:58.861Z</time></trkpt><trkpt lat="45.7213576" lon="9.2387466"><ele>241.5</ele><time>2026-03-24T11:40:59.862Z</time></trkpt><trkpt lat="45.7212021" lon="9.2383735"><ele>241.0</ele><time>2026-03-24T11:41:00.864Z</time></trkpt><trkpt lat="45.7210107" lon="9.2380425"><ele>245.0</ele><time>2026-03-24T11:41:01.857Z</time></trkpt><trkpt lat="45.7208249" lon="9.2377298"><ele>249.0</ele><time>2026-03-24T11:41:02.854Z</time></trkpt><trkpt lat="45.7206484" lon="9.237405"><ele>250.0</ele><time>2026-03-24T11:41:03.864Z</time></trkpt><trkpt lat="45.7204792" lon="9.2370858"><ele>251.0</ele><time>2026-03-24T11:41:04.862Z</time></trkpt><trkpt lat="45.72031" lon="9.2367583"><ele>253.0</ele><time>2026-03-24T11:41:05.88Z</time></trkpt><trkpt lat="45.7201246" lon="9.2364387"><ele>255.0</ele><time>2026-03-24T11:41:06.867Z</time></trkpt><trkpt lat="45.7199831" lon="9.2361311"><ele>255.0</ele><time>2026-03-24T11:41:07.86Z</time></trkpt><trkpt lat="45.7198153" lon="9.2357992"><ele>255.0</ele><time>2026-03-24T11:41:08.858Z</time></trkpt><trkpt lat="45.7196647" lon="9.2354772"><ele>255.5</ele><time>2026-03-24T11:41:09.847Z</time></trkpt><trkpt lat="45.7194941" lon="9.2351388"><ele>256.0</ele><time>2026-03-24T11:41:10.848Z</time></trkpt><trkpt lat="45.7192953" lon="9.234846"><ele>251.0</ele><time>2026-03-24T11:41:11.844Z</time></trkpt><trkpt lat="45.7191408" lon="9.2345494"><ele>246.0</ele><time>2026-03-24T11:41:12.85Z</time></trkpt><trkpt lat="45.7189946" lon="9.234219"><ele>242.5</ele><time>2026-03-24T11:41:13.847Z</time></trkpt><trkpt lat="45.7187978" lon="9.2339062"><ele>239.0</ele><time>2026-03-24T11:41:14.845Z</time></trkpt><trkpt lat="45.7186134" lon="9.233588"><ele>239.5</ele><time>2026-03-24T11:41:15.849Z</time></trkpt><trkpt lat="45.718438" lon="9.2332543"><ele>240.0</ele><time>2026-03-24T11:41:16.849Z</time></trkpt><trkpt lat="45.7182979" lon="9.2329762"><ele>242.5</ele><time>2026-03-24T11:41:17.853Z</time></trkpt><trkpt lat="45.7181334" lon="9.2326837"><ele>245.0</ele><time>2026-03-24T11:41:18.849Z</time></trkpt><trkpt lat="45.7179587" lon="9.2323507"><ele>246.0</ele><time>2026-03-24T11:41:19.856Z</time></trkpt><trkpt lat="45.7177862" lon="9.2320862"><ele>247.0</ele><time>2026-03-24T11:41:20.858Z</time></trkpt><trkpt lat="45.7176357" lon="9.2317793"><ele>250.0</ele><time>2026-03-24T11:41:21.856Z</time></trkpt><trkpt lat="45.7174828" lon="9.2314574"><ele>253.0</ele><time>2026-03-24T11:41:22.853Z</time></trkpt><trkpt lat="45.7173091" lon="9.2311445"><ele>253.0</ele><time>2026-03-24T11:41:23.853Z</time></trkpt><trkpt lat="45.717145" lon="9.2308418"><ele>253.0</ele><time>2026-03-24T11:41:24.855Z</time></trkpt><trkpt lat="45.7169878" lon="9.2305283"><ele>255.0</ele><time>2026-03-24T11:41:25.849Z</time></trkpt><trkpt lat="45.7168255" lon="9.2302132"><ele>257.0</ele><time>2026-03-24T11:41:26.852Z</time></trkpt><trkpt lat="45.7166707" lon="9.229896"><ele>256.5</ele><time>2026-03-24T11:41:27.86Z</time></trkpt><trkpt lat="45.7165027" lon="9.229599"><ele>256.0</ele><time>2026-03-24T11:41:28.861Z</time></trkpt><trkpt lat="45.7163473" lon="9.2293141"><ele>256.0</ele><time>2026-03-24T11:41:29.861Z</time></trkpt><trkpt lat="45.7162001" lon="9.229018"><ele>256.0</ele><time>2026-03-24T11:41:30.85Z</time></trkpt><trkpt lat="45.7160832" lon="9.2287854"><ele>257.0</ele><time>2026-03-24T11:41:31.847Z</time></trkpt><trkpt lat="45.7159629" lon="9.2285713"><ele>258.0</ele><time>2026-03-24T11:41:32.842Z</time></trkpt><trkpt lat="45.7158371" lon="9.228337"><ele>259.0</ele><time>2026-03-24T11:41:33.847Z</time></trkpt><trkpt lat="45.7156746" lon="9.2281295"><ele>260.3333333333333</ele><time>2026-03-24T11:41:34.852Z</time></trkpt><trkpt lat="45.7155172" lon="9.2279427"><ele>261.6666666666667</ele><time>2026-03-24T11:41:35.851Z</time></trkpt><trkpt lat="45.7153525" lon="9.2277552"><ele>263.0</ele><time>2026-03-24T11:41:36.868Z</time></trkpt><trkpt lat="45.7151598" lon="9.2275964"><ele>265.0</ele><time>2026-03-24T11:41:37.84Z</time></trkpt><trkpt lat="45.714942" lon="9.2274879"><ele>267.0</ele><time>2026-03-24T11:41:38.852Z</time></trkpt><trkpt lat="45.7147143" lon="9.2273887"><ele>267.0</ele><time>2026-03-24T11:41:39.841Z</time></trkpt><trkpt lat="45.7144821" lon="9.2273189"><ele>267.0</ele><time>2026-03-24T11:41:40.845Z</time></trkpt><trkpt lat="45.7142374" lon="9.2272821"><ele>277.5</ele><time>2026-03-24T11:41:41.846Z</time></trkpt><trkpt lat="45.7139837" lon="9.2272712"><ele>288.0</ele><time>2026-03-24T11:41:42.854Z</time></trkpt><trkpt lat="45.7137353" lon="9.2272748"><ele>286.0</ele><time>2026-03-24T11:41:43.853Z</time></trkpt><trkpt lat="45.7134703" lon="9.227285"><ele>284.0</ele><time>2026-03-24T11:41:44.855Z</time></trkpt><trkpt lat="45.7132071" lon="9.2273285"><ele>283.5</ele><time>2026-03-24T11:41:45.858Z</time></trkpt><trkpt lat="45.7129371" lon="9.2273876"><ele>283.0</ele><time>2026-03-24T11:41:46.859Z</time></trkpt><trkpt lat="45.7126666" lon="9.227442"><ele>283.0</ele><time>2026-03-24T11:41:47.848Z</time></trkpt><trkpt lat="45.7123996" lon="9.2275039"><ele>283.0</ele><time>2026-03-24T11:41:48.847Z</time></trkpt><trkpt lat="45.7121295" lon="9.2275356"><ele>285.0</ele><time>2026-03-24T11:41:49.849Z</time></trkpt><trkpt lat="45.7118402" lon="9.2276041"><ele>287.0</ele><time>2026-03-24T11:41:50.856Z</time></trkpt><trkpt lat="45.7115725" lon="9.2276571"><ele>287.0</ele><time>2026-03-24T11:41:51.855Z</time></trkpt><trkpt lat="45.7112781" lon="9.2276783"><ele>287.0</ele><time>2026-03-24T11:41:52.854Z</time></trkpt><trkpt lat="45.711007" lon="9.2277108"><ele>288.0</ele><time>2026-03-24T11:41:53.859Z</time></trkpt><trkpt lat="45.7107513" lon="9.2277259"><ele>289.0</ele><time>2026-03-24T11:41:54.853Z</time></trkpt><trkpt lat="45.7105035" lon="9.2277439"><ele>289.0</ele><time>2026-03-24T11:41:55.857Z</time></trkpt><trkpt lat="45.7102547" lon="9.2277623"><ele>289.0</ele><time>2026-03-24T11:41:56.859Z</time></trkpt><trkpt lat="45.710026" lon="9.2277791"><ele>291.0</ele><time>2026-03-24T11:41:57.868Z</time></trkpt><trkpt lat="45.709787" lon="9.2278077"><ele>293.0</ele><time>2026-03-24T11:41:58.857Z</time></trkpt><trkpt lat="45.7095424" lon="9.2278283"><ele>294.0</ele><time>2026-03-24T11:41:59.861Z</time></trkpt><trkpt lat="45.7093065" lon="9.2278378"><ele>295.0</ele><time>2026-03-24T11:42:00.853Z</time></trkpt><trkpt lat="45.7090503" lon="9.2278799"><ele>295.0</ele><time>2026-03-24T11:42:01.859Z</time></trkpt><trkpt lat="45.7088048" lon="9.2279106"><ele>295.0</ele><time>2026-03-24T11:42:02.856Z</time></trkpt><trkpt lat="45.7085492" lon="9.2279262"><ele>297.0</ele><time>2026-03-24T11:42:03.864Z</time></trkpt><trkpt lat="45.7082807" lon="9.2279603"><ele>299.0</ele><time>2026-03-24T11:42:04.857Z</time></trkpt><trkpt lat="45.7080377" lon="9.2280175"><ele>299.0</ele><time>2026-03-24T11:42:05.865Z</time></trkpt><trkpt lat="45.7077815" lon="9.2280808"><ele>299.0</ele><time>2026-03-24T11:42:06.856Z</time></trkpt><trkpt lat="45.7075414" lon="9.2281189"><ele>300.5</ele><time>2026-03-24T11:42:07.881Z</time></trkpt><trkpt lat="45.7072968" lon="9.2281561"><ele>302.0</ele><time>2026-03-24T11:42:08.86Z</time></trkpt><trkpt lat="45.7070564" lon="9.2282313"><ele>301.5</ele><time>2026-03-24T11:42:09.855Z</time></trkpt><trkpt lat="45.7068004" lon="9.2283018"><ele>301.0</ele><time>2026-03-24T11:42:10.846Z</time></trkpt><trkpt lat="45.7065498" lon="9.2284348"><ele>301.0</ele><time>2026-03-24T11:42:11.85Z</time></trkpt><trkpt lat="45.7063" lon="9.2285711"><ele>301.0</ele><time>2026-03-24T11:42:12.832Z</time></trkpt><trkpt lat="45.7060845" lon="9.228723"><ele>301.5</ele><time>2026-03-24T11:42:13.831Z</time></trkpt><trkpt lat="45.7058595" lon="9.2288764"><ele>302.0</ele><time>2026-03-24T11:42:14.833Z</time></trkpt><trkpt lat="45.7056373" lon="9.2290533"><ele>300.5</ele><time>2026-03-24T11:42:15.832Z</time></trkpt><trkpt lat="45.7054227" lon="9.2292623"><ele>299.0</ele><time>2026-03-24T11:42:16.839Z</time></trkpt><trkpt lat="45.7052154" lon="9.2294873"><ele>299.0</ele><time>2026-03-24T11:42:17.839Z</time></trkpt><trkpt lat="45.7050299" lon="9.2297397"><ele>299.0</ele><time>2026-03-24T11:42:18.853Z</time></trkpt><trkpt lat="45.7048329" lon="9.230043"><ele>298.0</ele><time>2026-03-24T11:42:19.853Z</time></trkpt><trkpt lat="45.7046122" lon="9.2303192"><ele>297.0</ele><time>2026-03-24T11:42:20.857Z</time></trkpt><trkpt lat="45.7044018" lon="9.2306102"><ele>294.5</ele><time>2026-03-24T11:42:21.86Z</time></trkpt><trkpt lat="45.7041666" lon="9.2308523"><ele>292.0</ele><time>2026-03-24T11:42:22.85Z</time></trkpt><trkpt lat="45.703952" lon="9.2310841"><ele>292.0</ele><time>2026-03-24T11:42:23.839Z</time></trkpt><trkpt lat="45.703749" lon="9.2313338"><ele>292.0</ele><time>2026-03-24T11:42:24.826Z</time></trkpt><trkpt lat="45.7035223" lon="9.2315013"><ele>290.0</ele><time>2026-03-24T11:42:25.83Z</time></trkpt><trkpt lat="45.7032669" lon="9.2315764"><ele>288.0</ele><time>2026-03-24T11:42:26.826Z</time></trkpt><trkpt lat="45.7029971" lon="9.231617"><ele>285.5</ele><time>2026-03-24T11:42:27.842Z</time></trkpt><trkpt lat="45.7026924" lon="9.2316733"><ele>283.0</ele><time>2026-03-24T11:42:28.832Z</time></trkpt><trkpt lat="45.7024134" lon="9.2316554"><ele>283.0</ele><time>2026-03-24T11:42:29.842Z</time></trkpt><trkpt lat="45.7021252" lon="9.2316106"><ele>283.0</ele><time>2026-03-24T11:42:30.84Z</time></trkpt><trkpt lat="45.7018683" lon="9.231507"><ele>283.5</ele><time>2026-03-24T11:42:31.848Z</time></trkpt><trkpt lat="45.7016161" lon="9.231399"><ele>284.0</ele><time>2026-03-24T11:42:32.843Z</time></trkpt><trkpt lat="45.7013433" lon="9.2312655"><ele>284.0</ele><time>2026-03-24T11:42:33.84Z</time></trkpt><trkpt lat="45.7011057" lon="9.2310969"><ele>284.0</ele><time>2026-03-24T11:42:34.846Z</time></trkpt><trkpt lat="45.7008553" lon="9.2308883"><ele>286.0</ele><time>2026-03-24T11:42:35.85Z</time></trkpt><trkpt lat="45.7006251" lon="9.2306745"><ele>288.0</ele><time>2026-03-24T11:42:36.863Z</time></trkpt><trkpt lat="45.7004341" lon="9.2304157"><ele>288.0</ele><time>2026-03-24T11:42:37.855Z</time></trkpt><trkpt lat="45.7002308" lon="9.2301651"><ele>288.0</ele><time>2026-03-24T11:42:38.888Z</time></trkpt><trkpt lat="45.6999884" lon="9.2299178"><ele>289.5</ele><time>2026-03-24T11:42:39.852Z</time></trkpt><trkpt lat="45.6997434" lon="9.2296597"><ele>291.0</ele><time>2026-03-24T11:42:40.849Z</time></trkpt><trkpt lat="45.6995121" lon="9.2294452"><ele>290.0</ele><time>2026-03-24T11:42:41.844Z</time></trkpt><trkpt lat="45.6992879" lon="9.2292505"><ele>289.0</ele><time>2026-03-24T11:42:42.85Z</time></trkpt><trkpt lat="45.6990613" lon="9.2290565"><ele>289.0</ele><time>2026-03-24T11:42:43.846Z</time></trkpt><trkpt lat="45.6988328" lon="9.2288342"><ele>289.0</ele><time>2026-03-24T11:42:44.838Z</time></trkpt><trkpt lat="45.6986155" lon="9.2286247"><ele>290.5</ele><time>2026-03-24T11:42:45.847Z</time></trkpt><trkpt lat="45.698379" lon="9.2284212"><ele>292.0</ele><time>2026-03-24T11:42:46.854Z</time></trkpt><trkpt lat="45.6981458" lon="9.228202"><ele>292.5</ele><time>2026-03-24T11:42:47.856Z</time></trkpt><trkpt lat="45.6979097" lon="9.2279939"><ele>293.0</ele><time>2026-03-24T11:42:48.859Z</time></trkpt><trkpt lat="45.6976535" lon="9.2277848"><ele>293.5</ele><time>2026-03-24T11:42:49.862Z</time></trkpt><trkpt lat="45.6974324" lon="9.2275637"><ele>294.0</ele><time>2026-03-24T11:42:50.857Z</time></trkpt><trkpt lat="45.6971749" lon="9.2273394"><ele>293.5</ele><time>2026-03-24T11:42:51.852Z</time></trkpt><trkpt lat="45.6969489" lon="9.2271179"><ele>293.0</ele><time>2026-03-24T11:42:52.857Z</time></trkpt><trkpt lat="45.6966969" lon="9.2269"><ele>292.0</ele><time>2026-03-24T11:42:53.859Z</time></trkpt><trkpt lat="45.6964557" lon="9.2266739"><ele>291.0</ele><time>2026-03-24T11:42:54.863Z</time></trkpt><trkpt lat="45.6962089" lon="9.2264406"><ele>289.0</ele><time>2026-03-24T11:42:55.858Z</time></trkpt><trkpt lat="45.6959665" lon="9.2262074"><ele>287.0</ele><time>2026-03-24T11:42:56.856Z</time></trkpt><trkpt lat="45.6956999" lon="9.2259929"><ele>287.0</ele><time>2026-03-24T11:42:57.862Z</time></trkpt><trkpt lat="45.6954567" lon="9.2257595"><ele>287.0</ele><time>2026-03-24T11:42:58.862Z</time></trkpt><trkpt lat="45.6952162" lon="9.2255179"><ele>283.5</ele><time>2026-03-24T11:42:59.849Z</time></trkpt><trkpt lat="45.6949557" lon="9.22531"><ele>280.0</ele><time>2026-03-24T11:43:00.855Z</time></trkpt><trkpt lat="45.6947406" lon="9.2250824"><ele>280.0</ele><time>2026-03-24T11:43:01.852Z</time></trkpt><trkpt lat="45.6945139" lon="9.22485"><ele>280.0</ele><time>2026-03-24T11:43:02.854Z</time></trkpt><trkpt lat="45.6942913" lon="9.2246612"><ele>279.5</ele><time>2026-03-24T11:43:03.851Z</time></trkpt><trkpt lat="45.6940759" lon="9.2244787"><ele>279.0</ele><time>2026-03-24T11:43:04.854Z</time></trkpt><trkpt lat="45.6938579" lon="9.2242727"><ele>279.0</ele><time>2026-03-24T11:43:05.846Z</time></trkpt><trkpt lat="45.6936611" lon="9.2240852"><ele>279.0</ele><time>2026-03-24T11:43:06.856Z</time></trkpt><trkpt lat="45.6934588" lon="9.2238835"><ele>277.0</ele><time>2026-03-24T11:43:07.855Z</time></trkpt><trkpt lat="45.6932528" lon="9.2236799"><ele>275.0</ele><time>2026-03-24T11:43:08.872Z</time></trkpt><trkpt lat="45.6930607" lon="9.223472"><ele>275.0</ele><time>2026-03-24T11:43:09.851Z</time></trkpt><trkpt lat="45.6928719" lon="9.2232569"><ele>275.0</ele><time>2026-03-24T11:43:10.854Z</time></trkpt><trkpt lat="45.6926721" lon="9.2230611"><ele>271.5</ele><time>2026-03-24T11:43:11.85Z</time></trkpt><trkpt lat="45.6924601" lon="9.2228326"><ele>268.0</ele><time>2026-03-24T11:43:12.856Z</time></trkpt><trkpt lat="45.6922548" lon="9.2226052"><ele>268.0</ele><time>2026-03-24T11:43:13.858Z</time></trkpt><trkpt lat="45.6920394" lon="9.2223898"><ele>268.0</ele><time>2026-03-24T11:43:14.854Z</time></trkpt><trkpt lat="45.6918199" lon="9.2221667"><ele>267.0</ele><time>2026-03-24T11:43:15.864Z</time></trkpt><trkpt lat="45.6916062" lon="9.221946"><ele>266.0</ele><time>2026-03-24T11:43:16.867Z</time></trkpt><trkpt lat="45.6913928" lon="9.2217231"><ele>266.0</ele><time>2026-03-24T11:43:17.858Z</time></trkpt><trkpt lat="45.6911805" lon="9.2215295"><ele>266.0</ele><time>2026-03-24T11:43:18.854Z</time></trkpt><trkpt lat="45.6909542" lon="9.2212916"><ele>265.0</ele><time>2026-03-24T11:43:19.86Z</time></trkpt><trkpt lat="45.6907439" lon="9.2210747"><ele>264.0</ele><time>2026-03-24T11:43:20.856Z</time></trkpt><trkpt lat="45.69053" lon="9.2208486"><ele>264.5</ele><time>2026-03-24T11:43:21.856Z</time></trkpt><trkpt lat="45.6903208" lon="9.2206391"><ele>265.0</ele><time>2026-03-24T11:43:22.857Z</time></trkpt><trkpt lat="45.6901101" lon="9.2204295"><ele>263.5</ele><time>2026-03-24T11:43:23.855Z</time></trkpt><trkpt lat="45.6898957" lon="9.2202054"><ele>262.0</ele><time>2026-03-24T11:43:24.854Z</time></trkpt><trkpt lat="45.6896945" lon="9.2199776"><ele>261.0</ele><time>2026-03-24T11:43:25.851Z</time></trkpt><trkpt lat="45.6894699" lon="9.2197555"><ele>260.0</ele><time>2026-03-24T11:43:26.852Z</time></trkpt><trkpt lat="45.6892474" lon="9.2195104"><ele>260.0</ele><time>2026-03-24T11:43:27.877Z</time></trkpt><trkpt lat="45.68903" lon="9.2192912"><ele>260.0</ele><time>2026-03-24T11:43:28.862Z</time></trkpt><trkpt lat="45.6888064" lon="9.2190562"><ele>261.0</ele><time>2026-03-24T11:43:29.859Z</time></trkpt><trkpt lat="45.6885942" lon="9.2188215"><ele>262.0</ele><time>2026-03-24T11:43:30.857Z</time></trkpt><trkpt lat="45.6883529" lon="9.2185898"><ele>262.0</ele><time>2026-03-24T11:43:31.862Z</time></trkpt><trkpt lat="45.6881542" lon="9.2183642"><ele>262.0</ele><time>2026-03-24T11:43:32.862Z</time></trkpt><trkpt lat="45.6879659" lon="9.2181404"><ele>259.5</ele><time>2026-03-24T11:43:33.862Z</time></trkpt><trkpt lat="45.6877528" lon="9.2179208"><ele>257.0</ele><time>2026-03-24T11:43:34.859Z</time></trkpt><trkpt lat="45.6875474" lon="9.2176827"><ele>257.0</ele><time>2026-03-24T11:43:35.861Z</time></trkpt><trkpt lat="45.6873039" lon="9.2174564"><ele>257.0</ele><time>2026-03-24T11:43:36.858Z</time></trkpt><trkpt lat="45.6870867" lon="9.2171969"><ele>259.0</ele><time>2026-03-24T11:43:37.858Z</time></trkpt><trkpt lat="45.686889" lon="9.2169513"><ele>261.0</ele><time>2026-03-24T11:43:38.857Z</time></trkpt><trkpt lat="45.6866796" lon="9.2167161"><ele>261.0</ele><time>2026-03-24T11:43:39.872Z</time></trkpt><trkpt lat="45.6864391" lon="9.2165092"><ele>261.0</ele><time>2026-03-24T11:43:40.85Z</time></trkpt><trkpt lat="45.6862024" lon="9.2163365"><ele>259.0</ele><time>2026-03-24T11:43:41.85Z</time></trkpt><trkpt lat="45.68597" lon="9.2162005"><ele>257.0</ele><time>2026-03-24T11:43:42.841Z</time></trkpt><trkpt lat="45.6857285" lon="9.2161194"><ele>257.0</ele><time>2026-03-24T11:43:43.842Z</time></trkpt><trkpt lat="45.6854698" lon="9.2160658"><ele>257.0</ele><time>2026-03-24T11:43:44.846Z</time></trkpt><trkpt lat="45.6851898" lon="9.2159774"><ele>256.0</ele><time>2026-03-24T11:43:45.842Z</time></trkpt><trkpt lat="45.6849043" lon="9.2159352"><ele>255.0</ele><time>2026-03-24T11:43:46.853Z</time></trkpt><trkpt lat="45.6846216" lon="9.2159156"><ele>254.0</ele><time>2026-03-24T11:43:47.848Z</time></trkpt><trkpt lat="45.684382" lon="9.2159667"><ele>253.0</ele><time>2026-03-24T11:43:48.849Z</time></trkpt><trkpt lat="45.6841098" lon="9.2159918"><ele>253.0</ele><time>2026-03-24T11:43:49.86Z</time></trkpt><trkpt lat="45.6838565" lon="9.2161056"><ele>253.0</ele><time>2026-03-24T11:43:50.854Z</time></trkpt><trkpt lat="45.6835824" lon="9.2162407"><ele>253.5</ele><time>2026-03-24T11:43:51.863Z</time></trkpt><trkpt lat="45.6832891" lon="9.2163491"><ele>254.0</ele><time>2026-03-24T11:43:52.862Z</time></trkpt><trkpt lat="45.6829609" lon="9.2164571"><ele>252.5</ele><time>2026-03-24T11:43:53.859Z</time></trkpt><trkpt lat="45.6826323" lon="9.2165764"><ele>251.0</ele><time>2026-03-24T11:43:54.859Z</time></trkpt><trkpt lat="45.6823142" lon="9.2166847"><ele>251.0</ele><time>2026-03-24T11:43:55.861Z</time></trkpt><trkpt lat="45.6819665" lon="9.2168136"><ele>251.0</ele><time>2026-03-24T11:43:56.855Z</time></trkpt><trkpt lat="45.6816389" lon="9.2169323"><ele>251.0</ele><time>2026-03-24T11:43:57.867Z</time></trkpt><trkpt lat="45.6813159" lon="9.2170372"><ele>251.0</ele><time>2026-03-24T11:43:58.862Z</time></trkpt><trkpt lat="45.6809925" lon="9.217157"><ele>251.0</ele><time>2026-03-24T11:43:59.864Z</time></trkpt><trkpt lat="45.680676" lon="9.2172686"><ele>251.0</ele><time>2026-03-24T11:44:00.862Z</time></trkpt><trkpt lat="45.6803731" lon="9.2173818"><ele>250.5</ele><time>2026-03-24T11:44:01.868Z</time></trkpt><trkpt lat="45.6800585" lon="9.2174991"><ele>250.0</ele><time>2026-03-24T11:44:02.863Z</time></trkpt><trkpt lat="45.6797613" lon="9.2175872"><ele>250.0</ele><time>2026-03-24T11:44:03.856Z</time></trkpt><trkpt lat="45.6794605" lon="9.2176921"><ele>250.0</ele><time>2026-03-24T11:44:04.862Z</time></trkpt><trkpt lat="45.6791633" lon="9.217809"><ele>250.0</ele><time>2026-03-24T11:44:05.861Z</time></trkpt><trkpt lat="45.6788711" lon="9.217919"><ele>250.0</ele><time>2026-03-24T11:44:06.861Z</time></trkpt><trkpt lat="45.678562" lon="9.2180178"><ele>249.5</ele><time>2026-03-24T11:44:07.857Z</time></trkpt><trkpt lat="45.678256" lon="9.2181401"><ele>249.0</ele><time>2026-03-24T11:44:08.86Z</time></trkpt><trkpt lat="45.6779394" lon="9.2182643"><ele>250.0</ele><time>2026-03-24T11:44:09.862Z</time></trkpt><trkpt lat="45.6776053" lon="9.2183629"><ele>251.0</ele><time>2026-03-24T11:44:10.871Z</time></trkpt><trkpt lat="45.6772602" lon="9.2184723"><ele>248.5</ele><time>2026-03-24T11:44:11.849Z</time></trkpt><trkpt lat="45.6769216" lon="9.2185819"><ele>246.0</ele><time>2026-03-24T11:44:12.854Z</time></trkpt><trkpt lat="45.6765541" lon="9.2187617"><ele>246.0</ele><time>2026-03-24T11:44:13.858Z</time></trkpt><trkpt lat="45.6761704" lon="9.2189146"><ele>246.0</ele><time>2026-03-24T11:44:14.852Z</time></trkpt><trkpt lat="45.675779" lon="9.2190524"><ele>246.0</ele><time>2026-03-24T11:44:15.849Z</time></trkpt><trkpt lat="45.6754013" lon="9.2191915"><ele>246.0</ele><time>2026-03-24T11:44:16.852Z</time></trkpt><trkpt lat="45.6750191" lon="9.2193093"><ele>246.0</ele><time>2026-03-24T11:44:17.854Z</time></trkpt><trkpt lat="45.6746831" lon="9.2194182"><ele>246.0</ele><time>2026-03-24T11:44:18.849Z</time></trkpt><trkpt lat="45.674334" lon="9.2195253"><ele>245.5</ele><time>2026-03-24T11:44:19.852Z</time></trkpt><trkpt lat="45.6740055" lon="9.2196414"><ele>245.0</ele><time>2026-03-24T11:44:20.858Z</time></trkpt><trkpt lat="45.6736687" lon="9.2197567"><ele>244.5</ele><time>2026-03-24T11:44:21.858Z</time></trkpt><trkpt lat="45.6733463" lon="9.2198751"><ele>244.0</ele><time>2026-03-24T11:44:22.866Z</time></trkpt><trkpt lat="45.6730227" lon="9.2199911"><ele>243.0</ele><time>2026-03-24T11:44:23.861Z</time></trkpt><trkpt lat="45.6726846" lon="9.2200929"><ele>242.0</ele><time>2026-03-24T11:44:24.863Z</time></trkpt><trkpt lat="45.6723749" lon="9.2202184"><ele>242.0</ele><time>2026-03-24T11:44:25.863Z</time></trkpt><trkpt lat="45.6720543" lon="9.2203474"><ele>242.0</ele><time>2026-03-24T11:44:26.856Z</time></trkpt><trkpt lat="45.6717313" lon="9.2204473"><ele>241.0</ele><time>2026-03-24T11:44:27.862Z</time></trkpt><trkpt lat="45.671408" lon="9.2205632"><ele>240.0</ele><time>2026-03-24T11:44:28.865Z</time></trkpt><trkpt lat="45.6710786" lon="9.2206753"><ele>239.0</ele><time>2026-03-24T11:44:29.861Z</time></trkpt><trkpt lat="45.6707721" lon="9.2207791"><ele>238.0</ele><time>2026-03-24T11:44:30.859Z</time></trkpt><trkpt lat="45.6704583" lon="9.2208988"><ele>238.5</ele><time>2026-03-24T11:44:31.861Z</time></trkpt><trkpt lat="45.6701463" lon="9.2210223"><ele>239.0</ele><time>2026-03-24T11:44:32.856Z</time></trkpt><trkpt lat="45.6698511" lon="9.2211292"><ele>239.0</ele><time>2026-03-24T11:44:33.854Z</time></trkpt><trkpt lat="45.6695605" lon="9.2212271"><ele>239.0</ele><time>2026-03-24T11:44:34.852Z</time></trkpt><trkpt lat="45.6692647" lon="9.221335"><ele>237.5</ele><time>2026-03-24T11:44:35.851Z</time></trkpt><trkpt lat="45.6689664" lon="9.2214379"><ele>236.0</ele><time>2026-03-24T11:44:36.859Z</time></trkpt><trkpt lat="45.6686673" lon="9.2215399"><ele>236.5</ele><time>2026-03-24T11:44:37.865Z</time></trkpt><trkpt lat="45.6683983" lon="9.221623"><ele>237.0</ele><time>2026-03-24T11:44:38.865Z</time></trkpt><trkpt lat="45.6681017" lon="9.2217189"><ele>237.0</ele><time>2026-03-24T11:44:39.867Z</time></trkpt><trkpt lat="45.6678" lon="9.2218324"><ele>237.0</ele><time>2026-03-24T11:44:40.867Z</time></trkpt><trkpt lat="45.6675267" lon="9.2219524"><ele>236.0</ele><time>2026-03-24T11:44:41.879Z</time></trkpt><trkpt lat="45.6672639" lon="9.2220746"><ele>235.0</ele><time>2026-03-24T11:44:42.863Z</time></trkpt><trkpt lat="45.6669885" lon="9.2221632"><ele>236.5</ele><time>2026-03-24T11:44:43.864Z</time></trkpt><trkpt lat="45.666712" lon="9.2222461"><ele>238.0</ele><time>2026-03-24T11:44:44.866Z</time></trkpt><trkpt lat="45.6664239" lon="9.2223686"><ele>238.0</ele><time>2026-03-24T11:44:45.86Z</time></trkpt><trkpt lat="45.6661283" lon="9.2224623"><ele>238.0</ele><time>2026-03-24T11:44:46.863Z</time></trkpt><trkpt lat="45.6658469" lon="9.2225754"><ele>237.0</ele><time>2026-03-24T11:44:47.861Z</time></trkpt><trkpt lat="45.6655533" lon="9.2226596"><ele>236.0</ele><time>2026-03-24T11:44:48.858Z</time></trkpt><trkpt lat="45.66526" lon="9.2227876"><ele>236.0</ele><time>2026-03-24T11:44:49.856Z</time></trkpt><trkpt lat="45.6649795" lon="9.222892"><ele>236.0</ele><time>2026-03-24T11:44:50.854Z</time></trkpt><trkpt lat="45.664689" lon="9.2229816"><ele>235.5</ele><time>2026-03-24T11:44:51.851Z</time></trkpt><trkpt lat="45.6644151" lon="9.2230695"><ele>235.0</ele><time>2026-03-24T11:44:52.863Z</time></trkpt><trkpt lat="45.6641338" lon="9.2231509"><ele>234.5</ele><time>2026-03-24T11:44:53.848Z</time></trkpt><trkpt lat="45.6638565" lon="9.223223"><ele>234.0</ele><time>2026-03-24T11:44:54.862Z</time></trkpt><trkpt lat="45.6635668" lon="9.2233322"><ele>233.5</ele><time>2026-03-24T11:44:55.859Z</time></trkpt><trkpt lat="45.6632857" lon="9.2234357"><ele>233.0</ele><time>2026-03-24T11:44:56.862Z</time></trkpt><trkpt lat="45.6630156" lon="9.2235578"><ele>233.0</ele><time>2026-03-24T11:44:57.872Z</time></trkpt><trkpt lat="45.6627632" lon="9.223655"><ele>233.0</ele><time>2026-03-24T11:44:58.866Z</time></trkpt><trkpt lat="45.6624968" lon="9.2237542"><ele>233.0</ele><time>2026-03-24T11:44:59.875Z</time></trkpt><trkpt lat="45.6622467" lon="9.2238459"><ele>233.0</ele><time>2026-03-24T11:45:00.864Z</time></trkpt><trkpt lat="45.6619885" lon="9.2239501"><ele>233.0</ele><time>2026-03-24T11:45:01.859Z</time></trkpt><trkpt lat="45.6617406" lon="9.22405"><ele>233.0</ele><time>2026-03-24T11:45:02.859Z</time></trkpt><trkpt lat="45.6614767" lon="9.2241453"><ele>233.0</ele><time>2026-03-24T11:45:03.853Z</time></trkpt><trkpt lat="45.6612123" lon="9.2242479"><ele>233.0</ele><time>2026-03-24T11:45:04.86Z</time></trkpt><trkpt lat="45.660939" lon="9.2243251"><ele>231.5</ele><time>2026-03-24T11:45:05.864Z</time></trkpt><trkpt lat="45.6606633" lon="9.2244201"><ele>230.0</ele><time>2026-03-24T11:45:06.862Z</time></trkpt><trkpt lat="45.6603834" lon="9.2245191"><ele>230.0</ele><time>2026-03-24T11:45:07.864Z</time></trkpt><trkpt lat="45.6601162" lon="9.2246089"><ele>230.0</ele><time>2026-03-24T11:45:08.861Z</time></trkpt><trkpt lat="45.6598415" lon="9.2246802"><ele>230.0</ele><time>2026-03-24T11:45:09.863Z</time></trkpt><trkpt lat="45.6595957" lon="9.2247611"><ele>230.0</ele><time>2026-03-24T11:45:10.863Z</time></trkpt><trkpt lat="45.6593272" lon="9.2248509"><ele>230.5</ele><time>2026-03-24T11:45:11.869Z</time></trkpt><trkpt lat="45.6590602" lon="9.2249495"><ele>231.0</ele><time>2026-03-24T11:45:12.882Z</time></trkpt><trkpt lat="45.6587713" lon="9.2250696"><ele>231.0</ele><time>2026-03-24T11:45:13.866Z</time></trkpt><trkpt lat="45.6585097" lon="9.2251717"><ele>231.0</ele><time>2026-03-24T11:45:14.872Z</time></trkpt><trkpt lat="45.6582288" lon="9.2252872"><ele>231.0</ele><time>2026-03-24T11:45:15.867Z</time></trkpt><trkpt lat="45.6579335" lon="9.2253824"><ele>231.0</ele><time>2026-03-24T11:45:16.879Z</time></trkpt><trkpt lat="45.6576489" lon="9.2254854"><ele>230.0</ele><time>2026-03-24T11:45:17.863Z</time></trkpt><trkpt lat="45.6573628" lon="9.2256081"><ele>229.0</ele><time>2026-03-24T11:45:18.864Z</time></trkpt><trkpt lat="45.657095" lon="9.225701"><ele>229.0</ele><time>2026-03-24T11:45:19.866Z</time></trkpt><trkpt lat="45.656845" lon="9.225787"><ele>229.0</ele><time>2026-03-24T11:45:20.866Z</time></trkpt><trkpt lat="45.6565834" lon="9.2258601"><ele>229.0</ele><time>2026-03-24T11:45:21.865Z</time></trkpt><trkpt lat="45.656339" lon="9.2259401"><ele>229.0</ele><time>2026-03-24T11:45:22.863Z</time></trkpt><trkpt lat="45.6560885" lon="9.2260092"><ele>229.0</ele><time>2026-03-24T11:45:23.85Z</time></trkpt><trkpt lat="45.6557892" lon="9.2260463"><ele>229.0</ele><time>2026-03-24T11:45:24.855Z</time></trkpt><trkpt lat="45.6554947" lon="9.2260372"><ele>227.0</ele><time>2026-03-24T11:45:25.855Z</time></trkpt><trkpt lat="45.6551949" lon="9.2260273"><ele>225.0</ele><time>2026-03-24T11:45:26.865Z</time></trkpt><trkpt lat="45.6549303" lon="9.2259925"><ele>225.0</ele><time>2026-03-24T11:45:27.866Z</time></trkpt><trkpt lat="45.6546258" lon="9.2259528"><ele>225.0</ele><time>2026-03-24T11:45:28.86Z</time></trkpt><trkpt lat="45.6543525" lon="9.2259365"><ele>225.5</ele><time>2026-03-24T11:45:29.864Z</time></trkpt><trkpt lat="45.6540451" lon="9.2259149"><ele>226.0</ele><time>2026-03-24T11:45:30.861Z</time></trkpt><trkpt lat="45.6537573" lon="9.2258941"><ele>225.5</ele><time>2026-03-24T11:45:31.864Z</time></trkpt><trkpt lat="45.6534343" lon="9.2259025"><ele>225.0</ele><time>2026-03-24T11:45:32.868Z</time></trkpt><trkpt lat="45.6531069" lon="9.2258783"><ele>225.0</ele><time>2026-03-24T11:45:33.867Z</time></trkpt><trkpt lat="45.6528335" lon="9.2258333"><ele>225.0</ele><time>2026-03-24T11:45:34.868Z</time></trkpt><trkpt lat="45.6525435" lon="9.225827"><ele>224.0</ele><time>2026-03-24T11:45:35.87Z</time></trkpt><trkpt lat="45.6522616" lon="9.2258395"><ele>223.0</ele><time>2026-03-24T11:45:36.867Z</time></trkpt><trkpt lat="45.651976" lon="9.225831"><ele>224.0</ele><time>2026-03-24T11:45:37.864Z</time></trkpt><trkpt lat="45.6516906" lon="9.225791"><ele>225.0</ele><time>2026-03-24T11:45:38.872Z</time></trkpt><trkpt lat="45.6513974" lon="9.2257703"><ele>224.5</ele><time>2026-03-24T11:45:39.869Z</time></trkpt><trkpt lat="45.6510954" lon="9.2257712"><ele>224.0</ele><time>2026-03-24T11:45:40.863Z</time></trkpt><trkpt lat="45.6508132" lon="9.2257577"><ele>224.0</ele><time>2026-03-24T11:45:41.865Z</time></trkpt><trkpt lat="45.650518" lon="9.2257216"><ele>224.0</ele><time>2026-03-24T11:45:42.862Z</time></trkpt><trkpt lat="45.6502302" lon="9.2257"><ele>222.5</ele><time>2026-03-24T11:45:43.889Z</time></trkpt><trkpt lat="45.649942" lon="9.2257143"><ele>221.0</ele><time>2026-03-24T11:45:44.865Z</time></trkpt><trkpt lat="45.6496593" lon="9.2256918"><ele>221.0</ele><time>2026-03-24T11:45:45.876Z</time></trkpt><trkpt lat="45.6493654" lon="9.2256738"><ele>221.0</ele><time>2026-03-24T11:45:46.876Z</time></trkpt><trkpt lat="45.649088" lon="9.2256645"><ele>221.0</ele><time>2026-03-24T11:45:47.873Z</time></trkpt><trkpt lat="45.6488243" lon="9.2256175"><ele>221.0</ele><time>2026-03-24T11:45:48.867Z</time></trkpt><trkpt lat="45.6485279" lon="9.2256158"><ele>220.5</ele><time>2026-03-24T11:45:49.868Z</time></trkpt><trkpt lat="45.6482594" lon="9.2256159"><ele>220.0</ele><time>2026-03-24T11:45:50.87Z</time></trkpt><trkpt lat="45.6479421" lon="9.2256153"><ele>221.0</ele><time>2026-03-24T11:45:51.868Z</time></trkpt><trkpt lat="45.6476748" lon="9.2256188"><ele>222.0</ele><time>2026-03-24T11:45:52.875Z</time></trkpt><trkpt lat="45.647395" lon="9.2255955"><ele>222.0</ele><time>2026-03-24T11:45:53.868Z</time></trkpt><trkpt lat="45.6471027" lon="9.2255806"><ele>222.0</ele><time>2026-03-24T11:45:54.867Z</time></trkpt><trkpt lat="45.6468485" lon="9.2255505"><ele>222.5</ele><time>2026-03-24T11:45:55.869Z</time></trkpt><trkpt lat="45.646574" lon="9.2255266"><ele>223.0</ele><time>2026-03-24T11:45:56.866Z</time></trkpt><trkpt lat="45.6462786" lon="9.2255417"><ele>221.5</ele><time>2026-03-24T11:45:57.877Z</time></trkpt><trkpt lat="45.6459665" lon="9.2255145"><ele>220.0</ele><time>2026-03-24T11:45:58.871Z</time></trkpt><trkpt lat="45.6456916" lon="9.2254967"><ele>220.0</ele><time>2026-03-24T11:45:59.868Z</time></trkpt><trkpt lat="45.6454074" lon="9.2254829"><ele>220.0</ele><time>2026-03-24T11:46:00.872Z</time></trkpt><trkpt lat="45.6451179" lon="9.2254817"><ele>219.0</ele><time>2026-03-24T11:46:01.87Z</time></trkpt><trkpt lat="45.6448244" lon="9.2254608"><ele>218.0</ele><time>2026-03-24T11:46:02.866Z</time></trkpt><trkpt lat="45.6445477" lon="9.2254456"><ele>218.5</ele><time>2026-03-24T11:46:03.868Z</time></trkpt><trkpt lat="45.6442636" lon="9.2254224"><ele>219.0</ele><time>2026-03-24T11:46:04.866Z</time></trkpt><trkpt lat="45.6439532" lon="9.2254181"><ele>219.0</ele><time>2026-03-24T11:46:05.871Z</time></trkpt><trkpt lat="45.6436858" lon="9.2253872"><ele>219.0</ele><time>2026-03-24T11:46:06.866Z</time></trkpt><trkpt lat="45.6434023" lon="9.2253683"><ele>219.0</ele><time>2026-03-24T11:46:07.868Z</time></trkpt><trkpt lat="45.6431226" lon="9.2253623"><ele>219.0</ele><time>2026-03-24T11:46:08.863Z</time></trkpt><trkpt lat="45.6428591" lon="9.225356"><ele>218.0</ele><time>2026-03-24T11:46:09.863Z</time></trkpt><trkpt lat="45.6425596" lon="9.225331"><ele>217.0</ele><time>2026-03-24T11:46:10.864Z</time></trkpt><trkpt lat="45.6422853" lon="9.2253094"><ele>217.0</ele><time>2026-03-24T11:46:11.869Z</time></trkpt><trkpt lat="45.6420242" lon="9.2252805"><ele>217.0</ele><time>2026-03-24T11:46:12.871Z</time></trkpt><trkpt lat="45.6417334" lon="9.2252534"><ele>217.0</ele><time>2026-03-24T11:46:13.87Z</time></trkpt><trkpt lat="45.641442" lon="9.2252514"><ele>217.0</ele><time>2026-03-24T11:46:14.879Z</time></trkpt><trkpt lat="45.6411678" lon="9.2252373"><ele>216.0</ele><time>2026-03-24T11:46:15.865Z</time></trkpt><trkpt lat="45.6408627" lon="9.2252174"><ele>215.0</ele><time>2026-03-24T11:46:16.871Z</time></trkpt><trkpt lat="45.6405772" lon="9.2252112"><ele>215.5</ele><time>2026-03-24T11:46:17.871Z</time></trkpt><trkpt lat="45.6402975" lon="9.2251783"><ele>216.0</ele><time>2026-03-24T11:46:18.87Z</time></trkpt><trkpt lat="45.6400246" lon="9.2251697"><ele>216.0</ele><time>2026-03-24T11:46:19.874Z</time></trkpt><trkpt lat="45.6397199" lon="9.2251631"><ele>216.0</ele><time>2026-03-24T11:46:20.874Z</time></trkpt><trkpt lat="45.6394355" lon="9.2251447"><ele>215.5</ele><time>2026-03-24T11:46:21.873Z</time></trkpt><trkpt lat="45.6391553" lon="9.2251478"><ele>215.0</ele><time>2026-03-24T11:46:22.868Z</time></trkpt><trkpt lat="45.6388737" lon="9.2251424"><ele>213.5</ele><time>2026-03-24T11:46:23.867Z</time></trkpt><trkpt lat="45.6386079" lon="9.2251346"><ele>212.0</ele><time>2026-03-24T11:46:24.871Z</time></trkpt><trkpt lat="45.6383443" lon="9.2251061"><ele>212.0</ele><time>2026-03-24T11:46:25.866Z</time></trkpt><trkpt lat="45.6380561" lon="9.2250954"><ele>212.0</ele><time>2026-03-24T11:46:26.867Z</time></trkpt><trkpt lat="45.6377674" lon="9.2250791"><ele>211.0</ele><time>2026-03-24T11:46:27.876Z</time></trkpt><trkpt lat="45.6374791" lon="9.2250637"><ele>210.0</ele><time>2026-03-24T11:46:28.869Z</time></trkpt><trkpt lat="45.6372167" lon="9.2250523"><ele>210.0</ele><time>2026-03-24T11:46:29.865Z</time></trkpt><trkpt lat="45.6369446" lon="9.2250415"><ele>210.0</ele><time>2026-03-24T11:46:30.867Z</time></trkpt><trkpt lat="45.6366303" lon="9.2250228"><ele>210.0</ele><time>2026-03-24T11:46:31.865Z</time></trkpt><trkpt lat="45.6363487" lon="9.2250009"><ele>210.0</ele><time>2026-03-24T11:46:32.865Z</time></trkpt><trkpt lat="45.6361142" lon="9.2250115"><ele>210.5</ele><time>2026-03-24T11:46:33.85Z</time></trkpt><trkpt lat="45.6358435" lon="9.2250007"><ele>211.0</ele><time>2026-03-24T11:46:34.853Z</time></trkpt><trkpt lat="45.6355636" lon="9.2249808"><ele>210.0</ele><time>2026-03-24T11:46:35.856Z</time></trkpt><trkpt lat="45.6352959" lon="9.2249908"><ele>209.0</ele><time>2026-03-24T11:46:36.856Z</time></trkpt><trkpt lat="45.6350222" lon="9.2250003"><ele>209.0</ele><time>2026-03-24T11:46:37.848Z</time></trkpt><trkpt lat="45.634754" lon="9.2249739"><ele>209.0</ele><time>2026-03-24T11:46:38.852Z</time></trkpt><trkpt lat="45.6344635" lon="9.2249351"><ele>208.5</ele><time>2026-03-24T11:46:39.841Z</time></trkpt><trkpt lat="45.6341715" lon="9.2249522"><ele>208.0</ele><time>2026-03-24T11:46:40.845Z</time></trkpt><trkpt lat="45.6338804" lon="9.2249376"><ele>207.5</ele><time>2026-03-24T11:46:41.842Z</time></trkpt><trkpt lat="45.6336153" lon="9.2248995"><ele>207.0</ele><time>2026-03-24T11:46:42.849Z</time></trkpt><trkpt lat="45.6333286" lon="9.2248813"><ele>207.0</ele><time>2026-03-24T11:46:43.855Z</time></trkpt><trkpt lat="45.6330434" lon="9.2248507"><ele>207.0</ele><time>2026-03-24T11:46:44.859Z</time></trkpt><trkpt lat="45.6327586" lon="9.2248064"><ele>205.5</ele><time>2026-03-24T11:46:45.87Z</time></trkpt><trkpt lat="45.6324634" lon="9.2247679"><ele>204.0</ele><time>2026-03-24T11:46:46.861Z</time></trkpt><trkpt lat="45.6321829" lon="9.2247695"><ele>206.0</ele><time>2026-03-24T11:46:47.863Z</time></trkpt><trkpt lat="45.6318913" lon="9.2247397"><ele>208.0</ele><time>2026-03-24T11:46:48.865Z</time></trkpt><trkpt lat="45.631593" lon="9.2247358"><ele>208.0</ele><time>2026-03-24T11:46:49.872Z</time></trkpt><trkpt lat="45.6312576" lon="9.2247108"><ele>208.0</ele><time>2026-03-24T11:46:50.864Z</time></trkpt><trkpt lat="45.6309667" lon="9.2247037"><ele>206.5</ele><time>2026-03-24T11:46:51.859Z</time></trkpt><trkpt lat="45.6306533" lon="9.2246971"><ele>205.0</ele><time>2026-03-24T11:46:52.86Z</time></trkpt><trkpt lat="45.6303487" lon="9.2246462"><ele>204.0</ele><time>2026-03-24T11:46:53.857Z</time></trkpt><trkpt lat="45.6300274" lon="9.2246089"><ele>203.0</ele><time>2026-03-24T11:46:54.862Z</time></trkpt><trkpt lat="45.6296924" lon="9.2245971"><ele>203.0</ele><time>2026-03-24T11:46:55.866Z</time></trkpt><trkpt lat="45.629335" lon="9.2245633"><ele>203.0</ele><time>2026-03-24T11:46:56.861Z</time></trkpt><trkpt lat="45.6289674" lon="9.2245602"><ele>204.0</ele><time>2026-03-24T11:46:57.864Z</time></trkpt><trkpt lat="45.6286096" lon="9.224558"><ele>205.0</ele><time>2026-03-24T11:46:58.861Z</time></trkpt><trkpt lat="45.628252" lon="9.2245807"><ele>204.0</ele><time>2026-03-24T11:46:59.852Z</time></trkpt><trkpt lat="45.6275435" lon="9.224591"><ele>204.0</ele><time>2026-03-24T11:47:01.851Z</time></trkpt><trkpt lat="45.6271982" lon="9.2245742"><ele>204.0</ele><time>2026-03-24T11:47:02.856Z</time></trkpt><trkpt lat="45.6268392" lon="9.224552"><ele>202.0</ele><time>2026-03-24T11:47:03.852Z</time></trkpt><trkpt lat="45.6264694" lon="9.2245147"><ele>200.0</ele><time>2026-03-24T11:47:04.853Z</time></trkpt><trkpt lat="45.626103" lon="9.2244913"><ele>200.0</ele><time>2026-03-24T11:47:05.86Z</time></trkpt><trkpt lat="45.625724" lon="9.2244611"><ele>200.0</ele><time>2026-03-24T11:47:06.86Z</time></trkpt><trkpt lat="45.6253819" lon="9.2244216"><ele>199.0</ele><time>2026-03-24T11:47:07.861Z</time></trkpt><trkpt lat="45.6249815" lon="9.2244077"><ele>198.0</ele><time>2026-03-24T11:47:08.859Z</time></trkpt><trkpt lat="45.6246211" lon="9.2243863"><ele>198.0</ele><time>2026-03-24T11:47:09.86Z</time></trkpt><trkpt lat="45.6242447" lon="9.2243839"><ele>198.0</ele><time>2026-03-24T11:47:10.856Z</time></trkpt><trkpt lat="45.6238602" lon="9.2243661"><ele>198.0</ele><time>2026-03-24T11:47:11.858Z</time></trkpt><trkpt lat="45.6234771" lon="9.2243417"><ele>198.0</ele><time>2026-03-24T11:47:12.859Z</time></trkpt><trkpt lat="45.6230794" lon="9.2243258"><ele>198.0</ele><time>2026-03-24T11:47:13.859Z</time></trkpt><trkpt lat="45.6226807" lon="9.2242825"><ele>198.0</ele><time>2026-03-24T11:47:14.862Z</time></trkpt><trkpt lat="45.6222924" lon="9.2242434"><ele>198.5</ele><time>2026-03-24T11:47:15.859Z</time></trkpt><trkpt lat="45.6218909" lon="9.2242392"><ele>199.0</ele><time>2026-03-24T11:47:16.902Z</time></trkpt><trkpt lat="45.6215043" lon="9.2242242"><ele>198.5</ele><time>2026-03-24T11:47:17.86Z</time></trkpt><trkpt lat="45.6211029" lon="9.2242165"><ele>198.0</ele><time>2026-03-24T11:47:18.863Z</time></trkpt><trkpt lat="45.6207062" lon="9.2242309"><ele>198.0</ele><time>2026-03-24T11:47:19.858Z</time></trkpt><trkpt lat="45.6203287" lon="9.2242211"><ele>198.0</ele><time>2026-03-24T11:47:20.854Z</time></trkpt><trkpt lat="45.6199927" lon="9.224195"><ele>197.0</ele><time>2026-03-24T11:47:21.85Z</time></trkpt><trkpt lat="45.6196752" lon="9.2241333"><ele>196.0</ele><time>2026-03-24T11:47:22.847Z</time></trkpt><trkpt lat="45.6193424" lon="9.2241215"><ele>195.5</ele><time>2026-03-24T11:47:23.847Z</time></trkpt><trkpt lat="45.6189918" lon="9.2240901"><ele>195.0</ele><time>2026-03-24T11:47:24.848Z</time></trkpt><trkpt lat="45.6186448" lon="9.2240793"><ele>195.0</ele><time>2026-03-24T11:47:25.855Z</time></trkpt><trkpt lat="45.6182921" lon="9.2240659"><ele>195.0</ele><time>2026-03-24T11:47:26.856Z</time></trkpt><trkpt lat="45.6179261" lon="9.224031"><ele>195.0</ele><time>2026-03-24T11:47:27.863Z</time></trkpt><trkpt lat="45.6175623" lon="9.2240301"><ele>195.0</ele><time>2026-03-24T11:47:28.853Z</time></trkpt><trkpt lat="45.6171986" lon="9.2240045"><ele>194.5</ele><time>2026-03-24T11:47:29.859Z</time></trkpt><trkpt lat="45.6168237" lon="9.2240067"><ele>194.0</ele><time>2026-03-24T11:47:30.86Z</time></trkpt><trkpt lat="45.616487" lon="9.2239589"><ele>194.0</ele><time>2026-03-24T11:47:31.85Z</time></trkpt><trkpt lat="45.6161431" lon="9.2239501"><ele>194.0</ele><time>2026-03-24T11:47:32.852Z</time></trkpt><trkpt lat="45.6158121" lon="9.2239535"><ele>194.0</ele><time>2026-03-24T11:47:33.855Z</time></trkpt><trkpt lat="45.6154682" lon="9.2239452"><ele>194.0</ele><time>2026-03-24T11:47:34.859Z</time></trkpt><trkpt lat="45.6151402" lon="9.2239404"><ele>192.5</ele><time>2026-03-24T11:47:35.851Z</time></trkpt><trkpt lat="45.6148043" lon="9.2239196"><ele>191.0</ele><time>2026-03-24T11:47:36.854Z</time></trkpt><trkpt lat="45.6144617" lon="9.2238894"><ele>191.0</ele><time>2026-03-24T11:47:37.859Z</time></trkpt><trkpt lat="45.6141423" lon="9.2238658"><ele>191.0</ele><time>2026-03-24T11:47:38.853Z</time></trkpt><trkpt lat="45.613805" lon="9.2238482"><ele>192.0</ele><time>2026-03-24T11:47:39.85Z</time></trkpt><trkpt lat="45.6134937" lon="9.2238369"><ele>193.0</ele><time>2026-03-24T11:47:40.842Z</time></trkpt><trkpt lat="45.6132125" lon="9.2238306"><ele>193.0</ele><time>2026-03-24T11:47:41.845Z</time></trkpt><trkpt lat="45.6129421" lon="9.2238328"><ele>193.0</ele><time>2026-03-24T11:47:42.84Z</time></trkpt><trkpt lat="45.6126567" lon="9.2237965"><ele>192.0</ele><time>2026-03-24T11:47:43.839Z</time></trkpt><trkpt lat="45.612373" lon="9.2237826"><ele>191.0</ele><time>2026-03-24T11:47:44.847Z</time></trkpt><trkpt lat="45.6120948" lon="9.2237813"><ele>191.5</ele><time>2026-03-24T11:47:45.835Z</time></trkpt><trkpt lat="45.6118134" lon="9.223757"><ele>192.0</ele><time>2026-03-24T11:47:46.859Z</time></trkpt><trkpt lat="45.6115205" lon="9.223739"><ele>192.0</ele><time>2026-03-24T11:47:47.839Z</time></trkpt><trkpt lat="45.6112353" lon="9.2237195"><ele>192.0</ele><time>2026-03-24T11:47:48.842Z</time></trkpt><trkpt lat="45.6109502" lon="9.2237038"><ele>191.5</ele><time>2026-03-24T11:47:49.853Z</time></trkpt><trkpt lat="45.6106681" lon="9.2236855"><ele>191.0</ele><time>2026-03-24T11:47:50.857Z</time></trkpt><trkpt lat="45.610395" lon="9.2236607"><ele>191.5</ele><time>2026-03-24T11:47:51.857Z</time></trkpt><trkpt lat="45.6101388" lon="9.2236443"><ele>192.0</ele><time>2026-03-24T11:47:52.859Z</time></trkpt><trkpt lat="45.6098788" lon="9.2235993"><ele>192.0</ele><time>2026-03-24T11:47:53.857Z</time></trkpt><trkpt lat="45.6096331" lon="9.2236031"><ele>192.0</ele><time>2026-03-24T11:47:54.857Z</time></trkpt><trkpt lat="45.609382" lon="9.2236313"><ele>191.5</ele><time>2026-03-24T11:47:55.852Z</time></trkpt><trkpt lat="45.6091505" lon="9.2236967"><ele>191.0</ele><time>2026-03-24T11:47:56.865Z</time></trkpt><trkpt lat="45.6089182" lon="9.2238324"><ele>191.5</ele><time>2026-03-24T11:47:57.867Z</time></trkpt><trkpt lat="45.6086658" lon="9.2239921"><ele>192.0</ele><time>2026-03-24T11:47:58.854Z</time></trkpt><trkpt lat="45.6084368" lon="9.2241831"><ele>190.0</ele><time>2026-03-24T11:47:59.85Z</time></trkpt><trkpt lat="45.6081983" lon="9.2243862"><ele>188.0</ele><time>2026-03-24T11:48:00.847Z</time></trkpt><trkpt lat="45.6079816" lon="9.2246247"><ele>187.0</ele><time>2026-03-24T11:48:01.854Z</time></trkpt><trkpt lat="45.6077575" lon="9.2248789"><ele>186.0</ele><time>2026-03-24T11:48:02.846Z</time></trkpt><trkpt lat="45.6075433" lon="9.2251219"><ele>186.0</ele><time>2026-03-24T11:48:03.836Z</time></trkpt><trkpt lat="45.6073368" lon="9.2253605"><ele>186.0</ele><time>2026-03-24T11:48:04.843Z</time></trkpt><trkpt lat="45.6071274" lon="9.2256234"><ele>187.0</ele><time>2026-03-24T11:48:05.837Z</time></trkpt><trkpt lat="45.6069061" lon="9.2258516"><ele>188.0</ele><time>2026-03-24T11:48:06.842Z</time></trkpt><trkpt lat="45.6066668" lon="9.2260572"><ele>188.0</ele><time>2026-03-24T11:48:07.832Z</time></trkpt><trkpt lat="45.6064386" lon="9.226298"><ele>188.0</ele><time>2026-03-24T11:48:08.826Z</time></trkpt><trkpt lat="45.6062374" lon="9.2265459"><ele>187.0</ele><time>2026-03-24T11:48:09.826Z</time></trkpt><trkpt lat="45.6059918" lon="9.22681"><ele>186.0</ele><time>2026-03-24T11:48:10.828Z</time></trkpt><trkpt lat="45.6057839" lon="9.2270711"><ele>187.0</ele><time>2026-03-24T11:48:11.846Z</time></trkpt><trkpt lat="45.6055583" lon="9.2273263"><ele>188.0</ele><time>2026-03-24T11:48:12.84Z</time></trkpt><trkpt lat="45.6053557" lon="9.227558"><ele>187.5</ele><time>2026-03-24T11:48:13.829Z</time></trkpt><trkpt lat="45.6051463" lon="9.2278314"><ele>187.0</ele><time>2026-03-24T11:48:14.826Z</time></trkpt><trkpt lat="45.604926" lon="9.2280887"><ele>186.5</ele><time>2026-03-24T11:48:15.828Z</time></trkpt><trkpt lat="45.6046941" lon="9.2283577"><ele>186.0</ele><time>2026-03-24T11:48:16.834Z</time></trkpt><trkpt lat="45.6044566" lon="9.2285838"><ele>185.5</ele><time>2026-03-24T11:48:17.854Z</time></trkpt><trkpt lat="45.6042282" lon="9.2288322"><ele>185.0</ele><time>2026-03-24T11:48:18.837Z</time></trkpt><trkpt lat="45.6039916" lon="9.2290979"><ele>185.0</ele><time>2026-03-24T11:48:19.844Z</time></trkpt><trkpt lat="45.6037531" lon="9.2293675"><ele>185.0</ele><time>2026-03-24T11:48:20.845Z</time></trkpt><trkpt lat="45.6035083" lon="9.2296423"><ele>184.5</ele><time>2026-03-24T11:48:21.829Z</time></trkpt><trkpt lat="45.6032514" lon="9.2299503"><ele>184.0</ele><time>2026-03-24T11:48:22.829Z</time></trkpt><trkpt lat="45.6029987" lon="9.2302322"><ele>184.0</ele><time>2026-03-24T11:48:23.84Z</time></trkpt><trkpt lat="45.6027335" lon="9.2305446"><ele>184.0</ele><time>2026-03-24T11:48:24.835Z</time></trkpt><trkpt lat="45.6024577" lon="9.2308341"><ele>184.0</ele><time>2026-03-24T11:48:25.836Z</time></trkpt><trkpt lat="45.6021747" lon="9.2311275"><ele>184.0</ele><time>2026-03-24T11:48:26.841Z</time></trkpt><trkpt lat="45.6019" lon="9.2313994"><ele>183.0</ele><time>2026-03-24T11:48:27.84Z</time></trkpt><trkpt lat="45.6016377" lon="9.231664"><ele>182.0</ele><time>2026-03-24T11:48:28.832Z</time></trkpt><trkpt lat="45.6011859" lon="9.2321966"><ele>185.0</ele><time>2026-03-24T11:48:30.838Z</time></trkpt><trkpt lat="45.6009527" lon="9.2324602"><ele>188.0</ele><time>2026-03-24T11:48:31.825Z</time></trkpt><trkpt lat="45.600758" lon="9.2327904"><ele>188.0</ele><time>2026-03-24T11:48:32.835Z</time></trkpt><trkpt lat="45.6005981" lon="9.2331074"><ele>188.0</ele><time>2026-03-24T11:48:33.845Z</time></trkpt><trkpt lat="45.6004285" lon="9.2334546"><ele>185.5</ele><time>2026-03-24T11:48:34.849Z</time></trkpt><trkpt lat="45.6002819" lon="9.2338274"><ele>183.0</ele><time>2026-03-24T11:48:35.834Z</time></trkpt><trkpt lat="45.6001334" lon="9.2342246"><ele>183.0</ele><time>2026-03-24T11:48:36.84Z</time></trkpt><trkpt lat="45.6000126" lon="9.2346192"><ele>183.0</ele><time>2026-03-24T11:48:37.848Z</time></trkpt><trkpt lat="45.5998931" lon="9.2350466"><ele>183.0</ele><time>2026-03-24T11:48:38.845Z</time></trkpt><trkpt lat="45.5997779" lon="9.2354907"><ele>183.0</ele><time>2026-03-24T11:48:39.843Z</time></trkpt><trkpt lat="45.5996406" lon="9.2359476"><ele>183.5</ele><time>2026-03-24T11:48:40.838Z</time></trkpt><trkpt lat="45.5995031" lon="9.2363784"><ele>184.0</ele><time>2026-03-24T11:48:41.843Z</time></trkpt><trkpt lat="45.5993801" lon="9.2368558"><ele>182.0</ele><time>2026-03-24T11:48:42.852Z</time></trkpt><trkpt lat="45.5992648" lon="9.2373324"><ele>180.0</ele><time>2026-03-24T11:48:43.853Z</time></trkpt><trkpt lat="45.5991285" lon="9.2378193"><ele>180.0</ele><time>2026-03-24T11:48:44.852Z</time></trkpt><trkpt lat="45.5989902" lon="9.2382851"><ele>180.0</ele><time>2026-03-24T11:48:45.862Z</time></trkpt><trkpt lat="45.598866" lon="9.238779"><ele>180.5</ele><time>2026-03-24T11:48:46.863Z</time></trkpt><trkpt lat="45.5987169" lon="9.2392971"><ele>181.0</ele><time>2026-03-24T11:48:47.853Z</time></trkpt><trkpt lat="45.5985638" lon="9.2397673"><ele>182.0</ele><time>2026-03-24T11:48:48.867Z</time></trkpt><trkpt lat="45.5983843" lon="9.2402092"><ele>183.0</ele><time>2026-03-24T11:48:49.831Z</time></trkpt><trkpt lat="45.5982462" lon="9.2406254"><ele>182.0</ele><time>2026-03-24T11:48:50.837Z</time></trkpt><trkpt lat="45.59811" lon="9.241014"><ele>181.0</ele><time>2026-03-24T11:48:51.828Z</time></trkpt><trkpt lat="45.5979808" lon="9.2413416"><ele>180.5</ele><time>2026-03-24T11:48:52.823Z</time></trkpt><trkpt lat="45.5978268" lon="9.2416495"><ele>180.0</ele><time>2026-03-24T11:48:53.83Z</time></trkpt><trkpt lat="45.5976034" lon="9.241953"><ele>180.0</ele><time>2026-03-24T11:48:54.829Z</time></trkpt><trkpt lat="45.5974038" lon="9.2422356"><ele>180.0</ele><time>2026-03-24T11:48:55.815Z</time></trkpt><trkpt lat="45.5971516" lon="9.2425061"><ele>179.0</ele><time>2026-03-24T11:48:56.813Z</time></trkpt><trkpt lat="45.5969095" lon="9.2427049"><ele>178.0</ele><time>2026-03-24T11:48:57.818Z</time></trkpt><trkpt lat="45.5966081" lon="9.2429512"><ele>179.0</ele><time>2026-03-24T11:48:58.804Z</time></trkpt><trkpt lat="45.5963213" lon="9.2431317"><ele>180.0</ele><time>2026-03-24T11:48:59.801Z</time></trkpt><trkpt lat="45.5960231" lon="9.2432804"><ele>180.0</ele><time>2026-03-24T11:49:00.82Z</time></trkpt><trkpt lat="45.5957482" lon="9.2434323"><ele>180.0</ele><time>2026-03-24T11:49:01.818Z</time></trkpt><trkpt lat="45.5954451" lon="9.2435713"><ele>179.5</ele><time>2026-03-24T11:49:02.838Z</time></trkpt><trkpt lat="45.5951714" lon="9.243677"><ele>179.0</ele><time>2026-03-24T11:49:03.842Z</time></trkpt><trkpt lat="45.5949143" lon="9.2438054"><ele>179.0</ele><time>2026-03-24T11:49:04.831Z</time></trkpt><trkpt lat="45.5946574" lon="9.2439304"><ele>179.0</ele><time>2026-03-24T11:49:05.838Z</time></trkpt><trkpt lat="45.5944302" lon="9.2440542"><ele>177.0</ele><time>2026-03-24T11:49:06.837Z</time></trkpt><trkpt lat="45.5941993" lon="9.2441991"><ele>175.0</ele><time>2026-03-24T11:49:07.844Z</time></trkpt><trkpt lat="45.5939622" lon="9.2443605"><ele>175.0</ele><time>2026-03-24T11:49:08.843Z</time></trkpt><trkpt lat="45.5937479" lon="9.2445134"><ele>175.0</ele><time>2026-03-24T11:49:09.849Z</time></trkpt><trkpt lat="45.5935188" lon="9.2446217"><ele>175.0</ele><time>2026-03-24T11:49:10.838Z</time></trkpt><trkpt lat="45.5932783" lon="9.2447371"><ele>175.0</ele><time>2026-03-24T11:49:11.833Z</time></trkpt><trkpt lat="45.5930628" lon="9.2448856"><ele>175.66666666666669</ele><time>2026-03-24T11:49:12.839Z</time></trkpt><trkpt lat="45.5928498" lon="9.24501"><ele>176.33333333333334</ele><time>2026-03-24T11:49:13.837Z</time></trkpt><trkpt lat="45.5926472" lon="9.2451294"><ele>177.0</ele><time>2026-03-24T11:49:14.836Z</time></trkpt><trkpt lat="45.592438" lon="9.2452594"><ele>177.0</ele><time>2026-03-24T11:49:15.846Z</time></trkpt><trkpt lat="45.5922352" lon="9.2453825"><ele>177.0</ele><time>2026-03-24T11:49:16.856Z</time></trkpt><trkpt lat="45.5920177" lon="9.2455025"><ele>177.5</ele><time>2026-03-24T11:49:17.853Z</time></trkpt><trkpt lat="45.5917836" lon="9.2456411"><ele>178.0</ele><time>2026-03-24T11:49:18.857Z</time></trkpt><trkpt lat="45.5915815" lon="9.2457615"><ele>178.0</ele><time>2026-03-24T11:49:19.872Z</time></trkpt><trkpt lat="45.5913618" lon="9.2458791"><ele>178.0</ele><time>2026-03-24T11:49:20.852Z</time></trkpt><trkpt lat="45.5911499" lon="9.2459978"><ele>177.0</ele><time>2026-03-24T11:49:21.861Z</time></trkpt><trkpt lat="45.5909307" lon="9.2461155"><ele>176.0</ele><time>2026-03-24T11:49:22.857Z</time></trkpt><trkpt lat="45.5907" lon="9.2462545"><ele>176.0</ele><time>2026-03-24T11:49:23.85Z</time></trkpt><trkpt lat="45.5904717" lon="9.2464154"><ele>176.0</ele><time>2026-03-24T11:49:24.86Z</time></trkpt><trkpt lat="45.5902425" lon="9.2465704"><ele>176.0</ele><time>2026-03-24T11:49:25.854Z</time></trkpt><trkpt lat="45.5900129" lon="9.2467434"><ele>176.0</ele><time>2026-03-24T11:49:26.853Z</time></trkpt><trkpt lat="45.5897921" lon="9.2468949"><ele>176.0</ele><time>2026-03-24T11:49:27.865Z</time></trkpt><trkpt lat="45.5895637" lon="9.2470639"><ele>176.0</ele><time>2026-03-24T11:49:28.857Z</time></trkpt><trkpt lat="45.5893455" lon="9.2472278"><ele>175.0</ele><time>2026-03-24T11:49:29.857Z</time></trkpt><trkpt lat="45.5891258" lon="9.2474074"><ele>174.0</ele><time>2026-03-24T11:49:30.856Z</time></trkpt><trkpt lat="45.588906" lon="9.2475748"><ele>174.0</ele><time>2026-03-24T11:49:31.85Z</time></trkpt><trkpt lat="45.5886927" lon="9.247746"><ele>174.0</ele><time>2026-03-24T11:49:32.853Z</time></trkpt><trkpt lat="45.5884931" lon="9.2479268"><ele>173.5</ele><time>2026-03-24T11:49:33.853Z</time></trkpt><trkpt lat="45.5882884" lon="9.248103"><ele>173.0</ele><time>2026-03-24T11:49:34.853Z</time></trkpt><trkpt lat="45.5880628" lon="9.2483074"><ele>173.0</ele><time>2026-03-24T11:49:35.846Z</time></trkpt><trkpt lat="45.5878135" lon="9.248489"><ele>173.0</ele><time>2026-03-24T11:49:36.842Z</time></trkpt><trkpt lat="45.5875753" lon="9.2486912"><ele>173.0</ele><time>2026-03-24T11:49:37.848Z</time></trkpt><trkpt lat="45.5873261" lon="9.2488786"><ele>173.0</ele><time>2026-03-24T11:49:38.841Z</time></trkpt><trkpt lat="45.5870989" lon="9.249119"><ele>172.5</ele><time>2026-03-24T11:49:39.838Z</time></trkpt><trkpt lat="45.5868803" lon="9.2493014"><ele>172.0</ele><time>2026-03-24T11:49:40.857Z</time></trkpt><trkpt lat="45.5866304" lon="9.249482"><ele>172.0</ele><time>2026-03-24T11:49:41.854Z</time></trkpt><trkpt lat="45.5863833" lon="9.2496918"><ele>172.0</ele><time>2026-03-24T11:49:42.855Z</time></trkpt><trkpt lat="45.586134" lon="9.2498831"><ele>171.5</ele><time>2026-03-24T11:49:43.855Z</time></trkpt><trkpt lat="45.5859099" lon="9.250097"><ele>171.0</ele><time>2026-03-24T11:49:44.858Z</time></trkpt><trkpt lat="45.585647" lon="9.2503006"><ele>171.0</ele><time>2026-03-24T11:49:45.845Z</time></trkpt><trkpt lat="45.5854337" lon="9.2504911"><ele>171.0</ele><time>2026-03-24T11:49:46.851Z</time></trkpt><trkpt lat="45.5851749" lon="9.2506349"><ele>170.0</ele><time>2026-03-24T11:49:47.843Z</time></trkpt><trkpt lat="45.5849453" lon="9.2507559"><ele>169.0</ele><time>2026-03-24T11:49:48.829Z</time></trkpt><trkpt lat="45.5847092" lon="9.2508731"><ele>168.5</ele><time>2026-03-24T11:49:49.812Z</time></trkpt><trkpt lat="45.5844466" lon="9.2509564"><ele>168.0</ele><time>2026-03-24T11:49:50.807Z</time></trkpt><trkpt lat="45.5841991" lon="9.2510397"><ele>168.0</ele><time>2026-03-24T11:49:51.771Z</time></trkpt><trkpt lat="45.5839538" lon="9.2511164"><ele>168.0</ele><time>2026-03-24T11:49:52.753Z</time></trkpt><trkpt lat="45.5837115" lon="9.2511998"><ele>158.0</ele><time>2026-03-24T11:49:53.732Z</time></trkpt><trkpt lat="45.5677472" lon="9.2448498"><ele>158.0</ele><time>2026-03-24T11:50:49.795Z</time></trkpt><trkpt lat="45.5675533" lon="9.2446869"><ele>158.0</ele><time>2026-03-24T11:50:50.796Z</time></trkpt><trkpt lat="45.5673707" lon="9.2445651"><ele>158.0</ele><time>2026-03-24T11:50:51.825Z</time></trkpt><trkpt lat="45.5671744" lon="9.2444078"><ele>158.33333333333331</ele><time>2026-03-24T11:50:52.842Z</time></trkpt><trkpt lat="45.5669703" lon="9.2443082"><ele>158.66666666666666</ele><time>2026-03-24T11:50:53.829Z</time></trkpt><trkpt lat="45.566761" lon="9.2442497"><ele>159.0</ele><time>2026-03-24T11:50:54.83Z</time></trkpt><trkpt lat="45.5663159" lon="9.2440293"><ele>160.0</ele><time>2026-03-24T11:50:56.838Z</time></trkpt><trkpt lat="45.5660687" lon="9.2439594"><ele>161.0</ele><time>2026-03-24T11:50:57.842Z</time></trkpt><trkpt lat="45.5658496" lon="9.2438737"><ele>161.0</ele><time>2026-03-24T11:50:58.851Z</time></trkpt><trkpt lat="45.5656049" lon="9.2438012"><ele>161.0</ele><time>2026-03-24T11:50:59.843Z</time></trkpt><trkpt lat="45.5653954" lon="9.2437168"><ele>160.0</ele><time>2026-03-24T11:51:00.846Z</time></trkpt><trkpt lat="45.5651686" lon="9.2436202"><ele>159.0</ele><time>2026-03-24T11:51:01.854Z</time></trkpt><trkpt lat="45.5649216" lon="9.2435269"><ele>159.0</ele><time>2026-03-24T11:51:02.849Z</time></trkpt><trkpt lat="45.5646978" lon="9.2434415"><ele>159.0</ele><time>2026-03-24T11:51:03.859Z</time></trkpt><trkpt lat="45.5644537" lon="9.2433316"><ele>158.5</ele><time>2026-03-24T11:51:04.858Z</time></trkpt><trkpt lat="45.5642086" lon="9.2432429"><ele>158.0</ele><time>2026-03-24T11:51:05.857Z</time></trkpt><trkpt lat="45.5639781" lon="9.2431401"><ele>158.0</ele><time>2026-03-24T11:51:06.859Z</time></trkpt><trkpt lat="45.5637722" lon="9.2430373"><ele>158.0</ele><time>2026-03-24T11:51:07.863Z</time></trkpt><trkpt lat="45.5635606" lon="9.2429643"><ele>158.0</ele><time>2026-03-24T11:51:08.861Z</time></trkpt><trkpt lat="45.5633528" lon="9.2429004"><ele>158.0</ele><time>2026-03-24T11:51:09.865Z</time></trkpt><trkpt lat="45.5631502" lon="9.2428062"><ele>158.0</ele><time>2026-03-24T11:51:10.868Z</time></trkpt><trkpt lat="45.5629452" lon="9.2427203"><ele>158.0</ele><time>2026-03-24T11:51:11.865Z</time></trkpt><trkpt lat="45.5627173" lon="9.2426752"><ele>158.0</ele><time>2026-03-24T11:51:12.866Z</time></trkpt><trkpt lat="45.5625334" lon="9.2425823"><ele>158.0</ele><time>2026-03-24T11:51:13.863Z</time></trkpt><trkpt lat="45.5623381" lon="9.2425141"><ele>158.0</ele><time>2026-03-24T11:51:14.861Z</time></trkpt><trkpt lat="45.5621335" lon="9.2424407"><ele>157.66666666666666</ele><time>2026-03-24T11:51:15.864Z</time></trkpt><trkpt lat="45.5619351" lon="9.242366"><ele>157.33333333333334</ele><time>2026-03-24T11:51:16.865Z</time></trkpt><trkpt lat="45.561735" lon="9.2422852"><ele>157.0</ele><time>2026-03-24T11:51:17.859Z</time></trkpt><trkpt lat="45.5615266" lon="9.2422254"><ele>156.66666666666669</ele><time>2026-03-24T11:51:18.856Z</time></trkpt><trkpt lat="45.5613494" lon="9.2421504"><ele>156.33333333333334</ele><time>2026-03-24T11:51:19.862Z</time></trkpt><trkpt lat="45.5611616" lon="9.2420677"><ele>156.0</ele><time>2026-03-24T11:51:20.86Z</time></trkpt><trkpt lat="45.5609838" lon="9.2419628"><ele>154.33333333333334</ele><time>2026-03-24T11:51:21.855Z</time></trkpt><trkpt lat="45.5607955" lon="9.2418495"><ele>152.66666666666669</ele><time>2026-03-24T11:51:22.876Z</time></trkpt><trkpt lat="45.560608" lon="9.2417611"><ele>151.0</ele><time>2026-03-24T11:51:23.867Z</time></trkpt><trkpt lat="45.5604425" lon="9.2416725"><ele>151.66666666666669</ele><time>2026-03-24T11:51:24.876Z</time></trkpt><trkpt lat="45.560243" lon="9.2416096"><ele>152.33333333333334</ele><time>2026-03-24T11:51:25.877Z</time></trkpt><trkpt lat="45.560048" lon="9.2415514"><ele>153.0</ele><time>2026-03-24T11:51:26.869Z</time></trkpt><trkpt lat="45.5598475" lon="9.2414882"><ele>153.0</ele><time>2026-03-24T11:51:27.878Z</time></trkpt><trkpt lat="45.5596561" lon="9.2413969"><ele>153.0</ele><time>2026-03-24T11:51:28.88Z</time></trkpt><trkpt lat="45.5594661" lon="9.2413088"><ele>153.0</ele><time>2026-03-24T11:51:29.871Z</time></trkpt><trkpt lat="45.5592376" lon="9.241247"><ele>153.0</ele><time>2026-03-24T11:51:30.875Z</time></trkpt><trkpt lat="45.5590463" lon="9.241149"><ele>153.0</ele><time>2026-03-24T11:51:31.873Z</time></trkpt><trkpt lat="45.5588389" lon="9.2410761"><ele>153.0</ele><time>2026-03-24T11:51:32.871Z</time></trkpt><trkpt lat="45.5586415" lon="9.2409588"><ele>153.0</ele><time>2026-03-24T11:51:33.868Z</time></trkpt><trkpt lat="45.5584406" lon="9.2408752"><ele>153.0</ele><time>2026-03-24T11:51:34.869Z</time></trkpt><trkpt lat="45.5582172" lon="9.2407823"><ele>153.0</ele><time>2026-03-24T11:51:35.869Z</time></trkpt><trkpt lat="45.5579821" lon="9.2407022"><ele>152.5</ele><time>2026-03-24T11:51:36.869Z</time></trkpt><trkpt lat="45.5577717" lon="9.240599"><ele>152.0</ele><time>2026-03-24T11:51:37.87Z</time></trkpt><trkpt lat="45.5575397" lon="9.2405205"><ele>152.0</ele><time>2026-03-24T11:51:38.87Z</time></trkpt><trkpt lat="45.5573208" lon="9.2404163"><ele>152.0</ele><time>2026-03-24T11:51:39.868Z</time></trkpt><trkpt lat="45.5570909" lon="9.2403254"><ele>153.0</ele><time>2026-03-24T11:51:40.872Z</time></trkpt><trkpt lat="45.5568518" lon="9.2402301"><ele>154.0</ele><time>2026-03-24T11:51:41.874Z</time></trkpt><trkpt lat="45.5566213" lon="9.240137"><ele>154.0</ele><time>2026-03-24T11:51:42.863Z</time></trkpt><trkpt lat="45.5564066" lon="9.2400652"><ele>154.0</ele><time>2026-03-24T11:51:43.868Z</time></trkpt><trkpt lat="45.5561632" lon="9.2399899"><ele>152.5</ele><time>2026-03-24T11:51:44.868Z</time></trkpt><trkpt lat="45.5559325" lon="9.239886"><ele>151.0</ele><time>2026-03-24T11:51:45.859Z</time></trkpt><trkpt lat="45.5556821" lon="9.2398046"><ele>151.0</ele><time>2026-03-24T11:51:46.864Z</time></trkpt><trkpt lat="45.5554633" lon="9.2396906"><ele>151.0</ele><time>2026-03-24T11:51:47.862Z</time></trkpt><trkpt lat="45.5552267" lon="9.239632"><ele>150.33333333333334</ele><time>2026-03-24T11:51:48.862Z</time></trkpt><trkpt lat="45.5550066" lon="9.2395405"><ele>149.66666666666666</ele><time>2026-03-24T11:51:49.853Z</time></trkpt><trkpt lat="45.5548017" lon="9.2394532"><ele>149.0</ele><time>2026-03-24T11:51:50.85Z</time></trkpt><trkpt lat="45.5546097" lon="9.2393846"><ele>149.33333333333331</ele><time>2026-03-24T11:51:51.847Z</time></trkpt><trkpt lat="45.5544351" lon="9.2393057"><ele>149.66666666666666</ele><time>2026-03-24T11:51:52.858Z</time></trkpt><trkpt lat="45.5542733" lon="9.239225"><ele>150.0</ele><time>2026-03-24T11:51:53.887Z</time></trkpt><trkpt lat="45.5540694" lon="9.2391581"><ele>150.0</ele><time>2026-03-24T11:51:54.85Z</time></trkpt><trkpt lat="45.5538769" lon="9.2390948"><ele>150.0</ele><time>2026-03-24T11:51:55.851Z</time></trkpt><trkpt lat="45.5536867" lon="9.239023"><ele>150.0</ele><time>2026-03-24T11:51:56.843Z</time></trkpt><trkpt lat="45.5534987" lon="9.238936"><ele>150.33333333333334</ele><time>2026-03-24T11:51:57.842Z</time></trkpt><trkpt lat="45.5532832" lon="9.2388431"><ele>150.66666666666669</ele><time>2026-03-24T11:51:58.859Z</time></trkpt><trkpt lat="45.5530942" lon="9.2387522"><ele>151.0</ele><time>2026-03-24T11:51:59.843Z</time></trkpt><trkpt lat="45.5528924" lon="9.2386493"><ele>151.0</ele><time>2026-03-24T11:52:00.847Z</time></trkpt><trkpt lat="45.5527071" lon="9.2385868"><ele>151.0</ele><time>2026-03-24T11:52:01.858Z</time></trkpt><trkpt lat="45.5525031" lon="9.2384834"><ele>151.0</ele><time>2026-03-24T11:52:02.861Z</time></trkpt><trkpt lat="45.5523109" lon="9.2384106"><ele>151.0</ele><time>2026-03-24T11:52:03.851Z</time></trkpt><trkpt lat="45.5521213" lon="9.2383405"><ele>151.0</ele><time>2026-03-24T11:52:04.86Z</time></trkpt><trkpt lat="45.5519341" lon="9.2382549"><ele>151.0</ele><time>2026-03-24T11:52:05.854Z</time></trkpt><trkpt lat="45.5517524" lon="9.2381766"><ele>151.33333333333334</ele><time>2026-03-24T11:52:06.856Z</time></trkpt><trkpt lat="45.5515643" lon="9.2381171"><ele>151.66666666666666</ele><time>2026-03-24T11:52:07.861Z</time></trkpt><trkpt lat="45.5513849" lon="9.2380571"><ele>152.0</ele><time>2026-03-24T11:52:08.857Z</time></trkpt><trkpt lat="45.5511933" lon="9.2379848"><ele>152.0</ele><time>2026-03-24T11:52:09.855Z</time></trkpt><trkpt lat="45.5510236" lon="9.2379099"><ele>152.0</ele><time>2026-03-24T11:52:10.86Z</time></trkpt><trkpt lat="45.5508316" lon="9.2378224"><ele>152.0</ele><time>2026-03-24T11:52:11.86Z</time></trkpt><trkpt lat="45.5506617" lon="9.2377174"><ele>152.0</ele><time>2026-03-24T11:52:12.857Z</time></trkpt><trkpt lat="45.550516" lon="9.2376078"><ele>152.0</ele><time>2026-03-24T11:52:13.856Z</time></trkpt><trkpt lat="45.550348" lon="9.2375456"><ele>152.0</ele><time>2026-03-24T11:52:14.862Z</time></trkpt><trkpt lat="45.5502126" lon="9.2373537"><ele>154.0</ele><time>2026-03-24T11:52:15.852Z</time></trkpt><trkpt lat="45.5500953" lon="9.2372071"><ele>156.0</ele><time>2026-03-24T11:52:16.85Z</time></trkpt><trkpt lat="45.5499448" lon="9.2370783"><ele>158.0</ele><time>2026-03-24T11:52:17.839Z</time></trkpt><trkpt lat="45.5498365" lon="9.2368973"><ele>158.0</ele><time>2026-03-24T11:52:18.837Z</time></trkpt><trkpt lat="45.5497612" lon="9.2367615"><ele>158.0</ele><time>2026-03-24T11:52:19.832Z</time></trkpt><trkpt lat="45.5496672" lon="9.2366122"><ele>158.0</ele><time>2026-03-24T11:52:20.837Z</time></trkpt><trkpt lat="45.5495919" lon="9.2364384"><ele>158.0</ele><time>2026-03-24T11:52:21.839Z</time></trkpt><trkpt lat="45.5494661" lon="9.2362467"><ele>157.5</ele><time>2026-03-24T11:52:22.839Z</time></trkpt><trkpt lat="45.5493691" lon="9.2360704"><ele>157.0</ele><time>2026-03-24T11:52:23.856Z</time></trkpt><trkpt lat="45.5492859" lon="9.2359009"><ele>156.5</ele><time>2026-03-24T11:52:24.836Z</time></trkpt><trkpt lat="45.5492238" lon="9.23573"><ele>156.0</ele><time>2026-03-24T11:52:25.837Z</time></trkpt><trkpt lat="45.549153" lon="9.2355426"><ele>154.33333333333334</ele><time>2026-03-24T11:52:26.839Z</time></trkpt><trkpt lat="45.5490741" lon="9.2353131"><ele>152.66666666666669</ele><time>2026-03-24T11:52:27.837Z</time></trkpt><trkpt lat="45.5489879" lon="9.2350562"><ele>151.0</ele><time>2026-03-24T11:52:28.843Z</time></trkpt><trkpt lat="45.5489405" lon="9.2348424"><ele>151.66666666666669</ele><time>2026-03-24T11:52:29.839Z</time></trkpt><trkpt lat="45.5488798" lon="9.2346471"><ele>152.33333333333334</ele><time>2026-03-24T11:52:30.839Z</time></trkpt><trkpt lat="45.548838" lon="9.2343987"><ele>153.0</ele><time>2026-03-24T11:52:31.832Z</time></trkpt><trkpt lat="45.5487689" lon="9.2342045"><ele>151.66666666666666</ele><time>2026-03-24T11:52:32.836Z</time></trkpt><trkpt lat="45.5487071" lon="9.2339839"><ele>150.33333333333331</ele><time>2026-03-24T11:52:33.837Z</time></trkpt><trkpt lat="45.5486491" lon="9.2337565"><ele>149.0</ele><time>2026-03-24T11:52:34.84Z</time></trkpt><trkpt lat="45.5485724" lon="9.2335457"><ele>149.0</ele><time>2026-03-24T11:52:35.833Z</time></trkpt><trkpt lat="45.5485011" lon="9.2333339"><ele>149.0</ele><time>2026-03-24T11:52:36.835Z</time></trkpt><trkpt lat="45.5484322" lon="9.2331332"><ele>149.0</ele><time>2026-03-24T11:52:37.834Z</time></trkpt><trkpt lat="45.5483644" lon="9.2329275"><ele>150.0</ele><time>2026-03-24T11:52:38.836Z</time></trkpt><trkpt lat="45.5483019" lon="9.2327086"><ele>151.0</ele><time>2026-03-24T11:52:39.839Z</time></trkpt><trkpt lat="45.5481993" lon="9.2325519"><ele>152.0</ele><time>2026-03-24T11:52:40.843Z</time></trkpt><trkpt lat="45.5481223" lon="9.2324042"><ele>153.0</ele><time>2026-03-24T11:52:41.847Z</time></trkpt><trkpt lat="45.5480542" lon="9.2321941"><ele>153.0</ele><time>2026-03-24T11:52:42.846Z</time></trkpt><trkpt lat="45.548" lon="9.2319625"><ele>153.0</ele><time>2026-03-24T11:52:43.843Z</time></trkpt><trkpt lat="45.5479229" lon="9.2317451"><ele>153.0</ele><time>2026-03-24T11:52:44.847Z</time></trkpt><trkpt lat="45.5478448" lon="9.2315363"><ele>152.66666666666666</ele><time>2026-03-24T11:52:45.842Z</time></trkpt><trkpt lat="45.5477782" lon="9.231346"><ele>152.33333333333331</ele><time>2026-03-24T11:52:46.845Z</time></trkpt><trkpt lat="45.5477021" lon="9.2311254"><ele>152.0</ele><time>2026-03-24T11:52:47.837Z</time></trkpt><trkpt lat="45.5476323" lon="9.2309081"><ele>152.0</ele><time>2026-03-24T11:52:48.853Z</time></trkpt><trkpt lat="45.5475569" lon="9.2307017"><ele>152.0</ele><time>2026-03-24T11:52:49.847Z</time></trkpt><trkpt lat="45.5474947" lon="9.2304945"><ele>152.0</ele><time>2026-03-24T11:52:50.847Z</time></trkpt><trkpt lat="45.5474327" lon="9.230305"><ele>151.33333333333331</ele><time>2026-03-24T11:52:51.84Z</time></trkpt><trkpt lat="45.5473444" lon="9.2300838"><ele>150.66666666666666</ele><time>2026-03-24T11:52:52.839Z</time></trkpt><trkpt lat="45.5472883" lon="9.2299005"><ele>150.0</ele><time>2026-03-24T11:52:53.842Z</time></trkpt><trkpt lat="45.5472036" lon="9.2296683"><ele>149.66666666666666</ele><time>2026-03-24T11:52:54.857Z</time></trkpt><trkpt lat="45.5471259" lon="9.2294527"><ele>149.33333333333331</ele><time>2026-03-24T11:52:55.84Z</time></trkpt><trkpt lat="45.5470703" lon="9.2292302"><ele>149.0</ele><time>2026-03-24T11:52:56.833Z</time></trkpt><trkpt lat="45.5469822" lon="9.2289756"><ele>149.0</ele><time>2026-03-24T11:52:57.843Z</time></trkpt><trkpt lat="45.5468911" lon="9.2287191"><ele>149.0</ele><time>2026-03-24T11:52:58.853Z</time></trkpt><trkpt lat="45.5467965" lon="9.2284482"><ele>149.0</ele><time>2026-03-24T11:52:59.84Z</time></trkpt><trkpt lat="45.546709" lon="9.2281952"><ele>149.66666666666666</ele><time>2026-03-24T11:53:00.836Z</time></trkpt><trkpt lat="45.5466329" lon="9.2279301"><ele>150.33333333333334</ele><time>2026-03-24T11:53:01.836Z</time></trkpt><trkpt lat="45.5465526" lon="9.2276825"><ele>151.0</ele><time>2026-03-24T11:53:02.835Z</time></trkpt><trkpt lat="45.54648" lon="9.2273959"><ele>150.33333333333334</ele><time>2026-03-24T11:53:03.834Z</time></trkpt><trkpt lat="45.5463707" lon="9.2271303"><ele>149.66666666666666</ele><time>2026-03-24T11:53:04.833Z</time></trkpt><trkpt lat="45.5462883" lon="9.2268513"><ele>149.0</ele><time>2026-03-24T11:53:05.833Z</time></trkpt><trkpt lat="45.5462136" lon="9.2265909"><ele>149.66666666666666</ele><time>2026-03-24T11:53:06.83Z</time></trkpt><trkpt lat="45.546127" lon="9.2263272"><ele>150.33333333333334</ele><time>2026-03-24T11:53:07.83Z</time></trkpt><trkpt lat="45.5460718" lon="9.2261145"><ele>151.0</ele><time>2026-03-24T11:53:08.827Z</time></trkpt><trkpt lat="45.5459737" lon="9.2258599"><ele>151.0</ele><time>2026-03-24T11:53:09.834Z</time></trkpt><trkpt lat="45.5459134" lon="9.2255739"><ele>150.0</ele><time>2026-03-24T11:53:10.834Z</time></trkpt><trkpt lat="45.5458081" lon="9.2253228"><ele>150.0</ele><time>2026-03-24T11:53:11.829Z</time></trkpt></trkseg></trk></gpx>